<?xml version="1.0" encoding="UTF-8"?>
<gpx xmlns="http://www.topografix.com/GPX/1/1"
     creator="GpsDump 4.92"
     version="1.1"
     xmlns:xsi="http://www.w3.org/2001/XMLSchema-instance"
     xsi:schemaLocation="http://www.topografix.com/GPX/1/1 http://www.topografix.com/GPX/1/1/gpx.xsd">
  <metadata>
    <link href="http://www.gethome.no/stein.sorensen/">
      <text>GPS dump for www.flightlog.org</text>
    </link>
    <time>2018-09-20T07:05:36Z</time>
    <bounds minlat="40.223500" minlon="-4.917450" maxlat="40.294700" maxlon="-4.877817"/>
  </metadata>
  <trk>
    <name>Track 001</name>
    <trkseg>
      <trkpt lat="40.252400" lon="-4.888167">
        <ele>1018.0</ele>
        <time>2018-09-15T10:33:55Z</time>
      </trkpt>
      <trkpt lat="40.252400" lon="-4.888167">
        <ele>1018.0</ele>
        <time>2018-09-15T10:33:56Z</time>
      </trkpt>
      <trkpt lat="40.252400" lon="-4.888167">
        <ele>1018.0</ele>
        <time>2018-09-15T10:33:57Z</time>
      </trkpt>
      <trkpt lat="40.252400" lon="-4.888167">
        <ele>1018.0</ele>
        <time>2018-09-15T10:33:58Z</time>
      </trkpt>
      <trkpt lat="40.252400" lon="-4.888167">
        <ele>1018.0</ele>
        <time>2018-09-15T10:33:59Z</time>
      </trkpt>
      <trkpt lat="40.252400" lon="-4.888167">
        <ele>1018.0</ele>
        <time>2018-09-15T10:34:00Z</time>
      </trkpt>
      <trkpt lat="40.252400" lon="-4.888167">
        <ele>1018.0</ele>
        <time>2018-09-15T10:34:01Z</time>
      </trkpt>
      <trkpt lat="40.252400" lon="-4.888167">
        <ele>1018.0</ele>
        <time>2018-09-15T10:34:02Z</time>
      </trkpt>
      <trkpt lat="40.252400" lon="-4.888167">
        <ele>1018.0</ele>
        <time>2018-09-15T10:34:03Z</time>
      </trkpt>
      <trkpt lat="40.252400" lon="-4.888167">
        <ele>1018.0</ele>
        <time>2018-09-15T10:34:04Z</time>
      </trkpt>
      <trkpt lat="40.252400" lon="-4.888167">
        <ele>1017.0</ele>
        <time>2018-09-15T10:34:05Z</time>
      </trkpt>
      <trkpt lat="40.252400" lon="-4.888167">
        <ele>1017.0</ele>
        <time>2018-09-15T10:34:07Z</time>
      </trkpt>
      <trkpt lat="40.252400" lon="-4.888167">
        <ele>1017.0</ele>
        <time>2018-09-15T10:34:08Z</time>
      </trkpt>
      <trkpt lat="40.252400" lon="-4.888167">
        <ele>1017.0</ele>
        <time>2018-09-15T10:34:09Z</time>
      </trkpt>
      <trkpt lat="40.252400" lon="-4.888167">
        <ele>1017.0</ele>
        <time>2018-09-15T10:34:10Z</time>
      </trkpt>
      <trkpt lat="40.252400" lon="-4.888183">
        <ele>1016.0</ele>
        <time>2018-09-15T10:34:11Z</time>
      </trkpt>
      <trkpt lat="40.252400" lon="-4.888183">
        <ele>1016.0</ele>
        <time>2018-09-15T10:34:12Z</time>
      </trkpt>
      <trkpt lat="40.252400" lon="-4.888167">
        <ele>1016.0</ele>
        <time>2018-09-15T10:34:13Z</time>
      </trkpt>
      <trkpt lat="40.252400" lon="-4.888167">
        <ele>1016.0</ele>
        <time>2018-09-15T10:34:14Z</time>
      </trkpt>
      <trkpt lat="40.252400" lon="-4.888167">
        <ele>1016.0</ele>
        <time>2018-09-15T10:34:15Z</time>
      </trkpt>
      <trkpt lat="40.252400" lon="-4.888167">
        <ele>1016.0</ele>
        <time>2018-09-15T10:34:16Z</time>
      </trkpt>
      <trkpt lat="40.252400" lon="-4.888167">
        <ele>1016.0</ele>
        <time>2018-09-15T10:34:17Z</time>
      </trkpt>
      <trkpt lat="40.252400" lon="-4.888167">
        <ele>1017.0</ele>
        <time>2018-09-15T10:34:18Z</time>
      </trkpt>
      <trkpt lat="40.252400" lon="-4.888150">
        <ele>1017.0</ele>
        <time>2018-09-15T10:34:19Z</time>
      </trkpt>
      <trkpt lat="40.252400" lon="-4.888150">
        <ele>1017.0</ele>
        <time>2018-09-15T10:34:20Z</time>
      </trkpt>
      <trkpt lat="40.252400" lon="-4.888150">
        <ele>1017.0</ele>
        <time>2018-09-15T10:34:21Z</time>
      </trkpt>
      <trkpt lat="40.252400" lon="-4.888150">
        <ele>1017.0</ele>
        <time>2018-09-15T10:34:22Z</time>
      </trkpt>
      <trkpt lat="40.252400" lon="-4.888150">
        <ele>1017.0</ele>
        <time>2018-09-15T10:34:23Z</time>
      </trkpt>
      <trkpt lat="40.252400" lon="-4.888150">
        <ele>1018.0</ele>
        <time>2018-09-15T10:34:24Z</time>
      </trkpt>
      <trkpt lat="40.252400" lon="-4.888150">
        <ele>1018.0</ele>
        <time>2018-09-15T10:34:25Z</time>
      </trkpt>
      <trkpt lat="40.252400" lon="-4.888150">
        <ele>1017.0</ele>
        <time>2018-09-15T10:34:26Z</time>
      </trkpt>
      <trkpt lat="40.252400" lon="-4.888150">
        <ele>1017.0</ele>
        <time>2018-09-15T10:34:27Z</time>
      </trkpt>
      <trkpt lat="40.252400" lon="-4.888150">
        <ele>1017.0</ele>
        <time>2018-09-15T10:34:28Z</time>
      </trkpt>
      <trkpt lat="40.252400" lon="-4.888150">
        <ele>1017.0</ele>
        <time>2018-09-15T10:34:29Z</time>
      </trkpt>
      <trkpt lat="40.252400" lon="-4.888150">
        <ele>1017.0</ele>
        <time>2018-09-15T10:34:30Z</time>
      </trkpt>
      <trkpt lat="40.252400" lon="-4.888150">
        <ele>1017.0</ele>
        <time>2018-09-15T10:34:31Z</time>
      </trkpt>
      <trkpt lat="40.252400" lon="-4.888150">
        <ele>1017.0</ele>
        <time>2018-09-15T10:34:32Z</time>
      </trkpt>
      <trkpt lat="40.252400" lon="-4.888150">
        <ele>1017.0</ele>
        <time>2018-09-15T10:34:33Z</time>
      </trkpt>
      <trkpt lat="40.252400" lon="-4.888150">
        <ele>1017.0</ele>
        <time>2018-09-15T10:34:34Z</time>
      </trkpt>
      <trkpt lat="40.252400" lon="-4.888150">
        <ele>1018.0</ele>
        <time>2018-09-15T10:34:35Z</time>
      </trkpt>
      <trkpt lat="40.252417" lon="-4.888150">
        <ele>1018.0</ele>
        <time>2018-09-15T10:34:36Z</time>
      </trkpt>
      <trkpt lat="40.252417" lon="-4.888150">
        <ele>1018.0</ele>
        <time>2018-09-15T10:34:37Z</time>
      </trkpt>
      <trkpt lat="40.252400" lon="-4.888150">
        <ele>1018.0</ele>
        <time>2018-09-15T10:34:38Z</time>
      </trkpt>
      <trkpt lat="40.252400" lon="-4.888150">
        <ele>1019.0</ele>
        <time>2018-09-15T10:34:39Z</time>
      </trkpt>
      <trkpt lat="40.252400" lon="-4.888167">
        <ele>1019.0</ele>
        <time>2018-09-15T10:34:40Z</time>
      </trkpt>
      <trkpt lat="40.252400" lon="-4.888167">
        <ele>1019.0</ele>
        <time>2018-09-15T10:34:41Z</time>
      </trkpt>
      <trkpt lat="40.252400" lon="-4.888150">
        <ele>1020.0</ele>
        <time>2018-09-15T10:34:42Z</time>
      </trkpt>
      <trkpt lat="40.252400" lon="-4.888150">
        <ele>1020.0</ele>
        <time>2018-09-15T10:34:43Z</time>
      </trkpt>
      <trkpt lat="40.252400" lon="-4.888150">
        <ele>1020.0</ele>
        <time>2018-09-15T10:34:44Z</time>
      </trkpt>
      <trkpt lat="40.252400" lon="-4.888150">
        <ele>1020.0</ele>
        <time>2018-09-15T10:34:45Z</time>
      </trkpt>
      <trkpt lat="40.252400" lon="-4.888150">
        <ele>1020.0</ele>
        <time>2018-09-15T10:34:46Z</time>
      </trkpt>
      <trkpt lat="40.252400" lon="-4.888150">
        <ele>1020.0</ele>
        <time>2018-09-15T10:34:47Z</time>
      </trkpt>
      <trkpt lat="40.252400" lon="-4.888150">
        <ele>1020.0</ele>
        <time>2018-09-15T10:34:48Z</time>
      </trkpt>
      <trkpt lat="40.252400" lon="-4.888150">
        <ele>1020.0</ele>
        <time>2018-09-15T10:34:49Z</time>
      </trkpt>
      <trkpt lat="40.252400" lon="-4.888150">
        <ele>1020.0</ele>
        <time>2018-09-15T10:34:50Z</time>
      </trkpt>
      <trkpt lat="40.252400" lon="-4.888150">
        <ele>1020.0</ele>
        <time>2018-09-15T10:34:51Z</time>
      </trkpt>
      <trkpt lat="40.252400" lon="-4.888150">
        <ele>1020.0</ele>
        <time>2018-09-15T10:34:52Z</time>
      </trkpt>
      <trkpt lat="40.252400" lon="-4.888150">
        <ele>1020.0</ele>
        <time>2018-09-15T10:34:53Z</time>
      </trkpt>
      <trkpt lat="40.252400" lon="-4.888150">
        <ele>1020.0</ele>
        <time>2018-09-15T10:34:54Z</time>
      </trkpt>
      <trkpt lat="40.252400" lon="-4.888150">
        <ele>1020.0</ele>
        <time>2018-09-15T10:34:55Z</time>
      </trkpt>
      <trkpt lat="40.252400" lon="-4.888150">
        <ele>1020.0</ele>
        <time>2018-09-15T10:34:56Z</time>
      </trkpt>
      <trkpt lat="40.252400" lon="-4.888150">
        <ele>1020.0</ele>
        <time>2018-09-15T10:34:57Z</time>
      </trkpt>
      <trkpt lat="40.252400" lon="-4.888150">
        <ele>1020.0</ele>
        <time>2018-09-15T10:34:58Z</time>
      </trkpt>
      <trkpt lat="40.252400" lon="-4.888150">
        <ele>1020.0</ele>
        <time>2018-09-15T10:34:59Z</time>
      </trkpt>
      <trkpt lat="40.252400" lon="-4.888150">
        <ele>1020.0</ele>
        <time>2018-09-15T10:35:00Z</time>
      </trkpt>
      <trkpt lat="40.252400" lon="-4.888150">
        <ele>1020.0</ele>
        <time>2018-09-15T10:35:01Z</time>
      </trkpt>
      <trkpt lat="40.252417" lon="-4.888150">
        <ele>1020.0</ele>
        <time>2018-09-15T10:35:02Z</time>
      </trkpt>
      <trkpt lat="40.252417" lon="-4.888150">
        <ele>1020.0</ele>
        <time>2018-09-15T10:35:03Z</time>
      </trkpt>
      <trkpt lat="40.252417" lon="-4.888150">
        <ele>1020.0</ele>
        <time>2018-09-15T10:35:04Z</time>
      </trkpt>
      <trkpt lat="40.252417" lon="-4.888150">
        <ele>1020.0</ele>
        <time>2018-09-15T10:35:05Z</time>
      </trkpt>
      <trkpt lat="40.252417" lon="-4.888150">
        <ele>1021.0</ele>
        <time>2018-09-15T10:35:06Z</time>
      </trkpt>
      <trkpt lat="40.252417" lon="-4.888150">
        <ele>1021.0</ele>
        <time>2018-09-15T10:35:07Z</time>
      </trkpt>
      <trkpt lat="40.252417" lon="-4.888150">
        <ele>1021.0</ele>
        <time>2018-09-15T10:35:08Z</time>
      </trkpt>
      <trkpt lat="40.252417" lon="-4.888150">
        <ele>1021.0</ele>
        <time>2018-09-15T10:35:09Z</time>
      </trkpt>
      <trkpt lat="40.252417" lon="-4.888150">
        <ele>1021.0</ele>
        <time>2018-09-15T10:35:10Z</time>
      </trkpt>
      <trkpt lat="40.252417" lon="-4.888150">
        <ele>1021.0</ele>
        <time>2018-09-15T10:35:11Z</time>
      </trkpt>
      <trkpt lat="40.252417" lon="-4.888150">
        <ele>1021.0</ele>
        <time>2018-09-15T10:35:12Z</time>
      </trkpt>
      <trkpt lat="40.252417" lon="-4.888150">
        <ele>1021.0</ele>
        <time>2018-09-15T10:35:13Z</time>
      </trkpt>
      <trkpt lat="40.252417" lon="-4.888150">
        <ele>1021.0</ele>
        <time>2018-09-15T10:35:14Z</time>
      </trkpt>
      <trkpt lat="40.252417" lon="-4.888150">
        <ele>1021.0</ele>
        <time>2018-09-15T10:35:15Z</time>
      </trkpt>
      <trkpt lat="40.252417" lon="-4.888150">
        <ele>1021.0</ele>
        <time>2018-09-15T10:35:16Z</time>
      </trkpt>
      <trkpt lat="40.252417" lon="-4.888150">
        <ele>1022.0</ele>
        <time>2018-09-15T10:35:17Z</time>
      </trkpt>
      <trkpt lat="40.252400" lon="-4.888150">
        <ele>1022.0</ele>
        <time>2018-09-15T10:35:18Z</time>
      </trkpt>
      <trkpt lat="40.252400" lon="-4.888150">
        <ele>1022.0</ele>
        <time>2018-09-15T10:35:20Z</time>
      </trkpt>
      <trkpt lat="40.252400" lon="-4.888150">
        <ele>1023.0</ele>
        <time>2018-09-15T10:35:21Z</time>
      </trkpt>
      <trkpt lat="40.252400" lon="-4.888150">
        <ele>1023.0</ele>
        <time>2018-09-15T10:35:22Z</time>
      </trkpt>
      <trkpt lat="40.252400" lon="-4.888150">
        <ele>1023.0</ele>
        <time>2018-09-15T10:35:23Z</time>
      </trkpt>
      <trkpt lat="40.252400" lon="-4.888150">
        <ele>1024.0</ele>
        <time>2018-09-15T10:35:24Z</time>
      </trkpt>
      <trkpt lat="40.252400" lon="-4.888150">
        <ele>1024.0</ele>
        <time>2018-09-15T10:35:25Z</time>
      </trkpt>
      <trkpt lat="40.252400" lon="-4.888150">
        <ele>1025.0</ele>
        <time>2018-09-15T10:35:27Z</time>
      </trkpt>
      <trkpt lat="40.252400" lon="-4.888150">
        <ele>1025.0</ele>
        <time>2018-09-15T10:35:28Z</time>
      </trkpt>
      <trkpt lat="40.252417" lon="-4.888150">
        <ele>1025.0</ele>
        <time>2018-09-15T10:35:29Z</time>
      </trkpt>
      <trkpt lat="40.252400" lon="-4.888150">
        <ele>1025.0</ele>
        <time>2018-09-15T10:35:30Z</time>
      </trkpt>
      <trkpt lat="40.252417" lon="-4.888150">
        <ele>1025.0</ele>
        <time>2018-09-15T10:35:31Z</time>
      </trkpt>
      <trkpt lat="40.252417" lon="-4.888150">
        <ele>1025.0</ele>
        <time>2018-09-15T10:35:32Z</time>
      </trkpt>
      <trkpt lat="40.252417" lon="-4.888150">
        <ele>1025.0</ele>
        <time>2018-09-15T10:35:33Z</time>
      </trkpt>
      <trkpt lat="40.252417" lon="-4.888150">
        <ele>1025.0</ele>
        <time>2018-09-15T10:35:34Z</time>
      </trkpt>
      <trkpt lat="40.252417" lon="-4.888150">
        <ele>1025.0</ele>
        <time>2018-09-15T10:35:36Z</time>
      </trkpt>
      <trkpt lat="40.252417" lon="-4.888150">
        <ele>1025.0</ele>
        <time>2018-09-15T10:35:37Z</time>
      </trkpt>
      <trkpt lat="40.252417" lon="-4.888150">
        <ele>1025.0</ele>
        <time>2018-09-15T10:35:38Z</time>
      </trkpt>
      <trkpt lat="40.252417" lon="-4.888150">
        <ele>1025.0</ele>
        <time>2018-09-15T10:35:39Z</time>
      </trkpt>
      <trkpt lat="40.252417" lon="-4.888150">
        <ele>1025.0</ele>
        <time>2018-09-15T10:35:40Z</time>
      </trkpt>
      <trkpt lat="40.252417" lon="-4.888133">
        <ele>1025.0</ele>
        <time>2018-09-15T10:35:43Z</time>
      </trkpt>
      <trkpt lat="40.252417" lon="-4.888133">
        <ele>1025.0</ele>
        <time>2018-09-15T10:35:44Z</time>
      </trkpt>
      <trkpt lat="40.252417" lon="-4.888133">
        <ele>1024.0</ele>
        <time>2018-09-15T10:35:45Z</time>
      </trkpt>
      <trkpt lat="40.252417" lon="-4.888117">
        <ele>1024.0</ele>
        <time>2018-09-15T10:35:46Z</time>
      </trkpt>
      <trkpt lat="40.252417" lon="-4.888117">
        <ele>1024.0</ele>
        <time>2018-09-15T10:35:47Z</time>
      </trkpt>
      <trkpt lat="40.252417" lon="-4.888117">
        <ele>1024.0</ele>
        <time>2018-09-15T10:35:48Z</time>
      </trkpt>
      <trkpt lat="40.252417" lon="-4.888117">
        <ele>1024.0</ele>
        <time>2018-09-15T10:35:49Z</time>
      </trkpt>
      <trkpt lat="40.252417" lon="-4.888117">
        <ele>1024.0</ele>
        <time>2018-09-15T10:35:50Z</time>
      </trkpt>
      <trkpt lat="40.252417" lon="-4.888117">
        <ele>1024.0</ele>
        <time>2018-09-15T10:35:51Z</time>
      </trkpt>
      <trkpt lat="40.252417" lon="-4.888117">
        <ele>1024.0</ele>
        <time>2018-09-15T10:35:52Z</time>
      </trkpt>
      <trkpt lat="40.252417" lon="-4.888133">
        <ele>1024.0</ele>
        <time>2018-09-15T10:35:53Z</time>
      </trkpt>
      <trkpt lat="40.252417" lon="-4.888133">
        <ele>1024.0</ele>
        <time>2018-09-15T10:35:54Z</time>
      </trkpt>
      <trkpt lat="40.252433" lon="-4.888133">
        <ele>1024.0</ele>
        <time>2018-09-15T10:35:55Z</time>
      </trkpt>
      <trkpt lat="40.252433" lon="-4.888117">
        <ele>1024.0</ele>
        <time>2018-09-15T10:35:56Z</time>
      </trkpt>
      <trkpt lat="40.252433" lon="-4.888117">
        <ele>1024.0</ele>
        <time>2018-09-15T10:35:57Z</time>
      </trkpt>
      <trkpt lat="40.252433" lon="-4.888117">
        <ele>1024.0</ele>
        <time>2018-09-15T10:35:58Z</time>
      </trkpt>
      <trkpt lat="40.252433" lon="-4.888133">
        <ele>1024.0</ele>
        <time>2018-09-15T10:35:59Z</time>
      </trkpt>
      <trkpt lat="40.252433" lon="-4.888133">
        <ele>1024.0</ele>
        <time>2018-09-15T10:36:00Z</time>
      </trkpt>
      <trkpt lat="40.252433" lon="-4.888133">
        <ele>1024.0</ele>
        <time>2018-09-15T10:36:01Z</time>
      </trkpt>
      <trkpt lat="40.252433" lon="-4.888133">
        <ele>1024.0</ele>
        <time>2018-09-15T10:36:02Z</time>
      </trkpt>
      <trkpt lat="40.252433" lon="-4.888133">
        <ele>1024.0</ele>
        <time>2018-09-15T10:36:03Z</time>
      </trkpt>
      <trkpt lat="40.252433" lon="-4.888117">
        <ele>1024.0</ele>
        <time>2018-09-15T10:36:04Z</time>
      </trkpt>
      <trkpt lat="40.252433" lon="-4.888117">
        <ele>1024.0</ele>
        <time>2018-09-15T10:36:05Z</time>
      </trkpt>
      <trkpt lat="40.252433" lon="-4.888117">
        <ele>1024.0</ele>
        <time>2018-09-15T10:36:06Z</time>
      </trkpt>
      <trkpt lat="40.252433" lon="-4.888133">
        <ele>1024.0</ele>
        <time>2018-09-15T10:36:07Z</time>
      </trkpt>
      <trkpt lat="40.252433" lon="-4.888133">
        <ele>1024.0</ele>
        <time>2018-09-15T10:36:08Z</time>
      </trkpt>
      <trkpt lat="40.252433" lon="-4.888117">
        <ele>1024.0</ele>
        <time>2018-09-15T10:36:09Z</time>
      </trkpt>
      <trkpt lat="40.252433" lon="-4.888117">
        <ele>1024.0</ele>
        <time>2018-09-15T10:36:10Z</time>
      </trkpt>
      <trkpt lat="40.252433" lon="-4.888117">
        <ele>1024.0</ele>
        <time>2018-09-15T10:36:11Z</time>
      </trkpt>
      <trkpt lat="40.252433" lon="-4.888117">
        <ele>1024.0</ele>
        <time>2018-09-15T10:36:12Z</time>
      </trkpt>
      <trkpt lat="40.252433" lon="-4.888117">
        <ele>1024.0</ele>
        <time>2018-09-15T10:36:13Z</time>
      </trkpt>
      <trkpt lat="40.252433" lon="-4.888117">
        <ele>1024.0</ele>
        <time>2018-09-15T10:36:14Z</time>
      </trkpt>
      <trkpt lat="40.252433" lon="-4.888117">
        <ele>1024.0</ele>
        <time>2018-09-15T10:36:15Z</time>
      </trkpt>
      <trkpt lat="40.252433" lon="-4.888117">
        <ele>1024.0</ele>
        <time>2018-09-15T10:36:16Z</time>
      </trkpt>
      <trkpt lat="40.252433" lon="-4.888117">
        <ele>1024.0</ele>
        <time>2018-09-15T10:36:17Z</time>
      </trkpt>
      <trkpt lat="40.252433" lon="-4.888117">
        <ele>1024.0</ele>
        <time>2018-09-15T10:36:18Z</time>
      </trkpt>
      <trkpt lat="40.252433" lon="-4.888117">
        <ele>1025.0</ele>
        <time>2018-09-15T10:36:19Z</time>
      </trkpt>
      <trkpt lat="40.252433" lon="-4.888117">
        <ele>1025.0</ele>
        <time>2018-09-15T10:36:20Z</time>
      </trkpt>
      <trkpt lat="40.252417" lon="-4.888117">
        <ele>1025.0</ele>
        <time>2018-09-15T10:36:21Z</time>
      </trkpt>
      <trkpt lat="40.252417" lon="-4.888117">
        <ele>1025.0</ele>
        <time>2018-09-15T10:36:22Z</time>
      </trkpt>
      <trkpt lat="40.252417" lon="-4.888117">
        <ele>1025.0</ele>
        <time>2018-09-15T10:36:23Z</time>
      </trkpt>
      <trkpt lat="40.252417" lon="-4.888117">
        <ele>1025.0</ele>
        <time>2018-09-15T10:36:24Z</time>
      </trkpt>
      <trkpt lat="40.252417" lon="-4.888117">
        <ele>1025.0</ele>
        <time>2018-09-15T10:36:25Z</time>
      </trkpt>
      <trkpt lat="40.252417" lon="-4.888117">
        <ele>1025.0</ele>
        <time>2018-09-15T10:36:26Z</time>
      </trkpt>
      <trkpt lat="40.252417" lon="-4.888117">
        <ele>1025.0</ele>
        <time>2018-09-15T10:36:27Z</time>
      </trkpt>
      <trkpt lat="40.252417" lon="-4.888117">
        <ele>1025.0</ele>
        <time>2018-09-15T10:36:28Z</time>
      </trkpt>
      <trkpt lat="40.252417" lon="-4.888117">
        <ele>1025.0</ele>
        <time>2018-09-15T10:36:29Z</time>
      </trkpt>
      <trkpt lat="40.252417" lon="-4.888117">
        <ele>1025.0</ele>
        <time>2018-09-15T10:36:30Z</time>
      </trkpt>
      <trkpt lat="40.252417" lon="-4.888117">
        <ele>1025.0</ele>
        <time>2018-09-15T10:36:31Z</time>
      </trkpt>
      <trkpt lat="40.252417" lon="-4.888117">
        <ele>1025.0</ele>
        <time>2018-09-15T10:36:32Z</time>
      </trkpt>
      <trkpt lat="40.252417" lon="-4.888100">
        <ele>1025.0</ele>
        <time>2018-09-15T10:36:33Z</time>
      </trkpt>
      <trkpt lat="40.252417" lon="-4.888100">
        <ele>1025.0</ele>
        <time>2018-09-15T10:36:34Z</time>
      </trkpt>
      <trkpt lat="40.252400" lon="-4.888100">
        <ele>1025.0</ele>
        <time>2018-09-15T10:36:35Z</time>
      </trkpt>
      <trkpt lat="40.252400" lon="-4.888100">
        <ele>1025.0</ele>
        <time>2018-09-15T10:36:36Z</time>
      </trkpt>
      <trkpt lat="40.252400" lon="-4.888100">
        <ele>1025.0</ele>
        <time>2018-09-15T10:36:37Z</time>
      </trkpt>
      <trkpt lat="40.252400" lon="-4.888100">
        <ele>1025.0</ele>
        <time>2018-09-15T10:36:38Z</time>
      </trkpt>
      <trkpt lat="40.252417" lon="-4.888100">
        <ele>1025.0</ele>
        <time>2018-09-15T10:36:39Z</time>
      </trkpt>
      <trkpt lat="40.252417" lon="-4.888083">
        <ele>1025.0</ele>
        <time>2018-09-15T10:36:40Z</time>
      </trkpt>
      <trkpt lat="40.252417" lon="-4.888100">
        <ele>1025.0</ele>
        <time>2018-09-15T10:36:41Z</time>
      </trkpt>
      <trkpt lat="40.252417" lon="-4.888100">
        <ele>1025.0</ele>
        <time>2018-09-15T10:36:42Z</time>
      </trkpt>
      <trkpt lat="40.252417" lon="-4.888083">
        <ele>1025.0</ele>
        <time>2018-09-15T10:36:43Z</time>
      </trkpt>
      <trkpt lat="40.252417" lon="-4.888083">
        <ele>1025.0</ele>
        <time>2018-09-15T10:36:44Z</time>
      </trkpt>
      <trkpt lat="40.252417" lon="-4.888083">
        <ele>1025.0</ele>
        <time>2018-09-15T10:36:45Z</time>
      </trkpt>
      <trkpt lat="40.252417" lon="-4.888083">
        <ele>1025.0</ele>
        <time>2018-09-15T10:36:46Z</time>
      </trkpt>
      <trkpt lat="40.252417" lon="-4.888067">
        <ele>1025.0</ele>
        <time>2018-09-15T10:36:47Z</time>
      </trkpt>
      <trkpt lat="40.252433" lon="-4.888067">
        <ele>1025.0</ele>
        <time>2018-09-15T10:36:48Z</time>
      </trkpt>
      <trkpt lat="40.252433" lon="-4.888083">
        <ele>1025.0</ele>
        <time>2018-09-15T10:36:49Z</time>
      </trkpt>
      <trkpt lat="40.252433" lon="-4.888083">
        <ele>1025.0</ele>
        <time>2018-09-15T10:36:50Z</time>
      </trkpt>
      <trkpt lat="40.252433" lon="-4.888083">
        <ele>1025.0</ele>
        <time>2018-09-15T10:36:51Z</time>
      </trkpt>
      <trkpt lat="40.252433" lon="-4.888083">
        <ele>1025.0</ele>
        <time>2018-09-15T10:36:52Z</time>
      </trkpt>
      <trkpt lat="40.252433" lon="-4.888083">
        <ele>1025.0</ele>
        <time>2018-09-15T10:36:54Z</time>
      </trkpt>
      <trkpt lat="40.252433" lon="-4.888083">
        <ele>1025.0</ele>
        <time>2018-09-15T10:36:55Z</time>
      </trkpt>
      <trkpt lat="40.252433" lon="-4.888083">
        <ele>1025.0</ele>
        <time>2018-09-15T10:36:56Z</time>
      </trkpt>
      <trkpt lat="40.252433" lon="-4.888083">
        <ele>1025.0</ele>
        <time>2018-09-15T10:36:57Z</time>
      </trkpt>
      <trkpt lat="40.252433" lon="-4.888083">
        <ele>1025.0</ele>
        <time>2018-09-15T10:36:58Z</time>
      </trkpt>
      <trkpt lat="40.252433" lon="-4.888100">
        <ele>1025.0</ele>
        <time>2018-09-15T10:36:59Z</time>
      </trkpt>
      <trkpt lat="40.252417" lon="-4.888100">
        <ele>1025.0</ele>
        <time>2018-09-15T10:37:00Z</time>
      </trkpt>
      <trkpt lat="40.252417" lon="-4.888100">
        <ele>1025.0</ele>
        <time>2018-09-15T10:37:01Z</time>
      </trkpt>
      <trkpt lat="40.252417" lon="-4.888100">
        <ele>1025.0</ele>
        <time>2018-09-15T10:37:02Z</time>
      </trkpt>
      <trkpt lat="40.252417" lon="-4.888100">
        <ele>1025.0</ele>
        <time>2018-09-15T10:37:03Z</time>
      </trkpt>
      <trkpt lat="40.252417" lon="-4.888100">
        <ele>1025.0</ele>
        <time>2018-09-15T10:37:04Z</time>
      </trkpt>
      <trkpt lat="40.252417" lon="-4.888100">
        <ele>1025.0</ele>
        <time>2018-09-15T10:37:05Z</time>
      </trkpt>
      <trkpt lat="40.252417" lon="-4.888100">
        <ele>1025.0</ele>
        <time>2018-09-15T10:37:06Z</time>
      </trkpt>
      <trkpt lat="40.252417" lon="-4.888100">
        <ele>1025.0</ele>
        <time>2018-09-15T10:37:07Z</time>
      </trkpt>
      <trkpt lat="40.252417" lon="-4.888100">
        <ele>1025.0</ele>
        <time>2018-09-15T10:37:08Z</time>
      </trkpt>
      <trkpt lat="40.252417" lon="-4.888100">
        <ele>1025.0</ele>
        <time>2018-09-15T10:37:09Z</time>
      </trkpt>
      <trkpt lat="40.252417" lon="-4.888100">
        <ele>1025.0</ele>
        <time>2018-09-15T10:37:10Z</time>
      </trkpt>
      <trkpt lat="40.252417" lon="-4.888100">
        <ele>1025.0</ele>
        <time>2018-09-15T10:37:11Z</time>
      </trkpt>
      <trkpt lat="40.252417" lon="-4.888100">
        <ele>1025.0</ele>
        <time>2018-09-15T10:37:12Z</time>
      </trkpt>
      <trkpt lat="40.252417" lon="-4.888100">
        <ele>1025.0</ele>
        <time>2018-09-15T10:37:13Z</time>
      </trkpt>
      <trkpt lat="40.252417" lon="-4.888100">
        <ele>1025.0</ele>
        <time>2018-09-15T10:37:14Z</time>
      </trkpt>
      <trkpt lat="40.252417" lon="-4.888100">
        <ele>1025.0</ele>
        <time>2018-09-15T10:37:15Z</time>
      </trkpt>
      <trkpt lat="40.252417" lon="-4.888100">
        <ele>1025.0</ele>
        <time>2018-09-15T10:37:16Z</time>
      </trkpt>
      <trkpt lat="40.252417" lon="-4.888100">
        <ele>1025.0</ele>
        <time>2018-09-15T10:37:17Z</time>
      </trkpt>
      <trkpt lat="40.252417" lon="-4.888100">
        <ele>1025.0</ele>
        <time>2018-09-15T10:37:18Z</time>
      </trkpt>
      <trkpt lat="40.252417" lon="-4.888100">
        <ele>1025.0</ele>
        <time>2018-09-15T10:37:19Z</time>
      </trkpt>
      <trkpt lat="40.252417" lon="-4.888100">
        <ele>1025.0</ele>
        <time>2018-09-15T10:37:20Z</time>
      </trkpt>
      <trkpt lat="40.252417" lon="-4.888100">
        <ele>1025.0</ele>
        <time>2018-09-15T10:37:21Z</time>
      </trkpt>
      <trkpt lat="40.252417" lon="-4.888100">
        <ele>1025.0</ele>
        <time>2018-09-15T10:37:22Z</time>
      </trkpt>
      <trkpt lat="40.252417" lon="-4.888100">
        <ele>1025.0</ele>
        <time>2018-09-15T10:37:23Z</time>
      </trkpt>
      <trkpt lat="40.252417" lon="-4.888117">
        <ele>1025.0</ele>
        <time>2018-09-15T10:37:24Z</time>
      </trkpt>
      <trkpt lat="40.252417" lon="-4.888117">
        <ele>1025.0</ele>
        <time>2018-09-15T10:37:25Z</time>
      </trkpt>
      <trkpt lat="40.252417" lon="-4.888117">
        <ele>1025.0</ele>
        <time>2018-09-15T10:37:26Z</time>
      </trkpt>
      <trkpt lat="40.252417" lon="-4.888117">
        <ele>1025.0</ele>
        <time>2018-09-15T10:37:27Z</time>
      </trkpt>
      <trkpt lat="40.252417" lon="-4.888117">
        <ele>1025.0</ele>
        <time>2018-09-15T10:37:28Z</time>
      </trkpt>
      <trkpt lat="40.252417" lon="-4.888117">
        <ele>1025.0</ele>
        <time>2018-09-15T10:37:29Z</time>
      </trkpt>
      <trkpt lat="40.252417" lon="-4.888117">
        <ele>1025.0</ele>
        <time>2018-09-15T10:37:30Z</time>
      </trkpt>
      <trkpt lat="40.252417" lon="-4.888117">
        <ele>1025.0</ele>
        <time>2018-09-15T10:37:31Z</time>
      </trkpt>
      <trkpt lat="40.252417" lon="-4.888117">
        <ele>1025.0</ele>
        <time>2018-09-15T10:37:32Z</time>
      </trkpt>
      <trkpt lat="40.252417" lon="-4.888133">
        <ele>1025.0</ele>
        <time>2018-09-15T10:37:33Z</time>
      </trkpt>
      <trkpt lat="40.252417" lon="-4.888133">
        <ele>1025.0</ele>
        <time>2018-09-15T10:37:34Z</time>
      </trkpt>
      <trkpt lat="40.252417" lon="-4.888133">
        <ele>1025.0</ele>
        <time>2018-09-15T10:37:35Z</time>
      </trkpt>
      <trkpt lat="40.252417" lon="-4.888117">
        <ele>1025.0</ele>
        <time>2018-09-15T10:37:36Z</time>
      </trkpt>
      <trkpt lat="40.252417" lon="-4.888117">
        <ele>1025.0</ele>
        <time>2018-09-15T10:37:37Z</time>
      </trkpt>
      <trkpt lat="40.252417" lon="-4.888117">
        <ele>1024.0</ele>
        <time>2018-09-15T10:37:38Z</time>
      </trkpt>
      <trkpt lat="40.252417" lon="-4.888117">
        <ele>1024.0</ele>
        <time>2018-09-15T10:37:39Z</time>
      </trkpt>
      <trkpt lat="40.252417" lon="-4.888117">
        <ele>1024.0</ele>
        <time>2018-09-15T10:37:40Z</time>
      </trkpt>
      <trkpt lat="40.252417" lon="-4.888117">
        <ele>1024.0</ele>
        <time>2018-09-15T10:37:41Z</time>
      </trkpt>
      <trkpt lat="40.252417" lon="-4.888133">
        <ele>1024.0</ele>
        <time>2018-09-15T10:37:42Z</time>
      </trkpt>
      <trkpt lat="40.252417" lon="-4.888117">
        <ele>1024.0</ele>
        <time>2018-09-15T10:37:43Z</time>
      </trkpt>
      <trkpt lat="40.252417" lon="-4.888117">
        <ele>1024.0</ele>
        <time>2018-09-15T10:37:44Z</time>
      </trkpt>
      <trkpt lat="40.252417" lon="-4.888117">
        <ele>1024.0</ele>
        <time>2018-09-15T10:37:45Z</time>
      </trkpt>
      <trkpt lat="40.252417" lon="-4.888117">
        <ele>1024.0</ele>
        <time>2018-09-15T10:37:46Z</time>
      </trkpt>
      <trkpt lat="40.252417" lon="-4.888133">
        <ele>1024.0</ele>
        <time>2018-09-15T10:37:47Z</time>
      </trkpt>
      <trkpt lat="40.252417" lon="-4.888117">
        <ele>1024.0</ele>
        <time>2018-09-15T10:37:48Z</time>
      </trkpt>
      <trkpt lat="40.252417" lon="-4.888117">
        <ele>1024.0</ele>
        <time>2018-09-15T10:37:49Z</time>
      </trkpt>
      <trkpt lat="40.252417" lon="-4.888117">
        <ele>1024.0</ele>
        <time>2018-09-15T10:37:50Z</time>
      </trkpt>
      <trkpt lat="40.252417" lon="-4.888117">
        <ele>1024.0</ele>
        <time>2018-09-15T10:37:51Z</time>
      </trkpt>
      <trkpt lat="40.252417" lon="-4.888117">
        <ele>1024.0</ele>
        <time>2018-09-15T10:37:52Z</time>
      </trkpt>
      <trkpt lat="40.252417" lon="-4.888100">
        <ele>1024.0</ele>
        <time>2018-09-15T10:37:53Z</time>
      </trkpt>
      <trkpt lat="40.252417" lon="-4.888100">
        <ele>1024.0</ele>
        <time>2018-09-15T10:37:54Z</time>
      </trkpt>
      <trkpt lat="40.252417" lon="-4.888117">
        <ele>1024.0</ele>
        <time>2018-09-15T10:37:55Z</time>
      </trkpt>
      <trkpt lat="40.252417" lon="-4.888117">
        <ele>1024.0</ele>
        <time>2018-09-15T10:37:56Z</time>
      </trkpt>
      <trkpt lat="40.252400" lon="-4.888100">
        <ele>1024.0</ele>
        <time>2018-09-15T10:37:57Z</time>
      </trkpt>
      <trkpt lat="40.252400" lon="-4.888100">
        <ele>1024.0</ele>
        <time>2018-09-15T10:37:58Z</time>
      </trkpt>
      <trkpt lat="40.252400" lon="-4.888100">
        <ele>1024.0</ele>
        <time>2018-09-15T10:37:59Z</time>
      </trkpt>
      <trkpt lat="40.252400" lon="-4.888100">
        <ele>1024.0</ele>
        <time>2018-09-15T10:38:00Z</time>
      </trkpt>
      <trkpt lat="40.252400" lon="-4.888100">
        <ele>1024.0</ele>
        <time>2018-09-15T10:38:01Z</time>
      </trkpt>
      <trkpt lat="40.252400" lon="-4.888100">
        <ele>1024.0</ele>
        <time>2018-09-15T10:38:02Z</time>
      </trkpt>
      <trkpt lat="40.252400" lon="-4.888117">
        <ele>1024.0</ele>
        <time>2018-09-15T10:38:03Z</time>
      </trkpt>
      <trkpt lat="40.252400" lon="-4.888117">
        <ele>1024.0</ele>
        <time>2018-09-15T10:38:04Z</time>
      </trkpt>
      <trkpt lat="40.252400" lon="-4.888117">
        <ele>1024.0</ele>
        <time>2018-09-15T10:38:05Z</time>
      </trkpt>
      <trkpt lat="40.252400" lon="-4.888117">
        <ele>1024.0</ele>
        <time>2018-09-15T10:38:06Z</time>
      </trkpt>
      <trkpt lat="40.252400" lon="-4.888117">
        <ele>1024.0</ele>
        <time>2018-09-15T10:38:07Z</time>
      </trkpt>
      <trkpt lat="40.252400" lon="-4.888133">
        <ele>1024.0</ele>
        <time>2018-09-15T10:38:08Z</time>
      </trkpt>
      <trkpt lat="40.252417" lon="-4.888117">
        <ele>1024.0</ele>
        <time>2018-09-15T10:38:09Z</time>
      </trkpt>
      <trkpt lat="40.252417" lon="-4.888117">
        <ele>1024.0</ele>
        <time>2018-09-15T10:38:10Z</time>
      </trkpt>
      <trkpt lat="40.252417" lon="-4.888117">
        <ele>1024.0</ele>
        <time>2018-09-15T10:38:11Z</time>
      </trkpt>
      <trkpt lat="40.252417" lon="-4.888133">
        <ele>1024.0</ele>
        <time>2018-09-15T10:38:12Z</time>
      </trkpt>
      <trkpt lat="40.252417" lon="-4.888133">
        <ele>1024.0</ele>
        <time>2018-09-15T10:38:13Z</time>
      </trkpt>
      <trkpt lat="40.252417" lon="-4.888133">
        <ele>1024.0</ele>
        <time>2018-09-15T10:38:14Z</time>
      </trkpt>
      <trkpt lat="40.252417" lon="-4.888117">
        <ele>1024.0</ele>
        <time>2018-09-15T10:38:15Z</time>
      </trkpt>
      <trkpt lat="40.252417" lon="-4.888117">
        <ele>1024.0</ele>
        <time>2018-09-15T10:38:16Z</time>
      </trkpt>
      <trkpt lat="40.252417" lon="-4.888117">
        <ele>1024.0</ele>
        <time>2018-09-15T10:38:17Z</time>
      </trkpt>
      <trkpt lat="40.252417" lon="-4.888117">
        <ele>1024.0</ele>
        <time>2018-09-15T10:38:18Z</time>
      </trkpt>
      <trkpt lat="40.252417" lon="-4.888117">
        <ele>1024.0</ele>
        <time>2018-09-15T10:38:19Z</time>
      </trkpt>
      <trkpt lat="40.252417" lon="-4.888117">
        <ele>1024.0</ele>
        <time>2018-09-15T10:38:20Z</time>
      </trkpt>
      <trkpt lat="40.252417" lon="-4.888117">
        <ele>1024.0</ele>
        <time>2018-09-15T10:38:21Z</time>
      </trkpt>
      <trkpt lat="40.252417" lon="-4.888117">
        <ele>1024.0</ele>
        <time>2018-09-15T10:38:22Z</time>
      </trkpt>
      <trkpt lat="40.252417" lon="-4.888117">
        <ele>1024.0</ele>
        <time>2018-09-15T10:38:23Z</time>
      </trkpt>
      <trkpt lat="40.252417" lon="-4.888100">
        <ele>1024.0</ele>
        <time>2018-09-15T10:38:24Z</time>
      </trkpt>
      <trkpt lat="40.252417" lon="-4.888100">
        <ele>1024.0</ele>
        <time>2018-09-15T10:38:25Z</time>
      </trkpt>
      <trkpt lat="40.252417" lon="-4.888117">
        <ele>1024.0</ele>
        <time>2018-09-15T10:38:26Z</time>
      </trkpt>
      <trkpt lat="40.252417" lon="-4.888117">
        <ele>1024.0</ele>
        <time>2018-09-15T10:38:27Z</time>
      </trkpt>
      <trkpt lat="40.252417" lon="-4.888117">
        <ele>1024.0</ele>
        <time>2018-09-15T10:38:28Z</time>
      </trkpt>
      <trkpt lat="40.252417" lon="-4.888117">
        <ele>1024.0</ele>
        <time>2018-09-15T10:38:29Z</time>
      </trkpt>
      <trkpt lat="40.252417" lon="-4.888117">
        <ele>1024.0</ele>
        <time>2018-09-15T10:38:30Z</time>
      </trkpt>
      <trkpt lat="40.252417" lon="-4.888117">
        <ele>1024.0</ele>
        <time>2018-09-15T10:38:31Z</time>
      </trkpt>
      <trkpt lat="40.252400" lon="-4.888117">
        <ele>1024.0</ele>
        <time>2018-09-15T10:38:32Z</time>
      </trkpt>
      <trkpt lat="40.252400" lon="-4.888117">
        <ele>1024.0</ele>
        <time>2018-09-15T10:38:33Z</time>
      </trkpt>
      <trkpt lat="40.252400" lon="-4.888117">
        <ele>1024.0</ele>
        <time>2018-09-15T10:38:34Z</time>
      </trkpt>
      <trkpt lat="40.252400" lon="-4.888117">
        <ele>1024.0</ele>
        <time>2018-09-15T10:38:35Z</time>
      </trkpt>
      <trkpt lat="40.252400" lon="-4.888117">
        <ele>1024.0</ele>
        <time>2018-09-15T10:38:36Z</time>
      </trkpt>
      <trkpt lat="40.252400" lon="-4.888117">
        <ele>1024.0</ele>
        <time>2018-09-15T10:38:37Z</time>
      </trkpt>
      <trkpt lat="40.252400" lon="-4.888117">
        <ele>1024.0</ele>
        <time>2018-09-15T10:38:38Z</time>
      </trkpt>
      <trkpt lat="40.252400" lon="-4.888117">
        <ele>1024.0</ele>
        <time>2018-09-15T10:38:39Z</time>
      </trkpt>
      <trkpt lat="40.252400" lon="-4.888117">
        <ele>1024.0</ele>
        <time>2018-09-15T10:38:40Z</time>
      </trkpt>
      <trkpt lat="40.252400" lon="-4.888100">
        <ele>1024.0</ele>
        <time>2018-09-15T10:38:41Z</time>
      </trkpt>
      <trkpt lat="40.252400" lon="-4.888100">
        <ele>1024.0</ele>
        <time>2018-09-15T10:38:42Z</time>
      </trkpt>
      <trkpt lat="40.252400" lon="-4.888100">
        <ele>1024.0</ele>
        <time>2018-09-15T10:38:43Z</time>
      </trkpt>
      <trkpt lat="40.252400" lon="-4.888100">
        <ele>1024.0</ele>
        <time>2018-09-15T10:38:44Z</time>
      </trkpt>
      <trkpt lat="40.252400" lon="-4.888100">
        <ele>1024.0</ele>
        <time>2018-09-15T10:38:45Z</time>
      </trkpt>
      <trkpt lat="40.252400" lon="-4.888100">
        <ele>1024.0</ele>
        <time>2018-09-15T10:38:46Z</time>
      </trkpt>
      <trkpt lat="40.252400" lon="-4.888100">
        <ele>1024.0</ele>
        <time>2018-09-15T10:38:47Z</time>
      </trkpt>
      <trkpt lat="40.252400" lon="-4.888100">
        <ele>1024.0</ele>
        <time>2018-09-15T10:38:48Z</time>
      </trkpt>
      <trkpt lat="40.252400" lon="-4.888100">
        <ele>1024.0</ele>
        <time>2018-09-15T10:38:49Z</time>
      </trkpt>
      <trkpt lat="40.252400" lon="-4.888117">
        <ele>1024.0</ele>
        <time>2018-09-15T10:38:50Z</time>
      </trkpt>
      <trkpt lat="40.252400" lon="-4.888133">
        <ele>1024.0</ele>
        <time>2018-09-15T10:38:51Z</time>
      </trkpt>
      <trkpt lat="40.252400" lon="-4.888117">
        <ele>1024.0</ele>
        <time>2018-09-15T10:38:52Z</time>
      </trkpt>
      <trkpt lat="40.252400" lon="-4.888117">
        <ele>1024.0</ele>
        <time>2018-09-15T10:38:53Z</time>
      </trkpt>
      <trkpt lat="40.252400" lon="-4.888133">
        <ele>1024.0</ele>
        <time>2018-09-15T10:38:54Z</time>
      </trkpt>
      <trkpt lat="40.252400" lon="-4.888133">
        <ele>1024.0</ele>
        <time>2018-09-15T10:38:55Z</time>
      </trkpt>
      <trkpt lat="40.252400" lon="-4.888133">
        <ele>1024.0</ele>
        <time>2018-09-15T10:38:56Z</time>
      </trkpt>
      <trkpt lat="40.252400" lon="-4.888133">
        <ele>1024.0</ele>
        <time>2018-09-15T10:38:57Z</time>
      </trkpt>
      <trkpt lat="40.252400" lon="-4.888133">
        <ele>1024.0</ele>
        <time>2018-09-15T10:38:58Z</time>
      </trkpt>
      <trkpt lat="40.252400" lon="-4.888133">
        <ele>1024.0</ele>
        <time>2018-09-15T10:38:59Z</time>
      </trkpt>
      <trkpt lat="40.252400" lon="-4.888150">
        <ele>1024.0</ele>
        <time>2018-09-15T10:39:00Z</time>
      </trkpt>
      <trkpt lat="40.252400" lon="-4.888133">
        <ele>1024.0</ele>
        <time>2018-09-15T10:39:01Z</time>
      </trkpt>
      <trkpt lat="40.252400" lon="-4.888133">
        <ele>1024.0</ele>
        <time>2018-09-15T10:39:02Z</time>
      </trkpt>
      <trkpt lat="40.252400" lon="-4.888133">
        <ele>1024.0</ele>
        <time>2018-09-15T10:39:03Z</time>
      </trkpt>
      <trkpt lat="40.252400" lon="-4.888150">
        <ele>1024.0</ele>
        <time>2018-09-15T10:39:04Z</time>
      </trkpt>
      <trkpt lat="40.252400" lon="-4.888133">
        <ele>1024.0</ele>
        <time>2018-09-15T10:39:05Z</time>
      </trkpt>
      <trkpt lat="40.252400" lon="-4.888150">
        <ele>1024.0</ele>
        <time>2018-09-15T10:39:06Z</time>
      </trkpt>
      <trkpt lat="40.252400" lon="-4.888150">
        <ele>1024.0</ele>
        <time>2018-09-15T10:39:07Z</time>
      </trkpt>
      <trkpt lat="40.252400" lon="-4.888150">
        <ele>1024.0</ele>
        <time>2018-09-15T10:39:08Z</time>
      </trkpt>
      <trkpt lat="40.252400" lon="-4.888150">
        <ele>1024.0</ele>
        <time>2018-09-15T10:39:09Z</time>
      </trkpt>
      <trkpt lat="40.252400" lon="-4.888150">
        <ele>1024.0</ele>
        <time>2018-09-15T10:39:10Z</time>
      </trkpt>
      <trkpt lat="40.252400" lon="-4.888150">
        <ele>1024.0</ele>
        <time>2018-09-15T10:39:11Z</time>
      </trkpt>
      <trkpt lat="40.252400" lon="-4.888150">
        <ele>1024.0</ele>
        <time>2018-09-15T10:39:12Z</time>
      </trkpt>
      <trkpt lat="40.252400" lon="-4.888150">
        <ele>1024.0</ele>
        <time>2018-09-15T10:39:13Z</time>
      </trkpt>
      <trkpt lat="40.252400" lon="-4.888150">
        <ele>1024.0</ele>
        <time>2018-09-15T10:39:14Z</time>
      </trkpt>
      <trkpt lat="40.252400" lon="-4.888150">
        <ele>1024.0</ele>
        <time>2018-09-15T10:39:15Z</time>
      </trkpt>
      <trkpt lat="40.252400" lon="-4.888150">
        <ele>1024.0</ele>
        <time>2018-09-15T10:39:16Z</time>
      </trkpt>
      <trkpt lat="40.252400" lon="-4.888133">
        <ele>1024.0</ele>
        <time>2018-09-15T10:39:17Z</time>
      </trkpt>
      <trkpt lat="40.252400" lon="-4.888117">
        <ele>1024.0</ele>
        <time>2018-09-15T10:39:18Z</time>
      </trkpt>
      <trkpt lat="40.252400" lon="-4.888133">
        <ele>1024.0</ele>
        <time>2018-09-15T10:39:19Z</time>
      </trkpt>
      <trkpt lat="40.252400" lon="-4.888133">
        <ele>1024.0</ele>
        <time>2018-09-15T10:39:20Z</time>
      </trkpt>
      <trkpt lat="40.252400" lon="-4.888133">
        <ele>1024.0</ele>
        <time>2018-09-15T10:39:21Z</time>
      </trkpt>
      <trkpt lat="40.252400" lon="-4.888133">
        <ele>1024.0</ele>
        <time>2018-09-15T10:39:22Z</time>
      </trkpt>
      <trkpt lat="40.252400" lon="-4.888117">
        <ele>1024.0</ele>
        <time>2018-09-15T10:39:23Z</time>
      </trkpt>
      <trkpt lat="40.252400" lon="-4.888133">
        <ele>1024.0</ele>
        <time>2018-09-15T10:39:24Z</time>
      </trkpt>
      <trkpt lat="40.252400" lon="-4.888133">
        <ele>1024.0</ele>
        <time>2018-09-15T10:39:25Z</time>
      </trkpt>
      <trkpt lat="40.252400" lon="-4.888117">
        <ele>1024.0</ele>
        <time>2018-09-15T10:39:26Z</time>
      </trkpt>
      <trkpt lat="40.252400" lon="-4.888117">
        <ele>1024.0</ele>
        <time>2018-09-15T10:39:27Z</time>
      </trkpt>
      <trkpt lat="40.252400" lon="-4.888117">
        <ele>1024.0</ele>
        <time>2018-09-15T10:39:28Z</time>
      </trkpt>
      <trkpt lat="40.252400" lon="-4.888117">
        <ele>1024.0</ele>
        <time>2018-09-15T10:39:29Z</time>
      </trkpt>
      <trkpt lat="40.252400" lon="-4.888133">
        <ele>1024.0</ele>
        <time>2018-09-15T10:39:30Z</time>
      </trkpt>
      <trkpt lat="40.252400" lon="-4.888117">
        <ele>1024.0</ele>
        <time>2018-09-15T10:39:31Z</time>
      </trkpt>
      <trkpt lat="40.252383" lon="-4.888117">
        <ele>1024.0</ele>
        <time>2018-09-15T10:39:32Z</time>
      </trkpt>
      <trkpt lat="40.252400" lon="-4.888133">
        <ele>1024.0</ele>
        <time>2018-09-15T10:39:33Z</time>
      </trkpt>
      <trkpt lat="40.252400" lon="-4.888133">
        <ele>1024.0</ele>
        <time>2018-09-15T10:39:34Z</time>
      </trkpt>
      <trkpt lat="40.252383" lon="-4.888133">
        <ele>1024.0</ele>
        <time>2018-09-15T10:39:35Z</time>
      </trkpt>
      <trkpt lat="40.252383" lon="-4.888117">
        <ele>1024.0</ele>
        <time>2018-09-15T10:39:36Z</time>
      </trkpt>
      <trkpt lat="40.252400" lon="-4.888133">
        <ele>1024.0</ele>
        <time>2018-09-15T10:39:37Z</time>
      </trkpt>
      <trkpt lat="40.252400" lon="-4.888133">
        <ele>1024.0</ele>
        <time>2018-09-15T10:39:38Z</time>
      </trkpt>
      <trkpt lat="40.252400" lon="-4.888133">
        <ele>1024.0</ele>
        <time>2018-09-15T10:39:39Z</time>
      </trkpt>
      <trkpt lat="40.252400" lon="-4.888133">
        <ele>1024.0</ele>
        <time>2018-09-15T10:39:40Z</time>
      </trkpt>
      <trkpt lat="40.252400" lon="-4.888133">
        <ele>1024.0</ele>
        <time>2018-09-15T10:39:41Z</time>
      </trkpt>
      <trkpt lat="40.252400" lon="-4.888133">
        <ele>1024.0</ele>
        <time>2018-09-15T10:39:42Z</time>
      </trkpt>
      <trkpt lat="40.252400" lon="-4.888117">
        <ele>1024.0</ele>
        <time>2018-09-15T10:39:43Z</time>
      </trkpt>
      <trkpt lat="40.252400" lon="-4.888117">
        <ele>1024.0</ele>
        <time>2018-09-15T10:39:44Z</time>
      </trkpt>
      <trkpt lat="40.252400" lon="-4.888117">
        <ele>1024.0</ele>
        <time>2018-09-15T10:39:45Z</time>
      </trkpt>
      <trkpt lat="40.252400" lon="-4.888117">
        <ele>1024.0</ele>
        <time>2018-09-15T10:39:46Z</time>
      </trkpt>
      <trkpt lat="40.252400" lon="-4.888117">
        <ele>1024.0</ele>
        <time>2018-09-15T10:39:47Z</time>
      </trkpt>
      <trkpt lat="40.252400" lon="-4.888117">
        <ele>1024.0</ele>
        <time>2018-09-15T10:39:48Z</time>
      </trkpt>
      <trkpt lat="40.252400" lon="-4.888117">
        <ele>1024.0</ele>
        <time>2018-09-15T10:39:49Z</time>
      </trkpt>
      <trkpt lat="40.252400" lon="-4.888117">
        <ele>1024.0</ele>
        <time>2018-09-15T10:39:50Z</time>
      </trkpt>
      <trkpt lat="40.252400" lon="-4.888117">
        <ele>1024.0</ele>
        <time>2018-09-15T10:39:51Z</time>
      </trkpt>
      <trkpt lat="40.252400" lon="-4.888117">
        <ele>1024.0</ele>
        <time>2018-09-15T10:39:52Z</time>
      </trkpt>
      <trkpt lat="40.252400" lon="-4.888133">
        <ele>1024.0</ele>
        <time>2018-09-15T10:39:53Z</time>
      </trkpt>
      <trkpt lat="40.252400" lon="-4.888133">
        <ele>1024.0</ele>
        <time>2018-09-15T10:39:54Z</time>
      </trkpt>
      <trkpt lat="40.252400" lon="-4.888133">
        <ele>1024.0</ele>
        <time>2018-09-15T10:39:55Z</time>
      </trkpt>
      <trkpt lat="40.252400" lon="-4.888117">
        <ele>1024.0</ele>
        <time>2018-09-15T10:39:56Z</time>
      </trkpt>
      <trkpt lat="40.252400" lon="-4.888117">
        <ele>1024.0</ele>
        <time>2018-09-15T10:39:57Z</time>
      </trkpt>
      <trkpt lat="40.252417" lon="-4.888117">
        <ele>1024.0</ele>
        <time>2018-09-15T10:39:58Z</time>
      </trkpt>
      <trkpt lat="40.252417" lon="-4.888133">
        <ele>1024.0</ele>
        <time>2018-09-15T10:39:59Z</time>
      </trkpt>
      <trkpt lat="40.252400" lon="-4.888117">
        <ele>1024.0</ele>
        <time>2018-09-15T10:40:00Z</time>
      </trkpt>
      <trkpt lat="40.252400" lon="-4.888133">
        <ele>1025.0</ele>
        <time>2018-09-15T10:40:02Z</time>
      </trkpt>
      <trkpt lat="40.252400" lon="-4.888150">
        <ele>1025.0</ele>
        <time>2018-09-15T10:40:03Z</time>
      </trkpt>
      <trkpt lat="40.252400" lon="-4.888167">
        <ele>1025.0</ele>
        <time>2018-09-15T10:40:04Z</time>
      </trkpt>
      <trkpt lat="40.252400" lon="-4.888150">
        <ele>1025.0</ele>
        <time>2018-09-15T10:40:05Z</time>
      </trkpt>
      <trkpt lat="40.252383" lon="-4.888167">
        <ele>1025.0</ele>
        <time>2018-09-15T10:40:06Z</time>
      </trkpt>
      <trkpt lat="40.252383" lon="-4.888183">
        <ele>1025.0</ele>
        <time>2018-09-15T10:40:07Z</time>
      </trkpt>
      <trkpt lat="40.252383" lon="-4.888183">
        <ele>1025.0</ele>
        <time>2018-09-15T10:40:08Z</time>
      </trkpt>
      <trkpt lat="40.252383" lon="-4.888167">
        <ele>1025.0</ele>
        <time>2018-09-15T10:40:09Z</time>
      </trkpt>
      <trkpt lat="40.252383" lon="-4.888167">
        <ele>1025.0</ele>
        <time>2018-09-15T10:40:10Z</time>
      </trkpt>
      <trkpt lat="40.252400" lon="-4.888167">
        <ele>1025.0</ele>
        <time>2018-09-15T10:40:12Z</time>
      </trkpt>
      <trkpt lat="40.252400" lon="-4.888150">
        <ele>1025.0</ele>
        <time>2018-09-15T10:40:13Z</time>
      </trkpt>
      <trkpt lat="40.252400" lon="-4.888150">
        <ele>1025.0</ele>
        <time>2018-09-15T10:40:14Z</time>
      </trkpt>
      <trkpt lat="40.252400" lon="-4.888133">
        <ele>1025.0</ele>
        <time>2018-09-15T10:40:15Z</time>
      </trkpt>
      <trkpt lat="40.252400" lon="-4.888133">
        <ele>1025.0</ele>
        <time>2018-09-15T10:40:16Z</time>
      </trkpt>
      <trkpt lat="40.252400" lon="-4.888133">
        <ele>1025.0</ele>
        <time>2018-09-15T10:40:17Z</time>
      </trkpt>
      <trkpt lat="40.252400" lon="-4.888133">
        <ele>1025.0</ele>
        <time>2018-09-15T10:40:19Z</time>
      </trkpt>
      <trkpt lat="40.252400" lon="-4.888133">
        <ele>1025.0</ele>
        <time>2018-09-15T10:40:20Z</time>
      </trkpt>
      <trkpt lat="40.252400" lon="-4.888133">
        <ele>1025.0</ele>
        <time>2018-09-15T10:40:21Z</time>
      </trkpt>
      <trkpt lat="40.252400" lon="-4.888133">
        <ele>1025.0</ele>
        <time>2018-09-15T10:40:22Z</time>
      </trkpt>
      <trkpt lat="40.252400" lon="-4.888117">
        <ele>1025.0</ele>
        <time>2018-09-15T10:40:23Z</time>
      </trkpt>
      <trkpt lat="40.252400" lon="-4.888117">
        <ele>1025.0</ele>
        <time>2018-09-15T10:40:24Z</time>
      </trkpt>
      <trkpt lat="40.252400" lon="-4.888117">
        <ele>1025.0</ele>
        <time>2018-09-15T10:40:25Z</time>
      </trkpt>
      <trkpt lat="40.252400" lon="-4.888117">
        <ele>1025.0</ele>
        <time>2018-09-15T10:40:26Z</time>
      </trkpt>
      <trkpt lat="40.252400" lon="-4.888117">
        <ele>1025.0</ele>
        <time>2018-09-15T10:40:27Z</time>
      </trkpt>
      <trkpt lat="40.252400" lon="-4.888117">
        <ele>1025.0</ele>
        <time>2018-09-15T10:40:28Z</time>
      </trkpt>
      <trkpt lat="40.252417" lon="-4.888117">
        <ele>1025.0</ele>
        <time>2018-09-15T10:40:29Z</time>
      </trkpt>
      <trkpt lat="40.252417" lon="-4.888117">
        <ele>1025.0</ele>
        <time>2018-09-15T10:40:30Z</time>
      </trkpt>
      <trkpt lat="40.252417" lon="-4.888117">
        <ele>1025.0</ele>
        <time>2018-09-15T10:40:31Z</time>
      </trkpt>
      <trkpt lat="40.252417" lon="-4.888117">
        <ele>1025.0</ele>
        <time>2018-09-15T10:40:32Z</time>
      </trkpt>
      <trkpt lat="40.252400" lon="-4.888117">
        <ele>1025.0</ele>
        <time>2018-09-15T10:40:33Z</time>
      </trkpt>
      <trkpt lat="40.252400" lon="-4.888117">
        <ele>1025.0</ele>
        <time>2018-09-15T10:40:34Z</time>
      </trkpt>
      <trkpt lat="40.252400" lon="-4.888117">
        <ele>1025.0</ele>
        <time>2018-09-15T10:40:35Z</time>
      </trkpt>
      <trkpt lat="40.252400" lon="-4.888100">
        <ele>1025.0</ele>
        <time>2018-09-15T10:40:36Z</time>
      </trkpt>
      <trkpt lat="40.252400" lon="-4.888100">
        <ele>1025.0</ele>
        <time>2018-09-15T10:40:37Z</time>
      </trkpt>
      <trkpt lat="40.252400" lon="-4.888100">
        <ele>1025.0</ele>
        <time>2018-09-15T10:40:38Z</time>
      </trkpt>
      <trkpt lat="40.252400" lon="-4.888100">
        <ele>1025.0</ele>
        <time>2018-09-15T10:40:39Z</time>
      </trkpt>
      <trkpt lat="40.252400" lon="-4.888117">
        <ele>1025.0</ele>
        <time>2018-09-15T10:40:40Z</time>
      </trkpt>
      <trkpt lat="40.252400" lon="-4.888117">
        <ele>1025.0</ele>
        <time>2018-09-15T10:40:41Z</time>
      </trkpt>
      <trkpt lat="40.252400" lon="-4.888117">
        <ele>1025.0</ele>
        <time>2018-09-15T10:40:42Z</time>
      </trkpt>
      <trkpt lat="40.252400" lon="-4.888133">
        <ele>1025.0</ele>
        <time>2018-09-15T10:40:43Z</time>
      </trkpt>
      <trkpt lat="40.252400" lon="-4.888117">
        <ele>1025.0</ele>
        <time>2018-09-15T10:40:44Z</time>
      </trkpt>
      <trkpt lat="40.252400" lon="-4.888117">
        <ele>1025.0</ele>
        <time>2018-09-15T10:40:45Z</time>
      </trkpt>
      <trkpt lat="40.252400" lon="-4.888117">
        <ele>1025.0</ele>
        <time>2018-09-15T10:40:46Z</time>
      </trkpt>
      <trkpt lat="40.252400" lon="-4.888117">
        <ele>1025.0</ele>
        <time>2018-09-15T10:40:47Z</time>
      </trkpt>
      <trkpt lat="40.252400" lon="-4.888117">
        <ele>1025.0</ele>
        <time>2018-09-15T10:40:48Z</time>
      </trkpt>
      <trkpt lat="40.252417" lon="-4.888100">
        <ele>1025.0</ele>
        <time>2018-09-15T10:40:49Z</time>
      </trkpt>
      <trkpt lat="40.252417" lon="-4.888100">
        <ele>1025.0</ele>
        <time>2018-09-15T10:40:50Z</time>
      </trkpt>
      <trkpt lat="40.252417" lon="-4.888100">
        <ele>1025.0</ele>
        <time>2018-09-15T10:40:51Z</time>
      </trkpt>
      <trkpt lat="40.252417" lon="-4.888100">
        <ele>1025.0</ele>
        <time>2018-09-15T10:40:52Z</time>
      </trkpt>
      <trkpt lat="40.252417" lon="-4.888100">
        <ele>1025.0</ele>
        <time>2018-09-15T10:40:53Z</time>
      </trkpt>
      <trkpt lat="40.252417" lon="-4.888100">
        <ele>1025.0</ele>
        <time>2018-09-15T10:40:54Z</time>
      </trkpt>
      <trkpt lat="40.252417" lon="-4.888100">
        <ele>1025.0</ele>
        <time>2018-09-15T10:40:55Z</time>
      </trkpt>
      <trkpt lat="40.252417" lon="-4.888117">
        <ele>1025.0</ele>
        <time>2018-09-15T10:40:56Z</time>
      </trkpt>
      <trkpt lat="40.252417" lon="-4.888117">
        <ele>1025.0</ele>
        <time>2018-09-15T10:40:57Z</time>
      </trkpt>
      <trkpt lat="40.252417" lon="-4.888100">
        <ele>1025.0</ele>
        <time>2018-09-15T10:40:58Z</time>
      </trkpt>
      <trkpt lat="40.252417" lon="-4.888117">
        <ele>1025.0</ele>
        <time>2018-09-15T10:40:59Z</time>
      </trkpt>
      <trkpt lat="40.252417" lon="-4.888100">
        <ele>1025.0</ele>
        <time>2018-09-15T10:41:00Z</time>
      </trkpt>
      <trkpt lat="40.252417" lon="-4.888100">
        <ele>1025.0</ele>
        <time>2018-09-15T10:41:01Z</time>
      </trkpt>
      <trkpt lat="40.252417" lon="-4.888100">
        <ele>1025.0</ele>
        <time>2018-09-15T10:41:02Z</time>
      </trkpt>
      <trkpt lat="40.252417" lon="-4.888100">
        <ele>1025.0</ele>
        <time>2018-09-15T10:41:03Z</time>
      </trkpt>
      <trkpt lat="40.252417" lon="-4.888100">
        <ele>1025.0</ele>
        <time>2018-09-15T10:41:04Z</time>
      </trkpt>
      <trkpt lat="40.252417" lon="-4.888100">
        <ele>1025.0</ele>
        <time>2018-09-15T10:41:05Z</time>
      </trkpt>
      <trkpt lat="40.252417" lon="-4.888100">
        <ele>1025.0</ele>
        <time>2018-09-15T10:41:06Z</time>
      </trkpt>
      <trkpt lat="40.252433" lon="-4.888100">
        <ele>1025.0</ele>
        <time>2018-09-15T10:41:07Z</time>
      </trkpt>
      <trkpt lat="40.252417" lon="-4.888100">
        <ele>1025.0</ele>
        <time>2018-09-15T10:41:08Z</time>
      </trkpt>
      <trkpt lat="40.252433" lon="-4.888100">
        <ele>1025.0</ele>
        <time>2018-09-15T10:41:09Z</time>
      </trkpt>
      <trkpt lat="40.252417" lon="-4.888100">
        <ele>1025.0</ele>
        <time>2018-09-15T10:41:10Z</time>
      </trkpt>
      <trkpt lat="40.252417" lon="-4.888083">
        <ele>1025.0</ele>
        <time>2018-09-15T10:41:11Z</time>
      </trkpt>
      <trkpt lat="40.252417" lon="-4.888100">
        <ele>1025.0</ele>
        <time>2018-09-15T10:41:12Z</time>
      </trkpt>
      <trkpt lat="40.252417" lon="-4.888100">
        <ele>1025.0</ele>
        <time>2018-09-15T10:41:13Z</time>
      </trkpt>
      <trkpt lat="40.252417" lon="-4.888100">
        <ele>1025.0</ele>
        <time>2018-09-15T10:41:14Z</time>
      </trkpt>
      <trkpt lat="40.252417" lon="-4.888083">
        <ele>1025.0</ele>
        <time>2018-09-15T10:41:15Z</time>
      </trkpt>
      <trkpt lat="40.252417" lon="-4.888100">
        <ele>1025.0</ele>
        <time>2018-09-15T10:41:16Z</time>
      </trkpt>
      <trkpt lat="40.252417" lon="-4.888100">
        <ele>1025.0</ele>
        <time>2018-09-15T10:41:17Z</time>
      </trkpt>
      <trkpt lat="40.252417" lon="-4.888100">
        <ele>1025.0</ele>
        <time>2018-09-15T10:41:18Z</time>
      </trkpt>
      <trkpt lat="40.252417" lon="-4.888100">
        <ele>1025.0</ele>
        <time>2018-09-15T10:41:20Z</time>
      </trkpt>
      <trkpt lat="40.252417" lon="-4.888100">
        <ele>1025.0</ele>
        <time>2018-09-15T10:41:21Z</time>
      </trkpt>
      <trkpt lat="40.252417" lon="-4.888100">
        <ele>1025.0</ele>
        <time>2018-09-15T10:41:22Z</time>
      </trkpt>
      <trkpt lat="40.252417" lon="-4.888100">
        <ele>1025.0</ele>
        <time>2018-09-15T10:41:23Z</time>
      </trkpt>
      <trkpt lat="40.252417" lon="-4.888100">
        <ele>1026.0</ele>
        <time>2018-09-15T10:41:24Z</time>
      </trkpt>
      <trkpt lat="40.252417" lon="-4.888100">
        <ele>1026.0</ele>
        <time>2018-09-15T10:41:25Z</time>
      </trkpt>
      <trkpt lat="40.252417" lon="-4.888100">
        <ele>1026.0</ele>
        <time>2018-09-15T10:41:26Z</time>
      </trkpt>
      <trkpt lat="40.252417" lon="-4.888100">
        <ele>1026.0</ele>
        <time>2018-09-15T10:41:27Z</time>
      </trkpt>
      <trkpt lat="40.252417" lon="-4.888100">
        <ele>1026.0</ele>
        <time>2018-09-15T10:41:28Z</time>
      </trkpt>
      <trkpt lat="40.252417" lon="-4.888100">
        <ele>1026.0</ele>
        <time>2018-09-15T10:41:29Z</time>
      </trkpt>
      <trkpt lat="40.252417" lon="-4.888100">
        <ele>1026.0</ele>
        <time>2018-09-15T10:41:30Z</time>
      </trkpt>
      <trkpt lat="40.252417" lon="-4.888117">
        <ele>1026.0</ele>
        <time>2018-09-15T10:41:31Z</time>
      </trkpt>
      <trkpt lat="40.252417" lon="-4.888117">
        <ele>1026.0</ele>
        <time>2018-09-15T10:41:32Z</time>
      </trkpt>
      <trkpt lat="40.252417" lon="-4.888117">
        <ele>1026.0</ele>
        <time>2018-09-15T10:41:33Z</time>
      </trkpt>
      <trkpt lat="40.252417" lon="-4.888117">
        <ele>1026.0</ele>
        <time>2018-09-15T10:41:34Z</time>
      </trkpt>
      <trkpt lat="40.252417" lon="-4.888117">
        <ele>1026.0</ele>
        <time>2018-09-15T10:41:35Z</time>
      </trkpt>
      <trkpt lat="40.252417" lon="-4.888117">
        <ele>1026.0</ele>
        <time>2018-09-15T10:41:36Z</time>
      </trkpt>
      <trkpt lat="40.252417" lon="-4.888117">
        <ele>1026.0</ele>
        <time>2018-09-15T10:41:37Z</time>
      </trkpt>
      <trkpt lat="40.252417" lon="-4.888117">
        <ele>1026.0</ele>
        <time>2018-09-15T10:41:38Z</time>
      </trkpt>
      <trkpt lat="40.252417" lon="-4.888117">
        <ele>1026.0</ele>
        <time>2018-09-15T10:41:39Z</time>
      </trkpt>
      <trkpt lat="40.252417" lon="-4.888117">
        <ele>1026.0</ele>
        <time>2018-09-15T10:41:40Z</time>
      </trkpt>
      <trkpt lat="40.252417" lon="-4.888117">
        <ele>1026.0</ele>
        <time>2018-09-15T10:41:41Z</time>
      </trkpt>
      <trkpt lat="40.252417" lon="-4.888117">
        <ele>1026.0</ele>
        <time>2018-09-15T10:41:42Z</time>
      </trkpt>
      <trkpt lat="40.252417" lon="-4.888117">
        <ele>1026.0</ele>
        <time>2018-09-15T10:41:43Z</time>
      </trkpt>
      <trkpt lat="40.252417" lon="-4.888117">
        <ele>1026.0</ele>
        <time>2018-09-15T10:41:44Z</time>
      </trkpt>
      <trkpt lat="40.252417" lon="-4.888117">
        <ele>1026.0</ele>
        <time>2018-09-15T10:41:45Z</time>
      </trkpt>
      <trkpt lat="40.252417" lon="-4.888117">
        <ele>1026.0</ele>
        <time>2018-09-15T10:41:46Z</time>
      </trkpt>
      <trkpt lat="40.252417" lon="-4.888117">
        <ele>1026.0</ele>
        <time>2018-09-15T10:41:47Z</time>
      </trkpt>
      <trkpt lat="40.252417" lon="-4.888117">
        <ele>1026.0</ele>
        <time>2018-09-15T10:41:48Z</time>
      </trkpt>
      <trkpt lat="40.252417" lon="-4.888117">
        <ele>1026.0</ele>
        <time>2018-09-15T10:41:49Z</time>
      </trkpt>
      <trkpt lat="40.252417" lon="-4.888117">
        <ele>1026.0</ele>
        <time>2018-09-15T10:41:50Z</time>
      </trkpt>
      <trkpt lat="40.252417" lon="-4.888117">
        <ele>1026.0</ele>
        <time>2018-09-15T10:41:51Z</time>
      </trkpt>
      <trkpt lat="40.252417" lon="-4.888117">
        <ele>1026.0</ele>
        <time>2018-09-15T10:41:52Z</time>
      </trkpt>
      <trkpt lat="40.252417" lon="-4.888117">
        <ele>1026.0</ele>
        <time>2018-09-15T10:41:53Z</time>
      </trkpt>
      <trkpt lat="40.252417" lon="-4.888117">
        <ele>1026.0</ele>
        <time>2018-09-15T10:41:54Z</time>
      </trkpt>
      <trkpt lat="40.252417" lon="-4.888117">
        <ele>1026.0</ele>
        <time>2018-09-15T10:41:55Z</time>
      </trkpt>
      <trkpt lat="40.252417" lon="-4.888133">
        <ele>1026.0</ele>
        <time>2018-09-15T10:41:56Z</time>
      </trkpt>
      <trkpt lat="40.252417" lon="-4.888133">
        <ele>1026.0</ele>
        <time>2018-09-15T10:41:57Z</time>
      </trkpt>
      <trkpt lat="40.252417" lon="-4.888133">
        <ele>1026.0</ele>
        <time>2018-09-15T10:41:58Z</time>
      </trkpt>
      <trkpt lat="40.252417" lon="-4.888133">
        <ele>1026.0</ele>
        <time>2018-09-15T10:41:59Z</time>
      </trkpt>
      <trkpt lat="40.252417" lon="-4.888133">
        <ele>1026.0</ele>
        <time>2018-09-15T10:42:00Z</time>
      </trkpt>
      <trkpt lat="40.252417" lon="-4.888117">
        <ele>1026.0</ele>
        <time>2018-09-15T10:42:01Z</time>
      </trkpt>
      <trkpt lat="40.252417" lon="-4.888117">
        <ele>1026.0</ele>
        <time>2018-09-15T10:42:02Z</time>
      </trkpt>
      <trkpt lat="40.252417" lon="-4.888100">
        <ele>1026.0</ele>
        <time>2018-09-15T10:42:03Z</time>
      </trkpt>
      <trkpt lat="40.252417" lon="-4.888117">
        <ele>1026.0</ele>
        <time>2018-09-15T10:42:04Z</time>
      </trkpt>
      <trkpt lat="40.252417" lon="-4.888117">
        <ele>1026.0</ele>
        <time>2018-09-15T10:42:05Z</time>
      </trkpt>
      <trkpt lat="40.252433" lon="-4.888117">
        <ele>1026.0</ele>
        <time>2018-09-15T10:42:06Z</time>
      </trkpt>
      <trkpt lat="40.252433" lon="-4.888117">
        <ele>1026.0</ele>
        <time>2018-09-15T10:42:07Z</time>
      </trkpt>
      <trkpt lat="40.252433" lon="-4.888117">
        <ele>1026.0</ele>
        <time>2018-09-15T10:42:08Z</time>
      </trkpt>
      <trkpt lat="40.252433" lon="-4.888117">
        <ele>1026.0</ele>
        <time>2018-09-15T10:42:09Z</time>
      </trkpt>
      <trkpt lat="40.252450" lon="-4.888117">
        <ele>1026.0</ele>
        <time>2018-09-15T10:42:10Z</time>
      </trkpt>
      <trkpt lat="40.252433" lon="-4.888100">
        <ele>1026.0</ele>
        <time>2018-09-15T10:42:11Z</time>
      </trkpt>
      <trkpt lat="40.252433" lon="-4.888100">
        <ele>1026.0</ele>
        <time>2018-09-15T10:42:12Z</time>
      </trkpt>
      <trkpt lat="40.252433" lon="-4.888100">
        <ele>1026.0</ele>
        <time>2018-09-15T10:42:13Z</time>
      </trkpt>
      <trkpt lat="40.252433" lon="-4.888117">
        <ele>1026.0</ele>
        <time>2018-09-15T10:42:14Z</time>
      </trkpt>
      <trkpt lat="40.252433" lon="-4.888117">
        <ele>1026.0</ele>
        <time>2018-09-15T10:42:15Z</time>
      </trkpt>
      <trkpt lat="40.252433" lon="-4.888100">
        <ele>1026.0</ele>
        <time>2018-09-15T10:42:16Z</time>
      </trkpt>
      <trkpt lat="40.252433" lon="-4.888117">
        <ele>1026.0</ele>
        <time>2018-09-15T10:42:17Z</time>
      </trkpt>
      <trkpt lat="40.252433" lon="-4.888100">
        <ele>1026.0</ele>
        <time>2018-09-15T10:42:18Z</time>
      </trkpt>
      <trkpt lat="40.252433" lon="-4.888100">
        <ele>1026.0</ele>
        <time>2018-09-15T10:42:19Z</time>
      </trkpt>
      <trkpt lat="40.252433" lon="-4.888117">
        <ele>1026.0</ele>
        <time>2018-09-15T10:42:20Z</time>
      </trkpt>
      <trkpt lat="40.252433" lon="-4.888117">
        <ele>1026.0</ele>
        <time>2018-09-15T10:42:21Z</time>
      </trkpt>
      <trkpt lat="40.252433" lon="-4.888117">
        <ele>1026.0</ele>
        <time>2018-09-15T10:42:22Z</time>
      </trkpt>
      <trkpt lat="40.252433" lon="-4.888117">
        <ele>1026.0</ele>
        <time>2018-09-15T10:42:23Z</time>
      </trkpt>
      <trkpt lat="40.252433" lon="-4.888100">
        <ele>1026.0</ele>
        <time>2018-09-15T10:42:24Z</time>
      </trkpt>
      <trkpt lat="40.252433" lon="-4.888100">
        <ele>1026.0</ele>
        <time>2018-09-15T10:42:27Z</time>
      </trkpt>
      <trkpt lat="40.252433" lon="-4.888117">
        <ele>1026.0</ele>
        <time>2018-09-15T10:42:28Z</time>
      </trkpt>
      <trkpt lat="40.252433" lon="-4.888117">
        <ele>1026.0</ele>
        <time>2018-09-15T10:42:29Z</time>
      </trkpt>
      <trkpt lat="40.252433" lon="-4.888117">
        <ele>1026.0</ele>
        <time>2018-09-15T10:42:30Z</time>
      </trkpt>
      <trkpt lat="40.252433" lon="-4.888100">
        <ele>1026.0</ele>
        <time>2018-09-15T10:42:31Z</time>
      </trkpt>
      <trkpt lat="40.252433" lon="-4.888100">
        <ele>1026.0</ele>
        <time>2018-09-15T10:42:32Z</time>
      </trkpt>
      <trkpt lat="40.252417" lon="-4.888100">
        <ele>1026.0</ele>
        <time>2018-09-15T10:42:33Z</time>
      </trkpt>
      <trkpt lat="40.252417" lon="-4.888100">
        <ele>1026.0</ele>
        <time>2018-09-15T10:42:34Z</time>
      </trkpt>
      <trkpt lat="40.252417" lon="-4.888100">
        <ele>1026.0</ele>
        <time>2018-09-15T10:42:35Z</time>
      </trkpt>
      <trkpt lat="40.252417" lon="-4.888100">
        <ele>1026.0</ele>
        <time>2018-09-15T10:42:36Z</time>
      </trkpt>
      <trkpt lat="40.252417" lon="-4.888100">
        <ele>1026.0</ele>
        <time>2018-09-15T10:42:37Z</time>
      </trkpt>
      <trkpt lat="40.252417" lon="-4.888100">
        <ele>1026.0</ele>
        <time>2018-09-15T10:42:38Z</time>
      </trkpt>
      <trkpt lat="40.252417" lon="-4.888100">
        <ele>1026.0</ele>
        <time>2018-09-15T10:42:39Z</time>
      </trkpt>
      <trkpt lat="40.252417" lon="-4.888117">
        <ele>1026.0</ele>
        <time>2018-09-15T10:42:40Z</time>
      </trkpt>
      <trkpt lat="40.252417" lon="-4.888100">
        <ele>1026.0</ele>
        <time>2018-09-15T10:42:41Z</time>
      </trkpt>
      <trkpt lat="40.252417" lon="-4.888100">
        <ele>1026.0</ele>
        <time>2018-09-15T10:42:42Z</time>
      </trkpt>
      <trkpt lat="40.252417" lon="-4.888100">
        <ele>1026.0</ele>
        <time>2018-09-15T10:42:43Z</time>
      </trkpt>
      <trkpt lat="40.252417" lon="-4.888100">
        <ele>1026.0</ele>
        <time>2018-09-15T10:42:44Z</time>
      </trkpt>
      <trkpt lat="40.252417" lon="-4.888100">
        <ele>1026.0</ele>
        <time>2018-09-15T10:42:45Z</time>
      </trkpt>
      <trkpt lat="40.252417" lon="-4.888100">
        <ele>1026.0</ele>
        <time>2018-09-15T10:42:46Z</time>
      </trkpt>
      <trkpt lat="40.252417" lon="-4.888100">
        <ele>1026.0</ele>
        <time>2018-09-15T10:42:47Z</time>
      </trkpt>
      <trkpt lat="40.252417" lon="-4.888083">
        <ele>1026.0</ele>
        <time>2018-09-15T10:42:48Z</time>
      </trkpt>
      <trkpt lat="40.252417" lon="-4.888083">
        <ele>1026.0</ele>
        <time>2018-09-15T10:42:49Z</time>
      </trkpt>
      <trkpt lat="40.252417" lon="-4.888083">
        <ele>1026.0</ele>
        <time>2018-09-15T10:42:50Z</time>
      </trkpt>
      <trkpt lat="40.252417" lon="-4.888083">
        <ele>1026.0</ele>
        <time>2018-09-15T10:42:51Z</time>
      </trkpt>
      <trkpt lat="40.252417" lon="-4.888100">
        <ele>1026.0</ele>
        <time>2018-09-15T10:42:52Z</time>
      </trkpt>
      <trkpt lat="40.252417" lon="-4.888100">
        <ele>1026.0</ele>
        <time>2018-09-15T10:42:53Z</time>
      </trkpt>
      <trkpt lat="40.252417" lon="-4.888100">
        <ele>1026.0</ele>
        <time>2018-09-15T10:42:54Z</time>
      </trkpt>
      <trkpt lat="40.252417" lon="-4.888100">
        <ele>1025.0</ele>
        <time>2018-09-15T10:42:55Z</time>
      </trkpt>
      <trkpt lat="40.252417" lon="-4.888100">
        <ele>1025.0</ele>
        <time>2018-09-15T10:42:56Z</time>
      </trkpt>
      <trkpt lat="40.252417" lon="-4.888083">
        <ele>1025.0</ele>
        <time>2018-09-15T10:42:57Z</time>
      </trkpt>
      <trkpt lat="40.252417" lon="-4.888083">
        <ele>1025.0</ele>
        <time>2018-09-15T10:42:58Z</time>
      </trkpt>
      <trkpt lat="40.252400" lon="-4.888083">
        <ele>1025.0</ele>
        <time>2018-09-15T10:42:59Z</time>
      </trkpt>
      <trkpt lat="40.252400" lon="-4.888083">
        <ele>1025.0</ele>
        <time>2018-09-15T10:43:00Z</time>
      </trkpt>
      <trkpt lat="40.252400" lon="-4.888083">
        <ele>1025.0</ele>
        <time>2018-09-15T10:43:01Z</time>
      </trkpt>
      <trkpt lat="40.252417" lon="-4.888083">
        <ele>1025.0</ele>
        <time>2018-09-15T10:43:02Z</time>
      </trkpt>
      <trkpt lat="40.252417" lon="-4.888100">
        <ele>1025.0</ele>
        <time>2018-09-15T10:43:03Z</time>
      </trkpt>
      <trkpt lat="40.252417" lon="-4.888100">
        <ele>1025.0</ele>
        <time>2018-09-15T10:43:04Z</time>
      </trkpt>
      <trkpt lat="40.252417" lon="-4.888100">
        <ele>1025.0</ele>
        <time>2018-09-15T10:43:05Z</time>
      </trkpt>
      <trkpt lat="40.252417" lon="-4.888100">
        <ele>1025.0</ele>
        <time>2018-09-15T10:43:06Z</time>
      </trkpt>
      <trkpt lat="40.252417" lon="-4.888100">
        <ele>1025.0</ele>
        <time>2018-09-15T10:43:07Z</time>
      </trkpt>
      <trkpt lat="40.252417" lon="-4.888100">
        <ele>1025.0</ele>
        <time>2018-09-15T10:43:08Z</time>
      </trkpt>
      <trkpt lat="40.252417" lon="-4.888100">
        <ele>1025.0</ele>
        <time>2018-09-15T10:43:09Z</time>
      </trkpt>
      <trkpt lat="40.252417" lon="-4.888100">
        <ele>1025.0</ele>
        <time>2018-09-15T10:43:10Z</time>
      </trkpt>
      <trkpt lat="40.252417" lon="-4.888117">
        <ele>1025.0</ele>
        <time>2018-09-15T10:43:11Z</time>
      </trkpt>
      <trkpt lat="40.252417" lon="-4.888100">
        <ele>1025.0</ele>
        <time>2018-09-15T10:43:12Z</time>
      </trkpt>
      <trkpt lat="40.252417" lon="-4.888117">
        <ele>1025.0</ele>
        <time>2018-09-15T10:43:13Z</time>
      </trkpt>
      <trkpt lat="40.252417" lon="-4.888117">
        <ele>1025.0</ele>
        <time>2018-09-15T10:43:14Z</time>
      </trkpt>
      <trkpt lat="40.252417" lon="-4.888100">
        <ele>1025.0</ele>
        <time>2018-09-15T10:43:15Z</time>
      </trkpt>
      <trkpt lat="40.252417" lon="-4.888100">
        <ele>1025.0</ele>
        <time>2018-09-15T10:43:16Z</time>
      </trkpt>
      <trkpt lat="40.252417" lon="-4.888100">
        <ele>1025.0</ele>
        <time>2018-09-15T10:43:17Z</time>
      </trkpt>
      <trkpt lat="40.252417" lon="-4.888100">
        <ele>1025.0</ele>
        <time>2018-09-15T10:43:18Z</time>
      </trkpt>
      <trkpt lat="40.252400" lon="-4.888100">
        <ele>1025.0</ele>
        <time>2018-09-15T10:43:19Z</time>
      </trkpt>
      <trkpt lat="40.252400" lon="-4.888100">
        <ele>1025.0</ele>
        <time>2018-09-15T10:43:20Z</time>
      </trkpt>
      <trkpt lat="40.252400" lon="-4.888100">
        <ele>1025.0</ele>
        <time>2018-09-15T10:43:21Z</time>
      </trkpt>
      <trkpt lat="40.252400" lon="-4.888100">
        <ele>1025.0</ele>
        <time>2018-09-15T10:43:22Z</time>
      </trkpt>
      <trkpt lat="40.252400" lon="-4.888100">
        <ele>1025.0</ele>
        <time>2018-09-15T10:43:23Z</time>
      </trkpt>
      <trkpt lat="40.252417" lon="-4.888117">
        <ele>1025.0</ele>
        <time>2018-09-15T10:43:24Z</time>
      </trkpt>
      <trkpt lat="40.252400" lon="-4.888100">
        <ele>1025.0</ele>
        <time>2018-09-15T10:43:25Z</time>
      </trkpt>
      <trkpt lat="40.252400" lon="-4.888100">
        <ele>1025.0</ele>
        <time>2018-09-15T10:43:26Z</time>
      </trkpt>
      <trkpt lat="40.252400" lon="-4.888100">
        <ele>1025.0</ele>
        <time>2018-09-15T10:43:27Z</time>
      </trkpt>
      <trkpt lat="40.252400" lon="-4.888100">
        <ele>1025.0</ele>
        <time>2018-09-15T10:43:28Z</time>
      </trkpt>
      <trkpt lat="40.252400" lon="-4.888100">
        <ele>1025.0</ele>
        <time>2018-09-15T10:43:29Z</time>
      </trkpt>
      <trkpt lat="40.252417" lon="-4.888100">
        <ele>1025.0</ele>
        <time>2018-09-15T10:43:30Z</time>
      </trkpt>
      <trkpt lat="40.252417" lon="-4.888100">
        <ele>1025.0</ele>
        <time>2018-09-15T10:43:31Z</time>
      </trkpt>
      <trkpt lat="40.252417" lon="-4.888100">
        <ele>1025.0</ele>
        <time>2018-09-15T10:43:32Z</time>
      </trkpt>
      <trkpt lat="40.252417" lon="-4.888100">
        <ele>1025.0</ele>
        <time>2018-09-15T10:43:33Z</time>
      </trkpt>
      <trkpt lat="40.252417" lon="-4.888083">
        <ele>1025.0</ele>
        <time>2018-09-15T10:43:34Z</time>
      </trkpt>
      <trkpt lat="40.252417" lon="-4.888100">
        <ele>1025.0</ele>
        <time>2018-09-15T10:43:35Z</time>
      </trkpt>
      <trkpt lat="40.252417" lon="-4.888100">
        <ele>1025.0</ele>
        <time>2018-09-15T10:43:36Z</time>
      </trkpt>
      <trkpt lat="40.252417" lon="-4.888083">
        <ele>1025.0</ele>
        <time>2018-09-15T10:43:37Z</time>
      </trkpt>
      <trkpt lat="40.252400" lon="-4.888100">
        <ele>1025.0</ele>
        <time>2018-09-15T10:43:38Z</time>
      </trkpt>
      <trkpt lat="40.252400" lon="-4.888100">
        <ele>1025.0</ele>
        <time>2018-09-15T10:43:39Z</time>
      </trkpt>
      <trkpt lat="40.252400" lon="-4.888083">
        <ele>1025.0</ele>
        <time>2018-09-15T10:43:37Z</time>
      </trkpt>
      <trkpt lat="40.252400" lon="-4.888083">
        <ele>1025.0</ele>
        <time>2018-09-15T10:43:39Z</time>
      </trkpt>
      <trkpt lat="40.252400" lon="-4.888083">
        <ele>1025.0</ele>
        <time>2018-09-15T10:43:41Z</time>
      </trkpt>
      <trkpt lat="40.252400" lon="-4.888083">
        <ele>1025.0</ele>
        <time>2018-09-15T10:43:43Z</time>
      </trkpt>
      <trkpt lat="40.252400" lon="-4.888083">
        <ele>1025.0</ele>
        <time>2018-09-15T10:43:44Z</time>
      </trkpt>
      <trkpt lat="40.252400" lon="-4.888083">
        <ele>1025.0</ele>
        <time>2018-09-15T10:43:45Z</time>
      </trkpt>
      <trkpt lat="40.252400" lon="-4.888083">
        <ele>1025.0</ele>
        <time>2018-09-15T10:43:46Z</time>
      </trkpt>
      <trkpt lat="40.252400" lon="-4.888083">
        <ele>1024.0</ele>
        <time>2018-09-15T10:43:48Z</time>
      </trkpt>
      <trkpt lat="40.252400" lon="-4.888100">
        <ele>1024.0</ele>
        <time>2018-09-15T10:43:50Z</time>
      </trkpt>
      <trkpt lat="40.252400" lon="-4.888100">
        <ele>1024.0</ele>
        <time>2018-09-15T10:43:51Z</time>
      </trkpt>
      <trkpt lat="40.252400" lon="-4.888100">
        <ele>1024.0</ele>
        <time>2018-09-15T10:43:52Z</time>
      </trkpt>
      <trkpt lat="40.252400" lon="-4.888100">
        <ele>1024.0</ele>
        <time>2018-09-15T10:43:53Z</time>
      </trkpt>
      <trkpt lat="40.252400" lon="-4.888100">
        <ele>1024.0</ele>
        <time>2018-09-15T10:43:54Z</time>
      </trkpt>
      <trkpt lat="40.252400" lon="-4.888100">
        <ele>1024.0</ele>
        <time>2018-09-15T10:43:55Z</time>
      </trkpt>
      <trkpt lat="40.252400" lon="-4.888100">
        <ele>1024.0</ele>
        <time>2018-09-15T10:43:56Z</time>
      </trkpt>
      <trkpt lat="40.252400" lon="-4.888100">
        <ele>1024.0</ele>
        <time>2018-09-15T10:43:57Z</time>
      </trkpt>
      <trkpt lat="40.252400" lon="-4.888100">
        <ele>1024.0</ele>
        <time>2018-09-15T10:43:58Z</time>
      </trkpt>
      <trkpt lat="40.252400" lon="-4.888117">
        <ele>1024.0</ele>
        <time>2018-09-15T10:43:59Z</time>
      </trkpt>
      <trkpt lat="40.252400" lon="-4.888117">
        <ele>1024.0</ele>
        <time>2018-09-15T10:44:00Z</time>
      </trkpt>
      <trkpt lat="40.252400" lon="-4.888117">
        <ele>1024.0</ele>
        <time>2018-09-15T10:44:01Z</time>
      </trkpt>
      <trkpt lat="40.252400" lon="-4.888117">
        <ele>1024.0</ele>
        <time>2018-09-15T10:44:02Z</time>
      </trkpt>
      <trkpt lat="40.252400" lon="-4.888117">
        <ele>1024.0</ele>
        <time>2018-09-15T10:44:03Z</time>
      </trkpt>
      <trkpt lat="40.252400" lon="-4.888117">
        <ele>1024.0</ele>
        <time>2018-09-15T10:44:04Z</time>
      </trkpt>
      <trkpt lat="40.252400" lon="-4.888100">
        <ele>1024.0</ele>
        <time>2018-09-15T10:44:05Z</time>
      </trkpt>
      <trkpt lat="40.252417" lon="-4.888117">
        <ele>1024.0</ele>
        <time>2018-09-15T10:44:06Z</time>
      </trkpt>
      <trkpt lat="40.252417" lon="-4.888117">
        <ele>1024.0</ele>
        <time>2018-09-15T10:44:07Z</time>
      </trkpt>
      <trkpt lat="40.252417" lon="-4.888117">
        <ele>1024.0</ele>
        <time>2018-09-15T10:44:08Z</time>
      </trkpt>
      <trkpt lat="40.252417" lon="-4.888117">
        <ele>1024.0</ele>
        <time>2018-09-15T10:44:09Z</time>
      </trkpt>
      <trkpt lat="40.252417" lon="-4.888117">
        <ele>1024.0</ele>
        <time>2018-09-15T10:44:10Z</time>
      </trkpt>
      <trkpt lat="40.252417" lon="-4.888117">
        <ele>1024.0</ele>
        <time>2018-09-15T10:44:11Z</time>
      </trkpt>
      <trkpt lat="40.252417" lon="-4.888117">
        <ele>1024.0</ele>
        <time>2018-09-15T10:44:12Z</time>
      </trkpt>
      <trkpt lat="40.252400" lon="-4.888117">
        <ele>1024.0</ele>
        <time>2018-09-15T10:44:13Z</time>
      </trkpt>
      <trkpt lat="40.252400" lon="-4.888117">
        <ele>1024.0</ele>
        <time>2018-09-15T10:44:14Z</time>
      </trkpt>
      <trkpt lat="40.252400" lon="-4.888117">
        <ele>1024.0</ele>
        <time>2018-09-15T10:44:15Z</time>
      </trkpt>
      <trkpt lat="40.252400" lon="-4.888117">
        <ele>1024.0</ele>
        <time>2018-09-15T10:44:16Z</time>
      </trkpt>
      <trkpt lat="40.252400" lon="-4.888117">
        <ele>1024.0</ele>
        <time>2018-09-15T10:44:17Z</time>
      </trkpt>
      <trkpt lat="40.252400" lon="-4.888117">
        <ele>1024.0</ele>
        <time>2018-09-15T10:44:18Z</time>
      </trkpt>
      <trkpt lat="40.252400" lon="-4.888117">
        <ele>1024.0</ele>
        <time>2018-09-15T10:44:19Z</time>
      </trkpt>
      <trkpt lat="40.252400" lon="-4.888117">
        <ele>1024.0</ele>
        <time>2018-09-15T10:44:20Z</time>
      </trkpt>
      <trkpt lat="40.252400" lon="-4.888117">
        <ele>1024.0</ele>
        <time>2018-09-15T10:44:21Z</time>
      </trkpt>
      <trkpt lat="40.252417" lon="-4.888117">
        <ele>1024.0</ele>
        <time>2018-09-15T10:44:22Z</time>
      </trkpt>
      <trkpt lat="40.252417" lon="-4.888117">
        <ele>1024.0</ele>
        <time>2018-09-15T10:44:23Z</time>
      </trkpt>
      <trkpt lat="40.252417" lon="-4.888117">
        <ele>1024.0</ele>
        <time>2018-09-15T10:44:24Z</time>
      </trkpt>
      <trkpt lat="40.252417" lon="-4.888117">
        <ele>1024.0</ele>
        <time>2018-09-15T10:44:25Z</time>
      </trkpt>
      <trkpt lat="40.252400" lon="-4.888117">
        <ele>1024.0</ele>
        <time>2018-09-15T10:44:26Z</time>
      </trkpt>
      <trkpt lat="40.252417" lon="-4.888117">
        <ele>1024.0</ele>
        <time>2018-09-15T10:44:28Z</time>
      </trkpt>
      <trkpt lat="40.252417" lon="-4.888117">
        <ele>1024.0</ele>
        <time>2018-09-15T10:44:29Z</time>
      </trkpt>
      <trkpt lat="40.252417" lon="-4.888117">
        <ele>1024.0</ele>
        <time>2018-09-15T10:44:30Z</time>
      </trkpt>
      <trkpt lat="40.252417" lon="-4.888117">
        <ele>1024.0</ele>
        <time>2018-09-15T10:44:31Z</time>
      </trkpt>
      <trkpt lat="40.252417" lon="-4.888117">
        <ele>1024.0</ele>
        <time>2018-09-15T10:44:32Z</time>
      </trkpt>
      <trkpt lat="40.252417" lon="-4.888100">
        <ele>1024.0</ele>
        <time>2018-09-15T10:44:33Z</time>
      </trkpt>
      <trkpt lat="40.252417" lon="-4.888100">
        <ele>1024.0</ele>
        <time>2018-09-15T10:44:34Z</time>
      </trkpt>
      <trkpt lat="40.252417" lon="-4.888117">
        <ele>1024.0</ele>
        <time>2018-09-15T10:44:35Z</time>
      </trkpt>
      <trkpt lat="40.252417" lon="-4.888117">
        <ele>1024.0</ele>
        <time>2018-09-15T10:44:36Z</time>
      </trkpt>
      <trkpt lat="40.252417" lon="-4.888117">
        <ele>1024.0</ele>
        <time>2018-09-15T10:44:37Z</time>
      </trkpt>
      <trkpt lat="40.252417" lon="-4.888117">
        <ele>1024.0</ele>
        <time>2018-09-15T10:44:38Z</time>
      </trkpt>
      <trkpt lat="40.252417" lon="-4.888117">
        <ele>1024.0</ele>
        <time>2018-09-15T10:44:39Z</time>
      </trkpt>
      <trkpt lat="40.252417" lon="-4.888100">
        <ele>1024.0</ele>
        <time>2018-09-15T10:44:40Z</time>
      </trkpt>
      <trkpt lat="40.252417" lon="-4.888100">
        <ele>1024.0</ele>
        <time>2018-09-15T10:44:41Z</time>
      </trkpt>
      <trkpt lat="40.252417" lon="-4.888117">
        <ele>1024.0</ele>
        <time>2018-09-15T10:44:42Z</time>
      </trkpt>
      <trkpt lat="40.252400" lon="-4.888117">
        <ele>1024.0</ele>
        <time>2018-09-15T10:44:43Z</time>
      </trkpt>
      <trkpt lat="40.252400" lon="-4.888117">
        <ele>1024.0</ele>
        <time>2018-09-15T10:44:44Z</time>
      </trkpt>
      <trkpt lat="40.252417" lon="-4.888100">
        <ele>1024.0</ele>
        <time>2018-09-15T10:44:45Z</time>
      </trkpt>
      <trkpt lat="40.252417" lon="-4.888100">
        <ele>1024.0</ele>
        <time>2018-09-15T10:44:46Z</time>
      </trkpt>
      <trkpt lat="40.252417" lon="-4.888100">
        <ele>1024.0</ele>
        <time>2018-09-15T10:44:48Z</time>
      </trkpt>
      <trkpt lat="40.252417" lon="-4.888100">
        <ele>1024.0</ele>
        <time>2018-09-15T10:44:49Z</time>
      </trkpt>
      <trkpt lat="40.252400" lon="-4.888117">
        <ele>1024.0</ele>
        <time>2018-09-15T10:44:50Z</time>
      </trkpt>
      <trkpt lat="40.252400" lon="-4.888117">
        <ele>1024.0</ele>
        <time>2018-09-15T10:44:51Z</time>
      </trkpt>
      <trkpt lat="40.252400" lon="-4.888117">
        <ele>1024.0</ele>
        <time>2018-09-15T10:44:52Z</time>
      </trkpt>
      <trkpt lat="40.252400" lon="-4.888117">
        <ele>1024.0</ele>
        <time>2018-09-15T10:44:53Z</time>
      </trkpt>
      <trkpt lat="40.252400" lon="-4.888117">
        <ele>1024.0</ele>
        <time>2018-09-15T10:44:54Z</time>
      </trkpt>
      <trkpt lat="40.252400" lon="-4.888117">
        <ele>1024.0</ele>
        <time>2018-09-15T10:44:55Z</time>
      </trkpt>
      <trkpt lat="40.252400" lon="-4.888117">
        <ele>1024.0</ele>
        <time>2018-09-15T10:44:56Z</time>
      </trkpt>
      <trkpt lat="40.252400" lon="-4.888117">
        <ele>1024.0</ele>
        <time>2018-09-15T10:44:57Z</time>
      </trkpt>
      <trkpt lat="40.252400" lon="-4.888117">
        <ele>1024.0</ele>
        <time>2018-09-15T10:44:58Z</time>
      </trkpt>
      <trkpt lat="40.252400" lon="-4.888100">
        <ele>1024.0</ele>
        <time>2018-09-15T10:44:59Z</time>
      </trkpt>
      <trkpt lat="40.252433" lon="-4.888150">
        <ele>1051.0</ele>
        <time>2018-09-15T11:07:44Z</time>
      </trkpt>
      <trkpt lat="40.252433" lon="-4.888150">
        <ele>1023.0</ele>
        <time>2018-09-15T11:07:45Z</time>
      </trkpt>
      <trkpt lat="40.252450" lon="-4.888150">
        <ele>1025.0</ele>
        <time>2018-09-15T11:07:46Z</time>
      </trkpt>
      <trkpt lat="40.252467" lon="-4.888150">
        <ele>1026.0</ele>
        <time>2018-09-15T11:07:47Z</time>
      </trkpt>
      <trkpt lat="40.252450" lon="-4.888150">
        <ele>1027.0</ele>
        <time>2018-09-15T11:07:48Z</time>
      </trkpt>
      <trkpt lat="40.252433" lon="-4.888150">
        <ele>1029.0</ele>
        <time>2018-09-15T11:07:49Z</time>
      </trkpt>
      <trkpt lat="40.252433" lon="-4.888150">
        <ele>1029.0</ele>
        <time>2018-09-15T11:07:50Z</time>
      </trkpt>
      <trkpt lat="40.252433" lon="-4.888150">
        <ele>1029.0</ele>
        <time>2018-09-15T11:07:51Z</time>
      </trkpt>
      <trkpt lat="40.252433" lon="-4.888150">
        <ele>1029.0</ele>
        <time>2018-09-15T11:07:52Z</time>
      </trkpt>
      <trkpt lat="40.252433" lon="-4.888150">
        <ele>1029.0</ele>
        <time>2018-09-15T11:07:53Z</time>
      </trkpt>
      <trkpt lat="40.252433" lon="-4.888150">
        <ele>1028.0</ele>
        <time>2018-09-15T11:07:54Z</time>
      </trkpt>
      <trkpt lat="40.252433" lon="-4.888150">
        <ele>1028.0</ele>
        <time>2018-09-15T11:07:55Z</time>
      </trkpt>
      <trkpt lat="40.252433" lon="-4.888150">
        <ele>1028.0</ele>
        <time>2018-09-15T11:07:56Z</time>
      </trkpt>
      <trkpt lat="40.252433" lon="-4.888150">
        <ele>1029.0</ele>
        <time>2018-09-15T11:07:57Z</time>
      </trkpt>
      <trkpt lat="40.252433" lon="-4.888150">
        <ele>1029.0</ele>
        <time>2018-09-15T11:07:58Z</time>
      </trkpt>
      <trkpt lat="40.252433" lon="-4.888150">
        <ele>1029.0</ele>
        <time>2018-09-15T11:07:59Z</time>
      </trkpt>
      <trkpt lat="40.252433" lon="-4.888150">
        <ele>1028.0</ele>
        <time>2018-09-15T11:08:00Z</time>
      </trkpt>
      <trkpt lat="40.252433" lon="-4.888150">
        <ele>1028.0</ele>
        <time>2018-09-15T11:08:01Z</time>
      </trkpt>
      <trkpt lat="40.252433" lon="-4.888150">
        <ele>1027.0</ele>
        <time>2018-09-15T11:08:02Z</time>
      </trkpt>
      <trkpt lat="40.252433" lon="-4.888150">
        <ele>1027.0</ele>
        <time>2018-09-15T11:08:03Z</time>
      </trkpt>
      <trkpt lat="40.252433" lon="-4.888150">
        <ele>1027.0</ele>
        <time>2018-09-15T11:08:04Z</time>
      </trkpt>
      <trkpt lat="40.252417" lon="-4.888133">
        <ele>1027.0</ele>
        <time>2018-09-15T11:08:05Z</time>
      </trkpt>
      <trkpt lat="40.252417" lon="-4.888133">
        <ele>1027.0</ele>
        <time>2018-09-15T11:08:06Z</time>
      </trkpt>
      <trkpt lat="40.252417" lon="-4.888133">
        <ele>1027.0</ele>
        <time>2018-09-15T11:08:07Z</time>
      </trkpt>
      <trkpt lat="40.252417" lon="-4.888133">
        <ele>1026.0</ele>
        <time>2018-09-15T11:08:08Z</time>
      </trkpt>
      <trkpt lat="40.252417" lon="-4.888133">
        <ele>1026.0</ele>
        <time>2018-09-15T11:08:09Z</time>
      </trkpt>
      <trkpt lat="40.252417" lon="-4.888133">
        <ele>1026.0</ele>
        <time>2018-09-15T11:08:10Z</time>
      </trkpt>
      <trkpt lat="40.252417" lon="-4.888133">
        <ele>1026.0</ele>
        <time>2018-09-15T11:08:11Z</time>
      </trkpt>
      <trkpt lat="40.252417" lon="-4.888133">
        <ele>1026.0</ele>
        <time>2018-09-15T11:08:12Z</time>
      </trkpt>
      <trkpt lat="40.252417" lon="-4.888133">
        <ele>1026.0</ele>
        <time>2018-09-15T11:08:13Z</time>
      </trkpt>
      <trkpt lat="40.252417" lon="-4.888133">
        <ele>1026.0</ele>
        <time>2018-09-15T11:08:14Z</time>
      </trkpt>
      <trkpt lat="40.252417" lon="-4.888133">
        <ele>1026.0</ele>
        <time>2018-09-15T11:08:15Z</time>
      </trkpt>
      <trkpt lat="40.252417" lon="-4.888133">
        <ele>1026.0</ele>
        <time>2018-09-15T11:08:16Z</time>
      </trkpt>
      <trkpt lat="40.252417" lon="-4.888133">
        <ele>1026.0</ele>
        <time>2018-09-15T11:08:17Z</time>
      </trkpt>
      <trkpt lat="40.252400" lon="-4.888133">
        <ele>1026.0</ele>
        <time>2018-09-15T11:08:18Z</time>
      </trkpt>
      <trkpt lat="40.252400" lon="-4.888133">
        <ele>1027.0</ele>
        <time>2018-09-15T11:08:19Z</time>
      </trkpt>
      <trkpt lat="40.252400" lon="-4.888133">
        <ele>1027.0</ele>
        <time>2018-09-15T11:08:20Z</time>
      </trkpt>
      <trkpt lat="40.252400" lon="-4.888133">
        <ele>1027.0</ele>
        <time>2018-09-15T11:08:21Z</time>
      </trkpt>
      <trkpt lat="40.252400" lon="-4.888133">
        <ele>1027.0</ele>
        <time>2018-09-15T11:08:22Z</time>
      </trkpt>
      <trkpt lat="40.252400" lon="-4.888133">
        <ele>1026.0</ele>
        <time>2018-09-15T11:08:23Z</time>
      </trkpt>
      <trkpt lat="40.252400" lon="-4.888133">
        <ele>1026.0</ele>
        <time>2018-09-15T11:08:24Z</time>
      </trkpt>
      <trkpt lat="40.252400" lon="-4.888133">
        <ele>1026.0</ele>
        <time>2018-09-15T11:08:25Z</time>
      </trkpt>
      <trkpt lat="40.252400" lon="-4.888133">
        <ele>1026.0</ele>
        <time>2018-09-15T11:08:26Z</time>
      </trkpt>
      <trkpt lat="40.252400" lon="-4.888117">
        <ele>1026.0</ele>
        <time>2018-09-15T11:08:27Z</time>
      </trkpt>
      <trkpt lat="40.252400" lon="-4.888133">
        <ele>1027.0</ele>
        <time>2018-09-15T11:08:28Z</time>
      </trkpt>
      <trkpt lat="40.252400" lon="-4.888133">
        <ele>1027.0</ele>
        <time>2018-09-15T11:08:29Z</time>
      </trkpt>
      <trkpt lat="40.252400" lon="-4.888133">
        <ele>1027.0</ele>
        <time>2018-09-15T11:08:30Z</time>
      </trkpt>
      <trkpt lat="40.252400" lon="-4.888133">
        <ele>1026.0</ele>
        <time>2018-09-15T11:08:31Z</time>
      </trkpt>
      <trkpt lat="40.252400" lon="-4.888133">
        <ele>1026.0</ele>
        <time>2018-09-15T11:08:32Z</time>
      </trkpt>
      <trkpt lat="40.252400" lon="-4.888133">
        <ele>1026.0</ele>
        <time>2018-09-15T11:08:33Z</time>
      </trkpt>
      <trkpt lat="40.252400" lon="-4.888133">
        <ele>1026.0</ele>
        <time>2018-09-15T11:08:34Z</time>
      </trkpt>
      <trkpt lat="40.252417" lon="-4.888133">
        <ele>1026.0</ele>
        <time>2018-09-15T11:08:35Z</time>
      </trkpt>
      <trkpt lat="40.252417" lon="-4.888133">
        <ele>1026.0</ele>
        <time>2018-09-15T11:08:36Z</time>
      </trkpt>
      <trkpt lat="40.252417" lon="-4.888133">
        <ele>1025.0</ele>
        <time>2018-09-15T11:08:37Z</time>
      </trkpt>
      <trkpt lat="40.252417" lon="-4.888150">
        <ele>1024.0</ele>
        <time>2018-09-15T11:08:38Z</time>
      </trkpt>
      <trkpt lat="40.252417" lon="-4.888150">
        <ele>1024.0</ele>
        <time>2018-09-15T11:08:39Z</time>
      </trkpt>
      <trkpt lat="40.252417" lon="-4.888150">
        <ele>1024.0</ele>
        <time>2018-09-15T11:08:40Z</time>
      </trkpt>
      <trkpt lat="40.252417" lon="-4.888150">
        <ele>1023.0</ele>
        <time>2018-09-15T11:08:41Z</time>
      </trkpt>
      <trkpt lat="40.252417" lon="-4.888150">
        <ele>1024.0</ele>
        <time>2018-09-15T11:08:42Z</time>
      </trkpt>
      <trkpt lat="40.252417" lon="-4.888150">
        <ele>1024.0</ele>
        <time>2018-09-15T11:08:43Z</time>
      </trkpt>
      <trkpt lat="40.252417" lon="-4.888150">
        <ele>1024.0</ele>
        <time>2018-09-15T11:08:44Z</time>
      </trkpt>
      <trkpt lat="40.252417" lon="-4.888150">
        <ele>1024.0</ele>
        <time>2018-09-15T11:08:45Z</time>
      </trkpt>
      <trkpt lat="40.252417" lon="-4.888150">
        <ele>1024.0</ele>
        <time>2018-09-15T11:08:46Z</time>
      </trkpt>
      <trkpt lat="40.252417" lon="-4.888150">
        <ele>1024.0</ele>
        <time>2018-09-15T11:08:47Z</time>
      </trkpt>
      <trkpt lat="40.252417" lon="-4.888150">
        <ele>1024.0</ele>
        <time>2018-09-15T11:08:48Z</time>
      </trkpt>
      <trkpt lat="40.252433" lon="-4.888150">
        <ele>1024.0</ele>
        <time>2018-09-15T11:08:49Z</time>
      </trkpt>
      <trkpt lat="40.252433" lon="-4.888150">
        <ele>1024.0</ele>
        <time>2018-09-15T11:08:50Z</time>
      </trkpt>
      <trkpt lat="40.252433" lon="-4.888150">
        <ele>1024.0</ele>
        <time>2018-09-15T11:08:51Z</time>
      </trkpt>
      <trkpt lat="40.252433" lon="-4.888150">
        <ele>1024.0</ele>
        <time>2018-09-15T11:08:52Z</time>
      </trkpt>
      <trkpt lat="40.252433" lon="-4.888150">
        <ele>1024.0</ele>
        <time>2018-09-15T11:08:53Z</time>
      </trkpt>
      <trkpt lat="40.252433" lon="-4.888150">
        <ele>1024.0</ele>
        <time>2018-09-15T11:08:54Z</time>
      </trkpt>
      <trkpt lat="40.252433" lon="-4.888150">
        <ele>1024.0</ele>
        <time>2018-09-15T11:08:55Z</time>
      </trkpt>
      <trkpt lat="40.252433" lon="-4.888150">
        <ele>1024.0</ele>
        <time>2018-09-15T11:08:56Z</time>
      </trkpt>
      <trkpt lat="40.252433" lon="-4.888150">
        <ele>1025.0</ele>
        <time>2018-09-15T11:08:57Z</time>
      </trkpt>
      <trkpt lat="40.252433" lon="-4.888150">
        <ele>1025.0</ele>
        <time>2018-09-15T11:08:58Z</time>
      </trkpt>
      <trkpt lat="40.252433" lon="-4.888150">
        <ele>1025.0</ele>
        <time>2018-09-15T11:08:59Z</time>
      </trkpt>
      <trkpt lat="40.252433" lon="-4.888150">
        <ele>1025.0</ele>
        <time>2018-09-15T11:09:00Z</time>
      </trkpt>
      <trkpt lat="40.252433" lon="-4.888150">
        <ele>1025.0</ele>
        <time>2018-09-15T11:09:01Z</time>
      </trkpt>
      <trkpt lat="40.252433" lon="-4.888150">
        <ele>1025.0</ele>
        <time>2018-09-15T11:09:02Z</time>
      </trkpt>
      <trkpt lat="40.252433" lon="-4.888150">
        <ele>1025.0</ele>
        <time>2018-09-15T11:09:03Z</time>
      </trkpt>
      <trkpt lat="40.252433" lon="-4.888150">
        <ele>1025.0</ele>
        <time>2018-09-15T11:09:04Z</time>
      </trkpt>
      <trkpt lat="40.252417" lon="-4.888150">
        <ele>1025.0</ele>
        <time>2018-09-15T11:09:05Z</time>
      </trkpt>
      <trkpt lat="40.252417" lon="-4.888150">
        <ele>1024.0</ele>
        <time>2018-09-15T11:09:06Z</time>
      </trkpt>
      <trkpt lat="40.252417" lon="-4.888150">
        <ele>1024.0</ele>
        <time>2018-09-15T11:09:07Z</time>
      </trkpt>
      <trkpt lat="40.252417" lon="-4.888150">
        <ele>1024.0</ele>
        <time>2018-09-15T11:09:08Z</time>
      </trkpt>
      <trkpt lat="40.252417" lon="-4.888150">
        <ele>1024.0</ele>
        <time>2018-09-15T11:09:09Z</time>
      </trkpt>
      <trkpt lat="40.252417" lon="-4.888133">
        <ele>1024.0</ele>
        <time>2018-09-15T11:09:10Z</time>
      </trkpt>
      <trkpt lat="40.252417" lon="-4.888133">
        <ele>1024.0</ele>
        <time>2018-09-15T11:09:11Z</time>
      </trkpt>
      <trkpt lat="40.252417" lon="-4.888133">
        <ele>1023.0</ele>
        <time>2018-09-15T11:09:12Z</time>
      </trkpt>
      <trkpt lat="40.252417" lon="-4.888117">
        <ele>1023.0</ele>
        <time>2018-09-15T11:09:13Z</time>
      </trkpt>
      <trkpt lat="40.252417" lon="-4.888117">
        <ele>1023.0</ele>
        <time>2018-09-15T11:09:14Z</time>
      </trkpt>
      <trkpt lat="40.252417" lon="-4.888100">
        <ele>1023.0</ele>
        <time>2018-09-15T11:09:15Z</time>
      </trkpt>
      <trkpt lat="40.252417" lon="-4.888100">
        <ele>1023.0</ele>
        <time>2018-09-15T11:09:16Z</time>
      </trkpt>
      <trkpt lat="40.252417" lon="-4.888100">
        <ele>1023.0</ele>
        <time>2018-09-15T11:09:17Z</time>
      </trkpt>
      <trkpt lat="40.252417" lon="-4.888133">
        <ele>1023.0</ele>
        <time>2018-09-15T11:09:18Z</time>
      </trkpt>
      <trkpt lat="40.252417" lon="-4.888133">
        <ele>1023.0</ele>
        <time>2018-09-15T11:09:19Z</time>
      </trkpt>
      <trkpt lat="40.252417" lon="-4.888133">
        <ele>1022.0</ele>
        <time>2018-09-15T11:09:20Z</time>
      </trkpt>
      <trkpt lat="40.252417" lon="-4.888133">
        <ele>1022.0</ele>
        <time>2018-09-15T11:09:21Z</time>
      </trkpt>
      <trkpt lat="40.252417" lon="-4.888133">
        <ele>1021.0</ele>
        <time>2018-09-15T11:09:22Z</time>
      </trkpt>
      <trkpt lat="40.252417" lon="-4.888133">
        <ele>1021.0</ele>
        <time>2018-09-15T11:09:23Z</time>
      </trkpt>
      <trkpt lat="40.252417" lon="-4.888133">
        <ele>1022.0</ele>
        <time>2018-09-15T11:09:24Z</time>
      </trkpt>
      <trkpt lat="40.252417" lon="-4.888133">
        <ele>1022.0</ele>
        <time>2018-09-15T11:09:25Z</time>
      </trkpt>
      <trkpt lat="40.252417" lon="-4.888133">
        <ele>1022.0</ele>
        <time>2018-09-15T11:09:26Z</time>
      </trkpt>
      <trkpt lat="40.252417" lon="-4.888133">
        <ele>1022.0</ele>
        <time>2018-09-15T11:09:27Z</time>
      </trkpt>
      <trkpt lat="40.252417" lon="-4.888133">
        <ele>1022.0</ele>
        <time>2018-09-15T11:09:28Z</time>
      </trkpt>
      <trkpt lat="40.252417" lon="-4.888133">
        <ele>1022.0</ele>
        <time>2018-09-15T11:09:29Z</time>
      </trkpt>
      <trkpt lat="40.252417" lon="-4.888133">
        <ele>1022.0</ele>
        <time>2018-09-15T11:09:30Z</time>
      </trkpt>
      <trkpt lat="40.252417" lon="-4.888133">
        <ele>1023.0</ele>
        <time>2018-09-15T11:09:31Z</time>
      </trkpt>
      <trkpt lat="40.252400" lon="-4.888133">
        <ele>1023.0</ele>
        <time>2018-09-15T11:09:32Z</time>
      </trkpt>
      <trkpt lat="40.252400" lon="-4.888133">
        <ele>1023.0</ele>
        <time>2018-09-15T11:09:33Z</time>
      </trkpt>
      <trkpt lat="40.252400" lon="-4.888133">
        <ele>1022.0</ele>
        <time>2018-09-15T11:09:34Z</time>
      </trkpt>
      <trkpt lat="40.252400" lon="-4.888133">
        <ele>1022.0</ele>
        <time>2018-09-15T11:09:35Z</time>
      </trkpt>
      <trkpt lat="40.252417" lon="-4.888133">
        <ele>1022.0</ele>
        <time>2018-09-15T11:09:36Z</time>
      </trkpt>
      <trkpt lat="40.252417" lon="-4.888133">
        <ele>1022.0</ele>
        <time>2018-09-15T11:09:37Z</time>
      </trkpt>
      <trkpt lat="40.252417" lon="-4.888133">
        <ele>1022.0</ele>
        <time>2018-09-15T11:09:38Z</time>
      </trkpt>
      <trkpt lat="40.252400" lon="-4.888117">
        <ele>1022.0</ele>
        <time>2018-09-15T11:09:39Z</time>
      </trkpt>
      <trkpt lat="40.252400" lon="-4.888133">
        <ele>1022.0</ele>
        <time>2018-09-15T11:09:40Z</time>
      </trkpt>
      <trkpt lat="40.252400" lon="-4.888133">
        <ele>1022.0</ele>
        <time>2018-09-15T11:09:41Z</time>
      </trkpt>
      <trkpt lat="40.252400" lon="-4.888133">
        <ele>1022.0</ele>
        <time>2018-09-15T11:09:42Z</time>
      </trkpt>
      <trkpt lat="40.252417" lon="-4.888133">
        <ele>1022.0</ele>
        <time>2018-09-15T11:09:43Z</time>
      </trkpt>
      <trkpt lat="40.252417" lon="-4.888117">
        <ele>1022.0</ele>
        <time>2018-09-15T11:09:44Z</time>
      </trkpt>
      <trkpt lat="40.252400" lon="-4.888133">
        <ele>1022.0</ele>
        <time>2018-09-15T11:09:45Z</time>
      </trkpt>
      <trkpt lat="40.252383" lon="-4.888133">
        <ele>1022.0</ele>
        <time>2018-09-15T11:09:46Z</time>
      </trkpt>
      <trkpt lat="40.252383" lon="-4.888133">
        <ele>1022.0</ele>
        <time>2018-09-15T11:09:47Z</time>
      </trkpt>
      <trkpt lat="40.252383" lon="-4.888117">
        <ele>1022.0</ele>
        <time>2018-09-15T11:09:48Z</time>
      </trkpt>
      <trkpt lat="40.252400" lon="-4.888117">
        <ele>1022.0</ele>
        <time>2018-09-15T11:09:49Z</time>
      </trkpt>
      <trkpt lat="40.252400" lon="-4.888100">
        <ele>1022.0</ele>
        <time>2018-09-15T11:09:50Z</time>
      </trkpt>
      <trkpt lat="40.252400" lon="-4.888083">
        <ele>1022.0</ele>
        <time>2018-09-15T11:09:51Z</time>
      </trkpt>
      <trkpt lat="40.252383" lon="-4.888083">
        <ele>1022.0</ele>
        <time>2018-09-15T11:09:52Z</time>
      </trkpt>
      <trkpt lat="40.252383" lon="-4.888083">
        <ele>1022.0</ele>
        <time>2018-09-15T11:09:53Z</time>
      </trkpt>
      <trkpt lat="40.252383" lon="-4.888083">
        <ele>1022.0</ele>
        <time>2018-09-15T11:09:54Z</time>
      </trkpt>
      <trkpt lat="40.252383" lon="-4.888100">
        <ele>1022.0</ele>
        <time>2018-09-15T11:09:55Z</time>
      </trkpt>
      <trkpt lat="40.252383" lon="-4.888083">
        <ele>1022.0</ele>
        <time>2018-09-15T11:09:56Z</time>
      </trkpt>
      <trkpt lat="40.252367" lon="-4.888100">
        <ele>1022.0</ele>
        <time>2018-09-15T11:09:57Z</time>
      </trkpt>
      <trkpt lat="40.252367" lon="-4.888100">
        <ele>1022.0</ele>
        <time>2018-09-15T11:09:58Z</time>
      </trkpt>
      <trkpt lat="40.252367" lon="-4.888100">
        <ele>1023.0</ele>
        <time>2018-09-15T11:09:59Z</time>
      </trkpt>
      <trkpt lat="40.252367" lon="-4.888100">
        <ele>1023.0</ele>
        <time>2018-09-15T11:10:00Z</time>
      </trkpt>
      <trkpt lat="40.252383" lon="-4.888083">
        <ele>1023.0</ele>
        <time>2018-09-15T11:10:01Z</time>
      </trkpt>
      <trkpt lat="40.252383" lon="-4.888083">
        <ele>1023.0</ele>
        <time>2018-09-15T11:10:02Z</time>
      </trkpt>
      <trkpt lat="40.252383" lon="-4.888067">
        <ele>1023.0</ele>
        <time>2018-09-15T11:10:03Z</time>
      </trkpt>
      <trkpt lat="40.252383" lon="-4.888083">
        <ele>1023.0</ele>
        <time>2018-09-15T11:10:04Z</time>
      </trkpt>
      <trkpt lat="40.252383" lon="-4.888083">
        <ele>1024.0</ele>
        <time>2018-09-15T11:10:05Z</time>
      </trkpt>
      <trkpt lat="40.252400" lon="-4.888100">
        <ele>1023.0</ele>
        <time>2018-09-15T11:10:06Z</time>
      </trkpt>
      <trkpt lat="40.252417" lon="-4.888083">
        <ele>1023.0</ele>
        <time>2018-09-15T11:10:07Z</time>
      </trkpt>
      <trkpt lat="40.252417" lon="-4.888083">
        <ele>1023.0</ele>
        <time>2018-09-15T11:10:08Z</time>
      </trkpt>
      <trkpt lat="40.252417" lon="-4.888067">
        <ele>1023.0</ele>
        <time>2018-09-15T11:10:09Z</time>
      </trkpt>
      <trkpt lat="40.252400" lon="-4.888083">
        <ele>1023.0</ele>
        <time>2018-09-15T11:10:10Z</time>
      </trkpt>
      <trkpt lat="40.252400" lon="-4.888083">
        <ele>1024.0</ele>
        <time>2018-09-15T11:10:11Z</time>
      </trkpt>
      <trkpt lat="40.252400" lon="-4.888083">
        <ele>1024.0</ele>
        <time>2018-09-15T11:10:12Z</time>
      </trkpt>
      <trkpt lat="40.252400" lon="-4.888050">
        <ele>1024.0</ele>
        <time>2018-09-15T11:10:13Z</time>
      </trkpt>
      <trkpt lat="40.252400" lon="-4.888067">
        <ele>1024.0</ele>
        <time>2018-09-15T11:10:14Z</time>
      </trkpt>
      <trkpt lat="40.252383" lon="-4.888067">
        <ele>1024.0</ele>
        <time>2018-09-15T11:10:15Z</time>
      </trkpt>
      <trkpt lat="40.252400" lon="-4.888067">
        <ele>1024.0</ele>
        <time>2018-09-15T11:10:16Z</time>
      </trkpt>
      <trkpt lat="40.252400" lon="-4.888067">
        <ele>1024.0</ele>
        <time>2018-09-15T11:10:17Z</time>
      </trkpt>
      <trkpt lat="40.252400" lon="-4.888067">
        <ele>1025.0</ele>
        <time>2018-09-15T11:10:18Z</time>
      </trkpt>
      <trkpt lat="40.252400" lon="-4.888067">
        <ele>1024.0</ele>
        <time>2018-09-15T11:10:19Z</time>
      </trkpt>
      <trkpt lat="40.252400" lon="-4.888067">
        <ele>1024.0</ele>
        <time>2018-09-15T11:10:20Z</time>
      </trkpt>
      <trkpt lat="40.252400" lon="-4.888083">
        <ele>1024.0</ele>
        <time>2018-09-15T11:10:21Z</time>
      </trkpt>
      <trkpt lat="40.252400" lon="-4.888067">
        <ele>1024.0</ele>
        <time>2018-09-15T11:10:22Z</time>
      </trkpt>
      <trkpt lat="40.252400" lon="-4.888067">
        <ele>1024.0</ele>
        <time>2018-09-15T11:10:23Z</time>
      </trkpt>
      <trkpt lat="40.252400" lon="-4.888067">
        <ele>1024.0</ele>
        <time>2018-09-15T11:10:24Z</time>
      </trkpt>
      <trkpt lat="40.252400" lon="-4.888067">
        <ele>1024.0</ele>
        <time>2018-09-15T11:10:25Z</time>
      </trkpt>
      <trkpt lat="40.252400" lon="-4.888067">
        <ele>1024.0</ele>
        <time>2018-09-15T11:10:26Z</time>
      </trkpt>
      <trkpt lat="40.252400" lon="-4.888050">
        <ele>1025.0</ele>
        <time>2018-09-15T11:10:27Z</time>
      </trkpt>
      <trkpt lat="40.252400" lon="-4.888050">
        <ele>1025.0</ele>
        <time>2018-09-15T11:10:28Z</time>
      </trkpt>
      <trkpt lat="40.252400" lon="-4.888050">
        <ele>1025.0</ele>
        <time>2018-09-15T11:10:29Z</time>
      </trkpt>
      <trkpt lat="40.252400" lon="-4.888067">
        <ele>1025.0</ele>
        <time>2018-09-15T11:10:30Z</time>
      </trkpt>
      <trkpt lat="40.252417" lon="-4.888083">
        <ele>1025.0</ele>
        <time>2018-09-15T11:10:31Z</time>
      </trkpt>
      <trkpt lat="40.252417" lon="-4.888083">
        <ele>1025.0</ele>
        <time>2018-09-15T11:10:32Z</time>
      </trkpt>
      <trkpt lat="40.252400" lon="-4.888083">
        <ele>1025.0</ele>
        <time>2018-09-15T11:10:33Z</time>
      </trkpt>
      <trkpt lat="40.252400" lon="-4.888083">
        <ele>1025.0</ele>
        <time>2018-09-15T11:10:34Z</time>
      </trkpt>
      <trkpt lat="40.252383" lon="-4.888067">
        <ele>1025.0</ele>
        <time>2018-09-15T11:10:35Z</time>
      </trkpt>
      <trkpt lat="40.252367" lon="-4.888067">
        <ele>1025.0</ele>
        <time>2018-09-15T11:10:36Z</time>
      </trkpt>
      <trkpt lat="40.252367" lon="-4.888050">
        <ele>1025.0</ele>
        <time>2018-09-15T11:10:37Z</time>
      </trkpt>
      <trkpt lat="40.252383" lon="-4.888067">
        <ele>1025.0</ele>
        <time>2018-09-15T11:10:38Z</time>
      </trkpt>
      <trkpt lat="40.252367" lon="-4.888083">
        <ele>1025.0</ele>
        <time>2018-09-15T11:10:39Z</time>
      </trkpt>
      <trkpt lat="40.252367" lon="-4.888100">
        <ele>1025.0</ele>
        <time>2018-09-15T11:10:40Z</time>
      </trkpt>
      <trkpt lat="40.252367" lon="-4.888100">
        <ele>1025.0</ele>
        <time>2018-09-15T11:10:41Z</time>
      </trkpt>
      <trkpt lat="40.252350" lon="-4.888100">
        <ele>1025.0</ele>
        <time>2018-09-15T11:10:42Z</time>
      </trkpt>
      <trkpt lat="40.252350" lon="-4.888100">
        <ele>1025.0</ele>
        <time>2018-09-15T11:10:43Z</time>
      </trkpt>
      <trkpt lat="40.252350" lon="-4.888100">
        <ele>1025.0</ele>
        <time>2018-09-15T11:10:44Z</time>
      </trkpt>
      <trkpt lat="40.252350" lon="-4.888100">
        <ele>1025.0</ele>
        <time>2018-09-15T11:10:45Z</time>
      </trkpt>
      <trkpt lat="40.252333" lon="-4.888100">
        <ele>1025.0</ele>
        <time>2018-09-15T11:10:46Z</time>
      </trkpt>
      <trkpt lat="40.252333" lon="-4.888100">
        <ele>1025.0</ele>
        <time>2018-09-15T11:10:47Z</time>
      </trkpt>
      <trkpt lat="40.252333" lon="-4.888100">
        <ele>1025.0</ele>
        <time>2018-09-15T11:10:48Z</time>
      </trkpt>
      <trkpt lat="40.252333" lon="-4.888083">
        <ele>1025.0</ele>
        <time>2018-09-15T11:10:49Z</time>
      </trkpt>
      <trkpt lat="40.252333" lon="-4.888083">
        <ele>1025.0</ele>
        <time>2018-09-15T11:10:50Z</time>
      </trkpt>
      <trkpt lat="40.252333" lon="-4.888100">
        <ele>1025.0</ele>
        <time>2018-09-15T11:10:51Z</time>
      </trkpt>
      <trkpt lat="40.252350" lon="-4.888117">
        <ele>1025.0</ele>
        <time>2018-09-15T11:10:52Z</time>
      </trkpt>
      <trkpt lat="40.252350" lon="-4.888117">
        <ele>1025.0</ele>
        <time>2018-09-15T11:10:53Z</time>
      </trkpt>
      <trkpt lat="40.252350" lon="-4.888117">
        <ele>1025.0</ele>
        <time>2018-09-15T11:10:54Z</time>
      </trkpt>
      <trkpt lat="40.252350" lon="-4.888117">
        <ele>1025.0</ele>
        <time>2018-09-15T11:10:55Z</time>
      </trkpt>
      <trkpt lat="40.252350" lon="-4.888133">
        <ele>1025.0</ele>
        <time>2018-09-15T11:10:56Z</time>
      </trkpt>
      <trkpt lat="40.252350" lon="-4.888133">
        <ele>1025.0</ele>
        <time>2018-09-15T11:10:57Z</time>
      </trkpt>
      <trkpt lat="40.252350" lon="-4.888117">
        <ele>1024.0</ele>
        <time>2018-09-15T11:10:58Z</time>
      </trkpt>
      <trkpt lat="40.252350" lon="-4.888117">
        <ele>1024.0</ele>
        <time>2018-09-15T11:10:59Z</time>
      </trkpt>
      <trkpt lat="40.252350" lon="-4.888133">
        <ele>1024.0</ele>
        <time>2018-09-15T11:11:00Z</time>
      </trkpt>
      <trkpt lat="40.252350" lon="-4.888133">
        <ele>1024.0</ele>
        <time>2018-09-15T11:11:01Z</time>
      </trkpt>
      <trkpt lat="40.252350" lon="-4.888117">
        <ele>1024.0</ele>
        <time>2018-09-15T11:11:02Z</time>
      </trkpt>
      <trkpt lat="40.252350" lon="-4.888117">
        <ele>1024.0</ele>
        <time>2018-09-15T11:11:03Z</time>
      </trkpt>
      <trkpt lat="40.252350" lon="-4.888117">
        <ele>1024.0</ele>
        <time>2018-09-15T11:11:04Z</time>
      </trkpt>
      <trkpt lat="40.252350" lon="-4.888117">
        <ele>1024.0</ele>
        <time>2018-09-15T11:11:05Z</time>
      </trkpt>
      <trkpt lat="40.252350" lon="-4.888117">
        <ele>1024.0</ele>
        <time>2018-09-15T11:11:06Z</time>
      </trkpt>
      <trkpt lat="40.252367" lon="-4.888117">
        <ele>1024.0</ele>
        <time>2018-09-15T11:11:07Z</time>
      </trkpt>
      <trkpt lat="40.252367" lon="-4.888100">
        <ele>1024.0</ele>
        <time>2018-09-15T11:11:08Z</time>
      </trkpt>
      <trkpt lat="40.252367" lon="-4.888100">
        <ele>1024.0</ele>
        <time>2018-09-15T11:11:09Z</time>
      </trkpt>
      <trkpt lat="40.252367" lon="-4.888100">
        <ele>1024.0</ele>
        <time>2018-09-15T11:11:10Z</time>
      </trkpt>
      <trkpt lat="40.252367" lon="-4.888083">
        <ele>1024.0</ele>
        <time>2018-09-15T11:11:11Z</time>
      </trkpt>
      <trkpt lat="40.252367" lon="-4.888083">
        <ele>1024.0</ele>
        <time>2018-09-15T11:11:12Z</time>
      </trkpt>
      <trkpt lat="40.252367" lon="-4.888100">
        <ele>1024.0</ele>
        <time>2018-09-15T11:11:13Z</time>
      </trkpt>
      <trkpt lat="40.252367" lon="-4.888100">
        <ele>1024.0</ele>
        <time>2018-09-15T11:11:14Z</time>
      </trkpt>
      <trkpt lat="40.252367" lon="-4.888083">
        <ele>1024.0</ele>
        <time>2018-09-15T11:11:15Z</time>
      </trkpt>
      <trkpt lat="40.252367" lon="-4.888083">
        <ele>1024.0</ele>
        <time>2018-09-15T11:11:16Z</time>
      </trkpt>
      <trkpt lat="40.252367" lon="-4.888100">
        <ele>1024.0</ele>
        <time>2018-09-15T11:11:17Z</time>
      </trkpt>
      <trkpt lat="40.252367" lon="-4.888117">
        <ele>1024.0</ele>
        <time>2018-09-15T11:11:18Z</time>
      </trkpt>
      <trkpt lat="40.252383" lon="-4.888117">
        <ele>1024.0</ele>
        <time>2018-09-15T11:11:19Z</time>
      </trkpt>
      <trkpt lat="40.252383" lon="-4.888133">
        <ele>1024.0</ele>
        <time>2018-09-15T11:11:20Z</time>
      </trkpt>
      <trkpt lat="40.252383" lon="-4.888133">
        <ele>1024.0</ele>
        <time>2018-09-15T11:11:21Z</time>
      </trkpt>
      <trkpt lat="40.252383" lon="-4.888133">
        <ele>1024.0</ele>
        <time>2018-09-15T11:11:22Z</time>
      </trkpt>
      <trkpt lat="40.252383" lon="-4.888133">
        <ele>1024.0</ele>
        <time>2018-09-15T11:11:23Z</time>
      </trkpt>
      <trkpt lat="40.252383" lon="-4.888133">
        <ele>1024.0</ele>
        <time>2018-09-15T11:11:24Z</time>
      </trkpt>
      <trkpt lat="40.252383" lon="-4.888133">
        <ele>1024.0</ele>
        <time>2018-09-15T11:11:25Z</time>
      </trkpt>
      <trkpt lat="40.252383" lon="-4.888133">
        <ele>1024.0</ele>
        <time>2018-09-15T11:11:26Z</time>
      </trkpt>
      <trkpt lat="40.252383" lon="-4.888117">
        <ele>1024.0</ele>
        <time>2018-09-15T11:11:27Z</time>
      </trkpt>
      <trkpt lat="40.252383" lon="-4.888117">
        <ele>1024.0</ele>
        <time>2018-09-15T11:11:28Z</time>
      </trkpt>
      <trkpt lat="40.252383" lon="-4.888117">
        <ele>1024.0</ele>
        <time>2018-09-15T11:11:29Z</time>
      </trkpt>
      <trkpt lat="40.252383" lon="-4.888117">
        <ele>1024.0</ele>
        <time>2018-09-15T11:11:30Z</time>
      </trkpt>
      <trkpt lat="40.252367" lon="-4.888117">
        <ele>1024.0</ele>
        <time>2018-09-15T11:11:31Z</time>
      </trkpt>
      <trkpt lat="40.252367" lon="-4.888133">
        <ele>1024.0</ele>
        <time>2018-09-15T11:11:32Z</time>
      </trkpt>
      <trkpt lat="40.252367" lon="-4.888133">
        <ele>1024.0</ele>
        <time>2018-09-15T11:11:33Z</time>
      </trkpt>
      <trkpt lat="40.252367" lon="-4.888133">
        <ele>1023.0</ele>
        <time>2018-09-15T11:11:34Z</time>
      </trkpt>
      <trkpt lat="40.252367" lon="-4.888133">
        <ele>1023.0</ele>
        <time>2018-09-15T11:11:35Z</time>
      </trkpt>
      <trkpt lat="40.252367" lon="-4.888133">
        <ele>1023.0</ele>
        <time>2018-09-15T11:11:36Z</time>
      </trkpt>
      <trkpt lat="40.252367" lon="-4.888133">
        <ele>1023.0</ele>
        <time>2018-09-15T11:11:37Z</time>
      </trkpt>
      <trkpt lat="40.252367" lon="-4.888133">
        <ele>1023.0</ele>
        <time>2018-09-15T11:11:38Z</time>
      </trkpt>
      <trkpt lat="40.252367" lon="-4.888150">
        <ele>1023.0</ele>
        <time>2018-09-15T11:11:39Z</time>
      </trkpt>
      <trkpt lat="40.252367" lon="-4.888150">
        <ele>1023.0</ele>
        <time>2018-09-15T11:11:40Z</time>
      </trkpt>
      <trkpt lat="40.252350" lon="-4.888133">
        <ele>1023.0</ele>
        <time>2018-09-15T11:11:41Z</time>
      </trkpt>
      <trkpt lat="40.252350" lon="-4.888117">
        <ele>1023.0</ele>
        <time>2018-09-15T11:11:42Z</time>
      </trkpt>
      <trkpt lat="40.252350" lon="-4.888117">
        <ele>1023.0</ele>
        <time>2018-09-15T11:11:43Z</time>
      </trkpt>
      <trkpt lat="40.252367" lon="-4.888133">
        <ele>1023.0</ele>
        <time>2018-09-15T11:11:44Z</time>
      </trkpt>
      <trkpt lat="40.252350" lon="-4.888150">
        <ele>1023.0</ele>
        <time>2018-09-15T11:11:45Z</time>
      </trkpt>
      <trkpt lat="40.252350" lon="-4.888150">
        <ele>1023.0</ele>
        <time>2018-09-15T11:11:46Z</time>
      </trkpt>
      <trkpt lat="40.252350" lon="-4.888167">
        <ele>1023.0</ele>
        <time>2018-09-15T11:11:47Z</time>
      </trkpt>
      <trkpt lat="40.252350" lon="-4.888167">
        <ele>1023.0</ele>
        <time>2018-09-15T11:11:48Z</time>
      </trkpt>
      <trkpt lat="40.252367" lon="-4.888167">
        <ele>1023.0</ele>
        <time>2018-09-15T11:11:49Z</time>
      </trkpt>
      <trkpt lat="40.252367" lon="-4.888167">
        <ele>1023.0</ele>
        <time>2018-09-15T11:11:50Z</time>
      </trkpt>
      <trkpt lat="40.252367" lon="-4.888167">
        <ele>1023.0</ele>
        <time>2018-09-15T11:11:51Z</time>
      </trkpt>
      <trkpt lat="40.252383" lon="-4.888167">
        <ele>1023.0</ele>
        <time>2018-09-15T11:11:52Z</time>
      </trkpt>
      <trkpt lat="40.252383" lon="-4.888150">
        <ele>1023.0</ele>
        <time>2018-09-15T11:11:53Z</time>
      </trkpt>
      <trkpt lat="40.252383" lon="-4.888150">
        <ele>1023.0</ele>
        <time>2018-09-15T11:11:54Z</time>
      </trkpt>
      <trkpt lat="40.252383" lon="-4.888150">
        <ele>1023.0</ele>
        <time>2018-09-15T11:11:55Z</time>
      </trkpt>
      <trkpt lat="40.252383" lon="-4.888150">
        <ele>1023.0</ele>
        <time>2018-09-15T11:11:56Z</time>
      </trkpt>
      <trkpt lat="40.252383" lon="-4.888150">
        <ele>1023.0</ele>
        <time>2018-09-15T11:11:57Z</time>
      </trkpt>
      <trkpt lat="40.252383" lon="-4.888167">
        <ele>1023.0</ele>
        <time>2018-09-15T11:11:58Z</time>
      </trkpt>
      <trkpt lat="40.252367" lon="-4.888167">
        <ele>1023.0</ele>
        <time>2018-09-15T11:11:59Z</time>
      </trkpt>
      <trkpt lat="40.252367" lon="-4.888167">
        <ele>1023.0</ele>
        <time>2018-09-15T11:12:00Z</time>
      </trkpt>
      <trkpt lat="40.252367" lon="-4.888167">
        <ele>1023.0</ele>
        <time>2018-09-15T11:12:01Z</time>
      </trkpt>
      <trkpt lat="40.252367" lon="-4.888167">
        <ele>1023.0</ele>
        <time>2018-09-15T11:12:02Z</time>
      </trkpt>
      <trkpt lat="40.252367" lon="-4.888167">
        <ele>1023.0</ele>
        <time>2018-09-15T11:12:03Z</time>
      </trkpt>
      <trkpt lat="40.252350" lon="-4.888167">
        <ele>1024.0</ele>
        <time>2018-09-15T11:12:04Z</time>
      </trkpt>
      <trkpt lat="40.252350" lon="-4.888167">
        <ele>1023.0</ele>
        <time>2018-09-15T11:12:05Z</time>
      </trkpt>
      <trkpt lat="40.252350" lon="-4.888167">
        <ele>1023.0</ele>
        <time>2018-09-15T11:12:06Z</time>
      </trkpt>
      <trkpt lat="40.252350" lon="-4.888167">
        <ele>1023.0</ele>
        <time>2018-09-15T11:12:07Z</time>
      </trkpt>
      <trkpt lat="40.252350" lon="-4.888167">
        <ele>1023.0</ele>
        <time>2018-09-15T11:12:08Z</time>
      </trkpt>
      <trkpt lat="40.252350" lon="-4.888167">
        <ele>1023.0</ele>
        <time>2018-09-15T11:12:09Z</time>
      </trkpt>
      <trkpt lat="40.252367" lon="-4.888167">
        <ele>1024.0</ele>
        <time>2018-09-15T11:12:10Z</time>
      </trkpt>
      <trkpt lat="40.252367" lon="-4.888167">
        <ele>1023.0</ele>
        <time>2018-09-15T11:12:11Z</time>
      </trkpt>
      <trkpt lat="40.252367" lon="-4.888167">
        <ele>1024.0</ele>
        <time>2018-09-15T11:12:12Z</time>
      </trkpt>
      <trkpt lat="40.252367" lon="-4.888167">
        <ele>1024.0</ele>
        <time>2018-09-15T11:12:13Z</time>
      </trkpt>
      <trkpt lat="40.252367" lon="-4.888167">
        <ele>1024.0</ele>
        <time>2018-09-15T11:12:14Z</time>
      </trkpt>
      <trkpt lat="40.252367" lon="-4.888167">
        <ele>1024.0</ele>
        <time>2018-09-15T11:12:15Z</time>
      </trkpt>
      <trkpt lat="40.252367" lon="-4.888167">
        <ele>1025.0</ele>
        <time>2018-09-15T11:12:16Z</time>
      </trkpt>
      <trkpt lat="40.252367" lon="-4.888167">
        <ele>1025.0</ele>
        <time>2018-09-15T11:12:17Z</time>
      </trkpt>
      <trkpt lat="40.252367" lon="-4.888167">
        <ele>1025.0</ele>
        <time>2018-09-15T11:12:18Z</time>
      </trkpt>
      <trkpt lat="40.252367" lon="-4.888167">
        <ele>1025.0</ele>
        <time>2018-09-15T11:12:19Z</time>
      </trkpt>
      <trkpt lat="40.252367" lon="-4.888167">
        <ele>1025.0</ele>
        <time>2018-09-15T11:12:20Z</time>
      </trkpt>
      <trkpt lat="40.252367" lon="-4.888183">
        <ele>1026.0</ele>
        <time>2018-09-15T11:12:21Z</time>
      </trkpt>
      <trkpt lat="40.252367" lon="-4.888183">
        <ele>1026.0</ele>
        <time>2018-09-15T11:12:22Z</time>
      </trkpt>
      <trkpt lat="40.252367" lon="-4.888183">
        <ele>1027.0</ele>
        <time>2018-09-15T11:12:23Z</time>
      </trkpt>
      <trkpt lat="40.252367" lon="-4.888183">
        <ele>1027.0</ele>
        <time>2018-09-15T11:12:24Z</time>
      </trkpt>
      <trkpt lat="40.252367" lon="-4.888183">
        <ele>1027.0</ele>
        <time>2018-09-15T11:12:25Z</time>
      </trkpt>
      <trkpt lat="40.252367" lon="-4.888183">
        <ele>1027.0</ele>
        <time>2018-09-15T11:12:26Z</time>
      </trkpt>
      <trkpt lat="40.252350" lon="-4.888183">
        <ele>1028.0</ele>
        <time>2018-09-15T11:12:27Z</time>
      </trkpt>
      <trkpt lat="40.252367" lon="-4.888183">
        <ele>1028.0</ele>
        <time>2018-09-15T11:12:28Z</time>
      </trkpt>
      <trkpt lat="40.252367" lon="-4.888167">
        <ele>1027.0</ele>
        <time>2018-09-15T11:12:29Z</time>
      </trkpt>
      <trkpt lat="40.252367" lon="-4.888183">
        <ele>1026.0</ele>
        <time>2018-09-15T11:12:30Z</time>
      </trkpt>
      <trkpt lat="40.252367" lon="-4.888167">
        <ele>1027.0</ele>
        <time>2018-09-15T11:12:31Z</time>
      </trkpt>
      <trkpt lat="40.252367" lon="-4.888167">
        <ele>1027.0</ele>
        <time>2018-09-15T11:12:32Z</time>
      </trkpt>
      <trkpt lat="40.252367" lon="-4.888167">
        <ele>1026.0</ele>
        <time>2018-09-15T11:12:33Z</time>
      </trkpt>
      <trkpt lat="40.252367" lon="-4.888167">
        <ele>1026.0</ele>
        <time>2018-09-15T11:12:34Z</time>
      </trkpt>
      <trkpt lat="40.252367" lon="-4.888167">
        <ele>1026.0</ele>
        <time>2018-09-15T11:12:35Z</time>
      </trkpt>
      <trkpt lat="40.252367" lon="-4.888167">
        <ele>1026.0</ele>
        <time>2018-09-15T11:12:36Z</time>
      </trkpt>
      <trkpt lat="40.252367" lon="-4.888167">
        <ele>1025.0</ele>
        <time>2018-09-15T11:12:37Z</time>
      </trkpt>
      <trkpt lat="40.252367" lon="-4.888167">
        <ele>1025.0</ele>
        <time>2018-09-15T11:12:38Z</time>
      </trkpt>
      <trkpt lat="40.252367" lon="-4.888167">
        <ele>1025.0</ele>
        <time>2018-09-15T11:12:39Z</time>
      </trkpt>
      <trkpt lat="40.252367" lon="-4.888167">
        <ele>1025.0</ele>
        <time>2018-09-15T11:12:40Z</time>
      </trkpt>
      <trkpt lat="40.252367" lon="-4.888167">
        <ele>1025.0</ele>
        <time>2018-09-15T11:12:41Z</time>
      </trkpt>
      <trkpt lat="40.252367" lon="-4.888167">
        <ele>1024.0</ele>
        <time>2018-09-15T11:12:42Z</time>
      </trkpt>
      <trkpt lat="40.252367" lon="-4.888167">
        <ele>1025.0</ele>
        <time>2018-09-15T11:12:43Z</time>
      </trkpt>
      <trkpt lat="40.252367" lon="-4.888167">
        <ele>1025.0</ele>
        <time>2018-09-15T11:12:44Z</time>
      </trkpt>
      <trkpt lat="40.252383" lon="-4.888167">
        <ele>1025.0</ele>
        <time>2018-09-15T11:12:45Z</time>
      </trkpt>
      <trkpt lat="40.252383" lon="-4.888167">
        <ele>1024.0</ele>
        <time>2018-09-15T11:12:46Z</time>
      </trkpt>
      <trkpt lat="40.252383" lon="-4.888167">
        <ele>1024.0</ele>
        <time>2018-09-15T11:12:47Z</time>
      </trkpt>
      <trkpt lat="40.252383" lon="-4.888167">
        <ele>1024.0</ele>
        <time>2018-09-15T11:12:48Z</time>
      </trkpt>
      <trkpt lat="40.252383" lon="-4.888167">
        <ele>1024.0</ele>
        <time>2018-09-15T11:12:49Z</time>
      </trkpt>
      <trkpt lat="40.252383" lon="-4.888167">
        <ele>1023.0</ele>
        <time>2018-09-15T11:12:50Z</time>
      </trkpt>
      <trkpt lat="40.252383" lon="-4.888167">
        <ele>1023.0</ele>
        <time>2018-09-15T11:12:51Z</time>
      </trkpt>
      <trkpt lat="40.252383" lon="-4.888167">
        <ele>1023.0</ele>
        <time>2018-09-15T11:12:52Z</time>
      </trkpt>
      <trkpt lat="40.252383" lon="-4.888167">
        <ele>1023.0</ele>
        <time>2018-09-15T11:12:53Z</time>
      </trkpt>
      <trkpt lat="40.252383" lon="-4.888167">
        <ele>1023.0</ele>
        <time>2018-09-15T11:12:54Z</time>
      </trkpt>
      <trkpt lat="40.252383" lon="-4.888167">
        <ele>1023.0</ele>
        <time>2018-09-15T11:12:55Z</time>
      </trkpt>
      <trkpt lat="40.252383" lon="-4.888167">
        <ele>1023.0</ele>
        <time>2018-09-15T11:12:56Z</time>
      </trkpt>
      <trkpt lat="40.252383" lon="-4.888167">
        <ele>1023.0</ele>
        <time>2018-09-15T11:12:57Z</time>
      </trkpt>
      <trkpt lat="40.252383" lon="-4.888167">
        <ele>1023.0</ele>
        <time>2018-09-15T11:12:58Z</time>
      </trkpt>
      <trkpt lat="40.252383" lon="-4.888167">
        <ele>1023.0</ele>
        <time>2018-09-15T11:12:59Z</time>
      </trkpt>
      <trkpt lat="40.252383" lon="-4.888167">
        <ele>1023.0</ele>
        <time>2018-09-15T11:13:00Z</time>
      </trkpt>
      <trkpt lat="40.252383" lon="-4.888167">
        <ele>1023.0</ele>
        <time>2018-09-15T11:13:01Z</time>
      </trkpt>
      <trkpt lat="40.252383" lon="-4.888167">
        <ele>1023.0</ele>
        <time>2018-09-15T11:13:02Z</time>
      </trkpt>
      <trkpt lat="40.252383" lon="-4.888167">
        <ele>1023.0</ele>
        <time>2018-09-15T11:13:03Z</time>
      </trkpt>
      <trkpt lat="40.252383" lon="-4.888167">
        <ele>1023.0</ele>
        <time>2018-09-15T11:13:04Z</time>
      </trkpt>
      <trkpt lat="40.252383" lon="-4.888167">
        <ele>1023.0</ele>
        <time>2018-09-15T11:13:05Z</time>
      </trkpt>
      <trkpt lat="40.252383" lon="-4.888167">
        <ele>1023.0</ele>
        <time>2018-09-15T11:13:06Z</time>
      </trkpt>
      <trkpt lat="40.252383" lon="-4.888167">
        <ele>1023.0</ele>
        <time>2018-09-15T11:13:07Z</time>
      </trkpt>
      <trkpt lat="40.252383" lon="-4.888167">
        <ele>1023.0</ele>
        <time>2018-09-15T11:13:08Z</time>
      </trkpt>
      <trkpt lat="40.252383" lon="-4.888167">
        <ele>1024.0</ele>
        <time>2018-09-15T11:13:09Z</time>
      </trkpt>
      <trkpt lat="40.252383" lon="-4.888167">
        <ele>1024.0</ele>
        <time>2018-09-15T11:13:10Z</time>
      </trkpt>
      <trkpt lat="40.252383" lon="-4.888167">
        <ele>1024.0</ele>
        <time>2018-09-15T11:13:11Z</time>
      </trkpt>
      <trkpt lat="40.252383" lon="-4.888167">
        <ele>1024.0</ele>
        <time>2018-09-15T11:13:12Z</time>
      </trkpt>
      <trkpt lat="40.252383" lon="-4.888167">
        <ele>1024.0</ele>
        <time>2018-09-15T11:13:13Z</time>
      </trkpt>
      <trkpt lat="40.252383" lon="-4.888167">
        <ele>1024.0</ele>
        <time>2018-09-15T11:13:14Z</time>
      </trkpt>
      <trkpt lat="40.252383" lon="-4.888167">
        <ele>1024.0</ele>
        <time>2018-09-15T11:13:15Z</time>
      </trkpt>
      <trkpt lat="40.252383" lon="-4.888167">
        <ele>1024.0</ele>
        <time>2018-09-15T11:13:16Z</time>
      </trkpt>
      <trkpt lat="40.252383" lon="-4.888167">
        <ele>1023.0</ele>
        <time>2018-09-15T11:13:17Z</time>
      </trkpt>
      <trkpt lat="40.252383" lon="-4.888167">
        <ele>1023.0</ele>
        <time>2018-09-15T11:13:18Z</time>
      </trkpt>
      <trkpt lat="40.252383" lon="-4.888167">
        <ele>1023.0</ele>
        <time>2018-09-15T11:13:19Z</time>
      </trkpt>
      <trkpt lat="40.252383" lon="-4.888167">
        <ele>1023.0</ele>
        <time>2018-09-15T11:13:20Z</time>
      </trkpt>
      <trkpt lat="40.252383" lon="-4.888167">
        <ele>1023.0</ele>
        <time>2018-09-15T11:13:21Z</time>
      </trkpt>
      <trkpt lat="40.252383" lon="-4.888167">
        <ele>1023.0</ele>
        <time>2018-09-15T11:13:22Z</time>
      </trkpt>
      <trkpt lat="40.252383" lon="-4.888167">
        <ele>1023.0</ele>
        <time>2018-09-15T11:13:23Z</time>
      </trkpt>
      <trkpt lat="40.252383" lon="-4.888167">
        <ele>1023.0</ele>
        <time>2018-09-15T11:13:24Z</time>
      </trkpt>
      <trkpt lat="40.252383" lon="-4.888167">
        <ele>1023.0</ele>
        <time>2018-09-15T11:13:25Z</time>
      </trkpt>
      <trkpt lat="40.252383" lon="-4.888167">
        <ele>1023.0</ele>
        <time>2018-09-15T11:13:26Z</time>
      </trkpt>
      <trkpt lat="40.252383" lon="-4.888167">
        <ele>1023.0</ele>
        <time>2018-09-15T11:13:27Z</time>
      </trkpt>
      <trkpt lat="40.252383" lon="-4.888167">
        <ele>1023.0</ele>
        <time>2018-09-15T11:13:28Z</time>
      </trkpt>
      <trkpt lat="40.252383" lon="-4.888167">
        <ele>1023.0</ele>
        <time>2018-09-15T11:13:29Z</time>
      </trkpt>
      <trkpt lat="40.252383" lon="-4.888167">
        <ele>1023.0</ele>
        <time>2018-09-15T11:13:30Z</time>
      </trkpt>
      <trkpt lat="40.252383" lon="-4.888167">
        <ele>1023.0</ele>
        <time>2018-09-15T11:13:31Z</time>
      </trkpt>
      <trkpt lat="40.252383" lon="-4.888167">
        <ele>1023.0</ele>
        <time>2018-09-15T11:13:32Z</time>
      </trkpt>
      <trkpt lat="40.252367" lon="-4.888167">
        <ele>1024.0</ele>
        <time>2018-09-15T11:13:33Z</time>
      </trkpt>
      <trkpt lat="40.252367" lon="-4.888167">
        <ele>1024.0</ele>
        <time>2018-09-15T11:13:34Z</time>
      </trkpt>
      <trkpt lat="40.252367" lon="-4.888167">
        <ele>1024.0</ele>
        <time>2018-09-15T11:13:35Z</time>
      </trkpt>
      <trkpt lat="40.252367" lon="-4.888167">
        <ele>1024.0</ele>
        <time>2018-09-15T11:13:36Z</time>
      </trkpt>
      <trkpt lat="40.252367" lon="-4.888167">
        <ele>1025.0</ele>
        <time>2018-09-15T11:13:37Z</time>
      </trkpt>
      <trkpt lat="40.252367" lon="-4.888167">
        <ele>1025.0</ele>
        <time>2018-09-15T11:13:38Z</time>
      </trkpt>
      <trkpt lat="40.252367" lon="-4.888167">
        <ele>1024.0</ele>
        <time>2018-09-15T11:13:39Z</time>
      </trkpt>
      <trkpt lat="40.252367" lon="-4.888167">
        <ele>1024.0</ele>
        <time>2018-09-15T11:13:40Z</time>
      </trkpt>
      <trkpt lat="40.252367" lon="-4.888167">
        <ele>1024.0</ele>
        <time>2018-09-15T11:13:41Z</time>
      </trkpt>
      <trkpt lat="40.252367" lon="-4.888167">
        <ele>1025.0</ele>
        <time>2018-09-15T11:13:42Z</time>
      </trkpt>
      <trkpt lat="40.252367" lon="-4.888167">
        <ele>1025.0</ele>
        <time>2018-09-15T11:13:43Z</time>
      </trkpt>
      <trkpt lat="40.252367" lon="-4.888167">
        <ele>1025.0</ele>
        <time>2018-09-15T11:13:44Z</time>
      </trkpt>
      <trkpt lat="40.252367" lon="-4.888167">
        <ele>1025.0</ele>
        <time>2018-09-15T11:13:45Z</time>
      </trkpt>
      <trkpt lat="40.252367" lon="-4.888167">
        <ele>1025.0</ele>
        <time>2018-09-15T11:13:46Z</time>
      </trkpt>
      <trkpt lat="40.252367" lon="-4.888167">
        <ele>1024.0</ele>
        <time>2018-09-15T11:13:47Z</time>
      </trkpt>
      <trkpt lat="40.252367" lon="-4.888167">
        <ele>1024.0</ele>
        <time>2018-09-15T11:13:48Z</time>
      </trkpt>
      <trkpt lat="40.252367" lon="-4.888167">
        <ele>1024.0</ele>
        <time>2018-09-15T11:13:49Z</time>
      </trkpt>
      <trkpt lat="40.252367" lon="-4.888167">
        <ele>1024.0</ele>
        <time>2018-09-15T11:13:50Z</time>
      </trkpt>
      <trkpt lat="40.252367" lon="-4.888167">
        <ele>1024.0</ele>
        <time>2018-09-15T11:13:51Z</time>
      </trkpt>
      <trkpt lat="40.252367" lon="-4.888167">
        <ele>1024.0</ele>
        <time>2018-09-15T11:13:52Z</time>
      </trkpt>
      <trkpt lat="40.252367" lon="-4.888167">
        <ele>1024.0</ele>
        <time>2018-09-15T11:13:53Z</time>
      </trkpt>
      <trkpt lat="40.252367" lon="-4.888167">
        <ele>1024.0</ele>
        <time>2018-09-15T11:13:54Z</time>
      </trkpt>
      <trkpt lat="40.252367" lon="-4.888167">
        <ele>1024.0</ele>
        <time>2018-09-15T11:13:55Z</time>
      </trkpt>
      <trkpt lat="40.252367" lon="-4.888167">
        <ele>1024.0</ele>
        <time>2018-09-15T11:13:56Z</time>
      </trkpt>
      <trkpt lat="40.252367" lon="-4.888167">
        <ele>1024.0</ele>
        <time>2018-09-15T11:13:57Z</time>
      </trkpt>
      <trkpt lat="40.252367" lon="-4.888167">
        <ele>1024.0</ele>
        <time>2018-09-15T11:13:58Z</time>
      </trkpt>
      <trkpt lat="40.252367" lon="-4.888167">
        <ele>1024.0</ele>
        <time>2018-09-15T11:13:59Z</time>
      </trkpt>
      <trkpt lat="40.252367" lon="-4.888167">
        <ele>1024.0</ele>
        <time>2018-09-15T11:14:00Z</time>
      </trkpt>
      <trkpt lat="40.252367" lon="-4.888167">
        <ele>1024.0</ele>
        <time>2018-09-15T11:14:01Z</time>
      </trkpt>
      <trkpt lat="40.252367" lon="-4.888167">
        <ele>1024.0</ele>
        <time>2018-09-15T11:14:02Z</time>
      </trkpt>
      <trkpt lat="40.252367" lon="-4.888167">
        <ele>1024.0</ele>
        <time>2018-09-15T11:14:03Z</time>
      </trkpt>
      <trkpt lat="40.252367" lon="-4.888167">
        <ele>1024.0</ele>
        <time>2018-09-15T11:14:04Z</time>
      </trkpt>
      <trkpt lat="40.252367" lon="-4.888167">
        <ele>1024.0</ele>
        <time>2018-09-15T11:14:05Z</time>
      </trkpt>
      <trkpt lat="40.252367" lon="-4.888167">
        <ele>1024.0</ele>
        <time>2018-09-15T11:14:06Z</time>
      </trkpt>
      <trkpt lat="40.252367" lon="-4.888167">
        <ele>1023.0</ele>
        <time>2018-09-15T11:14:07Z</time>
      </trkpt>
      <trkpt lat="40.252367" lon="-4.888167">
        <ele>1023.0</ele>
        <time>2018-09-15T11:14:08Z</time>
      </trkpt>
      <trkpt lat="40.252367" lon="-4.888167">
        <ele>1023.0</ele>
        <time>2018-09-15T11:14:09Z</time>
      </trkpt>
      <trkpt lat="40.252367" lon="-4.888167">
        <ele>1023.0</ele>
        <time>2018-09-15T11:14:10Z</time>
      </trkpt>
      <trkpt lat="40.252367" lon="-4.888167">
        <ele>1023.0</ele>
        <time>2018-09-15T11:14:11Z</time>
      </trkpt>
      <trkpt lat="40.252383" lon="-4.888167">
        <ele>1024.0</ele>
        <time>2018-09-15T11:14:12Z</time>
      </trkpt>
      <trkpt lat="40.252383" lon="-4.888167">
        <ele>1024.0</ele>
        <time>2018-09-15T11:14:13Z</time>
      </trkpt>
      <trkpt lat="40.252383" lon="-4.888167">
        <ele>1024.0</ele>
        <time>2018-09-15T11:14:14Z</time>
      </trkpt>
      <trkpt lat="40.252383" lon="-4.888167">
        <ele>1024.0</ele>
        <time>2018-09-15T11:14:15Z</time>
      </trkpt>
      <trkpt lat="40.252383" lon="-4.888167">
        <ele>1024.0</ele>
        <time>2018-09-15T11:14:16Z</time>
      </trkpt>
      <trkpt lat="40.252367" lon="-4.888167">
        <ele>1023.0</ele>
        <time>2018-09-15T11:14:17Z</time>
      </trkpt>
      <trkpt lat="40.252367" lon="-4.888167">
        <ele>1023.0</ele>
        <time>2018-09-15T11:14:18Z</time>
      </trkpt>
      <trkpt lat="40.252367" lon="-4.888167">
        <ele>1023.0</ele>
        <time>2018-09-15T11:14:19Z</time>
      </trkpt>
      <trkpt lat="40.252367" lon="-4.888167">
        <ele>1023.0</ele>
        <time>2018-09-15T11:14:20Z</time>
      </trkpt>
      <trkpt lat="40.252367" lon="-4.888167">
        <ele>1022.0</ele>
        <time>2018-09-15T11:14:21Z</time>
      </trkpt>
      <trkpt lat="40.252367" lon="-4.888167">
        <ele>1022.0</ele>
        <time>2018-09-15T11:14:22Z</time>
      </trkpt>
      <trkpt lat="40.252367" lon="-4.888167">
        <ele>1022.0</ele>
        <time>2018-09-15T11:14:23Z</time>
      </trkpt>
      <trkpt lat="40.252367" lon="-4.888167">
        <ele>1022.0</ele>
        <time>2018-09-15T11:14:24Z</time>
      </trkpt>
      <trkpt lat="40.252367" lon="-4.888167">
        <ele>1022.0</ele>
        <time>2018-09-15T11:14:25Z</time>
      </trkpt>
      <trkpt lat="40.252367" lon="-4.888167">
        <ele>1022.0</ele>
        <time>2018-09-15T11:14:26Z</time>
      </trkpt>
      <trkpt lat="40.252367" lon="-4.888167">
        <ele>1022.0</ele>
        <time>2018-09-15T11:14:27Z</time>
      </trkpt>
      <trkpt lat="40.252367" lon="-4.888167">
        <ele>1022.0</ele>
        <time>2018-09-15T11:14:28Z</time>
      </trkpt>
      <trkpt lat="40.252367" lon="-4.888167">
        <ele>1022.0</ele>
        <time>2018-09-15T11:14:29Z</time>
      </trkpt>
      <trkpt lat="40.252367" lon="-4.888167">
        <ele>1022.0</ele>
        <time>2018-09-15T11:14:30Z</time>
      </trkpt>
      <trkpt lat="40.252383" lon="-4.888167">
        <ele>1022.0</ele>
        <time>2018-09-15T11:14:31Z</time>
      </trkpt>
      <trkpt lat="40.252383" lon="-4.888167">
        <ele>1022.0</ele>
        <time>2018-09-15T11:14:32Z</time>
      </trkpt>
      <trkpt lat="40.252383" lon="-4.888167">
        <ele>1022.0</ele>
        <time>2018-09-15T11:14:33Z</time>
      </trkpt>
      <trkpt lat="40.252383" lon="-4.888167">
        <ele>1021.0</ele>
        <time>2018-09-15T11:14:34Z</time>
      </trkpt>
      <trkpt lat="40.252383" lon="-4.888167">
        <ele>1021.0</ele>
        <time>2018-09-15T11:14:35Z</time>
      </trkpt>
      <trkpt lat="40.252383" lon="-4.888167">
        <ele>1021.0</ele>
        <time>2018-09-15T11:14:36Z</time>
      </trkpt>
      <trkpt lat="40.252383" lon="-4.888167">
        <ele>1021.0</ele>
        <time>2018-09-15T11:14:37Z</time>
      </trkpt>
      <trkpt lat="40.252383" lon="-4.888167">
        <ele>1021.0</ele>
        <time>2018-09-15T11:14:38Z</time>
      </trkpt>
      <trkpt lat="40.252383" lon="-4.888167">
        <ele>1021.0</ele>
        <time>2018-09-15T11:14:39Z</time>
      </trkpt>
      <trkpt lat="40.252383" lon="-4.888167">
        <ele>1021.0</ele>
        <time>2018-09-15T11:14:40Z</time>
      </trkpt>
      <trkpt lat="40.252383" lon="-4.888167">
        <ele>1021.0</ele>
        <time>2018-09-15T11:14:41Z</time>
      </trkpt>
      <trkpt lat="40.252367" lon="-4.888167">
        <ele>1021.0</ele>
        <time>2018-09-15T11:14:42Z</time>
      </trkpt>
      <trkpt lat="40.252367" lon="-4.888167">
        <ele>1021.0</ele>
        <time>2018-09-15T11:14:43Z</time>
      </trkpt>
      <trkpt lat="40.252367" lon="-4.888167">
        <ele>1021.0</ele>
        <time>2018-09-15T11:14:44Z</time>
      </trkpt>
      <trkpt lat="40.252367" lon="-4.888167">
        <ele>1021.0</ele>
        <time>2018-09-15T11:14:45Z</time>
      </trkpt>
      <trkpt lat="40.252367" lon="-4.888167">
        <ele>1022.0</ele>
        <time>2018-09-15T11:14:46Z</time>
      </trkpt>
      <trkpt lat="40.252367" lon="-4.888167">
        <ele>1022.0</ele>
        <time>2018-09-15T11:14:47Z</time>
      </trkpt>
      <trkpt lat="40.252383" lon="-4.888167">
        <ele>1022.0</ele>
        <time>2018-09-15T11:14:48Z</time>
      </trkpt>
      <trkpt lat="40.252383" lon="-4.888167">
        <ele>1022.0</ele>
        <time>2018-09-15T11:14:49Z</time>
      </trkpt>
      <trkpt lat="40.252383" lon="-4.888167">
        <ele>1022.0</ele>
        <time>2018-09-15T11:14:50Z</time>
      </trkpt>
      <trkpt lat="40.252383" lon="-4.888167">
        <ele>1022.0</ele>
        <time>2018-09-15T11:14:51Z</time>
      </trkpt>
      <trkpt lat="40.252383" lon="-4.888167">
        <ele>1022.0</ele>
        <time>2018-09-15T11:14:52Z</time>
      </trkpt>
      <trkpt lat="40.252383" lon="-4.888167">
        <ele>1022.0</ele>
        <time>2018-09-15T11:14:53Z</time>
      </trkpt>
      <trkpt lat="40.252383" lon="-4.888167">
        <ele>1022.0</ele>
        <time>2018-09-15T11:14:54Z</time>
      </trkpt>
      <trkpt lat="40.252383" lon="-4.888167">
        <ele>1022.0</ele>
        <time>2018-09-15T11:14:55Z</time>
      </trkpt>
      <trkpt lat="40.252383" lon="-4.888167">
        <ele>1022.0</ele>
        <time>2018-09-15T11:14:56Z</time>
      </trkpt>
      <trkpt lat="40.252383" lon="-4.888167">
        <ele>1022.0</ele>
        <time>2018-09-15T11:14:57Z</time>
      </trkpt>
      <trkpt lat="40.252383" lon="-4.888167">
        <ele>1022.0</ele>
        <time>2018-09-15T11:14:58Z</time>
      </trkpt>
      <trkpt lat="40.252367" lon="-4.888167">
        <ele>1022.0</ele>
        <time>2018-09-15T11:14:59Z</time>
      </trkpt>
      <trkpt lat="40.252367" lon="-4.888167">
        <ele>1022.0</ele>
        <time>2018-09-15T11:15:00Z</time>
      </trkpt>
      <trkpt lat="40.252383" lon="-4.888167">
        <ele>1022.0</ele>
        <time>2018-09-15T11:15:01Z</time>
      </trkpt>
      <trkpt lat="40.252383" lon="-4.888167">
        <ele>1022.0</ele>
        <time>2018-09-15T11:15:02Z</time>
      </trkpt>
      <trkpt lat="40.252383" lon="-4.888167">
        <ele>1022.0</ele>
        <time>2018-09-15T11:15:03Z</time>
      </trkpt>
      <trkpt lat="40.252383" lon="-4.888167">
        <ele>1022.0</ele>
        <time>2018-09-15T11:15:04Z</time>
      </trkpt>
      <trkpt lat="40.252383" lon="-4.888167">
        <ele>1022.0</ele>
        <time>2018-09-15T11:15:05Z</time>
      </trkpt>
      <trkpt lat="40.252383" lon="-4.888167">
        <ele>1022.0</ele>
        <time>2018-09-15T11:15:06Z</time>
      </trkpt>
      <trkpt lat="40.252383" lon="-4.888167">
        <ele>1023.0</ele>
        <time>2018-09-15T11:15:07Z</time>
      </trkpt>
      <trkpt lat="40.252383" lon="-4.888167">
        <ele>1022.0</ele>
        <time>2018-09-15T11:15:08Z</time>
      </trkpt>
      <trkpt lat="40.252383" lon="-4.888167">
        <ele>1022.0</ele>
        <time>2018-09-15T11:15:09Z</time>
      </trkpt>
      <trkpt lat="40.252383" lon="-4.888167">
        <ele>1022.0</ele>
        <time>2018-09-15T11:15:10Z</time>
      </trkpt>
      <trkpt lat="40.252383" lon="-4.888167">
        <ele>1022.0</ele>
        <time>2018-09-15T11:15:11Z</time>
      </trkpt>
      <trkpt lat="40.252383" lon="-4.888167">
        <ele>1022.0</ele>
        <time>2018-09-15T11:15:12Z</time>
      </trkpt>
      <trkpt lat="40.252383" lon="-4.888167">
        <ele>1022.0</ele>
        <time>2018-09-15T11:15:13Z</time>
      </trkpt>
      <trkpt lat="40.252383" lon="-4.888183">
        <ele>1022.0</ele>
        <time>2018-09-15T11:15:14Z</time>
      </trkpt>
      <trkpt lat="40.252383" lon="-4.888183">
        <ele>1022.0</ele>
        <time>2018-09-15T11:15:15Z</time>
      </trkpt>
      <trkpt lat="40.252383" lon="-4.888167">
        <ele>1021.0</ele>
        <time>2018-09-15T11:15:16Z</time>
      </trkpt>
      <trkpt lat="40.252383" lon="-4.888167">
        <ele>1022.0</ele>
        <time>2018-09-15T11:15:17Z</time>
      </trkpt>
      <trkpt lat="40.252383" lon="-4.888167">
        <ele>1022.0</ele>
        <time>2018-09-15T11:15:18Z</time>
      </trkpt>
      <trkpt lat="40.252383" lon="-4.888167">
        <ele>1022.0</ele>
        <time>2018-09-15T11:15:19Z</time>
      </trkpt>
      <trkpt lat="40.252383" lon="-4.888167">
        <ele>1022.0</ele>
        <time>2018-09-15T11:15:20Z</time>
      </trkpt>
      <trkpt lat="40.252383" lon="-4.888183">
        <ele>1021.0</ele>
        <time>2018-09-15T11:15:21Z</time>
      </trkpt>
      <trkpt lat="40.252383" lon="-4.888183">
        <ele>1021.0</ele>
        <time>2018-09-15T11:15:22Z</time>
      </trkpt>
      <trkpt lat="40.252383" lon="-4.888183">
        <ele>1021.0</ele>
        <time>2018-09-15T11:15:23Z</time>
      </trkpt>
      <trkpt lat="40.252383" lon="-4.888183">
        <ele>1021.0</ele>
        <time>2018-09-15T11:15:24Z</time>
      </trkpt>
      <trkpt lat="40.252383" lon="-4.888183">
        <ele>1021.0</ele>
        <time>2018-09-15T11:15:25Z</time>
      </trkpt>
      <trkpt lat="40.252383" lon="-4.888183">
        <ele>1021.0</ele>
        <time>2018-09-15T11:15:26Z</time>
      </trkpt>
      <trkpt lat="40.252383" lon="-4.888183">
        <ele>1021.0</ele>
        <time>2018-09-15T11:15:27Z</time>
      </trkpt>
      <trkpt lat="40.252383" lon="-4.888183">
        <ele>1021.0</ele>
        <time>2018-09-15T11:15:28Z</time>
      </trkpt>
      <trkpt lat="40.252383" lon="-4.888183">
        <ele>1021.0</ele>
        <time>2018-09-15T11:15:29Z</time>
      </trkpt>
      <trkpt lat="40.252383" lon="-4.888183">
        <ele>1021.0</ele>
        <time>2018-09-15T11:15:30Z</time>
      </trkpt>
      <trkpt lat="40.252383" lon="-4.888183">
        <ele>1021.0</ele>
        <time>2018-09-15T11:15:31Z</time>
      </trkpt>
      <trkpt lat="40.252383" lon="-4.888183">
        <ele>1021.0</ele>
        <time>2018-09-15T11:15:32Z</time>
      </trkpt>
      <trkpt lat="40.252383" lon="-4.888167">
        <ele>1021.0</ele>
        <time>2018-09-15T11:15:33Z</time>
      </trkpt>
      <trkpt lat="40.252383" lon="-4.888167">
        <ele>1021.0</ele>
        <time>2018-09-15T11:15:34Z</time>
      </trkpt>
      <trkpt lat="40.252383" lon="-4.888167">
        <ele>1021.0</ele>
        <time>2018-09-15T11:15:35Z</time>
      </trkpt>
      <trkpt lat="40.252383" lon="-4.888167">
        <ele>1021.0</ele>
        <time>2018-09-15T11:15:36Z</time>
      </trkpt>
      <trkpt lat="40.252383" lon="-4.888167">
        <ele>1021.0</ele>
        <time>2018-09-15T11:15:37Z</time>
      </trkpt>
      <trkpt lat="40.252383" lon="-4.888167">
        <ele>1021.0</ele>
        <time>2018-09-15T11:15:38Z</time>
      </trkpt>
      <trkpt lat="40.252383" lon="-4.888167">
        <ele>1021.0</ele>
        <time>2018-09-15T11:15:39Z</time>
      </trkpt>
      <trkpt lat="40.252383" lon="-4.888167">
        <ele>1021.0</ele>
        <time>2018-09-15T11:15:40Z</time>
      </trkpt>
      <trkpt lat="40.252383" lon="-4.888167">
        <ele>1021.0</ele>
        <time>2018-09-15T11:15:41Z</time>
      </trkpt>
      <trkpt lat="40.252383" lon="-4.888167">
        <ele>1021.0</ele>
        <time>2018-09-15T11:15:42Z</time>
      </trkpt>
      <trkpt lat="40.252383" lon="-4.888167">
        <ele>1021.0</ele>
        <time>2018-09-15T11:15:43Z</time>
      </trkpt>
      <trkpt lat="40.252383" lon="-4.888167">
        <ele>1021.0</ele>
        <time>2018-09-15T11:15:44Z</time>
      </trkpt>
      <trkpt lat="40.252383" lon="-4.888167">
        <ele>1021.0</ele>
        <time>2018-09-15T11:15:45Z</time>
      </trkpt>
      <trkpt lat="40.252383" lon="-4.888167">
        <ele>1021.0</ele>
        <time>2018-09-15T11:15:46Z</time>
      </trkpt>
      <trkpt lat="40.252383" lon="-4.888167">
        <ele>1021.0</ele>
        <time>2018-09-15T11:15:47Z</time>
      </trkpt>
      <trkpt lat="40.252383" lon="-4.888167">
        <ele>1021.0</ele>
        <time>2018-09-15T11:15:48Z</time>
      </trkpt>
      <trkpt lat="40.252383" lon="-4.888167">
        <ele>1021.0</ele>
        <time>2018-09-15T11:15:49Z</time>
      </trkpt>
      <trkpt lat="40.252383" lon="-4.888183">
        <ele>1021.0</ele>
        <time>2018-09-15T11:15:50Z</time>
      </trkpt>
      <trkpt lat="40.252383" lon="-4.888183">
        <ele>1021.0</ele>
        <time>2018-09-15T11:15:51Z</time>
      </trkpt>
      <trkpt lat="40.252383" lon="-4.888183">
        <ele>1021.0</ele>
        <time>2018-09-15T11:15:52Z</time>
      </trkpt>
      <trkpt lat="40.252383" lon="-4.888183">
        <ele>1021.0</ele>
        <time>2018-09-15T11:15:53Z</time>
      </trkpt>
      <trkpt lat="40.252383" lon="-4.888183">
        <ele>1020.0</ele>
        <time>2018-09-15T11:15:54Z</time>
      </trkpt>
      <trkpt lat="40.252383" lon="-4.888183">
        <ele>1020.0</ele>
        <time>2018-09-15T11:15:55Z</time>
      </trkpt>
      <trkpt lat="40.252383" lon="-4.888183">
        <ele>1020.0</ele>
        <time>2018-09-15T11:15:56Z</time>
      </trkpt>
      <trkpt lat="40.252383" lon="-4.888183">
        <ele>1020.0</ele>
        <time>2018-09-15T11:15:57Z</time>
      </trkpt>
      <trkpt lat="40.252383" lon="-4.888183">
        <ele>1020.0</ele>
        <time>2018-09-15T11:15:58Z</time>
      </trkpt>
      <trkpt lat="40.252383" lon="-4.888183">
        <ele>1020.0</ele>
        <time>2018-09-15T11:15:59Z</time>
      </trkpt>
      <trkpt lat="40.252383" lon="-4.888183">
        <ele>1020.0</ele>
        <time>2018-09-15T11:16:00Z</time>
      </trkpt>
      <trkpt lat="40.252383" lon="-4.888183">
        <ele>1020.0</ele>
        <time>2018-09-15T11:16:01Z</time>
      </trkpt>
      <trkpt lat="40.252383" lon="-4.888183">
        <ele>1020.0</ele>
        <time>2018-09-15T11:16:02Z</time>
      </trkpt>
      <trkpt lat="40.252383" lon="-4.888183">
        <ele>1020.0</ele>
        <time>2018-09-15T11:16:03Z</time>
      </trkpt>
      <trkpt lat="40.252383" lon="-4.888183">
        <ele>1021.0</ele>
        <time>2018-09-15T11:16:04Z</time>
      </trkpt>
      <trkpt lat="40.252383" lon="-4.888183">
        <ele>1021.0</ele>
        <time>2018-09-15T11:16:05Z</time>
      </trkpt>
      <trkpt lat="40.252383" lon="-4.888183">
        <ele>1021.0</ele>
        <time>2018-09-15T11:16:06Z</time>
      </trkpt>
      <trkpt lat="40.252383" lon="-4.888183">
        <ele>1021.0</ele>
        <time>2018-09-15T11:16:07Z</time>
      </trkpt>
      <trkpt lat="40.252383" lon="-4.888183">
        <ele>1021.0</ele>
        <time>2018-09-15T11:16:08Z</time>
      </trkpt>
      <trkpt lat="40.252383" lon="-4.888183">
        <ele>1021.0</ele>
        <time>2018-09-15T11:16:09Z</time>
      </trkpt>
      <trkpt lat="40.252383" lon="-4.888183">
        <ele>1021.0</ele>
        <time>2018-09-15T11:16:10Z</time>
      </trkpt>
      <trkpt lat="40.252383" lon="-4.888183">
        <ele>1021.0</ele>
        <time>2018-09-15T11:16:11Z</time>
      </trkpt>
      <trkpt lat="40.252383" lon="-4.888183">
        <ele>1021.0</ele>
        <time>2018-09-15T11:16:12Z</time>
      </trkpt>
      <trkpt lat="40.252383" lon="-4.888183">
        <ele>1021.0</ele>
        <time>2018-09-15T11:16:13Z</time>
      </trkpt>
      <trkpt lat="40.252383" lon="-4.888183">
        <ele>1021.0</ele>
        <time>2018-09-15T11:16:14Z</time>
      </trkpt>
      <trkpt lat="40.252383" lon="-4.888183">
        <ele>1021.0</ele>
        <time>2018-09-15T11:16:15Z</time>
      </trkpt>
      <trkpt lat="40.252383" lon="-4.888183">
        <ele>1021.0</ele>
        <time>2018-09-15T11:16:16Z</time>
      </trkpt>
      <trkpt lat="40.252383" lon="-4.888183">
        <ele>1021.0</ele>
        <time>2018-09-15T11:16:17Z</time>
      </trkpt>
      <trkpt lat="40.252383" lon="-4.888183">
        <ele>1021.0</ele>
        <time>2018-09-15T11:16:18Z</time>
      </trkpt>
      <trkpt lat="40.252383" lon="-4.888183">
        <ele>1021.0</ele>
        <time>2018-09-15T11:16:19Z</time>
      </trkpt>
      <trkpt lat="40.252383" lon="-4.888183">
        <ele>1021.0</ele>
        <time>2018-09-15T11:16:20Z</time>
      </trkpt>
      <trkpt lat="40.252383" lon="-4.888183">
        <ele>1021.0</ele>
        <time>2018-09-15T11:16:21Z</time>
      </trkpt>
      <trkpt lat="40.252383" lon="-4.888183">
        <ele>1021.0</ele>
        <time>2018-09-15T11:16:22Z</time>
      </trkpt>
      <trkpt lat="40.252383" lon="-4.888183">
        <ele>1021.0</ele>
        <time>2018-09-15T11:16:23Z</time>
      </trkpt>
      <trkpt lat="40.252383" lon="-4.888183">
        <ele>1021.0</ele>
        <time>2018-09-15T11:16:24Z</time>
      </trkpt>
      <trkpt lat="40.252383" lon="-4.888183">
        <ele>1021.0</ele>
        <time>2018-09-15T11:16:25Z</time>
      </trkpt>
      <trkpt lat="40.252383" lon="-4.888183">
        <ele>1021.0</ele>
        <time>2018-09-15T11:16:26Z</time>
      </trkpt>
      <trkpt lat="40.252383" lon="-4.888183">
        <ele>1021.0</ele>
        <time>2018-09-15T11:16:27Z</time>
      </trkpt>
      <trkpt lat="40.252383" lon="-4.888183">
        <ele>1021.0</ele>
        <time>2018-09-15T11:16:28Z</time>
      </trkpt>
      <trkpt lat="40.252383" lon="-4.888183">
        <ele>1021.0</ele>
        <time>2018-09-15T11:16:29Z</time>
      </trkpt>
      <trkpt lat="40.252383" lon="-4.888183">
        <ele>1021.0</ele>
        <time>2018-09-15T11:16:30Z</time>
      </trkpt>
      <trkpt lat="40.252383" lon="-4.888183">
        <ele>1021.0</ele>
        <time>2018-09-15T11:16:31Z</time>
      </trkpt>
      <trkpt lat="40.252383" lon="-4.888183">
        <ele>1021.0</ele>
        <time>2018-09-15T11:16:32Z</time>
      </trkpt>
      <trkpt lat="40.252383" lon="-4.888183">
        <ele>1021.0</ele>
        <time>2018-09-15T11:16:33Z</time>
      </trkpt>
      <trkpt lat="40.252383" lon="-4.888183">
        <ele>1021.0</ele>
        <time>2018-09-15T11:16:34Z</time>
      </trkpt>
      <trkpt lat="40.252383" lon="-4.888183">
        <ele>1021.0</ele>
        <time>2018-09-15T11:16:35Z</time>
      </trkpt>
      <trkpt lat="40.252383" lon="-4.888183">
        <ele>1021.0</ele>
        <time>2018-09-15T11:16:36Z</time>
      </trkpt>
      <trkpt lat="40.252383" lon="-4.888183">
        <ele>1021.0</ele>
        <time>2018-09-15T11:16:37Z</time>
      </trkpt>
      <trkpt lat="40.252383" lon="-4.888183">
        <ele>1021.0</ele>
        <time>2018-09-15T11:16:38Z</time>
      </trkpt>
      <trkpt lat="40.252383" lon="-4.888183">
        <ele>1021.0</ele>
        <time>2018-09-15T11:16:39Z</time>
      </trkpt>
      <trkpt lat="40.252383" lon="-4.888183">
        <ele>1021.0</ele>
        <time>2018-09-15T11:16:40Z</time>
      </trkpt>
      <trkpt lat="40.252383" lon="-4.888183">
        <ele>1022.0</ele>
        <time>2018-09-15T11:16:41Z</time>
      </trkpt>
      <trkpt lat="40.252383" lon="-4.888183">
        <ele>1022.0</ele>
        <time>2018-09-15T11:16:42Z</time>
      </trkpt>
      <trkpt lat="40.252383" lon="-4.888183">
        <ele>1022.0</ele>
        <time>2018-09-15T11:16:43Z</time>
      </trkpt>
      <trkpt lat="40.252383" lon="-4.888183">
        <ele>1022.0</ele>
        <time>2018-09-15T11:16:44Z</time>
      </trkpt>
      <trkpt lat="40.252383" lon="-4.888183">
        <ele>1022.0</ele>
        <time>2018-09-15T11:16:45Z</time>
      </trkpt>
      <trkpt lat="40.252383" lon="-4.888183">
        <ele>1022.0</ele>
        <time>2018-09-15T11:16:46Z</time>
      </trkpt>
      <trkpt lat="40.252383" lon="-4.888183">
        <ele>1022.0</ele>
        <time>2018-09-15T11:16:47Z</time>
      </trkpt>
      <trkpt lat="40.252383" lon="-4.888183">
        <ele>1022.0</ele>
        <time>2018-09-15T11:16:48Z</time>
      </trkpt>
      <trkpt lat="40.252383" lon="-4.888183">
        <ele>1022.0</ele>
        <time>2018-09-15T11:16:49Z</time>
      </trkpt>
      <trkpt lat="40.252383" lon="-4.888183">
        <ele>1022.0</ele>
        <time>2018-09-15T11:16:50Z</time>
      </trkpt>
      <trkpt lat="40.252383" lon="-4.888183">
        <ele>1022.0</ele>
        <time>2018-09-15T11:16:51Z</time>
      </trkpt>
      <trkpt lat="40.252383" lon="-4.888183">
        <ele>1022.0</ele>
        <time>2018-09-15T11:16:52Z</time>
      </trkpt>
      <trkpt lat="40.252383" lon="-4.888183">
        <ele>1022.0</ele>
        <time>2018-09-15T11:16:53Z</time>
      </trkpt>
      <trkpt lat="40.252383" lon="-4.888183">
        <ele>1022.0</ele>
        <time>2018-09-15T11:16:54Z</time>
      </trkpt>
      <trkpt lat="40.252383" lon="-4.888183">
        <ele>1022.0</ele>
        <time>2018-09-15T11:16:55Z</time>
      </trkpt>
      <trkpt lat="40.252383" lon="-4.888183">
        <ele>1022.0</ele>
        <time>2018-09-15T11:16:56Z</time>
      </trkpt>
      <trkpt lat="40.252383" lon="-4.888183">
        <ele>1022.0</ele>
        <time>2018-09-15T11:16:57Z</time>
      </trkpt>
      <trkpt lat="40.252383" lon="-4.888183">
        <ele>1022.0</ele>
        <time>2018-09-15T11:16:58Z</time>
      </trkpt>
      <trkpt lat="40.252383" lon="-4.888183">
        <ele>1022.0</ele>
        <time>2018-09-15T11:16:59Z</time>
      </trkpt>
      <trkpt lat="40.252383" lon="-4.888183">
        <ele>1022.0</ele>
        <time>2018-09-15T11:17:00Z</time>
      </trkpt>
      <trkpt lat="40.252383" lon="-4.888183">
        <ele>1022.0</ele>
        <time>2018-09-15T11:17:01Z</time>
      </trkpt>
      <trkpt lat="40.252383" lon="-4.888183">
        <ele>1022.0</ele>
        <time>2018-09-15T11:17:02Z</time>
      </trkpt>
      <trkpt lat="40.252383" lon="-4.888183">
        <ele>1022.0</ele>
        <time>2018-09-15T11:17:03Z</time>
      </trkpt>
      <trkpt lat="40.252383" lon="-4.888183">
        <ele>1022.0</ele>
        <time>2018-09-15T11:17:04Z</time>
      </trkpt>
      <trkpt lat="40.252383" lon="-4.888167">
        <ele>1022.0</ele>
        <time>2018-09-15T11:17:05Z</time>
      </trkpt>
      <trkpt lat="40.252383" lon="-4.888167">
        <ele>1023.0</ele>
        <time>2018-09-15T11:17:06Z</time>
      </trkpt>
      <trkpt lat="40.252383" lon="-4.888167">
        <ele>1023.0</ele>
        <time>2018-09-15T11:17:07Z</time>
      </trkpt>
      <trkpt lat="40.252383" lon="-4.888167">
        <ele>1023.0</ele>
        <time>2018-09-15T11:17:08Z</time>
      </trkpt>
      <trkpt lat="40.252383" lon="-4.888167">
        <ele>1023.0</ele>
        <time>2018-09-15T11:17:09Z</time>
      </trkpt>
      <trkpt lat="40.252383" lon="-4.888167">
        <ele>1023.0</ele>
        <time>2018-09-15T11:17:10Z</time>
      </trkpt>
      <trkpt lat="40.252383" lon="-4.888167">
        <ele>1023.0</ele>
        <time>2018-09-15T11:17:11Z</time>
      </trkpt>
      <trkpt lat="40.252383" lon="-4.888167">
        <ele>1023.0</ele>
        <time>2018-09-15T11:17:12Z</time>
      </trkpt>
      <trkpt lat="40.252383" lon="-4.888167">
        <ele>1023.0</ele>
        <time>2018-09-15T11:17:13Z</time>
      </trkpt>
      <trkpt lat="40.252383" lon="-4.888167">
        <ele>1023.0</ele>
        <time>2018-09-15T11:17:14Z</time>
      </trkpt>
      <trkpt lat="40.252383" lon="-4.888167">
        <ele>1023.0</ele>
        <time>2018-09-15T11:17:15Z</time>
      </trkpt>
      <trkpt lat="40.252383" lon="-4.888167">
        <ele>1023.0</ele>
        <time>2018-09-15T11:17:16Z</time>
      </trkpt>
      <trkpt lat="40.252383" lon="-4.888167">
        <ele>1023.0</ele>
        <time>2018-09-15T11:17:17Z</time>
      </trkpt>
      <trkpt lat="40.252383" lon="-4.888167">
        <ele>1023.0</ele>
        <time>2018-09-15T11:17:18Z</time>
      </trkpt>
      <trkpt lat="40.252383" lon="-4.888167">
        <ele>1023.0</ele>
        <time>2018-09-15T11:17:19Z</time>
      </trkpt>
      <trkpt lat="40.252383" lon="-4.888167">
        <ele>1023.0</ele>
        <time>2018-09-15T11:17:20Z</time>
      </trkpt>
      <trkpt lat="40.252383" lon="-4.888167">
        <ele>1023.0</ele>
        <time>2018-09-15T11:17:21Z</time>
      </trkpt>
      <trkpt lat="40.252383" lon="-4.888167">
        <ele>1023.0</ele>
        <time>2018-09-15T11:17:22Z</time>
      </trkpt>
      <trkpt lat="40.252383" lon="-4.888167">
        <ele>1023.0</ele>
        <time>2018-09-15T11:17:23Z</time>
      </trkpt>
      <trkpt lat="40.252367" lon="-4.888167">
        <ele>1023.0</ele>
        <time>2018-09-15T11:17:24Z</time>
      </trkpt>
      <trkpt lat="40.252367" lon="-4.888183">
        <ele>1023.0</ele>
        <time>2018-09-15T11:17:25Z</time>
      </trkpt>
      <trkpt lat="40.252367" lon="-4.888183">
        <ele>1023.0</ele>
        <time>2018-09-15T11:17:26Z</time>
      </trkpt>
      <trkpt lat="40.252367" lon="-4.888183">
        <ele>1023.0</ele>
        <time>2018-09-15T11:17:27Z</time>
      </trkpt>
      <trkpt lat="40.252367" lon="-4.888183">
        <ele>1023.0</ele>
        <time>2018-09-15T11:17:28Z</time>
      </trkpt>
      <trkpt lat="40.252367" lon="-4.888167">
        <ele>1023.0</ele>
        <time>2018-09-15T11:17:29Z</time>
      </trkpt>
      <trkpt lat="40.252367" lon="-4.888183">
        <ele>1023.0</ele>
        <time>2018-09-15T11:17:30Z</time>
      </trkpt>
      <trkpt lat="40.252367" lon="-4.888183">
        <ele>1023.0</ele>
        <time>2018-09-15T11:17:31Z</time>
      </trkpt>
      <trkpt lat="40.252367" lon="-4.888183">
        <ele>1023.0</ele>
        <time>2018-09-15T11:17:32Z</time>
      </trkpt>
      <trkpt lat="40.252367" lon="-4.888167">
        <ele>1023.0</ele>
        <time>2018-09-15T11:17:33Z</time>
      </trkpt>
      <trkpt lat="40.252367" lon="-4.888167">
        <ele>1023.0</ele>
        <time>2018-09-15T11:17:34Z</time>
      </trkpt>
      <trkpt lat="40.252367" lon="-4.888167">
        <ele>1023.0</ele>
        <time>2018-09-15T11:17:35Z</time>
      </trkpt>
      <trkpt lat="40.252367" lon="-4.888167">
        <ele>1024.0</ele>
        <time>2018-09-15T11:17:36Z</time>
      </trkpt>
      <trkpt lat="40.252367" lon="-4.888183">
        <ele>1024.0</ele>
        <time>2018-09-15T11:17:37Z</time>
      </trkpt>
      <trkpt lat="40.252367" lon="-4.888183">
        <ele>1023.0</ele>
        <time>2018-09-15T11:17:38Z</time>
      </trkpt>
      <trkpt lat="40.252367" lon="-4.888183">
        <ele>1023.0</ele>
        <time>2018-09-15T11:17:39Z</time>
      </trkpt>
      <trkpt lat="40.252367" lon="-4.888183">
        <ele>1023.0</ele>
        <time>2018-09-15T11:17:40Z</time>
      </trkpt>
      <trkpt lat="40.252367" lon="-4.888183">
        <ele>1023.0</ele>
        <time>2018-09-15T11:17:41Z</time>
      </trkpt>
      <trkpt lat="40.252367" lon="-4.888183">
        <ele>1023.0</ele>
        <time>2018-09-15T11:17:42Z</time>
      </trkpt>
      <trkpt lat="40.252367" lon="-4.888183">
        <ele>1023.0</ele>
        <time>2018-09-15T11:17:43Z</time>
      </trkpt>
      <trkpt lat="40.252367" lon="-4.888183">
        <ele>1023.0</ele>
        <time>2018-09-15T11:17:44Z</time>
      </trkpt>
      <trkpt lat="40.252367" lon="-4.888183">
        <ele>1023.0</ele>
        <time>2018-09-15T11:17:45Z</time>
      </trkpt>
      <trkpt lat="40.252367" lon="-4.888183">
        <ele>1024.0</ele>
        <time>2018-09-15T11:17:46Z</time>
      </trkpt>
      <trkpt lat="40.252367" lon="-4.888167">
        <ele>1024.0</ele>
        <time>2018-09-15T11:17:47Z</time>
      </trkpt>
      <trkpt lat="40.252367" lon="-4.888167">
        <ele>1024.0</ele>
        <time>2018-09-15T11:17:48Z</time>
      </trkpt>
      <trkpt lat="40.252367" lon="-4.888167">
        <ele>1024.0</ele>
        <time>2018-09-15T11:17:49Z</time>
      </trkpt>
      <trkpt lat="40.252367" lon="-4.888167">
        <ele>1024.0</ele>
        <time>2018-09-15T11:17:50Z</time>
      </trkpt>
      <trkpt lat="40.252367" lon="-4.888167">
        <ele>1024.0</ele>
        <time>2018-09-15T11:17:51Z</time>
      </trkpt>
      <trkpt lat="40.252367" lon="-4.888167">
        <ele>1024.0</ele>
        <time>2018-09-15T11:17:52Z</time>
      </trkpt>
      <trkpt lat="40.252367" lon="-4.888167">
        <ele>1024.0</ele>
        <time>2018-09-15T11:17:53Z</time>
      </trkpt>
      <trkpt lat="40.252367" lon="-4.888167">
        <ele>1024.0</ele>
        <time>2018-09-15T11:17:54Z</time>
      </trkpt>
      <trkpt lat="40.252367" lon="-4.888167">
        <ele>1024.0</ele>
        <time>2018-09-15T11:17:55Z</time>
      </trkpt>
      <trkpt lat="40.252367" lon="-4.888167">
        <ele>1024.0</ele>
        <time>2018-09-15T11:17:56Z</time>
      </trkpt>
      <trkpt lat="40.252367" lon="-4.888167">
        <ele>1024.0</ele>
        <time>2018-09-15T11:17:57Z</time>
      </trkpt>
      <trkpt lat="40.252367" lon="-4.888167">
        <ele>1024.0</ele>
        <time>2018-09-15T11:17:58Z</time>
      </trkpt>
      <trkpt lat="40.252367" lon="-4.888167">
        <ele>1024.0</ele>
        <time>2018-09-15T11:17:59Z</time>
      </trkpt>
      <trkpt lat="40.252367" lon="-4.888167">
        <ele>1024.0</ele>
        <time>2018-09-15T11:18:00Z</time>
      </trkpt>
      <trkpt lat="40.252367" lon="-4.888167">
        <ele>1024.0</ele>
        <time>2018-09-15T11:18:01Z</time>
      </trkpt>
      <trkpt lat="40.252367" lon="-4.888167">
        <ele>1024.0</ele>
        <time>2018-09-15T11:18:02Z</time>
      </trkpt>
      <trkpt lat="40.252367" lon="-4.888167">
        <ele>1024.0</ele>
        <time>2018-09-15T11:18:03Z</time>
      </trkpt>
      <trkpt lat="40.252367" lon="-4.888167">
        <ele>1024.0</ele>
        <time>2018-09-15T11:18:04Z</time>
      </trkpt>
      <trkpt lat="40.252367" lon="-4.888167">
        <ele>1024.0</ele>
        <time>2018-09-15T11:18:05Z</time>
      </trkpt>
      <trkpt lat="40.252367" lon="-4.888167">
        <ele>1024.0</ele>
        <time>2018-09-15T11:18:06Z</time>
      </trkpt>
      <trkpt lat="40.252367" lon="-4.888167">
        <ele>1024.0</ele>
        <time>2018-09-15T11:18:07Z</time>
      </trkpt>
      <trkpt lat="40.252367" lon="-4.888167">
        <ele>1024.0</ele>
        <time>2018-09-15T11:18:08Z</time>
      </trkpt>
      <trkpt lat="40.252367" lon="-4.888167">
        <ele>1024.0</ele>
        <time>2018-09-15T11:18:09Z</time>
      </trkpt>
      <trkpt lat="40.252367" lon="-4.888167">
        <ele>1023.0</ele>
        <time>2018-09-15T11:18:10Z</time>
      </trkpt>
      <trkpt lat="40.252367" lon="-4.888167">
        <ele>1023.0</ele>
        <time>2018-09-15T11:18:11Z</time>
      </trkpt>
      <trkpt lat="40.252367" lon="-4.888167">
        <ele>1023.0</ele>
        <time>2018-09-15T11:18:12Z</time>
      </trkpt>
      <trkpt lat="40.252367" lon="-4.888167">
        <ele>1023.0</ele>
        <time>2018-09-15T11:18:13Z</time>
      </trkpt>
      <trkpt lat="40.252367" lon="-4.888167">
        <ele>1023.0</ele>
        <time>2018-09-15T11:18:14Z</time>
      </trkpt>
      <trkpt lat="40.252367" lon="-4.888167">
        <ele>1023.0</ele>
        <time>2018-09-15T11:18:15Z</time>
      </trkpt>
      <trkpt lat="40.252367" lon="-4.888167">
        <ele>1023.0</ele>
        <time>2018-09-15T11:18:16Z</time>
      </trkpt>
      <trkpt lat="40.252367" lon="-4.888167">
        <ele>1023.0</ele>
        <time>2018-09-15T11:18:17Z</time>
      </trkpt>
      <trkpt lat="40.252367" lon="-4.888167">
        <ele>1023.0</ele>
        <time>2018-09-15T11:18:18Z</time>
      </trkpt>
      <trkpt lat="40.252367" lon="-4.888167">
        <ele>1023.0</ele>
        <time>2018-09-15T11:18:19Z</time>
      </trkpt>
      <trkpt lat="40.252367" lon="-4.888167">
        <ele>1023.0</ele>
        <time>2018-09-15T11:18:20Z</time>
      </trkpt>
      <trkpt lat="40.252367" lon="-4.888167">
        <ele>1023.0</ele>
        <time>2018-09-15T11:18:21Z</time>
      </trkpt>
      <trkpt lat="40.252383" lon="-4.888167">
        <ele>1023.0</ele>
        <time>2018-09-15T11:18:22Z</time>
      </trkpt>
      <trkpt lat="40.252383" lon="-4.888167">
        <ele>1023.0</ele>
        <time>2018-09-15T11:18:23Z</time>
      </trkpt>
      <trkpt lat="40.252383" lon="-4.888167">
        <ele>1023.0</ele>
        <time>2018-09-15T11:18:24Z</time>
      </trkpt>
      <trkpt lat="40.252383" lon="-4.888167">
        <ele>1023.0</ele>
        <time>2018-09-15T11:18:25Z</time>
      </trkpt>
      <trkpt lat="40.252383" lon="-4.888167">
        <ele>1023.0</ele>
        <time>2018-09-15T11:18:26Z</time>
      </trkpt>
      <trkpt lat="40.252383" lon="-4.888167">
        <ele>1023.0</ele>
        <time>2018-09-15T11:18:27Z</time>
      </trkpt>
      <trkpt lat="40.252383" lon="-4.888167">
        <ele>1023.0</ele>
        <time>2018-09-15T11:18:28Z</time>
      </trkpt>
      <trkpt lat="40.252383" lon="-4.888167">
        <ele>1023.0</ele>
        <time>2018-09-15T11:18:29Z</time>
      </trkpt>
      <trkpt lat="40.252383" lon="-4.888167">
        <ele>1023.0</ele>
        <time>2018-09-15T11:18:30Z</time>
      </trkpt>
      <trkpt lat="40.252383" lon="-4.888167">
        <ele>1023.0</ele>
        <time>2018-09-15T11:18:31Z</time>
      </trkpt>
      <trkpt lat="40.252383" lon="-4.888167">
        <ele>1023.0</ele>
        <time>2018-09-15T11:18:32Z</time>
      </trkpt>
      <trkpt lat="40.252383" lon="-4.888167">
        <ele>1023.0</ele>
        <time>2018-09-15T11:18:33Z</time>
      </trkpt>
      <trkpt lat="40.252383" lon="-4.888167">
        <ele>1023.0</ele>
        <time>2018-09-15T11:18:34Z</time>
      </trkpt>
      <trkpt lat="40.252383" lon="-4.888167">
        <ele>1023.0</ele>
        <time>2018-09-15T11:18:35Z</time>
      </trkpt>
      <trkpt lat="40.252383" lon="-4.888167">
        <ele>1023.0</ele>
        <time>2018-09-15T11:18:36Z</time>
      </trkpt>
      <trkpt lat="40.252383" lon="-4.888167">
        <ele>1023.0</ele>
        <time>2018-09-15T11:18:37Z</time>
      </trkpt>
      <trkpt lat="40.252383" lon="-4.888167">
        <ele>1023.0</ele>
        <time>2018-09-15T11:18:38Z</time>
      </trkpt>
      <trkpt lat="40.252383" lon="-4.888167">
        <ele>1023.0</ele>
        <time>2018-09-15T11:18:39Z</time>
      </trkpt>
      <trkpt lat="40.252383" lon="-4.888167">
        <ele>1023.0</ele>
        <time>2018-09-15T11:18:40Z</time>
      </trkpt>
      <trkpt lat="40.252383" lon="-4.888167">
        <ele>1023.0</ele>
        <time>2018-09-15T11:18:41Z</time>
      </trkpt>
      <trkpt lat="40.252383" lon="-4.888167">
        <ele>1023.0</ele>
        <time>2018-09-15T11:18:42Z</time>
      </trkpt>
      <trkpt lat="40.252383" lon="-4.888167">
        <ele>1023.0</ele>
        <time>2018-09-15T11:18:43Z</time>
      </trkpt>
      <trkpt lat="40.252383" lon="-4.888167">
        <ele>1023.0</ele>
        <time>2018-09-15T11:18:44Z</time>
      </trkpt>
      <trkpt lat="40.252383" lon="-4.888167">
        <ele>1023.0</ele>
        <time>2018-09-15T11:18:45Z</time>
      </trkpt>
      <trkpt lat="40.252383" lon="-4.888167">
        <ele>1023.0</ele>
        <time>2018-09-15T11:18:46Z</time>
      </trkpt>
      <trkpt lat="40.252383" lon="-4.888167">
        <ele>1023.0</ele>
        <time>2018-09-15T11:18:47Z</time>
      </trkpt>
      <trkpt lat="40.252383" lon="-4.888167">
        <ele>1023.0</ele>
        <time>2018-09-15T11:18:48Z</time>
      </trkpt>
      <trkpt lat="40.252383" lon="-4.888167">
        <ele>1023.0</ele>
        <time>2018-09-15T11:18:49Z</time>
      </trkpt>
      <trkpt lat="40.252383" lon="-4.888167">
        <ele>1023.0</ele>
        <time>2018-09-15T11:18:50Z</time>
      </trkpt>
      <trkpt lat="40.252383" lon="-4.888167">
        <ele>1023.0</ele>
        <time>2018-09-15T11:18:51Z</time>
      </trkpt>
      <trkpt lat="40.252383" lon="-4.888167">
        <ele>1022.0</ele>
        <time>2018-09-15T11:18:52Z</time>
      </trkpt>
      <trkpt lat="40.252383" lon="-4.888167">
        <ele>1022.0</ele>
        <time>2018-09-15T11:18:53Z</time>
      </trkpt>
      <trkpt lat="40.252383" lon="-4.888167">
        <ele>1022.0</ele>
        <time>2018-09-15T11:18:54Z</time>
      </trkpt>
      <trkpt lat="40.252383" lon="-4.888167">
        <ele>1022.0</ele>
        <time>2018-09-15T11:18:55Z</time>
      </trkpt>
      <trkpt lat="40.252383" lon="-4.888167">
        <ele>1022.0</ele>
        <time>2018-09-15T11:18:56Z</time>
      </trkpt>
      <trkpt lat="40.252383" lon="-4.888167">
        <ele>1022.0</ele>
        <time>2018-09-15T11:18:57Z</time>
      </trkpt>
      <trkpt lat="40.252383" lon="-4.888167">
        <ele>1022.0</ele>
        <time>2018-09-15T11:18:58Z</time>
      </trkpt>
      <trkpt lat="40.252383" lon="-4.888167">
        <ele>1022.0</ele>
        <time>2018-09-15T11:18:59Z</time>
      </trkpt>
      <trkpt lat="40.252383" lon="-4.888167">
        <ele>1021.0</ele>
        <time>2018-09-15T11:19:00Z</time>
      </trkpt>
      <trkpt lat="40.252383" lon="-4.888167">
        <ele>1021.0</ele>
        <time>2018-09-15T11:19:01Z</time>
      </trkpt>
      <trkpt lat="40.252383" lon="-4.888167">
        <ele>1021.0</ele>
        <time>2018-09-15T11:19:02Z</time>
      </trkpt>
      <trkpt lat="40.252383" lon="-4.888167">
        <ele>1021.0</ele>
        <time>2018-09-15T11:19:03Z</time>
      </trkpt>
      <trkpt lat="40.252383" lon="-4.888167">
        <ele>1022.0</ele>
        <time>2018-09-15T11:19:04Z</time>
      </trkpt>
      <trkpt lat="40.252383" lon="-4.888167">
        <ele>1022.0</ele>
        <time>2018-09-15T11:19:05Z</time>
      </trkpt>
      <trkpt lat="40.252383" lon="-4.888167">
        <ele>1022.0</ele>
        <time>2018-09-15T11:19:06Z</time>
      </trkpt>
      <trkpt lat="40.252383" lon="-4.888167">
        <ele>1022.0</ele>
        <time>2018-09-15T11:19:07Z</time>
      </trkpt>
      <trkpt lat="40.252383" lon="-4.888167">
        <ele>1022.0</ele>
        <time>2018-09-15T11:19:08Z</time>
      </trkpt>
      <trkpt lat="40.252383" lon="-4.888167">
        <ele>1021.0</ele>
        <time>2018-09-15T11:19:09Z</time>
      </trkpt>
      <trkpt lat="40.252383" lon="-4.888167">
        <ele>1021.0</ele>
        <time>2018-09-15T11:19:10Z</time>
      </trkpt>
      <trkpt lat="40.252383" lon="-4.888167">
        <ele>1021.0</ele>
        <time>2018-09-15T11:19:11Z</time>
      </trkpt>
      <trkpt lat="40.252383" lon="-4.888167">
        <ele>1022.0</ele>
        <time>2018-09-15T11:19:12Z</time>
      </trkpt>
      <trkpt lat="40.252383" lon="-4.888167">
        <ele>1022.0</ele>
        <time>2018-09-15T11:19:13Z</time>
      </trkpt>
      <trkpt lat="40.252383" lon="-4.888167">
        <ele>1022.0</ele>
        <time>2018-09-15T11:19:14Z</time>
      </trkpt>
      <trkpt lat="40.252383" lon="-4.888167">
        <ele>1022.0</ele>
        <time>2018-09-15T11:19:15Z</time>
      </trkpt>
      <trkpt lat="40.252383" lon="-4.888167">
        <ele>1022.0</ele>
        <time>2018-09-15T11:19:16Z</time>
      </trkpt>
      <trkpt lat="40.252383" lon="-4.888167">
        <ele>1022.0</ele>
        <time>2018-09-15T11:19:17Z</time>
      </trkpt>
      <trkpt lat="40.252383" lon="-4.888167">
        <ele>1022.0</ele>
        <time>2018-09-15T11:19:18Z</time>
      </trkpt>
      <trkpt lat="40.252383" lon="-4.888167">
        <ele>1022.0</ele>
        <time>2018-09-15T11:19:19Z</time>
      </trkpt>
      <trkpt lat="40.252383" lon="-4.888167">
        <ele>1022.0</ele>
        <time>2018-09-15T11:19:20Z</time>
      </trkpt>
      <trkpt lat="40.252383" lon="-4.888167">
        <ele>1022.0</ele>
        <time>2018-09-15T11:19:21Z</time>
      </trkpt>
      <trkpt lat="40.252383" lon="-4.888167">
        <ele>1022.0</ele>
        <time>2018-09-15T11:19:22Z</time>
      </trkpt>
      <trkpt lat="40.252383" lon="-4.888167">
        <ele>1022.0</ele>
        <time>2018-09-15T11:19:23Z</time>
      </trkpt>
      <trkpt lat="40.252383" lon="-4.888167">
        <ele>1021.0</ele>
        <time>2018-09-15T11:19:24Z</time>
      </trkpt>
      <trkpt lat="40.252383" lon="-4.888167">
        <ele>1021.0</ele>
        <time>2018-09-15T11:19:25Z</time>
      </trkpt>
      <trkpt lat="40.252383" lon="-4.888167">
        <ele>1021.0</ele>
        <time>2018-09-15T11:19:26Z</time>
      </trkpt>
      <trkpt lat="40.252383" lon="-4.888167">
        <ele>1022.0</ele>
        <time>2018-09-15T11:19:27Z</time>
      </trkpt>
      <trkpt lat="40.252383" lon="-4.888167">
        <ele>1022.0</ele>
        <time>2018-09-15T11:19:28Z</time>
      </trkpt>
      <trkpt lat="40.252383" lon="-4.888167">
        <ele>1021.0</ele>
        <time>2018-09-15T11:19:29Z</time>
      </trkpt>
      <trkpt lat="40.252383" lon="-4.888167">
        <ele>1021.0</ele>
        <time>2018-09-15T11:19:30Z</time>
      </trkpt>
      <trkpt lat="40.252383" lon="-4.888167">
        <ele>1022.0</ele>
        <time>2018-09-15T11:19:31Z</time>
      </trkpt>
      <trkpt lat="40.252383" lon="-4.888167">
        <ele>1022.0</ele>
        <time>2018-09-15T11:19:32Z</time>
      </trkpt>
      <trkpt lat="40.252383" lon="-4.888167">
        <ele>1022.0</ele>
        <time>2018-09-15T11:19:33Z</time>
      </trkpt>
      <trkpt lat="40.252383" lon="-4.888167">
        <ele>1022.0</ele>
        <time>2018-09-15T11:19:34Z</time>
      </trkpt>
      <trkpt lat="40.252383" lon="-4.888167">
        <ele>1022.0</ele>
        <time>2018-09-15T11:19:35Z</time>
      </trkpt>
      <trkpt lat="40.252383" lon="-4.888167">
        <ele>1022.0</ele>
        <time>2018-09-15T11:19:36Z</time>
      </trkpt>
      <trkpt lat="40.252383" lon="-4.888167">
        <ele>1022.0</ele>
        <time>2018-09-15T11:19:37Z</time>
      </trkpt>
      <trkpt lat="40.252383" lon="-4.888167">
        <ele>1022.0</ele>
        <time>2018-09-15T11:19:38Z</time>
      </trkpt>
      <trkpt lat="40.252383" lon="-4.888167">
        <ele>1022.0</ele>
        <time>2018-09-15T11:19:39Z</time>
      </trkpt>
      <trkpt lat="40.252383" lon="-4.888167">
        <ele>1022.0</ele>
        <time>2018-09-15T11:19:40Z</time>
      </trkpt>
      <trkpt lat="40.252383" lon="-4.888167">
        <ele>1022.0</ele>
        <time>2018-09-15T11:19:41Z</time>
      </trkpt>
      <trkpt lat="40.252383" lon="-4.888167">
        <ele>1022.0</ele>
        <time>2018-09-15T11:19:42Z</time>
      </trkpt>
      <trkpt lat="40.252383" lon="-4.888167">
        <ele>1022.0</ele>
        <time>2018-09-15T11:19:43Z</time>
      </trkpt>
      <trkpt lat="40.252383" lon="-4.888167">
        <ele>1022.0</ele>
        <time>2018-09-15T11:19:44Z</time>
      </trkpt>
      <trkpt lat="40.252383" lon="-4.888167">
        <ele>1022.0</ele>
        <time>2018-09-15T11:19:45Z</time>
      </trkpt>
      <trkpt lat="40.252383" lon="-4.888167">
        <ele>1022.0</ele>
        <time>2018-09-15T11:19:46Z</time>
      </trkpt>
      <trkpt lat="40.252383" lon="-4.888167">
        <ele>1022.0</ele>
        <time>2018-09-15T11:19:47Z</time>
      </trkpt>
      <trkpt lat="40.252383" lon="-4.888167">
        <ele>1022.0</ele>
        <time>2018-09-15T11:19:48Z</time>
      </trkpt>
      <trkpt lat="40.252383" lon="-4.888167">
        <ele>1022.0</ele>
        <time>2018-09-15T11:19:49Z</time>
      </trkpt>
      <trkpt lat="40.252383" lon="-4.888167">
        <ele>1022.0</ele>
        <time>2018-09-15T11:19:50Z</time>
      </trkpt>
      <trkpt lat="40.252383" lon="-4.888167">
        <ele>1022.0</ele>
        <time>2018-09-15T11:19:51Z</time>
      </trkpt>
      <trkpt lat="40.252383" lon="-4.888167">
        <ele>1022.0</ele>
        <time>2018-09-15T11:19:52Z</time>
      </trkpt>
      <trkpt lat="40.252383" lon="-4.888167">
        <ele>1022.0</ele>
        <time>2018-09-15T11:19:53Z</time>
      </trkpt>
      <trkpt lat="40.252383" lon="-4.888167">
        <ele>1022.0</ele>
        <time>2018-09-15T11:19:54Z</time>
      </trkpt>
      <trkpt lat="40.252383" lon="-4.888167">
        <ele>1022.0</ele>
        <time>2018-09-15T11:19:55Z</time>
      </trkpt>
      <trkpt lat="40.252383" lon="-4.888167">
        <ele>1022.0</ele>
        <time>2018-09-15T11:19:56Z</time>
      </trkpt>
      <trkpt lat="40.252400" lon="-4.888167">
        <ele>1022.0</ele>
        <time>2018-09-15T11:19:57Z</time>
      </trkpt>
      <trkpt lat="40.252400" lon="-4.888167">
        <ele>1022.0</ele>
        <time>2018-09-15T11:19:58Z</time>
      </trkpt>
      <trkpt lat="40.252400" lon="-4.888167">
        <ele>1022.0</ele>
        <time>2018-09-15T11:19:59Z</time>
      </trkpt>
      <trkpt lat="40.252400" lon="-4.888167">
        <ele>1022.0</ele>
        <time>2018-09-15T11:20:00Z</time>
      </trkpt>
      <trkpt lat="40.252400" lon="-4.888167">
        <ele>1022.0</ele>
        <time>2018-09-15T11:20:01Z</time>
      </trkpt>
      <trkpt lat="40.252400" lon="-4.888167">
        <ele>1022.0</ele>
        <time>2018-09-15T11:20:02Z</time>
      </trkpt>
      <trkpt lat="40.252400" lon="-4.888167">
        <ele>1022.0</ele>
        <time>2018-09-15T11:20:03Z</time>
      </trkpt>
      <trkpt lat="40.252400" lon="-4.888167">
        <ele>1022.0</ele>
        <time>2018-09-15T11:20:04Z</time>
      </trkpt>
      <trkpt lat="40.252400" lon="-4.888167">
        <ele>1022.0</ele>
        <time>2018-09-15T11:20:05Z</time>
      </trkpt>
      <trkpt lat="40.252400" lon="-4.888167">
        <ele>1022.0</ele>
        <time>2018-09-15T11:20:06Z</time>
      </trkpt>
      <trkpt lat="40.252400" lon="-4.888167">
        <ele>1022.0</ele>
        <time>2018-09-15T11:20:07Z</time>
      </trkpt>
      <trkpt lat="40.252400" lon="-4.888150">
        <ele>1023.0</ele>
        <time>2018-09-15T11:20:08Z</time>
      </trkpt>
      <trkpt lat="40.252400" lon="-4.888150">
        <ele>1023.0</ele>
        <time>2018-09-15T11:20:09Z</time>
      </trkpt>
      <trkpt lat="40.252400" lon="-4.888150">
        <ele>1023.0</ele>
        <time>2018-09-15T11:20:10Z</time>
      </trkpt>
      <trkpt lat="40.252400" lon="-4.888150">
        <ele>1023.0</ele>
        <time>2018-09-15T11:20:11Z</time>
      </trkpt>
      <trkpt lat="40.252400" lon="-4.888150">
        <ele>1023.0</ele>
        <time>2018-09-15T11:20:12Z</time>
      </trkpt>
      <trkpt lat="40.252400" lon="-4.888150">
        <ele>1023.0</ele>
        <time>2018-09-15T11:20:13Z</time>
      </trkpt>
      <trkpt lat="40.252400" lon="-4.888150">
        <ele>1023.0</ele>
        <time>2018-09-15T11:20:14Z</time>
      </trkpt>
      <trkpt lat="40.252400" lon="-4.888150">
        <ele>1023.0</ele>
        <time>2018-09-15T11:20:15Z</time>
      </trkpt>
      <trkpt lat="40.252400" lon="-4.888150">
        <ele>1023.0</ele>
        <time>2018-09-15T11:20:16Z</time>
      </trkpt>
      <trkpt lat="40.252400" lon="-4.888150">
        <ele>1023.0</ele>
        <time>2018-09-15T11:20:17Z</time>
      </trkpt>
      <trkpt lat="40.252400" lon="-4.888150">
        <ele>1024.0</ele>
        <time>2018-09-15T11:20:18Z</time>
      </trkpt>
      <trkpt lat="40.252400" lon="-4.888150">
        <ele>1024.0</ele>
        <time>2018-09-15T11:20:19Z</time>
      </trkpt>
      <trkpt lat="40.252400" lon="-4.888150">
        <ele>1024.0</ele>
        <time>2018-09-15T11:20:20Z</time>
      </trkpt>
      <trkpt lat="40.252400" lon="-4.888150">
        <ele>1024.0</ele>
        <time>2018-09-15T11:20:21Z</time>
      </trkpt>
      <trkpt lat="40.252400" lon="-4.888150">
        <ele>1024.0</ele>
        <time>2018-09-15T11:20:22Z</time>
      </trkpt>
      <trkpt lat="40.252383" lon="-4.888150">
        <ele>1024.0</ele>
        <time>2018-09-15T11:20:23Z</time>
      </trkpt>
      <trkpt lat="40.252383" lon="-4.888150">
        <ele>1024.0</ele>
        <time>2018-09-15T11:20:24Z</time>
      </trkpt>
      <trkpt lat="40.252383" lon="-4.888150">
        <ele>1024.0</ele>
        <time>2018-09-15T11:20:25Z</time>
      </trkpt>
      <trkpt lat="40.252383" lon="-4.888150">
        <ele>1024.0</ele>
        <time>2018-09-15T11:20:26Z</time>
      </trkpt>
      <trkpt lat="40.252383" lon="-4.888150">
        <ele>1024.0</ele>
        <time>2018-09-15T11:20:27Z</time>
      </trkpt>
      <trkpt lat="40.252383" lon="-4.888150">
        <ele>1024.0</ele>
        <time>2018-09-15T11:20:28Z</time>
      </trkpt>
      <trkpt lat="40.252383" lon="-4.888150">
        <ele>1024.0</ele>
        <time>2018-09-15T11:20:29Z</time>
      </trkpt>
      <trkpt lat="40.252383" lon="-4.888150">
        <ele>1024.0</ele>
        <time>2018-09-15T11:20:30Z</time>
      </trkpt>
      <trkpt lat="40.252383" lon="-4.888150">
        <ele>1024.0</ele>
        <time>2018-09-15T11:20:31Z</time>
      </trkpt>
      <trkpt lat="40.252383" lon="-4.888150">
        <ele>1024.0</ele>
        <time>2018-09-15T11:20:32Z</time>
      </trkpt>
      <trkpt lat="40.252383" lon="-4.888150">
        <ele>1024.0</ele>
        <time>2018-09-15T11:20:33Z</time>
      </trkpt>
      <trkpt lat="40.252383" lon="-4.888150">
        <ele>1023.0</ele>
        <time>2018-09-15T11:20:34Z</time>
      </trkpt>
      <trkpt lat="40.252383" lon="-4.888167">
        <ele>1023.0</ele>
        <time>2018-09-15T11:20:35Z</time>
      </trkpt>
      <trkpt lat="40.252383" lon="-4.888167">
        <ele>1023.0</ele>
        <time>2018-09-15T11:20:36Z</time>
      </trkpt>
      <trkpt lat="40.252383" lon="-4.888167">
        <ele>1023.0</ele>
        <time>2018-09-15T11:20:37Z</time>
      </trkpt>
      <trkpt lat="40.252383" lon="-4.888167">
        <ele>1023.0</ele>
        <time>2018-09-15T11:20:38Z</time>
      </trkpt>
      <trkpt lat="40.252383" lon="-4.888167">
        <ele>1023.0</ele>
        <time>2018-09-15T11:20:39Z</time>
      </trkpt>
      <trkpt lat="40.252383" lon="-4.888167">
        <ele>1023.0</ele>
        <time>2018-09-15T11:20:40Z</time>
      </trkpt>
      <trkpt lat="40.252383" lon="-4.888167">
        <ele>1023.0</ele>
        <time>2018-09-15T11:20:41Z</time>
      </trkpt>
      <trkpt lat="40.252383" lon="-4.888167">
        <ele>1022.0</ele>
        <time>2018-09-15T11:20:42Z</time>
      </trkpt>
      <trkpt lat="40.252383" lon="-4.888167">
        <ele>1023.0</ele>
        <time>2018-09-15T11:20:43Z</time>
      </trkpt>
      <trkpt lat="40.252383" lon="-4.888167">
        <ele>1023.0</ele>
        <time>2018-09-15T11:20:44Z</time>
      </trkpt>
      <trkpt lat="40.252383" lon="-4.888167">
        <ele>1023.0</ele>
        <time>2018-09-15T11:20:45Z</time>
      </trkpt>
      <trkpt lat="40.252383" lon="-4.888167">
        <ele>1023.0</ele>
        <time>2018-09-15T11:20:46Z</time>
      </trkpt>
      <trkpt lat="40.252367" lon="-4.888167">
        <ele>1023.0</ele>
        <time>2018-09-15T11:20:47Z</time>
      </trkpt>
      <trkpt lat="40.252367" lon="-4.888167">
        <ele>1023.0</ele>
        <time>2018-09-15T11:20:48Z</time>
      </trkpt>
      <trkpt lat="40.252367" lon="-4.888167">
        <ele>1023.0</ele>
        <time>2018-09-15T11:20:49Z</time>
      </trkpt>
      <trkpt lat="40.252367" lon="-4.888167">
        <ele>1023.0</ele>
        <time>2018-09-15T11:20:50Z</time>
      </trkpt>
      <trkpt lat="40.252367" lon="-4.888167">
        <ele>1023.0</ele>
        <time>2018-09-15T11:20:51Z</time>
      </trkpt>
      <trkpt lat="40.252367" lon="-4.888167">
        <ele>1023.0</ele>
        <time>2018-09-15T11:20:52Z</time>
      </trkpt>
      <trkpt lat="40.252367" lon="-4.888167">
        <ele>1023.0</ele>
        <time>2018-09-15T11:20:53Z</time>
      </trkpt>
      <trkpt lat="40.252367" lon="-4.888167">
        <ele>1023.0</ele>
        <time>2018-09-15T11:20:54Z</time>
      </trkpt>
      <trkpt lat="40.252367" lon="-4.888167">
        <ele>1023.0</ele>
        <time>2018-09-15T11:20:55Z</time>
      </trkpt>
      <trkpt lat="40.252367" lon="-4.888167">
        <ele>1023.0</ele>
        <time>2018-09-15T11:20:56Z</time>
      </trkpt>
      <trkpt lat="40.252367" lon="-4.888167">
        <ele>1023.0</ele>
        <time>2018-09-15T11:20:57Z</time>
      </trkpt>
      <trkpt lat="40.252367" lon="-4.888167">
        <ele>1023.0</ele>
        <time>2018-09-15T11:20:58Z</time>
      </trkpt>
      <trkpt lat="40.252367" lon="-4.888167">
        <ele>1023.0</ele>
        <time>2018-09-15T11:20:59Z</time>
      </trkpt>
      <trkpt lat="40.252367" lon="-4.888167">
        <ele>1023.0</ele>
        <time>2018-09-15T11:21:00Z</time>
      </trkpt>
      <trkpt lat="40.252367" lon="-4.888167">
        <ele>1023.0</ele>
        <time>2018-09-15T11:21:01Z</time>
      </trkpt>
      <trkpt lat="40.252367" lon="-4.888167">
        <ele>1023.0</ele>
        <time>2018-09-15T11:21:02Z</time>
      </trkpt>
      <trkpt lat="40.252367" lon="-4.888167">
        <ele>1023.0</ele>
        <time>2018-09-15T11:21:03Z</time>
      </trkpt>
      <trkpt lat="40.252367" lon="-4.888167">
        <ele>1023.0</ele>
        <time>2018-09-15T11:21:04Z</time>
      </trkpt>
      <trkpt lat="40.252367" lon="-4.888167">
        <ele>1023.0</ele>
        <time>2018-09-15T11:21:05Z</time>
      </trkpt>
      <trkpt lat="40.252367" lon="-4.888167">
        <ele>1023.0</ele>
        <time>2018-09-15T11:21:06Z</time>
      </trkpt>
      <trkpt lat="40.252367" lon="-4.888167">
        <ele>1023.0</ele>
        <time>2018-09-15T11:21:07Z</time>
      </trkpt>
      <trkpt lat="40.252367" lon="-4.888167">
        <ele>1023.0</ele>
        <time>2018-09-15T11:21:08Z</time>
      </trkpt>
      <trkpt lat="40.252367" lon="-4.888183">
        <ele>1022.0</ele>
        <time>2018-09-15T11:21:09Z</time>
      </trkpt>
      <trkpt lat="40.252367" lon="-4.888183">
        <ele>1022.0</ele>
        <time>2018-09-15T11:21:10Z</time>
      </trkpt>
      <trkpt lat="40.252367" lon="-4.888183">
        <ele>1022.0</ele>
        <time>2018-09-15T11:21:11Z</time>
      </trkpt>
      <trkpt lat="40.252367" lon="-4.888183">
        <ele>1022.0</ele>
        <time>2018-09-15T11:21:12Z</time>
      </trkpt>
      <trkpt lat="40.252367" lon="-4.888183">
        <ele>1022.0</ele>
        <time>2018-09-15T11:21:13Z</time>
      </trkpt>
      <trkpt lat="40.252367" lon="-4.888183">
        <ele>1022.0</ele>
        <time>2018-09-15T11:21:14Z</time>
      </trkpt>
      <trkpt lat="40.252367" lon="-4.888183">
        <ele>1022.0</ele>
        <time>2018-09-15T11:21:15Z</time>
      </trkpt>
      <trkpt lat="40.252367" lon="-4.888183">
        <ele>1022.0</ele>
        <time>2018-09-15T11:21:16Z</time>
      </trkpt>
      <trkpt lat="40.252367" lon="-4.888183">
        <ele>1022.0</ele>
        <time>2018-09-15T11:21:17Z</time>
      </trkpt>
      <trkpt lat="40.252367" lon="-4.888183">
        <ele>1022.0</ele>
        <time>2018-09-15T11:21:18Z</time>
      </trkpt>
      <trkpt lat="40.252367" lon="-4.888183">
        <ele>1022.0</ele>
        <time>2018-09-15T11:21:19Z</time>
      </trkpt>
      <trkpt lat="40.252367" lon="-4.888183">
        <ele>1022.0</ele>
        <time>2018-09-15T11:21:20Z</time>
      </trkpt>
      <trkpt lat="40.252367" lon="-4.888183">
        <ele>1022.0</ele>
        <time>2018-09-15T11:21:21Z</time>
      </trkpt>
      <trkpt lat="40.252367" lon="-4.888183">
        <ele>1022.0</ele>
        <time>2018-09-15T11:21:22Z</time>
      </trkpt>
      <trkpt lat="40.252367" lon="-4.888183">
        <ele>1022.0</ele>
        <time>2018-09-15T11:21:23Z</time>
      </trkpt>
      <trkpt lat="40.252367" lon="-4.888183">
        <ele>1022.0</ele>
        <time>2018-09-15T11:21:24Z</time>
      </trkpt>
      <trkpt lat="40.252367" lon="-4.888183">
        <ele>1022.0</ele>
        <time>2018-09-15T11:21:25Z</time>
      </trkpt>
      <trkpt lat="40.252367" lon="-4.888183">
        <ele>1022.0</ele>
        <time>2018-09-15T11:21:26Z</time>
      </trkpt>
      <trkpt lat="40.252367" lon="-4.888183">
        <ele>1022.0</ele>
        <time>2018-09-15T11:21:27Z</time>
      </trkpt>
      <trkpt lat="40.252367" lon="-4.888183">
        <ele>1022.0</ele>
        <time>2018-09-15T11:21:28Z</time>
      </trkpt>
      <trkpt lat="40.252367" lon="-4.888183">
        <ele>1022.0</ele>
        <time>2018-09-15T11:21:29Z</time>
      </trkpt>
      <trkpt lat="40.252367" lon="-4.888183">
        <ele>1022.0</ele>
        <time>2018-09-15T11:21:30Z</time>
      </trkpt>
      <trkpt lat="40.252367" lon="-4.888183">
        <ele>1022.0</ele>
        <time>2018-09-15T11:21:31Z</time>
      </trkpt>
      <trkpt lat="40.252367" lon="-4.888183">
        <ele>1022.0</ele>
        <time>2018-09-15T11:21:32Z</time>
      </trkpt>
      <trkpt lat="40.252367" lon="-4.888183">
        <ele>1022.0</ele>
        <time>2018-09-15T11:21:33Z</time>
      </trkpt>
      <trkpt lat="40.252367" lon="-4.888183">
        <ele>1022.0</ele>
        <time>2018-09-15T11:21:34Z</time>
      </trkpt>
      <trkpt lat="40.252367" lon="-4.888183">
        <ele>1022.0</ele>
        <time>2018-09-15T11:21:35Z</time>
      </trkpt>
      <trkpt lat="40.252367" lon="-4.888183">
        <ele>1022.0</ele>
        <time>2018-09-15T11:21:36Z</time>
      </trkpt>
      <trkpt lat="40.252367" lon="-4.888183">
        <ele>1022.0</ele>
        <time>2018-09-15T11:21:37Z</time>
      </trkpt>
      <trkpt lat="40.252367" lon="-4.888183">
        <ele>1022.0</ele>
        <time>2018-09-15T11:21:38Z</time>
      </trkpt>
      <trkpt lat="40.252367" lon="-4.888183">
        <ele>1022.0</ele>
        <time>2018-09-15T11:21:39Z</time>
      </trkpt>
      <trkpt lat="40.252367" lon="-4.888183">
        <ele>1022.0</ele>
        <time>2018-09-15T11:21:40Z</time>
      </trkpt>
      <trkpt lat="40.252367" lon="-4.888183">
        <ele>1022.0</ele>
        <time>2018-09-15T11:21:41Z</time>
      </trkpt>
      <trkpt lat="40.252367" lon="-4.888183">
        <ele>1022.0</ele>
        <time>2018-09-15T11:21:42Z</time>
      </trkpt>
      <trkpt lat="40.252367" lon="-4.888183">
        <ele>1022.0</ele>
        <time>2018-09-15T11:21:43Z</time>
      </trkpt>
      <trkpt lat="40.252367" lon="-4.888183">
        <ele>1022.0</ele>
        <time>2018-09-15T11:21:44Z</time>
      </trkpt>
      <trkpt lat="40.252367" lon="-4.888183">
        <ele>1022.0</ele>
        <time>2018-09-15T11:21:45Z</time>
      </trkpt>
      <trkpt lat="40.252367" lon="-4.888183">
        <ele>1022.0</ele>
        <time>2018-09-15T11:21:46Z</time>
      </trkpt>
      <trkpt lat="40.252367" lon="-4.888183">
        <ele>1022.0</ele>
        <time>2018-09-15T11:21:47Z</time>
      </trkpt>
      <trkpt lat="40.252367" lon="-4.888183">
        <ele>1022.0</ele>
        <time>2018-09-15T11:21:48Z</time>
      </trkpt>
      <trkpt lat="40.252367" lon="-4.888183">
        <ele>1022.0</ele>
        <time>2018-09-15T11:21:49Z</time>
      </trkpt>
      <trkpt lat="40.252367" lon="-4.888183">
        <ele>1022.0</ele>
        <time>2018-09-15T11:21:50Z</time>
      </trkpt>
      <trkpt lat="40.252367" lon="-4.888183">
        <ele>1022.0</ele>
        <time>2018-09-15T11:21:51Z</time>
      </trkpt>
      <trkpt lat="40.252367" lon="-4.888183">
        <ele>1022.0</ele>
        <time>2018-09-15T11:21:52Z</time>
      </trkpt>
      <trkpt lat="40.252367" lon="-4.888183">
        <ele>1021.0</ele>
        <time>2018-09-15T11:21:53Z</time>
      </trkpt>
      <trkpt lat="40.252367" lon="-4.888183">
        <ele>1021.0</ele>
        <time>2018-09-15T11:21:54Z</time>
      </trkpt>
      <trkpt lat="40.252367" lon="-4.888183">
        <ele>1021.0</ele>
        <time>2018-09-15T11:21:55Z</time>
      </trkpt>
      <trkpt lat="40.252367" lon="-4.888183">
        <ele>1021.0</ele>
        <time>2018-09-15T11:21:56Z</time>
      </trkpt>
      <trkpt lat="40.252367" lon="-4.888183">
        <ele>1021.0</ele>
        <time>2018-09-15T11:21:57Z</time>
      </trkpt>
      <trkpt lat="40.252367" lon="-4.888183">
        <ele>1021.0</ele>
        <time>2018-09-15T11:21:58Z</time>
      </trkpt>
      <trkpt lat="40.252367" lon="-4.888183">
        <ele>1021.0</ele>
        <time>2018-09-15T11:21:59Z</time>
      </trkpt>
      <trkpt lat="40.252367" lon="-4.888183">
        <ele>1021.0</ele>
        <time>2018-09-15T11:22:00Z</time>
      </trkpt>
      <trkpt lat="40.252367" lon="-4.888183">
        <ele>1021.0</ele>
        <time>2018-09-15T11:22:01Z</time>
      </trkpt>
      <trkpt lat="40.252367" lon="-4.888183">
        <ele>1021.0</ele>
        <time>2018-09-15T11:22:02Z</time>
      </trkpt>
      <trkpt lat="40.252367" lon="-4.888183">
        <ele>1022.0</ele>
        <time>2018-09-15T11:22:03Z</time>
      </trkpt>
      <trkpt lat="40.252367" lon="-4.888183">
        <ele>1022.0</ele>
        <time>2018-09-15T11:22:04Z</time>
      </trkpt>
      <trkpt lat="40.252367" lon="-4.888183">
        <ele>1022.0</ele>
        <time>2018-09-15T11:22:05Z</time>
      </trkpt>
      <trkpt lat="40.252367" lon="-4.888183">
        <ele>1022.0</ele>
        <time>2018-09-15T11:22:06Z</time>
      </trkpt>
      <trkpt lat="40.252367" lon="-4.888183">
        <ele>1022.0</ele>
        <time>2018-09-15T11:22:07Z</time>
      </trkpt>
      <trkpt lat="40.252367" lon="-4.888183">
        <ele>1022.0</ele>
        <time>2018-09-15T11:22:08Z</time>
      </trkpt>
      <trkpt lat="40.252367" lon="-4.888183">
        <ele>1022.0</ele>
        <time>2018-09-15T11:22:09Z</time>
      </trkpt>
      <trkpt lat="40.252367" lon="-4.888183">
        <ele>1022.0</ele>
        <time>2018-09-15T11:22:10Z</time>
      </trkpt>
      <trkpt lat="40.252367" lon="-4.888183">
        <ele>1022.0</ele>
        <time>2018-09-15T11:22:11Z</time>
      </trkpt>
      <trkpt lat="40.252367" lon="-4.888183">
        <ele>1022.0</ele>
        <time>2018-09-15T11:22:12Z</time>
      </trkpt>
      <trkpt lat="40.252367" lon="-4.888183">
        <ele>1022.0</ele>
        <time>2018-09-15T11:22:13Z</time>
      </trkpt>
      <trkpt lat="40.252367" lon="-4.888183">
        <ele>1022.0</ele>
        <time>2018-09-15T11:22:14Z</time>
      </trkpt>
      <trkpt lat="40.252367" lon="-4.888183">
        <ele>1022.0</ele>
        <time>2018-09-15T11:22:15Z</time>
      </trkpt>
      <trkpt lat="40.252367" lon="-4.888183">
        <ele>1021.0</ele>
        <time>2018-09-15T11:22:16Z</time>
      </trkpt>
      <trkpt lat="40.252367" lon="-4.888183">
        <ele>1021.0</ele>
        <time>2018-09-15T11:22:17Z</time>
      </trkpt>
      <trkpt lat="40.252367" lon="-4.888183">
        <ele>1022.0</ele>
        <time>2018-09-15T11:22:18Z</time>
      </trkpt>
      <trkpt lat="40.252367" lon="-4.888183">
        <ele>1021.0</ele>
        <time>2018-09-15T11:22:19Z</time>
      </trkpt>
      <trkpt lat="40.252367" lon="-4.888183">
        <ele>1021.0</ele>
        <time>2018-09-15T11:22:20Z</time>
      </trkpt>
      <trkpt lat="40.252367" lon="-4.888183">
        <ele>1021.0</ele>
        <time>2018-09-15T11:22:21Z</time>
      </trkpt>
      <trkpt lat="40.252367" lon="-4.888183">
        <ele>1022.0</ele>
        <time>2018-09-15T11:22:22Z</time>
      </trkpt>
      <trkpt lat="40.252367" lon="-4.888183">
        <ele>1022.0</ele>
        <time>2018-09-15T11:22:23Z</time>
      </trkpt>
      <trkpt lat="40.252367" lon="-4.888183">
        <ele>1022.0</ele>
        <time>2018-09-15T11:22:24Z</time>
      </trkpt>
      <trkpt lat="40.252367" lon="-4.888183">
        <ele>1022.0</ele>
        <time>2018-09-15T11:22:25Z</time>
      </trkpt>
      <trkpt lat="40.252367" lon="-4.888183">
        <ele>1022.0</ele>
        <time>2018-09-15T11:22:26Z</time>
      </trkpt>
      <trkpt lat="40.252367" lon="-4.888183">
        <ele>1022.0</ele>
        <time>2018-09-15T11:22:27Z</time>
      </trkpt>
      <trkpt lat="40.252367" lon="-4.888183">
        <ele>1022.0</ele>
        <time>2018-09-15T11:22:28Z</time>
      </trkpt>
      <trkpt lat="40.252367" lon="-4.888183">
        <ele>1022.0</ele>
        <time>2018-09-15T11:22:29Z</time>
      </trkpt>
      <trkpt lat="40.252367" lon="-4.888183">
        <ele>1022.0</ele>
        <time>2018-09-15T11:22:30Z</time>
      </trkpt>
      <trkpt lat="40.252367" lon="-4.888183">
        <ele>1022.0</ele>
        <time>2018-09-15T11:22:31Z</time>
      </trkpt>
      <trkpt lat="40.252367" lon="-4.888183">
        <ele>1022.0</ele>
        <time>2018-09-15T11:22:32Z</time>
      </trkpt>
      <trkpt lat="40.252367" lon="-4.888183">
        <ele>1022.0</ele>
        <time>2018-09-15T11:22:33Z</time>
      </trkpt>
      <trkpt lat="40.252367" lon="-4.888183">
        <ele>1022.0</ele>
        <time>2018-09-15T11:22:34Z</time>
      </trkpt>
      <trkpt lat="40.252367" lon="-4.888183">
        <ele>1022.0</ele>
        <time>2018-09-15T11:22:35Z</time>
      </trkpt>
      <trkpt lat="40.252367" lon="-4.888183">
        <ele>1022.0</ele>
        <time>2018-09-15T11:22:36Z</time>
      </trkpt>
      <trkpt lat="40.252367" lon="-4.888183">
        <ele>1022.0</ele>
        <time>2018-09-15T11:22:37Z</time>
      </trkpt>
      <trkpt lat="40.252367" lon="-4.888183">
        <ele>1022.0</ele>
        <time>2018-09-15T11:22:38Z</time>
      </trkpt>
      <trkpt lat="40.252367" lon="-4.888183">
        <ele>1022.0</ele>
        <time>2018-09-15T11:22:39Z</time>
      </trkpt>
      <trkpt lat="40.252367" lon="-4.888183">
        <ele>1022.0</ele>
        <time>2018-09-15T11:22:40Z</time>
      </trkpt>
      <trkpt lat="40.252367" lon="-4.888183">
        <ele>1021.0</ele>
        <time>2018-09-15T11:22:41Z</time>
      </trkpt>
      <trkpt lat="40.252367" lon="-4.888183">
        <ele>1022.0</ele>
        <time>2018-09-15T11:22:42Z</time>
      </trkpt>
      <trkpt lat="40.252350" lon="-4.888183">
        <ele>1022.0</ele>
        <time>2018-09-15T11:22:43Z</time>
      </trkpt>
      <trkpt lat="40.252350" lon="-4.888183">
        <ele>1022.0</ele>
        <time>2018-09-15T11:22:44Z</time>
      </trkpt>
      <trkpt lat="40.252350" lon="-4.888183">
        <ele>1022.0</ele>
        <time>2018-09-15T11:22:45Z</time>
      </trkpt>
      <trkpt lat="40.252350" lon="-4.888183">
        <ele>1022.0</ele>
        <time>2018-09-15T11:22:46Z</time>
      </trkpt>
      <trkpt lat="40.252350" lon="-4.888183">
        <ele>1022.0</ele>
        <time>2018-09-15T11:22:47Z</time>
      </trkpt>
      <trkpt lat="40.252350" lon="-4.888183">
        <ele>1022.0</ele>
        <time>2018-09-15T11:22:48Z</time>
      </trkpt>
      <trkpt lat="40.252367" lon="-4.888183">
        <ele>1022.0</ele>
        <time>2018-09-15T11:22:49Z</time>
      </trkpt>
      <trkpt lat="40.252350" lon="-4.888183">
        <ele>1021.0</ele>
        <time>2018-09-15T11:22:50Z</time>
      </trkpt>
      <trkpt lat="40.252350" lon="-4.888183">
        <ele>1022.0</ele>
        <time>2018-09-15T11:22:51Z</time>
      </trkpt>
      <trkpt lat="40.252350" lon="-4.888183">
        <ele>1022.0</ele>
        <time>2018-09-15T11:22:52Z</time>
      </trkpt>
      <trkpt lat="40.252350" lon="-4.888183">
        <ele>1021.0</ele>
        <time>2018-09-15T11:22:53Z</time>
      </trkpt>
      <trkpt lat="40.252350" lon="-4.888183">
        <ele>1022.0</ele>
        <time>2018-09-15T11:22:54Z</time>
      </trkpt>
      <trkpt lat="40.252350" lon="-4.888183">
        <ele>1022.0</ele>
        <time>2018-09-15T11:22:55Z</time>
      </trkpt>
      <trkpt lat="40.252350" lon="-4.888200">
        <ele>1022.0</ele>
        <time>2018-09-15T11:22:56Z</time>
      </trkpt>
      <trkpt lat="40.252333" lon="-4.888200">
        <ele>1022.0</ele>
        <time>2018-09-15T11:22:57Z</time>
      </trkpt>
      <trkpt lat="40.252333" lon="-4.888200">
        <ele>1022.0</ele>
        <time>2018-09-15T11:22:58Z</time>
      </trkpt>
      <trkpt lat="40.252333" lon="-4.888200">
        <ele>1023.0</ele>
        <time>2018-09-15T11:22:59Z</time>
      </trkpt>
      <trkpt lat="40.252333" lon="-4.888200">
        <ele>1023.0</ele>
        <time>2018-09-15T11:23:00Z</time>
      </trkpt>
      <trkpt lat="40.252333" lon="-4.888200">
        <ele>1023.0</ele>
        <time>2018-09-15T11:23:01Z</time>
      </trkpt>
      <trkpt lat="40.252333" lon="-4.888200">
        <ele>1023.0</ele>
        <time>2018-09-15T11:23:02Z</time>
      </trkpt>
      <trkpt lat="40.252333" lon="-4.888200">
        <ele>1024.0</ele>
        <time>2018-09-15T11:23:03Z</time>
      </trkpt>
      <trkpt lat="40.252333" lon="-4.888200">
        <ele>1024.0</ele>
        <time>2018-09-15T11:23:04Z</time>
      </trkpt>
      <trkpt lat="40.252333" lon="-4.888200">
        <ele>1024.0</ele>
        <time>2018-09-15T11:23:05Z</time>
      </trkpt>
      <trkpt lat="40.252333" lon="-4.888200">
        <ele>1025.0</ele>
        <time>2018-09-15T11:23:06Z</time>
      </trkpt>
      <trkpt lat="40.252333" lon="-4.888200">
        <ele>1025.0</ele>
        <time>2018-09-15T11:23:07Z</time>
      </trkpt>
      <trkpt lat="40.252333" lon="-4.888200">
        <ele>1026.0</ele>
        <time>2018-09-15T11:23:08Z</time>
      </trkpt>
      <trkpt lat="40.252333" lon="-4.888200">
        <ele>1026.0</ele>
        <time>2018-09-15T11:23:09Z</time>
      </trkpt>
      <trkpt lat="40.252333" lon="-4.888200">
        <ele>1024.0</ele>
        <time>2018-09-15T11:23:10Z</time>
      </trkpt>
      <trkpt lat="40.252333" lon="-4.888200">
        <ele>1024.0</ele>
        <time>2018-09-15T11:23:11Z</time>
      </trkpt>
      <trkpt lat="40.252333" lon="-4.888200">
        <ele>1025.0</ele>
        <time>2018-09-15T11:23:12Z</time>
      </trkpt>
      <trkpt lat="40.252333" lon="-4.888200">
        <ele>1025.0</ele>
        <time>2018-09-15T11:23:13Z</time>
      </trkpt>
      <trkpt lat="40.252333" lon="-4.888200">
        <ele>1025.0</ele>
        <time>2018-09-15T11:23:14Z</time>
      </trkpt>
      <trkpt lat="40.252333" lon="-4.888200">
        <ele>1025.0</ele>
        <time>2018-09-15T11:23:15Z</time>
      </trkpt>
      <trkpt lat="40.252333" lon="-4.888200">
        <ele>1026.0</ele>
        <time>2018-09-15T11:23:16Z</time>
      </trkpt>
      <trkpt lat="40.252333" lon="-4.888200">
        <ele>1026.0</ele>
        <time>2018-09-15T11:23:17Z</time>
      </trkpt>
      <trkpt lat="40.252333" lon="-4.888200">
        <ele>1026.0</ele>
        <time>2018-09-15T11:23:18Z</time>
      </trkpt>
      <trkpt lat="40.252333" lon="-4.888200">
        <ele>1026.0</ele>
        <time>2018-09-15T11:23:19Z</time>
      </trkpt>
      <trkpt lat="40.252333" lon="-4.888200">
        <ele>1024.0</ele>
        <time>2018-09-15T11:23:20Z</time>
      </trkpt>
      <trkpt lat="40.252333" lon="-4.888200">
        <ele>1024.0</ele>
        <time>2018-09-15T11:23:21Z</time>
      </trkpt>
      <trkpt lat="40.252333" lon="-4.888183">
        <ele>1024.0</ele>
        <time>2018-09-15T11:23:22Z</time>
      </trkpt>
      <trkpt lat="40.252333" lon="-4.888183">
        <ele>1024.0</ele>
        <time>2018-09-15T11:23:23Z</time>
      </trkpt>
      <trkpt lat="40.252350" lon="-4.888183">
        <ele>1023.0</ele>
        <time>2018-09-15T11:23:24Z</time>
      </trkpt>
      <trkpt lat="40.252350" lon="-4.888183">
        <ele>1023.0</ele>
        <time>2018-09-15T11:23:25Z</time>
      </trkpt>
      <trkpt lat="40.252350" lon="-4.888183">
        <ele>1023.0</ele>
        <time>2018-09-15T11:23:26Z</time>
      </trkpt>
      <trkpt lat="40.252333" lon="-4.888183">
        <ele>1023.0</ele>
        <time>2018-09-15T11:23:27Z</time>
      </trkpt>
      <trkpt lat="40.252333" lon="-4.888183">
        <ele>1023.0</ele>
        <time>2018-09-15T11:23:28Z</time>
      </trkpt>
      <trkpt lat="40.252333" lon="-4.888183">
        <ele>1023.0</ele>
        <time>2018-09-15T11:23:29Z</time>
      </trkpt>
      <trkpt lat="40.252333" lon="-4.888183">
        <ele>1023.0</ele>
        <time>2018-09-15T11:23:30Z</time>
      </trkpt>
      <trkpt lat="40.252333" lon="-4.888183">
        <ele>1023.0</ele>
        <time>2018-09-15T11:23:31Z</time>
      </trkpt>
      <trkpt lat="40.252333" lon="-4.888200">
        <ele>1022.0</ele>
        <time>2018-09-15T11:23:32Z</time>
      </trkpt>
      <trkpt lat="40.252333" lon="-4.888200">
        <ele>1023.0</ele>
        <time>2018-09-15T11:23:33Z</time>
      </trkpt>
      <trkpt lat="40.252333" lon="-4.888200">
        <ele>1023.0</ele>
        <time>2018-09-15T11:23:34Z</time>
      </trkpt>
      <trkpt lat="40.252333" lon="-4.888200">
        <ele>1022.0</ele>
        <time>2018-09-15T11:23:35Z</time>
      </trkpt>
      <trkpt lat="40.252333" lon="-4.888183">
        <ele>1022.0</ele>
        <time>2018-09-15T11:23:36Z</time>
      </trkpt>
      <trkpt lat="40.252333" lon="-4.888183">
        <ele>1022.0</ele>
        <time>2018-09-15T11:23:37Z</time>
      </trkpt>
      <trkpt lat="40.252333" lon="-4.888183">
        <ele>1022.0</ele>
        <time>2018-09-15T11:23:38Z</time>
      </trkpt>
      <trkpt lat="40.252350" lon="-4.888183">
        <ele>1022.0</ele>
        <time>2018-09-15T11:23:39Z</time>
      </trkpt>
      <trkpt lat="40.252350" lon="-4.888183">
        <ele>1022.0</ele>
        <time>2018-09-15T11:23:40Z</time>
      </trkpt>
      <trkpt lat="40.252350" lon="-4.888183">
        <ele>1022.0</ele>
        <time>2018-09-15T11:23:41Z</time>
      </trkpt>
      <trkpt lat="40.252350" lon="-4.888183">
        <ele>1022.0</ele>
        <time>2018-09-15T11:23:42Z</time>
      </trkpt>
      <trkpt lat="40.252350" lon="-4.888183">
        <ele>1023.0</ele>
        <time>2018-09-15T11:23:43Z</time>
      </trkpt>
      <trkpt lat="40.252350" lon="-4.888183">
        <ele>1023.0</ele>
        <time>2018-09-15T11:23:44Z</time>
      </trkpt>
      <trkpt lat="40.252350" lon="-4.888183">
        <ele>1023.0</ele>
        <time>2018-09-15T11:23:45Z</time>
      </trkpt>
      <trkpt lat="40.252350" lon="-4.888183">
        <ele>1023.0</ele>
        <time>2018-09-15T11:23:46Z</time>
      </trkpt>
      <trkpt lat="40.252350" lon="-4.888183">
        <ele>1023.0</ele>
        <time>2018-09-15T11:23:47Z</time>
      </trkpt>
      <trkpt lat="40.252350" lon="-4.888183">
        <ele>1023.0</ele>
        <time>2018-09-15T11:23:48Z</time>
      </trkpt>
      <trkpt lat="40.252350" lon="-4.888183">
        <ele>1023.0</ele>
        <time>2018-09-15T11:23:49Z</time>
      </trkpt>
      <trkpt lat="40.252350" lon="-4.888167">
        <ele>1023.0</ele>
        <time>2018-09-15T11:23:50Z</time>
      </trkpt>
      <trkpt lat="40.252350" lon="-4.888167">
        <ele>1024.0</ele>
        <time>2018-09-15T11:23:51Z</time>
      </trkpt>
      <trkpt lat="40.252350" lon="-4.888167">
        <ele>1024.0</ele>
        <time>2018-09-15T11:23:52Z</time>
      </trkpt>
      <trkpt lat="40.252350" lon="-4.888167">
        <ele>1025.0</ele>
        <time>2018-09-15T11:23:53Z</time>
      </trkpt>
      <trkpt lat="40.252350" lon="-4.888167">
        <ele>1025.0</ele>
        <time>2018-09-15T11:23:54Z</time>
      </trkpt>
      <trkpt lat="40.252350" lon="-4.888167">
        <ele>1025.0</ele>
        <time>2018-09-15T11:23:55Z</time>
      </trkpt>
      <trkpt lat="40.252350" lon="-4.888167">
        <ele>1025.0</ele>
        <time>2018-09-15T11:23:56Z</time>
      </trkpt>
      <trkpt lat="40.252367" lon="-4.888167">
        <ele>1025.0</ele>
        <time>2018-09-15T11:23:57Z</time>
      </trkpt>
      <trkpt lat="40.252367" lon="-4.888167">
        <ele>1025.0</ele>
        <time>2018-09-15T11:23:58Z</time>
      </trkpt>
      <trkpt lat="40.252367" lon="-4.888167">
        <ele>1025.0</ele>
        <time>2018-09-15T11:23:59Z</time>
      </trkpt>
      <trkpt lat="40.252367" lon="-4.888167">
        <ele>1025.0</ele>
        <time>2018-09-15T11:24:00Z</time>
      </trkpt>
      <trkpt lat="40.252367" lon="-4.888167">
        <ele>1025.0</ele>
        <time>2018-09-15T11:24:01Z</time>
      </trkpt>
      <trkpt lat="40.252367" lon="-4.888167">
        <ele>1025.0</ele>
        <time>2018-09-15T11:24:02Z</time>
      </trkpt>
      <trkpt lat="40.252367" lon="-4.888167">
        <ele>1025.0</ele>
        <time>2018-09-15T11:24:03Z</time>
      </trkpt>
      <trkpt lat="40.252367" lon="-4.888167">
        <ele>1025.0</ele>
        <time>2018-09-15T11:24:04Z</time>
      </trkpt>
      <trkpt lat="40.252367" lon="-4.888167">
        <ele>1025.0</ele>
        <time>2018-09-15T11:24:05Z</time>
      </trkpt>
      <trkpt lat="40.252367" lon="-4.888167">
        <ele>1025.0</ele>
        <time>2018-09-15T11:24:06Z</time>
      </trkpt>
      <trkpt lat="40.252367" lon="-4.888167">
        <ele>1025.0</ele>
        <time>2018-09-15T11:24:07Z</time>
      </trkpt>
      <trkpt lat="40.252367" lon="-4.888167">
        <ele>1025.0</ele>
        <time>2018-09-15T11:24:08Z</time>
      </trkpt>
      <trkpt lat="40.252367" lon="-4.888167">
        <ele>1025.0</ele>
        <time>2018-09-15T11:24:09Z</time>
      </trkpt>
      <trkpt lat="40.252367" lon="-4.888167">
        <ele>1025.0</ele>
        <time>2018-09-15T11:24:10Z</time>
      </trkpt>
      <trkpt lat="40.252367" lon="-4.888167">
        <ele>1024.0</ele>
        <time>2018-09-15T11:24:11Z</time>
      </trkpt>
      <trkpt lat="40.252367" lon="-4.888167">
        <ele>1024.0</ele>
        <time>2018-09-15T11:24:12Z</time>
      </trkpt>
      <trkpt lat="40.252367" lon="-4.888167">
        <ele>1025.0</ele>
        <time>2018-09-15T11:24:13Z</time>
      </trkpt>
      <trkpt lat="40.252367" lon="-4.888167">
        <ele>1024.0</ele>
        <time>2018-09-15T11:24:14Z</time>
      </trkpt>
      <trkpt lat="40.252367" lon="-4.888167">
        <ele>1024.0</ele>
        <time>2018-09-15T11:24:15Z</time>
      </trkpt>
      <trkpt lat="40.252367" lon="-4.888167">
        <ele>1024.0</ele>
        <time>2018-09-15T11:24:16Z</time>
      </trkpt>
      <trkpt lat="40.252367" lon="-4.888167">
        <ele>1024.0</ele>
        <time>2018-09-15T11:24:17Z</time>
      </trkpt>
      <trkpt lat="40.252367" lon="-4.888167">
        <ele>1024.0</ele>
        <time>2018-09-15T11:24:18Z</time>
      </trkpt>
      <trkpt lat="40.252367" lon="-4.888167">
        <ele>1024.0</ele>
        <time>2018-09-15T11:24:19Z</time>
      </trkpt>
      <trkpt lat="40.252367" lon="-4.888167">
        <ele>1023.0</ele>
        <time>2018-09-15T11:24:20Z</time>
      </trkpt>
      <trkpt lat="40.252367" lon="-4.888167">
        <ele>1023.0</ele>
        <time>2018-09-15T11:24:21Z</time>
      </trkpt>
      <trkpt lat="40.252367" lon="-4.888167">
        <ele>1023.0</ele>
        <time>2018-09-15T11:24:22Z</time>
      </trkpt>
      <trkpt lat="40.252367" lon="-4.888167">
        <ele>1023.0</ele>
        <time>2018-09-15T11:24:23Z</time>
      </trkpt>
      <trkpt lat="40.252367" lon="-4.888167">
        <ele>1024.0</ele>
        <time>2018-09-15T11:24:24Z</time>
      </trkpt>
      <trkpt lat="40.252367" lon="-4.888167">
        <ele>1024.0</ele>
        <time>2018-09-15T11:24:25Z</time>
      </trkpt>
      <trkpt lat="40.252367" lon="-4.888167">
        <ele>1024.0</ele>
        <time>2018-09-15T11:24:26Z</time>
      </trkpt>
      <trkpt lat="40.252367" lon="-4.888167">
        <ele>1024.0</ele>
        <time>2018-09-15T11:24:27Z</time>
      </trkpt>
      <trkpt lat="40.252367" lon="-4.888167">
        <ele>1024.0</ele>
        <time>2018-09-15T11:24:28Z</time>
      </trkpt>
      <trkpt lat="40.252367" lon="-4.888167">
        <ele>1024.0</ele>
        <time>2018-09-15T11:24:29Z</time>
      </trkpt>
      <trkpt lat="40.252367" lon="-4.888167">
        <ele>1024.0</ele>
        <time>2018-09-15T11:24:30Z</time>
      </trkpt>
      <trkpt lat="40.252367" lon="-4.888167">
        <ele>1024.0</ele>
        <time>2018-09-15T11:24:31Z</time>
      </trkpt>
      <trkpt lat="40.252367" lon="-4.888167">
        <ele>1024.0</ele>
        <time>2018-09-15T11:24:32Z</time>
      </trkpt>
      <trkpt lat="40.252367" lon="-4.888167">
        <ele>1024.0</ele>
        <time>2018-09-15T11:24:33Z</time>
      </trkpt>
      <trkpt lat="40.252367" lon="-4.888167">
        <ele>1023.0</ele>
        <time>2018-09-15T11:24:34Z</time>
      </trkpt>
      <trkpt lat="40.252367" lon="-4.888167">
        <ele>1023.0</ele>
        <time>2018-09-15T11:24:35Z</time>
      </trkpt>
      <trkpt lat="40.252367" lon="-4.888167">
        <ele>1023.0</ele>
        <time>2018-09-15T11:24:36Z</time>
      </trkpt>
      <trkpt lat="40.252367" lon="-4.888167">
        <ele>1023.0</ele>
        <time>2018-09-15T11:24:37Z</time>
      </trkpt>
      <trkpt lat="40.252367" lon="-4.888167">
        <ele>1023.0</ele>
        <time>2018-09-15T11:24:38Z</time>
      </trkpt>
      <trkpt lat="40.252367" lon="-4.888167">
        <ele>1023.0</ele>
        <time>2018-09-15T11:24:39Z</time>
      </trkpt>
      <trkpt lat="40.252367" lon="-4.888167">
        <ele>1023.0</ele>
        <time>2018-09-15T11:24:40Z</time>
      </trkpt>
      <trkpt lat="40.252367" lon="-4.888167">
        <ele>1023.0</ele>
        <time>2018-09-15T11:24:41Z</time>
      </trkpt>
      <trkpt lat="40.252367" lon="-4.888167">
        <ele>1023.0</ele>
        <time>2018-09-15T11:24:42Z</time>
      </trkpt>
      <trkpt lat="40.252367" lon="-4.888167">
        <ele>1023.0</ele>
        <time>2018-09-15T11:24:43Z</time>
      </trkpt>
      <trkpt lat="40.252367" lon="-4.888167">
        <ele>1023.0</ele>
        <time>2018-09-15T11:24:44Z</time>
      </trkpt>
      <trkpt lat="40.252367" lon="-4.888167">
        <ele>1023.0</ele>
        <time>2018-09-15T11:24:45Z</time>
      </trkpt>
      <trkpt lat="40.252367" lon="-4.888167">
        <ele>1023.0</ele>
        <time>2018-09-15T11:24:46Z</time>
      </trkpt>
      <trkpt lat="40.252367" lon="-4.888167">
        <ele>1023.0</ele>
        <time>2018-09-15T11:24:47Z</time>
      </trkpt>
      <trkpt lat="40.252367" lon="-4.888167">
        <ele>1023.0</ele>
        <time>2018-09-15T11:24:48Z</time>
      </trkpt>
      <trkpt lat="40.252367" lon="-4.888167">
        <ele>1023.0</ele>
        <time>2018-09-15T11:24:49Z</time>
      </trkpt>
      <trkpt lat="40.252367" lon="-4.888167">
        <ele>1023.0</ele>
        <time>2018-09-15T11:24:50Z</time>
      </trkpt>
      <trkpt lat="40.252367" lon="-4.888167">
        <ele>1023.0</ele>
        <time>2018-09-15T11:24:51Z</time>
      </trkpt>
      <trkpt lat="40.252367" lon="-4.888167">
        <ele>1023.0</ele>
        <time>2018-09-15T11:24:52Z</time>
      </trkpt>
      <trkpt lat="40.252367" lon="-4.888167">
        <ele>1023.0</ele>
        <time>2018-09-15T11:24:53Z</time>
      </trkpt>
      <trkpt lat="40.252367" lon="-4.888167">
        <ele>1023.0</ele>
        <time>2018-09-15T11:24:54Z</time>
      </trkpt>
      <trkpt lat="40.252367" lon="-4.888167">
        <ele>1023.0</ele>
        <time>2018-09-15T11:24:55Z</time>
      </trkpt>
      <trkpt lat="40.252367" lon="-4.888167">
        <ele>1023.0</ele>
        <time>2018-09-15T11:24:56Z</time>
      </trkpt>
      <trkpt lat="40.252367" lon="-4.888167">
        <ele>1023.0</ele>
        <time>2018-09-15T11:24:57Z</time>
      </trkpt>
      <trkpt lat="40.252367" lon="-4.888167">
        <ele>1023.0</ele>
        <time>2018-09-15T11:24:58Z</time>
      </trkpt>
      <trkpt lat="40.252367" lon="-4.888167">
        <ele>1023.0</ele>
        <time>2018-09-15T11:24:59Z</time>
      </trkpt>
      <trkpt lat="40.252367" lon="-4.888167">
        <ele>1024.0</ele>
        <time>2018-09-15T11:25:00Z</time>
      </trkpt>
      <trkpt lat="40.252367" lon="-4.888183">
        <ele>1024.0</ele>
        <time>2018-09-15T11:25:01Z</time>
      </trkpt>
      <trkpt lat="40.252367" lon="-4.888183">
        <ele>1024.0</ele>
        <time>2018-09-15T11:25:02Z</time>
      </trkpt>
      <trkpt lat="40.252367" lon="-4.888183">
        <ele>1024.0</ele>
        <time>2018-09-15T11:25:03Z</time>
      </trkpt>
      <trkpt lat="40.252367" lon="-4.888183">
        <ele>1023.0</ele>
        <time>2018-09-15T11:25:04Z</time>
      </trkpt>
      <trkpt lat="40.252367" lon="-4.888183">
        <ele>1023.0</ele>
        <time>2018-09-15T11:25:05Z</time>
      </trkpt>
      <trkpt lat="40.252367" lon="-4.888183">
        <ele>1023.0</ele>
        <time>2018-09-15T11:25:06Z</time>
      </trkpt>
      <trkpt lat="40.252367" lon="-4.888167">
        <ele>1023.0</ele>
        <time>2018-09-15T11:25:07Z</time>
      </trkpt>
      <trkpt lat="40.252367" lon="-4.888167">
        <ele>1023.0</ele>
        <time>2018-09-15T11:25:08Z</time>
      </trkpt>
      <trkpt lat="40.252367" lon="-4.888167">
        <ele>1023.0</ele>
        <time>2018-09-15T11:25:09Z</time>
      </trkpt>
      <trkpt lat="40.252367" lon="-4.888167">
        <ele>1023.0</ele>
        <time>2018-09-15T11:25:10Z</time>
      </trkpt>
      <trkpt lat="40.252367" lon="-4.888167">
        <ele>1023.0</ele>
        <time>2018-09-15T11:25:11Z</time>
      </trkpt>
      <trkpt lat="40.252367" lon="-4.888167">
        <ele>1023.0</ele>
        <time>2018-09-15T11:25:12Z</time>
      </trkpt>
      <trkpt lat="40.252383" lon="-4.888167">
        <ele>1023.0</ele>
        <time>2018-09-15T11:25:13Z</time>
      </trkpt>
      <trkpt lat="40.252383" lon="-4.888167">
        <ele>1024.0</ele>
        <time>2018-09-15T11:25:14Z</time>
      </trkpt>
      <trkpt lat="40.252383" lon="-4.888167">
        <ele>1024.0</ele>
        <time>2018-09-15T11:25:15Z</time>
      </trkpt>
      <trkpt lat="40.252383" lon="-4.888167">
        <ele>1024.0</ele>
        <time>2018-09-15T11:25:16Z</time>
      </trkpt>
      <trkpt lat="40.252383" lon="-4.888167">
        <ele>1024.0</ele>
        <time>2018-09-15T11:25:17Z</time>
      </trkpt>
      <trkpt lat="40.252383" lon="-4.888167">
        <ele>1024.0</ele>
        <time>2018-09-15T11:25:18Z</time>
      </trkpt>
      <trkpt lat="40.252383" lon="-4.888167">
        <ele>1024.0</ele>
        <time>2018-09-15T11:25:19Z</time>
      </trkpt>
      <trkpt lat="40.252383" lon="-4.888183">
        <ele>1023.0</ele>
        <time>2018-09-15T11:25:20Z</time>
      </trkpt>
      <trkpt lat="40.252383" lon="-4.888183">
        <ele>1023.0</ele>
        <time>2018-09-15T11:25:21Z</time>
      </trkpt>
      <trkpt lat="40.252383" lon="-4.888183">
        <ele>1023.0</ele>
        <time>2018-09-15T11:25:22Z</time>
      </trkpt>
      <trkpt lat="40.252383" lon="-4.888183">
        <ele>1023.0</ele>
        <time>2018-09-15T11:25:23Z</time>
      </trkpt>
      <trkpt lat="40.252383" lon="-4.888183">
        <ele>1022.0</ele>
        <time>2018-09-15T11:25:24Z</time>
      </trkpt>
      <trkpt lat="40.252383" lon="-4.888183">
        <ele>1022.0</ele>
        <time>2018-09-15T11:25:25Z</time>
      </trkpt>
      <trkpt lat="40.252383" lon="-4.888183">
        <ele>1022.0</ele>
        <time>2018-09-15T11:25:26Z</time>
      </trkpt>
      <trkpt lat="40.252383" lon="-4.888183">
        <ele>1022.0</ele>
        <time>2018-09-15T11:25:27Z</time>
      </trkpt>
      <trkpt lat="40.252383" lon="-4.888183">
        <ele>1022.0</ele>
        <time>2018-09-15T11:25:28Z</time>
      </trkpt>
      <trkpt lat="40.252367" lon="-4.888183">
        <ele>1022.0</ele>
        <time>2018-09-15T11:25:29Z</time>
      </trkpt>
      <trkpt lat="40.252367" lon="-4.888183">
        <ele>1022.0</ele>
        <time>2018-09-15T11:25:30Z</time>
      </trkpt>
      <trkpt lat="40.252367" lon="-4.888183">
        <ele>1022.0</ele>
        <time>2018-09-15T11:25:31Z</time>
      </trkpt>
      <trkpt lat="40.252367" lon="-4.888183">
        <ele>1022.0</ele>
        <time>2018-09-15T11:25:32Z</time>
      </trkpt>
      <trkpt lat="40.252367" lon="-4.888183">
        <ele>1022.0</ele>
        <time>2018-09-15T11:25:33Z</time>
      </trkpt>
      <trkpt lat="40.252367" lon="-4.888183">
        <ele>1022.0</ele>
        <time>2018-09-15T11:25:34Z</time>
      </trkpt>
      <trkpt lat="40.252367" lon="-4.888183">
        <ele>1021.0</ele>
        <time>2018-09-15T11:25:35Z</time>
      </trkpt>
      <trkpt lat="40.252367" lon="-4.888183">
        <ele>1021.0</ele>
        <time>2018-09-15T11:25:36Z</time>
      </trkpt>
      <trkpt lat="40.252367" lon="-4.888183">
        <ele>1021.0</ele>
        <time>2018-09-15T11:25:37Z</time>
      </trkpt>
      <trkpt lat="40.252367" lon="-4.888183">
        <ele>1021.0</ele>
        <time>2018-09-15T11:25:38Z</time>
      </trkpt>
      <trkpt lat="40.252367" lon="-4.888183">
        <ele>1021.0</ele>
        <time>2018-09-15T11:25:39Z</time>
      </trkpt>
      <trkpt lat="40.252367" lon="-4.888183">
        <ele>1021.0</ele>
        <time>2018-09-15T11:25:40Z</time>
      </trkpt>
      <trkpt lat="40.252367" lon="-4.888183">
        <ele>1021.0</ele>
        <time>2018-09-15T11:25:41Z</time>
      </trkpt>
      <trkpt lat="40.252367" lon="-4.888183">
        <ele>1021.0</ele>
        <time>2018-09-15T11:25:42Z</time>
      </trkpt>
      <trkpt lat="40.252367" lon="-4.888183">
        <ele>1021.0</ele>
        <time>2018-09-15T11:25:43Z</time>
      </trkpt>
      <trkpt lat="40.252367" lon="-4.888183">
        <ele>1021.0</ele>
        <time>2018-09-15T11:25:44Z</time>
      </trkpt>
      <trkpt lat="40.252367" lon="-4.888183">
        <ele>1021.0</ele>
        <time>2018-09-15T11:25:45Z</time>
      </trkpt>
      <trkpt lat="40.252367" lon="-4.888183">
        <ele>1021.0</ele>
        <time>2018-09-15T11:25:46Z</time>
      </trkpt>
      <trkpt lat="40.252367" lon="-4.888183">
        <ele>1021.0</ele>
        <time>2018-09-15T11:25:47Z</time>
      </trkpt>
      <trkpt lat="40.252367" lon="-4.888183">
        <ele>1021.0</ele>
        <time>2018-09-15T11:25:48Z</time>
      </trkpt>
      <trkpt lat="40.252367" lon="-4.888183">
        <ele>1021.0</ele>
        <time>2018-09-15T11:25:49Z</time>
      </trkpt>
      <trkpt lat="40.252367" lon="-4.888183">
        <ele>1021.0</ele>
        <time>2018-09-15T11:25:50Z</time>
      </trkpt>
      <trkpt lat="40.252367" lon="-4.888183">
        <ele>1021.0</ele>
        <time>2018-09-15T11:25:51Z</time>
      </trkpt>
      <trkpt lat="40.252367" lon="-4.888183">
        <ele>1021.0</ele>
        <time>2018-09-15T11:25:52Z</time>
      </trkpt>
      <trkpt lat="40.252367" lon="-4.888183">
        <ele>1021.0</ele>
        <time>2018-09-15T11:25:53Z</time>
      </trkpt>
      <trkpt lat="40.252367" lon="-4.888183">
        <ele>1021.0</ele>
        <time>2018-09-15T11:25:54Z</time>
      </trkpt>
      <trkpt lat="40.252367" lon="-4.888183">
        <ele>1021.0</ele>
        <time>2018-09-15T11:25:55Z</time>
      </trkpt>
      <trkpt lat="40.252383" lon="-4.888167">
        <ele>1021.0</ele>
        <time>2018-09-15T11:25:56Z</time>
      </trkpt>
      <trkpt lat="40.252383" lon="-4.888167">
        <ele>1022.0</ele>
        <time>2018-09-15T11:25:57Z</time>
      </trkpt>
      <trkpt lat="40.252383" lon="-4.888150">
        <ele>1022.0</ele>
        <time>2018-09-15T11:25:58Z</time>
      </trkpt>
      <trkpt lat="40.252383" lon="-4.888150">
        <ele>1022.0</ele>
        <time>2018-09-15T11:25:59Z</time>
      </trkpt>
      <trkpt lat="40.252383" lon="-4.888150">
        <ele>1022.0</ele>
        <time>2018-09-15T11:26:00Z</time>
      </trkpt>
      <trkpt lat="40.252383" lon="-4.888150">
        <ele>1023.0</ele>
        <time>2018-09-15T11:26:01Z</time>
      </trkpt>
      <trkpt lat="40.252383" lon="-4.888150">
        <ele>1023.0</ele>
        <time>2018-09-15T11:26:02Z</time>
      </trkpt>
      <trkpt lat="40.252383" lon="-4.888150">
        <ele>1023.0</ele>
        <time>2018-09-15T11:26:03Z</time>
      </trkpt>
      <trkpt lat="40.252383" lon="-4.888150">
        <ele>1023.0</ele>
        <time>2018-09-15T11:26:04Z</time>
      </trkpt>
      <trkpt lat="40.252383" lon="-4.888150">
        <ele>1023.0</ele>
        <time>2018-09-15T11:26:05Z</time>
      </trkpt>
      <trkpt lat="40.252383" lon="-4.888150">
        <ele>1023.0</ele>
        <time>2018-09-15T11:26:06Z</time>
      </trkpt>
      <trkpt lat="40.252383" lon="-4.888150">
        <ele>1024.0</ele>
        <time>2018-09-15T11:26:07Z</time>
      </trkpt>
      <trkpt lat="40.252383" lon="-4.888150">
        <ele>1024.0</ele>
        <time>2018-09-15T11:26:08Z</time>
      </trkpt>
      <trkpt lat="40.252383" lon="-4.888150">
        <ele>1024.0</ele>
        <time>2018-09-15T11:26:09Z</time>
      </trkpt>
      <trkpt lat="40.252383" lon="-4.888150">
        <ele>1024.0</ele>
        <time>2018-09-15T11:26:10Z</time>
      </trkpt>
      <trkpt lat="40.252383" lon="-4.888150">
        <ele>1024.0</ele>
        <time>2018-09-15T11:26:11Z</time>
      </trkpt>
      <trkpt lat="40.252383" lon="-4.888150">
        <ele>1024.0</ele>
        <time>2018-09-15T11:26:12Z</time>
      </trkpt>
      <trkpt lat="40.252383" lon="-4.888150">
        <ele>1025.0</ele>
        <time>2018-09-15T11:26:13Z</time>
      </trkpt>
      <trkpt lat="40.252383" lon="-4.888150">
        <ele>1025.0</ele>
        <time>2018-09-15T11:26:14Z</time>
      </trkpt>
      <trkpt lat="40.252383" lon="-4.888150">
        <ele>1025.0</ele>
        <time>2018-09-15T11:26:15Z</time>
      </trkpt>
      <trkpt lat="40.252383" lon="-4.888150">
        <ele>1025.0</ele>
        <time>2018-09-15T11:26:16Z</time>
      </trkpt>
      <trkpt lat="40.252383" lon="-4.888150">
        <ele>1025.0</ele>
        <time>2018-09-15T11:26:17Z</time>
      </trkpt>
      <trkpt lat="40.252383" lon="-4.888150">
        <ele>1025.0</ele>
        <time>2018-09-15T11:26:18Z</time>
      </trkpt>
      <trkpt lat="40.252383" lon="-4.888150">
        <ele>1025.0</ele>
        <time>2018-09-15T11:26:19Z</time>
      </trkpt>
      <trkpt lat="40.252383" lon="-4.888150">
        <ele>1025.0</ele>
        <time>2018-09-15T11:26:20Z</time>
      </trkpt>
      <trkpt lat="40.252383" lon="-4.888150">
        <ele>1025.0</ele>
        <time>2018-09-15T11:26:21Z</time>
      </trkpt>
      <trkpt lat="40.252383" lon="-4.888150">
        <ele>1024.0</ele>
        <time>2018-09-15T11:26:22Z</time>
      </trkpt>
      <trkpt lat="40.252383" lon="-4.888150">
        <ele>1024.0</ele>
        <time>2018-09-15T11:26:23Z</time>
      </trkpt>
      <trkpt lat="40.252383" lon="-4.888150">
        <ele>1024.0</ele>
        <time>2018-09-15T11:26:24Z</time>
      </trkpt>
      <trkpt lat="40.252383" lon="-4.888150">
        <ele>1024.0</ele>
        <time>2018-09-15T11:26:25Z</time>
      </trkpt>
      <trkpt lat="40.252383" lon="-4.888150">
        <ele>1024.0</ele>
        <time>2018-09-15T11:26:26Z</time>
      </trkpt>
      <trkpt lat="40.252383" lon="-4.888150">
        <ele>1024.0</ele>
        <time>2018-09-15T11:26:27Z</time>
      </trkpt>
      <trkpt lat="40.252383" lon="-4.888150">
        <ele>1024.0</ele>
        <time>2018-09-15T11:26:28Z</time>
      </trkpt>
      <trkpt lat="40.252383" lon="-4.888150">
        <ele>1024.0</ele>
        <time>2018-09-15T11:26:29Z</time>
      </trkpt>
      <trkpt lat="40.252383" lon="-4.888150">
        <ele>1024.0</ele>
        <time>2018-09-15T11:26:30Z</time>
      </trkpt>
      <trkpt lat="40.252383" lon="-4.888150">
        <ele>1024.0</ele>
        <time>2018-09-15T11:26:31Z</time>
      </trkpt>
      <trkpt lat="40.252383" lon="-4.888150">
        <ele>1024.0</ele>
        <time>2018-09-15T11:26:32Z</time>
      </trkpt>
      <trkpt lat="40.252383" lon="-4.888150">
        <ele>1023.0</ele>
        <time>2018-09-15T11:26:33Z</time>
      </trkpt>
      <trkpt lat="40.252383" lon="-4.888150">
        <ele>1023.0</ele>
        <time>2018-09-15T11:26:34Z</time>
      </trkpt>
      <trkpt lat="40.252383" lon="-4.888150">
        <ele>1023.0</ele>
        <time>2018-09-15T11:26:35Z</time>
      </trkpt>
      <trkpt lat="40.252383" lon="-4.888150">
        <ele>1023.0</ele>
        <time>2018-09-15T11:26:36Z</time>
      </trkpt>
      <trkpt lat="40.252383" lon="-4.888150">
        <ele>1024.0</ele>
        <time>2018-09-15T11:26:37Z</time>
      </trkpt>
      <trkpt lat="40.252383" lon="-4.888150">
        <ele>1024.0</ele>
        <time>2018-09-15T11:26:38Z</time>
      </trkpt>
      <trkpt lat="40.252383" lon="-4.888150">
        <ele>1024.0</ele>
        <time>2018-09-15T11:26:39Z</time>
      </trkpt>
      <trkpt lat="40.252383" lon="-4.888150">
        <ele>1024.0</ele>
        <time>2018-09-15T11:26:40Z</time>
      </trkpt>
      <trkpt lat="40.252383" lon="-4.888150">
        <ele>1024.0</ele>
        <time>2018-09-15T11:26:41Z</time>
      </trkpt>
      <trkpt lat="40.252383" lon="-4.888150">
        <ele>1024.0</ele>
        <time>2018-09-15T11:26:42Z</time>
      </trkpt>
      <trkpt lat="40.252383" lon="-4.888150">
        <ele>1024.0</ele>
        <time>2018-09-15T11:26:43Z</time>
      </trkpt>
      <trkpt lat="40.252383" lon="-4.888150">
        <ele>1024.0</ele>
        <time>2018-09-15T11:26:44Z</time>
      </trkpt>
      <trkpt lat="40.252383" lon="-4.888150">
        <ele>1024.0</ele>
        <time>2018-09-15T11:26:45Z</time>
      </trkpt>
      <trkpt lat="40.252383" lon="-4.888150">
        <ele>1024.0</ele>
        <time>2018-09-15T11:26:46Z</time>
      </trkpt>
      <trkpt lat="40.252383" lon="-4.888150">
        <ele>1024.0</ele>
        <time>2018-09-15T11:26:47Z</time>
      </trkpt>
      <trkpt lat="40.252383" lon="-4.888150">
        <ele>1024.0</ele>
        <time>2018-09-15T11:26:48Z</time>
      </trkpt>
      <trkpt lat="40.252383" lon="-4.888150">
        <ele>1024.0</ele>
        <time>2018-09-15T11:26:49Z</time>
      </trkpt>
      <trkpt lat="40.252383" lon="-4.888150">
        <ele>1024.0</ele>
        <time>2018-09-15T11:26:50Z</time>
      </trkpt>
      <trkpt lat="40.252383" lon="-4.888150">
        <ele>1024.0</ele>
        <time>2018-09-15T11:26:51Z</time>
      </trkpt>
      <trkpt lat="40.252383" lon="-4.888150">
        <ele>1024.0</ele>
        <time>2018-09-15T11:26:52Z</time>
      </trkpt>
      <trkpt lat="40.252383" lon="-4.888150">
        <ele>1024.0</ele>
        <time>2018-09-15T11:26:53Z</time>
      </trkpt>
      <trkpt lat="40.252383" lon="-4.888150">
        <ele>1024.0</ele>
        <time>2018-09-15T11:26:54Z</time>
      </trkpt>
      <trkpt lat="40.252383" lon="-4.888150">
        <ele>1025.0</ele>
        <time>2018-09-15T11:26:55Z</time>
      </trkpt>
      <trkpt lat="40.252383" lon="-4.888150">
        <ele>1025.0</ele>
        <time>2018-09-15T11:26:56Z</time>
      </trkpt>
      <trkpt lat="40.252383" lon="-4.888150">
        <ele>1025.0</ele>
        <time>2018-09-15T11:26:57Z</time>
      </trkpt>
      <trkpt lat="40.252383" lon="-4.888150">
        <ele>1025.0</ele>
        <time>2018-09-15T11:26:58Z</time>
      </trkpt>
      <trkpt lat="40.252383" lon="-4.888150">
        <ele>1025.0</ele>
        <time>2018-09-15T11:26:59Z</time>
      </trkpt>
      <trkpt lat="40.252383" lon="-4.888150">
        <ele>1025.0</ele>
        <time>2018-09-15T11:27:00Z</time>
      </trkpt>
      <trkpt lat="40.252383" lon="-4.888150">
        <ele>1025.0</ele>
        <time>2018-09-15T11:27:01Z</time>
      </trkpt>
      <trkpt lat="40.252383" lon="-4.888150">
        <ele>1025.0</ele>
        <time>2018-09-15T11:27:02Z</time>
      </trkpt>
      <trkpt lat="40.252383" lon="-4.888150">
        <ele>1025.0</ele>
        <time>2018-09-15T11:27:03Z</time>
      </trkpt>
      <trkpt lat="40.252383" lon="-4.888150">
        <ele>1025.0</ele>
        <time>2018-09-15T11:27:04Z</time>
      </trkpt>
      <trkpt lat="40.252383" lon="-4.888150">
        <ele>1025.0</ele>
        <time>2018-09-15T11:27:05Z</time>
      </trkpt>
      <trkpt lat="40.252383" lon="-4.888150">
        <ele>1025.0</ele>
        <time>2018-09-15T11:27:06Z</time>
      </trkpt>
      <trkpt lat="40.252383" lon="-4.888150">
        <ele>1025.0</ele>
        <time>2018-09-15T11:27:07Z</time>
      </trkpt>
      <trkpt lat="40.252383" lon="-4.888150">
        <ele>1025.0</ele>
        <time>2018-09-15T11:27:08Z</time>
      </trkpt>
      <trkpt lat="40.252383" lon="-4.888150">
        <ele>1025.0</ele>
        <time>2018-09-15T11:27:09Z</time>
      </trkpt>
      <trkpt lat="40.252383" lon="-4.888150">
        <ele>1025.0</ele>
        <time>2018-09-15T11:27:10Z</time>
      </trkpt>
      <trkpt lat="40.252383" lon="-4.888150">
        <ele>1025.0</ele>
        <time>2018-09-15T11:27:11Z</time>
      </trkpt>
      <trkpt lat="40.252383" lon="-4.888150">
        <ele>1025.0</ele>
        <time>2018-09-15T11:27:12Z</time>
      </trkpt>
      <trkpt lat="40.252383" lon="-4.888150">
        <ele>1025.0</ele>
        <time>2018-09-15T11:27:13Z</time>
      </trkpt>
      <trkpt lat="40.252383" lon="-4.888150">
        <ele>1025.0</ele>
        <time>2018-09-15T11:27:14Z</time>
      </trkpt>
      <trkpt lat="40.252383" lon="-4.888150">
        <ele>1025.0</ele>
        <time>2018-09-15T11:27:15Z</time>
      </trkpt>
      <trkpt lat="40.252383" lon="-4.888150">
        <ele>1025.0</ele>
        <time>2018-09-15T11:27:16Z</time>
      </trkpt>
      <trkpt lat="40.252383" lon="-4.888150">
        <ele>1025.0</ele>
        <time>2018-09-15T11:27:17Z</time>
      </trkpt>
      <trkpt lat="40.252383" lon="-4.888150">
        <ele>1025.0</ele>
        <time>2018-09-15T11:27:18Z</time>
      </trkpt>
      <trkpt lat="40.252400" lon="-4.888167">
        <ele>1025.0</ele>
        <time>2018-09-15T11:27:19Z</time>
      </trkpt>
      <trkpt lat="40.252400" lon="-4.888167">
        <ele>1025.0</ele>
        <time>2018-09-15T11:27:20Z</time>
      </trkpt>
      <trkpt lat="40.252400" lon="-4.888167">
        <ele>1025.0</ele>
        <time>2018-09-15T11:27:21Z</time>
      </trkpt>
      <trkpt lat="40.252400" lon="-4.888167">
        <ele>1025.0</ele>
        <time>2018-09-15T11:27:22Z</time>
      </trkpt>
      <trkpt lat="40.252400" lon="-4.888167">
        <ele>1025.0</ele>
        <time>2018-09-15T11:27:23Z</time>
      </trkpt>
      <trkpt lat="40.252383" lon="-4.888167">
        <ele>1025.0</ele>
        <time>2018-09-15T11:27:24Z</time>
      </trkpt>
      <trkpt lat="40.252383" lon="-4.888167">
        <ele>1025.0</ele>
        <time>2018-09-15T11:27:25Z</time>
      </trkpt>
      <trkpt lat="40.252383" lon="-4.888167">
        <ele>1025.0</ele>
        <time>2018-09-15T11:27:26Z</time>
      </trkpt>
      <trkpt lat="40.252367" lon="-4.888167">
        <ele>1025.0</ele>
        <time>2018-09-15T11:27:27Z</time>
      </trkpt>
      <trkpt lat="40.252367" lon="-4.888150">
        <ele>1025.0</ele>
        <time>2018-09-15T11:27:28Z</time>
      </trkpt>
      <trkpt lat="40.252350" lon="-4.888167">
        <ele>1026.0</ele>
        <time>2018-09-15T11:27:29Z</time>
      </trkpt>
      <trkpt lat="40.252350" lon="-4.888167">
        <ele>1026.0</ele>
        <time>2018-09-15T11:27:30Z</time>
      </trkpt>
      <trkpt lat="40.252333" lon="-4.888150">
        <ele>1026.0</ele>
        <time>2018-09-15T11:27:31Z</time>
      </trkpt>
      <trkpt lat="40.252333" lon="-4.888150">
        <ele>1026.0</ele>
        <time>2018-09-15T11:27:32Z</time>
      </trkpt>
      <trkpt lat="40.252317" lon="-4.888167">
        <ele>1025.0</ele>
        <time>2018-09-15T11:27:33Z</time>
      </trkpt>
      <trkpt lat="40.252317" lon="-4.888167">
        <ele>1025.0</ele>
        <time>2018-09-15T11:27:34Z</time>
      </trkpt>
      <trkpt lat="40.252317" lon="-4.888167">
        <ele>1025.0</ele>
        <time>2018-09-15T11:27:35Z</time>
      </trkpt>
      <trkpt lat="40.252300" lon="-4.888150">
        <ele>1025.0</ele>
        <time>2018-09-15T11:27:36Z</time>
      </trkpt>
      <trkpt lat="40.252300" lon="-4.888150">
        <ele>1025.0</ele>
        <time>2018-09-15T11:27:37Z</time>
      </trkpt>
      <trkpt lat="40.252283" lon="-4.888150">
        <ele>1025.0</ele>
        <time>2018-09-15T11:27:38Z</time>
      </trkpt>
      <trkpt lat="40.252283" lon="-4.888150">
        <ele>1025.0</ele>
        <time>2018-09-15T11:27:39Z</time>
      </trkpt>
      <trkpt lat="40.252267" lon="-4.888133">
        <ele>1025.0</ele>
        <time>2018-09-15T11:27:40Z</time>
      </trkpt>
      <trkpt lat="40.252267" lon="-4.888133">
        <ele>1025.0</ele>
        <time>2018-09-15T11:27:41Z</time>
      </trkpt>
      <trkpt lat="40.252267" lon="-4.888133">
        <ele>1025.0</ele>
        <time>2018-09-15T11:27:42Z</time>
      </trkpt>
      <trkpt lat="40.252250" lon="-4.888117">
        <ele>1025.0</ele>
        <time>2018-09-15T11:27:43Z</time>
      </trkpt>
      <trkpt lat="40.252233" lon="-4.888117">
        <ele>1025.0</ele>
        <time>2018-09-15T11:27:44Z</time>
      </trkpt>
      <trkpt lat="40.252233" lon="-4.888117">
        <ele>1024.0</ele>
        <time>2018-09-15T11:27:45Z</time>
      </trkpt>
      <trkpt lat="40.252233" lon="-4.888117">
        <ele>1023.0</ele>
        <time>2018-09-15T11:27:46Z</time>
      </trkpt>
      <trkpt lat="40.252233" lon="-4.888117">
        <ele>1024.0</ele>
        <time>2018-09-15T11:27:47Z</time>
      </trkpt>
      <trkpt lat="40.252233" lon="-4.888100">
        <ele>1024.0</ele>
        <time>2018-09-15T11:27:48Z</time>
      </trkpt>
      <trkpt lat="40.252233" lon="-4.888100">
        <ele>1024.0</ele>
        <time>2018-09-15T11:27:49Z</time>
      </trkpt>
      <trkpt lat="40.252233" lon="-4.888100">
        <ele>1024.0</ele>
        <time>2018-09-15T11:27:50Z</time>
      </trkpt>
      <trkpt lat="40.252233" lon="-4.888100">
        <ele>1024.0</ele>
        <time>2018-09-15T11:27:51Z</time>
      </trkpt>
      <trkpt lat="40.252233" lon="-4.888100">
        <ele>1024.0</ele>
        <time>2018-09-15T11:27:52Z</time>
      </trkpt>
      <trkpt lat="40.252233" lon="-4.888100">
        <ele>1024.0</ele>
        <time>2018-09-15T11:27:53Z</time>
      </trkpt>
      <trkpt lat="40.252233" lon="-4.888100">
        <ele>1024.0</ele>
        <time>2018-09-15T11:27:54Z</time>
      </trkpt>
      <trkpt lat="40.252233" lon="-4.888100">
        <ele>1025.0</ele>
        <time>2018-09-15T11:27:55Z</time>
      </trkpt>
      <trkpt lat="40.252233" lon="-4.888100">
        <ele>1025.0</ele>
        <time>2018-09-15T11:27:56Z</time>
      </trkpt>
      <trkpt lat="40.252250" lon="-4.888100">
        <ele>1024.0</ele>
        <time>2018-09-15T11:27:57Z</time>
      </trkpt>
      <trkpt lat="40.252233" lon="-4.888100">
        <ele>1024.0</ele>
        <time>2018-09-15T11:27:58Z</time>
      </trkpt>
      <trkpt lat="40.252233" lon="-4.888100">
        <ele>1024.0</ele>
        <time>2018-09-15T11:27:59Z</time>
      </trkpt>
      <trkpt lat="40.252233" lon="-4.888100">
        <ele>1024.0</ele>
        <time>2018-09-15T11:28:00Z</time>
      </trkpt>
      <trkpt lat="40.252250" lon="-4.888100">
        <ele>1024.0</ele>
        <time>2018-09-15T11:28:01Z</time>
      </trkpt>
      <trkpt lat="40.252250" lon="-4.888117">
        <ele>1023.0</ele>
        <time>2018-09-15T11:28:02Z</time>
      </trkpt>
      <trkpt lat="40.252250" lon="-4.888100">
        <ele>1023.0</ele>
        <time>2018-09-15T11:28:03Z</time>
      </trkpt>
      <trkpt lat="40.252250" lon="-4.888100">
        <ele>1023.0</ele>
        <time>2018-09-15T11:28:04Z</time>
      </trkpt>
      <trkpt lat="40.252250" lon="-4.888100">
        <ele>1023.0</ele>
        <time>2018-09-15T11:28:05Z</time>
      </trkpt>
      <trkpt lat="40.252250" lon="-4.888100">
        <ele>1023.0</ele>
        <time>2018-09-15T11:28:06Z</time>
      </trkpt>
      <trkpt lat="40.252250" lon="-4.888117">
        <ele>1023.0</ele>
        <time>2018-09-15T11:28:07Z</time>
      </trkpt>
      <trkpt lat="40.252250" lon="-4.888117">
        <ele>1023.0</ele>
        <time>2018-09-15T11:28:08Z</time>
      </trkpt>
      <trkpt lat="40.252250" lon="-4.888117">
        <ele>1023.0</ele>
        <time>2018-09-15T11:28:09Z</time>
      </trkpt>
      <trkpt lat="40.252233" lon="-4.888117">
        <ele>1023.0</ele>
        <time>2018-09-15T11:28:10Z</time>
      </trkpt>
      <trkpt lat="40.252233" lon="-4.888117">
        <ele>1023.0</ele>
        <time>2018-09-15T11:28:11Z</time>
      </trkpt>
      <trkpt lat="40.252233" lon="-4.888100">
        <ele>1023.0</ele>
        <time>2018-09-15T11:28:12Z</time>
      </trkpt>
      <trkpt lat="40.252233" lon="-4.888100">
        <ele>1023.0</ele>
        <time>2018-09-15T11:28:13Z</time>
      </trkpt>
      <trkpt lat="40.252233" lon="-4.888100">
        <ele>1023.0</ele>
        <time>2018-09-15T11:28:14Z</time>
      </trkpt>
      <trkpt lat="40.252233" lon="-4.888083">
        <ele>1023.0</ele>
        <time>2018-09-15T11:28:15Z</time>
      </trkpt>
      <trkpt lat="40.252233" lon="-4.888083">
        <ele>1023.0</ele>
        <time>2018-09-15T11:28:16Z</time>
      </trkpt>
      <trkpt lat="40.252217" lon="-4.888083">
        <ele>1024.0</ele>
        <time>2018-09-15T11:28:17Z</time>
      </trkpt>
      <trkpt lat="40.252217" lon="-4.888083">
        <ele>1024.0</ele>
        <time>2018-09-15T11:28:18Z</time>
      </trkpt>
      <trkpt lat="40.252217" lon="-4.888083">
        <ele>1025.0</ele>
        <time>2018-09-15T11:28:19Z</time>
      </trkpt>
      <trkpt lat="40.252217" lon="-4.888083">
        <ele>1025.0</ele>
        <time>2018-09-15T11:28:20Z</time>
      </trkpt>
      <trkpt lat="40.252217" lon="-4.888083">
        <ele>1025.0</ele>
        <time>2018-09-15T11:28:21Z</time>
      </trkpt>
      <trkpt lat="40.252217" lon="-4.888083">
        <ele>1025.0</ele>
        <time>2018-09-15T11:28:22Z</time>
      </trkpt>
      <trkpt lat="40.252233" lon="-4.888083">
        <ele>1025.0</ele>
        <time>2018-09-15T11:28:23Z</time>
      </trkpt>
      <trkpt lat="40.252233" lon="-4.888083">
        <ele>1026.0</ele>
        <time>2018-09-15T11:28:24Z</time>
      </trkpt>
      <trkpt lat="40.252233" lon="-4.888083">
        <ele>1026.0</ele>
        <time>2018-09-15T11:28:25Z</time>
      </trkpt>
      <trkpt lat="40.252233" lon="-4.888083">
        <ele>1026.0</ele>
        <time>2018-09-15T11:28:26Z</time>
      </trkpt>
      <trkpt lat="40.252233" lon="-4.888083">
        <ele>1026.0</ele>
        <time>2018-09-15T11:28:27Z</time>
      </trkpt>
      <trkpt lat="40.252233" lon="-4.888083">
        <ele>1026.0</ele>
        <time>2018-09-15T11:28:28Z</time>
      </trkpt>
      <trkpt lat="40.252233" lon="-4.888083">
        <ele>1026.0</ele>
        <time>2018-09-15T11:28:29Z</time>
      </trkpt>
      <trkpt lat="40.252233" lon="-4.888083">
        <ele>1026.0</ele>
        <time>2018-09-15T11:28:30Z</time>
      </trkpt>
      <trkpt lat="40.252233" lon="-4.888083">
        <ele>1026.0</ele>
        <time>2018-09-15T11:28:31Z</time>
      </trkpt>
      <trkpt lat="40.252233" lon="-4.888083">
        <ele>1026.0</ele>
        <time>2018-09-15T11:28:32Z</time>
      </trkpt>
      <trkpt lat="40.252233" lon="-4.888083">
        <ele>1026.0</ele>
        <time>2018-09-15T11:28:33Z</time>
      </trkpt>
      <trkpt lat="40.252233" lon="-4.888083">
        <ele>1027.0</ele>
        <time>2018-09-15T11:28:34Z</time>
      </trkpt>
      <trkpt lat="40.252233" lon="-4.888083">
        <ele>1027.0</ele>
        <time>2018-09-15T11:28:35Z</time>
      </trkpt>
      <trkpt lat="40.252233" lon="-4.888083">
        <ele>1027.0</ele>
        <time>2018-09-15T11:28:36Z</time>
      </trkpt>
      <trkpt lat="40.252233" lon="-4.888083">
        <ele>1027.0</ele>
        <time>2018-09-15T11:28:37Z</time>
      </trkpt>
      <trkpt lat="40.252233" lon="-4.888083">
        <ele>1027.0</ele>
        <time>2018-09-15T11:28:38Z</time>
      </trkpt>
      <trkpt lat="40.252233" lon="-4.888083">
        <ele>1027.0</ele>
        <time>2018-09-15T11:28:39Z</time>
      </trkpt>
      <trkpt lat="40.252233" lon="-4.888083">
        <ele>1027.0</ele>
        <time>2018-09-15T11:28:40Z</time>
      </trkpt>
      <trkpt lat="40.252233" lon="-4.888083">
        <ele>1027.0</ele>
        <time>2018-09-15T11:28:41Z</time>
      </trkpt>
      <trkpt lat="40.252233" lon="-4.888083">
        <ele>1027.0</ele>
        <time>2018-09-15T11:28:42Z</time>
      </trkpt>
      <trkpt lat="40.252217" lon="-4.888083">
        <ele>1027.0</ele>
        <time>2018-09-15T11:28:43Z</time>
      </trkpt>
      <trkpt lat="40.252217" lon="-4.888083">
        <ele>1027.0</ele>
        <time>2018-09-15T11:28:44Z</time>
      </trkpt>
      <trkpt lat="40.252217" lon="-4.888100">
        <ele>1027.0</ele>
        <time>2018-09-15T11:28:45Z</time>
      </trkpt>
      <trkpt lat="40.252217" lon="-4.888100">
        <ele>1026.0</ele>
        <time>2018-09-15T11:28:46Z</time>
      </trkpt>
      <trkpt lat="40.252217" lon="-4.888100">
        <ele>1026.0</ele>
        <time>2018-09-15T11:28:47Z</time>
      </trkpt>
      <trkpt lat="40.252217" lon="-4.888100">
        <ele>1026.0</ele>
        <time>2018-09-15T11:28:48Z</time>
      </trkpt>
      <trkpt lat="40.252200" lon="-4.888100">
        <ele>1026.0</ele>
        <time>2018-09-15T11:28:49Z</time>
      </trkpt>
      <trkpt lat="40.252200" lon="-4.888100">
        <ele>1026.0</ele>
        <time>2018-09-15T11:28:50Z</time>
      </trkpt>
      <trkpt lat="40.252217" lon="-4.888100">
        <ele>1026.0</ele>
        <time>2018-09-15T11:28:51Z</time>
      </trkpt>
      <trkpt lat="40.252217" lon="-4.888083">
        <ele>1026.0</ele>
        <time>2018-09-15T11:28:52Z</time>
      </trkpt>
      <trkpt lat="40.252200" lon="-4.888083">
        <ele>1026.0</ele>
        <time>2018-09-15T11:28:53Z</time>
      </trkpt>
      <trkpt lat="40.252200" lon="-4.888083">
        <ele>1026.0</ele>
        <time>2018-09-15T11:28:54Z</time>
      </trkpt>
      <trkpt lat="40.252200" lon="-4.888083">
        <ele>1026.0</ele>
        <time>2018-09-15T11:28:55Z</time>
      </trkpt>
      <trkpt lat="40.252200" lon="-4.888083">
        <ele>1026.0</ele>
        <time>2018-09-15T11:28:56Z</time>
      </trkpt>
      <trkpt lat="40.252200" lon="-4.888083">
        <ele>1026.0</ele>
        <time>2018-09-15T11:28:57Z</time>
      </trkpt>
      <trkpt lat="40.252200" lon="-4.888100">
        <ele>1026.0</ele>
        <time>2018-09-15T11:28:58Z</time>
      </trkpt>
      <trkpt lat="40.252200" lon="-4.888100">
        <ele>1026.0</ele>
        <time>2018-09-15T11:28:59Z</time>
      </trkpt>
      <trkpt lat="40.252217" lon="-4.888100">
        <ele>1026.0</ele>
        <time>2018-09-15T11:29:00Z</time>
      </trkpt>
      <trkpt lat="40.252233" lon="-4.888100">
        <ele>1026.0</ele>
        <time>2018-09-15T11:29:01Z</time>
      </trkpt>
      <trkpt lat="40.252233" lon="-4.888083">
        <ele>1026.0</ele>
        <time>2018-09-15T11:29:02Z</time>
      </trkpt>
      <trkpt lat="40.252233" lon="-4.888083">
        <ele>1026.0</ele>
        <time>2018-09-15T11:29:03Z</time>
      </trkpt>
      <trkpt lat="40.252233" lon="-4.888100">
        <ele>1026.0</ele>
        <time>2018-09-15T11:29:04Z</time>
      </trkpt>
      <trkpt lat="40.252233" lon="-4.888100">
        <ele>1026.0</ele>
        <time>2018-09-15T11:29:05Z</time>
      </trkpt>
      <trkpt lat="40.252250" lon="-4.888100">
        <ele>1026.0</ele>
        <time>2018-09-15T11:29:06Z</time>
      </trkpt>
      <trkpt lat="40.252233" lon="-4.888100">
        <ele>1026.0</ele>
        <time>2018-09-15T11:29:07Z</time>
      </trkpt>
      <trkpt lat="40.252233" lon="-4.888100">
        <ele>1026.0</ele>
        <time>2018-09-15T11:29:08Z</time>
      </trkpt>
      <trkpt lat="40.252233" lon="-4.888100">
        <ele>1026.0</ele>
        <time>2018-09-15T11:29:09Z</time>
      </trkpt>
      <trkpt lat="40.252233" lon="-4.888083">
        <ele>1026.0</ele>
        <time>2018-09-15T11:29:10Z</time>
      </trkpt>
      <trkpt lat="40.252233" lon="-4.888083">
        <ele>1026.0</ele>
        <time>2018-09-15T11:29:11Z</time>
      </trkpt>
      <trkpt lat="40.252250" lon="-4.888083">
        <ele>1026.0</ele>
        <time>2018-09-15T11:29:12Z</time>
      </trkpt>
      <trkpt lat="40.252250" lon="-4.888083">
        <ele>1026.0</ele>
        <time>2018-09-15T11:29:13Z</time>
      </trkpt>
      <trkpt lat="40.252250" lon="-4.888083">
        <ele>1026.0</ele>
        <time>2018-09-15T11:29:14Z</time>
      </trkpt>
      <trkpt lat="40.252250" lon="-4.888083">
        <ele>1026.0</ele>
        <time>2018-09-15T11:29:15Z</time>
      </trkpt>
      <trkpt lat="40.252250" lon="-4.888083">
        <ele>1026.0</ele>
        <time>2018-09-15T11:29:16Z</time>
      </trkpt>
      <trkpt lat="40.252250" lon="-4.888083">
        <ele>1026.0</ele>
        <time>2018-09-15T11:29:17Z</time>
      </trkpt>
      <trkpt lat="40.252250" lon="-4.888100">
        <ele>1026.0</ele>
        <time>2018-09-15T11:29:18Z</time>
      </trkpt>
      <trkpt lat="40.252250" lon="-4.888100">
        <ele>1025.0</ele>
        <time>2018-09-15T11:29:19Z</time>
      </trkpt>
      <trkpt lat="40.252250" lon="-4.888083">
        <ele>1025.0</ele>
        <time>2018-09-15T11:29:20Z</time>
      </trkpt>
      <trkpt lat="40.252250" lon="-4.888083">
        <ele>1025.0</ele>
        <time>2018-09-15T11:29:21Z</time>
      </trkpt>
      <trkpt lat="40.252250" lon="-4.888083">
        <ele>1025.0</ele>
        <time>2018-09-15T11:29:22Z</time>
      </trkpt>
      <trkpt lat="40.252250" lon="-4.888083">
        <ele>1025.0</ele>
        <time>2018-09-15T11:29:23Z</time>
      </trkpt>
      <trkpt lat="40.252250" lon="-4.888083">
        <ele>1025.0</ele>
        <time>2018-09-15T11:29:24Z</time>
      </trkpt>
      <trkpt lat="40.252250" lon="-4.888083">
        <ele>1025.0</ele>
        <time>2018-09-15T11:29:25Z</time>
      </trkpt>
      <trkpt lat="40.252250" lon="-4.888083">
        <ele>1025.0</ele>
        <time>2018-09-15T11:29:26Z</time>
      </trkpt>
      <trkpt lat="40.252250" lon="-4.888083">
        <ele>1025.0</ele>
        <time>2018-09-15T11:29:27Z</time>
      </trkpt>
      <trkpt lat="40.252250" lon="-4.888083">
        <ele>1025.0</ele>
        <time>2018-09-15T11:29:28Z</time>
      </trkpt>
      <trkpt lat="40.252250" lon="-4.888083">
        <ele>1026.0</ele>
        <time>2018-09-15T11:29:29Z</time>
      </trkpt>
      <trkpt lat="40.252250" lon="-4.888083">
        <ele>1026.0</ele>
        <time>2018-09-15T11:29:30Z</time>
      </trkpt>
      <trkpt lat="40.252250" lon="-4.888083">
        <ele>1026.0</ele>
        <time>2018-09-15T11:29:31Z</time>
      </trkpt>
      <trkpt lat="40.252250" lon="-4.888083">
        <ele>1026.0</ele>
        <time>2018-09-15T11:29:32Z</time>
      </trkpt>
      <trkpt lat="40.252250" lon="-4.888083">
        <ele>1026.0</ele>
        <time>2018-09-15T11:29:33Z</time>
      </trkpt>
      <trkpt lat="40.252250" lon="-4.888083">
        <ele>1026.0</ele>
        <time>2018-09-15T11:29:34Z</time>
      </trkpt>
      <trkpt lat="40.252233" lon="-4.888083">
        <ele>1026.0</ele>
        <time>2018-09-15T11:29:35Z</time>
      </trkpt>
      <trkpt lat="40.252233" lon="-4.888083">
        <ele>1027.0</ele>
        <time>2018-09-15T11:29:36Z</time>
      </trkpt>
      <trkpt lat="40.252233" lon="-4.888083">
        <ele>1027.0</ele>
        <time>2018-09-15T11:29:37Z</time>
      </trkpt>
      <trkpt lat="40.252233" lon="-4.888083">
        <ele>1027.0</ele>
        <time>2018-09-15T11:29:38Z</time>
      </trkpt>
      <trkpt lat="40.252233" lon="-4.888083">
        <ele>1027.0</ele>
        <time>2018-09-15T11:29:39Z</time>
      </trkpt>
      <trkpt lat="40.252233" lon="-4.888083">
        <ele>1027.0</ele>
        <time>2018-09-15T11:29:40Z</time>
      </trkpt>
      <trkpt lat="40.252233" lon="-4.888083">
        <ele>1027.0</ele>
        <time>2018-09-15T11:29:41Z</time>
      </trkpt>
      <trkpt lat="40.252233" lon="-4.888083">
        <ele>1027.0</ele>
        <time>2018-09-15T11:29:42Z</time>
      </trkpt>
      <trkpt lat="40.252233" lon="-4.888083">
        <ele>1027.0</ele>
        <time>2018-09-15T11:29:43Z</time>
      </trkpt>
      <trkpt lat="40.252233" lon="-4.888083">
        <ele>1027.0</ele>
        <time>2018-09-15T11:29:44Z</time>
      </trkpt>
      <trkpt lat="40.252233" lon="-4.888083">
        <ele>1027.0</ele>
        <time>2018-09-15T11:29:45Z</time>
      </trkpt>
      <trkpt lat="40.252233" lon="-4.888083">
        <ele>1027.0</ele>
        <time>2018-09-15T11:29:46Z</time>
      </trkpt>
      <trkpt lat="40.252217" lon="-4.888083">
        <ele>1027.0</ele>
        <time>2018-09-15T11:29:47Z</time>
      </trkpt>
      <trkpt lat="40.252217" lon="-4.888083">
        <ele>1027.0</ele>
        <time>2018-09-15T11:29:48Z</time>
      </trkpt>
      <trkpt lat="40.252217" lon="-4.888083">
        <ele>1027.0</ele>
        <time>2018-09-15T11:29:49Z</time>
      </trkpt>
      <trkpt lat="40.252217" lon="-4.888083">
        <ele>1027.0</ele>
        <time>2018-09-15T11:29:50Z</time>
      </trkpt>
      <trkpt lat="40.252217" lon="-4.888083">
        <ele>1027.0</ele>
        <time>2018-09-15T11:29:51Z</time>
      </trkpt>
      <trkpt lat="40.252217" lon="-4.888083">
        <ele>1027.0</ele>
        <time>2018-09-15T11:29:52Z</time>
      </trkpt>
      <trkpt lat="40.252217" lon="-4.888083">
        <ele>1027.0</ele>
        <time>2018-09-15T11:29:53Z</time>
      </trkpt>
      <trkpt lat="40.252217" lon="-4.888083">
        <ele>1027.0</ele>
        <time>2018-09-15T11:29:54Z</time>
      </trkpt>
      <trkpt lat="40.252217" lon="-4.888083">
        <ele>1027.0</ele>
        <time>2018-09-15T11:29:55Z</time>
      </trkpt>
      <trkpt lat="40.252217" lon="-4.888083">
        <ele>1027.0</ele>
        <time>2018-09-15T11:29:56Z</time>
      </trkpt>
      <trkpt lat="40.252217" lon="-4.888083">
        <ele>1027.0</ele>
        <time>2018-09-15T11:29:57Z</time>
      </trkpt>
      <trkpt lat="40.252217" lon="-4.888083">
        <ele>1027.0</ele>
        <time>2018-09-15T11:29:58Z</time>
      </trkpt>
      <trkpt lat="40.252217" lon="-4.888083">
        <ele>1027.0</ele>
        <time>2018-09-15T11:29:59Z</time>
      </trkpt>
      <trkpt lat="40.252217" lon="-4.888083">
        <ele>1027.0</ele>
        <time>2018-09-15T11:30:00Z</time>
      </trkpt>
      <trkpt lat="40.252217" lon="-4.888083">
        <ele>1027.0</ele>
        <time>2018-09-15T11:30:01Z</time>
      </trkpt>
      <trkpt lat="40.252217" lon="-4.888083">
        <ele>1027.0</ele>
        <time>2018-09-15T11:30:02Z</time>
      </trkpt>
      <trkpt lat="40.252217" lon="-4.888083">
        <ele>1027.0</ele>
        <time>2018-09-15T11:30:03Z</time>
      </trkpt>
      <trkpt lat="40.252217" lon="-4.888083">
        <ele>1027.0</ele>
        <time>2018-09-15T11:30:04Z</time>
      </trkpt>
      <trkpt lat="40.252217" lon="-4.888083">
        <ele>1027.0</ele>
        <time>2018-09-15T11:30:05Z</time>
      </trkpt>
      <trkpt lat="40.252217" lon="-4.888083">
        <ele>1027.0</ele>
        <time>2018-09-15T11:30:06Z</time>
      </trkpt>
      <trkpt lat="40.252217" lon="-4.888083">
        <ele>1027.0</ele>
        <time>2018-09-15T11:30:07Z</time>
      </trkpt>
      <trkpt lat="40.252217" lon="-4.888083">
        <ele>1027.0</ele>
        <time>2018-09-15T11:30:08Z</time>
      </trkpt>
      <trkpt lat="40.252217" lon="-4.888083">
        <ele>1027.0</ele>
        <time>2018-09-15T11:30:09Z</time>
      </trkpt>
      <trkpt lat="40.252217" lon="-4.888083">
        <ele>1027.0</ele>
        <time>2018-09-15T11:30:10Z</time>
      </trkpt>
      <trkpt lat="40.252217" lon="-4.888083">
        <ele>1026.0</ele>
        <time>2018-09-15T11:30:11Z</time>
      </trkpt>
      <trkpt lat="40.252217" lon="-4.888083">
        <ele>1026.0</ele>
        <time>2018-09-15T11:30:12Z</time>
      </trkpt>
      <trkpt lat="40.252217" lon="-4.888083">
        <ele>1026.0</ele>
        <time>2018-09-15T11:30:13Z</time>
      </trkpt>
      <trkpt lat="40.252217" lon="-4.888083">
        <ele>1026.0</ele>
        <time>2018-09-15T11:30:14Z</time>
      </trkpt>
      <trkpt lat="40.252217" lon="-4.888083">
        <ele>1026.0</ele>
        <time>2018-09-15T11:30:15Z</time>
      </trkpt>
      <trkpt lat="40.252217" lon="-4.888100">
        <ele>1026.0</ele>
        <time>2018-09-15T11:30:16Z</time>
      </trkpt>
      <trkpt lat="40.252217" lon="-4.888100">
        <ele>1026.0</ele>
        <time>2018-09-15T11:30:17Z</time>
      </trkpt>
      <trkpt lat="40.252217" lon="-4.888083">
        <ele>1026.0</ele>
        <time>2018-09-15T11:30:18Z</time>
      </trkpt>
      <trkpt lat="40.252217" lon="-4.888083">
        <ele>1026.0</ele>
        <time>2018-09-15T11:30:19Z</time>
      </trkpt>
      <trkpt lat="40.252217" lon="-4.888083">
        <ele>1026.0</ele>
        <time>2018-09-15T11:30:20Z</time>
      </trkpt>
      <trkpt lat="40.252217" lon="-4.888083">
        <ele>1026.0</ele>
        <time>2018-09-15T11:30:21Z</time>
      </trkpt>
      <trkpt lat="40.252217" lon="-4.888083">
        <ele>1026.0</ele>
        <time>2018-09-15T11:30:22Z</time>
      </trkpt>
      <trkpt lat="40.252217" lon="-4.888083">
        <ele>1027.0</ele>
        <time>2018-09-15T11:30:23Z</time>
      </trkpt>
      <trkpt lat="40.252217" lon="-4.888083">
        <ele>1027.0</ele>
        <time>2018-09-15T11:30:24Z</time>
      </trkpt>
      <trkpt lat="40.252217" lon="-4.888083">
        <ele>1027.0</ele>
        <time>2018-09-15T11:30:25Z</time>
      </trkpt>
      <trkpt lat="40.252217" lon="-4.888083">
        <ele>1027.0</ele>
        <time>2018-09-15T11:30:26Z</time>
      </trkpt>
      <trkpt lat="40.252217" lon="-4.888083">
        <ele>1027.0</ele>
        <time>2018-09-15T11:30:27Z</time>
      </trkpt>
      <trkpt lat="40.252217" lon="-4.888083">
        <ele>1027.0</ele>
        <time>2018-09-15T11:30:28Z</time>
      </trkpt>
      <trkpt lat="40.252217" lon="-4.888083">
        <ele>1027.0</ele>
        <time>2018-09-15T11:30:29Z</time>
      </trkpt>
      <trkpt lat="40.252217" lon="-4.888083">
        <ele>1027.0</ele>
        <time>2018-09-15T11:30:30Z</time>
      </trkpt>
      <trkpt lat="40.252217" lon="-4.888083">
        <ele>1028.0</ele>
        <time>2018-09-15T11:30:31Z</time>
      </trkpt>
      <trkpt lat="40.252217" lon="-4.888083">
        <ele>1028.0</ele>
        <time>2018-09-15T11:30:32Z</time>
      </trkpt>
      <trkpt lat="40.252217" lon="-4.888083">
        <ele>1028.0</ele>
        <time>2018-09-15T11:30:33Z</time>
      </trkpt>
      <trkpt lat="40.252217" lon="-4.888083">
        <ele>1028.0</ele>
        <time>2018-09-15T11:30:34Z</time>
      </trkpt>
      <trkpt lat="40.252217" lon="-4.888083">
        <ele>1028.0</ele>
        <time>2018-09-15T11:30:35Z</time>
      </trkpt>
      <trkpt lat="40.252217" lon="-4.888083">
        <ele>1028.0</ele>
        <time>2018-09-15T11:30:36Z</time>
      </trkpt>
      <trkpt lat="40.252217" lon="-4.888083">
        <ele>1028.0</ele>
        <time>2018-09-15T11:30:37Z</time>
      </trkpt>
      <trkpt lat="40.252233" lon="-4.888083">
        <ele>1028.0</ele>
        <time>2018-09-15T11:30:38Z</time>
      </trkpt>
      <trkpt lat="40.252233" lon="-4.888083">
        <ele>1028.0</ele>
        <time>2018-09-15T11:30:39Z</time>
      </trkpt>
      <trkpt lat="40.252233" lon="-4.888083">
        <ele>1028.0</ele>
        <time>2018-09-15T11:30:40Z</time>
      </trkpt>
      <trkpt lat="40.252233" lon="-4.888083">
        <ele>1028.0</ele>
        <time>2018-09-15T11:30:41Z</time>
      </trkpt>
      <trkpt lat="40.252233" lon="-4.888083">
        <ele>1028.0</ele>
        <time>2018-09-15T11:30:42Z</time>
      </trkpt>
      <trkpt lat="40.252233" lon="-4.888083">
        <ele>1028.0</ele>
        <time>2018-09-15T11:30:43Z</time>
      </trkpt>
      <trkpt lat="40.252233" lon="-4.888083">
        <ele>1028.0</ele>
        <time>2018-09-15T11:30:44Z</time>
      </trkpt>
      <trkpt lat="40.252233" lon="-4.888083">
        <ele>1028.0</ele>
        <time>2018-09-15T11:30:45Z</time>
      </trkpt>
      <trkpt lat="40.252233" lon="-4.888100">
        <ele>1028.0</ele>
        <time>2018-09-15T11:30:46Z</time>
      </trkpt>
      <trkpt lat="40.252233" lon="-4.888100">
        <ele>1028.0</ele>
        <time>2018-09-15T11:30:47Z</time>
      </trkpt>
      <trkpt lat="40.252233" lon="-4.888100">
        <ele>1028.0</ele>
        <time>2018-09-15T11:30:48Z</time>
      </trkpt>
      <trkpt lat="40.252233" lon="-4.888100">
        <ele>1028.0</ele>
        <time>2018-09-15T11:30:49Z</time>
      </trkpt>
      <trkpt lat="40.252233" lon="-4.888100">
        <ele>1028.0</ele>
        <time>2018-09-15T11:30:50Z</time>
      </trkpt>
      <trkpt lat="40.252233" lon="-4.888100">
        <ele>1028.0</ele>
        <time>2018-09-15T11:30:51Z</time>
      </trkpt>
      <trkpt lat="40.252233" lon="-4.888100">
        <ele>1028.0</ele>
        <time>2018-09-15T11:30:52Z</time>
      </trkpt>
      <trkpt lat="40.252233" lon="-4.888100">
        <ele>1028.0</ele>
        <time>2018-09-15T11:30:53Z</time>
      </trkpt>
      <trkpt lat="40.252233" lon="-4.888100">
        <ele>1028.0</ele>
        <time>2018-09-15T11:30:54Z</time>
      </trkpt>
      <trkpt lat="40.252233" lon="-4.888100">
        <ele>1028.0</ele>
        <time>2018-09-15T11:30:55Z</time>
      </trkpt>
      <trkpt lat="40.252250" lon="-4.888100">
        <ele>1028.0</ele>
        <time>2018-09-15T11:30:56Z</time>
      </trkpt>
      <trkpt lat="40.252250" lon="-4.888100">
        <ele>1028.0</ele>
        <time>2018-09-15T11:30:57Z</time>
      </trkpt>
      <trkpt lat="40.252250" lon="-4.888100">
        <ele>1028.0</ele>
        <time>2018-09-15T11:30:58Z</time>
      </trkpt>
      <trkpt lat="40.252250" lon="-4.888083">
        <ele>1028.0</ele>
        <time>2018-09-15T11:30:59Z</time>
      </trkpt>
      <trkpt lat="40.252250" lon="-4.888083">
        <ele>1028.0</ele>
        <time>2018-09-15T11:31:00Z</time>
      </trkpt>
      <trkpt lat="40.252250" lon="-4.888083">
        <ele>1028.0</ele>
        <time>2018-09-15T11:31:01Z</time>
      </trkpt>
      <trkpt lat="40.252250" lon="-4.888083">
        <ele>1028.0</ele>
        <time>2018-09-15T11:31:02Z</time>
      </trkpt>
      <trkpt lat="40.252233" lon="-4.888083">
        <ele>1028.0</ele>
        <time>2018-09-15T11:31:03Z</time>
      </trkpt>
      <trkpt lat="40.252233" lon="-4.888083">
        <ele>1028.0</ele>
        <time>2018-09-15T11:31:04Z</time>
      </trkpt>
      <trkpt lat="40.252233" lon="-4.888083">
        <ele>1027.0</ele>
        <time>2018-09-15T11:31:05Z</time>
      </trkpt>
      <trkpt lat="40.252250" lon="-4.888083">
        <ele>1028.0</ele>
        <time>2018-09-15T11:31:06Z</time>
      </trkpt>
      <trkpt lat="40.252250" lon="-4.888083">
        <ele>1028.0</ele>
        <time>2018-09-15T11:31:07Z</time>
      </trkpt>
      <trkpt lat="40.252250" lon="-4.888083">
        <ele>1028.0</ele>
        <time>2018-09-15T11:31:08Z</time>
      </trkpt>
      <trkpt lat="40.252250" lon="-4.888083">
        <ele>1028.0</ele>
        <time>2018-09-15T11:31:09Z</time>
      </trkpt>
      <trkpt lat="40.252250" lon="-4.888083">
        <ele>1028.0</ele>
        <time>2018-09-15T11:31:10Z</time>
      </trkpt>
      <trkpt lat="40.252250" lon="-4.888083">
        <ele>1027.0</ele>
        <time>2018-09-15T11:31:11Z</time>
      </trkpt>
      <trkpt lat="40.252233" lon="-4.888083">
        <ele>1027.0</ele>
        <time>2018-09-15T11:31:12Z</time>
      </trkpt>
      <trkpt lat="40.252233" lon="-4.888083">
        <ele>1027.0</ele>
        <time>2018-09-15T11:31:13Z</time>
      </trkpt>
      <trkpt lat="40.252233" lon="-4.888083">
        <ele>1027.0</ele>
        <time>2018-09-15T11:31:14Z</time>
      </trkpt>
      <trkpt lat="40.252233" lon="-4.888083">
        <ele>1027.0</ele>
        <time>2018-09-15T11:31:15Z</time>
      </trkpt>
      <trkpt lat="40.252233" lon="-4.888083">
        <ele>1027.0</ele>
        <time>2018-09-15T11:31:16Z</time>
      </trkpt>
      <trkpt lat="40.252233" lon="-4.888083">
        <ele>1027.0</ele>
        <time>2018-09-15T11:31:17Z</time>
      </trkpt>
      <trkpt lat="40.252233" lon="-4.888083">
        <ele>1027.0</ele>
        <time>2018-09-15T11:31:18Z</time>
      </trkpt>
      <trkpt lat="40.252233" lon="-4.888083">
        <ele>1027.0</ele>
        <time>2018-09-15T11:31:19Z</time>
      </trkpt>
      <trkpt lat="40.252250" lon="-4.888083">
        <ele>1027.0</ele>
        <time>2018-09-15T11:31:20Z</time>
      </trkpt>
      <trkpt lat="40.252233" lon="-4.888083">
        <ele>1027.0</ele>
        <time>2018-09-15T11:31:21Z</time>
      </trkpt>
      <trkpt lat="40.252233" lon="-4.888083">
        <ele>1027.0</ele>
        <time>2018-09-15T11:31:22Z</time>
      </trkpt>
      <trkpt lat="40.252233" lon="-4.888083">
        <ele>1027.0</ele>
        <time>2018-09-15T11:31:23Z</time>
      </trkpt>
      <trkpt lat="40.252233" lon="-4.888083">
        <ele>1027.0</ele>
        <time>2018-09-15T11:31:24Z</time>
      </trkpt>
      <trkpt lat="40.252233" lon="-4.888083">
        <ele>1026.0</ele>
        <time>2018-09-15T11:31:25Z</time>
      </trkpt>
      <trkpt lat="40.252233" lon="-4.888083">
        <ele>1026.0</ele>
        <time>2018-09-15T11:31:26Z</time>
      </trkpt>
      <trkpt lat="40.252233" lon="-4.888083">
        <ele>1026.0</ele>
        <time>2018-09-15T11:31:27Z</time>
      </trkpt>
      <trkpt lat="40.252233" lon="-4.888083">
        <ele>1026.0</ele>
        <time>2018-09-15T11:31:28Z</time>
      </trkpt>
      <trkpt lat="40.252233" lon="-4.888083">
        <ele>1026.0</ele>
        <time>2018-09-15T11:31:29Z</time>
      </trkpt>
      <trkpt lat="40.252233" lon="-4.888083">
        <ele>1026.0</ele>
        <time>2018-09-15T11:31:30Z</time>
      </trkpt>
      <trkpt lat="40.252233" lon="-4.888083">
        <ele>1026.0</ele>
        <time>2018-09-15T11:31:31Z</time>
      </trkpt>
      <trkpt lat="40.252267" lon="-4.886383">
        <ele>1026.0</ele>
        <time>2018-09-15T11:54:54Z</time>
      </trkpt>
      <trkpt lat="40.252083" lon="-4.886250">
        <ele>1022.0</ele>
        <time>2018-09-15T11:54:55Z</time>
      </trkpt>
      <trkpt lat="40.252017" lon="-4.886233">
        <ele>1017.0</ele>
        <time>2018-09-15T11:54:56Z</time>
      </trkpt>
      <trkpt lat="40.251933" lon="-4.886117">
        <ele>1014.0</ele>
        <time>2018-09-15T11:54:57Z</time>
      </trkpt>
      <trkpt lat="40.251867" lon="-4.886050">
        <ele>1012.0</ele>
        <time>2018-09-15T11:54:58Z</time>
      </trkpt>
      <trkpt lat="40.251850" lon="-4.886100">
        <ele>1015.0</ele>
        <time>2018-09-15T11:54:59Z</time>
      </trkpt>
      <trkpt lat="40.251800" lon="-4.886183">
        <ele>1012.0</ele>
        <time>2018-09-15T11:55:00Z</time>
      </trkpt>
      <trkpt lat="40.251650" lon="-4.886333">
        <ele>1009.0</ele>
        <time>2018-09-15T11:55:01Z</time>
      </trkpt>
      <trkpt lat="40.251483" lon="-4.886417">
        <ele>1005.0</ele>
        <time>2018-09-15T11:55:02Z</time>
      </trkpt>
      <trkpt lat="40.251317" lon="-4.886517">
        <ele>1010.0</ele>
        <time>2018-09-15T11:55:03Z</time>
      </trkpt>
      <trkpt lat="40.251183" lon="-4.886700">
        <ele>1018.0</ele>
        <time>2018-09-15T11:55:04Z</time>
      </trkpt>
      <trkpt lat="40.251050" lon="-4.886850">
        <ele>1022.0</ele>
        <time>2018-09-15T11:55:05Z</time>
      </trkpt>
      <trkpt lat="40.250900" lon="-4.885817">
        <ele>1025.0</ele>
        <time>2018-09-15T11:55:06Z</time>
      </trkpt>
      <trkpt lat="40.250900" lon="-4.885800">
        <ele>977.0</ele>
        <time>2018-09-15T11:55:07Z</time>
      </trkpt>
      <trkpt lat="40.250800" lon="-4.885733">
        <ele>951.0</ele>
        <time>2018-09-15T11:55:08Z</time>
      </trkpt>
      <trkpt lat="40.250700" lon="-4.885650">
        <ele>949.0</ele>
        <time>2018-09-15T11:55:09Z</time>
      </trkpt>
      <trkpt lat="40.250600" lon="-4.885583">
        <ele>953.0</ele>
        <time>2018-09-15T11:55:10Z</time>
      </trkpt>
      <trkpt lat="40.250517" lon="-4.885517">
        <ele>956.0</ele>
        <time>2018-09-15T11:55:11Z</time>
      </trkpt>
      <trkpt lat="40.250433" lon="-4.885433">
        <ele>958.0</ele>
        <time>2018-09-15T11:55:12Z</time>
      </trkpt>
      <trkpt lat="40.250367" lon="-4.885350">
        <ele>960.0</ele>
        <time>2018-09-15T11:55:13Z</time>
      </trkpt>
      <trkpt lat="40.250317" lon="-4.885283">
        <ele>961.0</ele>
        <time>2018-09-15T11:55:14Z</time>
      </trkpt>
      <trkpt lat="40.250283" lon="-4.885200">
        <ele>964.0</ele>
        <time>2018-09-15T11:55:15Z</time>
      </trkpt>
      <trkpt lat="40.250233" lon="-4.885133">
        <ele>966.0</ele>
        <time>2018-09-15T11:55:16Z</time>
      </trkpt>
      <trkpt lat="40.250200" lon="-4.885050">
        <ele>967.0</ele>
        <time>2018-09-15T11:55:17Z</time>
      </trkpt>
      <trkpt lat="40.250150" lon="-4.884983">
        <ele>965.0</ele>
        <time>2018-09-15T11:55:18Z</time>
      </trkpt>
      <trkpt lat="40.250100" lon="-4.884900">
        <ele>964.0</ele>
        <time>2018-09-15T11:55:19Z</time>
      </trkpt>
      <trkpt lat="40.250050" lon="-4.884850">
        <ele>963.0</ele>
        <time>2018-09-15T11:55:20Z</time>
      </trkpt>
      <trkpt lat="40.250000" lon="-4.884783">
        <ele>961.0</ele>
        <time>2018-09-15T11:55:21Z</time>
      </trkpt>
      <trkpt lat="40.249950" lon="-4.884717">
        <ele>960.0</ele>
        <time>2018-09-15T11:55:22Z</time>
      </trkpt>
      <trkpt lat="40.249900" lon="-4.884650">
        <ele>958.0</ele>
        <time>2018-09-15T11:55:23Z</time>
      </trkpt>
      <trkpt lat="40.249850" lon="-4.884567">
        <ele>956.0</ele>
        <time>2018-09-15T11:55:24Z</time>
      </trkpt>
      <trkpt lat="40.249800" lon="-4.884467">
        <ele>954.0</ele>
        <time>2018-09-15T11:55:25Z</time>
      </trkpt>
      <trkpt lat="40.249750" lon="-4.884400">
        <ele>953.0</ele>
        <time>2018-09-15T11:55:26Z</time>
      </trkpt>
      <trkpt lat="40.249700" lon="-4.884317">
        <ele>953.0</ele>
        <time>2018-09-15T11:55:27Z</time>
      </trkpt>
      <trkpt lat="40.249667" lon="-4.884250">
        <ele>951.0</ele>
        <time>2018-09-15T11:55:28Z</time>
      </trkpt>
      <trkpt lat="40.249633" lon="-4.884167">
        <ele>950.0</ele>
        <time>2018-09-15T11:55:29Z</time>
      </trkpt>
      <trkpt lat="40.249600" lon="-4.884067">
        <ele>950.0</ele>
        <time>2018-09-15T11:55:30Z</time>
      </trkpt>
      <trkpt lat="40.249583" lon="-4.883950">
        <ele>949.0</ele>
        <time>2018-09-15T11:55:31Z</time>
      </trkpt>
      <trkpt lat="40.249567" lon="-4.883850">
        <ele>948.0</ele>
        <time>2018-09-15T11:55:32Z</time>
      </trkpt>
      <trkpt lat="40.249550" lon="-4.883733">
        <ele>948.0</ele>
        <time>2018-09-15T11:55:33Z</time>
      </trkpt>
      <trkpt lat="40.249550" lon="-4.883633">
        <ele>949.0</ele>
        <time>2018-09-15T11:55:34Z</time>
      </trkpt>
      <trkpt lat="40.249550" lon="-4.883550">
        <ele>952.0</ele>
        <time>2018-09-15T11:55:35Z</time>
      </trkpt>
      <trkpt lat="40.249567" lon="-4.883467">
        <ele>955.0</ele>
        <time>2018-09-15T11:55:36Z</time>
      </trkpt>
      <trkpt lat="40.249583" lon="-4.883400">
        <ele>956.0</ele>
        <time>2018-09-15T11:55:37Z</time>
      </trkpt>
      <trkpt lat="40.249600" lon="-4.883317">
        <ele>956.0</ele>
        <time>2018-09-15T11:55:38Z</time>
      </trkpt>
      <trkpt lat="40.249617" lon="-4.883217">
        <ele>956.0</ele>
        <time>2018-09-15T11:55:39Z</time>
      </trkpt>
      <trkpt lat="40.249600" lon="-4.883100">
        <ele>955.0</ele>
        <time>2018-09-15T11:55:40Z</time>
      </trkpt>
      <trkpt lat="40.249583" lon="-4.882983">
        <ele>955.0</ele>
        <time>2018-09-15T11:55:41Z</time>
      </trkpt>
      <trkpt lat="40.249550" lon="-4.882883">
        <ele>954.0</ele>
        <time>2018-09-15T11:55:42Z</time>
      </trkpt>
      <trkpt lat="40.249500" lon="-4.882783">
        <ele>953.0</ele>
        <time>2018-09-15T11:55:43Z</time>
      </trkpt>
      <trkpt lat="40.249450" lon="-4.882700">
        <ele>954.0</ele>
        <time>2018-09-15T11:55:44Z</time>
      </trkpt>
      <trkpt lat="40.249383" lon="-4.882617">
        <ele>954.0</ele>
        <time>2018-09-15T11:55:45Z</time>
      </trkpt>
      <trkpt lat="40.249350" lon="-4.882550">
        <ele>956.0</ele>
        <time>2018-09-15T11:55:46Z</time>
      </trkpt>
      <trkpt lat="40.249300" lon="-4.882483">
        <ele>956.0</ele>
        <time>2018-09-15T11:55:47Z</time>
      </trkpt>
      <trkpt lat="40.249233" lon="-4.882400">
        <ele>956.0</ele>
        <time>2018-09-15T11:55:48Z</time>
      </trkpt>
      <trkpt lat="40.249133" lon="-4.882317">
        <ele>956.0</ele>
        <time>2018-09-15T11:55:49Z</time>
      </trkpt>
      <trkpt lat="40.249050" lon="-4.882250">
        <ele>957.0</ele>
        <time>2018-09-15T11:55:50Z</time>
      </trkpt>
      <trkpt lat="40.248967" lon="-4.882200">
        <ele>958.0</ele>
        <time>2018-09-15T11:55:51Z</time>
      </trkpt>
      <trkpt lat="40.248900" lon="-4.882167">
        <ele>962.0</ele>
        <time>2018-09-15T11:55:52Z</time>
      </trkpt>
      <trkpt lat="40.248817" lon="-4.882133">
        <ele>965.0</ele>
        <time>2018-09-15T11:55:53Z</time>
      </trkpt>
      <trkpt lat="40.248750" lon="-4.882117">
        <ele>967.0</ele>
        <time>2018-09-15T11:55:54Z</time>
      </trkpt>
      <trkpt lat="40.248667" lon="-4.882100">
        <ele>968.0</ele>
        <time>2018-09-15T11:55:55Z</time>
      </trkpt>
      <trkpt lat="40.248600" lon="-4.882050">
        <ele>968.0</ele>
        <time>2018-09-15T11:55:56Z</time>
      </trkpt>
      <trkpt lat="40.248533" lon="-4.881983">
        <ele>967.0</ele>
        <time>2018-09-15T11:55:57Z</time>
      </trkpt>
      <trkpt lat="40.248500" lon="-4.881917">
        <ele>966.0</ele>
        <time>2018-09-15T11:55:58Z</time>
      </trkpt>
      <trkpt lat="40.248500" lon="-4.881850">
        <ele>965.0</ele>
        <time>2018-09-15T11:55:59Z</time>
      </trkpt>
      <trkpt lat="40.248517" lon="-4.881800">
        <ele>964.0</ele>
        <time>2018-09-15T11:56:00Z</time>
      </trkpt>
      <trkpt lat="40.248617" lon="-4.881800">
        <ele>959.0</ele>
        <time>2018-09-15T11:56:02Z</time>
      </trkpt>
      <trkpt lat="40.248683" lon="-4.881833">
        <ele>956.0</ele>
        <time>2018-09-15T11:56:03Z</time>
      </trkpt>
      <trkpt lat="40.248733" lon="-4.881850">
        <ele>954.0</ele>
        <time>2018-09-15T11:56:04Z</time>
      </trkpt>
      <trkpt lat="40.248800" lon="-4.881867">
        <ele>953.0</ele>
        <time>2018-09-15T11:56:05Z</time>
      </trkpt>
      <trkpt lat="40.248867" lon="-4.881867">
        <ele>955.0</ele>
        <time>2018-09-15T11:56:06Z</time>
      </trkpt>
      <trkpt lat="40.248917" lon="-4.881900">
        <ele>955.0</ele>
        <time>2018-09-15T11:56:07Z</time>
      </trkpt>
      <trkpt lat="40.248967" lon="-4.881917">
        <ele>955.0</ele>
        <time>2018-09-15T11:56:08Z</time>
      </trkpt>
      <trkpt lat="40.249017" lon="-4.881950">
        <ele>954.0</ele>
        <time>2018-09-15T11:56:09Z</time>
      </trkpt>
      <trkpt lat="40.249083" lon="-4.881983">
        <ele>954.0</ele>
        <time>2018-09-15T11:56:10Z</time>
      </trkpt>
      <trkpt lat="40.249133" lon="-4.882000">
        <ele>953.0</ele>
        <time>2018-09-15T11:56:11Z</time>
      </trkpt>
      <trkpt lat="40.249200" lon="-4.882033">
        <ele>952.0</ele>
        <time>2018-09-15T11:56:12Z</time>
      </trkpt>
      <trkpt lat="40.249250" lon="-4.882067">
        <ele>952.0</ele>
        <time>2018-09-15T11:56:13Z</time>
      </trkpt>
      <trkpt lat="40.249317" lon="-4.882083">
        <ele>951.0</ele>
        <time>2018-09-15T11:56:14Z</time>
      </trkpt>
      <trkpt lat="40.249367" lon="-4.882100">
        <ele>951.0</ele>
        <time>2018-09-15T11:56:15Z</time>
      </trkpt>
      <trkpt lat="40.249400" lon="-4.882100">
        <ele>951.0</ele>
        <time>2018-09-15T11:56:16Z</time>
      </trkpt>
      <trkpt lat="40.249450" lon="-4.882083">
        <ele>951.0</ele>
        <time>2018-09-15T11:56:17Z</time>
      </trkpt>
      <trkpt lat="40.249483" lon="-4.882083">
        <ele>951.0</ele>
        <time>2018-09-15T11:56:18Z</time>
      </trkpt>
      <trkpt lat="40.249517" lon="-4.882067">
        <ele>951.0</ele>
        <time>2018-09-15T11:56:19Z</time>
      </trkpt>
      <trkpt lat="40.249550" lon="-4.882033">
        <ele>951.0</ele>
        <time>2018-09-15T11:56:20Z</time>
      </trkpt>
      <trkpt lat="40.249600" lon="-4.882000">
        <ele>951.0</ele>
        <time>2018-09-15T11:56:21Z</time>
      </trkpt>
      <trkpt lat="40.249650" lon="-4.881967">
        <ele>951.0</ele>
        <time>2018-09-15T11:56:22Z</time>
      </trkpt>
      <trkpt lat="40.249683" lon="-4.881933">
        <ele>950.0</ele>
        <time>2018-09-15T11:56:23Z</time>
      </trkpt>
      <trkpt lat="40.249700" lon="-4.881917">
        <ele>950.0</ele>
        <time>2018-09-15T11:56:24Z</time>
      </trkpt>
      <trkpt lat="40.249717" lon="-4.881867">
        <ele>949.0</ele>
        <time>2018-09-15T11:56:25Z</time>
      </trkpt>
      <trkpt lat="40.249717" lon="-4.881833">
        <ele>949.0</ele>
        <time>2018-09-15T11:56:26Z</time>
      </trkpt>
      <trkpt lat="40.249733" lon="-4.881767">
        <ele>949.0</ele>
        <time>2018-09-15T11:56:27Z</time>
      </trkpt>
      <trkpt lat="40.249750" lon="-4.881733">
        <ele>948.0</ele>
        <time>2018-09-15T11:56:28Z</time>
      </trkpt>
      <trkpt lat="40.249800" lon="-4.881700">
        <ele>948.0</ele>
        <time>2018-09-15T11:56:29Z</time>
      </trkpt>
      <trkpt lat="40.249867" lon="-4.881717">
        <ele>947.0</ele>
        <time>2018-09-15T11:56:30Z</time>
      </trkpt>
      <trkpt lat="40.249933" lon="-4.881750">
        <ele>946.0</ele>
        <time>2018-09-15T11:56:31Z</time>
      </trkpt>
      <trkpt lat="40.249983" lon="-4.881817">
        <ele>945.0</ele>
        <time>2018-09-15T11:56:32Z</time>
      </trkpt>
      <trkpt lat="40.250050" lon="-4.881900">
        <ele>945.0</ele>
        <time>2018-09-15T11:56:33Z</time>
      </trkpt>
      <trkpt lat="40.250083" lon="-4.882017">
        <ele>944.0</ele>
        <time>2018-09-15T11:56:34Z</time>
      </trkpt>
      <trkpt lat="40.250117" lon="-4.882150">
        <ele>943.0</ele>
        <time>2018-09-15T11:56:35Z</time>
      </trkpt>
      <trkpt lat="40.250133" lon="-4.882300">
        <ele>942.0</ele>
        <time>2018-09-15T11:56:36Z</time>
      </trkpt>
      <trkpt lat="40.250117" lon="-4.882450">
        <ele>942.0</ele>
        <time>2018-09-15T11:56:37Z</time>
      </trkpt>
      <trkpt lat="40.250100" lon="-4.882583">
        <ele>942.0</ele>
        <time>2018-09-15T11:56:38Z</time>
      </trkpt>
      <trkpt lat="40.250067" lon="-4.882717">
        <ele>943.0</ele>
        <time>2018-09-15T11:56:39Z</time>
      </trkpt>
      <trkpt lat="40.250033" lon="-4.882833">
        <ele>945.0</ele>
        <time>2018-09-15T11:56:40Z</time>
      </trkpt>
      <trkpt lat="40.250000" lon="-4.882933">
        <ele>945.0</ele>
        <time>2018-09-15T11:56:41Z</time>
      </trkpt>
      <trkpt lat="40.249950" lon="-4.883033">
        <ele>945.0</ele>
        <time>2018-09-15T11:56:42Z</time>
      </trkpt>
      <trkpt lat="40.249883" lon="-4.883133">
        <ele>943.0</ele>
        <time>2018-09-15T11:56:43Z</time>
      </trkpt>
      <trkpt lat="40.249800" lon="-4.883217">
        <ele>942.0</ele>
        <time>2018-09-15T11:56:44Z</time>
      </trkpt>
      <trkpt lat="40.249717" lon="-4.883283">
        <ele>942.0</ele>
        <time>2018-09-15T11:56:45Z</time>
      </trkpt>
      <trkpt lat="40.249633" lon="-4.883333">
        <ele>941.0</ele>
        <time>2018-09-15T11:56:46Z</time>
      </trkpt>
      <trkpt lat="40.249533" lon="-4.883400">
        <ele>940.0</ele>
        <time>2018-09-15T11:56:47Z</time>
      </trkpt>
      <trkpt lat="40.249450" lon="-4.883450">
        <ele>940.0</ele>
        <time>2018-09-15T11:56:48Z</time>
      </trkpt>
      <trkpt lat="40.249350" lon="-4.883483">
        <ele>941.0</ele>
        <time>2018-09-15T11:56:49Z</time>
      </trkpt>
      <trkpt lat="40.249267" lon="-4.883517">
        <ele>941.0</ele>
        <time>2018-09-15T11:56:50Z</time>
      </trkpt>
      <trkpt lat="40.249167" lon="-4.883517">
        <ele>941.0</ele>
        <time>2018-09-15T11:56:51Z</time>
      </trkpt>
      <trkpt lat="40.249083" lon="-4.883550">
        <ele>940.0</ele>
        <time>2018-09-15T11:56:52Z</time>
      </trkpt>
      <trkpt lat="40.248967" lon="-4.883583">
        <ele>940.0</ele>
        <time>2018-09-15T11:56:53Z</time>
      </trkpt>
      <trkpt lat="40.248867" lon="-4.883617">
        <ele>940.0</ele>
        <time>2018-09-15T11:56:54Z</time>
      </trkpt>
      <trkpt lat="40.248767" lon="-4.883633">
        <ele>940.0</ele>
        <time>2018-09-15T11:56:55Z</time>
      </trkpt>
      <trkpt lat="40.248683" lon="-4.883633">
        <ele>940.0</ele>
        <time>2018-09-15T11:56:56Z</time>
      </trkpt>
      <trkpt lat="40.248600" lon="-4.883617">
        <ele>940.0</ele>
        <time>2018-09-15T11:56:57Z</time>
      </trkpt>
      <trkpt lat="40.248533" lon="-4.883600">
        <ele>940.0</ele>
        <time>2018-09-15T11:56:58Z</time>
      </trkpt>
      <trkpt lat="40.248467" lon="-4.883550">
        <ele>940.0</ele>
        <time>2018-09-15T11:56:59Z</time>
      </trkpt>
      <trkpt lat="40.248433" lon="-4.883500">
        <ele>940.0</ele>
        <time>2018-09-15T11:57:00Z</time>
      </trkpt>
      <trkpt lat="40.248417" lon="-4.883450">
        <ele>938.0</ele>
        <time>2018-09-15T11:57:01Z</time>
      </trkpt>
      <trkpt lat="40.248417" lon="-4.883417">
        <ele>937.0</ele>
        <time>2018-09-15T11:57:02Z</time>
      </trkpt>
      <trkpt lat="40.248433" lon="-4.883367">
        <ele>935.0</ele>
        <time>2018-09-15T11:57:03Z</time>
      </trkpt>
      <trkpt lat="40.248483" lon="-4.883350">
        <ele>933.0</ele>
        <time>2018-09-15T11:57:04Z</time>
      </trkpt>
      <trkpt lat="40.248533" lon="-4.883350">
        <ele>931.0</ele>
        <time>2018-09-15T11:57:05Z</time>
      </trkpt>
      <trkpt lat="40.248600" lon="-4.883383">
        <ele>929.0</ele>
        <time>2018-09-15T11:57:06Z</time>
      </trkpt>
      <trkpt lat="40.248650" lon="-4.883450">
        <ele>927.0</ele>
        <time>2018-09-15T11:57:07Z</time>
      </trkpt>
      <trkpt lat="40.248717" lon="-4.883517">
        <ele>926.0</ele>
        <time>2018-09-15T11:57:08Z</time>
      </trkpt>
      <trkpt lat="40.248767" lon="-4.883600">
        <ele>926.0</ele>
        <time>2018-09-15T11:57:09Z</time>
      </trkpt>
      <trkpt lat="40.248817" lon="-4.883667">
        <ele>925.0</ele>
        <time>2018-09-15T11:57:10Z</time>
      </trkpt>
      <trkpt lat="40.248883" lon="-4.883717">
        <ele>924.0</ele>
        <time>2018-09-15T11:57:11Z</time>
      </trkpt>
      <trkpt lat="40.248950" lon="-4.883767">
        <ele>923.0</ele>
        <time>2018-09-15T11:57:12Z</time>
      </trkpt>
      <trkpt lat="40.249017" lon="-4.883817">
        <ele>923.0</ele>
        <time>2018-09-15T11:57:13Z</time>
      </trkpt>
      <trkpt lat="40.249050" lon="-4.883867">
        <ele>923.0</ele>
        <time>2018-09-15T11:57:14Z</time>
      </trkpt>
      <trkpt lat="40.249100" lon="-4.883933">
        <ele>924.0</ele>
        <time>2018-09-15T11:57:15Z</time>
      </trkpt>
      <trkpt lat="40.249150" lon="-4.884000">
        <ele>924.0</ele>
        <time>2018-09-15T11:57:16Z</time>
      </trkpt>
      <trkpt lat="40.249200" lon="-4.884067">
        <ele>923.0</ele>
        <time>2018-09-15T11:57:17Z</time>
      </trkpt>
      <trkpt lat="40.249267" lon="-4.884150">
        <ele>923.0</ele>
        <time>2018-09-15T11:57:18Z</time>
      </trkpt>
      <trkpt lat="40.249317" lon="-4.884250">
        <ele>923.0</ele>
        <time>2018-09-15T11:57:19Z</time>
      </trkpt>
      <trkpt lat="40.249350" lon="-4.884367">
        <ele>924.0</ele>
        <time>2018-09-15T11:57:20Z</time>
      </trkpt>
      <trkpt lat="40.249383" lon="-4.884500">
        <ele>924.0</ele>
        <time>2018-09-15T11:57:21Z</time>
      </trkpt>
      <trkpt lat="40.249400" lon="-4.884633">
        <ele>924.0</ele>
        <time>2018-09-15T11:57:22Z</time>
      </trkpt>
      <trkpt lat="40.249400" lon="-4.884783">
        <ele>923.0</ele>
        <time>2018-09-15T11:57:23Z</time>
      </trkpt>
      <trkpt lat="40.249383" lon="-4.884950">
        <ele>923.0</ele>
        <time>2018-09-15T11:57:24Z</time>
      </trkpt>
      <trkpt lat="40.249333" lon="-4.885083">
        <ele>922.0</ele>
        <time>2018-09-15T11:57:25Z</time>
      </trkpt>
      <trkpt lat="40.249267" lon="-4.885183">
        <ele>923.0</ele>
        <time>2018-09-15T11:57:26Z</time>
      </trkpt>
      <trkpt lat="40.249217" lon="-4.885300">
        <ele>924.0</ele>
        <time>2018-09-15T11:57:27Z</time>
      </trkpt>
      <trkpt lat="40.249167" lon="-4.885400">
        <ele>924.0</ele>
        <time>2018-09-15T11:57:28Z</time>
      </trkpt>
      <trkpt lat="40.249117" lon="-4.885533">
        <ele>924.0</ele>
        <time>2018-09-15T11:57:29Z</time>
      </trkpt>
      <trkpt lat="40.249033" lon="-4.885667">
        <ele>924.0</ele>
        <time>2018-09-15T11:57:30Z</time>
      </trkpt>
      <trkpt lat="40.248933" lon="-4.885783">
        <ele>923.0</ele>
        <time>2018-09-15T11:57:31Z</time>
      </trkpt>
      <trkpt lat="40.248833" lon="-4.885933">
        <ele>926.0</ele>
        <time>2018-09-15T11:57:32Z</time>
      </trkpt>
      <trkpt lat="40.248767" lon="-4.886083">
        <ele>930.0</ele>
        <time>2018-09-15T11:57:33Z</time>
      </trkpt>
      <trkpt lat="40.248717" lon="-4.886200">
        <ele>935.0</ele>
        <time>2018-09-15T11:57:34Z</time>
      </trkpt>
      <trkpt lat="40.248667" lon="-4.886300">
        <ele>940.0</ele>
        <time>2018-09-15T11:57:35Z</time>
      </trkpt>
      <trkpt lat="40.248600" lon="-4.886383">
        <ele>943.0</ele>
        <time>2018-09-15T11:57:36Z</time>
      </trkpt>
      <trkpt lat="40.248533" lon="-4.886450">
        <ele>945.0</ele>
        <time>2018-09-15T11:57:37Z</time>
      </trkpt>
      <trkpt lat="40.248450" lon="-4.886500">
        <ele>946.0</ele>
        <time>2018-09-15T11:57:38Z</time>
      </trkpt>
      <trkpt lat="40.248367" lon="-4.886517">
        <ele>947.0</ele>
        <time>2018-09-15T11:57:39Z</time>
      </trkpt>
      <trkpt lat="40.248317" lon="-4.886500">
        <ele>948.0</ele>
        <time>2018-09-15T11:57:40Z</time>
      </trkpt>
      <trkpt lat="40.248283" lon="-4.886483">
        <ele>951.0</ele>
        <time>2018-09-15T11:57:41Z</time>
      </trkpt>
      <trkpt lat="40.248283" lon="-4.886450">
        <ele>953.0</ele>
        <time>2018-09-15T11:57:42Z</time>
      </trkpt>
      <trkpt lat="40.248283" lon="-4.886400">
        <ele>955.0</ele>
        <time>2018-09-15T11:57:43Z</time>
      </trkpt>
      <trkpt lat="40.248317" lon="-4.886367">
        <ele>957.0</ele>
        <time>2018-09-15T11:57:44Z</time>
      </trkpt>
      <trkpt lat="40.248383" lon="-4.886350">
        <ele>958.0</ele>
        <time>2018-09-15T11:57:45Z</time>
      </trkpt>
      <trkpt lat="40.248433" lon="-4.886367">
        <ele>960.0</ele>
        <time>2018-09-15T11:57:46Z</time>
      </trkpt>
      <trkpt lat="40.248500" lon="-4.886450">
        <ele>962.0</ele>
        <time>2018-09-15T11:57:47Z</time>
      </trkpt>
      <trkpt lat="40.248533" lon="-4.886567">
        <ele>964.0</ele>
        <time>2018-09-15T11:57:48Z</time>
      </trkpt>
      <trkpt lat="40.248550" lon="-4.886700">
        <ele>966.0</ele>
        <time>2018-09-15T11:57:49Z</time>
      </trkpt>
      <trkpt lat="40.248567" lon="-4.886867">
        <ele>968.0</ele>
        <time>2018-09-15T11:57:50Z</time>
      </trkpt>
      <trkpt lat="40.248567" lon="-4.887050">
        <ele>969.0</ele>
        <time>2018-09-15T11:57:51Z</time>
      </trkpt>
      <trkpt lat="40.248550" lon="-4.887233">
        <ele>970.0</ele>
        <time>2018-09-15T11:57:52Z</time>
      </trkpt>
      <trkpt lat="40.248517" lon="-4.887383">
        <ele>972.0</ele>
        <time>2018-09-15T11:57:53Z</time>
      </trkpt>
      <trkpt lat="40.248433" lon="-4.887500">
        <ele>974.0</ele>
        <time>2018-09-15T11:57:54Z</time>
      </trkpt>
      <trkpt lat="40.248367" lon="-4.887583">
        <ele>974.0</ele>
        <time>2018-09-15T11:57:55Z</time>
      </trkpt>
      <trkpt lat="40.248283" lon="-4.887617">
        <ele>975.0</ele>
        <time>2018-09-15T11:57:56Z</time>
      </trkpt>
      <trkpt lat="40.248200" lon="-4.887650">
        <ele>976.0</ele>
        <time>2018-09-15T11:57:57Z</time>
      </trkpt>
      <trkpt lat="40.248150" lon="-4.887650">
        <ele>979.0</ele>
        <time>2018-09-15T11:57:58Z</time>
      </trkpt>
      <trkpt lat="40.248100" lon="-4.887617">
        <ele>981.0</ele>
        <time>2018-09-15T11:57:59Z</time>
      </trkpt>
      <trkpt lat="40.248067" lon="-4.887583">
        <ele>982.0</ele>
        <time>2018-09-15T11:58:00Z</time>
      </trkpt>
      <trkpt lat="40.248050" lon="-4.887550">
        <ele>985.0</ele>
        <time>2018-09-15T11:58:01Z</time>
      </trkpt>
      <trkpt lat="40.248050" lon="-4.887533">
        <ele>988.0</ele>
        <time>2018-09-15T11:58:02Z</time>
      </trkpt>
      <trkpt lat="40.248050" lon="-4.887517">
        <ele>991.0</ele>
        <time>2018-09-15T11:58:03Z</time>
      </trkpt>
      <trkpt lat="40.248083" lon="-4.887500">
        <ele>993.0</ele>
        <time>2018-09-15T11:58:04Z</time>
      </trkpt>
      <trkpt lat="40.248117" lon="-4.887467">
        <ele>995.0</ele>
        <time>2018-09-15T11:58:05Z</time>
      </trkpt>
      <trkpt lat="40.248167" lon="-4.887450">
        <ele>997.0</ele>
        <time>2018-09-15T11:58:06Z</time>
      </trkpt>
      <trkpt lat="40.248217" lon="-4.887450">
        <ele>998.0</ele>
        <time>2018-09-15T11:58:07Z</time>
      </trkpt>
      <trkpt lat="40.248283" lon="-4.887483">
        <ele>999.0</ele>
        <time>2018-09-15T11:58:08Z</time>
      </trkpt>
      <trkpt lat="40.248350" lon="-4.887550">
        <ele>1000.0</ele>
        <time>2018-09-15T11:58:09Z</time>
      </trkpt>
      <trkpt lat="40.248400" lon="-4.887683">
        <ele>1001.0</ele>
        <time>2018-09-15T11:58:10Z</time>
      </trkpt>
      <trkpt lat="40.248433" lon="-4.887817">
        <ele>1001.0</ele>
        <time>2018-09-15T11:58:11Z</time>
      </trkpt>
      <trkpt lat="40.248450" lon="-4.887967">
        <ele>1003.0</ele>
        <time>2018-09-15T11:58:12Z</time>
      </trkpt>
      <trkpt lat="40.248417" lon="-4.888117">
        <ele>1004.0</ele>
        <time>2018-09-15T11:58:13Z</time>
      </trkpt>
      <trkpt lat="40.248367" lon="-4.888217">
        <ele>1007.0</ele>
        <time>2018-09-15T11:58:14Z</time>
      </trkpt>
      <trkpt lat="40.248283" lon="-4.888267">
        <ele>1009.0</ele>
        <time>2018-09-15T11:58:15Z</time>
      </trkpt>
      <trkpt lat="40.248217" lon="-4.888283">
        <ele>1011.0</ele>
        <time>2018-09-15T11:58:16Z</time>
      </trkpt>
      <trkpt lat="40.248150" lon="-4.888317">
        <ele>1014.0</ele>
        <time>2018-09-15T11:58:17Z</time>
      </trkpt>
      <trkpt lat="40.248100" lon="-4.888350">
        <ele>1018.0</ele>
        <time>2018-09-15T11:58:18Z</time>
      </trkpt>
      <trkpt lat="40.248033" lon="-4.888383">
        <ele>1020.0</ele>
        <time>2018-09-15T11:58:19Z</time>
      </trkpt>
      <trkpt lat="40.247967" lon="-4.888383">
        <ele>1022.0</ele>
        <time>2018-09-15T11:58:20Z</time>
      </trkpt>
      <trkpt lat="40.247900" lon="-4.888350">
        <ele>1023.0</ele>
        <time>2018-09-15T11:58:21Z</time>
      </trkpt>
      <trkpt lat="40.247867" lon="-4.888283">
        <ele>1024.0</ele>
        <time>2018-09-15T11:58:22Z</time>
      </trkpt>
      <trkpt lat="40.247883" lon="-4.888233">
        <ele>1027.0</ele>
        <time>2018-09-15T11:58:23Z</time>
      </trkpt>
      <trkpt lat="40.247917" lon="-4.888200">
        <ele>1029.0</ele>
        <time>2018-09-15T11:58:24Z</time>
      </trkpt>
      <trkpt lat="40.247967" lon="-4.888200">
        <ele>1032.0</ele>
        <time>2018-09-15T11:58:25Z</time>
      </trkpt>
      <trkpt lat="40.248033" lon="-4.888233">
        <ele>1034.0</ele>
        <time>2018-09-15T11:58:26Z</time>
      </trkpt>
      <trkpt lat="40.248083" lon="-4.888250">
        <ele>1035.0</ele>
        <time>2018-09-15T11:58:27Z</time>
      </trkpt>
      <trkpt lat="40.248167" lon="-4.888283">
        <ele>1036.0</ele>
        <time>2018-09-15T11:58:28Z</time>
      </trkpt>
      <trkpt lat="40.248233" lon="-4.888367">
        <ele>1037.0</ele>
        <time>2018-09-15T11:58:29Z</time>
      </trkpt>
      <trkpt lat="40.248283" lon="-4.888500">
        <ele>1038.0</ele>
        <time>2018-09-15T11:58:30Z</time>
      </trkpt>
      <trkpt lat="40.248333" lon="-4.888650">
        <ele>1039.0</ele>
        <time>2018-09-15T11:58:31Z</time>
      </trkpt>
      <trkpt lat="40.248350" lon="-4.888783">
        <ele>1040.0</ele>
        <time>2018-09-15T11:58:32Z</time>
      </trkpt>
      <trkpt lat="40.248333" lon="-4.888933">
        <ele>1042.0</ele>
        <time>2018-09-15T11:58:33Z</time>
      </trkpt>
      <trkpt lat="40.248300" lon="-4.889050">
        <ele>1043.0</ele>
        <time>2018-09-15T11:58:34Z</time>
      </trkpt>
      <trkpt lat="40.248250" lon="-4.889167">
        <ele>1044.0</ele>
        <time>2018-09-15T11:58:35Z</time>
      </trkpt>
      <trkpt lat="40.248200" lon="-4.889267">
        <ele>1045.0</ele>
        <time>2018-09-15T11:58:36Z</time>
      </trkpt>
      <trkpt lat="40.248117" lon="-4.889367">
        <ele>1046.0</ele>
        <time>2018-09-15T11:58:37Z</time>
      </trkpt>
      <trkpt lat="40.248050" lon="-4.889433">
        <ele>1047.0</ele>
        <time>2018-09-15T11:58:38Z</time>
      </trkpt>
      <trkpt lat="40.247967" lon="-4.889467">
        <ele>1050.0</ele>
        <time>2018-09-15T11:58:39Z</time>
      </trkpt>
      <trkpt lat="40.247917" lon="-4.889467">
        <ele>1053.0</ele>
        <time>2018-09-15T11:58:40Z</time>
      </trkpt>
      <trkpt lat="40.247850" lon="-4.889450">
        <ele>1055.0</ele>
        <time>2018-09-15T11:58:41Z</time>
      </trkpt>
      <trkpt lat="40.247800" lon="-4.889417">
        <ele>1058.0</ele>
        <time>2018-09-15T11:58:42Z</time>
      </trkpt>
      <trkpt lat="40.247733" lon="-4.889400">
        <ele>1060.0</ele>
        <time>2018-09-15T11:58:43Z</time>
      </trkpt>
      <trkpt lat="40.247667" lon="-4.889367">
        <ele>1061.0</ele>
        <time>2018-09-15T11:58:44Z</time>
      </trkpt>
      <trkpt lat="40.247617" lon="-4.889317">
        <ele>1063.0</ele>
        <time>2018-09-15T11:58:45Z</time>
      </trkpt>
      <trkpt lat="40.247583" lon="-4.889250">
        <ele>1065.0</ele>
        <time>2018-09-15T11:58:46Z</time>
      </trkpt>
      <trkpt lat="40.247567" lon="-4.889183">
        <ele>1066.0</ele>
        <time>2018-09-15T11:58:47Z</time>
      </trkpt>
      <trkpt lat="40.247583" lon="-4.889117">
        <ele>1068.0</ele>
        <time>2018-09-15T11:58:48Z</time>
      </trkpt>
      <trkpt lat="40.247600" lon="-4.889083">
        <ele>1070.0</ele>
        <time>2018-09-15T11:58:49Z</time>
      </trkpt>
      <trkpt lat="40.247633" lon="-4.889067">
        <ele>1072.0</ele>
        <time>2018-09-15T11:58:50Z</time>
      </trkpt>
      <trkpt lat="40.247683" lon="-4.889083">
        <ele>1073.0</ele>
        <time>2018-09-15T11:58:51Z</time>
      </trkpt>
      <trkpt lat="40.247733" lon="-4.889133">
        <ele>1074.0</ele>
        <time>2018-09-15T11:58:52Z</time>
      </trkpt>
      <trkpt lat="40.247767" lon="-4.889233">
        <ele>1074.0</ele>
        <time>2018-09-15T11:58:53Z</time>
      </trkpt>
      <trkpt lat="40.247800" lon="-4.889350">
        <ele>1074.0</ele>
        <time>2018-09-15T11:58:54Z</time>
      </trkpt>
      <trkpt lat="40.247767" lon="-4.889500">
        <ele>1075.0</ele>
        <time>2018-09-15T11:58:55Z</time>
      </trkpt>
      <trkpt lat="40.247717" lon="-4.889633">
        <ele>1075.0</ele>
        <time>2018-09-15T11:58:56Z</time>
      </trkpt>
      <trkpt lat="40.247633" lon="-4.889750">
        <ele>1075.0</ele>
        <time>2018-09-15T11:58:57Z</time>
      </trkpt>
      <trkpt lat="40.247550" lon="-4.889850">
        <ele>1077.0</ele>
        <time>2018-09-15T11:58:58Z</time>
      </trkpt>
      <trkpt lat="40.247467" lon="-4.889917">
        <ele>1079.0</ele>
        <time>2018-09-15T11:58:59Z</time>
      </trkpt>
      <trkpt lat="40.247400" lon="-4.890000">
        <ele>1081.0</ele>
        <time>2018-09-15T11:59:00Z</time>
      </trkpt>
      <trkpt lat="40.247317" lon="-4.890067">
        <ele>1082.0</ele>
        <time>2018-09-15T11:59:01Z</time>
      </trkpt>
      <trkpt lat="40.247233" lon="-4.890133">
        <ele>1083.0</ele>
        <time>2018-09-15T11:59:02Z</time>
      </trkpt>
      <trkpt lat="40.247133" lon="-4.890167">
        <ele>1083.0</ele>
        <time>2018-09-15T11:59:03Z</time>
      </trkpt>
      <trkpt lat="40.247050" lon="-4.890167">
        <ele>1084.0</ele>
        <time>2018-09-15T11:59:04Z</time>
      </trkpt>
      <trkpt lat="40.246983" lon="-4.890133">
        <ele>1084.0</ele>
        <time>2018-09-15T11:59:05Z</time>
      </trkpt>
      <trkpt lat="40.246933" lon="-4.890083">
        <ele>1084.0</ele>
        <time>2018-09-15T11:59:06Z</time>
      </trkpt>
      <trkpt lat="40.246883" lon="-4.890067">
        <ele>1085.0</ele>
        <time>2018-09-15T11:59:07Z</time>
      </trkpt>
      <trkpt lat="40.246817" lon="-4.890033">
        <ele>1086.0</ele>
        <time>2018-09-15T11:59:08Z</time>
      </trkpt>
      <trkpt lat="40.246783" lon="-4.889983">
        <ele>1087.0</ele>
        <time>2018-09-15T11:59:09Z</time>
      </trkpt>
      <trkpt lat="40.246750" lon="-4.889933">
        <ele>1088.0</ele>
        <time>2018-09-15T11:59:10Z</time>
      </trkpt>
      <trkpt lat="40.246767" lon="-4.889900">
        <ele>1090.0</ele>
        <time>2018-09-15T11:59:11Z</time>
      </trkpt>
      <trkpt lat="40.246817" lon="-4.889883">
        <ele>1091.0</ele>
        <time>2018-09-15T11:59:12Z</time>
      </trkpt>
      <trkpt lat="40.246867" lon="-4.889917">
        <ele>1092.0</ele>
        <time>2018-09-15T11:59:13Z</time>
      </trkpt>
      <trkpt lat="40.246917" lon="-4.890017">
        <ele>1093.0</ele>
        <time>2018-09-15T11:59:14Z</time>
      </trkpt>
      <trkpt lat="40.246933" lon="-4.890150">
        <ele>1094.0</ele>
        <time>2018-09-15T11:59:15Z</time>
      </trkpt>
      <trkpt lat="40.246933" lon="-4.890300">
        <ele>1095.0</ele>
        <time>2018-09-15T11:59:16Z</time>
      </trkpt>
      <trkpt lat="40.246900" lon="-4.890467">
        <ele>1096.0</ele>
        <time>2018-09-15T11:59:17Z</time>
      </trkpt>
      <trkpt lat="40.246833" lon="-4.890600">
        <ele>1098.0</ele>
        <time>2018-09-15T11:59:18Z</time>
      </trkpt>
      <trkpt lat="40.246767" lon="-4.890700">
        <ele>1099.0</ele>
        <time>2018-09-15T11:59:19Z</time>
      </trkpt>
      <trkpt lat="40.246667" lon="-4.890750">
        <ele>1100.0</ele>
        <time>2018-09-15T11:59:20Z</time>
      </trkpt>
      <trkpt lat="40.246583" lon="-4.890783">
        <ele>1101.0</ele>
        <time>2018-09-15T11:59:21Z</time>
      </trkpt>
      <trkpt lat="40.246517" lon="-4.890783">
        <ele>1103.0</ele>
        <time>2018-09-15T11:59:22Z</time>
      </trkpt>
      <trkpt lat="40.246450" lon="-4.890750">
        <ele>1105.0</ele>
        <time>2018-09-15T11:59:23Z</time>
      </trkpt>
      <trkpt lat="40.246400" lon="-4.890717">
        <ele>1107.0</ele>
        <time>2018-09-15T11:59:24Z</time>
      </trkpt>
      <trkpt lat="40.246383" lon="-4.890650">
        <ele>1108.0</ele>
        <time>2018-09-15T11:59:25Z</time>
      </trkpt>
      <trkpt lat="40.246367" lon="-4.890583">
        <ele>1108.0</ele>
        <time>2018-09-15T11:59:26Z</time>
      </trkpt>
      <trkpt lat="40.246383" lon="-4.890533">
        <ele>1107.0</ele>
        <time>2018-09-15T11:59:27Z</time>
      </trkpt>
      <trkpt lat="40.246417" lon="-4.890483">
        <ele>1106.0</ele>
        <time>2018-09-15T11:59:28Z</time>
      </trkpt>
      <trkpt lat="40.246467" lon="-4.890467">
        <ele>1107.0</ele>
        <time>2018-09-15T11:59:29Z</time>
      </trkpt>
      <trkpt lat="40.246500" lon="-4.890467">
        <ele>1107.0</ele>
        <time>2018-09-15T11:59:30Z</time>
      </trkpt>
      <trkpt lat="40.246533" lon="-4.890467">
        <ele>1107.0</ele>
        <time>2018-09-15T11:59:31Z</time>
      </trkpt>
      <trkpt lat="40.246550" lon="-4.890450">
        <ele>1107.0</ele>
        <time>2018-09-15T11:59:32Z</time>
      </trkpt>
      <trkpt lat="40.246550" lon="-4.890400">
        <ele>1107.0</ele>
        <time>2018-09-15T11:59:33Z</time>
      </trkpt>
      <trkpt lat="40.246567" lon="-4.890350">
        <ele>1107.0</ele>
        <time>2018-09-15T11:59:34Z</time>
      </trkpt>
      <trkpt lat="40.246583" lon="-4.890300">
        <ele>1108.0</ele>
        <time>2018-09-15T11:59:35Z</time>
      </trkpt>
      <trkpt lat="40.246600" lon="-4.890300">
        <ele>1109.0</ele>
        <time>2018-09-15T11:59:36Z</time>
      </trkpt>
      <trkpt lat="40.246650" lon="-4.890333">
        <ele>1110.0</ele>
        <time>2018-09-15T11:59:37Z</time>
      </trkpt>
      <trkpt lat="40.246683" lon="-4.890400">
        <ele>1110.0</ele>
        <time>2018-09-15T11:59:38Z</time>
      </trkpt>
      <trkpt lat="40.246700" lon="-4.890533">
        <ele>1110.0</ele>
        <time>2018-09-15T11:59:39Z</time>
      </trkpt>
      <trkpt lat="40.246700" lon="-4.890683">
        <ele>1111.0</ele>
        <time>2018-09-15T11:59:40Z</time>
      </trkpt>
      <trkpt lat="40.246650" lon="-4.890833">
        <ele>1111.0</ele>
        <time>2018-09-15T11:59:41Z</time>
      </trkpt>
      <trkpt lat="40.246550" lon="-4.890967">
        <ele>1112.0</ele>
        <time>2018-09-15T11:59:42Z</time>
      </trkpt>
      <trkpt lat="40.246450" lon="-4.891067">
        <ele>1111.0</ele>
        <time>2018-09-15T11:59:43Z</time>
      </trkpt>
      <trkpt lat="40.246350" lon="-4.891167">
        <ele>1110.0</ele>
        <time>2018-09-15T11:59:44Z</time>
      </trkpt>
      <trkpt lat="40.246233" lon="-4.891233">
        <ele>1111.0</ele>
        <time>2018-09-15T11:59:45Z</time>
      </trkpt>
      <trkpt lat="40.246117" lon="-4.891267">
        <ele>1113.0</ele>
        <time>2018-09-15T11:59:46Z</time>
      </trkpt>
      <trkpt lat="40.246017" lon="-4.891233">
        <ele>1113.0</ele>
        <time>2018-09-15T11:59:47Z</time>
      </trkpt>
      <trkpt lat="40.245950" lon="-4.891200">
        <ele>1114.0</ele>
        <time>2018-09-15T11:59:48Z</time>
      </trkpt>
      <trkpt lat="40.245883" lon="-4.891183">
        <ele>1115.0</ele>
        <time>2018-09-15T11:59:49Z</time>
      </trkpt>
      <trkpt lat="40.245833" lon="-4.891167">
        <ele>1118.0</ele>
        <time>2018-09-15T11:59:50Z</time>
      </trkpt>
      <trkpt lat="40.245783" lon="-4.891167">
        <ele>1119.0</ele>
        <time>2018-09-15T11:59:51Z</time>
      </trkpt>
      <trkpt lat="40.245733" lon="-4.891133">
        <ele>1119.0</ele>
        <time>2018-09-15T11:59:52Z</time>
      </trkpt>
      <trkpt lat="40.245700" lon="-4.891100">
        <ele>1119.0</ele>
        <time>2018-09-15T11:59:53Z</time>
      </trkpt>
      <trkpt lat="40.245650" lon="-4.891050">
        <ele>1119.0</ele>
        <time>2018-09-15T11:59:54Z</time>
      </trkpt>
      <trkpt lat="40.245617" lon="-4.890983">
        <ele>1119.0</ele>
        <time>2018-09-15T11:59:55Z</time>
      </trkpt>
      <trkpt lat="40.245567" lon="-4.890950">
        <ele>1119.0</ele>
        <time>2018-09-15T11:59:56Z</time>
      </trkpt>
      <trkpt lat="40.245533" lon="-4.890900">
        <ele>1119.0</ele>
        <time>2018-09-15T11:59:57Z</time>
      </trkpt>
      <trkpt lat="40.245500" lon="-4.890850">
        <ele>1119.0</ele>
        <time>2018-09-15T11:59:58Z</time>
      </trkpt>
      <trkpt lat="40.245483" lon="-4.890800">
        <ele>1120.0</ele>
        <time>2018-09-15T11:59:59Z</time>
      </trkpt>
      <trkpt lat="40.245467" lon="-4.890750">
        <ele>1120.0</ele>
        <time>2018-09-15T12:00:00Z</time>
      </trkpt>
      <trkpt lat="40.245433" lon="-4.890717">
        <ele>1120.0</ele>
        <time>2018-09-15T12:00:01Z</time>
      </trkpt>
      <trkpt lat="40.245400" lon="-4.890683">
        <ele>1120.0</ele>
        <time>2018-09-15T12:00:02Z</time>
      </trkpt>
      <trkpt lat="40.245350" lon="-4.890650">
        <ele>1120.0</ele>
        <time>2018-09-15T12:00:03Z</time>
      </trkpt>
      <trkpt lat="40.245317" lon="-4.890617">
        <ele>1120.0</ele>
        <time>2018-09-15T12:00:04Z</time>
      </trkpt>
      <trkpt lat="40.245283" lon="-4.890583">
        <ele>1120.0</ele>
        <time>2018-09-15T12:00:05Z</time>
      </trkpt>
      <trkpt lat="40.245267" lon="-4.890533">
        <ele>1120.0</ele>
        <time>2018-09-15T12:00:06Z</time>
      </trkpt>
      <trkpt lat="40.245267" lon="-4.890467">
        <ele>1120.0</ele>
        <time>2018-09-15T12:00:07Z</time>
      </trkpt>
      <trkpt lat="40.245250" lon="-4.890400">
        <ele>1120.0</ele>
        <time>2018-09-15T12:00:08Z</time>
      </trkpt>
      <trkpt lat="40.245267" lon="-4.890333">
        <ele>1120.0</ele>
        <time>2018-09-15T12:00:09Z</time>
      </trkpt>
      <trkpt lat="40.245317" lon="-4.890300">
        <ele>1120.0</ele>
        <time>2018-09-15T12:00:10Z</time>
      </trkpt>
      <trkpt lat="40.245367" lon="-4.890300">
        <ele>1119.0</ele>
        <time>2018-09-15T12:00:11Z</time>
      </trkpt>
      <trkpt lat="40.245433" lon="-4.890350">
        <ele>1119.0</ele>
        <time>2018-09-15T12:00:12Z</time>
      </trkpt>
      <trkpt lat="40.245483" lon="-4.890450">
        <ele>1119.0</ele>
        <time>2018-09-15T12:00:13Z</time>
      </trkpt>
      <trkpt lat="40.245500" lon="-4.890583">
        <ele>1120.0</ele>
        <time>2018-09-15T12:00:14Z</time>
      </trkpt>
      <trkpt lat="40.245500" lon="-4.890717">
        <ele>1120.0</ele>
        <time>2018-09-15T12:00:15Z</time>
      </trkpt>
      <trkpt lat="40.245483" lon="-4.890867">
        <ele>1121.0</ele>
        <time>2018-09-15T12:00:16Z</time>
      </trkpt>
      <trkpt lat="40.245433" lon="-4.891033">
        <ele>1121.0</ele>
        <time>2018-09-15T12:00:17Z</time>
      </trkpt>
      <trkpt lat="40.245350" lon="-4.891167">
        <ele>1121.0</ele>
        <time>2018-09-15T12:00:18Z</time>
      </trkpt>
      <trkpt lat="40.245250" lon="-4.891250">
        <ele>1122.0</ele>
        <time>2018-09-15T12:00:19Z</time>
      </trkpt>
      <trkpt lat="40.245150" lon="-4.891283">
        <ele>1122.0</ele>
        <time>2018-09-15T12:00:20Z</time>
      </trkpt>
      <trkpt lat="40.245067" lon="-4.891250">
        <ele>1123.0</ele>
        <time>2018-09-15T12:00:21Z</time>
      </trkpt>
      <trkpt lat="40.245017" lon="-4.891233">
        <ele>1124.0</ele>
        <time>2018-09-15T12:00:22Z</time>
      </trkpt>
      <trkpt lat="40.244983" lon="-4.891200">
        <ele>1125.0</ele>
        <time>2018-09-15T12:00:23Z</time>
      </trkpt>
      <trkpt lat="40.244950" lon="-4.891167">
        <ele>1125.0</ele>
        <time>2018-09-15T12:00:24Z</time>
      </trkpt>
      <trkpt lat="40.244917" lon="-4.891133">
        <ele>1125.0</ele>
        <time>2018-09-15T12:00:25Z</time>
      </trkpt>
      <trkpt lat="40.244900" lon="-4.891067">
        <ele>1124.0</ele>
        <time>2018-09-15T12:00:26Z</time>
      </trkpt>
      <trkpt lat="40.244883" lon="-4.890983">
        <ele>1123.0</ele>
        <time>2018-09-15T12:00:27Z</time>
      </trkpt>
      <trkpt lat="40.244883" lon="-4.890900">
        <ele>1121.0</ele>
        <time>2018-09-15T12:00:28Z</time>
      </trkpt>
      <trkpt lat="40.244867" lon="-4.890833">
        <ele>1121.0</ele>
        <time>2018-09-15T12:00:29Z</time>
      </trkpt>
      <trkpt lat="40.244867" lon="-4.890767">
        <ele>1120.0</ele>
        <time>2018-09-15T12:00:30Z</time>
      </trkpt>
      <trkpt lat="40.244850" lon="-4.890700">
        <ele>1119.0</ele>
        <time>2018-09-15T12:00:31Z</time>
      </trkpt>
      <trkpt lat="40.244833" lon="-4.890633">
        <ele>1119.0</ele>
        <time>2018-09-15T12:00:32Z</time>
      </trkpt>
      <trkpt lat="40.244833" lon="-4.890567">
        <ele>1118.0</ele>
        <time>2018-09-15T12:00:33Z</time>
      </trkpt>
      <trkpt lat="40.244833" lon="-4.890500">
        <ele>1116.0</ele>
        <time>2018-09-15T12:00:34Z</time>
      </trkpt>
      <trkpt lat="40.244817" lon="-4.890450">
        <ele>1115.0</ele>
        <time>2018-09-15T12:00:35Z</time>
      </trkpt>
      <trkpt lat="40.244783" lon="-4.890350">
        <ele>1113.0</ele>
        <time>2018-09-15T12:00:36Z</time>
      </trkpt>
      <trkpt lat="40.244767" lon="-4.890300">
        <ele>1116.0</ele>
        <time>2018-09-15T12:00:37Z</time>
      </trkpt>
      <trkpt lat="40.244750" lon="-4.890250">
        <ele>1114.0</ele>
        <time>2018-09-15T12:00:38Z</time>
      </trkpt>
      <trkpt lat="40.244767" lon="-4.890200">
        <ele>1112.0</ele>
        <time>2018-09-15T12:00:39Z</time>
      </trkpt>
      <trkpt lat="40.244800" lon="-4.890167">
        <ele>1109.0</ele>
        <time>2018-09-15T12:00:40Z</time>
      </trkpt>
      <trkpt lat="40.244850" lon="-4.890150">
        <ele>1105.0</ele>
        <time>2018-09-15T12:00:41Z</time>
      </trkpt>
      <trkpt lat="40.244933" lon="-4.890150">
        <ele>1101.0</ele>
        <time>2018-09-15T12:00:42Z</time>
      </trkpt>
      <trkpt lat="40.245000" lon="-4.890200">
        <ele>1098.0</ele>
        <time>2018-09-15T12:00:43Z</time>
      </trkpt>
      <trkpt lat="40.245067" lon="-4.890267">
        <ele>1093.0</ele>
        <time>2018-09-15T12:00:44Z</time>
      </trkpt>
      <trkpt lat="40.245133" lon="-4.890367">
        <ele>1090.0</ele>
        <time>2018-09-15T12:00:45Z</time>
      </trkpt>
      <trkpt lat="40.245200" lon="-4.890467">
        <ele>1086.0</ele>
        <time>2018-09-15T12:00:46Z</time>
      </trkpt>
      <trkpt lat="40.245250" lon="-4.890567">
        <ele>1082.0</ele>
        <time>2018-09-15T12:00:47Z</time>
      </trkpt>
      <trkpt lat="40.245283" lon="-4.890683">
        <ele>1079.0</ele>
        <time>2018-09-15T12:00:48Z</time>
      </trkpt>
      <trkpt lat="40.245333" lon="-4.890817">
        <ele>1075.0</ele>
        <time>2018-09-15T12:00:49Z</time>
      </trkpt>
      <trkpt lat="40.245383" lon="-4.890933">
        <ele>1072.0</ele>
        <time>2018-09-15T12:00:50Z</time>
      </trkpt>
      <trkpt lat="40.245433" lon="-4.891050">
        <ele>1069.0</ele>
        <time>2018-09-15T12:00:51Z</time>
      </trkpt>
      <trkpt lat="40.245500" lon="-4.891183">
        <ele>1066.0</ele>
        <time>2018-09-15T12:00:52Z</time>
      </trkpt>
      <trkpt lat="40.245533" lon="-4.891350">
        <ele>1065.0</ele>
        <time>2018-09-15T12:00:53Z</time>
      </trkpt>
      <trkpt lat="40.245567" lon="-4.891517">
        <ele>1062.0</ele>
        <time>2018-09-15T12:00:54Z</time>
      </trkpt>
      <trkpt lat="40.245600" lon="-4.891683">
        <ele>1061.0</ele>
        <time>2018-09-15T12:00:55Z</time>
      </trkpt>
      <trkpt lat="40.245617" lon="-4.891850">
        <ele>1060.0</ele>
        <time>2018-09-15T12:00:56Z</time>
      </trkpt>
      <trkpt lat="40.245617" lon="-4.892017">
        <ele>1059.0</ele>
        <time>2018-09-15T12:00:57Z</time>
      </trkpt>
      <trkpt lat="40.245600" lon="-4.892183">
        <ele>1058.0</ele>
        <time>2018-09-15T12:00:58Z</time>
      </trkpt>
      <trkpt lat="40.245567" lon="-4.892333">
        <ele>1056.0</ele>
        <time>2018-09-15T12:00:59Z</time>
      </trkpt>
      <trkpt lat="40.245517" lon="-4.892483">
        <ele>1055.0</ele>
        <time>2018-09-15T12:01:00Z</time>
      </trkpt>
      <trkpt lat="40.245450" lon="-4.892617">
        <ele>1054.0</ele>
        <time>2018-09-15T12:01:01Z</time>
      </trkpt>
      <trkpt lat="40.245400" lon="-4.892750">
        <ele>1053.0</ele>
        <time>2018-09-15T12:01:02Z</time>
      </trkpt>
      <trkpt lat="40.245350" lon="-4.892883">
        <ele>1053.0</ele>
        <time>2018-09-15T12:01:03Z</time>
      </trkpt>
      <trkpt lat="40.245283" lon="-4.893000">
        <ele>1052.0</ele>
        <time>2018-09-15T12:01:04Z</time>
      </trkpt>
      <trkpt lat="40.245200" lon="-4.893100">
        <ele>1050.0</ele>
        <time>2018-09-15T12:01:05Z</time>
      </trkpt>
      <trkpt lat="40.245133" lon="-4.893200">
        <ele>1050.0</ele>
        <time>2018-09-15T12:01:06Z</time>
      </trkpt>
      <trkpt lat="40.245050" lon="-4.893283">
        <ele>1050.0</ele>
        <time>2018-09-15T12:01:07Z</time>
      </trkpt>
      <trkpt lat="40.244983" lon="-4.893350">
        <ele>1050.0</ele>
        <time>2018-09-15T12:01:08Z</time>
      </trkpt>
      <trkpt lat="40.244900" lon="-4.893433">
        <ele>1050.0</ele>
        <time>2018-09-15T12:01:09Z</time>
      </trkpt>
      <trkpt lat="40.244817" lon="-4.893500">
        <ele>1050.0</ele>
        <time>2018-09-15T12:01:10Z</time>
      </trkpt>
      <trkpt lat="40.244733" lon="-4.893567">
        <ele>1050.0</ele>
        <time>2018-09-15T12:01:11Z</time>
      </trkpt>
      <trkpt lat="40.244650" lon="-4.893617">
        <ele>1050.0</ele>
        <time>2018-09-15T12:01:12Z</time>
      </trkpt>
      <trkpt lat="40.244583" lon="-4.893650">
        <ele>1052.0</ele>
        <time>2018-09-15T12:01:13Z</time>
      </trkpt>
      <trkpt lat="40.244517" lon="-4.893683">
        <ele>1053.0</ele>
        <time>2018-09-15T12:01:14Z</time>
      </trkpt>
      <trkpt lat="40.244450" lon="-4.893717">
        <ele>1054.0</ele>
        <time>2018-09-15T12:01:15Z</time>
      </trkpt>
      <trkpt lat="40.244383" lon="-4.893733">
        <ele>1055.0</ele>
        <time>2018-09-15T12:01:16Z</time>
      </trkpt>
      <trkpt lat="40.244317" lon="-4.893717">
        <ele>1055.0</ele>
        <time>2018-09-15T12:01:17Z</time>
      </trkpt>
      <trkpt lat="40.244283" lon="-4.893667">
        <ele>1054.0</ele>
        <time>2018-09-15T12:01:18Z</time>
      </trkpt>
      <trkpt lat="40.244283" lon="-4.893617">
        <ele>1054.0</ele>
        <time>2018-09-15T12:01:19Z</time>
      </trkpt>
      <trkpt lat="40.244333" lon="-4.893600">
        <ele>1053.0</ele>
        <time>2018-09-15T12:01:20Z</time>
      </trkpt>
      <trkpt lat="40.244417" lon="-4.893617">
        <ele>1052.0</ele>
        <time>2018-09-15T12:01:21Z</time>
      </trkpt>
      <trkpt lat="40.244483" lon="-4.893667">
        <ele>1051.0</ele>
        <time>2018-09-15T12:01:22Z</time>
      </trkpt>
      <trkpt lat="40.244567" lon="-4.893767">
        <ele>1050.0</ele>
        <time>2018-09-15T12:01:23Z</time>
      </trkpt>
      <trkpt lat="40.244617" lon="-4.893917">
        <ele>1049.0</ele>
        <time>2018-09-15T12:01:24Z</time>
      </trkpt>
      <trkpt lat="40.244633" lon="-4.894067">
        <ele>1048.0</ele>
        <time>2018-09-15T12:01:25Z</time>
      </trkpt>
      <trkpt lat="40.244633" lon="-4.894250">
        <ele>1046.0</ele>
        <time>2018-09-15T12:01:26Z</time>
      </trkpt>
      <trkpt lat="40.244583" lon="-4.894417">
        <ele>1045.0</ele>
        <time>2018-09-15T12:01:27Z</time>
      </trkpt>
      <trkpt lat="40.244500" lon="-4.894533">
        <ele>1045.0</ele>
        <time>2018-09-15T12:01:28Z</time>
      </trkpt>
      <trkpt lat="40.244417" lon="-4.894617">
        <ele>1046.0</ele>
        <time>2018-09-15T12:01:29Z</time>
      </trkpt>
      <trkpt lat="40.244350" lon="-4.894667">
        <ele>1046.0</ele>
        <time>2018-09-15T12:01:30Z</time>
      </trkpt>
      <trkpt lat="40.244267" lon="-4.894700">
        <ele>1046.0</ele>
        <time>2018-09-15T12:01:31Z</time>
      </trkpt>
      <trkpt lat="40.244217" lon="-4.894733">
        <ele>1046.0</ele>
        <time>2018-09-15T12:01:32Z</time>
      </trkpt>
      <trkpt lat="40.244150" lon="-4.894750">
        <ele>1046.0</ele>
        <time>2018-09-15T12:01:33Z</time>
      </trkpt>
      <trkpt lat="40.244100" lon="-4.894733">
        <ele>1045.0</ele>
        <time>2018-09-15T12:01:34Z</time>
      </trkpt>
      <trkpt lat="40.244050" lon="-4.894700">
        <ele>1042.0</ele>
        <time>2018-09-15T12:01:35Z</time>
      </trkpt>
      <trkpt lat="40.244033" lon="-4.894633">
        <ele>1041.0</ele>
        <time>2018-09-15T12:01:36Z</time>
      </trkpt>
      <trkpt lat="40.244033" lon="-4.894583">
        <ele>1039.0</ele>
        <time>2018-09-15T12:01:37Z</time>
      </trkpt>
      <trkpt lat="40.244050" lon="-4.894550">
        <ele>1038.0</ele>
        <time>2018-09-15T12:01:38Z</time>
      </trkpt>
      <trkpt lat="40.244033" lon="-4.894500">
        <ele>1038.0</ele>
        <time>2018-09-15T12:01:39Z</time>
      </trkpt>
      <trkpt lat="40.244033" lon="-4.894450">
        <ele>1040.0</ele>
        <time>2018-09-15T12:01:40Z</time>
      </trkpt>
      <trkpt lat="40.244033" lon="-4.894400">
        <ele>1040.0</ele>
        <time>2018-09-15T12:01:41Z</time>
      </trkpt>
      <trkpt lat="40.244050" lon="-4.894333">
        <ele>1040.0</ele>
        <time>2018-09-15T12:01:42Z</time>
      </trkpt>
      <trkpt lat="40.244067" lon="-4.894283">
        <ele>1040.0</ele>
        <time>2018-09-15T12:01:43Z</time>
      </trkpt>
      <trkpt lat="40.244100" lon="-4.894233">
        <ele>1040.0</ele>
        <time>2018-09-15T12:01:44Z</time>
      </trkpt>
      <trkpt lat="40.244117" lon="-4.894183">
        <ele>1040.0</ele>
        <time>2018-09-15T12:01:45Z</time>
      </trkpt>
      <trkpt lat="40.244117" lon="-4.894150">
        <ele>1040.0</ele>
        <time>2018-09-15T12:01:46Z</time>
      </trkpt>
      <trkpt lat="40.244133" lon="-4.894100">
        <ele>1040.0</ele>
        <time>2018-09-15T12:01:47Z</time>
      </trkpt>
      <trkpt lat="40.244150" lon="-4.894067">
        <ele>1040.0</ele>
        <time>2018-09-15T12:01:48Z</time>
      </trkpt>
      <trkpt lat="40.244183" lon="-4.894000">
        <ele>1040.0</ele>
        <time>2018-09-15T12:01:49Z</time>
      </trkpt>
      <trkpt lat="40.244200" lon="-4.893933">
        <ele>1040.0</ele>
        <time>2018-09-15T12:01:50Z</time>
      </trkpt>
      <trkpt lat="40.244233" lon="-4.893883">
        <ele>1039.0</ele>
        <time>2018-09-15T12:01:51Z</time>
      </trkpt>
      <trkpt lat="40.244250" lon="-4.893833">
        <ele>1039.0</ele>
        <time>2018-09-15T12:01:52Z</time>
      </trkpt>
      <trkpt lat="40.244267" lon="-4.893783">
        <ele>1039.0</ele>
        <time>2018-09-15T12:01:53Z</time>
      </trkpt>
      <trkpt lat="40.244300" lon="-4.893717">
        <ele>1039.0</ele>
        <time>2018-09-15T12:01:54Z</time>
      </trkpt>
      <trkpt lat="40.244333" lon="-4.893650">
        <ele>1039.0</ele>
        <time>2018-09-15T12:01:55Z</time>
      </trkpt>
      <trkpt lat="40.244350" lon="-4.893583">
        <ele>1039.0</ele>
        <time>2018-09-15T12:01:56Z</time>
      </trkpt>
      <trkpt lat="40.244367" lon="-4.893533">
        <ele>1039.0</ele>
        <time>2018-09-15T12:01:57Z</time>
      </trkpt>
      <trkpt lat="40.244383" lon="-4.893483">
        <ele>1038.0</ele>
        <time>2018-09-15T12:01:58Z</time>
      </trkpt>
      <trkpt lat="40.244400" lon="-4.893433">
        <ele>1038.0</ele>
        <time>2018-09-15T12:01:59Z</time>
      </trkpt>
      <trkpt lat="40.244417" lon="-4.893400">
        <ele>1038.0</ele>
        <time>2018-09-15T12:02:00Z</time>
      </trkpt>
      <trkpt lat="40.244450" lon="-4.893350">
        <ele>1038.0</ele>
        <time>2018-09-15T12:02:01Z</time>
      </trkpt>
      <trkpt lat="40.244467" lon="-4.893317">
        <ele>1037.0</ele>
        <time>2018-09-15T12:02:02Z</time>
      </trkpt>
      <trkpt lat="40.244483" lon="-4.893267">
        <ele>1037.0</ele>
        <time>2018-09-15T12:02:03Z</time>
      </trkpt>
      <trkpt lat="40.244483" lon="-4.893233">
        <ele>1037.0</ele>
        <time>2018-09-15T12:02:04Z</time>
      </trkpt>
      <trkpt lat="40.244483" lon="-4.893217">
        <ele>1036.0</ele>
        <time>2018-09-15T12:02:05Z</time>
      </trkpt>
      <trkpt lat="40.244500" lon="-4.893183">
        <ele>1036.0</ele>
        <time>2018-09-15T12:02:06Z</time>
      </trkpt>
      <trkpt lat="40.244500" lon="-4.893167">
        <ele>1036.0</ele>
        <time>2018-09-15T12:02:07Z</time>
      </trkpt>
      <trkpt lat="40.244533" lon="-4.893117">
        <ele>1036.0</ele>
        <time>2018-09-15T12:02:08Z</time>
      </trkpt>
      <trkpt lat="40.244567" lon="-4.893050">
        <ele>1035.0</ele>
        <time>2018-09-15T12:02:09Z</time>
      </trkpt>
      <trkpt lat="40.244600" lon="-4.893000">
        <ele>1034.0</ele>
        <time>2018-09-15T12:02:10Z</time>
      </trkpt>
      <trkpt lat="40.244600" lon="-4.892933">
        <ele>1034.0</ele>
        <time>2018-09-15T12:02:11Z</time>
      </trkpt>
      <trkpt lat="40.244617" lon="-4.892883">
        <ele>1034.0</ele>
        <time>2018-09-15T12:02:12Z</time>
      </trkpt>
      <trkpt lat="40.244617" lon="-4.892850">
        <ele>1033.0</ele>
        <time>2018-09-15T12:02:13Z</time>
      </trkpt>
      <trkpt lat="40.244633" lon="-4.892800">
        <ele>1032.0</ele>
        <time>2018-09-15T12:02:14Z</time>
      </trkpt>
      <trkpt lat="40.244650" lon="-4.892767">
        <ele>1032.0</ele>
        <time>2018-09-15T12:02:15Z</time>
      </trkpt>
      <trkpt lat="40.244650" lon="-4.892700">
        <ele>1032.0</ele>
        <time>2018-09-15T12:02:16Z</time>
      </trkpt>
      <trkpt lat="40.244600" lon="-4.892633">
        <ele>1031.0</ele>
        <time>2018-09-15T12:02:17Z</time>
      </trkpt>
      <trkpt lat="40.244533" lon="-4.892600">
        <ele>1031.0</ele>
        <time>2018-09-15T12:02:18Z</time>
      </trkpt>
      <trkpt lat="40.244433" lon="-4.892583">
        <ele>1030.0</ele>
        <time>2018-09-15T12:02:19Z</time>
      </trkpt>
      <trkpt lat="40.244350" lon="-4.892600">
        <ele>1030.0</ele>
        <time>2018-09-15T12:02:20Z</time>
      </trkpt>
      <trkpt lat="40.244267" lon="-4.892633">
        <ele>1029.0</ele>
        <time>2018-09-15T12:02:21Z</time>
      </trkpt>
      <trkpt lat="40.244183" lon="-4.892717">
        <ele>1028.0</ele>
        <time>2018-09-15T12:02:22Z</time>
      </trkpt>
      <trkpt lat="40.244100" lon="-4.892767">
        <ele>1025.0</ele>
        <time>2018-09-15T12:02:23Z</time>
      </trkpt>
      <trkpt lat="40.243983" lon="-4.892800">
        <ele>1022.0</ele>
        <time>2018-09-15T12:02:24Z</time>
      </trkpt>
      <trkpt lat="40.243867" lon="-4.892850">
        <ele>1018.0</ele>
        <time>2018-09-15T12:02:25Z</time>
      </trkpt>
      <trkpt lat="40.243767" lon="-4.892900">
        <ele>1014.0</ele>
        <time>2018-09-15T12:02:26Z</time>
      </trkpt>
      <trkpt lat="40.243650" lon="-4.892933">
        <ele>1012.0</ele>
        <time>2018-09-15T12:02:27Z</time>
      </trkpt>
      <trkpt lat="40.243567" lon="-4.892967">
        <ele>1009.0</ele>
        <time>2018-09-15T12:02:28Z</time>
      </trkpt>
      <trkpt lat="40.243467" lon="-4.893000">
        <ele>1006.0</ele>
        <time>2018-09-15T12:02:29Z</time>
      </trkpt>
      <trkpt lat="40.243367" lon="-4.893033">
        <ele>1002.0</ele>
        <time>2018-09-15T12:02:30Z</time>
      </trkpt>
      <trkpt lat="40.243283" lon="-4.893067">
        <ele>999.0</ele>
        <time>2018-09-15T12:02:31Z</time>
      </trkpt>
      <trkpt lat="40.243167" lon="-4.893100">
        <ele>995.0</ele>
        <time>2018-09-15T12:02:32Z</time>
      </trkpt>
      <trkpt lat="40.243067" lon="-4.893150">
        <ele>992.0</ele>
        <time>2018-09-15T12:02:33Z</time>
      </trkpt>
      <trkpt lat="40.242967" lon="-4.893183">
        <ele>990.0</ele>
        <time>2018-09-15T12:02:34Z</time>
      </trkpt>
      <trkpt lat="40.242867" lon="-4.893217">
        <ele>988.0</ele>
        <time>2018-09-15T12:02:35Z</time>
      </trkpt>
      <trkpt lat="40.242767" lon="-4.893250">
        <ele>985.0</ele>
        <time>2018-09-15T12:02:36Z</time>
      </trkpt>
      <trkpt lat="40.242667" lon="-4.893267">
        <ele>982.0</ele>
        <time>2018-09-15T12:02:37Z</time>
      </trkpt>
      <trkpt lat="40.242567" lon="-4.893283">
        <ele>980.0</ele>
        <time>2018-09-15T12:02:38Z</time>
      </trkpt>
      <trkpt lat="40.242467" lon="-4.893300">
        <ele>979.0</ele>
        <time>2018-09-15T12:02:39Z</time>
      </trkpt>
      <trkpt lat="40.242367" lon="-4.893333">
        <ele>978.0</ele>
        <time>2018-09-15T12:02:40Z</time>
      </trkpt>
      <trkpt lat="40.242267" lon="-4.893350">
        <ele>977.0</ele>
        <time>2018-09-15T12:02:41Z</time>
      </trkpt>
      <trkpt lat="40.242167" lon="-4.893383">
        <ele>975.0</ele>
        <time>2018-09-15T12:02:42Z</time>
      </trkpt>
      <trkpt lat="40.242067" lon="-4.893400">
        <ele>974.0</ele>
        <time>2018-09-15T12:02:43Z</time>
      </trkpt>
      <trkpt lat="40.241983" lon="-4.893450">
        <ele>972.0</ele>
        <time>2018-09-15T12:02:44Z</time>
      </trkpt>
      <trkpt lat="40.241900" lon="-4.893467">
        <ele>973.0</ele>
        <time>2018-09-15T12:02:45Z</time>
      </trkpt>
      <trkpt lat="40.241800" lon="-4.893467">
        <ele>971.0</ele>
        <time>2018-09-15T12:02:46Z</time>
      </trkpt>
      <trkpt lat="40.241717" lon="-4.893483">
        <ele>970.0</ele>
        <time>2018-09-15T12:02:47Z</time>
      </trkpt>
      <trkpt lat="40.241617" lon="-4.893467">
        <ele>968.0</ele>
        <time>2018-09-15T12:02:48Z</time>
      </trkpt>
      <trkpt lat="40.241533" lon="-4.893467">
        <ele>967.0</ele>
        <time>2018-09-15T12:02:49Z</time>
      </trkpt>
      <trkpt lat="40.241450" lon="-4.893467">
        <ele>965.0</ele>
        <time>2018-09-15T12:02:50Z</time>
      </trkpt>
      <trkpt lat="40.241367" lon="-4.893467">
        <ele>964.0</ele>
        <time>2018-09-15T12:02:51Z</time>
      </trkpt>
      <trkpt lat="40.241300" lon="-4.893467">
        <ele>964.0</ele>
        <time>2018-09-15T12:02:52Z</time>
      </trkpt>
      <trkpt lat="40.241217" lon="-4.893467">
        <ele>963.0</ele>
        <time>2018-09-15T12:02:53Z</time>
      </trkpt>
      <trkpt lat="40.241133" lon="-4.893467">
        <ele>961.0</ele>
        <time>2018-09-15T12:02:54Z</time>
      </trkpt>
      <trkpt lat="40.241050" lon="-4.893450">
        <ele>960.0</ele>
        <time>2018-09-15T12:02:55Z</time>
      </trkpt>
      <trkpt lat="40.240983" lon="-4.893450">
        <ele>959.0</ele>
        <time>2018-09-15T12:02:56Z</time>
      </trkpt>
      <trkpt lat="40.240900" lon="-4.893433">
        <ele>958.0</ele>
        <time>2018-09-15T12:02:57Z</time>
      </trkpt>
      <trkpt lat="40.240833" lon="-4.893417">
        <ele>957.0</ele>
        <time>2018-09-15T12:02:58Z</time>
      </trkpt>
      <trkpt lat="40.240767" lon="-4.893400">
        <ele>958.0</ele>
        <time>2018-09-15T12:02:59Z</time>
      </trkpt>
      <trkpt lat="40.240700" lon="-4.893367">
        <ele>958.0</ele>
        <time>2018-09-15T12:03:00Z</time>
      </trkpt>
      <trkpt lat="40.240633" lon="-4.893333">
        <ele>958.0</ele>
        <time>2018-09-15T12:03:01Z</time>
      </trkpt>
      <trkpt lat="40.240583" lon="-4.893300">
        <ele>958.0</ele>
        <time>2018-09-15T12:03:02Z</time>
      </trkpt>
      <trkpt lat="40.240517" lon="-4.893283">
        <ele>958.0</ele>
        <time>2018-09-15T12:03:03Z</time>
      </trkpt>
      <trkpt lat="40.240450" lon="-4.893250">
        <ele>958.0</ele>
        <time>2018-09-15T12:03:04Z</time>
      </trkpt>
      <trkpt lat="40.240383" lon="-4.893217">
        <ele>958.0</ele>
        <time>2018-09-15T12:03:05Z</time>
      </trkpt>
      <trkpt lat="40.240333" lon="-4.893167">
        <ele>960.0</ele>
        <time>2018-09-15T12:03:06Z</time>
      </trkpt>
      <trkpt lat="40.240300" lon="-4.893117">
        <ele>961.0</ele>
        <time>2018-09-15T12:03:07Z</time>
      </trkpt>
      <trkpt lat="40.240250" lon="-4.893067">
        <ele>961.0</ele>
        <time>2018-09-15T12:03:08Z</time>
      </trkpt>
      <trkpt lat="40.240200" lon="-4.893000">
        <ele>961.0</ele>
        <time>2018-09-15T12:03:09Z</time>
      </trkpt>
      <trkpt lat="40.240150" lon="-4.892933">
        <ele>960.0</ele>
        <time>2018-09-15T12:03:10Z</time>
      </trkpt>
      <trkpt lat="40.240083" lon="-4.892850">
        <ele>959.0</ele>
        <time>2018-09-15T12:03:11Z</time>
      </trkpt>
      <trkpt lat="40.240033" lon="-4.892750">
        <ele>959.0</ele>
        <time>2018-09-15T12:03:12Z</time>
      </trkpt>
      <trkpt lat="40.239967" lon="-4.892683">
        <ele>962.0</ele>
        <time>2018-09-15T12:03:13Z</time>
      </trkpt>
      <trkpt lat="40.239900" lon="-4.892650">
        <ele>964.0</ele>
        <time>2018-09-15T12:03:14Z</time>
      </trkpt>
      <trkpt lat="40.239850" lon="-4.892617">
        <ele>966.0</ele>
        <time>2018-09-15T12:03:15Z</time>
      </trkpt>
      <trkpt lat="40.239800" lon="-4.892567">
        <ele>969.0</ele>
        <time>2018-09-15T12:03:16Z</time>
      </trkpt>
      <trkpt lat="40.239767" lon="-4.892517">
        <ele>970.0</ele>
        <time>2018-09-15T12:03:17Z</time>
      </trkpt>
      <trkpt lat="40.239733" lon="-4.892467">
        <ele>972.0</ele>
        <time>2018-09-15T12:03:18Z</time>
      </trkpt>
      <trkpt lat="40.239733" lon="-4.892400">
        <ele>974.0</ele>
        <time>2018-09-15T12:03:19Z</time>
      </trkpt>
      <trkpt lat="40.239733" lon="-4.892383">
        <ele>977.0</ele>
        <time>2018-09-15T12:03:20Z</time>
      </trkpt>
      <trkpt lat="40.239767" lon="-4.892367">
        <ele>978.0</ele>
        <time>2018-09-15T12:03:21Z</time>
      </trkpt>
      <trkpt lat="40.239833" lon="-4.892383">
        <ele>979.0</ele>
        <time>2018-09-15T12:03:22Z</time>
      </trkpt>
      <trkpt lat="40.239900" lon="-4.892417">
        <ele>978.0</ele>
        <time>2018-09-15T12:03:23Z</time>
      </trkpt>
      <trkpt lat="40.239950" lon="-4.892500">
        <ele>978.0</ele>
        <time>2018-09-15T12:03:24Z</time>
      </trkpt>
      <trkpt lat="40.240000" lon="-4.892617">
        <ele>978.0</ele>
        <time>2018-09-15T12:03:25Z</time>
      </trkpt>
      <trkpt lat="40.240017" lon="-4.892783">
        <ele>977.0</ele>
        <time>2018-09-15T12:03:26Z</time>
      </trkpt>
      <trkpt lat="40.240000" lon="-4.892950">
        <ele>977.0</ele>
        <time>2018-09-15T12:03:27Z</time>
      </trkpt>
      <trkpt lat="40.239950" lon="-4.893083">
        <ele>977.0</ele>
        <time>2018-09-15T12:03:28Z</time>
      </trkpt>
      <trkpt lat="40.239867" lon="-4.893183">
        <ele>977.0</ele>
        <time>2018-09-15T12:03:29Z</time>
      </trkpt>
      <trkpt lat="40.239750" lon="-4.893250">
        <ele>975.0</ele>
        <time>2018-09-15T12:03:30Z</time>
      </trkpt>
      <trkpt lat="40.239617" lon="-4.893283">
        <ele>975.0</ele>
        <time>2018-09-15T12:03:31Z</time>
      </trkpt>
      <trkpt lat="40.239500" lon="-4.893300">
        <ele>976.0</ele>
        <time>2018-09-15T12:03:32Z</time>
      </trkpt>
      <trkpt lat="40.239383" lon="-4.893283">
        <ele>978.0</ele>
        <time>2018-09-15T12:03:33Z</time>
      </trkpt>
      <trkpt lat="40.239283" lon="-4.893267">
        <ele>979.0</ele>
        <time>2018-09-15T12:03:34Z</time>
      </trkpt>
      <trkpt lat="40.239183" lon="-4.893217">
        <ele>980.0</ele>
        <time>2018-09-15T12:03:35Z</time>
      </trkpt>
      <trkpt lat="40.239100" lon="-4.893167">
        <ele>980.0</ele>
        <time>2018-09-15T12:03:36Z</time>
      </trkpt>
      <trkpt lat="40.239033" lon="-4.893083">
        <ele>981.0</ele>
        <time>2018-09-15T12:03:37Z</time>
      </trkpt>
      <trkpt lat="40.238983" lon="-4.892983">
        <ele>982.0</ele>
        <time>2018-09-15T12:03:38Z</time>
      </trkpt>
      <trkpt lat="40.238950" lon="-4.892900">
        <ele>982.0</ele>
        <time>2018-09-15T12:03:39Z</time>
      </trkpt>
      <trkpt lat="40.238933" lon="-4.892817">
        <ele>983.0</ele>
        <time>2018-09-15T12:03:40Z</time>
      </trkpt>
      <trkpt lat="40.238933" lon="-4.892733">
        <ele>985.0</ele>
        <time>2018-09-15T12:03:41Z</time>
      </trkpt>
      <trkpt lat="40.238933" lon="-4.892650">
        <ele>985.0</ele>
        <time>2018-09-15T12:03:42Z</time>
      </trkpt>
      <trkpt lat="40.238933" lon="-4.892567">
        <ele>986.0</ele>
        <time>2018-09-15T12:03:43Z</time>
      </trkpt>
      <trkpt lat="40.238950" lon="-4.892483">
        <ele>987.0</ele>
        <time>2018-09-15T12:03:44Z</time>
      </trkpt>
      <trkpt lat="40.238950" lon="-4.892433">
        <ele>990.0</ele>
        <time>2018-09-15T12:03:45Z</time>
      </trkpt>
      <trkpt lat="40.238967" lon="-4.892400">
        <ele>991.0</ele>
        <time>2018-09-15T12:03:46Z</time>
      </trkpt>
      <trkpt lat="40.238983" lon="-4.892350">
        <ele>993.0</ele>
        <time>2018-09-15T12:03:47Z</time>
      </trkpt>
      <trkpt lat="40.238983" lon="-4.892300">
        <ele>995.0</ele>
        <time>2018-09-15T12:03:48Z</time>
      </trkpt>
      <trkpt lat="40.239000" lon="-4.892233">
        <ele>996.0</ele>
        <time>2018-09-15T12:03:49Z</time>
      </trkpt>
      <trkpt lat="40.239000" lon="-4.892150">
        <ele>997.0</ele>
        <time>2018-09-15T12:03:50Z</time>
      </trkpt>
      <trkpt lat="40.238967" lon="-4.892067">
        <ele>996.0</ele>
        <time>2018-09-15T12:03:51Z</time>
      </trkpt>
      <trkpt lat="40.238900" lon="-4.891983">
        <ele>996.0</ele>
        <time>2018-09-15T12:03:52Z</time>
      </trkpt>
      <trkpt lat="40.238800" lon="-4.891950">
        <ele>996.0</ele>
        <time>2018-09-15T12:03:53Z</time>
      </trkpt>
      <trkpt lat="40.238717" lon="-4.891933">
        <ele>994.0</ele>
        <time>2018-09-15T12:03:54Z</time>
      </trkpt>
      <trkpt lat="40.238617" lon="-4.891967">
        <ele>993.0</ele>
        <time>2018-09-15T12:03:55Z</time>
      </trkpt>
      <trkpt lat="40.238533" lon="-4.892050">
        <ele>992.0</ele>
        <time>2018-09-15T12:03:56Z</time>
      </trkpt>
      <trkpt lat="40.238467" lon="-4.892150">
        <ele>991.0</ele>
        <time>2018-09-15T12:03:57Z</time>
      </trkpt>
      <trkpt lat="40.238417" lon="-4.892283">
        <ele>989.0</ele>
        <time>2018-09-15T12:03:58Z</time>
      </trkpt>
      <trkpt lat="40.238417" lon="-4.892417">
        <ele>987.0</ele>
        <time>2018-09-15T12:03:59Z</time>
      </trkpt>
      <trkpt lat="40.238467" lon="-4.892533">
        <ele>984.0</ele>
        <time>2018-09-15T12:04:00Z</time>
      </trkpt>
      <trkpt lat="40.238550" lon="-4.892600">
        <ele>982.0</ele>
        <time>2018-09-15T12:04:01Z</time>
      </trkpt>
      <trkpt lat="40.238633" lon="-4.892617">
        <ele>981.0</ele>
        <time>2018-09-15T12:04:02Z</time>
      </trkpt>
      <trkpt lat="40.238683" lon="-4.892600">
        <ele>980.0</ele>
        <time>2018-09-15T12:04:03Z</time>
      </trkpt>
      <trkpt lat="40.238733" lon="-4.892567">
        <ele>980.0</ele>
        <time>2018-09-15T12:04:04Z</time>
      </trkpt>
      <trkpt lat="40.238767" lon="-4.892533">
        <ele>981.0</ele>
        <time>2018-09-15T12:04:05Z</time>
      </trkpt>
      <trkpt lat="40.238817" lon="-4.892517">
        <ele>981.0</ele>
        <time>2018-09-15T12:04:06Z</time>
      </trkpt>
      <trkpt lat="40.238867" lon="-4.892483">
        <ele>982.0</ele>
        <time>2018-09-15T12:04:07Z</time>
      </trkpt>
      <trkpt lat="40.238933" lon="-4.892450">
        <ele>982.0</ele>
        <time>2018-09-15T12:04:08Z</time>
      </trkpt>
      <trkpt lat="40.238967" lon="-4.892383">
        <ele>982.0</ele>
        <time>2018-09-15T12:04:09Z</time>
      </trkpt>
      <trkpt lat="40.238983" lon="-4.892300">
        <ele>980.0</ele>
        <time>2018-09-15T12:04:10Z</time>
      </trkpt>
      <trkpt lat="40.238950" lon="-4.892217">
        <ele>979.0</ele>
        <time>2018-09-15T12:04:11Z</time>
      </trkpt>
      <trkpt lat="40.238867" lon="-4.892200">
        <ele>976.0</ele>
        <time>2018-09-15T12:04:12Z</time>
      </trkpt>
      <trkpt lat="40.238783" lon="-4.892183">
        <ele>974.0</ele>
        <time>2018-09-15T12:04:13Z</time>
      </trkpt>
      <trkpt lat="40.238700" lon="-4.892217">
        <ele>971.0</ele>
        <time>2018-09-15T12:04:14Z</time>
      </trkpt>
      <trkpt lat="40.238617" lon="-4.892283">
        <ele>968.0</ele>
        <time>2018-09-15T12:04:15Z</time>
      </trkpt>
      <trkpt lat="40.238533" lon="-4.892383">
        <ele>966.0</ele>
        <time>2018-09-15T12:04:16Z</time>
      </trkpt>
      <trkpt lat="40.238483" lon="-4.892533">
        <ele>964.0</ele>
        <time>2018-09-15T12:04:17Z</time>
      </trkpt>
      <trkpt lat="40.238467" lon="-4.892683">
        <ele>961.0</ele>
        <time>2018-09-15T12:04:18Z</time>
      </trkpt>
      <trkpt lat="40.238500" lon="-4.892833">
        <ele>958.0</ele>
        <time>2018-09-15T12:04:19Z</time>
      </trkpt>
      <trkpt lat="40.238583" lon="-4.892933">
        <ele>955.0</ele>
        <time>2018-09-15T12:04:20Z</time>
      </trkpt>
      <trkpt lat="40.238667" lon="-4.893000">
        <ele>952.0</ele>
        <time>2018-09-15T12:04:21Z</time>
      </trkpt>
      <trkpt lat="40.238750" lon="-4.893000">
        <ele>948.0</ele>
        <time>2018-09-15T12:04:22Z</time>
      </trkpt>
      <trkpt lat="40.238817" lon="-4.892983">
        <ele>946.0</ele>
        <time>2018-09-15T12:04:23Z</time>
      </trkpt>
      <trkpt lat="40.238867" lon="-4.892950">
        <ele>945.0</ele>
        <time>2018-09-15T12:04:24Z</time>
      </trkpt>
      <trkpt lat="40.238917" lon="-4.892933">
        <ele>944.0</ele>
        <time>2018-09-15T12:04:25Z</time>
      </trkpt>
      <trkpt lat="40.238950" lon="-4.892917">
        <ele>943.0</ele>
        <time>2018-09-15T12:04:26Z</time>
      </trkpt>
      <trkpt lat="40.239000" lon="-4.892900">
        <ele>941.0</ele>
        <time>2018-09-15T12:04:27Z</time>
      </trkpt>
      <trkpt lat="40.239033" lon="-4.892833">
        <ele>939.0</ele>
        <time>2018-09-15T12:04:28Z</time>
      </trkpt>
      <trkpt lat="40.239067" lon="-4.892783">
        <ele>936.0</ele>
        <time>2018-09-15T12:04:29Z</time>
      </trkpt>
      <trkpt lat="40.239083" lon="-4.892717">
        <ele>934.0</ele>
        <time>2018-09-15T12:04:30Z</time>
      </trkpt>
      <trkpt lat="40.239100" lon="-4.892650">
        <ele>934.0</ele>
        <time>2018-09-15T12:04:31Z</time>
      </trkpt>
      <trkpt lat="40.239117" lon="-4.892583">
        <ele>934.0</ele>
        <time>2018-09-15T12:04:32Z</time>
      </trkpt>
      <trkpt lat="40.239150" lon="-4.892533">
        <ele>933.0</ele>
        <time>2018-09-15T12:04:33Z</time>
      </trkpt>
      <trkpt lat="40.239183" lon="-4.892467">
        <ele>931.0</ele>
        <time>2018-09-15T12:04:34Z</time>
      </trkpt>
      <trkpt lat="40.239233" lon="-4.892400">
        <ele>933.0</ele>
        <time>2018-09-15T12:04:35Z</time>
      </trkpt>
      <trkpt lat="40.239267" lon="-4.892333">
        <ele>933.0</ele>
        <time>2018-09-15T12:04:36Z</time>
      </trkpt>
      <trkpt lat="40.239300" lon="-4.892267">
        <ele>933.0</ele>
        <time>2018-09-15T12:04:37Z</time>
      </trkpt>
      <trkpt lat="40.239333" lon="-4.892183">
        <ele>933.0</ele>
        <time>2018-09-15T12:04:38Z</time>
      </trkpt>
      <trkpt lat="40.239367" lon="-4.892133">
        <ele>933.0</ele>
        <time>2018-09-15T12:04:39Z</time>
      </trkpt>
      <trkpt lat="40.239400" lon="-4.892100">
        <ele>932.0</ele>
        <time>2018-09-15T12:04:40Z</time>
      </trkpt>
      <trkpt lat="40.239417" lon="-4.892050">
        <ele>931.0</ele>
        <time>2018-09-15T12:04:41Z</time>
      </trkpt>
      <trkpt lat="40.239450" lon="-4.891950">
        <ele>931.0</ele>
        <time>2018-09-15T12:04:42Z</time>
      </trkpt>
      <trkpt lat="40.239467" lon="-4.891867">
        <ele>930.0</ele>
        <time>2018-09-15T12:04:43Z</time>
      </trkpt>
      <trkpt lat="40.239467" lon="-4.891767">
        <ele>930.0</ele>
        <time>2018-09-15T12:04:44Z</time>
      </trkpt>
      <trkpt lat="40.239467" lon="-4.891667">
        <ele>929.0</ele>
        <time>2018-09-15T12:04:45Z</time>
      </trkpt>
      <trkpt lat="40.239467" lon="-4.891583">
        <ele>927.0</ele>
        <time>2018-09-15T12:04:46Z</time>
      </trkpt>
      <trkpt lat="40.239467" lon="-4.891483">
        <ele>926.0</ele>
        <time>2018-09-15T12:04:47Z</time>
      </trkpt>
      <trkpt lat="40.239450" lon="-4.891400">
        <ele>926.0</ele>
        <time>2018-09-15T12:04:48Z</time>
      </trkpt>
      <trkpt lat="40.239417" lon="-4.891317">
        <ele>926.0</ele>
        <time>2018-09-15T12:04:49Z</time>
      </trkpt>
      <trkpt lat="40.239350" lon="-4.891233">
        <ele>925.0</ele>
        <time>2018-09-15T12:04:50Z</time>
      </trkpt>
      <trkpt lat="40.239267" lon="-4.891200">
        <ele>923.0</ele>
        <time>2018-09-15T12:04:51Z</time>
      </trkpt>
      <trkpt lat="40.239200" lon="-4.891167">
        <ele>920.0</ele>
        <time>2018-09-15T12:04:52Z</time>
      </trkpt>
      <trkpt lat="40.239133" lon="-4.891117">
        <ele>918.0</ele>
        <time>2018-09-15T12:04:53Z</time>
      </trkpt>
      <trkpt lat="40.239067" lon="-4.891100">
        <ele>916.0</ele>
        <time>2018-09-15T12:04:54Z</time>
      </trkpt>
      <trkpt lat="40.239000" lon="-4.891083">
        <ele>914.0</ele>
        <time>2018-09-15T12:04:55Z</time>
      </trkpt>
      <trkpt lat="40.238900" lon="-4.891067">
        <ele>914.0</ele>
        <time>2018-09-15T12:04:56Z</time>
      </trkpt>
      <trkpt lat="40.238800" lon="-4.891050">
        <ele>911.0</ele>
        <time>2018-09-15T12:04:57Z</time>
      </trkpt>
      <trkpt lat="40.238700" lon="-4.891033">
        <ele>908.0</ele>
        <time>2018-09-15T12:04:58Z</time>
      </trkpt>
      <trkpt lat="40.238600" lon="-4.891000">
        <ele>905.0</ele>
        <time>2018-09-15T12:04:59Z</time>
      </trkpt>
      <trkpt lat="40.238500" lon="-4.890983">
        <ele>902.0</ele>
        <time>2018-09-15T12:05:00Z</time>
      </trkpt>
      <trkpt lat="40.238400" lon="-4.890950">
        <ele>898.0</ele>
        <time>2018-09-15T12:05:01Z</time>
      </trkpt>
      <trkpt lat="40.238300" lon="-4.890933">
        <ele>899.0</ele>
        <time>2018-09-15T12:05:02Z</time>
      </trkpt>
      <trkpt lat="40.238200" lon="-4.890900">
        <ele>897.0</ele>
        <time>2018-09-15T12:05:03Z</time>
      </trkpt>
      <trkpt lat="40.238100" lon="-4.890883">
        <ele>893.0</ele>
        <time>2018-09-15T12:05:04Z</time>
      </trkpt>
      <trkpt lat="40.237983" lon="-4.890850">
        <ele>889.0</ele>
        <time>2018-09-15T12:05:05Z</time>
      </trkpt>
      <trkpt lat="40.237900" lon="-4.890867">
        <ele>885.0</ele>
        <time>2018-09-15T12:05:06Z</time>
      </trkpt>
      <trkpt lat="40.237800" lon="-4.890883">
        <ele>881.0</ele>
        <time>2018-09-15T12:05:07Z</time>
      </trkpt>
      <trkpt lat="40.237717" lon="-4.890933">
        <ele>878.0</ele>
        <time>2018-09-15T12:05:08Z</time>
      </trkpt>
      <trkpt lat="40.237633" lon="-4.891017">
        <ele>874.0</ele>
        <time>2018-09-15T12:05:09Z</time>
      </trkpt>
      <trkpt lat="40.237583" lon="-4.891133">
        <ele>880.0</ele>
        <time>2018-09-15T12:05:10Z</time>
      </trkpt>
      <trkpt lat="40.237533" lon="-4.891250">
        <ele>878.0</ele>
        <time>2018-09-15T12:05:11Z</time>
      </trkpt>
      <trkpt lat="40.237467" lon="-4.891383">
        <ele>877.0</ele>
        <time>2018-09-15T12:05:12Z</time>
      </trkpt>
      <trkpt lat="40.237417" lon="-4.891533">
        <ele>875.0</ele>
        <time>2018-09-15T12:05:13Z</time>
      </trkpt>
      <trkpt lat="40.237350" lon="-4.891667">
        <ele>872.0</ele>
        <time>2018-09-15T12:05:14Z</time>
      </trkpt>
      <trkpt lat="40.237283" lon="-4.891817">
        <ele>869.0</ele>
        <time>2018-09-15T12:05:15Z</time>
      </trkpt>
      <trkpt lat="40.237250" lon="-4.891967">
        <ele>865.0</ele>
        <time>2018-09-15T12:05:16Z</time>
      </trkpt>
      <trkpt lat="40.237200" lon="-4.892117">
        <ele>860.0</ele>
        <time>2018-09-15T12:05:17Z</time>
      </trkpt>
      <trkpt lat="40.237150" lon="-4.892267">
        <ele>854.0</ele>
        <time>2018-09-15T12:05:18Z</time>
      </trkpt>
      <trkpt lat="40.237117" lon="-4.892400">
        <ele>851.0</ele>
        <time>2018-09-15T12:05:19Z</time>
      </trkpt>
      <trkpt lat="40.237083" lon="-4.892550">
        <ele>847.0</ele>
        <time>2018-09-15T12:05:20Z</time>
      </trkpt>
      <trkpt lat="40.237050" lon="-4.892683">
        <ele>843.0</ele>
        <time>2018-09-15T12:05:21Z</time>
      </trkpt>
      <trkpt lat="40.237017" lon="-4.892833">
        <ele>839.0</ele>
        <time>2018-09-15T12:05:22Z</time>
      </trkpt>
      <trkpt lat="40.236983" lon="-4.892983">
        <ele>832.0</ele>
        <time>2018-09-15T12:05:23Z</time>
      </trkpt>
      <trkpt lat="40.236950" lon="-4.893133">
        <ele>827.0</ele>
        <time>2018-09-15T12:05:24Z</time>
      </trkpt>
      <trkpt lat="40.236917" lon="-4.893283">
        <ele>823.0</ele>
        <time>2018-09-15T12:05:25Z</time>
      </trkpt>
      <trkpt lat="40.236883" lon="-4.893433">
        <ele>818.0</ele>
        <time>2018-09-15T12:05:26Z</time>
      </trkpt>
      <trkpt lat="40.236850" lon="-4.893567">
        <ele>815.0</ele>
        <time>2018-09-15T12:05:27Z</time>
      </trkpt>
      <trkpt lat="40.236817" lon="-4.893700">
        <ele>811.0</ele>
        <time>2018-09-15T12:05:28Z</time>
      </trkpt>
      <trkpt lat="40.236783" lon="-4.893850">
        <ele>807.0</ele>
        <time>2018-09-15T12:05:29Z</time>
      </trkpt>
      <trkpt lat="40.236750" lon="-4.893983">
        <ele>804.0</ele>
        <time>2018-09-15T12:05:30Z</time>
      </trkpt>
      <trkpt lat="40.236717" lon="-4.894133">
        <ele>801.0</ele>
        <time>2018-09-15T12:05:31Z</time>
      </trkpt>
      <trkpt lat="40.236667" lon="-4.894283">
        <ele>798.0</ele>
        <time>2018-09-15T12:05:32Z</time>
      </trkpt>
      <trkpt lat="40.236633" lon="-4.894433">
        <ele>796.0</ele>
        <time>2018-09-15T12:05:33Z</time>
      </trkpt>
      <trkpt lat="40.236600" lon="-4.894583">
        <ele>793.0</ele>
        <time>2018-09-15T12:05:34Z</time>
      </trkpt>
      <trkpt lat="40.236550" lon="-4.894733">
        <ele>791.0</ele>
        <time>2018-09-15T12:05:35Z</time>
      </trkpt>
      <trkpt lat="40.236500" lon="-4.894883">
        <ele>791.0</ele>
        <time>2018-09-15T12:05:36Z</time>
      </trkpt>
      <trkpt lat="40.236467" lon="-4.895017">
        <ele>790.0</ele>
        <time>2018-09-15T12:05:37Z</time>
      </trkpt>
      <trkpt lat="40.236450" lon="-4.895167">
        <ele>789.0</ele>
        <time>2018-09-15T12:05:38Z</time>
      </trkpt>
      <trkpt lat="40.236417" lon="-4.895317">
        <ele>788.0</ele>
        <time>2018-09-15T12:05:39Z</time>
      </trkpt>
      <trkpt lat="40.236400" lon="-4.895467">
        <ele>788.0</ele>
        <time>2018-09-15T12:05:40Z</time>
      </trkpt>
      <trkpt lat="40.236367" lon="-4.895583">
        <ele>789.0</ele>
        <time>2018-09-15T12:05:41Z</time>
      </trkpt>
      <trkpt lat="40.236350" lon="-4.895717">
        <ele>791.0</ele>
        <time>2018-09-15T12:05:42Z</time>
      </trkpt>
      <trkpt lat="40.236333" lon="-4.895850">
        <ele>792.0</ele>
        <time>2018-09-15T12:05:43Z</time>
      </trkpt>
      <trkpt lat="40.236317" lon="-4.895983">
        <ele>793.0</ele>
        <time>2018-09-15T12:05:44Z</time>
      </trkpt>
      <trkpt lat="40.236317" lon="-4.896117">
        <ele>793.0</ele>
        <time>2018-09-15T12:05:45Z</time>
      </trkpt>
      <trkpt lat="40.236367" lon="-4.896250">
        <ele>794.0</ele>
        <time>2018-09-15T12:05:46Z</time>
      </trkpt>
      <trkpt lat="40.236450" lon="-4.896367">
        <ele>794.0</ele>
        <time>2018-09-15T12:05:47Z</time>
      </trkpt>
      <trkpt lat="40.236533" lon="-4.896450">
        <ele>794.0</ele>
        <time>2018-09-15T12:05:48Z</time>
      </trkpt>
      <trkpt lat="40.236617" lon="-4.896483">
        <ele>795.0</ele>
        <time>2018-09-15T12:05:49Z</time>
      </trkpt>
      <trkpt lat="40.236667" lon="-4.896483">
        <ele>796.0</ele>
        <time>2018-09-15T12:05:50Z</time>
      </trkpt>
      <trkpt lat="40.236700" lon="-4.896467">
        <ele>794.0</ele>
        <time>2018-09-15T12:05:51Z</time>
      </trkpt>
      <trkpt lat="40.236733" lon="-4.896417">
        <ele>794.0</ele>
        <time>2018-09-15T12:05:52Z</time>
      </trkpt>
      <trkpt lat="40.236733" lon="-4.896350">
        <ele>794.0</ele>
        <time>2018-09-15T12:05:53Z</time>
      </trkpt>
      <trkpt lat="40.236733" lon="-4.896283">
        <ele>794.0</ele>
        <time>2018-09-15T12:05:54Z</time>
      </trkpt>
      <trkpt lat="40.236717" lon="-4.896217">
        <ele>794.0</ele>
        <time>2018-09-15T12:05:55Z</time>
      </trkpt>
      <trkpt lat="40.236650" lon="-4.896200">
        <ele>794.0</ele>
        <time>2018-09-15T12:05:56Z</time>
      </trkpt>
      <trkpt lat="40.236567" lon="-4.896200">
        <ele>794.0</ele>
        <time>2018-09-15T12:05:57Z</time>
      </trkpt>
      <trkpt lat="40.236500" lon="-4.896250">
        <ele>794.0</ele>
        <time>2018-09-15T12:05:58Z</time>
      </trkpt>
      <trkpt lat="40.236450" lon="-4.896317">
        <ele>794.0</ele>
        <time>2018-09-15T12:05:59Z</time>
      </trkpt>
      <trkpt lat="40.236383" lon="-4.896383">
        <ele>795.0</ele>
        <time>2018-09-15T12:06:00Z</time>
      </trkpt>
      <trkpt lat="40.236333" lon="-4.896450">
        <ele>795.0</ele>
        <time>2018-09-15T12:06:01Z</time>
      </trkpt>
      <trkpt lat="40.236300" lon="-4.896517">
        <ele>795.0</ele>
        <time>2018-09-15T12:06:02Z</time>
      </trkpt>
      <trkpt lat="40.236250" lon="-4.896583">
        <ele>795.0</ele>
        <time>2018-09-15T12:06:03Z</time>
      </trkpt>
      <trkpt lat="40.236217" lon="-4.896683">
        <ele>795.0</ele>
        <time>2018-09-15T12:06:04Z</time>
      </trkpt>
      <trkpt lat="40.236167" lon="-4.896800">
        <ele>795.0</ele>
        <time>2018-09-15T12:06:05Z</time>
      </trkpt>
      <trkpt lat="40.236100" lon="-4.896883">
        <ele>795.0</ele>
        <time>2018-09-15T12:06:06Z</time>
      </trkpt>
      <trkpt lat="40.236017" lon="-4.896900">
        <ele>795.0</ele>
        <time>2018-09-15T12:06:07Z</time>
      </trkpt>
      <trkpt lat="40.235967" lon="-4.896883">
        <ele>795.0</ele>
        <time>2018-09-15T12:06:08Z</time>
      </trkpt>
      <trkpt lat="40.235917" lon="-4.896833">
        <ele>796.0</ele>
        <time>2018-09-15T12:06:09Z</time>
      </trkpt>
      <trkpt lat="40.235883" lon="-4.896750">
        <ele>796.0</ele>
        <time>2018-09-15T12:06:10Z</time>
      </trkpt>
      <trkpt lat="40.235850" lon="-4.896683">
        <ele>797.0</ele>
        <time>2018-09-15T12:06:11Z</time>
      </trkpt>
      <trkpt lat="40.235850" lon="-4.896617">
        <ele>799.0</ele>
        <time>2018-09-15T12:06:12Z</time>
      </trkpt>
      <trkpt lat="40.235867" lon="-4.896550">
        <ele>799.0</ele>
        <time>2018-09-15T12:06:13Z</time>
      </trkpt>
      <trkpt lat="40.235867" lon="-4.896483">
        <ele>800.0</ele>
        <time>2018-09-15T12:06:14Z</time>
      </trkpt>
      <trkpt lat="40.235850" lon="-4.896417">
        <ele>800.0</ele>
        <time>2018-09-15T12:06:15Z</time>
      </trkpt>
      <trkpt lat="40.235833" lon="-4.896350">
        <ele>801.0</ele>
        <time>2018-09-15T12:06:16Z</time>
      </trkpt>
      <trkpt lat="40.235817" lon="-4.896300">
        <ele>802.0</ele>
        <time>2018-09-15T12:06:17Z</time>
      </trkpt>
      <trkpt lat="40.235817" lon="-4.896250">
        <ele>802.0</ele>
        <time>2018-09-15T12:06:18Z</time>
      </trkpt>
      <trkpt lat="40.235817" lon="-4.896183">
        <ele>801.0</ele>
        <time>2018-09-15T12:06:19Z</time>
      </trkpt>
      <trkpt lat="40.235800" lon="-4.896100">
        <ele>800.0</ele>
        <time>2018-09-15T12:06:20Z</time>
      </trkpt>
      <trkpt lat="40.235783" lon="-4.896033">
        <ele>798.0</ele>
        <time>2018-09-15T12:06:21Z</time>
      </trkpt>
      <trkpt lat="40.235800" lon="-4.895950">
        <ele>797.0</ele>
        <time>2018-09-15T12:06:22Z</time>
      </trkpt>
      <trkpt lat="40.235800" lon="-4.895867">
        <ele>796.0</ele>
        <time>2018-09-15T12:06:23Z</time>
      </trkpt>
      <trkpt lat="40.235800" lon="-4.895800">
        <ele>798.0</ele>
        <time>2018-09-15T12:06:24Z</time>
      </trkpt>
      <trkpt lat="40.235767" lon="-4.895733">
        <ele>798.0</ele>
        <time>2018-09-15T12:06:25Z</time>
      </trkpt>
      <trkpt lat="40.235733" lon="-4.895667">
        <ele>798.0</ele>
        <time>2018-09-15T12:06:26Z</time>
      </trkpt>
      <trkpt lat="40.235700" lon="-4.895600">
        <ele>799.0</ele>
        <time>2018-09-15T12:06:27Z</time>
      </trkpt>
      <trkpt lat="40.235667" lon="-4.895533">
        <ele>799.0</ele>
        <time>2018-09-15T12:06:28Z</time>
      </trkpt>
      <trkpt lat="40.235633" lon="-4.895483">
        <ele>800.0</ele>
        <time>2018-09-15T12:06:29Z</time>
      </trkpt>
      <trkpt lat="40.235600" lon="-4.895400">
        <ele>801.0</ele>
        <time>2018-09-15T12:06:30Z</time>
      </trkpt>
      <trkpt lat="40.235567" lon="-4.895333">
        <ele>801.0</ele>
        <time>2018-09-15T12:06:31Z</time>
      </trkpt>
      <trkpt lat="40.235533" lon="-4.895250">
        <ele>802.0</ele>
        <time>2018-09-15T12:06:32Z</time>
      </trkpt>
      <trkpt lat="40.235500" lon="-4.895183">
        <ele>802.0</ele>
        <time>2018-09-15T12:06:33Z</time>
      </trkpt>
      <trkpt lat="40.235517" lon="-4.895083">
        <ele>803.0</ele>
        <time>2018-09-15T12:06:34Z</time>
      </trkpt>
      <trkpt lat="40.235550" lon="-4.895000">
        <ele>803.0</ele>
        <time>2018-09-15T12:06:35Z</time>
      </trkpt>
      <trkpt lat="40.235600" lon="-4.894950">
        <ele>803.0</ele>
        <time>2018-09-15T12:06:36Z</time>
      </trkpt>
      <trkpt lat="40.235667" lon="-4.894950">
        <ele>804.0</ele>
        <time>2018-09-15T12:06:37Z</time>
      </trkpt>
      <trkpt lat="40.235717" lon="-4.895017">
        <ele>804.0</ele>
        <time>2018-09-15T12:06:38Z</time>
      </trkpt>
      <trkpt lat="40.235767" lon="-4.895100">
        <ele>803.0</ele>
        <time>2018-09-15T12:06:39Z</time>
      </trkpt>
      <trkpt lat="40.235800" lon="-4.895217">
        <ele>801.0</ele>
        <time>2018-09-15T12:06:40Z</time>
      </trkpt>
      <trkpt lat="40.235817" lon="-4.895350">
        <ele>800.0</ele>
        <time>2018-09-15T12:06:41Z</time>
      </trkpt>
      <trkpt lat="40.235800" lon="-4.895467">
        <ele>800.0</ele>
        <time>2018-09-15T12:06:42Z</time>
      </trkpt>
      <trkpt lat="40.235750" lon="-4.895600">
        <ele>800.0</ele>
        <time>2018-09-15T12:06:43Z</time>
      </trkpt>
      <trkpt lat="40.235683" lon="-4.895700">
        <ele>799.0</ele>
        <time>2018-09-15T12:06:44Z</time>
      </trkpt>
      <trkpt lat="40.235600" lon="-4.895783">
        <ele>799.0</ele>
        <time>2018-09-15T12:06:45Z</time>
      </trkpt>
      <trkpt lat="40.235500" lon="-4.895850">
        <ele>799.0</ele>
        <time>2018-09-15T12:06:46Z</time>
      </trkpt>
      <trkpt lat="40.235417" lon="-4.895883">
        <ele>800.0</ele>
        <time>2018-09-15T12:06:47Z</time>
      </trkpt>
      <trkpt lat="40.235333" lon="-4.895900">
        <ele>802.0</ele>
        <time>2018-09-15T12:06:48Z</time>
      </trkpt>
      <trkpt lat="40.235250" lon="-4.895900">
        <ele>804.0</ele>
        <time>2018-09-15T12:06:49Z</time>
      </trkpt>
      <trkpt lat="40.235183" lon="-4.895883">
        <ele>807.0</ele>
        <time>2018-09-15T12:06:50Z</time>
      </trkpt>
      <trkpt lat="40.235133" lon="-4.895850">
        <ele>811.0</ele>
        <time>2018-09-15T12:06:51Z</time>
      </trkpt>
      <trkpt lat="40.235100" lon="-4.895833">
        <ele>815.0</ele>
        <time>2018-09-15T12:06:52Z</time>
      </trkpt>
      <trkpt lat="40.235067" lon="-4.895817">
        <ele>818.0</ele>
        <time>2018-09-15T12:06:53Z</time>
      </trkpt>
      <trkpt lat="40.235017" lon="-4.895783">
        <ele>821.0</ele>
        <time>2018-09-15T12:06:54Z</time>
      </trkpt>
      <trkpt lat="40.235000" lon="-4.895733">
        <ele>822.0</ele>
        <time>2018-09-15T12:06:55Z</time>
      </trkpt>
      <trkpt lat="40.234983" lon="-4.895650">
        <ele>825.0</ele>
        <time>2018-09-15T12:06:56Z</time>
      </trkpt>
      <trkpt lat="40.235017" lon="-4.895583">
        <ele>827.0</ele>
        <time>2018-09-15T12:06:57Z</time>
      </trkpt>
      <trkpt lat="40.235083" lon="-4.895517">
        <ele>828.0</ele>
        <time>2018-09-15T12:06:58Z</time>
      </trkpt>
      <trkpt lat="40.235167" lon="-4.895483">
        <ele>830.0</ele>
        <time>2018-09-15T12:06:59Z</time>
      </trkpt>
      <trkpt lat="40.235233" lon="-4.895483">
        <ele>832.0</ele>
        <time>2018-09-15T12:07:00Z</time>
      </trkpt>
      <trkpt lat="40.235300" lon="-4.895517">
        <ele>835.0</ele>
        <time>2018-09-15T12:07:01Z</time>
      </trkpt>
      <trkpt lat="40.235350" lon="-4.895567">
        <ele>838.0</ele>
        <time>2018-09-15T12:07:02Z</time>
      </trkpt>
      <trkpt lat="40.235367" lon="-4.895617">
        <ele>841.0</ele>
        <time>2018-09-15T12:07:03Z</time>
      </trkpt>
      <trkpt lat="40.235417" lon="-4.895700">
        <ele>843.0</ele>
        <time>2018-09-15T12:07:04Z</time>
      </trkpt>
      <trkpt lat="40.235450" lon="-4.895817">
        <ele>844.0</ele>
        <time>2018-09-15T12:07:05Z</time>
      </trkpt>
      <trkpt lat="40.235450" lon="-4.895950">
        <ele>845.0</ele>
        <time>2018-09-15T12:07:06Z</time>
      </trkpt>
      <trkpt lat="40.235417" lon="-4.896083">
        <ele>847.0</ele>
        <time>2018-09-15T12:07:07Z</time>
      </trkpt>
      <trkpt lat="40.235350" lon="-4.896183">
        <ele>848.0</ele>
        <time>2018-09-15T12:07:08Z</time>
      </trkpt>
      <trkpt lat="40.235267" lon="-4.896250">
        <ele>849.0</ele>
        <time>2018-09-15T12:07:09Z</time>
      </trkpt>
      <trkpt lat="40.235183" lon="-4.896283">
        <ele>851.0</ele>
        <time>2018-09-15T12:07:10Z</time>
      </trkpt>
      <trkpt lat="40.235117" lon="-4.896250">
        <ele>855.0</ele>
        <time>2018-09-15T12:07:11Z</time>
      </trkpt>
      <trkpt lat="40.235083" lon="-4.896217">
        <ele>860.0</ele>
        <time>2018-09-15T12:07:12Z</time>
      </trkpt>
      <trkpt lat="40.235033" lon="-4.896183">
        <ele>864.0</ele>
        <time>2018-09-15T12:07:13Z</time>
      </trkpt>
      <trkpt lat="40.235000" lon="-4.896150">
        <ele>867.0</ele>
        <time>2018-09-15T12:07:14Z</time>
      </trkpt>
      <trkpt lat="40.234967" lon="-4.896083">
        <ele>870.0</ele>
        <time>2018-09-15T12:07:15Z</time>
      </trkpt>
      <trkpt lat="40.234950" lon="-4.896000">
        <ele>873.0</ele>
        <time>2018-09-15T12:07:16Z</time>
      </trkpt>
      <trkpt lat="40.234967" lon="-4.895917">
        <ele>875.0</ele>
        <time>2018-09-15T12:07:17Z</time>
      </trkpt>
      <trkpt lat="40.235017" lon="-4.895833">
        <ele>877.0</ele>
        <time>2018-09-15T12:07:18Z</time>
      </trkpt>
      <trkpt lat="40.235083" lon="-4.895767">
        <ele>880.0</ele>
        <time>2018-09-15T12:07:19Z</time>
      </trkpt>
      <trkpt lat="40.235150" lon="-4.895750">
        <ele>882.0</ele>
        <time>2018-09-15T12:07:20Z</time>
      </trkpt>
      <trkpt lat="40.235200" lon="-4.895783">
        <ele>886.0</ele>
        <time>2018-09-15T12:07:21Z</time>
      </trkpt>
      <trkpt lat="40.235250" lon="-4.895817">
        <ele>888.0</ele>
        <time>2018-09-15T12:07:22Z</time>
      </trkpt>
      <trkpt lat="40.235283" lon="-4.895900">
        <ele>891.0</ele>
        <time>2018-09-15T12:07:23Z</time>
      </trkpt>
      <trkpt lat="40.235300" lon="-4.895983">
        <ele>893.0</ele>
        <time>2018-09-15T12:07:24Z</time>
      </trkpt>
      <trkpt lat="40.235267" lon="-4.896100">
        <ele>895.0</ele>
        <time>2018-09-15T12:07:25Z</time>
      </trkpt>
      <trkpt lat="40.235183" lon="-4.896183">
        <ele>895.0</ele>
        <time>2018-09-15T12:07:26Z</time>
      </trkpt>
      <trkpt lat="40.235083" lon="-4.896217">
        <ele>896.0</ele>
        <time>2018-09-15T12:07:27Z</time>
      </trkpt>
      <trkpt lat="40.235000" lon="-4.896167">
        <ele>898.0</ele>
        <time>2018-09-15T12:07:28Z</time>
      </trkpt>
      <trkpt lat="40.234933" lon="-4.896117">
        <ele>901.0</ele>
        <time>2018-09-15T12:07:29Z</time>
      </trkpt>
      <trkpt lat="40.234900" lon="-4.896050">
        <ele>905.0</ele>
        <time>2018-09-15T12:07:30Z</time>
      </trkpt>
      <trkpt lat="40.234850" lon="-4.896000">
        <ele>908.0</ele>
        <time>2018-09-15T12:07:31Z</time>
      </trkpt>
      <trkpt lat="40.234800" lon="-4.895950">
        <ele>910.0</ele>
        <time>2018-09-15T12:07:32Z</time>
      </trkpt>
      <trkpt lat="40.234750" lon="-4.895867">
        <ele>911.0</ele>
        <time>2018-09-15T12:07:33Z</time>
      </trkpt>
      <trkpt lat="40.234683" lon="-4.895783">
        <ele>910.0</ele>
        <time>2018-09-15T12:07:34Z</time>
      </trkpt>
      <trkpt lat="40.234667" lon="-4.895667">
        <ele>910.0</ele>
        <time>2018-09-15T12:07:35Z</time>
      </trkpt>
      <trkpt lat="40.234683" lon="-4.895567">
        <ele>910.0</ele>
        <time>2018-09-15T12:07:36Z</time>
      </trkpt>
      <trkpt lat="40.234733" lon="-4.895500">
        <ele>910.0</ele>
        <time>2018-09-15T12:07:37Z</time>
      </trkpt>
      <trkpt lat="40.234800" lon="-4.895483">
        <ele>911.0</ele>
        <time>2018-09-15T12:07:38Z</time>
      </trkpt>
      <trkpt lat="40.234850" lon="-4.895533">
        <ele>912.0</ele>
        <time>2018-09-15T12:07:39Z</time>
      </trkpt>
      <trkpt lat="40.234883" lon="-4.895617">
        <ele>912.0</ele>
        <time>2018-09-15T12:07:40Z</time>
      </trkpt>
      <trkpt lat="40.234900" lon="-4.895733">
        <ele>911.0</ele>
        <time>2018-09-15T12:07:41Z</time>
      </trkpt>
      <trkpt lat="40.234883" lon="-4.895850">
        <ele>911.0</ele>
        <time>2018-09-15T12:07:42Z</time>
      </trkpt>
      <trkpt lat="40.234867" lon="-4.895967">
        <ele>911.0</ele>
        <time>2018-09-15T12:07:43Z</time>
      </trkpt>
      <trkpt lat="40.234817" lon="-4.896083">
        <ele>912.0</ele>
        <time>2018-09-15T12:07:44Z</time>
      </trkpt>
      <trkpt lat="40.234767" lon="-4.896167">
        <ele>914.0</ele>
        <time>2018-09-15T12:07:45Z</time>
      </trkpt>
      <trkpt lat="40.234683" lon="-4.896250">
        <ele>918.0</ele>
        <time>2018-09-15T12:07:46Z</time>
      </trkpt>
      <trkpt lat="40.234600" lon="-4.896283">
        <ele>922.0</ele>
        <time>2018-09-15T12:07:47Z</time>
      </trkpt>
      <trkpt lat="40.234517" lon="-4.896317">
        <ele>925.0</ele>
        <time>2018-09-15T12:07:48Z</time>
      </trkpt>
      <trkpt lat="40.234433" lon="-4.896350">
        <ele>926.0</ele>
        <time>2018-09-15T12:07:49Z</time>
      </trkpt>
      <trkpt lat="40.234350" lon="-4.896383">
        <ele>926.0</ele>
        <time>2018-09-15T12:07:50Z</time>
      </trkpt>
      <trkpt lat="40.234250" lon="-4.896400">
        <ele>928.0</ele>
        <time>2018-09-15T12:07:51Z</time>
      </trkpt>
      <trkpt lat="40.234167" lon="-4.896350">
        <ele>928.0</ele>
        <time>2018-09-15T12:07:52Z</time>
      </trkpt>
      <trkpt lat="40.234133" lon="-4.896267">
        <ele>929.0</ele>
        <time>2018-09-15T12:07:53Z</time>
      </trkpt>
      <trkpt lat="40.234133" lon="-4.896183">
        <ele>930.0</ele>
        <time>2018-09-15T12:07:54Z</time>
      </trkpt>
      <trkpt lat="40.234183" lon="-4.896167">
        <ele>930.0</ele>
        <time>2018-09-15T12:07:55Z</time>
      </trkpt>
      <trkpt lat="40.234250" lon="-4.896183">
        <ele>931.0</ele>
        <time>2018-09-15T12:07:56Z</time>
      </trkpt>
      <trkpt lat="40.234300" lon="-4.896233">
        <ele>931.0</ele>
        <time>2018-09-15T12:07:57Z</time>
      </trkpt>
      <trkpt lat="40.234350" lon="-4.896317">
        <ele>930.0</ele>
        <time>2018-09-15T12:07:58Z</time>
      </trkpt>
      <trkpt lat="40.234383" lon="-4.896433">
        <ele>930.0</ele>
        <time>2018-09-15T12:07:59Z</time>
      </trkpt>
      <trkpt lat="40.234400" lon="-4.896583">
        <ele>929.0</ele>
        <time>2018-09-15T12:08:00Z</time>
      </trkpt>
      <trkpt lat="40.234367" lon="-4.896750">
        <ele>929.0</ele>
        <time>2018-09-15T12:08:01Z</time>
      </trkpt>
      <trkpt lat="40.234283" lon="-4.896867">
        <ele>930.0</ele>
        <time>2018-09-15T12:08:02Z</time>
      </trkpt>
      <trkpt lat="40.234183" lon="-4.896950">
        <ele>931.0</ele>
        <time>2018-09-15T12:08:03Z</time>
      </trkpt>
      <trkpt lat="40.234083" lon="-4.897000">
        <ele>932.0</ele>
        <time>2018-09-15T12:08:04Z</time>
      </trkpt>
      <trkpt lat="40.234000" lon="-4.897017">
        <ele>935.0</ele>
        <time>2018-09-15T12:08:05Z</time>
      </trkpt>
      <trkpt lat="40.233950" lon="-4.897000">
        <ele>938.0</ele>
        <time>2018-09-15T12:08:06Z</time>
      </trkpt>
      <trkpt lat="40.233917" lon="-4.896950">
        <ele>940.0</ele>
        <time>2018-09-15T12:08:07Z</time>
      </trkpt>
      <trkpt lat="40.233917" lon="-4.896883">
        <ele>942.0</ele>
        <time>2018-09-15T12:08:08Z</time>
      </trkpt>
      <trkpt lat="40.233967" lon="-4.896833">
        <ele>943.0</ele>
        <time>2018-09-15T12:08:09Z</time>
      </trkpt>
      <trkpt lat="40.234033" lon="-4.896833">
        <ele>945.0</ele>
        <time>2018-09-15T12:08:10Z</time>
      </trkpt>
      <trkpt lat="40.234100" lon="-4.896883">
        <ele>946.0</ele>
        <time>2018-09-15T12:08:11Z</time>
      </trkpt>
      <trkpt lat="40.234167" lon="-4.897033">
        <ele>946.0</ele>
        <time>2018-09-15T12:08:12Z</time>
      </trkpt>
      <trkpt lat="40.234183" lon="-4.897200">
        <ele>946.0</ele>
        <time>2018-09-15T12:08:13Z</time>
      </trkpt>
      <trkpt lat="40.234167" lon="-4.897383">
        <ele>946.0</ele>
        <time>2018-09-15T12:08:14Z</time>
      </trkpt>
      <trkpt lat="40.234117" lon="-4.897550">
        <ele>948.0</ele>
        <time>2018-09-15T12:08:15Z</time>
      </trkpt>
      <trkpt lat="40.234033" lon="-4.897667">
        <ele>949.0</ele>
        <time>2018-09-15T12:08:16Z</time>
      </trkpt>
      <trkpt lat="40.233933" lon="-4.897717">
        <ele>952.0</ele>
        <time>2018-09-15T12:08:17Z</time>
      </trkpt>
      <trkpt lat="40.233850" lon="-4.897733">
        <ele>954.0</ele>
        <time>2018-09-15T12:08:18Z</time>
      </trkpt>
      <trkpt lat="40.233783" lon="-4.897717">
        <ele>956.0</ele>
        <time>2018-09-15T12:08:19Z</time>
      </trkpt>
      <trkpt lat="40.233733" lon="-4.897667">
        <ele>957.0</ele>
        <time>2018-09-15T12:08:20Z</time>
      </trkpt>
      <trkpt lat="40.233700" lon="-4.897617">
        <ele>960.0</ele>
        <time>2018-09-15T12:08:21Z</time>
      </trkpt>
      <trkpt lat="40.233700" lon="-4.897550">
        <ele>962.0</ele>
        <time>2018-09-15T12:08:22Z</time>
      </trkpt>
      <trkpt lat="40.233733" lon="-4.897500">
        <ele>964.0</ele>
        <time>2018-09-15T12:08:23Z</time>
      </trkpt>
      <trkpt lat="40.233767" lon="-4.897467">
        <ele>966.0</ele>
        <time>2018-09-15T12:08:24Z</time>
      </trkpt>
      <trkpt lat="40.233817" lon="-4.897450">
        <ele>969.0</ele>
        <time>2018-09-15T12:08:25Z</time>
      </trkpt>
      <trkpt lat="40.233883" lon="-4.897467">
        <ele>971.0</ele>
        <time>2018-09-15T12:08:26Z</time>
      </trkpt>
      <trkpt lat="40.233967" lon="-4.897517">
        <ele>972.0</ele>
        <time>2018-09-15T12:08:27Z</time>
      </trkpt>
      <trkpt lat="40.234033" lon="-4.897617">
        <ele>973.0</ele>
        <time>2018-09-15T12:08:28Z</time>
      </trkpt>
      <trkpt lat="40.234083" lon="-4.897767">
        <ele>975.0</ele>
        <time>2018-09-15T12:08:29Z</time>
      </trkpt>
      <trkpt lat="40.234083" lon="-4.897917">
        <ele>977.0</ele>
        <time>2018-09-15T12:08:30Z</time>
      </trkpt>
      <trkpt lat="40.234067" lon="-4.898050">
        <ele>979.0</ele>
        <time>2018-09-15T12:08:31Z</time>
      </trkpt>
      <trkpt lat="40.234017" lon="-4.898167">
        <ele>981.0</ele>
        <time>2018-09-15T12:08:32Z</time>
      </trkpt>
      <trkpt lat="40.233933" lon="-4.898267">
        <ele>983.0</ele>
        <time>2018-09-15T12:08:33Z</time>
      </trkpt>
      <trkpt lat="40.233850" lon="-4.898333">
        <ele>986.0</ele>
        <time>2018-09-15T12:08:34Z</time>
      </trkpt>
      <trkpt lat="40.233767" lon="-4.898367">
        <ele>989.0</ele>
        <time>2018-09-15T12:08:35Z</time>
      </trkpt>
      <trkpt lat="40.233683" lon="-4.898367">
        <ele>992.0</ele>
        <time>2018-09-15T12:08:36Z</time>
      </trkpt>
      <trkpt lat="40.233617" lon="-4.898333">
        <ele>995.0</ele>
        <time>2018-09-15T12:08:37Z</time>
      </trkpt>
      <trkpt lat="40.233567" lon="-4.898300">
        <ele>998.0</ele>
        <time>2018-09-15T12:08:38Z</time>
      </trkpt>
      <trkpt lat="40.233533" lon="-4.898267">
        <ele>1001.0</ele>
        <time>2018-09-15T12:08:39Z</time>
      </trkpt>
      <trkpt lat="40.233483" lon="-4.898217">
        <ele>1004.0</ele>
        <time>2018-09-15T12:08:40Z</time>
      </trkpt>
      <trkpt lat="40.233450" lon="-4.898150">
        <ele>1007.0</ele>
        <time>2018-09-15T12:08:41Z</time>
      </trkpt>
      <trkpt lat="40.233433" lon="-4.898083">
        <ele>1010.0</ele>
        <time>2018-09-15T12:08:42Z</time>
      </trkpt>
      <trkpt lat="40.233450" lon="-4.898000">
        <ele>1012.0</ele>
        <time>2018-09-15T12:08:43Z</time>
      </trkpt>
      <trkpt lat="40.233483" lon="-4.897933">
        <ele>1014.0</ele>
        <time>2018-09-15T12:08:44Z</time>
      </trkpt>
      <trkpt lat="40.233550" lon="-4.897900">
        <ele>1018.0</ele>
        <time>2018-09-15T12:08:45Z</time>
      </trkpt>
      <trkpt lat="40.233617" lon="-4.897917">
        <ele>1021.0</ele>
        <time>2018-09-15T12:08:46Z</time>
      </trkpt>
      <trkpt lat="40.233683" lon="-4.898000">
        <ele>1023.0</ele>
        <time>2018-09-15T12:08:47Z</time>
      </trkpt>
      <trkpt lat="40.233733" lon="-4.898117">
        <ele>1025.0</ele>
        <time>2018-09-15T12:08:48Z</time>
      </trkpt>
      <trkpt lat="40.233750" lon="-4.898267">
        <ele>1026.0</ele>
        <time>2018-09-15T12:08:49Z</time>
      </trkpt>
      <trkpt lat="40.233733" lon="-4.898417">
        <ele>1028.0</ele>
        <time>2018-09-15T12:08:50Z</time>
      </trkpt>
      <trkpt lat="40.233667" lon="-4.898533">
        <ele>1030.0</ele>
        <time>2018-09-15T12:08:51Z</time>
      </trkpt>
      <trkpt lat="40.233567" lon="-4.898617">
        <ele>1031.0</ele>
        <time>2018-09-15T12:08:52Z</time>
      </trkpt>
      <trkpt lat="40.233467" lon="-4.898667">
        <ele>1034.0</ele>
        <time>2018-09-15T12:08:53Z</time>
      </trkpt>
      <trkpt lat="40.233383" lon="-4.898683">
        <ele>1037.0</ele>
        <time>2018-09-15T12:08:54Z</time>
      </trkpt>
      <trkpt lat="40.233317" lon="-4.898667">
        <ele>1039.0</ele>
        <time>2018-09-15T12:08:55Z</time>
      </trkpt>
      <trkpt lat="40.233250" lon="-4.898633">
        <ele>1041.0</ele>
        <time>2018-09-15T12:08:56Z</time>
      </trkpt>
      <trkpt lat="40.233200" lon="-4.898583">
        <ele>1042.0</ele>
        <time>2018-09-15T12:08:57Z</time>
      </trkpt>
      <trkpt lat="40.233183" lon="-4.898500">
        <ele>1044.0</ele>
        <time>2018-09-15T12:08:58Z</time>
      </trkpt>
      <trkpt lat="40.233200" lon="-4.898417">
        <ele>1045.0</ele>
        <time>2018-09-15T12:08:59Z</time>
      </trkpt>
      <trkpt lat="40.233250" lon="-4.898350">
        <ele>1046.0</ele>
        <time>2018-09-15T12:09:00Z</time>
      </trkpt>
      <trkpt lat="40.233317" lon="-4.898333">
        <ele>1049.0</ele>
        <time>2018-09-15T12:09:01Z</time>
      </trkpt>
      <trkpt lat="40.233400" lon="-4.898400">
        <ele>1051.0</ele>
        <time>2018-09-15T12:09:02Z</time>
      </trkpt>
      <trkpt lat="40.233450" lon="-4.898500">
        <ele>1053.0</ele>
        <time>2018-09-15T12:09:03Z</time>
      </trkpt>
      <trkpt lat="40.233483" lon="-4.898617">
        <ele>1055.0</ele>
        <time>2018-09-15T12:09:04Z</time>
      </trkpt>
      <trkpt lat="40.233500" lon="-4.898750">
        <ele>1057.0</ele>
        <time>2018-09-15T12:09:05Z</time>
      </trkpt>
      <trkpt lat="40.233483" lon="-4.898900">
        <ele>1059.0</ele>
        <time>2018-09-15T12:09:06Z</time>
      </trkpt>
      <trkpt lat="40.233450" lon="-4.899017">
        <ele>1062.0</ele>
        <time>2018-09-15T12:09:07Z</time>
      </trkpt>
      <trkpt lat="40.233400" lon="-4.899117">
        <ele>1064.0</ele>
        <time>2018-09-15T12:09:08Z</time>
      </trkpt>
      <trkpt lat="40.233333" lon="-4.899200">
        <ele>1067.0</ele>
        <time>2018-09-15T12:09:09Z</time>
      </trkpt>
      <trkpt lat="40.233267" lon="-4.899250">
        <ele>1068.0</ele>
        <time>2018-09-15T12:09:10Z</time>
      </trkpt>
      <trkpt lat="40.233183" lon="-4.899267">
        <ele>1070.0</ele>
        <time>2018-09-15T12:09:11Z</time>
      </trkpt>
      <trkpt lat="40.233100" lon="-4.899250">
        <ele>1071.0</ele>
        <time>2018-09-15T12:09:12Z</time>
      </trkpt>
      <trkpt lat="40.233050" lon="-4.899183">
        <ele>1073.0</ele>
        <time>2018-09-15T12:09:13Z</time>
      </trkpt>
      <trkpt lat="40.233050" lon="-4.899100">
        <ele>1074.0</ele>
        <time>2018-09-15T12:09:14Z</time>
      </trkpt>
      <trkpt lat="40.233067" lon="-4.899033">
        <ele>1077.0</ele>
        <time>2018-09-15T12:09:15Z</time>
      </trkpt>
      <trkpt lat="40.233100" lon="-4.898983">
        <ele>1080.0</ele>
        <time>2018-09-15T12:09:16Z</time>
      </trkpt>
      <trkpt lat="40.233150" lon="-4.898967">
        <ele>1083.0</ele>
        <time>2018-09-15T12:09:17Z</time>
      </trkpt>
      <trkpt lat="40.233200" lon="-4.898983">
        <ele>1085.0</ele>
        <time>2018-09-15T12:09:18Z</time>
      </trkpt>
      <trkpt lat="40.233267" lon="-4.899017">
        <ele>1087.0</ele>
        <time>2018-09-15T12:09:19Z</time>
      </trkpt>
      <trkpt lat="40.233333" lon="-4.899067">
        <ele>1088.0</ele>
        <time>2018-09-15T12:09:20Z</time>
      </trkpt>
      <trkpt lat="40.233400" lon="-4.899167">
        <ele>1089.0</ele>
        <time>2018-09-15T12:09:21Z</time>
      </trkpt>
      <trkpt lat="40.233433" lon="-4.899300">
        <ele>1091.0</ele>
        <time>2018-09-15T12:09:22Z</time>
      </trkpt>
      <trkpt lat="40.233450" lon="-4.899467">
        <ele>1092.0</ele>
        <time>2018-09-15T12:09:23Z</time>
      </trkpt>
      <trkpt lat="40.233417" lon="-4.899600">
        <ele>1094.0</ele>
        <time>2018-09-15T12:09:24Z</time>
      </trkpt>
      <trkpt lat="40.233350" lon="-4.899683">
        <ele>1096.0</ele>
        <time>2018-09-15T12:09:25Z</time>
      </trkpt>
      <trkpt lat="40.233267" lon="-4.899733">
        <ele>1099.0</ele>
        <time>2018-09-15T12:09:26Z</time>
      </trkpt>
      <trkpt lat="40.233200" lon="-4.899717">
        <ele>1102.0</ele>
        <time>2018-09-15T12:09:27Z</time>
      </trkpt>
      <trkpt lat="40.233150" lon="-4.899667">
        <ele>1105.0</ele>
        <time>2018-09-15T12:09:28Z</time>
      </trkpt>
      <trkpt lat="40.233117" lon="-4.899600">
        <ele>1107.0</ele>
        <time>2018-09-15T12:09:29Z</time>
      </trkpt>
      <trkpt lat="40.233133" lon="-4.899517">
        <ele>1110.0</ele>
        <time>2018-09-15T12:09:30Z</time>
      </trkpt>
      <trkpt lat="40.233200" lon="-4.899483">
        <ele>1112.0</ele>
        <time>2018-09-15T12:09:31Z</time>
      </trkpt>
      <trkpt lat="40.233267" lon="-4.899467">
        <ele>1114.0</ele>
        <time>2018-09-15T12:09:32Z</time>
      </trkpt>
      <trkpt lat="40.233350" lon="-4.899517">
        <ele>1116.0</ele>
        <time>2018-09-15T12:09:33Z</time>
      </trkpt>
      <trkpt lat="40.233417" lon="-4.899617">
        <ele>1118.0</ele>
        <time>2018-09-15T12:09:34Z</time>
      </trkpt>
      <trkpt lat="40.233433" lon="-4.899767">
        <ele>1121.0</ele>
        <time>2018-09-15T12:09:35Z</time>
      </trkpt>
      <trkpt lat="40.233433" lon="-4.899917">
        <ele>1122.0</ele>
        <time>2018-09-15T12:09:36Z</time>
      </trkpt>
      <trkpt lat="40.233383" lon="-4.900033">
        <ele>1124.0</ele>
        <time>2018-09-15T12:09:37Z</time>
      </trkpt>
      <trkpt lat="40.233300" lon="-4.900117">
        <ele>1127.0</ele>
        <time>2018-09-15T12:09:38Z</time>
      </trkpt>
      <trkpt lat="40.233217" lon="-4.900133">
        <ele>1130.0</ele>
        <time>2018-09-15T12:09:39Z</time>
      </trkpt>
      <trkpt lat="40.233150" lon="-4.900100">
        <ele>1132.0</ele>
        <time>2018-09-15T12:09:40Z</time>
      </trkpt>
      <trkpt lat="40.233117" lon="-4.900033">
        <ele>1135.0</ele>
        <time>2018-09-15T12:09:41Z</time>
      </trkpt>
      <trkpt lat="40.233117" lon="-4.899967">
        <ele>1138.0</ele>
        <time>2018-09-15T12:09:42Z</time>
      </trkpt>
      <trkpt lat="40.233133" lon="-4.899917">
        <ele>1141.0</ele>
        <time>2018-09-15T12:09:43Z</time>
      </trkpt>
      <trkpt lat="40.233183" lon="-4.899883">
        <ele>1144.0</ele>
        <time>2018-09-15T12:09:44Z</time>
      </trkpt>
      <trkpt lat="40.233233" lon="-4.899867">
        <ele>1147.0</ele>
        <time>2018-09-15T12:09:45Z</time>
      </trkpt>
      <trkpt lat="40.233317" lon="-4.899883">
        <ele>1149.0</ele>
        <time>2018-09-15T12:09:46Z</time>
      </trkpt>
      <trkpt lat="40.233400" lon="-4.899950">
        <ele>1151.0</ele>
        <time>2018-09-15T12:09:47Z</time>
      </trkpt>
      <trkpt lat="40.233467" lon="-4.900067">
        <ele>1153.0</ele>
        <time>2018-09-15T12:09:48Z</time>
      </trkpt>
      <trkpt lat="40.233500" lon="-4.900217">
        <ele>1156.0</ele>
        <time>2018-09-15T12:09:49Z</time>
      </trkpt>
      <trkpt lat="40.233483" lon="-4.900383">
        <ele>1158.0</ele>
        <time>2018-09-15T12:09:50Z</time>
      </trkpt>
      <trkpt lat="40.233417" lon="-4.900517">
        <ele>1160.0</ele>
        <time>2018-09-15T12:09:51Z</time>
      </trkpt>
      <trkpt lat="40.233333" lon="-4.900583">
        <ele>1162.0</ele>
        <time>2018-09-15T12:09:52Z</time>
      </trkpt>
      <trkpt lat="40.233233" lon="-4.900617">
        <ele>1165.0</ele>
        <time>2018-09-15T12:09:53Z</time>
      </trkpt>
      <trkpt lat="40.233167" lon="-4.900583">
        <ele>1168.0</ele>
        <time>2018-09-15T12:09:54Z</time>
      </trkpt>
      <trkpt lat="40.233133" lon="-4.900517">
        <ele>1172.0</ele>
        <time>2018-09-15T12:09:55Z</time>
      </trkpt>
      <trkpt lat="40.233133" lon="-4.900450">
        <ele>1174.0</ele>
        <time>2018-09-15T12:09:56Z</time>
      </trkpt>
      <trkpt lat="40.233150" lon="-4.900400">
        <ele>1177.0</ele>
        <time>2018-09-15T12:09:57Z</time>
      </trkpt>
      <trkpt lat="40.233217" lon="-4.900367">
        <ele>1179.0</ele>
        <time>2018-09-15T12:09:58Z</time>
      </trkpt>
      <trkpt lat="40.233317" lon="-4.900383">
        <ele>1181.0</ele>
        <time>2018-09-15T12:09:59Z</time>
      </trkpt>
      <trkpt lat="40.233400" lon="-4.900450">
        <ele>1183.0</ele>
        <time>2018-09-15T12:10:00Z</time>
      </trkpt>
      <trkpt lat="40.233467" lon="-4.900567">
        <ele>1185.0</ele>
        <time>2018-09-15T12:10:01Z</time>
      </trkpt>
      <trkpt lat="40.233483" lon="-4.900717">
        <ele>1188.0</ele>
        <time>2018-09-15T12:10:02Z</time>
      </trkpt>
      <trkpt lat="40.233450" lon="-4.900850">
        <ele>1190.0</ele>
        <time>2018-09-15T12:10:03Z</time>
      </trkpt>
      <trkpt lat="40.233400" lon="-4.900967">
        <ele>1192.0</ele>
        <time>2018-09-15T12:10:04Z</time>
      </trkpt>
      <trkpt lat="40.233300" lon="-4.901050">
        <ele>1194.0</ele>
        <time>2018-09-15T12:10:05Z</time>
      </trkpt>
      <trkpt lat="40.233217" lon="-4.901083">
        <ele>1196.0</ele>
        <time>2018-09-15T12:10:06Z</time>
      </trkpt>
      <trkpt lat="40.233133" lon="-4.901083">
        <ele>1199.0</ele>
        <time>2018-09-15T12:10:07Z</time>
      </trkpt>
      <trkpt lat="40.233083" lon="-4.901033">
        <ele>1202.0</ele>
        <time>2018-09-15T12:10:08Z</time>
      </trkpt>
      <trkpt lat="40.233083" lon="-4.900967">
        <ele>1203.0</ele>
        <time>2018-09-15T12:10:09Z</time>
      </trkpt>
      <trkpt lat="40.233100" lon="-4.900900">
        <ele>1205.0</ele>
        <time>2018-09-15T12:10:10Z</time>
      </trkpt>
      <trkpt lat="40.233133" lon="-4.900850">
        <ele>1207.0</ele>
        <time>2018-09-15T12:10:11Z</time>
      </trkpt>
      <trkpt lat="40.233200" lon="-4.900833">
        <ele>1209.0</ele>
        <time>2018-09-15T12:10:12Z</time>
      </trkpt>
      <trkpt lat="40.233283" lon="-4.900867">
        <ele>1212.0</ele>
        <time>2018-09-15T12:10:13Z</time>
      </trkpt>
      <trkpt lat="40.233350" lon="-4.900950">
        <ele>1213.0</ele>
        <time>2018-09-15T12:10:14Z</time>
      </trkpt>
      <trkpt lat="40.233417" lon="-4.901083">
        <ele>1215.0</ele>
        <time>2018-09-15T12:10:15Z</time>
      </trkpt>
      <trkpt lat="40.233433" lon="-4.901233">
        <ele>1217.0</ele>
        <time>2018-09-15T12:10:16Z</time>
      </trkpt>
      <trkpt lat="40.233400" lon="-4.901383">
        <ele>1218.0</ele>
        <time>2018-09-15T12:10:17Z</time>
      </trkpt>
      <trkpt lat="40.233333" lon="-4.901500">
        <ele>1220.0</ele>
        <time>2018-09-15T12:10:18Z</time>
      </trkpt>
      <trkpt lat="40.233250" lon="-4.901567">
        <ele>1222.0</ele>
        <time>2018-09-15T12:10:19Z</time>
      </trkpt>
      <trkpt lat="40.233167" lon="-4.901583">
        <ele>1226.0</ele>
        <time>2018-09-15T12:10:20Z</time>
      </trkpt>
      <trkpt lat="40.233100" lon="-4.901550">
        <ele>1230.0</ele>
        <time>2018-09-15T12:10:21Z</time>
      </trkpt>
      <trkpt lat="40.233067" lon="-4.901517">
        <ele>1233.0</ele>
        <time>2018-09-15T12:10:22Z</time>
      </trkpt>
      <trkpt lat="40.233033" lon="-4.901483">
        <ele>1236.0</ele>
        <time>2018-09-15T12:10:23Z</time>
      </trkpt>
      <trkpt lat="40.233033" lon="-4.901433">
        <ele>1239.0</ele>
        <time>2018-09-15T12:10:24Z</time>
      </trkpt>
      <trkpt lat="40.233033" lon="-4.901383">
        <ele>1241.0</ele>
        <time>2018-09-15T12:10:25Z</time>
      </trkpt>
      <trkpt lat="40.233067" lon="-4.901333">
        <ele>1243.0</ele>
        <time>2018-09-15T12:10:26Z</time>
      </trkpt>
      <trkpt lat="40.233117" lon="-4.901317">
        <ele>1245.0</ele>
        <time>2018-09-15T12:10:27Z</time>
      </trkpt>
      <trkpt lat="40.233200" lon="-4.901350">
        <ele>1247.0</ele>
        <time>2018-09-15T12:10:28Z</time>
      </trkpt>
      <trkpt lat="40.233283" lon="-4.901467">
        <ele>1248.0</ele>
        <time>2018-09-15T12:10:29Z</time>
      </trkpt>
      <trkpt lat="40.233333" lon="-4.901600">
        <ele>1249.0</ele>
        <time>2018-09-15T12:10:30Z</time>
      </trkpt>
      <trkpt lat="40.233367" lon="-4.901767">
        <ele>1251.0</ele>
        <time>2018-09-15T12:10:31Z</time>
      </trkpt>
      <trkpt lat="40.233350" lon="-4.901917">
        <ele>1253.0</ele>
        <time>2018-09-15T12:10:32Z</time>
      </trkpt>
      <trkpt lat="40.233283" lon="-4.902067">
        <ele>1256.0</ele>
        <time>2018-09-15T12:10:33Z</time>
      </trkpt>
      <trkpt lat="40.233217" lon="-4.902167">
        <ele>1259.0</ele>
        <time>2018-09-15T12:10:34Z</time>
      </trkpt>
      <trkpt lat="40.233117" lon="-4.902217">
        <ele>1262.0</ele>
        <time>2018-09-15T12:10:35Z</time>
      </trkpt>
      <trkpt lat="40.233050" lon="-4.902217">
        <ele>1265.0</ele>
        <time>2018-09-15T12:10:36Z</time>
      </trkpt>
      <trkpt lat="40.232983" lon="-4.902217">
        <ele>1269.0</ele>
        <time>2018-09-15T12:10:37Z</time>
      </trkpt>
      <trkpt lat="40.232917" lon="-4.902200">
        <ele>1274.0</ele>
        <time>2018-09-15T12:10:38Z</time>
      </trkpt>
      <trkpt lat="40.232883" lon="-4.902183">
        <ele>1277.0</ele>
        <time>2018-09-15T12:10:39Z</time>
      </trkpt>
      <trkpt lat="40.232850" lon="-4.902133">
        <ele>1280.0</ele>
        <time>2018-09-15T12:10:40Z</time>
      </trkpt>
      <trkpt lat="40.232817" lon="-4.902067">
        <ele>1282.0</ele>
        <time>2018-09-15T12:10:41Z</time>
      </trkpt>
      <trkpt lat="40.232833" lon="-4.902000">
        <ele>1284.0</ele>
        <time>2018-09-15T12:10:42Z</time>
      </trkpt>
      <trkpt lat="40.232883" lon="-4.901950">
        <ele>1286.0</ele>
        <time>2018-09-15T12:10:43Z</time>
      </trkpt>
      <trkpt lat="40.232950" lon="-4.901950">
        <ele>1287.0</ele>
        <time>2018-09-15T12:10:44Z</time>
      </trkpt>
      <trkpt lat="40.233050" lon="-4.902000">
        <ele>1289.0</ele>
        <time>2018-09-15T12:10:45Z</time>
      </trkpt>
      <trkpt lat="40.233117" lon="-4.902100">
        <ele>1290.0</ele>
        <time>2018-09-15T12:10:46Z</time>
      </trkpt>
      <trkpt lat="40.233167" lon="-4.902233">
        <ele>1292.0</ele>
        <time>2018-09-15T12:10:47Z</time>
      </trkpt>
      <trkpt lat="40.233200" lon="-4.902400">
        <ele>1294.0</ele>
        <time>2018-09-15T12:10:48Z</time>
      </trkpt>
      <trkpt lat="40.233183" lon="-4.902567">
        <ele>1296.0</ele>
        <time>2018-09-15T12:10:49Z</time>
      </trkpt>
      <trkpt lat="40.233150" lon="-4.902717">
        <ele>1298.0</ele>
        <time>2018-09-15T12:10:50Z</time>
      </trkpt>
      <trkpt lat="40.233083" lon="-4.902817">
        <ele>1301.0</ele>
        <time>2018-09-15T12:10:51Z</time>
      </trkpt>
      <trkpt lat="40.233000" lon="-4.902900">
        <ele>1303.0</ele>
        <time>2018-09-15T12:10:52Z</time>
      </trkpt>
      <trkpt lat="40.232917" lon="-4.902917">
        <ele>1305.0</ele>
        <time>2018-09-15T12:10:53Z</time>
      </trkpt>
      <trkpt lat="40.232833" lon="-4.902900">
        <ele>1306.0</ele>
        <time>2018-09-15T12:10:54Z</time>
      </trkpt>
      <trkpt lat="40.232800" lon="-4.902833">
        <ele>1308.0</ele>
        <time>2018-09-15T12:10:55Z</time>
      </trkpt>
      <trkpt lat="40.232783" lon="-4.902767">
        <ele>1310.0</ele>
        <time>2018-09-15T12:10:56Z</time>
      </trkpt>
      <trkpt lat="40.232800" lon="-4.902700">
        <ele>1311.0</ele>
        <time>2018-09-15T12:10:57Z</time>
      </trkpt>
      <trkpt lat="40.232833" lon="-4.902633">
        <ele>1314.0</ele>
        <time>2018-09-15T12:10:58Z</time>
      </trkpt>
      <trkpt lat="40.232883" lon="-4.902600">
        <ele>1316.0</ele>
        <time>2018-09-15T12:10:59Z</time>
      </trkpt>
      <trkpt lat="40.232950" lon="-4.902583">
        <ele>1318.0</ele>
        <time>2018-09-15T12:11:00Z</time>
      </trkpt>
      <trkpt lat="40.233050" lon="-4.902617">
        <ele>1320.0</ele>
        <time>2018-09-15T12:11:01Z</time>
      </trkpt>
      <trkpt lat="40.233133" lon="-4.902683">
        <ele>1321.0</ele>
        <time>2018-09-15T12:11:02Z</time>
      </trkpt>
      <trkpt lat="40.233217" lon="-4.902800">
        <ele>1321.0</ele>
        <time>2018-09-15T12:11:03Z</time>
      </trkpt>
      <trkpt lat="40.233283" lon="-4.902967">
        <ele>1323.0</ele>
        <time>2018-09-15T12:11:04Z</time>
      </trkpt>
      <trkpt lat="40.233283" lon="-4.903133">
        <ele>1325.0</ele>
        <time>2018-09-15T12:11:05Z</time>
      </trkpt>
      <trkpt lat="40.233267" lon="-4.903267">
        <ele>1328.0</ele>
        <time>2018-09-15T12:11:06Z</time>
      </trkpt>
      <trkpt lat="40.233233" lon="-4.903400">
        <ele>1331.0</ele>
        <time>2018-09-15T12:11:07Z</time>
      </trkpt>
      <trkpt lat="40.233200" lon="-4.903517">
        <ele>1333.0</ele>
        <time>2018-09-15T12:11:08Z</time>
      </trkpt>
      <trkpt lat="40.233133" lon="-4.903633">
        <ele>1335.0</ele>
        <time>2018-09-15T12:11:09Z</time>
      </trkpt>
      <trkpt lat="40.233050" lon="-4.903750">
        <ele>1336.0</ele>
        <time>2018-09-15T12:11:10Z</time>
      </trkpt>
      <trkpt lat="40.232967" lon="-4.903800">
        <ele>1337.0</ele>
        <time>2018-09-15T12:11:11Z</time>
      </trkpt>
      <trkpt lat="40.232883" lon="-4.903800">
        <ele>1338.0</ele>
        <time>2018-09-15T12:11:12Z</time>
      </trkpt>
      <trkpt lat="40.232817" lon="-4.903767">
        <ele>1339.0</ele>
        <time>2018-09-15T12:11:13Z</time>
      </trkpt>
      <trkpt lat="40.232800" lon="-4.903700">
        <ele>1340.0</ele>
        <time>2018-09-15T12:11:14Z</time>
      </trkpt>
      <trkpt lat="40.232800" lon="-4.903633">
        <ele>1342.0</ele>
        <time>2018-09-15T12:11:15Z</time>
      </trkpt>
      <trkpt lat="40.232833" lon="-4.903583">
        <ele>1344.0</ele>
        <time>2018-09-15T12:11:16Z</time>
      </trkpt>
      <trkpt lat="40.232867" lon="-4.903533">
        <ele>1346.0</ele>
        <time>2018-09-15T12:11:17Z</time>
      </trkpt>
      <trkpt lat="40.232900" lon="-4.903483">
        <ele>1348.0</ele>
        <time>2018-09-15T12:11:18Z</time>
      </trkpt>
      <trkpt lat="40.232950" lon="-4.903433">
        <ele>1349.0</ele>
        <time>2018-09-15T12:11:19Z</time>
      </trkpt>
      <trkpt lat="40.233000" lon="-4.903400">
        <ele>1351.0</ele>
        <time>2018-09-15T12:11:20Z</time>
      </trkpt>
      <trkpt lat="40.233083" lon="-4.903383">
        <ele>1352.0</ele>
        <time>2018-09-15T12:11:21Z</time>
      </trkpt>
      <trkpt lat="40.233150" lon="-4.903367">
        <ele>1354.0</ele>
        <time>2018-09-15T12:11:22Z</time>
      </trkpt>
      <trkpt lat="40.233233" lon="-4.903400">
        <ele>1355.0</ele>
        <time>2018-09-15T12:11:23Z</time>
      </trkpt>
      <trkpt lat="40.233317" lon="-4.903417">
        <ele>1357.0</ele>
        <time>2018-09-15T12:11:24Z</time>
      </trkpt>
      <trkpt lat="40.233400" lon="-4.903417">
        <ele>1358.0</ele>
        <time>2018-09-15T12:11:25Z</time>
      </trkpt>
      <trkpt lat="40.233467" lon="-4.903383">
        <ele>1360.0</ele>
        <time>2018-09-15T12:11:26Z</time>
      </trkpt>
      <trkpt lat="40.233517" lon="-4.903350">
        <ele>1363.0</ele>
        <time>2018-09-15T12:11:27Z</time>
      </trkpt>
      <trkpt lat="40.233550" lon="-4.903283">
        <ele>1365.0</ele>
        <time>2018-09-15T12:11:28Z</time>
      </trkpt>
      <trkpt lat="40.233567" lon="-4.903217">
        <ele>1368.0</ele>
        <time>2018-09-15T12:11:29Z</time>
      </trkpt>
      <trkpt lat="40.233517" lon="-4.903183">
        <ele>1370.0</ele>
        <time>2018-09-15T12:11:30Z</time>
      </trkpt>
      <trkpt lat="40.233450" lon="-4.903150">
        <ele>1364.0</ele>
        <time>2018-09-15T12:11:31Z</time>
      </trkpt>
      <trkpt lat="40.233383" lon="-4.903133">
        <ele>1365.0</ele>
        <time>2018-09-15T12:11:32Z</time>
      </trkpt>
      <trkpt lat="40.233300" lon="-4.903183">
        <ele>1366.0</ele>
        <time>2018-09-15T12:11:33Z</time>
      </trkpt>
      <trkpt lat="40.233250" lon="-4.903300">
        <ele>1367.0</ele>
        <time>2018-09-15T12:11:34Z</time>
      </trkpt>
      <trkpt lat="40.233217" lon="-4.903450">
        <ele>1369.0</ele>
        <time>2018-09-15T12:11:35Z</time>
      </trkpt>
      <trkpt lat="40.233233" lon="-4.903617">
        <ele>1370.0</ele>
        <time>2018-09-15T12:11:36Z</time>
      </trkpt>
      <trkpt lat="40.233283" lon="-4.903767">
        <ele>1373.0</ele>
        <time>2018-09-15T12:11:37Z</time>
      </trkpt>
      <trkpt lat="40.233350" lon="-4.903900">
        <ele>1377.0</ele>
        <time>2018-09-15T12:11:38Z</time>
      </trkpt>
      <trkpt lat="40.233450" lon="-4.903967">
        <ele>1381.0</ele>
        <time>2018-09-15T12:11:39Z</time>
      </trkpt>
      <trkpt lat="40.233517" lon="-4.903983">
        <ele>1385.0</ele>
        <time>2018-09-15T12:11:40Z</time>
      </trkpt>
      <trkpt lat="40.233583" lon="-4.903967">
        <ele>1391.0</ele>
        <time>2018-09-15T12:11:41Z</time>
      </trkpt>
      <trkpt lat="40.233633" lon="-4.903917">
        <ele>1395.0</ele>
        <time>2018-09-15T12:11:42Z</time>
      </trkpt>
      <trkpt lat="40.233667" lon="-4.903850">
        <ele>1398.0</ele>
        <time>2018-09-15T12:11:43Z</time>
      </trkpt>
      <trkpt lat="40.233667" lon="-4.903800">
        <ele>1402.0</ele>
        <time>2018-09-15T12:11:44Z</time>
      </trkpt>
      <trkpt lat="40.233650" lon="-4.903733">
        <ele>1397.0</ele>
        <time>2018-09-15T12:11:45Z</time>
      </trkpt>
      <trkpt lat="40.233617" lon="-4.903650">
        <ele>1397.0</ele>
        <time>2018-09-15T12:11:46Z</time>
      </trkpt>
      <trkpt lat="40.233550" lon="-4.903617">
        <ele>1399.0</ele>
        <time>2018-09-15T12:11:47Z</time>
      </trkpt>
      <trkpt lat="40.233467" lon="-4.903617">
        <ele>1400.0</ele>
        <time>2018-09-15T12:11:48Z</time>
      </trkpt>
      <trkpt lat="40.233367" lon="-4.903667">
        <ele>1401.0</ele>
        <time>2018-09-15T12:11:49Z</time>
      </trkpt>
      <trkpt lat="40.233300" lon="-4.903783">
        <ele>1403.0</ele>
        <time>2018-09-15T12:11:50Z</time>
      </trkpt>
      <trkpt lat="40.233250" lon="-4.903917">
        <ele>1405.0</ele>
        <time>2018-09-15T12:11:51Z</time>
      </trkpt>
      <trkpt lat="40.233233" lon="-4.904067">
        <ele>1407.0</ele>
        <time>2018-09-15T12:11:52Z</time>
      </trkpt>
      <trkpt lat="40.233250" lon="-4.904200">
        <ele>1409.0</ele>
        <time>2018-09-15T12:11:53Z</time>
      </trkpt>
      <trkpt lat="40.233300" lon="-4.904333">
        <ele>1412.0</ele>
        <time>2018-09-15T12:11:54Z</time>
      </trkpt>
      <trkpt lat="40.233350" lon="-4.904450">
        <ele>1416.0</ele>
        <time>2018-09-15T12:11:55Z</time>
      </trkpt>
      <trkpt lat="40.233433" lon="-4.904517">
        <ele>1420.0</ele>
        <time>2018-09-15T12:11:56Z</time>
      </trkpt>
      <trkpt lat="40.233517" lon="-4.904533">
        <ele>1418.0</ele>
        <time>2018-09-15T12:11:57Z</time>
      </trkpt>
      <trkpt lat="40.233583" lon="-4.904517">
        <ele>1418.0</ele>
        <time>2018-09-15T12:11:58Z</time>
      </trkpt>
      <trkpt lat="40.233617" lon="-4.904467">
        <ele>1420.0</ele>
        <time>2018-09-15T12:11:59Z</time>
      </trkpt>
      <trkpt lat="40.233633" lon="-4.904417">
        <ele>1422.0</ele>
        <time>2018-09-15T12:12:00Z</time>
      </trkpt>
      <trkpt lat="40.233600" lon="-4.904350">
        <ele>1422.0</ele>
        <time>2018-09-15T12:12:01Z</time>
      </trkpt>
      <trkpt lat="40.233567" lon="-4.904283">
        <ele>1423.0</ele>
        <time>2018-09-15T12:12:02Z</time>
      </trkpt>
      <trkpt lat="40.233483" lon="-4.904250">
        <ele>1426.0</ele>
        <time>2018-09-15T12:12:03Z</time>
      </trkpt>
      <trkpt lat="40.233383" lon="-4.904233">
        <ele>1429.0</ele>
        <time>2018-09-15T12:12:04Z</time>
      </trkpt>
      <trkpt lat="40.233283" lon="-4.904267">
        <ele>1432.0</ele>
        <time>2018-09-15T12:12:05Z</time>
      </trkpt>
      <trkpt lat="40.233217" lon="-4.904367">
        <ele>1438.0</ele>
        <time>2018-09-15T12:12:06Z</time>
      </trkpt>
      <trkpt lat="40.233150" lon="-4.904500">
        <ele>1441.0</ele>
        <time>2018-09-15T12:12:07Z</time>
      </trkpt>
      <trkpt lat="40.233133" lon="-4.904633">
        <ele>1446.0</ele>
        <time>2018-09-15T12:12:08Z</time>
      </trkpt>
      <trkpt lat="40.233167" lon="-4.904767">
        <ele>1452.0</ele>
        <time>2018-09-15T12:12:09Z</time>
      </trkpt>
      <trkpt lat="40.233217" lon="-4.904883">
        <ele>1457.0</ele>
        <time>2018-09-15T12:12:10Z</time>
      </trkpt>
      <trkpt lat="40.233300" lon="-4.904950">
        <ele>1464.0</ele>
        <time>2018-09-15T12:12:11Z</time>
      </trkpt>
      <trkpt lat="40.233383" lon="-4.904950">
        <ele>1468.0</ele>
        <time>2018-09-15T12:12:12Z</time>
      </trkpt>
      <trkpt lat="40.233450" lon="-4.904883">
        <ele>1473.0</ele>
        <time>2018-09-15T12:12:13Z</time>
      </trkpt>
      <trkpt lat="40.233450" lon="-4.904783">
        <ele>1478.0</ele>
        <time>2018-09-15T12:12:14Z</time>
      </trkpt>
      <trkpt lat="40.233417" lon="-4.904700">
        <ele>1482.0</ele>
        <time>2018-09-15T12:12:15Z</time>
      </trkpt>
      <trkpt lat="40.233367" lon="-4.904650">
        <ele>1486.0</ele>
        <time>2018-09-15T12:12:16Z</time>
      </trkpt>
      <trkpt lat="40.233283" lon="-4.904650">
        <ele>1491.0</ele>
        <time>2018-09-15T12:12:17Z</time>
      </trkpt>
      <trkpt lat="40.233200" lon="-4.904700">
        <ele>1495.0</ele>
        <time>2018-09-15T12:12:18Z</time>
      </trkpt>
      <trkpt lat="40.233133" lon="-4.904767">
        <ele>1499.0</ele>
        <time>2018-09-15T12:12:19Z</time>
      </trkpt>
      <trkpt lat="40.233067" lon="-4.904867">
        <ele>1504.0</ele>
        <time>2018-09-15T12:12:20Z</time>
      </trkpt>
      <trkpt lat="40.233017" lon="-4.905000">
        <ele>1508.0</ele>
        <time>2018-09-15T12:12:21Z</time>
      </trkpt>
      <trkpt lat="40.233017" lon="-4.905167">
        <ele>1512.0</ele>
        <time>2018-09-15T12:12:22Z</time>
      </trkpt>
      <trkpt lat="40.233067" lon="-4.905300">
        <ele>1516.0</ele>
        <time>2018-09-15T12:12:23Z</time>
      </trkpt>
      <trkpt lat="40.233117" lon="-4.905417">
        <ele>1520.0</ele>
        <time>2018-09-15T12:12:24Z</time>
      </trkpt>
      <trkpt lat="40.233200" lon="-4.905500">
        <ele>1525.0</ele>
        <time>2018-09-15T12:12:25Z</time>
      </trkpt>
      <trkpt lat="40.233283" lon="-4.905533">
        <ele>1529.0</ele>
        <time>2018-09-15T12:12:26Z</time>
      </trkpt>
      <trkpt lat="40.233383" lon="-4.905550">
        <ele>1532.0</ele>
        <time>2018-09-15T12:12:27Z</time>
      </trkpt>
      <trkpt lat="40.233450" lon="-4.905517">
        <ele>1536.0</ele>
        <time>2018-09-15T12:12:28Z</time>
      </trkpt>
      <trkpt lat="40.233483" lon="-4.905483">
        <ele>1539.0</ele>
        <time>2018-09-15T12:12:29Z</time>
      </trkpt>
      <trkpt lat="40.233517" lon="-4.905433">
        <ele>1542.0</ele>
        <time>2018-09-15T12:12:30Z</time>
      </trkpt>
      <trkpt lat="40.233550" lon="-4.905367">
        <ele>1545.0</ele>
        <time>2018-09-15T12:12:31Z</time>
      </trkpt>
      <trkpt lat="40.233583" lon="-4.905300">
        <ele>1546.0</ele>
        <time>2018-09-15T12:12:32Z</time>
      </trkpt>
      <trkpt lat="40.233617" lon="-4.905233">
        <ele>1547.0</ele>
        <time>2018-09-15T12:12:33Z</time>
      </trkpt>
      <trkpt lat="40.233633" lon="-4.905167">
        <ele>1550.0</ele>
        <time>2018-09-15T12:12:34Z</time>
      </trkpt>
      <trkpt lat="40.233617" lon="-4.905083">
        <ele>1552.0</ele>
        <time>2018-09-15T12:12:35Z</time>
      </trkpt>
      <trkpt lat="40.233567" lon="-4.905017">
        <ele>1555.0</ele>
        <time>2018-09-15T12:12:36Z</time>
      </trkpt>
      <trkpt lat="40.233517" lon="-4.905033">
        <ele>1557.0</ele>
        <time>2018-09-15T12:12:37Z</time>
      </trkpt>
      <trkpt lat="40.233433" lon="-4.905050">
        <ele>1554.0</ele>
        <time>2018-09-15T12:12:38Z</time>
      </trkpt>
      <trkpt lat="40.233367" lon="-4.905067">
        <ele>1554.0</ele>
        <time>2018-09-15T12:12:39Z</time>
      </trkpt>
      <trkpt lat="40.233283" lon="-4.905133">
        <ele>1555.0</ele>
        <time>2018-09-15T12:12:40Z</time>
      </trkpt>
      <trkpt lat="40.233233" lon="-4.905233">
        <ele>1555.0</ele>
        <time>2018-09-15T12:12:41Z</time>
      </trkpt>
      <trkpt lat="40.233200" lon="-4.905367">
        <ele>1556.0</ele>
        <time>2018-09-15T12:12:42Z</time>
      </trkpt>
      <trkpt lat="40.233217" lon="-4.905517">
        <ele>1556.0</ele>
        <time>2018-09-15T12:12:43Z</time>
      </trkpt>
      <trkpt lat="40.233267" lon="-4.905650">
        <ele>1557.0</ele>
        <time>2018-09-15T12:12:44Z</time>
      </trkpt>
      <trkpt lat="40.233333" lon="-4.905750">
        <ele>1557.0</ele>
        <time>2018-09-15T12:12:45Z</time>
      </trkpt>
      <trkpt lat="40.233417" lon="-4.905800">
        <ele>1559.0</ele>
        <time>2018-09-15T12:12:46Z</time>
      </trkpt>
      <trkpt lat="40.233467" lon="-4.905767">
        <ele>1560.0</ele>
        <time>2018-09-15T12:12:47Z</time>
      </trkpt>
      <trkpt lat="40.233500" lon="-4.905700">
        <ele>1562.0</ele>
        <time>2018-09-15T12:12:48Z</time>
      </trkpt>
      <trkpt lat="40.233517" lon="-4.905617">
        <ele>1564.0</ele>
        <time>2018-09-15T12:12:49Z</time>
      </trkpt>
      <trkpt lat="40.233550" lon="-4.905550">
        <ele>1566.0</ele>
        <time>2018-09-15T12:12:50Z</time>
      </trkpt>
      <trkpt lat="40.233567" lon="-4.905500">
        <ele>1570.0</ele>
        <time>2018-09-15T12:12:51Z</time>
      </trkpt>
      <trkpt lat="40.233600" lon="-4.905433">
        <ele>1573.0</ele>
        <time>2018-09-15T12:12:52Z</time>
      </trkpt>
      <trkpt lat="40.233617" lon="-4.905400">
        <ele>1576.0</ele>
        <time>2018-09-15T12:12:53Z</time>
      </trkpt>
      <trkpt lat="40.233617" lon="-4.905317">
        <ele>1572.0</ele>
        <time>2018-09-15T12:12:54Z</time>
      </trkpt>
      <trkpt lat="40.233583" lon="-4.905250">
        <ele>1574.0</ele>
        <time>2018-09-15T12:12:55Z</time>
      </trkpt>
      <trkpt lat="40.233517" lon="-4.905200">
        <ele>1575.0</ele>
        <time>2018-09-15T12:12:56Z</time>
      </trkpt>
      <trkpt lat="40.233433" lon="-4.905167">
        <ele>1576.0</ele>
        <time>2018-09-15T12:12:57Z</time>
      </trkpt>
      <trkpt lat="40.233350" lon="-4.905183">
        <ele>1579.0</ele>
        <time>2018-09-15T12:12:58Z</time>
      </trkpt>
      <trkpt lat="40.233267" lon="-4.905250">
        <ele>1582.0</ele>
        <time>2018-09-15T12:12:59Z</time>
      </trkpt>
      <trkpt lat="40.233200" lon="-4.905383">
        <ele>1585.0</ele>
        <time>2018-09-15T12:13:00Z</time>
      </trkpt>
      <trkpt lat="40.233167" lon="-4.905533">
        <ele>1588.0</ele>
        <time>2018-09-15T12:13:01Z</time>
      </trkpt>
      <trkpt lat="40.233183" lon="-4.905683">
        <ele>1591.0</ele>
        <time>2018-09-15T12:13:02Z</time>
      </trkpt>
      <trkpt lat="40.233250" lon="-4.905800">
        <ele>1595.0</ele>
        <time>2018-09-15T12:13:03Z</time>
      </trkpt>
      <trkpt lat="40.233317" lon="-4.905867">
        <ele>1599.0</ele>
        <time>2018-09-15T12:13:04Z</time>
      </trkpt>
      <trkpt lat="40.233400" lon="-4.905917">
        <ele>1602.0</ele>
        <time>2018-09-15T12:13:05Z</time>
      </trkpt>
      <trkpt lat="40.233483" lon="-4.905917">
        <ele>1606.0</ele>
        <time>2018-09-15T12:13:06Z</time>
      </trkpt>
      <trkpt lat="40.233550" lon="-4.905900">
        <ele>1610.0</ele>
        <time>2018-09-15T12:13:07Z</time>
      </trkpt>
      <trkpt lat="40.233617" lon="-4.905867">
        <ele>1613.0</ele>
        <time>2018-09-15T12:13:08Z</time>
      </trkpt>
      <trkpt lat="40.233650" lon="-4.905783">
        <ele>1616.0</ele>
        <time>2018-09-15T12:13:09Z</time>
      </trkpt>
      <trkpt lat="40.233650" lon="-4.905700">
        <ele>1618.0</ele>
        <time>2018-09-15T12:13:10Z</time>
      </trkpt>
      <trkpt lat="40.233600" lon="-4.905633">
        <ele>1621.0</ele>
        <time>2018-09-15T12:13:11Z</time>
      </trkpt>
      <trkpt lat="40.233500" lon="-4.905633">
        <ele>1623.0</ele>
        <time>2018-09-15T12:13:12Z</time>
      </trkpt>
      <trkpt lat="40.233400" lon="-4.905683">
        <ele>1618.0</ele>
        <time>2018-09-15T12:13:13Z</time>
      </trkpt>
      <trkpt lat="40.233317" lon="-4.905783">
        <ele>1619.0</ele>
        <time>2018-09-15T12:13:14Z</time>
      </trkpt>
      <trkpt lat="40.233267" lon="-4.905917">
        <ele>1621.0</ele>
        <time>2018-09-15T12:13:15Z</time>
      </trkpt>
      <trkpt lat="40.233250" lon="-4.906083">
        <ele>1623.0</ele>
        <time>2018-09-15T12:13:16Z</time>
      </trkpt>
      <trkpt lat="40.233283" lon="-4.906233">
        <ele>1625.0</ele>
        <time>2018-09-15T12:13:17Z</time>
      </trkpt>
      <trkpt lat="40.233333" lon="-4.906367">
        <ele>1627.0</ele>
        <time>2018-09-15T12:13:18Z</time>
      </trkpt>
      <trkpt lat="40.233400" lon="-4.906433">
        <ele>1630.0</ele>
        <time>2018-09-15T12:13:19Z</time>
      </trkpt>
      <trkpt lat="40.233483" lon="-4.906467">
        <ele>1633.0</ele>
        <time>2018-09-15T12:13:20Z</time>
      </trkpt>
      <trkpt lat="40.233567" lon="-4.906467">
        <ele>1635.0</ele>
        <time>2018-09-15T12:13:21Z</time>
      </trkpt>
      <trkpt lat="40.233633" lon="-4.906400">
        <ele>1640.0</ele>
        <time>2018-09-15T12:13:22Z</time>
      </trkpt>
      <trkpt lat="40.233700" lon="-4.906317">
        <ele>1646.0</ele>
        <time>2018-09-15T12:13:23Z</time>
      </trkpt>
      <trkpt lat="40.233733" lon="-4.906267">
        <ele>1656.0</ele>
        <time>2018-09-15T12:13:24Z</time>
      </trkpt>
      <trkpt lat="40.233767" lon="-4.906217">
        <ele>1662.0</ele>
        <time>2018-09-15T12:13:25Z</time>
      </trkpt>
      <trkpt lat="40.233783" lon="-4.906167">
        <ele>1667.0</ele>
        <time>2018-09-15T12:13:26Z</time>
      </trkpt>
      <trkpt lat="40.233817" lon="-4.906100">
        <ele>1671.0</ele>
        <time>2018-09-15T12:13:27Z</time>
      </trkpt>
      <trkpt lat="40.233817" lon="-4.906017">
        <ele>1674.0</ele>
        <time>2018-09-15T12:13:28Z</time>
      </trkpt>
      <trkpt lat="40.233817" lon="-4.905900">
        <ele>1677.0</ele>
        <time>2018-09-15T12:13:29Z</time>
      </trkpt>
      <trkpt lat="40.233783" lon="-4.905817">
        <ele>1680.0</ele>
        <time>2018-09-15T12:13:30Z</time>
      </trkpt>
      <trkpt lat="40.233717" lon="-4.905767">
        <ele>1683.0</ele>
        <time>2018-09-15T12:13:31Z</time>
      </trkpt>
      <trkpt lat="40.233633" lon="-4.905733">
        <ele>1686.0</ele>
        <time>2018-09-15T12:13:32Z</time>
      </trkpt>
      <trkpt lat="40.233533" lon="-4.905800">
        <ele>1689.0</ele>
        <time>2018-09-15T12:13:33Z</time>
      </trkpt>
      <trkpt lat="40.233433" lon="-4.905850">
        <ele>1684.0</ele>
        <time>2018-09-15T12:13:34Z</time>
      </trkpt>
      <trkpt lat="40.233350" lon="-4.905917">
        <ele>1686.0</ele>
        <time>2018-09-15T12:13:35Z</time>
      </trkpt>
      <trkpt lat="40.233283" lon="-4.906017">
        <ele>1688.0</ele>
        <time>2018-09-15T12:13:36Z</time>
      </trkpt>
      <trkpt lat="40.233250" lon="-4.906133">
        <ele>1689.0</ele>
        <time>2018-09-15T12:13:37Z</time>
      </trkpt>
      <trkpt lat="40.233233" lon="-4.906250">
        <ele>1690.0</ele>
        <time>2018-09-15T12:13:38Z</time>
      </trkpt>
      <trkpt lat="40.233267" lon="-4.906367">
        <ele>1692.0</ele>
        <time>2018-09-15T12:13:39Z</time>
      </trkpt>
      <trkpt lat="40.233333" lon="-4.906467">
        <ele>1693.0</ele>
        <time>2018-09-15T12:13:40Z</time>
      </trkpt>
      <trkpt lat="40.233400" lon="-4.906533">
        <ele>1695.0</ele>
        <time>2018-09-15T12:13:41Z</time>
      </trkpt>
      <trkpt lat="40.233483" lon="-4.906567">
        <ele>1697.0</ele>
        <time>2018-09-15T12:13:42Z</time>
      </trkpt>
      <trkpt lat="40.233567" lon="-4.906567">
        <ele>1701.0</ele>
        <time>2018-09-15T12:13:43Z</time>
      </trkpt>
      <trkpt lat="40.233633" lon="-4.906533">
        <ele>1706.0</ele>
        <time>2018-09-15T12:13:44Z</time>
      </trkpt>
      <trkpt lat="40.233700" lon="-4.906517">
        <ele>1714.0</ele>
        <time>2018-09-15T12:13:45Z</time>
      </trkpt>
      <trkpt lat="40.233767" lon="-4.906483">
        <ele>1720.0</ele>
        <time>2018-09-15T12:13:46Z</time>
      </trkpt>
      <trkpt lat="40.233833" lon="-4.906450">
        <ele>1724.0</ele>
        <time>2018-09-15T12:13:47Z</time>
      </trkpt>
      <trkpt lat="40.233883" lon="-4.906383">
        <ele>1728.0</ele>
        <time>2018-09-15T12:13:48Z</time>
      </trkpt>
      <trkpt lat="40.233933" lon="-4.906300">
        <ele>1731.0</ele>
        <time>2018-09-15T12:13:49Z</time>
      </trkpt>
      <trkpt lat="40.233950" lon="-4.906200">
        <ele>1735.0</ele>
        <time>2018-09-15T12:13:50Z</time>
      </trkpt>
      <trkpt lat="40.233900" lon="-4.906100">
        <ele>1738.0</ele>
        <time>2018-09-15T12:13:51Z</time>
      </trkpt>
      <trkpt lat="40.233833" lon="-4.906033">
        <ele>1740.0</ele>
        <time>2018-09-15T12:13:52Z</time>
      </trkpt>
      <trkpt lat="40.233733" lon="-4.906033">
        <ele>1741.0</ele>
        <time>2018-09-15T12:13:53Z</time>
      </trkpt>
      <trkpt lat="40.233633" lon="-4.906083">
        <ele>1742.0</ele>
        <time>2018-09-15T12:13:54Z</time>
      </trkpt>
      <trkpt lat="40.233567" lon="-4.906167">
        <ele>1743.0</ele>
        <time>2018-09-15T12:13:55Z</time>
      </trkpt>
      <trkpt lat="40.233533" lon="-4.906300">
        <ele>1744.0</ele>
        <time>2018-09-15T12:13:56Z</time>
      </trkpt>
      <trkpt lat="40.233550" lon="-4.906450">
        <ele>1743.0</ele>
        <time>2018-09-15T12:13:57Z</time>
      </trkpt>
      <trkpt lat="40.233600" lon="-4.906567">
        <ele>1741.0</ele>
        <time>2018-09-15T12:13:58Z</time>
      </trkpt>
      <trkpt lat="40.233683" lon="-4.906667">
        <ele>1740.0</ele>
        <time>2018-09-15T12:13:59Z</time>
      </trkpt>
      <trkpt lat="40.233783" lon="-4.906733">
        <ele>1741.0</ele>
        <time>2018-09-15T12:14:00Z</time>
      </trkpt>
      <trkpt lat="40.233867" lon="-4.906800">
        <ele>1744.0</ele>
        <time>2018-09-15T12:14:01Z</time>
      </trkpt>
      <trkpt lat="40.233933" lon="-4.906833">
        <ele>1747.0</ele>
        <time>2018-09-15T12:14:02Z</time>
      </trkpt>
      <trkpt lat="40.234017" lon="-4.906850">
        <ele>1750.0</ele>
        <time>2018-09-15T12:14:03Z</time>
      </trkpt>
      <trkpt lat="40.234100" lon="-4.906850">
        <ele>1753.0</ele>
        <time>2018-09-15T12:14:04Z</time>
      </trkpt>
      <trkpt lat="40.234167" lon="-4.906817">
        <ele>1755.0</ele>
        <time>2018-09-15T12:14:05Z</time>
      </trkpt>
      <trkpt lat="40.234233" lon="-4.906750">
        <ele>1758.0</ele>
        <time>2018-09-15T12:14:06Z</time>
      </trkpt>
      <trkpt lat="40.234283" lon="-4.906667">
        <ele>1759.0</ele>
        <time>2018-09-15T12:14:07Z</time>
      </trkpt>
      <trkpt lat="40.234300" lon="-4.906567">
        <ele>1760.0</ele>
        <time>2018-09-15T12:14:08Z</time>
      </trkpt>
      <trkpt lat="40.234300" lon="-4.906450">
        <ele>1762.0</ele>
        <time>2018-09-15T12:14:09Z</time>
      </trkpt>
      <trkpt lat="40.234267" lon="-4.906350">
        <ele>1764.0</ele>
        <time>2018-09-15T12:14:10Z</time>
      </trkpt>
      <trkpt lat="40.234217" lon="-4.906283">
        <ele>1767.0</ele>
        <time>2018-09-15T12:14:11Z</time>
      </trkpt>
      <trkpt lat="40.234133" lon="-4.906233">
        <ele>1768.0</ele>
        <time>2018-09-15T12:14:12Z</time>
      </trkpt>
      <trkpt lat="40.234050" lon="-4.906233">
        <ele>1769.0</ele>
        <time>2018-09-15T12:14:13Z</time>
      </trkpt>
      <trkpt lat="40.233967" lon="-4.906283">
        <ele>1770.0</ele>
        <time>2018-09-15T12:14:14Z</time>
      </trkpt>
      <trkpt lat="40.233883" lon="-4.906367">
        <ele>1769.0</ele>
        <time>2018-09-15T12:14:15Z</time>
      </trkpt>
      <trkpt lat="40.233867" lon="-4.906500">
        <ele>1769.0</ele>
        <time>2018-09-15T12:14:16Z</time>
      </trkpt>
      <trkpt lat="40.233900" lon="-4.906617">
        <ele>1768.0</ele>
        <time>2018-09-15T12:14:17Z</time>
      </trkpt>
      <trkpt lat="40.233983" lon="-4.906717">
        <ele>1765.0</ele>
        <time>2018-09-15T12:14:18Z</time>
      </trkpt>
      <trkpt lat="40.234067" lon="-4.906767">
        <ele>1764.0</ele>
        <time>2018-09-15T12:14:19Z</time>
      </trkpt>
      <trkpt lat="40.234183" lon="-4.906783">
        <ele>1769.0</ele>
        <time>2018-09-15T12:14:20Z</time>
      </trkpt>
      <trkpt lat="40.234250" lon="-4.906800">
        <ele>1777.0</ele>
        <time>2018-09-15T12:14:21Z</time>
      </trkpt>
      <trkpt lat="40.234317" lon="-4.906833">
        <ele>1780.0</ele>
        <time>2018-09-15T12:14:22Z</time>
      </trkpt>
      <trkpt lat="40.234400" lon="-4.906850">
        <ele>1782.0</ele>
        <time>2018-09-15T12:14:23Z</time>
      </trkpt>
      <trkpt lat="40.234483" lon="-4.906900">
        <ele>1784.0</ele>
        <time>2018-09-15T12:14:24Z</time>
      </trkpt>
      <trkpt lat="40.234583" lon="-4.906917">
        <ele>1780.0</ele>
        <time>2018-09-15T12:14:25Z</time>
      </trkpt>
      <trkpt lat="40.234667" lon="-4.906967">
        <ele>1781.0</ele>
        <time>2018-09-15T12:14:26Z</time>
      </trkpt>
      <trkpt lat="40.234717" lon="-4.907050">
        <ele>1782.0</ele>
        <time>2018-09-15T12:14:27Z</time>
      </trkpt>
      <trkpt lat="40.234767" lon="-4.907167">
        <ele>1784.0</ele>
        <time>2018-09-15T12:14:28Z</time>
      </trkpt>
      <trkpt lat="40.234800" lon="-4.907283">
        <ele>1785.0</ele>
        <time>2018-09-15T12:14:29Z</time>
      </trkpt>
      <trkpt lat="40.234817" lon="-4.907417">
        <ele>1786.0</ele>
        <time>2018-09-15T12:14:30Z</time>
      </trkpt>
      <trkpt lat="40.234817" lon="-4.907533">
        <ele>1787.0</ele>
        <time>2018-09-15T12:14:31Z</time>
      </trkpt>
      <trkpt lat="40.234767" lon="-4.907633">
        <ele>1789.0</ele>
        <time>2018-09-15T12:14:32Z</time>
      </trkpt>
      <trkpt lat="40.234700" lon="-4.907717">
        <ele>1790.0</ele>
        <time>2018-09-15T12:14:33Z</time>
      </trkpt>
      <trkpt lat="40.234617" lon="-4.907733">
        <ele>1791.0</ele>
        <time>2018-09-15T12:14:34Z</time>
      </trkpt>
      <trkpt lat="40.234533" lon="-4.907717">
        <ele>1790.0</ele>
        <time>2018-09-15T12:14:35Z</time>
      </trkpt>
      <trkpt lat="40.234450" lon="-4.907650">
        <ele>1790.0</ele>
        <time>2018-09-15T12:14:36Z</time>
      </trkpt>
      <trkpt lat="40.234383" lon="-4.907567">
        <ele>1791.0</ele>
        <time>2018-09-15T12:14:37Z</time>
      </trkpt>
      <trkpt lat="40.234367" lon="-4.907467">
        <ele>1792.0</ele>
        <time>2018-09-15T12:14:38Z</time>
      </trkpt>
      <trkpt lat="40.234350" lon="-4.907367">
        <ele>1793.0</ele>
        <time>2018-09-15T12:14:39Z</time>
      </trkpt>
      <trkpt lat="40.234350" lon="-4.907267">
        <ele>1793.0</ele>
        <time>2018-09-15T12:14:40Z</time>
      </trkpt>
      <trkpt lat="40.234383" lon="-4.907150">
        <ele>1794.0</ele>
        <time>2018-09-15T12:14:41Z</time>
      </trkpt>
      <trkpt lat="40.234450" lon="-4.907067">
        <ele>1794.0</ele>
        <time>2018-09-15T12:14:42Z</time>
      </trkpt>
      <trkpt lat="40.234533" lon="-4.907033">
        <ele>1795.0</ele>
        <time>2018-09-15T12:14:43Z</time>
      </trkpt>
      <trkpt lat="40.234600" lon="-4.907017">
        <ele>1799.0</ele>
        <time>2018-09-15T12:14:44Z</time>
      </trkpt>
      <trkpt lat="40.234667" lon="-4.907017">
        <ele>1802.0</ele>
        <time>2018-09-15T12:14:45Z</time>
      </trkpt>
      <trkpt lat="40.234717" lon="-4.907017">
        <ele>1804.0</ele>
        <time>2018-09-15T12:14:46Z</time>
      </trkpt>
      <trkpt lat="40.234767" lon="-4.907000">
        <ele>1804.0</ele>
        <time>2018-09-15T12:14:47Z</time>
      </trkpt>
      <trkpt lat="40.234850" lon="-4.906983">
        <ele>1802.0</ele>
        <time>2018-09-15T12:14:48Z</time>
      </trkpt>
      <trkpt lat="40.234933" lon="-4.906950">
        <ele>1802.0</ele>
        <time>2018-09-15T12:14:49Z</time>
      </trkpt>
      <trkpt lat="40.235033" lon="-4.906933">
        <ele>1801.0</ele>
        <time>2018-09-15T12:14:50Z</time>
      </trkpt>
      <trkpt lat="40.235133" lon="-4.906900">
        <ele>1801.0</ele>
        <time>2018-09-15T12:14:51Z</time>
      </trkpt>
      <trkpt lat="40.235217" lon="-4.906883">
        <ele>1800.0</ele>
        <time>2018-09-15T12:14:52Z</time>
      </trkpt>
      <trkpt lat="40.235300" lon="-4.906883">
        <ele>1797.0</ele>
        <time>2018-09-15T12:14:53Z</time>
      </trkpt>
      <trkpt lat="40.235400" lon="-4.906867">
        <ele>1797.0</ele>
        <time>2018-09-15T12:14:54Z</time>
      </trkpt>
      <trkpt lat="40.235483" lon="-4.906867">
        <ele>1797.0</ele>
        <time>2018-09-15T12:14:55Z</time>
      </trkpt>
      <trkpt lat="40.235583" lon="-4.906850">
        <ele>1796.0</ele>
        <time>2018-09-15T12:14:56Z</time>
      </trkpt>
      <trkpt lat="40.235683" lon="-4.906833">
        <ele>1795.0</ele>
        <time>2018-09-15T12:14:57Z</time>
      </trkpt>
      <trkpt lat="40.235767" lon="-4.906800">
        <ele>1794.0</ele>
        <time>2018-09-15T12:14:58Z</time>
      </trkpt>
      <trkpt lat="40.235867" lon="-4.906767">
        <ele>1793.0</ele>
        <time>2018-09-15T12:14:59Z</time>
      </trkpt>
      <trkpt lat="40.235933" lon="-4.906733">
        <ele>1792.0</ele>
        <time>2018-09-15T12:15:00Z</time>
      </trkpt>
      <trkpt lat="40.236000" lon="-4.906700">
        <ele>1792.0</ele>
        <time>2018-09-15T12:15:01Z</time>
      </trkpt>
      <trkpt lat="40.236050" lon="-4.906667">
        <ele>1792.0</ele>
        <time>2018-09-15T12:15:02Z</time>
      </trkpt>
      <trkpt lat="40.236117" lon="-4.906650">
        <ele>1791.0</ele>
        <time>2018-09-15T12:15:03Z</time>
      </trkpt>
      <trkpt lat="40.236200" lon="-4.906600">
        <ele>1791.0</ele>
        <time>2018-09-15T12:15:04Z</time>
      </trkpt>
      <trkpt lat="40.236267" lon="-4.906567">
        <ele>1790.0</ele>
        <time>2018-09-15T12:15:05Z</time>
      </trkpt>
      <trkpt lat="40.236367" lon="-4.906500">
        <ele>1787.0</ele>
        <time>2018-09-15T12:15:06Z</time>
      </trkpt>
      <trkpt lat="40.236467" lon="-4.906450">
        <ele>1783.0</ele>
        <time>2018-09-15T12:15:07Z</time>
      </trkpt>
      <trkpt lat="40.236567" lon="-4.906417">
        <ele>1780.0</ele>
        <time>2018-09-15T12:15:08Z</time>
      </trkpt>
      <trkpt lat="40.236633" lon="-4.906383">
        <ele>1776.0</ele>
        <time>2018-09-15T12:15:09Z</time>
      </trkpt>
      <trkpt lat="40.236717" lon="-4.906350">
        <ele>1773.0</ele>
        <time>2018-09-15T12:15:10Z</time>
      </trkpt>
      <trkpt lat="40.236783" lon="-4.906317">
        <ele>1769.0</ele>
        <time>2018-09-15T12:15:11Z</time>
      </trkpt>
      <trkpt lat="40.236850" lon="-4.906283">
        <ele>1765.0</ele>
        <time>2018-09-15T12:15:12Z</time>
      </trkpt>
      <trkpt lat="40.236933" lon="-4.906250">
        <ele>1761.0</ele>
        <time>2018-09-15T12:15:13Z</time>
      </trkpt>
      <trkpt lat="40.237000" lon="-4.906217">
        <ele>1763.0</ele>
        <time>2018-09-15T12:15:14Z</time>
      </trkpt>
      <trkpt lat="40.237050" lon="-4.906200">
        <ele>1763.0</ele>
        <time>2018-09-15T12:15:15Z</time>
      </trkpt>
      <trkpt lat="40.237100" lon="-4.906183">
        <ele>1762.0</ele>
        <time>2018-09-15T12:15:16Z</time>
      </trkpt>
      <trkpt lat="40.237150" lon="-4.906150">
        <ele>1761.0</ele>
        <time>2018-09-15T12:15:17Z</time>
      </trkpt>
      <trkpt lat="40.237200" lon="-4.906133">
        <ele>1760.0</ele>
        <time>2018-09-15T12:15:18Z</time>
      </trkpt>
      <trkpt lat="40.237250" lon="-4.906117">
        <ele>1760.0</ele>
        <time>2018-09-15T12:15:19Z</time>
      </trkpt>
      <trkpt lat="40.237350" lon="-4.906083">
        <ele>1759.0</ele>
        <time>2018-09-15T12:15:20Z</time>
      </trkpt>
      <trkpt lat="40.237450" lon="-4.906033">
        <ele>1757.0</ele>
        <time>2018-09-15T12:15:21Z</time>
      </trkpt>
      <trkpt lat="40.237517" lon="-4.906017">
        <ele>1755.0</ele>
        <time>2018-09-15T12:15:22Z</time>
      </trkpt>
      <trkpt lat="40.237583" lon="-4.905983">
        <ele>1754.0</ele>
        <time>2018-09-15T12:15:23Z</time>
      </trkpt>
      <trkpt lat="40.237650" lon="-4.905967">
        <ele>1753.0</ele>
        <time>2018-09-15T12:15:24Z</time>
      </trkpt>
      <trkpt lat="40.237717" lon="-4.905933">
        <ele>1753.0</ele>
        <time>2018-09-15T12:15:25Z</time>
      </trkpt>
      <trkpt lat="40.237800" lon="-4.905883">
        <ele>1753.0</ele>
        <time>2018-09-15T12:15:26Z</time>
      </trkpt>
      <trkpt lat="40.237900" lon="-4.905850">
        <ele>1751.0</ele>
        <time>2018-09-15T12:15:27Z</time>
      </trkpt>
      <trkpt lat="40.238000" lon="-4.905800">
        <ele>1748.0</ele>
        <time>2018-09-15T12:15:28Z</time>
      </trkpt>
      <trkpt lat="40.238083" lon="-4.905767">
        <ele>1746.0</ele>
        <time>2018-09-15T12:15:29Z</time>
      </trkpt>
      <trkpt lat="40.238150" lon="-4.905733">
        <ele>1743.0</ele>
        <time>2018-09-15T12:15:30Z</time>
      </trkpt>
      <trkpt lat="40.238233" lon="-4.905700">
        <ele>1741.0</ele>
        <time>2018-09-15T12:15:31Z</time>
      </trkpt>
      <trkpt lat="40.238333" lon="-4.905683">
        <ele>1738.0</ele>
        <time>2018-09-15T12:15:32Z</time>
      </trkpt>
      <trkpt lat="40.238400" lon="-4.905650">
        <ele>1734.0</ele>
        <time>2018-09-15T12:15:33Z</time>
      </trkpt>
      <trkpt lat="40.238483" lon="-4.905617">
        <ele>1728.0</ele>
        <time>2018-09-15T12:15:34Z</time>
      </trkpt>
      <trkpt lat="40.238533" lon="-4.905583">
        <ele>1723.0</ele>
        <time>2018-09-15T12:15:35Z</time>
      </trkpt>
      <trkpt lat="40.238600" lon="-4.905550">
        <ele>1718.0</ele>
        <time>2018-09-15T12:15:36Z</time>
      </trkpt>
      <trkpt lat="40.238683" lon="-4.905500">
        <ele>1719.0</ele>
        <time>2018-09-15T12:15:37Z</time>
      </trkpt>
      <trkpt lat="40.238767" lon="-4.905450">
        <ele>1720.0</ele>
        <time>2018-09-15T12:15:38Z</time>
      </trkpt>
      <trkpt lat="40.238867" lon="-4.905400">
        <ele>1719.0</ele>
        <time>2018-09-15T12:15:39Z</time>
      </trkpt>
      <trkpt lat="40.238950" lon="-4.905367">
        <ele>1717.0</ele>
        <time>2018-09-15T12:15:40Z</time>
      </trkpt>
      <trkpt lat="40.239017" lon="-4.905333">
        <ele>1717.0</ele>
        <time>2018-09-15T12:15:41Z</time>
      </trkpt>
      <trkpt lat="40.239083" lon="-4.905300">
        <ele>1716.0</ele>
        <time>2018-09-15T12:15:42Z</time>
      </trkpt>
      <trkpt lat="40.239150" lon="-4.905267">
        <ele>1716.0</ele>
        <time>2018-09-15T12:15:43Z</time>
      </trkpt>
      <trkpt lat="40.239217" lon="-4.905233">
        <ele>1715.0</ele>
        <time>2018-09-15T12:15:44Z</time>
      </trkpt>
      <trkpt lat="40.239283" lon="-4.905200">
        <ele>1715.0</ele>
        <time>2018-09-15T12:15:45Z</time>
      </trkpt>
      <trkpt lat="40.239350" lon="-4.905167">
        <ele>1714.0</ele>
        <time>2018-09-15T12:15:46Z</time>
      </trkpt>
      <trkpt lat="40.239417" lon="-4.905150">
        <ele>1713.0</ele>
        <time>2018-09-15T12:15:47Z</time>
      </trkpt>
      <trkpt lat="40.239467" lon="-4.905133">
        <ele>1712.0</ele>
        <time>2018-09-15T12:15:48Z</time>
      </trkpt>
      <trkpt lat="40.239533" lon="-4.905100">
        <ele>1711.0</ele>
        <time>2018-09-15T12:15:49Z</time>
      </trkpt>
      <trkpt lat="40.239633" lon="-4.905067">
        <ele>1710.0</ele>
        <time>2018-09-15T12:15:50Z</time>
      </trkpt>
      <trkpt lat="40.239717" lon="-4.905017">
        <ele>1710.0</ele>
        <time>2018-09-15T12:15:51Z</time>
      </trkpt>
      <trkpt lat="40.239783" lon="-4.905000">
        <ele>1709.0</ele>
        <time>2018-09-15T12:15:52Z</time>
      </trkpt>
      <trkpt lat="40.239850" lon="-4.904983">
        <ele>1708.0</ele>
        <time>2018-09-15T12:15:53Z</time>
      </trkpt>
      <trkpt lat="40.239917" lon="-4.904967">
        <ele>1707.0</ele>
        <time>2018-09-15T12:15:54Z</time>
      </trkpt>
      <trkpt lat="40.240000" lon="-4.904933">
        <ele>1706.0</ele>
        <time>2018-09-15T12:15:55Z</time>
      </trkpt>
      <trkpt lat="40.240083" lon="-4.904900">
        <ele>1705.0</ele>
        <time>2018-09-15T12:15:56Z</time>
      </trkpt>
      <trkpt lat="40.240150" lon="-4.904883">
        <ele>1704.0</ele>
        <time>2018-09-15T12:15:57Z</time>
      </trkpt>
      <trkpt lat="40.240233" lon="-4.904850">
        <ele>1703.0</ele>
        <time>2018-09-15T12:15:58Z</time>
      </trkpt>
      <trkpt lat="40.240333" lon="-4.904817">
        <ele>1702.0</ele>
        <time>2018-09-15T12:15:59Z</time>
      </trkpt>
      <trkpt lat="40.240450" lon="-4.904783">
        <ele>1701.0</ele>
        <time>2018-09-15T12:16:00Z</time>
      </trkpt>
      <trkpt lat="40.240533" lon="-4.904750">
        <ele>1701.0</ele>
        <time>2018-09-15T12:16:01Z</time>
      </trkpt>
      <trkpt lat="40.240617" lon="-4.904717">
        <ele>1700.0</ele>
        <time>2018-09-15T12:16:02Z</time>
      </trkpt>
      <trkpt lat="40.240700" lon="-4.904683">
        <ele>1699.0</ele>
        <time>2018-09-15T12:16:03Z</time>
      </trkpt>
      <trkpt lat="40.240783" lon="-4.904633">
        <ele>1699.0</ele>
        <time>2018-09-15T12:16:04Z</time>
      </trkpt>
      <trkpt lat="40.240867" lon="-4.904600">
        <ele>1698.0</ele>
        <time>2018-09-15T12:16:05Z</time>
      </trkpt>
      <trkpt lat="40.240950" lon="-4.904567">
        <ele>1697.0</ele>
        <time>2018-09-15T12:16:06Z</time>
      </trkpt>
      <trkpt lat="40.241033" lon="-4.904533">
        <ele>1696.0</ele>
        <time>2018-09-15T12:16:07Z</time>
      </trkpt>
      <trkpt lat="40.241117" lon="-4.904500">
        <ele>1695.0</ele>
        <time>2018-09-15T12:16:08Z</time>
      </trkpt>
      <trkpt lat="40.241200" lon="-4.904450">
        <ele>1694.0</ele>
        <time>2018-09-15T12:16:09Z</time>
      </trkpt>
      <trkpt lat="40.241300" lon="-4.904383">
        <ele>1693.0</ele>
        <time>2018-09-15T12:16:10Z</time>
      </trkpt>
      <trkpt lat="40.241350" lon="-4.904350">
        <ele>1692.0</ele>
        <time>2018-09-15T12:16:11Z</time>
      </trkpt>
      <trkpt lat="40.241400" lon="-4.904333">
        <ele>1691.0</ele>
        <time>2018-09-15T12:16:12Z</time>
      </trkpt>
      <trkpt lat="40.241483" lon="-4.904300">
        <ele>1689.0</ele>
        <time>2018-09-15T12:16:13Z</time>
      </trkpt>
      <trkpt lat="40.241550" lon="-4.904283">
        <ele>1689.0</ele>
        <time>2018-09-15T12:16:14Z</time>
      </trkpt>
      <trkpt lat="40.241633" lon="-4.904250">
        <ele>1688.0</ele>
        <time>2018-09-15T12:16:15Z</time>
      </trkpt>
      <trkpt lat="40.241717" lon="-4.904217">
        <ele>1687.0</ele>
        <time>2018-09-15T12:16:16Z</time>
      </trkpt>
      <trkpt lat="40.241800" lon="-4.904183">
        <ele>1687.0</ele>
        <time>2018-09-15T12:16:17Z</time>
      </trkpt>
      <trkpt lat="40.241883" lon="-4.904150">
        <ele>1686.0</ele>
        <time>2018-09-15T12:16:18Z</time>
      </trkpt>
      <trkpt lat="40.241967" lon="-4.904117">
        <ele>1685.0</ele>
        <time>2018-09-15T12:16:19Z</time>
      </trkpt>
      <trkpt lat="40.242050" lon="-4.904083">
        <ele>1685.0</ele>
        <time>2018-09-15T12:16:20Z</time>
      </trkpt>
      <trkpt lat="40.242150" lon="-4.904050">
        <ele>1684.0</ele>
        <time>2018-09-15T12:16:21Z</time>
      </trkpt>
      <trkpt lat="40.242233" lon="-4.904017">
        <ele>1683.0</ele>
        <time>2018-09-15T12:16:22Z</time>
      </trkpt>
      <trkpt lat="40.242317" lon="-4.903983">
        <ele>1682.0</ele>
        <time>2018-09-15T12:16:23Z</time>
      </trkpt>
      <trkpt lat="40.242400" lon="-4.903967">
        <ele>1681.0</ele>
        <time>2018-09-15T12:16:24Z</time>
      </trkpt>
      <trkpt lat="40.242500" lon="-4.903933">
        <ele>1680.0</ele>
        <time>2018-09-15T12:16:25Z</time>
      </trkpt>
      <trkpt lat="40.242583" lon="-4.903900">
        <ele>1679.0</ele>
        <time>2018-09-15T12:16:26Z</time>
      </trkpt>
      <trkpt lat="40.242650" lon="-4.903867">
        <ele>1678.0</ele>
        <time>2018-09-15T12:16:27Z</time>
      </trkpt>
      <trkpt lat="40.242717" lon="-4.903850">
        <ele>1677.0</ele>
        <time>2018-09-15T12:16:28Z</time>
      </trkpt>
      <trkpt lat="40.242783" lon="-4.903833">
        <ele>1676.0</ele>
        <time>2018-09-15T12:16:29Z</time>
      </trkpt>
      <trkpt lat="40.242867" lon="-4.903817">
        <ele>1674.0</ele>
        <time>2018-09-15T12:16:30Z</time>
      </trkpt>
      <trkpt lat="40.242933" lon="-4.903800">
        <ele>1673.0</ele>
        <time>2018-09-15T12:16:31Z</time>
      </trkpt>
      <trkpt lat="40.243017" lon="-4.903767">
        <ele>1671.0</ele>
        <time>2018-09-15T12:16:32Z</time>
      </trkpt>
      <trkpt lat="40.243117" lon="-4.903750">
        <ele>1669.0</ele>
        <time>2018-09-15T12:16:33Z</time>
      </trkpt>
      <trkpt lat="40.243217" lon="-4.903733">
        <ele>1667.0</ele>
        <time>2018-09-15T12:16:34Z</time>
      </trkpt>
      <trkpt lat="40.243283" lon="-4.903717">
        <ele>1666.0</ele>
        <time>2018-09-15T12:16:35Z</time>
      </trkpt>
      <trkpt lat="40.243383" lon="-4.903700">
        <ele>1663.0</ele>
        <time>2018-09-15T12:16:36Z</time>
      </trkpt>
      <trkpt lat="40.243467" lon="-4.903700">
        <ele>1661.0</ele>
        <time>2018-09-15T12:16:37Z</time>
      </trkpt>
      <trkpt lat="40.243550" lon="-4.903683">
        <ele>1659.0</ele>
        <time>2018-09-15T12:16:38Z</time>
      </trkpt>
      <trkpt lat="40.243633" lon="-4.903667">
        <ele>1657.0</ele>
        <time>2018-09-15T12:16:39Z</time>
      </trkpt>
      <trkpt lat="40.243700" lon="-4.903633">
        <ele>1655.0</ele>
        <time>2018-09-15T12:16:40Z</time>
      </trkpt>
      <trkpt lat="40.243783" lon="-4.903617">
        <ele>1652.0</ele>
        <time>2018-09-15T12:16:41Z</time>
      </trkpt>
      <trkpt lat="40.243850" lon="-4.903583">
        <ele>1650.0</ele>
        <time>2018-09-15T12:16:42Z</time>
      </trkpt>
      <trkpt lat="40.243933" lon="-4.903550">
        <ele>1646.0</ele>
        <time>2018-09-15T12:16:43Z</time>
      </trkpt>
      <trkpt lat="40.244000" lon="-4.903500">
        <ele>1643.0</ele>
        <time>2018-09-15T12:16:44Z</time>
      </trkpt>
      <trkpt lat="40.244083" lon="-4.903450">
        <ele>1639.0</ele>
        <time>2018-09-15T12:16:45Z</time>
      </trkpt>
      <trkpt lat="40.244183" lon="-4.903417">
        <ele>1636.0</ele>
        <time>2018-09-15T12:16:46Z</time>
      </trkpt>
      <trkpt lat="40.244250" lon="-4.903400">
        <ele>1632.0</ele>
        <time>2018-09-15T12:16:47Z</time>
      </trkpt>
      <trkpt lat="40.244317" lon="-4.903400">
        <ele>1627.0</ele>
        <time>2018-09-15T12:16:48Z</time>
      </trkpt>
      <trkpt lat="40.244383" lon="-4.903383">
        <ele>1621.0</ele>
        <time>2018-09-15T12:16:49Z</time>
      </trkpt>
      <trkpt lat="40.244450" lon="-4.903350">
        <ele>1616.0</ele>
        <time>2018-09-15T12:16:50Z</time>
      </trkpt>
      <trkpt lat="40.244500" lon="-4.903350">
        <ele>1612.0</ele>
        <time>2018-09-15T12:16:51Z</time>
      </trkpt>
      <trkpt lat="40.244583" lon="-4.903333">
        <ele>1608.0</ele>
        <time>2018-09-15T12:16:52Z</time>
      </trkpt>
      <trkpt lat="40.244650" lon="-4.903317">
        <ele>1601.0</ele>
        <time>2018-09-15T12:16:53Z</time>
      </trkpt>
      <trkpt lat="40.244700" lon="-4.903317">
        <ele>1595.0</ele>
        <time>2018-09-15T12:16:54Z</time>
      </trkpt>
      <trkpt lat="40.244750" lon="-4.903300">
        <ele>1590.0</ele>
        <time>2018-09-15T12:16:55Z</time>
      </trkpt>
      <trkpt lat="40.244800" lon="-4.903283">
        <ele>1585.0</ele>
        <time>2018-09-15T12:16:56Z</time>
      </trkpt>
      <trkpt lat="40.244867" lon="-4.903267">
        <ele>1580.0</ele>
        <time>2018-09-15T12:16:57Z</time>
      </trkpt>
      <trkpt lat="40.244950" lon="-4.903233">
        <ele>1575.0</ele>
        <time>2018-09-15T12:16:58Z</time>
      </trkpt>
      <trkpt lat="40.245033" lon="-4.903217">
        <ele>1570.0</ele>
        <time>2018-09-15T12:16:59Z</time>
      </trkpt>
      <trkpt lat="40.245117" lon="-4.903183">
        <ele>1564.0</ele>
        <time>2018-09-15T12:17:00Z</time>
      </trkpt>
      <trkpt lat="40.245183" lon="-4.903167">
        <ele>1558.0</ele>
        <time>2018-09-15T12:17:01Z</time>
      </trkpt>
      <trkpt lat="40.245250" lon="-4.903167">
        <ele>1553.0</ele>
        <time>2018-09-15T12:17:02Z</time>
      </trkpt>
      <trkpt lat="40.245317" lon="-4.903133">
        <ele>1548.0</ele>
        <time>2018-09-15T12:17:03Z</time>
      </trkpt>
      <trkpt lat="40.245383" lon="-4.903117">
        <ele>1542.0</ele>
        <time>2018-09-15T12:17:04Z</time>
      </trkpt>
      <trkpt lat="40.245467" lon="-4.903083">
        <ele>1536.0</ele>
        <time>2018-09-15T12:17:05Z</time>
      </trkpt>
      <trkpt lat="40.245550" lon="-4.903067">
        <ele>1531.0</ele>
        <time>2018-09-15T12:17:06Z</time>
      </trkpt>
      <trkpt lat="40.245617" lon="-4.903067">
        <ele>1526.0</ele>
        <time>2018-09-15T12:17:07Z</time>
      </trkpt>
      <trkpt lat="40.245700" lon="-4.903050">
        <ele>1521.0</ele>
        <time>2018-09-15T12:17:08Z</time>
      </trkpt>
      <trkpt lat="40.245767" lon="-4.903033">
        <ele>1517.0</ele>
        <time>2018-09-15T12:17:09Z</time>
      </trkpt>
      <trkpt lat="40.245833" lon="-4.903000">
        <ele>1514.0</ele>
        <time>2018-09-15T12:17:10Z</time>
      </trkpt>
      <trkpt lat="40.245900" lon="-4.902983">
        <ele>1510.0</ele>
        <time>2018-09-15T12:17:11Z</time>
      </trkpt>
      <trkpt lat="40.245983" lon="-4.902983">
        <ele>1505.0</ele>
        <time>2018-09-15T12:17:12Z</time>
      </trkpt>
      <trkpt lat="40.246033" lon="-4.902967">
        <ele>1500.0</ele>
        <time>2018-09-15T12:17:13Z</time>
      </trkpt>
      <trkpt lat="40.246100" lon="-4.902950">
        <ele>1495.0</ele>
        <time>2018-09-15T12:17:14Z</time>
      </trkpt>
      <trkpt lat="40.246150" lon="-4.902933">
        <ele>1490.0</ele>
        <time>2018-09-15T12:17:15Z</time>
      </trkpt>
      <trkpt lat="40.246217" lon="-4.902917">
        <ele>1484.0</ele>
        <time>2018-09-15T12:17:16Z</time>
      </trkpt>
      <trkpt lat="40.246283" lon="-4.902883">
        <ele>1478.0</ele>
        <time>2018-09-15T12:17:17Z</time>
      </trkpt>
      <trkpt lat="40.246333" lon="-4.902850">
        <ele>1473.0</ele>
        <time>2018-09-15T12:17:18Z</time>
      </trkpt>
      <trkpt lat="40.246400" lon="-4.902817">
        <ele>1467.0</ele>
        <time>2018-09-15T12:17:19Z</time>
      </trkpt>
      <trkpt lat="40.246450" lon="-4.902783">
        <ele>1462.0</ele>
        <time>2018-09-15T12:17:20Z</time>
      </trkpt>
      <trkpt lat="40.246500" lon="-4.902750">
        <ele>1458.0</ele>
        <time>2018-09-15T12:17:21Z</time>
      </trkpt>
      <trkpt lat="40.246550" lon="-4.902733">
        <ele>1454.0</ele>
        <time>2018-09-15T12:17:22Z</time>
      </trkpt>
      <trkpt lat="40.246600" lon="-4.902700">
        <ele>1450.0</ele>
        <time>2018-09-15T12:17:23Z</time>
      </trkpt>
      <trkpt lat="40.246667" lon="-4.902683">
        <ele>1446.0</ele>
        <time>2018-09-15T12:17:24Z</time>
      </trkpt>
      <trkpt lat="40.246717" lon="-4.902650">
        <ele>1442.0</ele>
        <time>2018-09-15T12:17:25Z</time>
      </trkpt>
      <trkpt lat="40.246767" lon="-4.902633">
        <ele>1438.0</ele>
        <time>2018-09-15T12:17:26Z</time>
      </trkpt>
      <trkpt lat="40.246817" lon="-4.902600">
        <ele>1434.0</ele>
        <time>2018-09-15T12:17:27Z</time>
      </trkpt>
      <trkpt lat="40.246883" lon="-4.902583">
        <ele>1430.0</ele>
        <time>2018-09-15T12:17:28Z</time>
      </trkpt>
      <trkpt lat="40.246950" lon="-4.902567">
        <ele>1426.0</ele>
        <time>2018-09-15T12:17:29Z</time>
      </trkpt>
      <trkpt lat="40.247000" lon="-4.902533">
        <ele>1423.0</ele>
        <time>2018-09-15T12:17:30Z</time>
      </trkpt>
      <trkpt lat="40.247067" lon="-4.902500">
        <ele>1419.0</ele>
        <time>2018-09-15T12:17:31Z</time>
      </trkpt>
      <trkpt lat="40.247133" lon="-4.902450">
        <ele>1415.0</ele>
        <time>2018-09-15T12:17:32Z</time>
      </trkpt>
      <trkpt lat="40.247167" lon="-4.902433">
        <ele>1412.0</ele>
        <time>2018-09-15T12:17:33Z</time>
      </trkpt>
      <trkpt lat="40.247217" lon="-4.902400">
        <ele>1411.0</ele>
        <time>2018-09-15T12:17:34Z</time>
      </trkpt>
      <trkpt lat="40.247250" lon="-4.902350">
        <ele>1411.0</ele>
        <time>2018-09-15T12:17:35Z</time>
      </trkpt>
      <trkpt lat="40.247300" lon="-4.902317">
        <ele>1411.0</ele>
        <time>2018-09-15T12:17:36Z</time>
      </trkpt>
      <trkpt lat="40.247333" lon="-4.902267">
        <ele>1412.0</ele>
        <time>2018-09-15T12:17:37Z</time>
      </trkpt>
      <trkpt lat="40.247383" lon="-4.902233">
        <ele>1413.0</ele>
        <time>2018-09-15T12:17:38Z</time>
      </trkpt>
      <trkpt lat="40.247417" lon="-4.902217">
        <ele>1413.0</ele>
        <time>2018-09-15T12:17:39Z</time>
      </trkpt>
      <trkpt lat="40.247450" lon="-4.902183">
        <ele>1412.0</ele>
        <time>2018-09-15T12:17:40Z</time>
      </trkpt>
      <trkpt lat="40.247467" lon="-4.902150">
        <ele>1414.0</ele>
        <time>2018-09-15T12:17:41Z</time>
      </trkpt>
      <trkpt lat="40.247483" lon="-4.902117">
        <ele>1415.0</ele>
        <time>2018-09-15T12:17:42Z</time>
      </trkpt>
      <trkpt lat="40.247500" lon="-4.902067">
        <ele>1413.0</ele>
        <time>2018-09-15T12:17:43Z</time>
      </trkpt>
      <trkpt lat="40.247533" lon="-4.902017">
        <ele>1412.0</ele>
        <time>2018-09-15T12:17:44Z</time>
      </trkpt>
      <trkpt lat="40.247583" lon="-4.901967">
        <ele>1410.0</ele>
        <time>2018-09-15T12:17:45Z</time>
      </trkpt>
      <trkpt lat="40.247633" lon="-4.901917">
        <ele>1408.0</ele>
        <time>2018-09-15T12:17:46Z</time>
      </trkpt>
      <trkpt lat="40.247667" lon="-4.901850">
        <ele>1405.0</ele>
        <time>2018-09-15T12:17:47Z</time>
      </trkpt>
      <trkpt lat="40.247733" lon="-4.901783">
        <ele>1403.0</ele>
        <time>2018-09-15T12:17:48Z</time>
      </trkpt>
      <trkpt lat="40.247800" lon="-4.901717">
        <ele>1400.0</ele>
        <time>2018-09-15T12:17:49Z</time>
      </trkpt>
      <trkpt lat="40.247867" lon="-4.901667">
        <ele>1399.0</ele>
        <time>2018-09-15T12:17:50Z</time>
      </trkpt>
      <trkpt lat="40.247933" lon="-4.901617">
        <ele>1399.0</ele>
        <time>2018-09-15T12:17:51Z</time>
      </trkpt>
      <trkpt lat="40.248000" lon="-4.901567">
        <ele>1398.0</ele>
        <time>2018-09-15T12:17:52Z</time>
      </trkpt>
      <trkpt lat="40.248067" lon="-4.901533">
        <ele>1397.0</ele>
        <time>2018-09-15T12:17:53Z</time>
      </trkpt>
      <trkpt lat="40.248150" lon="-4.901483">
        <ele>1394.0</ele>
        <time>2018-09-15T12:17:54Z</time>
      </trkpt>
      <trkpt lat="40.248217" lon="-4.901433">
        <ele>1393.0</ele>
        <time>2018-09-15T12:17:55Z</time>
      </trkpt>
      <trkpt lat="40.248300" lon="-4.901383">
        <ele>1391.0</ele>
        <time>2018-09-15T12:17:56Z</time>
      </trkpt>
      <trkpt lat="40.248383" lon="-4.901333">
        <ele>1390.0</ele>
        <time>2018-09-15T12:17:57Z</time>
      </trkpt>
      <trkpt lat="40.248450" lon="-4.901300">
        <ele>1390.0</ele>
        <time>2018-09-15T12:17:58Z</time>
      </trkpt>
      <trkpt lat="40.248533" lon="-4.901267">
        <ele>1389.0</ele>
        <time>2018-09-15T12:17:59Z</time>
      </trkpt>
      <trkpt lat="40.248617" lon="-4.901233">
        <ele>1388.0</ele>
        <time>2018-09-15T12:18:00Z</time>
      </trkpt>
      <trkpt lat="40.248700" lon="-4.901183">
        <ele>1386.0</ele>
        <time>2018-09-15T12:18:01Z</time>
      </trkpt>
      <trkpt lat="40.248783" lon="-4.901133">
        <ele>1383.0</ele>
        <time>2018-09-15T12:18:02Z</time>
      </trkpt>
      <trkpt lat="40.248867" lon="-4.901067">
        <ele>1380.0</ele>
        <time>2018-09-15T12:18:03Z</time>
      </trkpt>
      <trkpt lat="40.248950" lon="-4.901000">
        <ele>1377.0</ele>
        <time>2018-09-15T12:18:04Z</time>
      </trkpt>
      <trkpt lat="40.249033" lon="-4.900950">
        <ele>1375.0</ele>
        <time>2018-09-15T12:18:05Z</time>
      </trkpt>
      <trkpt lat="40.249100" lon="-4.900900">
        <ele>1373.0</ele>
        <time>2018-09-15T12:18:06Z</time>
      </trkpt>
      <trkpt lat="40.249150" lon="-4.900867">
        <ele>1371.0</ele>
        <time>2018-09-15T12:18:07Z</time>
      </trkpt>
      <trkpt lat="40.249217" lon="-4.900833">
        <ele>1368.0</ele>
        <time>2018-09-15T12:18:08Z</time>
      </trkpt>
      <trkpt lat="40.249300" lon="-4.900783">
        <ele>1364.0</ele>
        <time>2018-09-15T12:18:09Z</time>
      </trkpt>
      <trkpt lat="40.249383" lon="-4.900717">
        <ele>1360.0</ele>
        <time>2018-09-15T12:18:10Z</time>
      </trkpt>
      <trkpt lat="40.249467" lon="-4.900667">
        <ele>1357.0</ele>
        <time>2018-09-15T12:18:11Z</time>
      </trkpt>
      <trkpt lat="40.249517" lon="-4.900633">
        <ele>1356.0</ele>
        <time>2018-09-15T12:18:12Z</time>
      </trkpt>
      <trkpt lat="40.249567" lon="-4.900617">
        <ele>1354.0</ele>
        <time>2018-09-15T12:18:13Z</time>
      </trkpt>
      <trkpt lat="40.249633" lon="-4.900567">
        <ele>1352.0</ele>
        <time>2018-09-15T12:18:14Z</time>
      </trkpt>
      <trkpt lat="40.249700" lon="-4.900500">
        <ele>1347.0</ele>
        <time>2018-09-15T12:18:15Z</time>
      </trkpt>
      <trkpt lat="40.249767" lon="-4.900433">
        <ele>1343.0</ele>
        <time>2018-09-15T12:18:16Z</time>
      </trkpt>
      <trkpt lat="40.249833" lon="-4.900367">
        <ele>1341.0</ele>
        <time>2018-09-15T12:18:17Z</time>
      </trkpt>
      <trkpt lat="40.249900" lon="-4.900300">
        <ele>1339.0</ele>
        <time>2018-09-15T12:18:18Z</time>
      </trkpt>
      <trkpt lat="40.249950" lon="-4.900250">
        <ele>1337.0</ele>
        <time>2018-09-15T12:18:19Z</time>
      </trkpt>
      <trkpt lat="40.250017" lon="-4.900183">
        <ele>1335.0</ele>
        <time>2018-09-15T12:18:20Z</time>
      </trkpt>
      <trkpt lat="40.250083" lon="-4.900117">
        <ele>1333.0</ele>
        <time>2018-09-15T12:18:21Z</time>
      </trkpt>
      <trkpt lat="40.250150" lon="-4.900067">
        <ele>1332.0</ele>
        <time>2018-09-15T12:18:22Z</time>
      </trkpt>
      <trkpt lat="40.250217" lon="-4.900033">
        <ele>1331.0</ele>
        <time>2018-09-15T12:18:23Z</time>
      </trkpt>
      <trkpt lat="40.250283" lon="-4.899983">
        <ele>1331.0</ele>
        <time>2018-09-15T12:18:24Z</time>
      </trkpt>
      <trkpt lat="40.250350" lon="-4.899933">
        <ele>1331.0</ele>
        <time>2018-09-15T12:18:25Z</time>
      </trkpt>
      <trkpt lat="40.250417" lon="-4.899883">
        <ele>1330.0</ele>
        <time>2018-09-15T12:18:26Z</time>
      </trkpt>
      <trkpt lat="40.250483" lon="-4.899850">
        <ele>1331.0</ele>
        <time>2018-09-15T12:18:27Z</time>
      </trkpt>
      <trkpt lat="40.250533" lon="-4.899817">
        <ele>1333.0</ele>
        <time>2018-09-15T12:18:28Z</time>
      </trkpt>
      <trkpt lat="40.250583" lon="-4.899783">
        <ele>1334.0</ele>
        <time>2018-09-15T12:18:29Z</time>
      </trkpt>
      <trkpt lat="40.250650" lon="-4.899750">
        <ele>1336.0</ele>
        <time>2018-09-15T12:18:30Z</time>
      </trkpt>
      <trkpt lat="40.250700" lon="-4.899700">
        <ele>1337.0</ele>
        <time>2018-09-15T12:18:31Z</time>
      </trkpt>
      <trkpt lat="40.250750" lon="-4.899650">
        <ele>1338.0</ele>
        <time>2018-09-15T12:18:32Z</time>
      </trkpt>
      <trkpt lat="40.250750" lon="-4.899583">
        <ele>1340.0</ele>
        <time>2018-09-15T12:18:33Z</time>
      </trkpt>
      <trkpt lat="40.250733" lon="-4.899550">
        <ele>1344.0</ele>
        <time>2018-09-15T12:18:34Z</time>
      </trkpt>
      <trkpt lat="40.250717" lon="-4.899500">
        <ele>1347.0</ele>
        <time>2018-09-15T12:18:35Z</time>
      </trkpt>
      <trkpt lat="40.250733" lon="-4.899450">
        <ele>1350.0</ele>
        <time>2018-09-15T12:18:36Z</time>
      </trkpt>
      <trkpt lat="40.250767" lon="-4.899383">
        <ele>1352.0</ele>
        <time>2018-09-15T12:18:37Z</time>
      </trkpt>
      <trkpt lat="40.250817" lon="-4.899317">
        <ele>1355.0</ele>
        <time>2018-09-15T12:18:38Z</time>
      </trkpt>
      <trkpt lat="40.250900" lon="-4.899317">
        <ele>1358.0</ele>
        <time>2018-09-15T12:18:39Z</time>
      </trkpt>
      <trkpt lat="40.250983" lon="-4.899383">
        <ele>1361.0</ele>
        <time>2018-09-15T12:18:40Z</time>
      </trkpt>
      <trkpt lat="40.251067" lon="-4.899467">
        <ele>1362.0</ele>
        <time>2018-09-15T12:18:41Z</time>
      </trkpt>
      <trkpt lat="40.251150" lon="-4.899567">
        <ele>1364.0</ele>
        <time>2018-09-15T12:18:42Z</time>
      </trkpt>
      <trkpt lat="40.251217" lon="-4.899667">
        <ele>1365.0</ele>
        <time>2018-09-15T12:18:43Z</time>
      </trkpt>
      <trkpt lat="40.251300" lon="-4.899717">
        <ele>1367.0</ele>
        <time>2018-09-15T12:18:44Z</time>
      </trkpt>
      <trkpt lat="40.251383" lon="-4.899733">
        <ele>1369.0</ele>
        <time>2018-09-15T12:18:45Z</time>
      </trkpt>
      <trkpt lat="40.251450" lon="-4.899683">
        <ele>1366.0</ele>
        <time>2018-09-15T12:18:46Z</time>
      </trkpt>
      <trkpt lat="40.251483" lon="-4.899633">
        <ele>1366.0</ele>
        <time>2018-09-15T12:18:47Z</time>
      </trkpt>
      <trkpt lat="40.251467" lon="-4.899567">
        <ele>1366.0</ele>
        <time>2018-09-15T12:18:48Z</time>
      </trkpt>
      <trkpt lat="40.251433" lon="-4.899517">
        <ele>1366.0</ele>
        <time>2018-09-15T12:18:49Z</time>
      </trkpt>
      <trkpt lat="40.251367" lon="-4.899500">
        <ele>1366.0</ele>
        <time>2018-09-15T12:18:50Z</time>
      </trkpt>
      <trkpt lat="40.251283" lon="-4.899483">
        <ele>1366.0</ele>
        <time>2018-09-15T12:18:51Z</time>
      </trkpt>
      <trkpt lat="40.251217" lon="-4.899483">
        <ele>1366.0</ele>
        <time>2018-09-15T12:18:52Z</time>
      </trkpt>
      <trkpt lat="40.251133" lon="-4.899500">
        <ele>1366.0</ele>
        <time>2018-09-15T12:18:53Z</time>
      </trkpt>
      <trkpt lat="40.251067" lon="-4.899500">
        <ele>1366.0</ele>
        <time>2018-09-15T12:18:54Z</time>
      </trkpt>
      <trkpt lat="40.251000" lon="-4.899483">
        <ele>1366.0</ele>
        <time>2018-09-15T12:18:55Z</time>
      </trkpt>
      <trkpt lat="40.250933" lon="-4.899467">
        <ele>1365.0</ele>
        <time>2018-09-15T12:18:56Z</time>
      </trkpt>
      <trkpt lat="40.250867" lon="-4.899467">
        <ele>1365.0</ele>
        <time>2018-09-15T12:18:57Z</time>
      </trkpt>
      <trkpt lat="40.250783" lon="-4.899467">
        <ele>1364.0</ele>
        <time>2018-09-15T12:18:58Z</time>
      </trkpt>
      <trkpt lat="40.250700" lon="-4.899483">
        <ele>1364.0</ele>
        <time>2018-09-15T12:18:59Z</time>
      </trkpt>
      <trkpt lat="40.250617" lon="-4.899500">
        <ele>1363.0</ele>
        <time>2018-09-15T12:19:00Z</time>
      </trkpt>
      <trkpt lat="40.250533" lon="-4.899500">
        <ele>1362.0</ele>
        <time>2018-09-15T12:19:01Z</time>
      </trkpt>
      <trkpt lat="40.250450" lon="-4.899500">
        <ele>1361.0</ele>
        <time>2018-09-15T12:19:02Z</time>
      </trkpt>
      <trkpt lat="40.250383" lon="-4.899483">
        <ele>1361.0</ele>
        <time>2018-09-15T12:19:03Z</time>
      </trkpt>
      <trkpt lat="40.250317" lon="-4.899450">
        <ele>1360.0</ele>
        <time>2018-09-15T12:19:04Z</time>
      </trkpt>
      <trkpt lat="40.250267" lon="-4.899400">
        <ele>1359.0</ele>
        <time>2018-09-15T12:19:05Z</time>
      </trkpt>
      <trkpt lat="40.250233" lon="-4.899350">
        <ele>1358.0</ele>
        <time>2018-09-15T12:19:06Z</time>
      </trkpt>
      <trkpt lat="40.250200" lon="-4.899300">
        <ele>1357.0</ele>
        <time>2018-09-15T12:19:07Z</time>
      </trkpt>
      <trkpt lat="40.250167" lon="-4.899233">
        <ele>1356.0</ele>
        <time>2018-09-15T12:19:08Z</time>
      </trkpt>
      <trkpt lat="40.250133" lon="-4.899167">
        <ele>1355.0</ele>
        <time>2018-09-15T12:19:09Z</time>
      </trkpt>
      <trkpt lat="40.250083" lon="-4.899117">
        <ele>1354.0</ele>
        <time>2018-09-15T12:19:10Z</time>
      </trkpt>
      <trkpt lat="40.250050" lon="-4.899050">
        <ele>1353.0</ele>
        <time>2018-09-15T12:19:11Z</time>
      </trkpt>
      <trkpt lat="40.250033" lon="-4.898983">
        <ele>1353.0</ele>
        <time>2018-09-15T12:19:12Z</time>
      </trkpt>
      <trkpt lat="40.250017" lon="-4.898917">
        <ele>1352.0</ele>
        <time>2018-09-15T12:19:13Z</time>
      </trkpt>
      <trkpt lat="40.250000" lon="-4.898817">
        <ele>1351.0</ele>
        <time>2018-09-15T12:19:14Z</time>
      </trkpt>
      <trkpt lat="40.250000" lon="-4.898733">
        <ele>1351.0</ele>
        <time>2018-09-15T12:19:15Z</time>
      </trkpt>
      <trkpt lat="40.249983" lon="-4.898650">
        <ele>1352.0</ele>
        <time>2018-09-15T12:19:16Z</time>
      </trkpt>
      <trkpt lat="40.249967" lon="-4.898600">
        <ele>1355.0</ele>
        <time>2018-09-15T12:19:17Z</time>
      </trkpt>
      <trkpt lat="40.249950" lon="-4.898550">
        <ele>1357.0</ele>
        <time>2018-09-15T12:19:18Z</time>
      </trkpt>
      <trkpt lat="40.249933" lon="-4.898517">
        <ele>1359.0</ele>
        <time>2018-09-15T12:19:19Z</time>
      </trkpt>
      <trkpt lat="40.249917" lon="-4.898450">
        <ele>1358.0</ele>
        <time>2018-09-15T12:19:20Z</time>
      </trkpt>
      <trkpt lat="40.249917" lon="-4.898400">
        <ele>1358.0</ele>
        <time>2018-09-15T12:19:21Z</time>
      </trkpt>
      <trkpt lat="40.249950" lon="-4.898350">
        <ele>1358.0</ele>
        <time>2018-09-15T12:19:22Z</time>
      </trkpt>
      <trkpt lat="40.250000" lon="-4.898333">
        <ele>1358.0</ele>
        <time>2018-09-15T12:19:23Z</time>
      </trkpt>
      <trkpt lat="40.250067" lon="-4.898333">
        <ele>1357.0</ele>
        <time>2018-09-15T12:19:24Z</time>
      </trkpt>
      <trkpt lat="40.250133" lon="-4.898367">
        <ele>1356.0</ele>
        <time>2018-09-15T12:19:25Z</time>
      </trkpt>
      <trkpt lat="40.250200" lon="-4.898433">
        <ele>1355.0</ele>
        <time>2018-09-15T12:19:26Z</time>
      </trkpt>
      <trkpt lat="40.250250" lon="-4.898550">
        <ele>1355.0</ele>
        <time>2018-09-15T12:19:27Z</time>
      </trkpt>
      <trkpt lat="40.250283" lon="-4.898683">
        <ele>1354.0</ele>
        <time>2018-09-15T12:19:28Z</time>
      </trkpt>
      <trkpt lat="40.250283" lon="-4.898833">
        <ele>1353.0</ele>
        <time>2018-09-15T12:19:29Z</time>
      </trkpt>
      <trkpt lat="40.250217" lon="-4.898967">
        <ele>1352.0</ele>
        <time>2018-09-15T12:19:30Z</time>
      </trkpt>
      <trkpt lat="40.250133" lon="-4.899067">
        <ele>1350.0</ele>
        <time>2018-09-15T12:19:31Z</time>
      </trkpt>
      <trkpt lat="40.250033" lon="-4.899117">
        <ele>1349.0</ele>
        <time>2018-09-15T12:19:32Z</time>
      </trkpt>
      <trkpt lat="40.249933" lon="-4.899100">
        <ele>1348.0</ele>
        <time>2018-09-15T12:19:33Z</time>
      </trkpt>
      <trkpt lat="40.249867" lon="-4.899067">
        <ele>1347.0</ele>
        <time>2018-09-15T12:19:34Z</time>
      </trkpt>
      <trkpt lat="40.249833" lon="-4.899017">
        <ele>1346.0</ele>
        <time>2018-09-15T12:19:35Z</time>
      </trkpt>
      <trkpt lat="40.249800" lon="-4.898950">
        <ele>1345.0</ele>
        <time>2018-09-15T12:19:36Z</time>
      </trkpt>
      <trkpt lat="40.249733" lon="-4.898900">
        <ele>1345.0</ele>
        <time>2018-09-15T12:19:37Z</time>
      </trkpt>
      <trkpt lat="40.249667" lon="-4.898850">
        <ele>1344.0</ele>
        <time>2018-09-15T12:19:38Z</time>
      </trkpt>
      <trkpt lat="40.249600" lon="-4.898817">
        <ele>1344.0</ele>
        <time>2018-09-15T12:19:39Z</time>
      </trkpt>
      <trkpt lat="40.249550" lon="-4.898767">
        <ele>1344.0</ele>
        <time>2018-09-15T12:19:40Z</time>
      </trkpt>
      <trkpt lat="40.249483" lon="-4.898717">
        <ele>1345.0</ele>
        <time>2018-09-15T12:19:41Z</time>
      </trkpt>
      <trkpt lat="40.249433" lon="-4.898667">
        <ele>1346.0</ele>
        <time>2018-09-15T12:19:42Z</time>
      </trkpt>
      <trkpt lat="40.249400" lon="-4.898600">
        <ele>1347.0</ele>
        <time>2018-09-15T12:19:43Z</time>
      </trkpt>
      <trkpt lat="40.249350" lon="-4.898533">
        <ele>1348.0</ele>
        <time>2018-09-15T12:19:44Z</time>
      </trkpt>
      <trkpt lat="40.249300" lon="-4.898467">
        <ele>1349.0</ele>
        <time>2018-09-15T12:19:45Z</time>
      </trkpt>
      <trkpt lat="40.249267" lon="-4.898417">
        <ele>1351.0</ele>
        <time>2018-09-15T12:19:46Z</time>
      </trkpt>
      <trkpt lat="40.249233" lon="-4.898367">
        <ele>1354.0</ele>
        <time>2018-09-15T12:19:47Z</time>
      </trkpt>
      <trkpt lat="40.249217" lon="-4.898317">
        <ele>1357.0</ele>
        <time>2018-09-15T12:19:48Z</time>
      </trkpt>
      <trkpt lat="40.249200" lon="-4.898267">
        <ele>1358.0</ele>
        <time>2018-09-15T12:19:49Z</time>
      </trkpt>
      <trkpt lat="40.249167" lon="-4.898217">
        <ele>1358.0</ele>
        <time>2018-09-15T12:19:50Z</time>
      </trkpt>
      <trkpt lat="40.249150" lon="-4.898150">
        <ele>1358.0</ele>
        <time>2018-09-15T12:19:51Z</time>
      </trkpt>
      <trkpt lat="40.249100" lon="-4.898083">
        <ele>1355.0</ele>
        <time>2018-09-15T12:19:52Z</time>
      </trkpt>
      <trkpt lat="40.249067" lon="-4.898000">
        <ele>1351.0</ele>
        <time>2018-09-15T12:19:53Z</time>
      </trkpt>
      <trkpt lat="40.249050" lon="-4.897933">
        <ele>1348.0</ele>
        <time>2018-09-15T12:19:54Z</time>
      </trkpt>
      <trkpt lat="40.249017" lon="-4.897867">
        <ele>1347.0</ele>
        <time>2018-09-15T12:19:55Z</time>
      </trkpt>
      <trkpt lat="40.248983" lon="-4.897817">
        <ele>1346.0</ele>
        <time>2018-09-15T12:19:56Z</time>
      </trkpt>
      <trkpt lat="40.248967" lon="-4.897767">
        <ele>1343.0</ele>
        <time>2018-09-15T12:19:57Z</time>
      </trkpt>
      <trkpt lat="40.249000" lon="-4.897717">
        <ele>1341.0</ele>
        <time>2018-09-15T12:19:58Z</time>
      </trkpt>
      <trkpt lat="40.249050" lon="-4.897683">
        <ele>1337.0</ele>
        <time>2018-09-15T12:19:59Z</time>
      </trkpt>
      <trkpt lat="40.249117" lon="-4.897683">
        <ele>1334.0</ele>
        <time>2018-09-15T12:20:00Z</time>
      </trkpt>
      <trkpt lat="40.249183" lon="-4.897733">
        <ele>1333.0</ele>
        <time>2018-09-15T12:20:01Z</time>
      </trkpt>
      <trkpt lat="40.249233" lon="-4.897833">
        <ele>1331.0</ele>
        <time>2018-09-15T12:20:02Z</time>
      </trkpt>
      <trkpt lat="40.249283" lon="-4.897950">
        <ele>1329.0</ele>
        <time>2018-09-15T12:20:03Z</time>
      </trkpt>
      <trkpt lat="40.249333" lon="-4.898083">
        <ele>1328.0</ele>
        <time>2018-09-15T12:20:04Z</time>
      </trkpt>
      <trkpt lat="40.249350" lon="-4.898233">
        <ele>1327.0</ele>
        <time>2018-09-15T12:20:05Z</time>
      </trkpt>
      <trkpt lat="40.249350" lon="-4.898383">
        <ele>1326.0</ele>
        <time>2018-09-15T12:20:06Z</time>
      </trkpt>
      <trkpt lat="40.249333" lon="-4.898533">
        <ele>1326.0</ele>
        <time>2018-09-15T12:20:07Z</time>
      </trkpt>
      <trkpt lat="40.249300" lon="-4.898700">
        <ele>1325.0</ele>
        <time>2018-09-15T12:20:08Z</time>
      </trkpt>
      <trkpt lat="40.249283" lon="-4.898883">
        <ele>1324.0</ele>
        <time>2018-09-15T12:20:09Z</time>
      </trkpt>
      <trkpt lat="40.249250" lon="-4.899033">
        <ele>1323.0</ele>
        <time>2018-09-15T12:20:10Z</time>
      </trkpt>
      <trkpt lat="40.249183" lon="-4.899200">
        <ele>1322.0</ele>
        <time>2018-09-15T12:20:11Z</time>
      </trkpt>
      <trkpt lat="40.249117" lon="-4.899333">
        <ele>1319.0</ele>
        <time>2018-09-15T12:20:12Z</time>
      </trkpt>
      <trkpt lat="40.249017" lon="-4.899467">
        <ele>1316.0</ele>
        <time>2018-09-15T12:20:13Z</time>
      </trkpt>
      <trkpt lat="40.248917" lon="-4.899550">
        <ele>1314.0</ele>
        <time>2018-09-15T12:20:14Z</time>
      </trkpt>
      <trkpt lat="40.248800" lon="-4.899600">
        <ele>1312.0</ele>
        <time>2018-09-15T12:20:15Z</time>
      </trkpt>
      <trkpt lat="40.248717" lon="-4.899600">
        <ele>1310.0</ele>
        <time>2018-09-15T12:20:16Z</time>
      </trkpt>
      <trkpt lat="40.248667" lon="-4.899567">
        <ele>1308.0</ele>
        <time>2018-09-15T12:20:17Z</time>
      </trkpt>
      <trkpt lat="40.248650" lon="-4.899533">
        <ele>1305.0</ele>
        <time>2018-09-15T12:20:18Z</time>
      </trkpt>
      <trkpt lat="40.248650" lon="-4.899500">
        <ele>1303.0</ele>
        <time>2018-09-15T12:20:19Z</time>
      </trkpt>
      <trkpt lat="40.248700" lon="-4.899467">
        <ele>1300.0</ele>
        <time>2018-09-15T12:20:20Z</time>
      </trkpt>
      <trkpt lat="40.248750" lon="-4.899467">
        <ele>1297.0</ele>
        <time>2018-09-15T12:20:21Z</time>
      </trkpt>
      <trkpt lat="40.248817" lon="-4.899467">
        <ele>1295.0</ele>
        <time>2018-09-15T12:20:22Z</time>
      </trkpt>
      <trkpt lat="40.248883" lon="-4.899450">
        <ele>1294.0</ele>
        <time>2018-09-15T12:20:23Z</time>
      </trkpt>
      <trkpt lat="40.248967" lon="-4.899433">
        <ele>1293.0</ele>
        <time>2018-09-15T12:20:24Z</time>
      </trkpt>
      <trkpt lat="40.249033" lon="-4.899400">
        <ele>1292.0</ele>
        <time>2018-09-15T12:20:25Z</time>
      </trkpt>
      <trkpt lat="40.249100" lon="-4.899383">
        <ele>1294.0</ele>
        <time>2018-09-15T12:20:26Z</time>
      </trkpt>
      <trkpt lat="40.249150" lon="-4.899367">
        <ele>1295.0</ele>
        <time>2018-09-15T12:20:27Z</time>
      </trkpt>
      <trkpt lat="40.249183" lon="-4.899367">
        <ele>1297.0</ele>
        <time>2018-09-15T12:20:28Z</time>
      </trkpt>
      <trkpt lat="40.249200" lon="-4.899367">
        <ele>1301.0</ele>
        <time>2018-09-15T12:20:29Z</time>
      </trkpt>
      <trkpt lat="40.249233" lon="-4.899367">
        <ele>1305.0</ele>
        <time>2018-09-15T12:20:30Z</time>
      </trkpt>
      <trkpt lat="40.249283" lon="-4.899367">
        <ele>1305.0</ele>
        <time>2018-09-15T12:20:31Z</time>
      </trkpt>
      <trkpt lat="40.249317" lon="-4.899350">
        <ele>1306.0</ele>
        <time>2018-09-15T12:20:32Z</time>
      </trkpt>
      <trkpt lat="40.249333" lon="-4.899300">
        <ele>1307.0</ele>
        <time>2018-09-15T12:20:33Z</time>
      </trkpt>
      <trkpt lat="40.249317" lon="-4.899233">
        <ele>1308.0</ele>
        <time>2018-09-15T12:20:34Z</time>
      </trkpt>
      <trkpt lat="40.249250" lon="-4.899183">
        <ele>1308.0</ele>
        <time>2018-09-15T12:20:35Z</time>
      </trkpt>
      <trkpt lat="40.249150" lon="-4.899200">
        <ele>1309.0</ele>
        <time>2018-09-15T12:20:36Z</time>
      </trkpt>
      <trkpt lat="40.249033" lon="-4.899250">
        <ele>1309.0</ele>
        <time>2018-09-15T12:20:37Z</time>
      </trkpt>
      <trkpt lat="40.248933" lon="-4.899350">
        <ele>1310.0</ele>
        <time>2018-09-15T12:20:38Z</time>
      </trkpt>
      <trkpt lat="40.248867" lon="-4.899517">
        <ele>1312.0</ele>
        <time>2018-09-15T12:20:39Z</time>
      </trkpt>
      <trkpt lat="40.248867" lon="-4.899683">
        <ele>1313.0</ele>
        <time>2018-09-15T12:20:40Z</time>
      </trkpt>
      <trkpt lat="40.248900" lon="-4.899817">
        <ele>1315.0</ele>
        <time>2018-09-15T12:20:41Z</time>
      </trkpt>
      <trkpt lat="40.248967" lon="-4.899900">
        <ele>1316.0</ele>
        <time>2018-09-15T12:20:42Z</time>
      </trkpt>
      <trkpt lat="40.249033" lon="-4.899967">
        <ele>1318.0</ele>
        <time>2018-09-15T12:20:43Z</time>
      </trkpt>
      <trkpt lat="40.249100" lon="-4.900017">
        <ele>1321.0</ele>
        <time>2018-09-15T12:20:44Z</time>
      </trkpt>
      <trkpt lat="40.249133" lon="-4.900050">
        <ele>1324.0</ele>
        <time>2018-09-15T12:20:45Z</time>
      </trkpt>
      <trkpt lat="40.249183" lon="-4.900100">
        <ele>1327.0</ele>
        <time>2018-09-15T12:20:46Z</time>
      </trkpt>
      <trkpt lat="40.249217" lon="-4.900133">
        <ele>1329.0</ele>
        <time>2018-09-15T12:20:47Z</time>
      </trkpt>
      <trkpt lat="40.249267" lon="-4.900117">
        <ele>1330.0</ele>
        <time>2018-09-15T12:20:48Z</time>
      </trkpt>
      <trkpt lat="40.249283" lon="-4.900083">
        <ele>1332.0</ele>
        <time>2018-09-15T12:20:49Z</time>
      </trkpt>
      <trkpt lat="40.249283" lon="-4.900033">
        <ele>1332.0</ele>
        <time>2018-09-15T12:20:50Z</time>
      </trkpt>
      <trkpt lat="40.249267" lon="-4.899967">
        <ele>1334.0</ele>
        <time>2018-09-15T12:20:51Z</time>
      </trkpt>
      <trkpt lat="40.249200" lon="-4.899900">
        <ele>1334.0</ele>
        <time>2018-09-15T12:20:52Z</time>
      </trkpt>
      <trkpt lat="40.249100" lon="-4.899883">
        <ele>1335.0</ele>
        <time>2018-09-15T12:20:53Z</time>
      </trkpt>
      <trkpt lat="40.249000" lon="-4.899900">
        <ele>1337.0</ele>
        <time>2018-09-15T12:20:54Z</time>
      </trkpt>
      <trkpt lat="40.248933" lon="-4.899917">
        <ele>1340.0</ele>
        <time>2018-09-15T12:20:55Z</time>
      </trkpt>
      <trkpt lat="40.248883" lon="-4.899917">
        <ele>1342.0</ele>
        <time>2018-09-15T12:20:56Z</time>
      </trkpt>
      <trkpt lat="40.248833" lon="-4.899867">
        <ele>1340.0</ele>
        <time>2018-09-15T12:20:57Z</time>
      </trkpt>
      <trkpt lat="40.248783" lon="-4.899817">
        <ele>1334.0</ele>
        <time>2018-09-15T12:20:58Z</time>
      </trkpt>
      <trkpt lat="40.248750" lon="-4.899750">
        <ele>1331.0</ele>
        <time>2018-09-15T12:20:59Z</time>
      </trkpt>
      <trkpt lat="40.248750" lon="-4.899683">
        <ele>1329.0</ele>
        <time>2018-09-15T12:21:00Z</time>
      </trkpt>
      <trkpt lat="40.248783" lon="-4.899633">
        <ele>1328.0</ele>
        <time>2018-09-15T12:21:01Z</time>
      </trkpt>
      <trkpt lat="40.248850" lon="-4.899600">
        <ele>1326.0</ele>
        <time>2018-09-15T12:21:02Z</time>
      </trkpt>
      <trkpt lat="40.248917" lon="-4.899583">
        <ele>1326.0</ele>
        <time>2018-09-15T12:21:03Z</time>
      </trkpt>
      <trkpt lat="40.248983" lon="-4.899600">
        <ele>1326.0</ele>
        <time>2018-09-15T12:21:04Z</time>
      </trkpt>
      <trkpt lat="40.249067" lon="-4.899600">
        <ele>1326.0</ele>
        <time>2018-09-15T12:21:05Z</time>
      </trkpt>
      <trkpt lat="40.249117" lon="-4.899633">
        <ele>1327.0</ele>
        <time>2018-09-15T12:21:06Z</time>
      </trkpt>
      <trkpt lat="40.249183" lon="-4.899633">
        <ele>1327.0</ele>
        <time>2018-09-15T12:21:07Z</time>
      </trkpt>
      <trkpt lat="40.249250" lon="-4.899650">
        <ele>1328.0</ele>
        <time>2018-09-15T12:21:08Z</time>
      </trkpt>
      <trkpt lat="40.249317" lon="-4.899650">
        <ele>1328.0</ele>
        <time>2018-09-15T12:21:09Z</time>
      </trkpt>
      <trkpt lat="40.249383" lon="-4.899633">
        <ele>1328.0</ele>
        <time>2018-09-15T12:21:10Z</time>
      </trkpt>
      <trkpt lat="40.249467" lon="-4.899633">
        <ele>1328.0</ele>
        <time>2018-09-15T12:21:11Z</time>
      </trkpt>
      <trkpt lat="40.249533" lon="-4.899633">
        <ele>1331.0</ele>
        <time>2018-09-15T12:21:12Z</time>
      </trkpt>
      <trkpt lat="40.249583" lon="-4.899633">
        <ele>1333.0</ele>
        <time>2018-09-15T12:21:13Z</time>
      </trkpt>
      <trkpt lat="40.249650" lon="-4.899633">
        <ele>1334.0</ele>
        <time>2018-09-15T12:21:14Z</time>
      </trkpt>
      <trkpt lat="40.249700" lon="-4.899617">
        <ele>1335.0</ele>
        <time>2018-09-15T12:21:15Z</time>
      </trkpt>
      <trkpt lat="40.249750" lon="-4.899583">
        <ele>1335.0</ele>
        <time>2018-09-15T12:21:16Z</time>
      </trkpt>
      <trkpt lat="40.249767" lon="-4.899517">
        <ele>1335.0</ele>
        <time>2018-09-15T12:21:17Z</time>
      </trkpt>
      <trkpt lat="40.249750" lon="-4.899450">
        <ele>1336.0</ele>
        <time>2018-09-15T12:21:18Z</time>
      </trkpt>
      <trkpt lat="40.249700" lon="-4.899417">
        <ele>1337.0</ele>
        <time>2018-09-15T12:21:19Z</time>
      </trkpt>
      <trkpt lat="40.249600" lon="-4.899400">
        <ele>1337.0</ele>
        <time>2018-09-15T12:21:20Z</time>
      </trkpt>
      <trkpt lat="40.249500" lon="-4.899450">
        <ele>1337.0</ele>
        <time>2018-09-15T12:21:21Z</time>
      </trkpt>
      <trkpt lat="40.249400" lon="-4.899517">
        <ele>1337.0</ele>
        <time>2018-09-15T12:21:22Z</time>
      </trkpt>
      <trkpt lat="40.249317" lon="-4.899633">
        <ele>1337.0</ele>
        <time>2018-09-15T12:21:23Z</time>
      </trkpt>
      <trkpt lat="40.249283" lon="-4.899767">
        <ele>1338.0</ele>
        <time>2018-09-15T12:21:24Z</time>
      </trkpt>
      <trkpt lat="40.249267" lon="-4.899917">
        <ele>1339.0</ele>
        <time>2018-09-15T12:21:25Z</time>
      </trkpt>
      <trkpt lat="40.249283" lon="-4.900067">
        <ele>1339.0</ele>
        <time>2018-09-15T12:21:26Z</time>
      </trkpt>
      <trkpt lat="40.249317" lon="-4.900200">
        <ele>1338.0</ele>
        <time>2018-09-15T12:21:27Z</time>
      </trkpt>
      <trkpt lat="40.249400" lon="-4.900283">
        <ele>1338.0</ele>
        <time>2018-09-15T12:21:28Z</time>
      </trkpt>
      <trkpt lat="40.249450" lon="-4.900283">
        <ele>1338.0</ele>
        <time>2018-09-15T12:21:29Z</time>
      </trkpt>
      <trkpt lat="40.249483" lon="-4.900250">
        <ele>1337.0</ele>
        <time>2018-09-15T12:21:30Z</time>
      </trkpt>
      <trkpt lat="40.249500" lon="-4.900200">
        <ele>1336.0</ele>
        <time>2018-09-15T12:21:31Z</time>
      </trkpt>
      <trkpt lat="40.249500" lon="-4.900150">
        <ele>1336.0</ele>
        <time>2018-09-15T12:21:32Z</time>
      </trkpt>
      <trkpt lat="40.249483" lon="-4.900117">
        <ele>1337.0</ele>
        <time>2018-09-15T12:21:33Z</time>
      </trkpt>
      <trkpt lat="40.249483" lon="-4.900100">
        <ele>1339.0</ele>
        <time>2018-09-15T12:21:34Z</time>
      </trkpt>
      <trkpt lat="40.249483" lon="-4.900067">
        <ele>1340.0</ele>
        <time>2018-09-15T12:21:35Z</time>
      </trkpt>
      <trkpt lat="40.249483" lon="-4.900017">
        <ele>1340.0</ele>
        <time>2018-09-15T12:21:36Z</time>
      </trkpt>
      <trkpt lat="40.249483" lon="-4.899950">
        <ele>1339.0</ele>
        <time>2018-09-15T12:21:37Z</time>
      </trkpt>
      <trkpt lat="40.249483" lon="-4.899883">
        <ele>1339.0</ele>
        <time>2018-09-15T12:21:38Z</time>
      </trkpt>
      <trkpt lat="40.249483" lon="-4.899850">
        <ele>1341.0</ele>
        <time>2018-09-15T12:21:39Z</time>
      </trkpt>
      <trkpt lat="40.249500" lon="-4.899833">
        <ele>1343.0</ele>
        <time>2018-09-15T12:21:40Z</time>
      </trkpt>
      <trkpt lat="40.249500" lon="-4.899817">
        <ele>1344.0</ele>
        <time>2018-09-15T12:21:41Z</time>
      </trkpt>
      <trkpt lat="40.249483" lon="-4.899783">
        <ele>1343.0</ele>
        <time>2018-09-15T12:21:42Z</time>
      </trkpt>
      <trkpt lat="40.249483" lon="-4.899717">
        <ele>1343.0</ele>
        <time>2018-09-15T12:21:43Z</time>
      </trkpt>
      <trkpt lat="40.249450" lon="-4.899650">
        <ele>1343.0</ele>
        <time>2018-09-15T12:21:44Z</time>
      </trkpt>
      <trkpt lat="40.249400" lon="-4.899617">
        <ele>1344.0</ele>
        <time>2018-09-15T12:21:45Z</time>
      </trkpt>
      <trkpt lat="40.249300" lon="-4.899617">
        <ele>1343.0</ele>
        <time>2018-09-15T12:21:46Z</time>
      </trkpt>
      <trkpt lat="40.249217" lon="-4.899617">
        <ele>1343.0</ele>
        <time>2018-09-15T12:21:47Z</time>
      </trkpt>
      <trkpt lat="40.249133" lon="-4.899617">
        <ele>1343.0</ele>
        <time>2018-09-15T12:21:48Z</time>
      </trkpt>
      <trkpt lat="40.249033" lon="-4.899600">
        <ele>1344.0</ele>
        <time>2018-09-15T12:21:49Z</time>
      </trkpt>
      <trkpt lat="40.248933" lon="-4.899583">
        <ele>1344.0</ele>
        <time>2018-09-15T12:21:50Z</time>
      </trkpt>
      <trkpt lat="40.248817" lon="-4.899583">
        <ele>1344.0</ele>
        <time>2018-09-15T12:21:51Z</time>
      </trkpt>
      <trkpt lat="40.248700" lon="-4.899633">
        <ele>1344.0</ele>
        <time>2018-09-15T12:21:52Z</time>
      </trkpt>
      <trkpt lat="40.248600" lon="-4.899733">
        <ele>1345.0</ele>
        <time>2018-09-15T12:21:53Z</time>
      </trkpt>
      <trkpt lat="40.248550" lon="-4.899883">
        <ele>1345.0</ele>
        <time>2018-09-15T12:21:54Z</time>
      </trkpt>
      <trkpt lat="40.248533" lon="-4.900067">
        <ele>1345.0</ele>
        <time>2018-09-15T12:21:55Z</time>
      </trkpt>
      <trkpt lat="40.248550" lon="-4.900217">
        <ele>1345.0</ele>
        <time>2018-09-15T12:21:56Z</time>
      </trkpt>
      <trkpt lat="40.248617" lon="-4.900283">
        <ele>1344.0</ele>
        <time>2018-09-15T12:21:57Z</time>
      </trkpt>
      <trkpt lat="40.248700" lon="-4.900283">
        <ele>1343.0</ele>
        <time>2018-09-15T12:21:58Z</time>
      </trkpt>
      <trkpt lat="40.248767" lon="-4.900233">
        <ele>1341.0</ele>
        <time>2018-09-15T12:21:59Z</time>
      </trkpt>
      <trkpt lat="40.248850" lon="-4.900217">
        <ele>1342.0</ele>
        <time>2018-09-15T12:22:00Z</time>
      </trkpt>
      <trkpt lat="40.248917" lon="-4.900233">
        <ele>1343.0</ele>
        <time>2018-09-15T12:22:01Z</time>
      </trkpt>
      <trkpt lat="40.248967" lon="-4.900283">
        <ele>1346.0</ele>
        <time>2018-09-15T12:22:02Z</time>
      </trkpt>
      <trkpt lat="40.249017" lon="-4.900317">
        <ele>1348.0</ele>
        <time>2018-09-15T12:22:03Z</time>
      </trkpt>
      <trkpt lat="40.249067" lon="-4.900350">
        <ele>1351.0</ele>
        <time>2018-09-15T12:22:04Z</time>
      </trkpt>
      <trkpt lat="40.249117" lon="-4.900367">
        <ele>1349.0</ele>
        <time>2018-09-15T12:22:05Z</time>
      </trkpt>
      <trkpt lat="40.249183" lon="-4.900367">
        <ele>1349.0</ele>
        <time>2018-09-15T12:22:06Z</time>
      </trkpt>
      <trkpt lat="40.249233" lon="-4.900317">
        <ele>1349.0</ele>
        <time>2018-09-15T12:22:07Z</time>
      </trkpt>
      <trkpt lat="40.249283" lon="-4.900283">
        <ele>1350.0</ele>
        <time>2018-09-15T12:22:08Z</time>
      </trkpt>
      <trkpt lat="40.249333" lon="-4.900250">
        <ele>1350.0</ele>
        <time>2018-09-15T12:22:09Z</time>
      </trkpt>
      <trkpt lat="40.249400" lon="-4.900217">
        <ele>1350.0</ele>
        <time>2018-09-15T12:22:10Z</time>
      </trkpt>
      <trkpt lat="40.249467" lon="-4.900217">
        <ele>1349.0</ele>
        <time>2018-09-15T12:22:11Z</time>
      </trkpt>
      <trkpt lat="40.249550" lon="-4.900200">
        <ele>1348.0</ele>
        <time>2018-09-15T12:22:12Z</time>
      </trkpt>
      <trkpt lat="40.249617" lon="-4.900200">
        <ele>1347.0</ele>
        <time>2018-09-15T12:22:13Z</time>
      </trkpt>
      <trkpt lat="40.249683" lon="-4.900183">
        <ele>1346.0</ele>
        <time>2018-09-15T12:22:14Z</time>
      </trkpt>
      <trkpt lat="40.249750" lon="-4.900167">
        <ele>1346.0</ele>
        <time>2018-09-15T12:22:15Z</time>
      </trkpt>
      <trkpt lat="40.249817" lon="-4.900150">
        <ele>1344.0</ele>
        <time>2018-09-15T12:22:16Z</time>
      </trkpt>
      <trkpt lat="40.249867" lon="-4.900133">
        <ele>1346.0</ele>
        <time>2018-09-15T12:22:17Z</time>
      </trkpt>
      <trkpt lat="40.249933" lon="-4.900133">
        <ele>1346.0</ele>
        <time>2018-09-15T12:22:18Z</time>
      </trkpt>
      <trkpt lat="40.250017" lon="-4.900117">
        <ele>1345.0</ele>
        <time>2018-09-15T12:22:19Z</time>
      </trkpt>
      <trkpt lat="40.250067" lon="-4.900100">
        <ele>1345.0</ele>
        <time>2018-09-15T12:22:20Z</time>
      </trkpt>
      <trkpt lat="40.250133" lon="-4.900083">
        <ele>1345.0</ele>
        <time>2018-09-15T12:22:21Z</time>
      </trkpt>
      <trkpt lat="40.250200" lon="-4.900067">
        <ele>1344.0</ele>
        <time>2018-09-15T12:22:22Z</time>
      </trkpt>
      <trkpt lat="40.250267" lon="-4.900067">
        <ele>1344.0</ele>
        <time>2018-09-15T12:22:23Z</time>
      </trkpt>
      <trkpt lat="40.250333" lon="-4.900050">
        <ele>1344.0</ele>
        <time>2018-09-15T12:22:24Z</time>
      </trkpt>
      <trkpt lat="40.250400" lon="-4.900033">
        <ele>1343.0</ele>
        <time>2018-09-15T12:22:25Z</time>
      </trkpt>
      <trkpt lat="40.250467" lon="-4.900017">
        <ele>1342.0</ele>
        <time>2018-09-15T12:22:26Z</time>
      </trkpt>
      <trkpt lat="40.250533" lon="-4.900000">
        <ele>1342.0</ele>
        <time>2018-09-15T12:22:27Z</time>
      </trkpt>
      <trkpt lat="40.250600" lon="-4.899983">
        <ele>1341.0</ele>
        <time>2018-09-15T12:22:28Z</time>
      </trkpt>
      <trkpt lat="40.250650" lon="-4.899967">
        <ele>1340.0</ele>
        <time>2018-09-15T12:22:29Z</time>
      </trkpt>
      <trkpt lat="40.250717" lon="-4.899950">
        <ele>1340.0</ele>
        <time>2018-09-15T12:22:30Z</time>
      </trkpt>
      <trkpt lat="40.250783" lon="-4.899917">
        <ele>1339.0</ele>
        <time>2018-09-15T12:22:31Z</time>
      </trkpt>
      <trkpt lat="40.250850" lon="-4.899883">
        <ele>1337.0</ele>
        <time>2018-09-15T12:22:32Z</time>
      </trkpt>
      <trkpt lat="40.250933" lon="-4.899850">
        <ele>1335.0</ele>
        <time>2018-09-15T12:22:33Z</time>
      </trkpt>
      <trkpt lat="40.251000" lon="-4.899817">
        <ele>1333.0</ele>
        <time>2018-09-15T12:22:34Z</time>
      </trkpt>
      <trkpt lat="40.251100" lon="-4.899800">
        <ele>1331.0</ele>
        <time>2018-09-15T12:22:35Z</time>
      </trkpt>
      <trkpt lat="40.251183" lon="-4.899800">
        <ele>1330.0</ele>
        <time>2018-09-15T12:22:36Z</time>
      </trkpt>
      <trkpt lat="40.251250" lon="-4.899783">
        <ele>1332.0</ele>
        <time>2018-09-15T12:22:37Z</time>
      </trkpt>
      <trkpt lat="40.251300" lon="-4.899783">
        <ele>1334.0</ele>
        <time>2018-09-15T12:22:38Z</time>
      </trkpt>
      <trkpt lat="40.251367" lon="-4.899783">
        <ele>1336.0</ele>
        <time>2018-09-15T12:22:39Z</time>
      </trkpt>
      <trkpt lat="40.251417" lon="-4.899783">
        <ele>1334.0</ele>
        <time>2018-09-15T12:22:40Z</time>
      </trkpt>
      <trkpt lat="40.251467" lon="-4.899767">
        <ele>1333.0</ele>
        <time>2018-09-15T12:22:41Z</time>
      </trkpt>
      <trkpt lat="40.251500" lon="-4.899750">
        <ele>1332.0</ele>
        <time>2018-09-15T12:22:42Z</time>
      </trkpt>
      <trkpt lat="40.251533" lon="-4.899717">
        <ele>1331.0</ele>
        <time>2018-09-15T12:22:43Z</time>
      </trkpt>
      <trkpt lat="40.251550" lon="-4.899667">
        <ele>1331.0</ele>
        <time>2018-09-15T12:22:44Z</time>
      </trkpt>
      <trkpt lat="40.251533" lon="-4.899600">
        <ele>1330.0</ele>
        <time>2018-09-15T12:22:45Z</time>
      </trkpt>
      <trkpt lat="40.251467" lon="-4.899533">
        <ele>1330.0</ele>
        <time>2018-09-15T12:22:46Z</time>
      </trkpt>
      <trkpt lat="40.251383" lon="-4.899500">
        <ele>1329.0</ele>
        <time>2018-09-15T12:22:47Z</time>
      </trkpt>
      <trkpt lat="40.251283" lon="-4.899550">
        <ele>1329.0</ele>
        <time>2018-09-15T12:22:48Z</time>
      </trkpt>
      <trkpt lat="40.251217" lon="-4.899667">
        <ele>1329.0</ele>
        <time>2018-09-15T12:22:49Z</time>
      </trkpt>
      <trkpt lat="40.251183" lon="-4.899850">
        <ele>1327.0</ele>
        <time>2018-09-15T12:22:50Z</time>
      </trkpt>
      <trkpt lat="40.251217" lon="-4.900017">
        <ele>1323.0</ele>
        <time>2018-09-15T12:22:51Z</time>
      </trkpt>
      <trkpt lat="40.251300" lon="-4.900150">
        <ele>1321.0</ele>
        <time>2018-09-15T12:22:52Z</time>
      </trkpt>
      <trkpt lat="40.251383" lon="-4.900233">
        <ele>1323.0</ele>
        <time>2018-09-15T12:22:53Z</time>
      </trkpt>
      <trkpt lat="40.251467" lon="-4.900317">
        <ele>1326.0</ele>
        <time>2018-09-15T12:22:54Z</time>
      </trkpt>
      <trkpt lat="40.251533" lon="-4.900383">
        <ele>1328.0</ele>
        <time>2018-09-15T12:22:55Z</time>
      </trkpt>
      <trkpt lat="40.251600" lon="-4.900483">
        <ele>1330.0</ele>
        <time>2018-09-15T12:22:56Z</time>
      </trkpt>
      <trkpt lat="40.251650" lon="-4.900567">
        <ele>1332.0</ele>
        <time>2018-09-15T12:22:57Z</time>
      </trkpt>
      <trkpt lat="40.251750" lon="-4.900633">
        <ele>1333.0</ele>
        <time>2018-09-15T12:22:58Z</time>
      </trkpt>
      <trkpt lat="40.251833" lon="-4.900650">
        <ele>1334.0</ele>
        <time>2018-09-15T12:22:59Z</time>
      </trkpt>
      <trkpt lat="40.251917" lon="-4.900650">
        <ele>1335.0</ele>
        <time>2018-09-15T12:23:00Z</time>
      </trkpt>
      <trkpt lat="40.251967" lon="-4.900583">
        <ele>1336.0</ele>
        <time>2018-09-15T12:23:01Z</time>
      </trkpt>
      <trkpt lat="40.251983" lon="-4.900500">
        <ele>1337.0</ele>
        <time>2018-09-15T12:23:02Z</time>
      </trkpt>
      <trkpt lat="40.251933" lon="-4.900433">
        <ele>1338.0</ele>
        <time>2018-09-15T12:23:03Z</time>
      </trkpt>
      <trkpt lat="40.251850" lon="-4.900400">
        <ele>1335.0</ele>
        <time>2018-09-15T12:23:04Z</time>
      </trkpt>
      <trkpt lat="40.251750" lon="-4.900400">
        <ele>1335.0</ele>
        <time>2018-09-15T12:23:05Z</time>
      </trkpt>
      <trkpt lat="40.251650" lon="-4.900433">
        <ele>1336.0</ele>
        <time>2018-09-15T12:23:06Z</time>
      </trkpt>
      <trkpt lat="40.251600" lon="-4.900550">
        <ele>1338.0</ele>
        <time>2018-09-15T12:23:07Z</time>
      </trkpt>
      <trkpt lat="40.251583" lon="-4.900700">
        <ele>1341.0</ele>
        <time>2018-09-15T12:23:08Z</time>
      </trkpt>
      <trkpt lat="40.251633" lon="-4.900833">
        <ele>1343.0</ele>
        <time>2018-09-15T12:23:09Z</time>
      </trkpt>
      <trkpt lat="40.251717" lon="-4.900933">
        <ele>1344.0</ele>
        <time>2018-09-15T12:23:10Z</time>
      </trkpt>
      <trkpt lat="40.251817" lon="-4.900967">
        <ele>1345.0</ele>
        <time>2018-09-15T12:23:11Z</time>
      </trkpt>
      <trkpt lat="40.251883" lon="-4.900933">
        <ele>1347.0</ele>
        <time>2018-09-15T12:23:12Z</time>
      </trkpt>
      <trkpt lat="40.251917" lon="-4.900867">
        <ele>1349.0</ele>
        <time>2018-09-15T12:23:13Z</time>
      </trkpt>
      <trkpt lat="40.251917" lon="-4.900800">
        <ele>1351.0</ele>
        <time>2018-09-15T12:23:14Z</time>
      </trkpt>
      <trkpt lat="40.251867" lon="-4.900767">
        <ele>1353.0</ele>
        <time>2018-09-15T12:23:15Z</time>
      </trkpt>
      <trkpt lat="40.251783" lon="-4.900767">
        <ele>1355.0</ele>
        <time>2018-09-15T12:23:16Z</time>
      </trkpt>
      <trkpt lat="40.251700" lon="-4.900817">
        <ele>1355.0</ele>
        <time>2018-09-15T12:23:17Z</time>
      </trkpt>
      <trkpt lat="40.251617" lon="-4.900900">
        <ele>1357.0</ele>
        <time>2018-09-15T12:23:18Z</time>
      </trkpt>
      <trkpt lat="40.251583" lon="-4.901033">
        <ele>1360.0</ele>
        <time>2018-09-15T12:23:19Z</time>
      </trkpt>
      <trkpt lat="40.251600" lon="-4.901183">
        <ele>1362.0</ele>
        <time>2018-09-15T12:23:20Z</time>
      </trkpt>
      <trkpt lat="40.251683" lon="-4.901300">
        <ele>1362.0</ele>
        <time>2018-09-15T12:23:21Z</time>
      </trkpt>
      <trkpt lat="40.251800" lon="-4.901367">
        <ele>1363.0</ele>
        <time>2018-09-15T12:23:22Z</time>
      </trkpt>
      <trkpt lat="40.251883" lon="-4.901383">
        <ele>1365.0</ele>
        <time>2018-09-15T12:23:23Z</time>
      </trkpt>
      <trkpt lat="40.251967" lon="-4.901383">
        <ele>1369.0</ele>
        <time>2018-09-15T12:23:24Z</time>
      </trkpt>
      <trkpt lat="40.252017" lon="-4.901383">
        <ele>1373.0</ele>
        <time>2018-09-15T12:23:25Z</time>
      </trkpt>
      <trkpt lat="40.252083" lon="-4.901367">
        <ele>1376.0</ele>
        <time>2018-09-15T12:23:26Z</time>
      </trkpt>
      <trkpt lat="40.252117" lon="-4.901333">
        <ele>1377.0</ele>
        <time>2018-09-15T12:23:27Z</time>
      </trkpt>
      <trkpt lat="40.252150" lon="-4.901267">
        <ele>1378.0</ele>
        <time>2018-09-15T12:23:28Z</time>
      </trkpt>
      <trkpt lat="40.252150" lon="-4.901183">
        <ele>1377.0</ele>
        <time>2018-09-15T12:23:29Z</time>
      </trkpt>
      <trkpt lat="40.252117" lon="-4.901100">
        <ele>1376.0</ele>
        <time>2018-09-15T12:23:30Z</time>
      </trkpt>
      <trkpt lat="40.252033" lon="-4.901050">
        <ele>1375.0</ele>
        <time>2018-09-15T12:23:31Z</time>
      </trkpt>
      <trkpt lat="40.251933" lon="-4.901083">
        <ele>1374.0</ele>
        <time>2018-09-15T12:23:32Z</time>
      </trkpt>
      <trkpt lat="40.251817" lon="-4.901150">
        <ele>1372.0</ele>
        <time>2018-09-15T12:23:33Z</time>
      </trkpt>
      <trkpt lat="40.251733" lon="-4.901183">
        <ele>1371.0</ele>
        <time>2018-09-15T12:23:34Z</time>
      </trkpt>
      <trkpt lat="40.251650" lon="-4.901183">
        <ele>1369.0</ele>
        <time>2018-09-15T12:23:35Z</time>
      </trkpt>
      <trkpt lat="40.251583" lon="-4.901167">
        <ele>1367.0</ele>
        <time>2018-09-15T12:23:36Z</time>
      </trkpt>
      <trkpt lat="40.251517" lon="-4.901133">
        <ele>1366.0</ele>
        <time>2018-09-15T12:23:37Z</time>
      </trkpt>
      <trkpt lat="40.251450" lon="-4.901083">
        <ele>1366.0</ele>
        <time>2018-09-15T12:23:38Z</time>
      </trkpt>
      <trkpt lat="40.251417" lon="-4.901033">
        <ele>1365.0</ele>
        <time>2018-09-15T12:23:39Z</time>
      </trkpt>
      <trkpt lat="40.251400" lon="-4.900983">
        <ele>1364.0</ele>
        <time>2018-09-15T12:23:40Z</time>
      </trkpt>
      <trkpt lat="40.251417" lon="-4.900917">
        <ele>1362.0</ele>
        <time>2018-09-15T12:23:41Z</time>
      </trkpt>
      <trkpt lat="40.251450" lon="-4.900867">
        <ele>1361.0</ele>
        <time>2018-09-15T12:23:42Z</time>
      </trkpt>
      <trkpt lat="40.251483" lon="-4.900833">
        <ele>1360.0</ele>
        <time>2018-09-15T12:23:43Z</time>
      </trkpt>
      <trkpt lat="40.251550" lon="-4.900833">
        <ele>1358.0</ele>
        <time>2018-09-15T12:23:44Z</time>
      </trkpt>
      <trkpt lat="40.251617" lon="-4.900850">
        <ele>1357.0</ele>
        <time>2018-09-15T12:23:45Z</time>
      </trkpt>
      <trkpt lat="40.251683" lon="-4.900900">
        <ele>1354.0</ele>
        <time>2018-09-15T12:23:46Z</time>
      </trkpt>
      <trkpt lat="40.251750" lon="-4.900950">
        <ele>1352.0</ele>
        <time>2018-09-15T12:23:47Z</time>
      </trkpt>
      <trkpt lat="40.251833" lon="-4.901000">
        <ele>1350.0</ele>
        <time>2018-09-15T12:23:48Z</time>
      </trkpt>
      <trkpt lat="40.251917" lon="-4.901050">
        <ele>1349.0</ele>
        <time>2018-09-15T12:23:49Z</time>
      </trkpt>
      <trkpt lat="40.251983" lon="-4.901083">
        <ele>1347.0</ele>
        <time>2018-09-15T12:23:50Z</time>
      </trkpt>
      <trkpt lat="40.252067" lon="-4.901100">
        <ele>1345.0</ele>
        <time>2018-09-15T12:23:51Z</time>
      </trkpt>
      <trkpt lat="40.252150" lon="-4.901133">
        <ele>1344.0</ele>
        <time>2018-09-15T12:23:52Z</time>
      </trkpt>
      <trkpt lat="40.252217" lon="-4.901167">
        <ele>1343.0</ele>
        <time>2018-09-15T12:23:53Z</time>
      </trkpt>
      <trkpt lat="40.252283" lon="-4.901217">
        <ele>1342.0</ele>
        <time>2018-09-15T12:23:54Z</time>
      </trkpt>
      <trkpt lat="40.252350" lon="-4.901250">
        <ele>1341.0</ele>
        <time>2018-09-15T12:23:55Z</time>
      </trkpt>
      <trkpt lat="40.252417" lon="-4.901283">
        <ele>1339.0</ele>
        <time>2018-09-15T12:23:56Z</time>
      </trkpt>
      <trkpt lat="40.252483" lon="-4.901317">
        <ele>1337.0</ele>
        <time>2018-09-15T12:23:57Z</time>
      </trkpt>
      <trkpt lat="40.252550" lon="-4.901350">
        <ele>1334.0</ele>
        <time>2018-09-15T12:23:58Z</time>
      </trkpt>
      <trkpt lat="40.252650" lon="-4.901383">
        <ele>1331.0</ele>
        <time>2018-09-15T12:23:59Z</time>
      </trkpt>
      <trkpt lat="40.252767" lon="-4.901417">
        <ele>1329.0</ele>
        <time>2018-09-15T12:24:00Z</time>
      </trkpt>
      <trkpt lat="40.252867" lon="-4.901450">
        <ele>1328.0</ele>
        <time>2018-09-15T12:24:01Z</time>
      </trkpt>
      <trkpt lat="40.252933" lon="-4.901467">
        <ele>1331.0</ele>
        <time>2018-09-15T12:24:02Z</time>
      </trkpt>
      <trkpt lat="40.253000" lon="-4.901483">
        <ele>1337.0</ele>
        <time>2018-09-15T12:24:03Z</time>
      </trkpt>
      <trkpt lat="40.253050" lon="-4.901483">
        <ele>1340.0</ele>
        <time>2018-09-15T12:24:04Z</time>
      </trkpt>
      <trkpt lat="40.253117" lon="-4.901500">
        <ele>1342.0</ele>
        <time>2018-09-15T12:24:05Z</time>
      </trkpt>
      <trkpt lat="40.253183" lon="-4.901483">
        <ele>1341.0</ele>
        <time>2018-09-15T12:24:06Z</time>
      </trkpt>
      <trkpt lat="40.253233" lon="-4.901417">
        <ele>1340.0</ele>
        <time>2018-09-15T12:24:07Z</time>
      </trkpt>
      <trkpt lat="40.253267" lon="-4.901333">
        <ele>1339.0</ele>
        <time>2018-09-15T12:24:08Z</time>
      </trkpt>
      <trkpt lat="40.253233" lon="-4.901217">
        <ele>1337.0</ele>
        <time>2018-09-15T12:24:09Z</time>
      </trkpt>
      <trkpt lat="40.253150" lon="-4.901133">
        <ele>1335.0</ele>
        <time>2018-09-15T12:24:10Z</time>
      </trkpt>
      <trkpt lat="40.253050" lon="-4.901117">
        <ele>1333.0</ele>
        <time>2018-09-15T12:24:11Z</time>
      </trkpt>
      <trkpt lat="40.252967" lon="-4.901133">
        <ele>1332.0</ele>
        <time>2018-09-15T12:24:12Z</time>
      </trkpt>
      <trkpt lat="40.252900" lon="-4.901133">
        <ele>1332.0</ele>
        <time>2018-09-15T12:24:13Z</time>
      </trkpt>
      <trkpt lat="40.252867" lon="-4.901117">
        <ele>1330.0</ele>
        <time>2018-09-15T12:24:14Z</time>
      </trkpt>
      <trkpt lat="40.252833" lon="-4.901067">
        <ele>1327.0</ele>
        <time>2018-09-15T12:24:15Z</time>
      </trkpt>
      <trkpt lat="40.252833" lon="-4.900983">
        <ele>1322.0</ele>
        <time>2018-09-15T12:24:16Z</time>
      </trkpt>
      <trkpt lat="40.252867" lon="-4.900917">
        <ele>1318.0</ele>
        <time>2018-09-15T12:24:17Z</time>
      </trkpt>
      <trkpt lat="40.252933" lon="-4.900900">
        <ele>1315.0</ele>
        <time>2018-09-15T12:24:18Z</time>
      </trkpt>
      <trkpt lat="40.253033" lon="-4.900917">
        <ele>1311.0</ele>
        <time>2018-09-15T12:24:19Z</time>
      </trkpt>
      <trkpt lat="40.253117" lon="-4.900983">
        <ele>1309.0</ele>
        <time>2018-09-15T12:24:20Z</time>
      </trkpt>
      <trkpt lat="40.253183" lon="-4.901067">
        <ele>1308.0</ele>
        <time>2018-09-15T12:24:21Z</time>
      </trkpt>
      <trkpt lat="40.253250" lon="-4.901133">
        <ele>1307.0</ele>
        <time>2018-09-15T12:24:22Z</time>
      </trkpt>
      <trkpt lat="40.253317" lon="-4.901183">
        <ele>1305.0</ele>
        <time>2018-09-15T12:24:23Z</time>
      </trkpt>
      <trkpt lat="40.253400" lon="-4.901250">
        <ele>1303.0</ele>
        <time>2018-09-15T12:24:24Z</time>
      </trkpt>
      <trkpt lat="40.253500" lon="-4.901317">
        <ele>1301.0</ele>
        <time>2018-09-15T12:24:25Z</time>
      </trkpt>
      <trkpt lat="40.253583" lon="-4.901400">
        <ele>1298.0</ele>
        <time>2018-09-15T12:24:26Z</time>
      </trkpt>
      <trkpt lat="40.253667" lon="-4.901467">
        <ele>1296.0</ele>
        <time>2018-09-15T12:24:27Z</time>
      </trkpt>
      <trkpt lat="40.253733" lon="-4.901550">
        <ele>1294.0</ele>
        <time>2018-09-15T12:24:28Z</time>
      </trkpt>
      <trkpt lat="40.253817" lon="-4.901633">
        <ele>1291.0</ele>
        <time>2018-09-15T12:24:29Z</time>
      </trkpt>
      <trkpt lat="40.253900" lon="-4.901700">
        <ele>1288.0</ele>
        <time>2018-09-15T12:24:30Z</time>
      </trkpt>
      <trkpt lat="40.253983" lon="-4.901767">
        <ele>1286.0</ele>
        <time>2018-09-15T12:24:31Z</time>
      </trkpt>
      <trkpt lat="40.254067" lon="-4.901850">
        <ele>1285.0</ele>
        <time>2018-09-15T12:24:32Z</time>
      </trkpt>
      <trkpt lat="40.254133" lon="-4.901900">
        <ele>1283.0</ele>
        <time>2018-09-15T12:24:33Z</time>
      </trkpt>
      <trkpt lat="40.254217" lon="-4.901933">
        <ele>1282.0</ele>
        <time>2018-09-15T12:24:34Z</time>
      </trkpt>
      <trkpt lat="40.254317" lon="-4.901950">
        <ele>1280.0</ele>
        <time>2018-09-15T12:24:35Z</time>
      </trkpt>
      <trkpt lat="40.254400" lon="-4.901983">
        <ele>1280.0</ele>
        <time>2018-09-15T12:24:36Z</time>
      </trkpt>
      <trkpt lat="40.254483" lon="-4.902033">
        <ele>1280.0</ele>
        <time>2018-09-15T12:24:37Z</time>
      </trkpt>
      <trkpt lat="40.254533" lon="-4.902083">
        <ele>1282.0</ele>
        <time>2018-09-15T12:24:38Z</time>
      </trkpt>
      <trkpt lat="40.254600" lon="-4.902133">
        <ele>1284.0</ele>
        <time>2018-09-15T12:24:39Z</time>
      </trkpt>
      <trkpt lat="40.254667" lon="-4.902150">
        <ele>1286.0</ele>
        <time>2018-09-15T12:24:40Z</time>
      </trkpt>
      <trkpt lat="40.254717" lon="-4.902183">
        <ele>1287.0</ele>
        <time>2018-09-15T12:24:41Z</time>
      </trkpt>
      <trkpt lat="40.254750" lon="-4.902200">
        <ele>1287.0</ele>
        <time>2018-09-15T12:24:42Z</time>
      </trkpt>
      <trkpt lat="40.254833" lon="-4.902217">
        <ele>1285.0</ele>
        <time>2018-09-15T12:24:43Z</time>
      </trkpt>
      <trkpt lat="40.254933" lon="-4.902250">
        <ele>1284.0</ele>
        <time>2018-09-15T12:24:44Z</time>
      </trkpt>
      <trkpt lat="40.255017" lon="-4.902300">
        <ele>1280.0</ele>
        <time>2018-09-15T12:24:45Z</time>
      </trkpt>
      <trkpt lat="40.255100" lon="-4.902333">
        <ele>1279.0</ele>
        <time>2018-09-15T12:24:46Z</time>
      </trkpt>
      <trkpt lat="40.255183" lon="-4.902367">
        <ele>1278.0</ele>
        <time>2018-09-15T12:24:47Z</time>
      </trkpt>
      <trkpt lat="40.255233" lon="-4.902400">
        <ele>1277.0</ele>
        <time>2018-09-15T12:24:48Z</time>
      </trkpt>
      <trkpt lat="40.255317" lon="-4.902433">
        <ele>1275.0</ele>
        <time>2018-09-15T12:24:49Z</time>
      </trkpt>
      <trkpt lat="40.255400" lon="-4.902450">
        <ele>1271.0</ele>
        <time>2018-09-15T12:24:50Z</time>
      </trkpt>
      <trkpt lat="40.255483" lon="-4.902483">
        <ele>1269.0</ele>
        <time>2018-09-15T12:24:51Z</time>
      </trkpt>
      <trkpt lat="40.255567" lon="-4.902517">
        <ele>1266.0</ele>
        <time>2018-09-15T12:24:52Z</time>
      </trkpt>
      <trkpt lat="40.255650" lon="-4.902533">
        <ele>1265.0</ele>
        <time>2018-09-15T12:24:53Z</time>
      </trkpt>
      <trkpt lat="40.255717" lon="-4.902550">
        <ele>1263.0</ele>
        <time>2018-09-15T12:24:54Z</time>
      </trkpt>
      <trkpt lat="40.255800" lon="-4.902550">
        <ele>1262.0</ele>
        <time>2018-09-15T12:24:55Z</time>
      </trkpt>
      <trkpt lat="40.255867" lon="-4.902550">
        <ele>1260.0</ele>
        <time>2018-09-15T12:24:56Z</time>
      </trkpt>
      <trkpt lat="40.255933" lon="-4.902550">
        <ele>1259.0</ele>
        <time>2018-09-15T12:24:57Z</time>
      </trkpt>
      <trkpt lat="40.256000" lon="-4.902533">
        <ele>1257.0</ele>
        <time>2018-09-15T12:24:58Z</time>
      </trkpt>
      <trkpt lat="40.256067" lon="-4.902517">
        <ele>1255.0</ele>
        <time>2018-09-15T12:24:59Z</time>
      </trkpt>
      <trkpt lat="40.256133" lon="-4.902483">
        <ele>1253.0</ele>
        <time>2018-09-15T12:25:00Z</time>
      </trkpt>
      <trkpt lat="40.256200" lon="-4.902433">
        <ele>1256.0</ele>
        <time>2018-09-15T12:25:01Z</time>
      </trkpt>
      <trkpt lat="40.256283" lon="-4.902367">
        <ele>1255.0</ele>
        <time>2018-09-15T12:25:02Z</time>
      </trkpt>
      <trkpt lat="40.256350" lon="-4.902300">
        <ele>1255.0</ele>
        <time>2018-09-15T12:25:03Z</time>
      </trkpt>
      <trkpt lat="40.256417" lon="-4.902233">
        <ele>1255.0</ele>
        <time>2018-09-15T12:25:04Z</time>
      </trkpt>
      <trkpt lat="40.256467" lon="-4.902183">
        <ele>1257.0</ele>
        <time>2018-09-15T12:25:05Z</time>
      </trkpt>
      <trkpt lat="40.256500" lon="-4.902133">
        <ele>1259.0</ele>
        <time>2018-09-15T12:25:06Z</time>
      </trkpt>
      <trkpt lat="40.256550" lon="-4.902100">
        <ele>1259.0</ele>
        <time>2018-09-15T12:25:07Z</time>
      </trkpt>
      <trkpt lat="40.256583" lon="-4.902050">
        <ele>1256.0</ele>
        <time>2018-09-15T12:25:08Z</time>
      </trkpt>
      <trkpt lat="40.256633" lon="-4.901967">
        <ele>1254.0</ele>
        <time>2018-09-15T12:25:09Z</time>
      </trkpt>
      <trkpt lat="40.256667" lon="-4.901900">
        <ele>1252.0</ele>
        <time>2018-09-15T12:25:10Z</time>
      </trkpt>
      <trkpt lat="40.256717" lon="-4.901817">
        <ele>1251.0</ele>
        <time>2018-09-15T12:25:11Z</time>
      </trkpt>
      <trkpt lat="40.256750" lon="-4.901750">
        <ele>1249.0</ele>
        <time>2018-09-15T12:25:12Z</time>
      </trkpt>
      <trkpt lat="40.256783" lon="-4.901683">
        <ele>1248.0</ele>
        <time>2018-09-15T12:25:13Z</time>
      </trkpt>
      <trkpt lat="40.256817" lon="-4.901617">
        <ele>1246.0</ele>
        <time>2018-09-15T12:25:14Z</time>
      </trkpt>
      <trkpt lat="40.256867" lon="-4.901533">
        <ele>1244.0</ele>
        <time>2018-09-15T12:25:15Z</time>
      </trkpt>
      <trkpt lat="40.256917" lon="-4.901433">
        <ele>1242.0</ele>
        <time>2018-09-15T12:25:16Z</time>
      </trkpt>
      <trkpt lat="40.256950" lon="-4.901350">
        <ele>1240.0</ele>
        <time>2018-09-15T12:25:17Z</time>
      </trkpt>
      <trkpt lat="40.256983" lon="-4.901267">
        <ele>1239.0</ele>
        <time>2018-09-15T12:25:18Z</time>
      </trkpt>
      <trkpt lat="40.257017" lon="-4.901183">
        <ele>1239.0</ele>
        <time>2018-09-15T12:25:19Z</time>
      </trkpt>
      <trkpt lat="40.257050" lon="-4.901100">
        <ele>1238.0</ele>
        <time>2018-09-15T12:25:20Z</time>
      </trkpt>
      <trkpt lat="40.257083" lon="-4.901033">
        <ele>1237.0</ele>
        <time>2018-09-15T12:25:21Z</time>
      </trkpt>
      <trkpt lat="40.257133" lon="-4.900950">
        <ele>1235.0</ele>
        <time>2018-09-15T12:25:22Z</time>
      </trkpt>
      <trkpt lat="40.257167" lon="-4.900850">
        <ele>1233.0</ele>
        <time>2018-09-15T12:25:23Z</time>
      </trkpt>
      <trkpt lat="40.257217" lon="-4.900767">
        <ele>1232.0</ele>
        <time>2018-09-15T12:25:24Z</time>
      </trkpt>
      <trkpt lat="40.257250" lon="-4.900683">
        <ele>1230.0</ele>
        <time>2018-09-15T12:25:25Z</time>
      </trkpt>
      <trkpt lat="40.257283" lon="-4.900600">
        <ele>1229.0</ele>
        <time>2018-09-15T12:25:26Z</time>
      </trkpt>
      <trkpt lat="40.257317" lon="-4.900533">
        <ele>1228.0</ele>
        <time>2018-09-15T12:25:27Z</time>
      </trkpt>
      <trkpt lat="40.257367" lon="-4.900467">
        <ele>1227.0</ele>
        <time>2018-09-15T12:25:28Z</time>
      </trkpt>
      <trkpt lat="40.257400" lon="-4.900383">
        <ele>1225.0</ele>
        <time>2018-09-15T12:25:29Z</time>
      </trkpt>
      <trkpt lat="40.257450" lon="-4.900317">
        <ele>1224.0</ele>
        <time>2018-09-15T12:25:30Z</time>
      </trkpt>
      <trkpt lat="40.257500" lon="-4.900233">
        <ele>1224.0</ele>
        <time>2018-09-15T12:25:31Z</time>
      </trkpt>
      <trkpt lat="40.257550" lon="-4.900167">
        <ele>1223.0</ele>
        <time>2018-09-15T12:25:32Z</time>
      </trkpt>
      <trkpt lat="40.257617" lon="-4.900100">
        <ele>1224.0</ele>
        <time>2018-09-15T12:25:33Z</time>
      </trkpt>
      <trkpt lat="40.257667" lon="-4.900050">
        <ele>1224.0</ele>
        <time>2018-09-15T12:25:34Z</time>
      </trkpt>
      <trkpt lat="40.257717" lon="-4.899983">
        <ele>1225.0</ele>
        <time>2018-09-15T12:25:35Z</time>
      </trkpt>
      <trkpt lat="40.257750" lon="-4.899933">
        <ele>1225.0</ele>
        <time>2018-09-15T12:25:36Z</time>
      </trkpt>
      <trkpt lat="40.257783" lon="-4.899883">
        <ele>1225.0</ele>
        <time>2018-09-15T12:25:37Z</time>
      </trkpt>
      <trkpt lat="40.257817" lon="-4.899833">
        <ele>1225.0</ele>
        <time>2018-09-15T12:25:38Z</time>
      </trkpt>
      <trkpt lat="40.257850" lon="-4.899750">
        <ele>1224.0</ele>
        <time>2018-09-15T12:25:39Z</time>
      </trkpt>
      <trkpt lat="40.257883" lon="-4.899667">
        <ele>1223.0</ele>
        <time>2018-09-15T12:25:40Z</time>
      </trkpt>
      <trkpt lat="40.257933" lon="-4.899583">
        <ele>1222.0</ele>
        <time>2018-09-15T12:25:41Z</time>
      </trkpt>
      <trkpt lat="40.257967" lon="-4.899500">
        <ele>1222.0</ele>
        <time>2018-09-15T12:25:42Z</time>
      </trkpt>
      <trkpt lat="40.258000" lon="-4.899433">
        <ele>1221.0</ele>
        <time>2018-09-15T12:25:43Z</time>
      </trkpt>
      <trkpt lat="40.258033" lon="-4.899367">
        <ele>1221.0</ele>
        <time>2018-09-15T12:25:44Z</time>
      </trkpt>
      <trkpt lat="40.258067" lon="-4.899283">
        <ele>1220.0</ele>
        <time>2018-09-15T12:25:45Z</time>
      </trkpt>
      <trkpt lat="40.258100" lon="-4.899217">
        <ele>1219.0</ele>
        <time>2018-09-15T12:25:46Z</time>
      </trkpt>
      <trkpt lat="40.258133" lon="-4.899150">
        <ele>1218.0</ele>
        <time>2018-09-15T12:25:47Z</time>
      </trkpt>
      <trkpt lat="40.258183" lon="-4.899083">
        <ele>1217.0</ele>
        <time>2018-09-15T12:25:48Z</time>
      </trkpt>
      <trkpt lat="40.258217" lon="-4.899033">
        <ele>1216.0</ele>
        <time>2018-09-15T12:25:49Z</time>
      </trkpt>
      <trkpt lat="40.258250" lon="-4.898967">
        <ele>1216.0</ele>
        <time>2018-09-15T12:25:50Z</time>
      </trkpt>
      <trkpt lat="40.258283" lon="-4.898917">
        <ele>1215.0</ele>
        <time>2018-09-15T12:25:51Z</time>
      </trkpt>
      <trkpt lat="40.258317" lon="-4.898833">
        <ele>1213.0</ele>
        <time>2018-09-15T12:25:52Z</time>
      </trkpt>
      <trkpt lat="40.258350" lon="-4.898767">
        <ele>1211.0</ele>
        <time>2018-09-15T12:25:53Z</time>
      </trkpt>
      <trkpt lat="40.258367" lon="-4.898650">
        <ele>1209.0</ele>
        <time>2018-09-15T12:25:54Z</time>
      </trkpt>
      <trkpt lat="40.258383" lon="-4.898550">
        <ele>1211.0</ele>
        <time>2018-09-15T12:25:55Z</time>
      </trkpt>
      <trkpt lat="40.258400" lon="-4.898450">
        <ele>1210.0</ele>
        <time>2018-09-15T12:25:56Z</time>
      </trkpt>
      <trkpt lat="40.258417" lon="-4.898367">
        <ele>1209.0</ele>
        <time>2018-09-15T12:25:57Z</time>
      </trkpt>
      <trkpt lat="40.258417" lon="-4.898283">
        <ele>1208.0</ele>
        <time>2018-09-15T12:25:58Z</time>
      </trkpt>
      <trkpt lat="40.258433" lon="-4.898200">
        <ele>1206.0</ele>
        <time>2018-09-15T12:25:59Z</time>
      </trkpt>
      <trkpt lat="40.258450" lon="-4.898100">
        <ele>1204.0</ele>
        <time>2018-09-15T12:26:00Z</time>
      </trkpt>
      <trkpt lat="40.258483" lon="-4.898000">
        <ele>1203.0</ele>
        <time>2018-09-15T12:26:01Z</time>
      </trkpt>
      <trkpt lat="40.258517" lon="-4.897900">
        <ele>1202.0</ele>
        <time>2018-09-15T12:26:02Z</time>
      </trkpt>
      <trkpt lat="40.258533" lon="-4.897800">
        <ele>1201.0</ele>
        <time>2018-09-15T12:26:03Z</time>
      </trkpt>
      <trkpt lat="40.258567" lon="-4.897717">
        <ele>1200.0</ele>
        <time>2018-09-15T12:26:04Z</time>
      </trkpt>
      <trkpt lat="40.258583" lon="-4.897617">
        <ele>1199.0</ele>
        <time>2018-09-15T12:26:05Z</time>
      </trkpt>
      <trkpt lat="40.258600" lon="-4.897517">
        <ele>1198.0</ele>
        <time>2018-09-15T12:26:06Z</time>
      </trkpt>
      <trkpt lat="40.258633" lon="-4.897433">
        <ele>1196.0</ele>
        <time>2018-09-15T12:26:07Z</time>
      </trkpt>
      <trkpt lat="40.258650" lon="-4.897333">
        <ele>1194.0</ele>
        <time>2018-09-15T12:26:08Z</time>
      </trkpt>
      <trkpt lat="40.258683" lon="-4.897233">
        <ele>1192.0</ele>
        <time>2018-09-15T12:26:09Z</time>
      </trkpt>
      <trkpt lat="40.258700" lon="-4.897150">
        <ele>1191.0</ele>
        <time>2018-09-15T12:26:10Z</time>
      </trkpt>
      <trkpt lat="40.258717" lon="-4.897050">
        <ele>1189.0</ele>
        <time>2018-09-15T12:26:11Z</time>
      </trkpt>
      <trkpt lat="40.258750" lon="-4.896950">
        <ele>1188.0</ele>
        <time>2018-09-15T12:26:12Z</time>
      </trkpt>
      <trkpt lat="40.258767" lon="-4.896850">
        <ele>1185.0</ele>
        <time>2018-09-15T12:26:13Z</time>
      </trkpt>
      <trkpt lat="40.258783" lon="-4.896717">
        <ele>1183.0</ele>
        <time>2018-09-15T12:26:14Z</time>
      </trkpt>
      <trkpt lat="40.258817" lon="-4.896617">
        <ele>1182.0</ele>
        <time>2018-09-15T12:26:15Z</time>
      </trkpt>
      <trkpt lat="40.258850" lon="-4.896533">
        <ele>1183.0</ele>
        <time>2018-09-15T12:26:16Z</time>
      </trkpt>
      <trkpt lat="40.258867" lon="-4.896483">
        <ele>1185.0</ele>
        <time>2018-09-15T12:26:17Z</time>
      </trkpt>
      <trkpt lat="40.258883" lon="-4.896433">
        <ele>1184.0</ele>
        <time>2018-09-15T12:26:18Z</time>
      </trkpt>
      <trkpt lat="40.258900" lon="-4.896350">
        <ele>1182.0</ele>
        <time>2018-09-15T12:26:19Z</time>
      </trkpt>
      <trkpt lat="40.258917" lon="-4.896250">
        <ele>1179.0</ele>
        <time>2018-09-15T12:26:20Z</time>
      </trkpt>
      <trkpt lat="40.258933" lon="-4.896150">
        <ele>1177.0</ele>
        <time>2018-09-15T12:26:21Z</time>
      </trkpt>
      <trkpt lat="40.258950" lon="-4.896067">
        <ele>1176.0</ele>
        <time>2018-09-15T12:26:22Z</time>
      </trkpt>
      <trkpt lat="40.258967" lon="-4.896000">
        <ele>1176.0</ele>
        <time>2018-09-15T12:26:23Z</time>
      </trkpt>
      <trkpt lat="40.258983" lon="-4.895950">
        <ele>1175.0</ele>
        <time>2018-09-15T12:26:24Z</time>
      </trkpt>
      <trkpt lat="40.259000" lon="-4.895867">
        <ele>1175.0</ele>
        <time>2018-09-15T12:26:25Z</time>
      </trkpt>
      <trkpt lat="40.259017" lon="-4.895800">
        <ele>1174.0</ele>
        <time>2018-09-15T12:26:26Z</time>
      </trkpt>
      <trkpt lat="40.259033" lon="-4.895700">
        <ele>1173.0</ele>
        <time>2018-09-15T12:26:27Z</time>
      </trkpt>
      <trkpt lat="40.259033" lon="-4.895600">
        <ele>1174.0</ele>
        <time>2018-09-15T12:26:28Z</time>
      </trkpt>
      <trkpt lat="40.259050" lon="-4.895533">
        <ele>1176.0</ele>
        <time>2018-09-15T12:26:29Z</time>
      </trkpt>
      <trkpt lat="40.259067" lon="-4.895483">
        <ele>1178.0</ele>
        <time>2018-09-15T12:26:30Z</time>
      </trkpt>
      <trkpt lat="40.259083" lon="-4.895417">
        <ele>1179.0</ele>
        <time>2018-09-15T12:26:31Z</time>
      </trkpt>
      <trkpt lat="40.259100" lon="-4.895333">
        <ele>1181.0</ele>
        <time>2018-09-15T12:26:32Z</time>
      </trkpt>
      <trkpt lat="40.259117" lon="-4.895250">
        <ele>1181.0</ele>
        <time>2018-09-15T12:26:33Z</time>
      </trkpt>
      <trkpt lat="40.259150" lon="-4.895167">
        <ele>1182.0</ele>
        <time>2018-09-15T12:26:34Z</time>
      </trkpt>
      <trkpt lat="40.259167" lon="-4.895083">
        <ele>1184.0</ele>
        <time>2018-09-15T12:26:35Z</time>
      </trkpt>
      <trkpt lat="40.259183" lon="-4.895017">
        <ele>1185.0</ele>
        <time>2018-09-15T12:26:36Z</time>
      </trkpt>
      <trkpt lat="40.259183" lon="-4.894967">
        <ele>1185.0</ele>
        <time>2018-09-15T12:26:37Z</time>
      </trkpt>
      <trkpt lat="40.259200" lon="-4.894917">
        <ele>1186.0</ele>
        <time>2018-09-15T12:26:38Z</time>
      </trkpt>
      <trkpt lat="40.259217" lon="-4.894833">
        <ele>1185.0</ele>
        <time>2018-09-15T12:26:39Z</time>
      </trkpt>
      <trkpt lat="40.259233" lon="-4.894750">
        <ele>1183.0</ele>
        <time>2018-09-15T12:26:40Z</time>
      </trkpt>
      <trkpt lat="40.259250" lon="-4.894667">
        <ele>1181.0</ele>
        <time>2018-09-15T12:26:41Z</time>
      </trkpt>
      <trkpt lat="40.259267" lon="-4.894600">
        <ele>1180.0</ele>
        <time>2018-09-15T12:26:42Z</time>
      </trkpt>
      <trkpt lat="40.259283" lon="-4.894533">
        <ele>1180.0</ele>
        <time>2018-09-15T12:26:43Z</time>
      </trkpt>
      <trkpt lat="40.259283" lon="-4.894483">
        <ele>1179.0</ele>
        <time>2018-09-15T12:26:44Z</time>
      </trkpt>
      <trkpt lat="40.259300" lon="-4.894433">
        <ele>1178.0</ele>
        <time>2018-09-15T12:26:45Z</time>
      </trkpt>
      <trkpt lat="40.259300" lon="-4.894367">
        <ele>1176.0</ele>
        <time>2018-09-15T12:26:46Z</time>
      </trkpt>
      <trkpt lat="40.259300" lon="-4.894300">
        <ele>1175.0</ele>
        <time>2018-09-15T12:26:47Z</time>
      </trkpt>
      <trkpt lat="40.259300" lon="-4.894233">
        <ele>1173.0</ele>
        <time>2018-09-15T12:26:48Z</time>
      </trkpt>
      <trkpt lat="40.259317" lon="-4.894167">
        <ele>1172.0</ele>
        <time>2018-09-15T12:26:49Z</time>
      </trkpt>
      <trkpt lat="40.259333" lon="-4.894100">
        <ele>1171.0</ele>
        <time>2018-09-15T12:26:50Z</time>
      </trkpt>
      <trkpt lat="40.259350" lon="-4.894033">
        <ele>1171.0</ele>
        <time>2018-09-15T12:26:51Z</time>
      </trkpt>
      <trkpt lat="40.259367" lon="-4.893967">
        <ele>1170.0</ele>
        <time>2018-09-15T12:26:52Z</time>
      </trkpt>
      <trkpt lat="40.259383" lon="-4.893867">
        <ele>1169.0</ele>
        <time>2018-09-15T12:26:53Z</time>
      </trkpt>
      <trkpt lat="40.259400" lon="-4.893783">
        <ele>1168.0</ele>
        <time>2018-09-15T12:26:54Z</time>
      </trkpt>
      <trkpt lat="40.259417" lon="-4.893700">
        <ele>1166.0</ele>
        <time>2018-09-15T12:26:55Z</time>
      </trkpt>
      <trkpt lat="40.259433" lon="-4.893617">
        <ele>1164.0</ele>
        <time>2018-09-15T12:26:56Z</time>
      </trkpt>
      <trkpt lat="40.259450" lon="-4.893533">
        <ele>1163.0</ele>
        <time>2018-09-15T12:26:57Z</time>
      </trkpt>
      <trkpt lat="40.259467" lon="-4.893467">
        <ele>1161.0</ele>
        <time>2018-09-15T12:26:58Z</time>
      </trkpt>
      <trkpt lat="40.259483" lon="-4.893383">
        <ele>1159.0</ele>
        <time>2018-09-15T12:26:59Z</time>
      </trkpt>
      <trkpt lat="40.259500" lon="-4.893283">
        <ele>1157.0</ele>
        <time>2018-09-15T12:27:00Z</time>
      </trkpt>
      <trkpt lat="40.259533" lon="-4.893200">
        <ele>1154.0</ele>
        <time>2018-09-15T12:27:01Z</time>
      </trkpt>
      <trkpt lat="40.259550" lon="-4.893133">
        <ele>1152.0</ele>
        <time>2018-09-15T12:27:02Z</time>
      </trkpt>
      <trkpt lat="40.259600" lon="-4.893067">
        <ele>1150.0</ele>
        <time>2018-09-15T12:27:03Z</time>
      </trkpt>
      <trkpt lat="40.259633" lon="-4.893000">
        <ele>1149.0</ele>
        <time>2018-09-15T12:27:04Z</time>
      </trkpt>
      <trkpt lat="40.259650" lon="-4.892883">
        <ele>1146.0</ele>
        <time>2018-09-15T12:27:05Z</time>
      </trkpt>
      <trkpt lat="40.259683" lon="-4.892767">
        <ele>1150.0</ele>
        <time>2018-09-15T12:27:06Z</time>
      </trkpt>
      <trkpt lat="40.259700" lon="-4.892667">
        <ele>1151.0</ele>
        <time>2018-09-15T12:27:07Z</time>
      </trkpt>
      <trkpt lat="40.259733" lon="-4.892567">
        <ele>1151.0</ele>
        <time>2018-09-15T12:27:08Z</time>
      </trkpt>
      <trkpt lat="40.259767" lon="-4.892467">
        <ele>1150.0</ele>
        <time>2018-09-15T12:27:09Z</time>
      </trkpt>
      <trkpt lat="40.259783" lon="-4.892383">
        <ele>1149.0</ele>
        <time>2018-09-15T12:27:10Z</time>
      </trkpt>
      <trkpt lat="40.259817" lon="-4.892283">
        <ele>1148.0</ele>
        <time>2018-09-15T12:27:11Z</time>
      </trkpt>
      <trkpt lat="40.259833" lon="-4.892167">
        <ele>1147.0</ele>
        <time>2018-09-15T12:27:12Z</time>
      </trkpt>
      <trkpt lat="40.259867" lon="-4.892067">
        <ele>1145.0</ele>
        <time>2018-09-15T12:27:13Z</time>
      </trkpt>
      <trkpt lat="40.259900" lon="-4.891950">
        <ele>1143.0</ele>
        <time>2018-09-15T12:27:14Z</time>
      </trkpt>
      <trkpt lat="40.259967" lon="-4.891850">
        <ele>1140.0</ele>
        <time>2018-09-15T12:27:15Z</time>
      </trkpt>
      <trkpt lat="40.260017" lon="-4.891750">
        <ele>1137.0</ele>
        <time>2018-09-15T12:27:16Z</time>
      </trkpt>
      <trkpt lat="40.260083" lon="-4.891650">
        <ele>1134.0</ele>
        <time>2018-09-15T12:27:17Z</time>
      </trkpt>
      <trkpt lat="40.260133" lon="-4.891567">
        <ele>1131.0</ele>
        <time>2018-09-15T12:27:18Z</time>
      </trkpt>
      <trkpt lat="40.260183" lon="-4.891467">
        <ele>1129.0</ele>
        <time>2018-09-15T12:27:19Z</time>
      </trkpt>
      <trkpt lat="40.260233" lon="-4.891367">
        <ele>1127.0</ele>
        <time>2018-09-15T12:27:20Z</time>
      </trkpt>
      <trkpt lat="40.260283" lon="-4.891250">
        <ele>1125.0</ele>
        <time>2018-09-15T12:27:21Z</time>
      </trkpt>
      <trkpt lat="40.260350" lon="-4.891150">
        <ele>1122.0</ele>
        <time>2018-09-15T12:27:22Z</time>
      </trkpt>
      <trkpt lat="40.260417" lon="-4.891050">
        <ele>1118.0</ele>
        <time>2018-09-15T12:27:23Z</time>
      </trkpt>
      <trkpt lat="40.260467" lon="-4.890933">
        <ele>1116.0</ele>
        <time>2018-09-15T12:27:24Z</time>
      </trkpt>
      <trkpt lat="40.260533" lon="-4.890800">
        <ele>1114.0</ele>
        <time>2018-09-15T12:27:25Z</time>
      </trkpt>
      <trkpt lat="40.260567" lon="-4.890700">
        <ele>1112.0</ele>
        <time>2018-09-15T12:27:26Z</time>
      </trkpt>
      <trkpt lat="40.260617" lon="-4.890600">
        <ele>1115.0</ele>
        <time>2018-09-15T12:27:27Z</time>
      </trkpt>
      <trkpt lat="40.260667" lon="-4.890533">
        <ele>1115.0</ele>
        <time>2018-09-15T12:27:28Z</time>
      </trkpt>
      <trkpt lat="40.260717" lon="-4.890467">
        <ele>1114.0</ele>
        <time>2018-09-15T12:27:29Z</time>
      </trkpt>
      <trkpt lat="40.260767" lon="-4.890383">
        <ele>1114.0</ele>
        <time>2018-09-15T12:27:30Z</time>
      </trkpt>
      <trkpt lat="40.260800" lon="-4.890300">
        <ele>1113.0</ele>
        <time>2018-09-15T12:27:31Z</time>
      </trkpt>
      <trkpt lat="40.260833" lon="-4.890217">
        <ele>1113.0</ele>
        <time>2018-09-15T12:27:32Z</time>
      </trkpt>
      <trkpt lat="40.260850" lon="-4.890133">
        <ele>1112.0</ele>
        <time>2018-09-15T12:27:33Z</time>
      </trkpt>
      <trkpt lat="40.260883" lon="-4.890033">
        <ele>1112.0</ele>
        <time>2018-09-15T12:27:34Z</time>
      </trkpt>
      <trkpt lat="40.260917" lon="-4.889950">
        <ele>1112.0</ele>
        <time>2018-09-15T12:27:35Z</time>
      </trkpt>
      <trkpt lat="40.260950" lon="-4.889867">
        <ele>1113.0</ele>
        <time>2018-09-15T12:27:36Z</time>
      </trkpt>
      <trkpt lat="40.260983" lon="-4.889783">
        <ele>1114.0</ele>
        <time>2018-09-15T12:27:37Z</time>
      </trkpt>
      <trkpt lat="40.261000" lon="-4.889700">
        <ele>1116.0</ele>
        <time>2018-09-15T12:27:38Z</time>
      </trkpt>
      <trkpt lat="40.261017" lon="-4.889633">
        <ele>1117.0</ele>
        <time>2018-09-15T12:27:39Z</time>
      </trkpt>
      <trkpt lat="40.261033" lon="-4.889567">
        <ele>1119.0</ele>
        <time>2018-09-15T12:27:40Z</time>
      </trkpt>
      <trkpt lat="40.261050" lon="-4.889500">
        <ele>1120.0</ele>
        <time>2018-09-15T12:27:41Z</time>
      </trkpt>
      <trkpt lat="40.261067" lon="-4.889417">
        <ele>1121.0</ele>
        <time>2018-09-15T12:27:42Z</time>
      </trkpt>
      <trkpt lat="40.261067" lon="-4.889333">
        <ele>1121.0</ele>
        <time>2018-09-15T12:27:43Z</time>
      </trkpt>
      <trkpt lat="40.261067" lon="-4.889233">
        <ele>1120.0</ele>
        <time>2018-09-15T12:27:44Z</time>
      </trkpt>
      <trkpt lat="40.261050" lon="-4.889167">
        <ele>1120.0</ele>
        <time>2018-09-15T12:27:45Z</time>
      </trkpt>
      <trkpt lat="40.261000" lon="-4.889133">
        <ele>1121.0</ele>
        <time>2018-09-15T12:27:46Z</time>
      </trkpt>
      <trkpt lat="40.260933" lon="-4.889150">
        <ele>1121.0</ele>
        <time>2018-09-15T12:27:47Z</time>
      </trkpt>
      <trkpt lat="40.260850" lon="-4.889217">
        <ele>1119.0</ele>
        <time>2018-09-15T12:27:48Z</time>
      </trkpt>
      <trkpt lat="40.260800" lon="-4.889300">
        <ele>1119.0</ele>
        <time>2018-09-15T12:27:49Z</time>
      </trkpt>
      <trkpt lat="40.260783" lon="-4.889417">
        <ele>1120.0</ele>
        <time>2018-09-15T12:27:50Z</time>
      </trkpt>
      <trkpt lat="40.260800" lon="-4.889533">
        <ele>1120.0</ele>
        <time>2018-09-15T12:27:51Z</time>
      </trkpt>
      <trkpt lat="40.260850" lon="-4.889667">
        <ele>1120.0</ele>
        <time>2018-09-15T12:27:52Z</time>
      </trkpt>
      <trkpt lat="40.260917" lon="-4.889767">
        <ele>1120.0</ele>
        <time>2018-09-15T12:27:53Z</time>
      </trkpt>
      <trkpt lat="40.261033" lon="-4.889850">
        <ele>1120.0</ele>
        <time>2018-09-15T12:27:54Z</time>
      </trkpt>
      <trkpt lat="40.261133" lon="-4.889900">
        <ele>1120.0</ele>
        <time>2018-09-15T12:27:55Z</time>
      </trkpt>
      <trkpt lat="40.261233" lon="-4.889883">
        <ele>1120.0</ele>
        <time>2018-09-15T12:27:56Z</time>
      </trkpt>
      <trkpt lat="40.261333" lon="-4.889833">
        <ele>1119.0</ele>
        <time>2018-09-15T12:27:57Z</time>
      </trkpt>
      <trkpt lat="40.261400" lon="-4.889767">
        <ele>1119.0</ele>
        <time>2018-09-15T12:27:58Z</time>
      </trkpt>
      <trkpt lat="40.261483" lon="-4.889717">
        <ele>1120.0</ele>
        <time>2018-09-15T12:27:59Z</time>
      </trkpt>
      <trkpt lat="40.261533" lon="-4.889650">
        <ele>1120.0</ele>
        <time>2018-09-15T12:28:00Z</time>
      </trkpt>
      <trkpt lat="40.261583" lon="-4.889583">
        <ele>1121.0</ele>
        <time>2018-09-15T12:28:01Z</time>
      </trkpt>
      <trkpt lat="40.261617" lon="-4.889500">
        <ele>1122.0</ele>
        <time>2018-09-15T12:28:02Z</time>
      </trkpt>
      <trkpt lat="40.261650" lon="-4.889417">
        <ele>1124.0</ele>
        <time>2018-09-15T12:28:03Z</time>
      </trkpt>
      <trkpt lat="40.261667" lon="-4.889333">
        <ele>1125.0</ele>
        <time>2018-09-15T12:28:04Z</time>
      </trkpt>
      <trkpt lat="40.261717" lon="-4.889233">
        <ele>1126.0</ele>
        <time>2018-09-15T12:28:05Z</time>
      </trkpt>
      <trkpt lat="40.261733" lon="-4.889133">
        <ele>1127.0</ele>
        <time>2018-09-15T12:28:06Z</time>
      </trkpt>
      <trkpt lat="40.261767" lon="-4.889033">
        <ele>1129.0</ele>
        <time>2018-09-15T12:28:07Z</time>
      </trkpt>
      <trkpt lat="40.261767" lon="-4.888950">
        <ele>1132.0</ele>
        <time>2018-09-15T12:28:08Z</time>
      </trkpt>
      <trkpt lat="40.261767" lon="-4.888883">
        <ele>1133.0</ele>
        <time>2018-09-15T12:28:09Z</time>
      </trkpt>
      <trkpt lat="40.261767" lon="-4.888800">
        <ele>1133.0</ele>
        <time>2018-09-15T12:28:10Z</time>
      </trkpt>
      <trkpt lat="40.261767" lon="-4.888733">
        <ele>1134.0</ele>
        <time>2018-09-15T12:28:11Z</time>
      </trkpt>
      <trkpt lat="40.261750" lon="-4.888650">
        <ele>1133.0</ele>
        <time>2018-09-15T12:28:12Z</time>
      </trkpt>
      <trkpt lat="40.261700" lon="-4.888583">
        <ele>1131.0</ele>
        <time>2018-09-15T12:28:13Z</time>
      </trkpt>
      <trkpt lat="40.261633" lon="-4.888550">
        <ele>1130.0</ele>
        <time>2018-09-15T12:28:14Z</time>
      </trkpt>
      <trkpt lat="40.261550" lon="-4.888583">
        <ele>1130.0</ele>
        <time>2018-09-15T12:28:15Z</time>
      </trkpt>
      <trkpt lat="40.261500" lon="-4.888650">
        <ele>1129.0</ele>
        <time>2018-09-15T12:28:16Z</time>
      </trkpt>
      <trkpt lat="40.261483" lon="-4.888783">
        <ele>1130.0</ele>
        <time>2018-09-15T12:28:17Z</time>
      </trkpt>
      <trkpt lat="40.261500" lon="-4.888933">
        <ele>1131.0</ele>
        <time>2018-09-15T12:28:18Z</time>
      </trkpt>
      <trkpt lat="40.261550" lon="-4.889083">
        <ele>1131.0</ele>
        <time>2018-09-15T12:28:19Z</time>
      </trkpt>
      <trkpt lat="40.261617" lon="-4.889217">
        <ele>1131.0</ele>
        <time>2018-09-15T12:28:20Z</time>
      </trkpt>
      <trkpt lat="40.261700" lon="-4.889283">
        <ele>1131.0</ele>
        <time>2018-09-15T12:28:21Z</time>
      </trkpt>
      <trkpt lat="40.261800" lon="-4.889317">
        <ele>1132.0</ele>
        <time>2018-09-15T12:28:22Z</time>
      </trkpt>
      <trkpt lat="40.261900" lon="-4.889333">
        <ele>1132.0</ele>
        <time>2018-09-15T12:28:23Z</time>
      </trkpt>
      <trkpt lat="40.262000" lon="-4.889317">
        <ele>1132.0</ele>
        <time>2018-09-15T12:28:24Z</time>
      </trkpt>
      <trkpt lat="40.262100" lon="-4.889300">
        <ele>1133.0</ele>
        <time>2018-09-15T12:28:25Z</time>
      </trkpt>
      <trkpt lat="40.262150" lon="-4.889200">
        <ele>1133.0</ele>
        <time>2018-09-15T12:28:26Z</time>
      </trkpt>
      <trkpt lat="40.262167" lon="-4.889117">
        <ele>1133.0</ele>
        <time>2018-09-15T12:28:27Z</time>
      </trkpt>
      <trkpt lat="40.262150" lon="-4.889033">
        <ele>1133.0</ele>
        <time>2018-09-15T12:28:28Z</time>
      </trkpt>
      <trkpt lat="40.262100" lon="-4.889000">
        <ele>1134.0</ele>
        <time>2018-09-15T12:28:29Z</time>
      </trkpt>
      <trkpt lat="40.262033" lon="-4.889017">
        <ele>1133.0</ele>
        <time>2018-09-15T12:28:30Z</time>
      </trkpt>
      <trkpt lat="40.261983" lon="-4.889067">
        <ele>1133.0</ele>
        <time>2018-09-15T12:28:31Z</time>
      </trkpt>
      <trkpt lat="40.261933" lon="-4.889167">
        <ele>1133.0</ele>
        <time>2018-09-15T12:28:32Z</time>
      </trkpt>
      <trkpt lat="40.261900" lon="-4.889250">
        <ele>1133.0</ele>
        <time>2018-09-15T12:28:33Z</time>
      </trkpt>
      <trkpt lat="40.261850" lon="-4.889333">
        <ele>1134.0</ele>
        <time>2018-09-15T12:28:34Z</time>
      </trkpt>
      <trkpt lat="40.261800" lon="-4.889383">
        <ele>1135.0</ele>
        <time>2018-09-15T12:28:35Z</time>
      </trkpt>
      <trkpt lat="40.261750" lon="-4.889433">
        <ele>1137.0</ele>
        <time>2018-09-15T12:28:36Z</time>
      </trkpt>
      <trkpt lat="40.261717" lon="-4.889483">
        <ele>1141.0</ele>
        <time>2018-09-15T12:28:37Z</time>
      </trkpt>
      <trkpt lat="40.261683" lon="-4.889550">
        <ele>1144.0</ele>
        <time>2018-09-15T12:28:38Z</time>
      </trkpt>
      <trkpt lat="40.261667" lon="-4.889617">
        <ele>1147.0</ele>
        <time>2018-09-15T12:28:39Z</time>
      </trkpt>
      <trkpt lat="40.261633" lon="-4.889683">
        <ele>1149.0</ele>
        <time>2018-09-15T12:28:40Z</time>
      </trkpt>
      <trkpt lat="40.261600" lon="-4.889750">
        <ele>1151.0</ele>
        <time>2018-09-15T12:28:41Z</time>
      </trkpt>
      <trkpt lat="40.261550" lon="-4.889800">
        <ele>1153.0</ele>
        <time>2018-09-15T12:28:42Z</time>
      </trkpt>
      <trkpt lat="40.261500" lon="-4.889833">
        <ele>1156.0</ele>
        <time>2018-09-15T12:28:43Z</time>
      </trkpt>
      <trkpt lat="40.261467" lon="-4.889850">
        <ele>1158.0</ele>
        <time>2018-09-15T12:28:44Z</time>
      </trkpt>
      <trkpt lat="40.261417" lon="-4.889900">
        <ele>1161.0</ele>
        <time>2018-09-15T12:28:45Z</time>
      </trkpt>
      <trkpt lat="40.261367" lon="-4.889967">
        <ele>1164.0</ele>
        <time>2018-09-15T12:28:46Z</time>
      </trkpt>
      <trkpt lat="40.261317" lon="-4.890067">
        <ele>1166.0</ele>
        <time>2018-09-15T12:28:47Z</time>
      </trkpt>
      <trkpt lat="40.261300" lon="-4.890200">
        <ele>1169.0</ele>
        <time>2018-09-15T12:28:48Z</time>
      </trkpt>
      <trkpt lat="40.261317" lon="-4.890350">
        <ele>1172.0</ele>
        <time>2018-09-15T12:28:49Z</time>
      </trkpt>
      <trkpt lat="40.261400" lon="-4.890467">
        <ele>1174.0</ele>
        <time>2018-09-15T12:28:50Z</time>
      </trkpt>
      <trkpt lat="40.261500" lon="-4.890550">
        <ele>1176.0</ele>
        <time>2018-09-15T12:28:51Z</time>
      </trkpt>
      <trkpt lat="40.261600" lon="-4.890583">
        <ele>1178.0</ele>
        <time>2018-09-15T12:28:52Z</time>
      </trkpt>
      <trkpt lat="40.261700" lon="-4.890583">
        <ele>1179.0</ele>
        <time>2018-09-15T12:28:53Z</time>
      </trkpt>
      <trkpt lat="40.261767" lon="-4.890500">
        <ele>1180.0</ele>
        <time>2018-09-15T12:28:54Z</time>
      </trkpt>
      <trkpt lat="40.261817" lon="-4.890417">
        <ele>1180.0</ele>
        <time>2018-09-15T12:28:55Z</time>
      </trkpt>
      <trkpt lat="40.261800" lon="-4.890333">
        <ele>1174.0</ele>
        <time>2018-09-15T12:28:56Z</time>
      </trkpt>
      <trkpt lat="40.261767" lon="-4.890300">
        <ele>1175.0</ele>
        <time>2018-09-15T12:28:57Z</time>
      </trkpt>
      <trkpt lat="40.261717" lon="-4.890283">
        <ele>1173.0</ele>
        <time>2018-09-15T12:28:58Z</time>
      </trkpt>
      <trkpt lat="40.261667" lon="-4.890317">
        <ele>1173.0</ele>
        <time>2018-09-15T12:28:59Z</time>
      </trkpt>
      <trkpt lat="40.261617" lon="-4.890350">
        <ele>1173.0</ele>
        <time>2018-09-15T12:29:00Z</time>
      </trkpt>
      <trkpt lat="40.261567" lon="-4.890400">
        <ele>1173.0</ele>
        <time>2018-09-15T12:29:01Z</time>
      </trkpt>
      <trkpt lat="40.261533" lon="-4.890467">
        <ele>1173.0</ele>
        <time>2018-09-15T12:29:02Z</time>
      </trkpt>
      <trkpt lat="40.261500" lon="-4.890533">
        <ele>1173.0</ele>
        <time>2018-09-15T12:29:03Z</time>
      </trkpt>
      <trkpt lat="40.261467" lon="-4.890633">
        <ele>1173.0</ele>
        <time>2018-09-15T12:29:04Z</time>
      </trkpt>
      <trkpt lat="40.261417" lon="-4.890750">
        <ele>1174.0</ele>
        <time>2018-09-15T12:29:05Z</time>
      </trkpt>
      <trkpt lat="40.261367" lon="-4.890817">
        <ele>1174.0</ele>
        <time>2018-09-15T12:29:06Z</time>
      </trkpt>
      <trkpt lat="40.261317" lon="-4.890867">
        <ele>1176.0</ele>
        <time>2018-09-15T12:29:07Z</time>
      </trkpt>
      <trkpt lat="40.261250" lon="-4.890867">
        <ele>1178.0</ele>
        <time>2018-09-15T12:29:08Z</time>
      </trkpt>
      <trkpt lat="40.261183" lon="-4.890867">
        <ele>1179.0</ele>
        <time>2018-09-15T12:29:09Z</time>
      </trkpt>
      <trkpt lat="40.261133" lon="-4.890850">
        <ele>1181.0</ele>
        <time>2018-09-15T12:29:10Z</time>
      </trkpt>
      <trkpt lat="40.261083" lon="-4.890833">
        <ele>1183.0</ele>
        <time>2018-09-15T12:29:11Z</time>
      </trkpt>
      <trkpt lat="40.261050" lon="-4.890783">
        <ele>1184.0</ele>
        <time>2018-09-15T12:29:12Z</time>
      </trkpt>
      <trkpt lat="40.261017" lon="-4.890717">
        <ele>1186.0</ele>
        <time>2018-09-15T12:29:13Z</time>
      </trkpt>
      <trkpt lat="40.261017" lon="-4.890617">
        <ele>1187.0</ele>
        <time>2018-09-15T12:29:14Z</time>
      </trkpt>
      <trkpt lat="40.261050" lon="-4.890517">
        <ele>1188.0</ele>
        <time>2018-09-15T12:29:15Z</time>
      </trkpt>
      <trkpt lat="40.261117" lon="-4.890450">
        <ele>1190.0</ele>
        <time>2018-09-15T12:29:16Z</time>
      </trkpt>
      <trkpt lat="40.261200" lon="-4.890433">
        <ele>1191.0</ele>
        <time>2018-09-15T12:29:17Z</time>
      </trkpt>
      <trkpt lat="40.261300" lon="-4.890450">
        <ele>1193.0</ele>
        <time>2018-09-15T12:29:18Z</time>
      </trkpt>
      <trkpt lat="40.261400" lon="-4.890500">
        <ele>1193.0</ele>
        <time>2018-09-15T12:29:19Z</time>
      </trkpt>
      <trkpt lat="40.261500" lon="-4.890600">
        <ele>1194.0</ele>
        <time>2018-09-15T12:29:20Z</time>
      </trkpt>
      <trkpt lat="40.261567" lon="-4.890733">
        <ele>1195.0</ele>
        <time>2018-09-15T12:29:21Z</time>
      </trkpt>
      <trkpt lat="40.261567" lon="-4.890867">
        <ele>1196.0</ele>
        <time>2018-09-15T12:29:22Z</time>
      </trkpt>
      <trkpt lat="40.261533" lon="-4.890983">
        <ele>1197.0</ele>
        <time>2018-09-15T12:29:23Z</time>
      </trkpt>
      <trkpt lat="40.261483" lon="-4.891050">
        <ele>1200.0</ele>
        <time>2018-09-15T12:29:24Z</time>
      </trkpt>
      <trkpt lat="40.261433" lon="-4.891100">
        <ele>1203.0</ele>
        <time>2018-09-15T12:29:25Z</time>
      </trkpt>
      <trkpt lat="40.261383" lon="-4.891117">
        <ele>1205.0</ele>
        <time>2018-09-15T12:29:26Z</time>
      </trkpt>
      <trkpt lat="40.261317" lon="-4.891150">
        <ele>1207.0</ele>
        <time>2018-09-15T12:29:27Z</time>
      </trkpt>
      <trkpt lat="40.261267" lon="-4.891167">
        <ele>1209.0</ele>
        <time>2018-09-15T12:29:28Z</time>
      </trkpt>
      <trkpt lat="40.261217" lon="-4.891167">
        <ele>1211.0</ele>
        <time>2018-09-15T12:29:29Z</time>
      </trkpt>
      <trkpt lat="40.261167" lon="-4.891150">
        <ele>1212.0</ele>
        <time>2018-09-15T12:29:30Z</time>
      </trkpt>
      <trkpt lat="40.261117" lon="-4.891100">
        <ele>1213.0</ele>
        <time>2018-09-15T12:29:31Z</time>
      </trkpt>
      <trkpt lat="40.261100" lon="-4.891017">
        <ele>1213.0</ele>
        <time>2018-09-15T12:29:32Z</time>
      </trkpt>
      <trkpt lat="40.261100" lon="-4.890917">
        <ele>1213.0</ele>
        <time>2018-09-15T12:29:33Z</time>
      </trkpt>
      <trkpt lat="40.261133" lon="-4.890850">
        <ele>1214.0</ele>
        <time>2018-09-15T12:29:34Z</time>
      </trkpt>
      <trkpt lat="40.261200" lon="-4.890783">
        <ele>1214.0</ele>
        <time>2018-09-15T12:29:35Z</time>
      </trkpt>
      <trkpt lat="40.261283" lon="-4.890750">
        <ele>1214.0</ele>
        <time>2018-09-15T12:29:36Z</time>
      </trkpt>
      <trkpt lat="40.261400" lon="-4.890750">
        <ele>1213.0</ele>
        <time>2018-09-15T12:29:37Z</time>
      </trkpt>
      <trkpt lat="40.261500" lon="-4.890783">
        <ele>1213.0</ele>
        <time>2018-09-15T12:29:38Z</time>
      </trkpt>
      <trkpt lat="40.261600" lon="-4.890883">
        <ele>1213.0</ele>
        <time>2018-09-15T12:29:39Z</time>
      </trkpt>
      <trkpt lat="40.261683" lon="-4.891000">
        <ele>1212.0</ele>
        <time>2018-09-15T12:29:40Z</time>
      </trkpt>
      <trkpt lat="40.261717" lon="-4.891133">
        <ele>1212.0</ele>
        <time>2018-09-15T12:29:41Z</time>
      </trkpt>
      <trkpt lat="40.261717" lon="-4.891267">
        <ele>1212.0</ele>
        <time>2018-09-15T12:29:42Z</time>
      </trkpt>
      <trkpt lat="40.261683" lon="-4.891367">
        <ele>1212.0</ele>
        <time>2018-09-15T12:29:43Z</time>
      </trkpt>
      <trkpt lat="40.261633" lon="-4.891433">
        <ele>1213.0</ele>
        <time>2018-09-15T12:29:44Z</time>
      </trkpt>
      <trkpt lat="40.261567" lon="-4.891483">
        <ele>1213.0</ele>
        <time>2018-09-15T12:29:45Z</time>
      </trkpt>
      <trkpt lat="40.261517" lon="-4.891533">
        <ele>1214.0</ele>
        <time>2018-09-15T12:29:46Z</time>
      </trkpt>
      <trkpt lat="40.261483" lon="-4.891567">
        <ele>1216.0</ele>
        <time>2018-09-15T12:29:47Z</time>
      </trkpt>
      <trkpt lat="40.261433" lon="-4.891617">
        <ele>1216.0</ele>
        <time>2018-09-15T12:29:48Z</time>
      </trkpt>
      <trkpt lat="40.261367" lon="-4.891650">
        <ele>1216.0</ele>
        <time>2018-09-15T12:29:49Z</time>
      </trkpt>
      <trkpt lat="40.261317" lon="-4.891700">
        <ele>1216.0</ele>
        <time>2018-09-15T12:29:50Z</time>
      </trkpt>
      <trkpt lat="40.261250" lon="-4.891750">
        <ele>1216.0</ele>
        <time>2018-09-15T12:29:51Z</time>
      </trkpt>
      <trkpt lat="40.261200" lon="-4.891800">
        <ele>1217.0</ele>
        <time>2018-09-15T12:29:52Z</time>
      </trkpt>
      <trkpt lat="40.261150" lon="-4.891833">
        <ele>1217.0</ele>
        <time>2018-09-15T12:29:53Z</time>
      </trkpt>
      <trkpt lat="40.261100" lon="-4.891833">
        <ele>1218.0</ele>
        <time>2018-09-15T12:29:54Z</time>
      </trkpt>
      <trkpt lat="40.261050" lon="-4.891833">
        <ele>1218.0</ele>
        <time>2018-09-15T12:29:55Z</time>
      </trkpt>
      <trkpt lat="40.261017" lon="-4.891833">
        <ele>1218.0</ele>
        <time>2018-09-15T12:29:56Z</time>
      </trkpt>
      <trkpt lat="40.260967" lon="-4.891833">
        <ele>1218.0</ele>
        <time>2018-09-15T12:29:57Z</time>
      </trkpt>
      <trkpt lat="40.260917" lon="-4.891817">
        <ele>1218.0</ele>
        <time>2018-09-15T12:29:58Z</time>
      </trkpt>
      <trkpt lat="40.260867" lon="-4.891783">
        <ele>1218.0</ele>
        <time>2018-09-15T12:29:59Z</time>
      </trkpt>
      <trkpt lat="40.260817" lon="-4.891750">
        <ele>1217.0</ele>
        <time>2018-09-15T12:30:00Z</time>
      </trkpt>
      <trkpt lat="40.260783" lon="-4.891700">
        <ele>1217.0</ele>
        <time>2018-09-15T12:30:01Z</time>
      </trkpt>
      <trkpt lat="40.260767" lon="-4.891650">
        <ele>1216.0</ele>
        <time>2018-09-15T12:30:02Z</time>
      </trkpt>
      <trkpt lat="40.260750" lon="-4.891600">
        <ele>1215.0</ele>
        <time>2018-09-15T12:30:03Z</time>
      </trkpt>
      <trkpt lat="40.260767" lon="-4.891517">
        <ele>1212.0</ele>
        <time>2018-09-15T12:30:04Z</time>
      </trkpt>
      <trkpt lat="40.260783" lon="-4.891450">
        <ele>1210.0</ele>
        <time>2018-09-15T12:30:05Z</time>
      </trkpt>
      <trkpt lat="40.260833" lon="-4.891367">
        <ele>1208.0</ele>
        <time>2018-09-15T12:30:06Z</time>
      </trkpt>
      <trkpt lat="40.260900" lon="-4.891317">
        <ele>1206.0</ele>
        <time>2018-09-15T12:30:07Z</time>
      </trkpt>
      <trkpt lat="40.260983" lon="-4.891300">
        <ele>1205.0</ele>
        <time>2018-09-15T12:30:08Z</time>
      </trkpt>
      <trkpt lat="40.261067" lon="-4.891300">
        <ele>1204.0</ele>
        <time>2018-09-15T12:30:09Z</time>
      </trkpt>
      <trkpt lat="40.261167" lon="-4.891333">
        <ele>1202.0</ele>
        <time>2018-09-15T12:30:10Z</time>
      </trkpt>
      <trkpt lat="40.261283" lon="-4.891400">
        <ele>1200.0</ele>
        <time>2018-09-15T12:30:11Z</time>
      </trkpt>
      <trkpt lat="40.261367" lon="-4.891517">
        <ele>1199.0</ele>
        <time>2018-09-15T12:30:12Z</time>
      </trkpt>
      <trkpt lat="40.261417" lon="-4.891667">
        <ele>1198.0</ele>
        <time>2018-09-15T12:30:13Z</time>
      </trkpt>
      <trkpt lat="40.261433" lon="-4.891800">
        <ele>1196.0</ele>
        <time>2018-09-15T12:30:14Z</time>
      </trkpt>
      <trkpt lat="40.261417" lon="-4.891933">
        <ele>1196.0</ele>
        <time>2018-09-15T12:30:15Z</time>
      </trkpt>
      <trkpt lat="40.261400" lon="-4.892033">
        <ele>1196.0</ele>
        <time>2018-09-15T12:30:16Z</time>
      </trkpt>
      <trkpt lat="40.261383" lon="-4.892117">
        <ele>1197.0</ele>
        <time>2018-09-15T12:30:17Z</time>
      </trkpt>
      <trkpt lat="40.261350" lon="-4.892217">
        <ele>1198.0</ele>
        <time>2018-09-15T12:30:18Z</time>
      </trkpt>
      <trkpt lat="40.261317" lon="-4.892300">
        <ele>1198.0</ele>
        <time>2018-09-15T12:30:19Z</time>
      </trkpt>
      <trkpt lat="40.261267" lon="-4.892383">
        <ele>1198.0</ele>
        <time>2018-09-15T12:30:20Z</time>
      </trkpt>
      <trkpt lat="40.261217" lon="-4.892483">
        <ele>1198.0</ele>
        <time>2018-09-15T12:30:21Z</time>
      </trkpt>
      <trkpt lat="40.261183" lon="-4.892583">
        <ele>1198.0</ele>
        <time>2018-09-15T12:30:22Z</time>
      </trkpt>
      <trkpt lat="40.261150" lon="-4.892700">
        <ele>1198.0</ele>
        <time>2018-09-15T12:30:23Z</time>
      </trkpt>
      <trkpt lat="40.261100" lon="-4.892783">
        <ele>1199.0</ele>
        <time>2018-09-15T12:30:24Z</time>
      </trkpt>
      <trkpt lat="40.261033" lon="-4.892867">
        <ele>1198.0</ele>
        <time>2018-09-15T12:30:25Z</time>
      </trkpt>
      <trkpt lat="40.260967" lon="-4.892933">
        <ele>1198.0</ele>
        <time>2018-09-15T12:30:26Z</time>
      </trkpt>
      <trkpt lat="40.260917" lon="-4.893017">
        <ele>1199.0</ele>
        <time>2018-09-15T12:30:27Z</time>
      </trkpt>
      <trkpt lat="40.260867" lon="-4.893133">
        <ele>1199.0</ele>
        <time>2018-09-15T12:30:28Z</time>
      </trkpt>
      <trkpt lat="40.260833" lon="-4.893233">
        <ele>1199.0</ele>
        <time>2018-09-15T12:30:29Z</time>
      </trkpt>
      <trkpt lat="40.260783" lon="-4.893333">
        <ele>1200.0</ele>
        <time>2018-09-15T12:30:30Z</time>
      </trkpt>
      <trkpt lat="40.260717" lon="-4.893417">
        <ele>1201.0</ele>
        <time>2018-09-15T12:30:31Z</time>
      </trkpt>
      <trkpt lat="40.260683" lon="-4.893500">
        <ele>1202.0</ele>
        <time>2018-09-15T12:30:32Z</time>
      </trkpt>
      <trkpt lat="40.260633" lon="-4.893583">
        <ele>1203.0</ele>
        <time>2018-09-15T12:30:33Z</time>
      </trkpt>
      <trkpt lat="40.260600" lon="-4.893683">
        <ele>1203.0</ele>
        <time>2018-09-15T12:30:34Z</time>
      </trkpt>
      <trkpt lat="40.260567" lon="-4.893800">
        <ele>1205.0</ele>
        <time>2018-09-15T12:30:35Z</time>
      </trkpt>
      <trkpt lat="40.260533" lon="-4.893883">
        <ele>1207.0</ele>
        <time>2018-09-15T12:30:36Z</time>
      </trkpt>
      <trkpt lat="40.260500" lon="-4.893967">
        <ele>1212.0</ele>
        <time>2018-09-15T12:30:37Z</time>
      </trkpt>
      <trkpt lat="40.260500" lon="-4.894050">
        <ele>1215.0</ele>
        <time>2018-09-15T12:30:38Z</time>
      </trkpt>
      <trkpt lat="40.260500" lon="-4.894150">
        <ele>1218.0</ele>
        <time>2018-09-15T12:30:39Z</time>
      </trkpt>
      <trkpt lat="40.260467" lon="-4.894267">
        <ele>1220.0</ele>
        <time>2018-09-15T12:30:40Z</time>
      </trkpt>
      <trkpt lat="40.260433" lon="-4.894367">
        <ele>1221.0</ele>
        <time>2018-09-15T12:30:41Z</time>
      </trkpt>
      <trkpt lat="40.260367" lon="-4.894400">
        <ele>1222.0</ele>
        <time>2018-09-15T12:30:42Z</time>
      </trkpt>
      <trkpt lat="40.260300" lon="-4.894383">
        <ele>1223.0</ele>
        <time>2018-09-15T12:30:43Z</time>
      </trkpt>
      <trkpt lat="40.260267" lon="-4.894317">
        <ele>1224.0</ele>
        <time>2018-09-15T12:30:44Z</time>
      </trkpt>
      <trkpt lat="40.260250" lon="-4.894233">
        <ele>1225.0</ele>
        <time>2018-09-15T12:30:45Z</time>
      </trkpt>
      <trkpt lat="40.260250" lon="-4.894150">
        <ele>1226.0</ele>
        <time>2018-09-15T12:30:46Z</time>
      </trkpt>
      <trkpt lat="40.260317" lon="-4.894083">
        <ele>1228.0</ele>
        <time>2018-09-15T12:30:47Z</time>
      </trkpt>
      <trkpt lat="40.260400" lon="-4.894050">
        <ele>1229.0</ele>
        <time>2018-09-15T12:30:48Z</time>
      </trkpt>
      <trkpt lat="40.260500" lon="-4.894050">
        <ele>1230.0</ele>
        <time>2018-09-15T12:30:49Z</time>
      </trkpt>
      <trkpt lat="40.260617" lon="-4.894117">
        <ele>1230.0</ele>
        <time>2018-09-15T12:30:50Z</time>
      </trkpt>
      <trkpt lat="40.260683" lon="-4.894233">
        <ele>1231.0</ele>
        <time>2018-09-15T12:30:51Z</time>
      </trkpt>
      <trkpt lat="40.260717" lon="-4.894400">
        <ele>1232.0</ele>
        <time>2018-09-15T12:30:52Z</time>
      </trkpt>
      <trkpt lat="40.260683" lon="-4.894517">
        <ele>1232.0</ele>
        <time>2018-09-15T12:30:53Z</time>
      </trkpt>
      <trkpt lat="40.260633" lon="-4.894600">
        <ele>1234.0</ele>
        <time>2018-09-15T12:30:54Z</time>
      </trkpt>
      <trkpt lat="40.260567" lon="-4.894600">
        <ele>1235.0</ele>
        <time>2018-09-15T12:30:55Z</time>
      </trkpt>
      <trkpt lat="40.260517" lon="-4.894550">
        <ele>1237.0</ele>
        <time>2018-09-15T12:30:56Z</time>
      </trkpt>
      <trkpt lat="40.260467" lon="-4.894483">
        <ele>1238.0</ele>
        <time>2018-09-15T12:30:57Z</time>
      </trkpt>
      <trkpt lat="40.260467" lon="-4.894417">
        <ele>1241.0</ele>
        <time>2018-09-15T12:30:58Z</time>
      </trkpt>
      <trkpt lat="40.260483" lon="-4.894333">
        <ele>1243.0</ele>
        <time>2018-09-15T12:30:59Z</time>
      </trkpt>
      <trkpt lat="40.260517" lon="-4.894250">
        <ele>1246.0</ele>
        <time>2018-09-15T12:31:00Z</time>
      </trkpt>
      <trkpt lat="40.260583" lon="-4.894183">
        <ele>1248.0</ele>
        <time>2018-09-15T12:31:01Z</time>
      </trkpt>
      <trkpt lat="40.260683" lon="-4.894150">
        <ele>1249.0</ele>
        <time>2018-09-15T12:31:02Z</time>
      </trkpt>
      <trkpt lat="40.260800" lon="-4.894167">
        <ele>1251.0</ele>
        <time>2018-09-15T12:31:03Z</time>
      </trkpt>
      <trkpt lat="40.260900" lon="-4.894250">
        <ele>1252.0</ele>
        <time>2018-09-15T12:31:04Z</time>
      </trkpt>
      <trkpt lat="40.260967" lon="-4.894367">
        <ele>1253.0</ele>
        <time>2018-09-15T12:31:05Z</time>
      </trkpt>
      <trkpt lat="40.260983" lon="-4.894517">
        <ele>1253.0</ele>
        <time>2018-09-15T12:31:06Z</time>
      </trkpt>
      <trkpt lat="40.260933" lon="-4.894650">
        <ele>1254.0</ele>
        <time>2018-09-15T12:31:07Z</time>
      </trkpt>
      <trkpt lat="40.260867" lon="-4.894717">
        <ele>1254.0</ele>
        <time>2018-09-15T12:31:08Z</time>
      </trkpt>
      <trkpt lat="40.260783" lon="-4.894700">
        <ele>1255.0</ele>
        <time>2018-09-15T12:31:09Z</time>
      </trkpt>
      <trkpt lat="40.260733" lon="-4.894650">
        <ele>1257.0</ele>
        <time>2018-09-15T12:31:10Z</time>
      </trkpt>
      <trkpt lat="40.260717" lon="-4.894583">
        <ele>1259.0</ele>
        <time>2018-09-15T12:31:11Z</time>
      </trkpt>
      <trkpt lat="40.260733" lon="-4.894517">
        <ele>1262.0</ele>
        <time>2018-09-15T12:31:12Z</time>
      </trkpt>
      <trkpt lat="40.260767" lon="-4.894450">
        <ele>1265.0</ele>
        <time>2018-09-15T12:31:13Z</time>
      </trkpt>
      <trkpt lat="40.260817" lon="-4.894400">
        <ele>1268.0</ele>
        <time>2018-09-15T12:31:14Z</time>
      </trkpt>
      <trkpt lat="40.260883" lon="-4.894367">
        <ele>1270.0</ele>
        <time>2018-09-15T12:31:15Z</time>
      </trkpt>
      <trkpt lat="40.260950" lon="-4.894350">
        <ele>1272.0</ele>
        <time>2018-09-15T12:31:16Z</time>
      </trkpt>
      <trkpt lat="40.261050" lon="-4.894350">
        <ele>1272.0</ele>
        <time>2018-09-15T12:31:17Z</time>
      </trkpt>
      <trkpt lat="40.261150" lon="-4.894417">
        <ele>1272.0</ele>
        <time>2018-09-15T12:31:18Z</time>
      </trkpt>
      <trkpt lat="40.261217" lon="-4.894533">
        <ele>1272.0</ele>
        <time>2018-09-15T12:31:19Z</time>
      </trkpt>
      <trkpt lat="40.261250" lon="-4.894683">
        <ele>1272.0</ele>
        <time>2018-09-15T12:31:20Z</time>
      </trkpt>
      <trkpt lat="40.261233" lon="-4.894817">
        <ele>1273.0</ele>
        <time>2018-09-15T12:31:21Z</time>
      </trkpt>
      <trkpt lat="40.261167" lon="-4.894917">
        <ele>1273.0</ele>
        <time>2018-09-15T12:31:22Z</time>
      </trkpt>
      <trkpt lat="40.261100" lon="-4.894967">
        <ele>1273.0</ele>
        <time>2018-09-15T12:31:23Z</time>
      </trkpt>
      <trkpt lat="40.261033" lon="-4.895000">
        <ele>1275.0</ele>
        <time>2018-09-15T12:31:24Z</time>
      </trkpt>
      <trkpt lat="40.260983" lon="-4.895017">
        <ele>1278.0</ele>
        <time>2018-09-15T12:31:25Z</time>
      </trkpt>
      <trkpt lat="40.260933" lon="-4.895033">
        <ele>1281.0</ele>
        <time>2018-09-15T12:31:26Z</time>
      </trkpt>
      <trkpt lat="40.260883" lon="-4.895050">
        <ele>1283.0</ele>
        <time>2018-09-15T12:31:27Z</time>
      </trkpt>
      <trkpt lat="40.260817" lon="-4.895050">
        <ele>1285.0</ele>
        <time>2018-09-15T12:31:28Z</time>
      </trkpt>
      <trkpt lat="40.260767" lon="-4.895033">
        <ele>1288.0</ele>
        <time>2018-09-15T12:31:29Z</time>
      </trkpt>
      <trkpt lat="40.260717" lon="-4.894983">
        <ele>1290.0</ele>
        <time>2018-09-15T12:31:30Z</time>
      </trkpt>
      <trkpt lat="40.260717" lon="-4.894917">
        <ele>1291.0</ele>
        <time>2018-09-15T12:31:31Z</time>
      </trkpt>
      <trkpt lat="40.260750" lon="-4.894833">
        <ele>1292.0</ele>
        <time>2018-09-15T12:31:32Z</time>
      </trkpt>
      <trkpt lat="40.260800" lon="-4.894783">
        <ele>1292.0</ele>
        <time>2018-09-15T12:31:33Z</time>
      </trkpt>
      <trkpt lat="40.260900" lon="-4.894767">
        <ele>1292.0</ele>
        <time>2018-09-15T12:31:34Z</time>
      </trkpt>
      <trkpt lat="40.261017" lon="-4.894817">
        <ele>1291.0</ele>
        <time>2018-09-15T12:31:35Z</time>
      </trkpt>
      <trkpt lat="40.261100" lon="-4.894900">
        <ele>1292.0</ele>
        <time>2018-09-15T12:31:36Z</time>
      </trkpt>
      <trkpt lat="40.261167" lon="-4.895033">
        <ele>1293.0</ele>
        <time>2018-09-15T12:31:37Z</time>
      </trkpt>
      <trkpt lat="40.261183" lon="-4.895167">
        <ele>1294.0</ele>
        <time>2018-09-15T12:31:38Z</time>
      </trkpt>
      <trkpt lat="40.261200" lon="-4.895300">
        <ele>1297.0</ele>
        <time>2018-09-15T12:31:39Z</time>
      </trkpt>
      <trkpt lat="40.261200" lon="-4.895400">
        <ele>1300.0</ele>
        <time>2018-09-15T12:31:40Z</time>
      </trkpt>
      <trkpt lat="40.261183" lon="-4.895517">
        <ele>1304.0</ele>
        <time>2018-09-15T12:31:41Z</time>
      </trkpt>
      <trkpt lat="40.261183" lon="-4.895633">
        <ele>1307.0</ele>
        <time>2018-09-15T12:31:42Z</time>
      </trkpt>
      <trkpt lat="40.261167" lon="-4.895750">
        <ele>1309.0</ele>
        <time>2018-09-15T12:31:43Z</time>
      </trkpt>
      <trkpt lat="40.261150" lon="-4.895900">
        <ele>1311.0</ele>
        <time>2018-09-15T12:31:44Z</time>
      </trkpt>
      <trkpt lat="40.261133" lon="-4.896050">
        <ele>1313.0</ele>
        <time>2018-09-15T12:31:45Z</time>
      </trkpt>
      <trkpt lat="40.261133" lon="-4.896183">
        <ele>1316.0</ele>
        <time>2018-09-15T12:31:46Z</time>
      </trkpt>
      <trkpt lat="40.261167" lon="-4.896300">
        <ele>1318.0</ele>
        <time>2018-09-15T12:31:47Z</time>
      </trkpt>
      <trkpt lat="40.261250" lon="-4.896383">
        <ele>1318.0</ele>
        <time>2018-09-15T12:31:48Z</time>
      </trkpt>
      <trkpt lat="40.261350" lon="-4.896450">
        <ele>1318.0</ele>
        <time>2018-09-15T12:31:49Z</time>
      </trkpt>
      <trkpt lat="40.261450" lon="-4.896450">
        <ele>1319.0</ele>
        <time>2018-09-15T12:31:50Z</time>
      </trkpt>
      <trkpt lat="40.261533" lon="-4.896400">
        <ele>1320.0</ele>
        <time>2018-09-15T12:31:51Z</time>
      </trkpt>
      <trkpt lat="40.261583" lon="-4.896300">
        <ele>1320.0</ele>
        <time>2018-09-15T12:31:52Z</time>
      </trkpt>
      <trkpt lat="40.261567" lon="-4.896200">
        <ele>1321.0</ele>
        <time>2018-09-15T12:31:53Z</time>
      </trkpt>
      <trkpt lat="40.261500" lon="-4.896133">
        <ele>1322.0</ele>
        <time>2018-09-15T12:31:54Z</time>
      </trkpt>
      <trkpt lat="40.261417" lon="-4.896133">
        <ele>1322.0</ele>
        <time>2018-09-15T12:31:55Z</time>
      </trkpt>
      <trkpt lat="40.261333" lon="-4.896183">
        <ele>1323.0</ele>
        <time>2018-09-15T12:31:56Z</time>
      </trkpt>
      <trkpt lat="40.261250" lon="-4.896283">
        <ele>1324.0</ele>
        <time>2018-09-15T12:31:57Z</time>
      </trkpt>
      <trkpt lat="40.261200" lon="-4.896383">
        <ele>1326.0</ele>
        <time>2018-09-15T12:31:58Z</time>
      </trkpt>
      <trkpt lat="40.261150" lon="-4.896500">
        <ele>1329.0</ele>
        <time>2018-09-15T12:31:59Z</time>
      </trkpt>
      <trkpt lat="40.261117" lon="-4.896600">
        <ele>1332.0</ele>
        <time>2018-09-15T12:32:00Z</time>
      </trkpt>
      <trkpt lat="40.261083" lon="-4.896700">
        <ele>1334.0</ele>
        <time>2018-09-15T12:32:01Z</time>
      </trkpt>
      <trkpt lat="40.261067" lon="-4.896833">
        <ele>1335.0</ele>
        <time>2018-09-15T12:32:02Z</time>
      </trkpt>
      <trkpt lat="40.261083" lon="-4.896967">
        <ele>1337.0</ele>
        <time>2018-09-15T12:32:03Z</time>
      </trkpt>
      <trkpt lat="40.261133" lon="-4.897100">
        <ele>1338.0</ele>
        <time>2018-09-15T12:32:04Z</time>
      </trkpt>
      <trkpt lat="40.261217" lon="-4.897200">
        <ele>1339.0</ele>
        <time>2018-09-15T12:32:05Z</time>
      </trkpt>
      <trkpt lat="40.261300" lon="-4.897250">
        <ele>1339.0</ele>
        <time>2018-09-15T12:32:06Z</time>
      </trkpt>
      <trkpt lat="40.261417" lon="-4.897267">
        <ele>1339.0</ele>
        <time>2018-09-15T12:32:07Z</time>
      </trkpt>
      <trkpt lat="40.261517" lon="-4.897233">
        <ele>1339.0</ele>
        <time>2018-09-15T12:32:08Z</time>
      </trkpt>
      <trkpt lat="40.261600" lon="-4.897183">
        <ele>1339.0</ele>
        <time>2018-09-15T12:32:09Z</time>
      </trkpt>
      <trkpt lat="40.261667" lon="-4.897117">
        <ele>1340.0</ele>
        <time>2018-09-15T12:32:10Z</time>
      </trkpt>
      <trkpt lat="40.261683" lon="-4.897000">
        <ele>1340.0</ele>
        <time>2018-09-15T12:32:11Z</time>
      </trkpt>
      <trkpt lat="40.261650" lon="-4.896917">
        <ele>1339.0</ele>
        <time>2018-09-15T12:32:12Z</time>
      </trkpt>
      <trkpt lat="40.261567" lon="-4.896867">
        <ele>1338.0</ele>
        <time>2018-09-15T12:32:13Z</time>
      </trkpt>
      <trkpt lat="40.261483" lon="-4.896867">
        <ele>1338.0</ele>
        <time>2018-09-15T12:32:14Z</time>
      </trkpt>
      <trkpt lat="40.261400" lon="-4.896900">
        <ele>1338.0</ele>
        <time>2018-09-15T12:32:15Z</time>
      </trkpt>
      <trkpt lat="40.261350" lon="-4.896933">
        <ele>1340.0</ele>
        <time>2018-09-15T12:32:16Z</time>
      </trkpt>
      <trkpt lat="40.261283" lon="-4.896950">
        <ele>1342.0</ele>
        <time>2018-09-15T12:32:17Z</time>
      </trkpt>
      <trkpt lat="40.261217" lon="-4.896983">
        <ele>1345.0</ele>
        <time>2018-09-15T12:32:18Z</time>
      </trkpt>
      <trkpt lat="40.261167" lon="-4.897017">
        <ele>1347.0</ele>
        <time>2018-09-15T12:32:19Z</time>
      </trkpt>
      <trkpt lat="40.261100" lon="-4.897083">
        <ele>1349.0</ele>
        <time>2018-09-15T12:32:20Z</time>
      </trkpt>
      <trkpt lat="40.261050" lon="-4.897167">
        <ele>1346.0</ele>
        <time>2018-09-15T12:32:21Z</time>
      </trkpt>
      <trkpt lat="40.261033" lon="-4.897317">
        <ele>1347.0</ele>
        <time>2018-09-15T12:32:22Z</time>
      </trkpt>
      <trkpt lat="40.261050" lon="-4.897467">
        <ele>1347.0</ele>
        <time>2018-09-15T12:32:23Z</time>
      </trkpt>
      <trkpt lat="40.261117" lon="-4.897617">
        <ele>1347.0</ele>
        <time>2018-09-15T12:32:24Z</time>
      </trkpt>
      <trkpt lat="40.261233" lon="-4.897700">
        <ele>1348.0</ele>
        <time>2018-09-15T12:32:25Z</time>
      </trkpt>
      <trkpt lat="40.261350" lon="-4.897717">
        <ele>1347.0</ele>
        <time>2018-09-15T12:32:26Z</time>
      </trkpt>
      <trkpt lat="40.261417" lon="-4.897683">
        <ele>1347.0</ele>
        <time>2018-09-15T12:32:27Z</time>
      </trkpt>
      <trkpt lat="40.261450" lon="-4.897617">
        <ele>1346.0</ele>
        <time>2018-09-15T12:32:28Z</time>
      </trkpt>
      <trkpt lat="40.261417" lon="-4.897550">
        <ele>1346.0</ele>
        <time>2018-09-15T12:32:29Z</time>
      </trkpt>
      <trkpt lat="40.261367" lon="-4.897550">
        <ele>1348.0</ele>
        <time>2018-09-15T12:32:30Z</time>
      </trkpt>
      <trkpt lat="40.261300" lon="-4.897550">
        <ele>1347.0</ele>
        <time>2018-09-15T12:32:31Z</time>
      </trkpt>
      <trkpt lat="40.261250" lon="-4.897583">
        <ele>1348.0</ele>
        <time>2018-09-15T12:32:32Z</time>
      </trkpt>
      <trkpt lat="40.261217" lon="-4.897617">
        <ele>1350.0</ele>
        <time>2018-09-15T12:32:33Z</time>
      </trkpt>
      <trkpt lat="40.261167" lon="-4.897650">
        <ele>1352.0</ele>
        <time>2018-09-15T12:32:34Z</time>
      </trkpt>
      <trkpt lat="40.261117" lon="-4.897717">
        <ele>1354.0</ele>
        <time>2018-09-15T12:32:35Z</time>
      </trkpt>
      <trkpt lat="40.261067" lon="-4.897800">
        <ele>1355.0</ele>
        <time>2018-09-15T12:32:36Z</time>
      </trkpt>
      <trkpt lat="40.261033" lon="-4.897917">
        <ele>1357.0</ele>
        <time>2018-09-15T12:32:37Z</time>
      </trkpt>
      <trkpt lat="40.261050" lon="-4.898067">
        <ele>1359.0</ele>
        <time>2018-09-15T12:32:38Z</time>
      </trkpt>
      <trkpt lat="40.261133" lon="-4.898200">
        <ele>1361.0</ele>
        <time>2018-09-15T12:32:39Z</time>
      </trkpt>
      <trkpt lat="40.261233" lon="-4.898300">
        <ele>1364.0</ele>
        <time>2018-09-15T12:32:40Z</time>
      </trkpt>
      <trkpt lat="40.261350" lon="-4.898350">
        <ele>1366.0</ele>
        <time>2018-09-15T12:32:41Z</time>
      </trkpt>
      <trkpt lat="40.261467" lon="-4.898333">
        <ele>1368.0</ele>
        <time>2018-09-15T12:32:42Z</time>
      </trkpt>
      <trkpt lat="40.261550" lon="-4.898283">
        <ele>1370.0</ele>
        <time>2018-09-15T12:32:43Z</time>
      </trkpt>
      <trkpt lat="40.261600" lon="-4.898200">
        <ele>1371.0</ele>
        <time>2018-09-15T12:32:44Z</time>
      </trkpt>
      <trkpt lat="40.261600" lon="-4.898133">
        <ele>1373.0</ele>
        <time>2018-09-15T12:32:45Z</time>
      </trkpt>
      <trkpt lat="40.261567" lon="-4.898067">
        <ele>1374.0</ele>
        <time>2018-09-15T12:32:46Z</time>
      </trkpt>
      <trkpt lat="40.261517" lon="-4.898033">
        <ele>1375.0</ele>
        <time>2018-09-15T12:32:47Z</time>
      </trkpt>
      <trkpt lat="40.261483" lon="-4.898033">
        <ele>1377.0</ele>
        <time>2018-09-15T12:32:48Z</time>
      </trkpt>
      <trkpt lat="40.261450" lon="-4.898050">
        <ele>1381.0</ele>
        <time>2018-09-15T12:32:49Z</time>
      </trkpt>
      <trkpt lat="40.261417" lon="-4.898050">
        <ele>1384.0</ele>
        <time>2018-09-15T12:32:50Z</time>
      </trkpt>
      <trkpt lat="40.261367" lon="-4.898067">
        <ele>1386.0</ele>
        <time>2018-09-15T12:32:51Z</time>
      </trkpt>
      <trkpt lat="40.261300" lon="-4.898133">
        <ele>1388.0</ele>
        <time>2018-09-15T12:32:52Z</time>
      </trkpt>
      <trkpt lat="40.261250" lon="-4.898233">
        <ele>1390.0</ele>
        <time>2018-09-15T12:32:53Z</time>
      </trkpt>
      <trkpt lat="40.261233" lon="-4.898400">
        <ele>1392.0</ele>
        <time>2018-09-15T12:32:54Z</time>
      </trkpt>
      <trkpt lat="40.261267" lon="-4.898567">
        <ele>1393.0</ele>
        <time>2018-09-15T12:32:55Z</time>
      </trkpt>
      <trkpt lat="40.261350" lon="-4.898683">
        <ele>1394.0</ele>
        <time>2018-09-15T12:32:56Z</time>
      </trkpt>
      <trkpt lat="40.261433" lon="-4.898800">
        <ele>1396.0</ele>
        <time>2018-09-15T12:32:57Z</time>
      </trkpt>
      <trkpt lat="40.261517" lon="-4.898850">
        <ele>1397.0</ele>
        <time>2018-09-15T12:32:58Z</time>
      </trkpt>
      <trkpt lat="40.261617" lon="-4.898883">
        <ele>1398.0</ele>
        <time>2018-09-15T12:32:59Z</time>
      </trkpt>
      <trkpt lat="40.261717" lon="-4.898883">
        <ele>1399.0</ele>
        <time>2018-09-15T12:33:00Z</time>
      </trkpt>
      <trkpt lat="40.261800" lon="-4.898850">
        <ele>1400.0</ele>
        <time>2018-09-15T12:33:01Z</time>
      </trkpt>
      <trkpt lat="40.261850" lon="-4.898783">
        <ele>1401.0</ele>
        <time>2018-09-15T12:33:02Z</time>
      </trkpt>
      <trkpt lat="40.261850" lon="-4.898700">
        <ele>1399.0</ele>
        <time>2018-09-15T12:33:03Z</time>
      </trkpt>
      <trkpt lat="40.261833" lon="-4.898650">
        <ele>1399.0</ele>
        <time>2018-09-15T12:33:04Z</time>
      </trkpt>
      <trkpt lat="40.261783" lon="-4.898600">
        <ele>1400.0</ele>
        <time>2018-09-15T12:33:05Z</time>
      </trkpt>
      <trkpt lat="40.261767" lon="-4.898600">
        <ele>1401.0</ele>
        <time>2018-09-15T12:33:06Z</time>
      </trkpt>
      <trkpt lat="40.261767" lon="-4.898583">
        <ele>1402.0</ele>
        <time>2018-09-15T12:33:07Z</time>
      </trkpt>
      <trkpt lat="40.261767" lon="-4.898567">
        <ele>1404.0</ele>
        <time>2018-09-15T12:33:08Z</time>
      </trkpt>
      <trkpt lat="40.261733" lon="-4.898517">
        <ele>1403.0</ele>
        <time>2018-09-15T12:33:09Z</time>
      </trkpt>
      <trkpt lat="40.261667" lon="-4.898483">
        <ele>1403.0</ele>
        <time>2018-09-15T12:33:10Z</time>
      </trkpt>
      <trkpt lat="40.261600" lon="-4.898483">
        <ele>1404.0</ele>
        <time>2018-09-15T12:33:11Z</time>
      </trkpt>
      <trkpt lat="40.261550" lon="-4.898550">
        <ele>1405.0</ele>
        <time>2018-09-15T12:33:12Z</time>
      </trkpt>
      <trkpt lat="40.261550" lon="-4.898683">
        <ele>1405.0</ele>
        <time>2018-09-15T12:33:13Z</time>
      </trkpt>
      <trkpt lat="40.261600" lon="-4.898833">
        <ele>1406.0</ele>
        <time>2018-09-15T12:33:14Z</time>
      </trkpt>
      <trkpt lat="40.261683" lon="-4.898933">
        <ele>1407.0</ele>
        <time>2018-09-15T12:33:15Z</time>
      </trkpt>
      <trkpt lat="40.261800" lon="-4.899000">
        <ele>1408.0</ele>
        <time>2018-09-15T12:33:16Z</time>
      </trkpt>
      <trkpt lat="40.261933" lon="-4.899000">
        <ele>1409.0</ele>
        <time>2018-09-15T12:33:17Z</time>
      </trkpt>
      <trkpt lat="40.262033" lon="-4.898950">
        <ele>1410.0</ele>
        <time>2018-09-15T12:33:18Z</time>
      </trkpt>
      <trkpt lat="40.262067" lon="-4.898867">
        <ele>1413.0</ele>
        <time>2018-09-15T12:33:19Z</time>
      </trkpt>
      <trkpt lat="40.262067" lon="-4.898817">
        <ele>1416.0</ele>
        <time>2018-09-15T12:33:20Z</time>
      </trkpt>
      <trkpt lat="40.262033" lon="-4.898783">
        <ele>1415.0</ele>
        <time>2018-09-15T12:33:21Z</time>
      </trkpt>
      <trkpt lat="40.261950" lon="-4.898800">
        <ele>1415.0</ele>
        <time>2018-09-15T12:33:22Z</time>
      </trkpt>
      <trkpt lat="40.261883" lon="-4.898850">
        <ele>1416.0</ele>
        <time>2018-09-15T12:33:23Z</time>
      </trkpt>
      <trkpt lat="40.261833" lon="-4.898967">
        <ele>1418.0</ele>
        <time>2018-09-15T12:33:24Z</time>
      </trkpt>
      <trkpt lat="40.261833" lon="-4.899117">
        <ele>1421.0</ele>
        <time>2018-09-15T12:33:25Z</time>
      </trkpt>
      <trkpt lat="40.261883" lon="-4.899267">
        <ele>1422.0</ele>
        <time>2018-09-15T12:33:26Z</time>
      </trkpt>
      <trkpt lat="40.261967" lon="-4.899367">
        <ele>1424.0</ele>
        <time>2018-09-15T12:33:27Z</time>
      </trkpt>
      <trkpt lat="40.262083" lon="-4.899383">
        <ele>1425.0</ele>
        <time>2018-09-15T12:33:28Z</time>
      </trkpt>
      <trkpt lat="40.262183" lon="-4.899367">
        <ele>1427.0</ele>
        <time>2018-09-15T12:33:29Z</time>
      </trkpt>
      <trkpt lat="40.262267" lon="-4.899300">
        <ele>1428.0</ele>
        <time>2018-09-15T12:33:30Z</time>
      </trkpt>
      <trkpt lat="40.262300" lon="-4.899233">
        <ele>1430.0</ele>
        <time>2018-09-15T12:33:31Z</time>
      </trkpt>
      <trkpt lat="40.262317" lon="-4.899150">
        <ele>1430.0</ele>
        <time>2018-09-15T12:33:32Z</time>
      </trkpt>
      <trkpt lat="40.262300" lon="-4.899100">
        <ele>1431.0</ele>
        <time>2018-09-15T12:33:33Z</time>
      </trkpt>
      <trkpt lat="40.262267" lon="-4.899100">
        <ele>1432.0</ele>
        <time>2018-09-15T12:33:34Z</time>
      </trkpt>
      <trkpt lat="40.262200" lon="-4.899117">
        <ele>1433.0</ele>
        <time>2018-09-15T12:33:35Z</time>
      </trkpt>
      <trkpt lat="40.262133" lon="-4.899167">
        <ele>1434.0</ele>
        <time>2018-09-15T12:33:36Z</time>
      </trkpt>
      <trkpt lat="40.262083" lon="-4.899283">
        <ele>1436.0</ele>
        <time>2018-09-15T12:33:37Z</time>
      </trkpt>
      <trkpt lat="40.262133" lon="-4.899417">
        <ele>1437.0</ele>
        <time>2018-09-15T12:33:38Z</time>
      </trkpt>
      <trkpt lat="40.262217" lon="-4.899517">
        <ele>1440.0</ele>
        <time>2018-09-15T12:33:39Z</time>
      </trkpt>
      <trkpt lat="40.262333" lon="-4.899600">
        <ele>1443.0</ele>
        <time>2018-09-15T12:33:40Z</time>
      </trkpt>
      <trkpt lat="40.262450" lon="-4.899633">
        <ele>1445.0</ele>
        <time>2018-09-15T12:33:41Z</time>
      </trkpt>
      <trkpt lat="40.262533" lon="-4.899617">
        <ele>1449.0</ele>
        <time>2018-09-15T12:33:42Z</time>
      </trkpt>
      <trkpt lat="40.262567" lon="-4.899550">
        <ele>1452.0</ele>
        <time>2018-09-15T12:33:43Z</time>
      </trkpt>
      <trkpt lat="40.262583" lon="-4.899483">
        <ele>1452.0</ele>
        <time>2018-09-15T12:33:44Z</time>
      </trkpt>
      <trkpt lat="40.262583" lon="-4.899467">
        <ele>1453.0</ele>
        <time>2018-09-15T12:33:45Z</time>
      </trkpt>
      <trkpt lat="40.262517" lon="-4.899500">
        <ele>1455.0</ele>
        <time>2018-09-15T12:33:46Z</time>
      </trkpt>
      <trkpt lat="40.262483" lon="-4.899600">
        <ele>1455.0</ele>
        <time>2018-09-15T12:33:47Z</time>
      </trkpt>
      <trkpt lat="40.262467" lon="-4.899750">
        <ele>1456.0</ele>
        <time>2018-09-15T12:33:48Z</time>
      </trkpt>
      <trkpt lat="40.262517" lon="-4.899883">
        <ele>1457.0</ele>
        <time>2018-09-15T12:33:49Z</time>
      </trkpt>
      <trkpt lat="40.262600" lon="-4.900000">
        <ele>1459.0</ele>
        <time>2018-09-15T12:33:50Z</time>
      </trkpt>
      <trkpt lat="40.262683" lon="-4.900067">
        <ele>1462.0</ele>
        <time>2018-09-15T12:33:51Z</time>
      </trkpt>
      <trkpt lat="40.262783" lon="-4.900083">
        <ele>1464.0</ele>
        <time>2018-09-15T12:33:52Z</time>
      </trkpt>
      <trkpt lat="40.262883" lon="-4.900050">
        <ele>1467.0</ele>
        <time>2018-09-15T12:33:53Z</time>
      </trkpt>
      <trkpt lat="40.262933" lon="-4.900017">
        <ele>1470.0</ele>
        <time>2018-09-15T12:33:54Z</time>
      </trkpt>
      <trkpt lat="40.262950" lon="-4.899950">
        <ele>1470.0</ele>
        <time>2018-09-15T12:33:55Z</time>
      </trkpt>
      <trkpt lat="40.262933" lon="-4.899900">
        <ele>1472.0</ele>
        <time>2018-09-15T12:33:56Z</time>
      </trkpt>
      <trkpt lat="40.262867" lon="-4.899883">
        <ele>1472.0</ele>
        <time>2018-09-15T12:33:57Z</time>
      </trkpt>
      <trkpt lat="40.262783" lon="-4.899933">
        <ele>1472.0</ele>
        <time>2018-09-15T12:33:58Z</time>
      </trkpt>
      <trkpt lat="40.262733" lon="-4.900000">
        <ele>1474.0</ele>
        <time>2018-09-15T12:33:59Z</time>
      </trkpt>
      <trkpt lat="40.262733" lon="-4.900117">
        <ele>1476.0</ele>
        <time>2018-09-15T12:34:00Z</time>
      </trkpt>
      <trkpt lat="40.262817" lon="-4.900217">
        <ele>1477.0</ele>
        <time>2018-09-15T12:34:01Z</time>
      </trkpt>
      <trkpt lat="40.262933" lon="-4.900283">
        <ele>1479.0</ele>
        <time>2018-09-15T12:34:02Z</time>
      </trkpt>
      <trkpt lat="40.263050" lon="-4.900317">
        <ele>1480.0</ele>
        <time>2018-09-15T12:34:03Z</time>
      </trkpt>
      <trkpt lat="40.263150" lon="-4.900367">
        <ele>1482.0</ele>
        <time>2018-09-15T12:34:04Z</time>
      </trkpt>
      <trkpt lat="40.263233" lon="-4.900333">
        <ele>1486.0</ele>
        <time>2018-09-15T12:34:05Z</time>
      </trkpt>
      <trkpt lat="40.263267" lon="-4.900283">
        <ele>1489.0</ele>
        <time>2018-09-15T12:34:06Z</time>
      </trkpt>
      <trkpt lat="40.263267" lon="-4.900217">
        <ele>1488.0</ele>
        <time>2018-09-15T12:34:07Z</time>
      </trkpt>
      <trkpt lat="40.263217" lon="-4.900167">
        <ele>1489.0</ele>
        <time>2018-09-15T12:34:08Z</time>
      </trkpt>
      <trkpt lat="40.263133" lon="-4.900200">
        <ele>1489.0</ele>
        <time>2018-09-15T12:34:09Z</time>
      </trkpt>
      <trkpt lat="40.263083" lon="-4.900317">
        <ele>1490.0</ele>
        <time>2018-09-15T12:34:10Z</time>
      </trkpt>
      <trkpt lat="40.263067" lon="-4.900483">
        <ele>1491.0</ele>
        <time>2018-09-15T12:34:11Z</time>
      </trkpt>
      <trkpt lat="40.263133" lon="-4.900583">
        <ele>1493.0</ele>
        <time>2018-09-15T12:34:12Z</time>
      </trkpt>
      <trkpt lat="40.263233" lon="-4.900650">
        <ele>1495.0</ele>
        <time>2018-09-15T12:34:13Z</time>
      </trkpt>
      <trkpt lat="40.263333" lon="-4.900700">
        <ele>1497.0</ele>
        <time>2018-09-15T12:34:14Z</time>
      </trkpt>
      <trkpt lat="40.263417" lon="-4.900700">
        <ele>1499.0</ele>
        <time>2018-09-15T12:34:15Z</time>
      </trkpt>
      <trkpt lat="40.263483" lon="-4.900650">
        <ele>1502.0</ele>
        <time>2018-09-15T12:34:16Z</time>
      </trkpt>
      <trkpt lat="40.263517" lon="-4.900583">
        <ele>1503.0</ele>
        <time>2018-09-15T12:34:17Z</time>
      </trkpt>
      <trkpt lat="40.263517" lon="-4.900517">
        <ele>1504.0</ele>
        <time>2018-09-15T12:34:18Z</time>
      </trkpt>
      <trkpt lat="40.263467" lon="-4.900533">
        <ele>1504.0</ele>
        <time>2018-09-15T12:34:19Z</time>
      </trkpt>
      <trkpt lat="40.263417" lon="-4.900567">
        <ele>1505.0</ele>
        <time>2018-09-15T12:34:20Z</time>
      </trkpt>
      <trkpt lat="40.263350" lon="-4.900650">
        <ele>1506.0</ele>
        <time>2018-09-15T12:34:21Z</time>
      </trkpt>
      <trkpt lat="40.263350" lon="-4.900767">
        <ele>1506.0</ele>
        <time>2018-09-15T12:34:22Z</time>
      </trkpt>
      <trkpt lat="40.263417" lon="-4.900900">
        <ele>1506.0</ele>
        <time>2018-09-15T12:34:23Z</time>
      </trkpt>
      <trkpt lat="40.263500" lon="-4.900983">
        <ele>1507.0</ele>
        <time>2018-09-15T12:34:24Z</time>
      </trkpt>
      <trkpt lat="40.263583" lon="-4.901033">
        <ele>1507.0</ele>
        <time>2018-09-15T12:34:25Z</time>
      </trkpt>
      <trkpt lat="40.263650" lon="-4.901033">
        <ele>1508.0</ele>
        <time>2018-09-15T12:34:26Z</time>
      </trkpt>
      <trkpt lat="40.263717" lon="-4.901033">
        <ele>1509.0</ele>
        <time>2018-09-15T12:34:27Z</time>
      </trkpt>
      <trkpt lat="40.263817" lon="-4.901050">
        <ele>1511.0</ele>
        <time>2018-09-15T12:34:28Z</time>
      </trkpt>
      <trkpt lat="40.263900" lon="-4.901083">
        <ele>1512.0</ele>
        <time>2018-09-15T12:34:29Z</time>
      </trkpt>
      <trkpt lat="40.263900" lon="-4.901100">
        <ele>1513.0</ele>
        <time>2018-09-15T12:34:30Z</time>
      </trkpt>
      <trkpt lat="40.263800" lon="-4.901050">
        <ele>1514.0</ele>
        <time>2018-09-15T12:34:31Z</time>
      </trkpt>
      <trkpt lat="40.263767" lon="-4.901100">
        <ele>1515.0</ele>
        <time>2018-09-15T12:34:32Z</time>
      </trkpt>
      <trkpt lat="40.263783" lon="-4.901133">
        <ele>1516.0</ele>
        <time>2018-09-15T12:34:33Z</time>
      </trkpt>
      <trkpt lat="40.263783" lon="-4.901150">
        <ele>1517.0</ele>
        <time>2018-09-15T12:34:34Z</time>
      </trkpt>
      <trkpt lat="40.263783" lon="-4.901150">
        <ele>1519.0</ele>
        <time>2018-09-15T12:34:35Z</time>
      </trkpt>
      <trkpt lat="40.263783" lon="-4.901167">
        <ele>1520.0</ele>
        <time>2018-09-15T12:34:36Z</time>
      </trkpt>
      <trkpt lat="40.263833" lon="-4.901150">
        <ele>1522.0</ele>
        <time>2018-09-15T12:34:37Z</time>
      </trkpt>
      <trkpt lat="40.263883" lon="-4.901200">
        <ele>1525.0</ele>
        <time>2018-09-15T12:34:38Z</time>
      </trkpt>
      <trkpt lat="40.263950" lon="-4.901167">
        <ele>1526.0</ele>
        <time>2018-09-15T12:34:39Z</time>
      </trkpt>
      <trkpt lat="40.264033" lon="-4.901100">
        <ele>1527.0</ele>
        <time>2018-09-15T12:34:40Z</time>
      </trkpt>
      <trkpt lat="40.264100" lon="-4.901067">
        <ele>1529.0</ele>
        <time>2018-09-15T12:34:41Z</time>
      </trkpt>
      <trkpt lat="40.264167" lon="-4.901033">
        <ele>1530.0</ele>
        <time>2018-09-15T12:34:42Z</time>
      </trkpt>
      <trkpt lat="40.264183" lon="-4.901017">
        <ele>1532.0</ele>
        <time>2018-09-15T12:34:43Z</time>
      </trkpt>
      <trkpt lat="40.264183" lon="-4.901050">
        <ele>1534.0</ele>
        <time>2018-09-15T12:34:44Z</time>
      </trkpt>
      <trkpt lat="40.264183" lon="-4.901083">
        <ele>1537.0</ele>
        <time>2018-09-15T12:34:45Z</time>
      </trkpt>
      <trkpt lat="40.264217" lon="-4.901100">
        <ele>1540.0</ele>
        <time>2018-09-15T12:34:46Z</time>
      </trkpt>
      <trkpt lat="40.264233" lon="-4.901083">
        <ele>1543.0</ele>
        <time>2018-09-15T12:34:47Z</time>
      </trkpt>
      <trkpt lat="40.264183" lon="-4.901033">
        <ele>1547.0</ele>
        <time>2018-09-15T12:34:48Z</time>
      </trkpt>
      <trkpt lat="40.264133" lon="-4.901017">
        <ele>1552.0</ele>
        <time>2018-09-15T12:34:49Z</time>
      </trkpt>
      <trkpt lat="40.264067" lon="-4.901050">
        <ele>1554.0</ele>
        <time>2018-09-15T12:34:50Z</time>
      </trkpt>
      <trkpt lat="40.263983" lon="-4.901083">
        <ele>1557.0</ele>
        <time>2018-09-15T12:34:51Z</time>
      </trkpt>
      <trkpt lat="40.263933" lon="-4.901117">
        <ele>1561.0</ele>
        <time>2018-09-15T12:34:52Z</time>
      </trkpt>
      <trkpt lat="40.263950" lon="-4.901167">
        <ele>1563.0</ele>
        <time>2018-09-15T12:34:53Z</time>
      </trkpt>
      <trkpt lat="40.263917" lon="-4.901217">
        <ele>1566.0</ele>
        <time>2018-09-15T12:34:54Z</time>
      </trkpt>
      <trkpt lat="40.263867" lon="-4.901217">
        <ele>1569.0</ele>
        <time>2018-09-15T12:34:55Z</time>
      </trkpt>
      <trkpt lat="40.263833" lon="-4.901150">
        <ele>1573.0</ele>
        <time>2018-09-15T12:34:56Z</time>
      </trkpt>
      <trkpt lat="40.263817" lon="-4.901100">
        <ele>1575.0</ele>
        <time>2018-09-15T12:34:57Z</time>
      </trkpt>
      <trkpt lat="40.263817" lon="-4.901033">
        <ele>1578.0</ele>
        <time>2018-09-15T12:34:58Z</time>
      </trkpt>
      <trkpt lat="40.263817" lon="-4.900983">
        <ele>1581.0</ele>
        <time>2018-09-15T12:34:59Z</time>
      </trkpt>
      <trkpt lat="40.263850" lon="-4.900950">
        <ele>1584.0</ele>
        <time>2018-09-15T12:35:00Z</time>
      </trkpt>
      <trkpt lat="40.263867" lon="-4.900883">
        <ele>1586.0</ele>
        <time>2018-09-15T12:35:01Z</time>
      </trkpt>
      <trkpt lat="40.263883" lon="-4.900833">
        <ele>1592.0</ele>
        <time>2018-09-15T12:35:02Z</time>
      </trkpt>
      <trkpt lat="40.263933" lon="-4.901017">
        <ele>1597.0</ele>
        <time>2018-09-15T12:35:03Z</time>
      </trkpt>
      <trkpt lat="40.263983" lon="-4.901200">
        <ele>1603.0</ele>
        <time>2018-09-15T12:35:04Z</time>
      </trkpt>
      <trkpt lat="40.264100" lon="-4.901283">
        <ele>1605.0</ele>
        <time>2018-09-15T12:35:05Z</time>
      </trkpt>
      <trkpt lat="40.264233" lon="-4.901300">
        <ele>1609.0</ele>
        <time>2018-09-15T12:35:06Z</time>
      </trkpt>
      <trkpt lat="40.264350" lon="-4.901350">
        <ele>1612.0</ele>
        <time>2018-09-15T12:35:07Z</time>
      </trkpt>
      <trkpt lat="40.264450" lon="-4.901367">
        <ele>1616.0</ele>
        <time>2018-09-15T12:35:08Z</time>
      </trkpt>
      <trkpt lat="40.264533" lon="-4.901350">
        <ele>1621.0</ele>
        <time>2018-09-15T12:35:09Z</time>
      </trkpt>
      <trkpt lat="40.264600" lon="-4.901300">
        <ele>1625.0</ele>
        <time>2018-09-15T12:35:10Z</time>
      </trkpt>
      <trkpt lat="40.264650" lon="-4.901233">
        <ele>1629.0</ele>
        <time>2018-09-15T12:35:11Z</time>
      </trkpt>
      <trkpt lat="40.264667" lon="-4.901150">
        <ele>1632.0</ele>
        <time>2018-09-15T12:35:12Z</time>
      </trkpt>
      <trkpt lat="40.264667" lon="-4.901067">
        <ele>1636.0</ele>
        <time>2018-09-15T12:35:13Z</time>
      </trkpt>
      <trkpt lat="40.264633" lon="-4.901050">
        <ele>1641.0</ele>
        <time>2018-09-15T12:35:14Z</time>
      </trkpt>
      <trkpt lat="40.264583" lon="-4.901133">
        <ele>1644.0</ele>
        <time>2018-09-15T12:35:15Z</time>
      </trkpt>
      <trkpt lat="40.264550" lon="-4.901167">
        <ele>1645.0</ele>
        <time>2018-09-15T12:35:16Z</time>
      </trkpt>
      <trkpt lat="40.264500" lon="-4.901200">
        <ele>1648.0</ele>
        <time>2018-09-15T12:35:17Z</time>
      </trkpt>
      <trkpt lat="40.264467" lon="-4.901267">
        <ele>1650.0</ele>
        <time>2018-09-15T12:35:18Z</time>
      </trkpt>
      <trkpt lat="40.264417" lon="-4.901317">
        <ele>1652.0</ele>
        <time>2018-09-15T12:35:19Z</time>
      </trkpt>
      <trkpt lat="40.264350" lon="-4.901400">
        <ele>1655.0</ele>
        <time>2018-09-15T12:35:20Z</time>
      </trkpt>
      <trkpt lat="40.264317" lon="-4.901483">
        <ele>1659.0</ele>
        <time>2018-09-15T12:35:21Z</time>
      </trkpt>
      <trkpt lat="40.264283" lon="-4.901583">
        <ele>1663.0</ele>
        <time>2018-09-15T12:35:22Z</time>
      </trkpt>
      <trkpt lat="40.264267" lon="-4.901683">
        <ele>1666.0</ele>
        <time>2018-09-15T12:35:23Z</time>
      </trkpt>
      <trkpt lat="40.264267" lon="-4.901783">
        <ele>1669.0</ele>
        <time>2018-09-15T12:35:24Z</time>
      </trkpt>
      <trkpt lat="40.264250" lon="-4.901883">
        <ele>1671.0</ele>
        <time>2018-09-15T12:35:25Z</time>
      </trkpt>
      <trkpt lat="40.264233" lon="-4.901983">
        <ele>1674.0</ele>
        <time>2018-09-15T12:35:26Z</time>
      </trkpt>
      <trkpt lat="40.264217" lon="-4.902067">
        <ele>1677.0</ele>
        <time>2018-09-15T12:35:27Z</time>
      </trkpt>
      <trkpt lat="40.264200" lon="-4.902183">
        <ele>1680.0</ele>
        <time>2018-09-15T12:35:28Z</time>
      </trkpt>
      <trkpt lat="40.264183" lon="-4.902267">
        <ele>1683.0</ele>
        <time>2018-09-15T12:35:29Z</time>
      </trkpt>
      <trkpt lat="40.264167" lon="-4.902350">
        <ele>1686.0</ele>
        <time>2018-09-15T12:35:30Z</time>
      </trkpt>
      <trkpt lat="40.264150" lon="-4.902417">
        <ele>1689.0</ele>
        <time>2018-09-15T12:35:31Z</time>
      </trkpt>
      <trkpt lat="40.264133" lon="-4.902483">
        <ele>1691.0</ele>
        <time>2018-09-15T12:35:32Z</time>
      </trkpt>
      <trkpt lat="40.264100" lon="-4.902567">
        <ele>1693.0</ele>
        <time>2018-09-15T12:35:33Z</time>
      </trkpt>
      <trkpt lat="40.264050" lon="-4.902650">
        <ele>1695.0</ele>
        <time>2018-09-15T12:35:34Z</time>
      </trkpt>
      <trkpt lat="40.263983" lon="-4.902700">
        <ele>1697.0</ele>
        <time>2018-09-15T12:35:35Z</time>
      </trkpt>
      <trkpt lat="40.263917" lon="-4.902683">
        <ele>1698.0</ele>
        <time>2018-09-15T12:35:36Z</time>
      </trkpt>
      <trkpt lat="40.263850" lon="-4.902633">
        <ele>1700.0</ele>
        <time>2018-09-15T12:35:37Z</time>
      </trkpt>
      <trkpt lat="40.263850" lon="-4.902550">
        <ele>1703.0</ele>
        <time>2018-09-15T12:35:38Z</time>
      </trkpt>
      <trkpt lat="40.263883" lon="-4.902450">
        <ele>1705.0</ele>
        <time>2018-09-15T12:35:39Z</time>
      </trkpt>
      <trkpt lat="40.263950" lon="-4.902383">
        <ele>1706.0</ele>
        <time>2018-09-15T12:35:40Z</time>
      </trkpt>
      <trkpt lat="40.264050" lon="-4.902383">
        <ele>1709.0</ele>
        <time>2018-09-15T12:35:41Z</time>
      </trkpt>
      <trkpt lat="40.264133" lon="-4.902467">
        <ele>1711.0</ele>
        <time>2018-09-15T12:35:42Z</time>
      </trkpt>
      <trkpt lat="40.264183" lon="-4.902583">
        <ele>1714.0</ele>
        <time>2018-09-15T12:35:43Z</time>
      </trkpt>
      <trkpt lat="40.264200" lon="-4.902683">
        <ele>1715.0</ele>
        <time>2018-09-15T12:35:44Z</time>
      </trkpt>
      <trkpt lat="40.264200" lon="-4.902800">
        <ele>1718.0</ele>
        <time>2018-09-15T12:35:45Z</time>
      </trkpt>
      <trkpt lat="40.264183" lon="-4.902900">
        <ele>1721.0</ele>
        <time>2018-09-15T12:35:46Z</time>
      </trkpt>
      <trkpt lat="40.264150" lon="-4.902983">
        <ele>1723.0</ele>
        <time>2018-09-15T12:35:47Z</time>
      </trkpt>
      <trkpt lat="40.264083" lon="-4.903033">
        <ele>1725.0</ele>
        <time>2018-09-15T12:35:48Z</time>
      </trkpt>
      <trkpt lat="40.264033" lon="-4.903033">
        <ele>1727.0</ele>
        <time>2018-09-15T12:35:49Z</time>
      </trkpt>
      <trkpt lat="40.263983" lon="-4.903000">
        <ele>1729.0</ele>
        <time>2018-09-15T12:35:50Z</time>
      </trkpt>
      <trkpt lat="40.263933" lon="-4.902933">
        <ele>1732.0</ele>
        <time>2018-09-15T12:35:51Z</time>
      </trkpt>
      <trkpt lat="40.263917" lon="-4.902833">
        <ele>1734.0</ele>
        <time>2018-09-15T12:35:52Z</time>
      </trkpt>
      <trkpt lat="40.263950" lon="-4.902750">
        <ele>1737.0</ele>
        <time>2018-09-15T12:35:53Z</time>
      </trkpt>
      <trkpt lat="40.264017" lon="-4.902683">
        <ele>1741.0</ele>
        <time>2018-09-15T12:35:54Z</time>
      </trkpt>
      <trkpt lat="40.264100" lon="-4.902667">
        <ele>1744.0</ele>
        <time>2018-09-15T12:35:55Z</time>
      </trkpt>
      <trkpt lat="40.264200" lon="-4.902667">
        <ele>1747.0</ele>
        <time>2018-09-15T12:35:56Z</time>
      </trkpt>
      <trkpt lat="40.264283" lon="-4.902733">
        <ele>1749.0</ele>
        <time>2018-09-15T12:35:57Z</time>
      </trkpt>
      <trkpt lat="40.264333" lon="-4.902833">
        <ele>1752.0</ele>
        <time>2018-09-15T12:35:58Z</time>
      </trkpt>
      <trkpt lat="40.264367" lon="-4.902933">
        <ele>1754.0</ele>
        <time>2018-09-15T12:35:59Z</time>
      </trkpt>
      <trkpt lat="40.264383" lon="-4.903033">
        <ele>1756.0</ele>
        <time>2018-09-15T12:36:00Z</time>
      </trkpt>
      <trkpt lat="40.264350" lon="-4.903133">
        <ele>1758.0</ele>
        <time>2018-09-15T12:36:01Z</time>
      </trkpt>
      <trkpt lat="40.264300" lon="-4.903217">
        <ele>1761.0</ele>
        <time>2018-09-15T12:36:02Z</time>
      </trkpt>
      <trkpt lat="40.264250" lon="-4.903267">
        <ele>1763.0</ele>
        <time>2018-09-15T12:36:03Z</time>
      </trkpt>
      <trkpt lat="40.264217" lon="-4.903283">
        <ele>1766.0</ele>
        <time>2018-09-15T12:36:04Z</time>
      </trkpt>
      <trkpt lat="40.264167" lon="-4.903250">
        <ele>1768.0</ele>
        <time>2018-09-15T12:36:05Z</time>
      </trkpt>
      <trkpt lat="40.264133" lon="-4.903167">
        <ele>1771.0</ele>
        <time>2018-09-15T12:36:06Z</time>
      </trkpt>
      <trkpt lat="40.264150" lon="-4.903083">
        <ele>1773.0</ele>
        <time>2018-09-15T12:36:07Z</time>
      </trkpt>
      <trkpt lat="40.264217" lon="-4.903000">
        <ele>1775.0</ele>
        <time>2018-09-15T12:36:08Z</time>
      </trkpt>
      <trkpt lat="40.264300" lon="-4.902950">
        <ele>1778.0</ele>
        <time>2018-09-15T12:36:09Z</time>
      </trkpt>
      <trkpt lat="40.264417" lon="-4.902950">
        <ele>1779.0</ele>
        <time>2018-09-15T12:36:10Z</time>
      </trkpt>
      <trkpt lat="40.264517" lon="-4.902983">
        <ele>1780.0</ele>
        <time>2018-09-15T12:36:11Z</time>
      </trkpt>
      <trkpt lat="40.264583" lon="-4.903067">
        <ele>1782.0</ele>
        <time>2018-09-15T12:36:12Z</time>
      </trkpt>
      <trkpt lat="40.264650" lon="-4.903150">
        <ele>1788.0</ele>
        <time>2018-09-15T12:36:13Z</time>
      </trkpt>
      <trkpt lat="40.264700" lon="-4.903250">
        <ele>1790.0</ele>
        <time>2018-09-15T12:36:14Z</time>
      </trkpt>
      <trkpt lat="40.264717" lon="-4.903367">
        <ele>1792.0</ele>
        <time>2018-09-15T12:36:15Z</time>
      </trkpt>
      <trkpt lat="40.264717" lon="-4.903483">
        <ele>1794.0</ele>
        <time>2018-09-15T12:36:16Z</time>
      </trkpt>
      <trkpt lat="40.264667" lon="-4.903600">
        <ele>1797.0</ele>
        <time>2018-09-15T12:36:17Z</time>
      </trkpt>
      <trkpt lat="40.264600" lon="-4.903650">
        <ele>1799.0</ele>
        <time>2018-09-15T12:36:18Z</time>
      </trkpt>
      <trkpt lat="40.264500" lon="-4.903650">
        <ele>1802.0</ele>
        <time>2018-09-15T12:36:19Z</time>
      </trkpt>
      <trkpt lat="40.264433" lon="-4.903567">
        <ele>1804.0</ele>
        <time>2018-09-15T12:36:20Z</time>
      </trkpt>
      <trkpt lat="40.264417" lon="-4.903450">
        <ele>1806.0</ele>
        <time>2018-09-15T12:36:21Z</time>
      </trkpt>
      <trkpt lat="40.264450" lon="-4.903350">
        <ele>1809.0</ele>
        <time>2018-09-15T12:36:22Z</time>
      </trkpt>
      <trkpt lat="40.264483" lon="-4.903283">
        <ele>1812.0</ele>
        <time>2018-09-15T12:36:23Z</time>
      </trkpt>
      <trkpt lat="40.264550" lon="-4.903217">
        <ele>1817.0</ele>
        <time>2018-09-15T12:36:24Z</time>
      </trkpt>
      <trkpt lat="40.264600" lon="-4.903167">
        <ele>1821.0</ele>
        <time>2018-09-15T12:36:25Z</time>
      </trkpt>
      <trkpt lat="40.264683" lon="-4.903117">
        <ele>1823.0</ele>
        <time>2018-09-15T12:36:26Z</time>
      </trkpt>
      <trkpt lat="40.264783" lon="-4.903083">
        <ele>1826.0</ele>
        <time>2018-09-15T12:36:27Z</time>
      </trkpt>
      <trkpt lat="40.264883" lon="-4.903100">
        <ele>1828.0</ele>
        <time>2018-09-15T12:36:28Z</time>
      </trkpt>
      <trkpt lat="40.264967" lon="-4.903183">
        <ele>1831.0</ele>
        <time>2018-09-15T12:36:29Z</time>
      </trkpt>
      <trkpt lat="40.265017" lon="-4.903317">
        <ele>1833.0</ele>
        <time>2018-09-15T12:36:30Z</time>
      </trkpt>
      <trkpt lat="40.265017" lon="-4.903483">
        <ele>1834.0</ele>
        <time>2018-09-15T12:36:31Z</time>
      </trkpt>
      <trkpt lat="40.264967" lon="-4.903600">
        <ele>1835.0</ele>
        <time>2018-09-15T12:36:32Z</time>
      </trkpt>
      <trkpt lat="40.264917" lon="-4.903650">
        <ele>1838.0</ele>
        <time>2018-09-15T12:36:33Z</time>
      </trkpt>
      <trkpt lat="40.264850" lon="-4.903667">
        <ele>1840.0</ele>
        <time>2018-09-15T12:36:34Z</time>
      </trkpt>
      <trkpt lat="40.264800" lon="-4.903633">
        <ele>1841.0</ele>
        <time>2018-09-15T12:36:35Z</time>
      </trkpt>
      <trkpt lat="40.264733" lon="-4.903583">
        <ele>1843.0</ele>
        <time>2018-09-15T12:36:36Z</time>
      </trkpt>
      <trkpt lat="40.264667" lon="-4.903533">
        <ele>1845.0</ele>
        <time>2018-09-15T12:36:37Z</time>
      </trkpt>
      <trkpt lat="40.264617" lon="-4.903450">
        <ele>1847.0</ele>
        <time>2018-09-15T12:36:38Z</time>
      </trkpt>
      <trkpt lat="40.264600" lon="-4.903367">
        <ele>1851.0</ele>
        <time>2018-09-15T12:36:39Z</time>
      </trkpt>
      <trkpt lat="40.264600" lon="-4.903300">
        <ele>1854.0</ele>
        <time>2018-09-15T12:36:40Z</time>
      </trkpt>
      <trkpt lat="40.264617" lon="-4.903217">
        <ele>1857.0</ele>
        <time>2018-09-15T12:36:41Z</time>
      </trkpt>
      <trkpt lat="40.264650" lon="-4.903150">
        <ele>1857.0</ele>
        <time>2018-09-15T12:36:42Z</time>
      </trkpt>
      <trkpt lat="40.264717" lon="-4.903083">
        <ele>1858.0</ele>
        <time>2018-09-15T12:36:43Z</time>
      </trkpt>
      <trkpt lat="40.264783" lon="-4.903050">
        <ele>1858.0</ele>
        <time>2018-09-15T12:36:44Z</time>
      </trkpt>
      <trkpt lat="40.264867" lon="-4.903050">
        <ele>1858.0</ele>
        <time>2018-09-15T12:36:45Z</time>
      </trkpt>
      <trkpt lat="40.264967" lon="-4.903100">
        <ele>1857.0</ele>
        <time>2018-09-15T12:36:46Z</time>
      </trkpt>
      <trkpt lat="40.265050" lon="-4.903217">
        <ele>1854.0</ele>
        <time>2018-09-15T12:36:47Z</time>
      </trkpt>
      <trkpt lat="40.265133" lon="-4.903367">
        <ele>1852.0</ele>
        <time>2018-09-15T12:36:48Z</time>
      </trkpt>
      <trkpt lat="40.265150" lon="-4.903517">
        <ele>1851.0</ele>
        <time>2018-09-15T12:36:49Z</time>
      </trkpt>
      <trkpt lat="40.265133" lon="-4.903650">
        <ele>1851.0</ele>
        <time>2018-09-15T12:36:50Z</time>
      </trkpt>
      <trkpt lat="40.265083" lon="-4.903750">
        <ele>1851.0</ele>
        <time>2018-09-15T12:36:51Z</time>
      </trkpt>
      <trkpt lat="40.265017" lon="-4.903817">
        <ele>1852.0</ele>
        <time>2018-09-15T12:36:52Z</time>
      </trkpt>
      <trkpt lat="40.264983" lon="-4.903900">
        <ele>1854.0</ele>
        <time>2018-09-15T12:36:53Z</time>
      </trkpt>
      <trkpt lat="40.264967" lon="-4.904000">
        <ele>1856.0</ele>
        <time>2018-09-15T12:36:54Z</time>
      </trkpt>
      <trkpt lat="40.264967" lon="-4.904117">
        <ele>1857.0</ele>
        <time>2018-09-15T12:36:55Z</time>
      </trkpt>
      <trkpt lat="40.265000" lon="-4.904233">
        <ele>1858.0</ele>
        <time>2018-09-15T12:36:56Z</time>
      </trkpt>
      <trkpt lat="40.265050" lon="-4.904317">
        <ele>1861.0</ele>
        <time>2018-09-15T12:36:57Z</time>
      </trkpt>
      <trkpt lat="40.265133" lon="-4.904350">
        <ele>1860.0</ele>
        <time>2018-09-15T12:36:58Z</time>
      </trkpt>
      <trkpt lat="40.265200" lon="-4.904300">
        <ele>1859.0</ele>
        <time>2018-09-15T12:36:59Z</time>
      </trkpt>
      <trkpt lat="40.265233" lon="-4.904217">
        <ele>1859.0</ele>
        <time>2018-09-15T12:37:00Z</time>
      </trkpt>
      <trkpt lat="40.265183" lon="-4.904133">
        <ele>1860.0</ele>
        <time>2018-09-15T12:37:01Z</time>
      </trkpt>
      <trkpt lat="40.265100" lon="-4.904133">
        <ele>1860.0</ele>
        <time>2018-09-15T12:37:02Z</time>
      </trkpt>
      <trkpt lat="40.265033" lon="-4.904217">
        <ele>1860.0</ele>
        <time>2018-09-15T12:37:03Z</time>
      </trkpt>
      <trkpt lat="40.265017" lon="-4.904350">
        <ele>1861.0</ele>
        <time>2018-09-15T12:37:04Z</time>
      </trkpt>
      <trkpt lat="40.265067" lon="-4.904467">
        <ele>1861.0</ele>
        <time>2018-09-15T12:37:05Z</time>
      </trkpt>
      <trkpt lat="40.265133" lon="-4.904550">
        <ele>1862.0</ele>
        <time>2018-09-15T12:37:06Z</time>
      </trkpt>
      <trkpt lat="40.265233" lon="-4.904600">
        <ele>1864.0</ele>
        <time>2018-09-15T12:37:07Z</time>
      </trkpt>
      <trkpt lat="40.265333" lon="-4.904600">
        <ele>1867.0</ele>
        <time>2018-09-15T12:37:08Z</time>
      </trkpt>
      <trkpt lat="40.265417" lon="-4.904567">
        <ele>1870.0</ele>
        <time>2018-09-15T12:37:09Z</time>
      </trkpt>
      <trkpt lat="40.265483" lon="-4.904517">
        <ele>1869.0</ele>
        <time>2018-09-15T12:37:10Z</time>
      </trkpt>
      <trkpt lat="40.265517" lon="-4.904450">
        <ele>1869.0</ele>
        <time>2018-09-15T12:37:11Z</time>
      </trkpt>
      <trkpt lat="40.265533" lon="-4.904350">
        <ele>1871.0</ele>
        <time>2018-09-15T12:37:12Z</time>
      </trkpt>
      <trkpt lat="40.265500" lon="-4.904283">
        <ele>1871.0</ele>
        <time>2018-09-15T12:37:13Z</time>
      </trkpt>
      <trkpt lat="40.265450" lon="-4.904250">
        <ele>1872.0</ele>
        <time>2018-09-15T12:37:14Z</time>
      </trkpt>
      <trkpt lat="40.265367" lon="-4.904267">
        <ele>1872.0</ele>
        <time>2018-09-15T12:37:15Z</time>
      </trkpt>
      <trkpt lat="40.265300" lon="-4.904350">
        <ele>1873.0</ele>
        <time>2018-09-15T12:37:16Z</time>
      </trkpt>
      <trkpt lat="40.265283" lon="-4.904467">
        <ele>1874.0</ele>
        <time>2018-09-15T12:37:17Z</time>
      </trkpt>
      <trkpt lat="40.265333" lon="-4.904583">
        <ele>1875.0</ele>
        <time>2018-09-15T12:37:18Z</time>
      </trkpt>
      <trkpt lat="40.265417" lon="-4.904667">
        <ele>1876.0</ele>
        <time>2018-09-15T12:37:19Z</time>
      </trkpt>
      <trkpt lat="40.265517" lon="-4.904700">
        <ele>1877.0</ele>
        <time>2018-09-15T12:37:20Z</time>
      </trkpt>
      <trkpt lat="40.265617" lon="-4.904733">
        <ele>1879.0</ele>
        <time>2018-09-15T12:37:21Z</time>
      </trkpt>
      <trkpt lat="40.265683" lon="-4.904767">
        <ele>1881.0</ele>
        <time>2018-09-15T12:37:22Z</time>
      </trkpt>
      <trkpt lat="40.265767" lon="-4.904783">
        <ele>1880.0</ele>
        <time>2018-09-15T12:37:23Z</time>
      </trkpt>
      <trkpt lat="40.265850" lon="-4.904783">
        <ele>1880.0</ele>
        <time>2018-09-15T12:37:24Z</time>
      </trkpt>
      <trkpt lat="40.265917" lon="-4.904750">
        <ele>1881.0</ele>
        <time>2018-09-15T12:37:25Z</time>
      </trkpt>
      <trkpt lat="40.265933" lon="-4.904683">
        <ele>1882.0</ele>
        <time>2018-09-15T12:37:26Z</time>
      </trkpt>
      <trkpt lat="40.265933" lon="-4.904617">
        <ele>1883.0</ele>
        <time>2018-09-15T12:37:27Z</time>
      </trkpt>
      <trkpt lat="40.265883" lon="-4.904550">
        <ele>1884.0</ele>
        <time>2018-09-15T12:37:28Z</time>
      </trkpt>
      <trkpt lat="40.265817" lon="-4.904533">
        <ele>1885.0</ele>
        <time>2018-09-15T12:37:29Z</time>
      </trkpt>
      <trkpt lat="40.265733" lon="-4.904583">
        <ele>1885.0</ele>
        <time>2018-09-15T12:37:30Z</time>
      </trkpt>
      <trkpt lat="40.265667" lon="-4.904683">
        <ele>1886.0</ele>
        <time>2018-09-15T12:37:31Z</time>
      </trkpt>
      <trkpt lat="40.265650" lon="-4.904800">
        <ele>1887.0</ele>
        <time>2018-09-15T12:37:32Z</time>
      </trkpt>
      <trkpt lat="40.265717" lon="-4.904933">
        <ele>1889.0</ele>
        <time>2018-09-15T12:37:33Z</time>
      </trkpt>
      <trkpt lat="40.265800" lon="-4.905017">
        <ele>1890.0</ele>
        <time>2018-09-15T12:37:34Z</time>
      </trkpt>
      <trkpt lat="40.265883" lon="-4.905083">
        <ele>1891.0</ele>
        <time>2018-09-15T12:37:35Z</time>
      </trkpt>
      <trkpt lat="40.265967" lon="-4.905150">
        <ele>1892.0</ele>
        <time>2018-09-15T12:37:36Z</time>
      </trkpt>
      <trkpt lat="40.266033" lon="-4.905200">
        <ele>1894.0</ele>
        <time>2018-09-15T12:37:37Z</time>
      </trkpt>
      <trkpt lat="40.266100" lon="-4.905267">
        <ele>1895.0</ele>
        <time>2018-09-15T12:37:38Z</time>
      </trkpt>
      <trkpt lat="40.266167" lon="-4.905350">
        <ele>1895.0</ele>
        <time>2018-09-15T12:37:39Z</time>
      </trkpt>
      <trkpt lat="40.266233" lon="-4.905333">
        <ele>1897.0</ele>
        <time>2018-09-15T12:37:40Z</time>
      </trkpt>
      <trkpt lat="40.266300" lon="-4.905283">
        <ele>1898.0</ele>
        <time>2018-09-15T12:37:41Z</time>
      </trkpt>
      <trkpt lat="40.266350" lon="-4.905200">
        <ele>1898.0</ele>
        <time>2018-09-15T12:37:42Z</time>
      </trkpt>
      <trkpt lat="40.266367" lon="-4.905117">
        <ele>1899.0</ele>
        <time>2018-09-15T12:37:43Z</time>
      </trkpt>
      <trkpt lat="40.266317" lon="-4.905067">
        <ele>1899.0</ele>
        <time>2018-09-15T12:37:44Z</time>
      </trkpt>
      <trkpt lat="40.266250" lon="-4.905017">
        <ele>1900.0</ele>
        <time>2018-09-15T12:37:45Z</time>
      </trkpt>
      <trkpt lat="40.266150" lon="-4.905033">
        <ele>1901.0</ele>
        <time>2018-09-15T12:37:46Z</time>
      </trkpt>
      <trkpt lat="40.266083" lon="-4.905100">
        <ele>1902.0</ele>
        <time>2018-09-15T12:37:47Z</time>
      </trkpt>
      <trkpt lat="40.266017" lon="-4.905183">
        <ele>1902.0</ele>
        <time>2018-09-15T12:37:48Z</time>
      </trkpt>
      <trkpt lat="40.266000" lon="-4.905317">
        <ele>1904.0</ele>
        <time>2018-09-15T12:37:49Z</time>
      </trkpt>
      <trkpt lat="40.266050" lon="-4.905433">
        <ele>1905.0</ele>
        <time>2018-09-15T12:37:50Z</time>
      </trkpt>
      <trkpt lat="40.266083" lon="-4.905517">
        <ele>1906.0</ele>
        <time>2018-09-15T12:37:51Z</time>
      </trkpt>
      <trkpt lat="40.266150" lon="-4.905550">
        <ele>1908.0</ele>
        <time>2018-09-15T12:37:52Z</time>
      </trkpt>
      <trkpt lat="40.266217" lon="-4.905483">
        <ele>1910.0</ele>
        <time>2018-09-15T12:37:53Z</time>
      </trkpt>
      <trkpt lat="40.266233" lon="-4.905400">
        <ele>1911.0</ele>
        <time>2018-09-15T12:37:54Z</time>
      </trkpt>
      <trkpt lat="40.266233" lon="-4.905300">
        <ele>1912.0</ele>
        <time>2018-09-15T12:37:55Z</time>
      </trkpt>
      <trkpt lat="40.266200" lon="-4.905217">
        <ele>1913.0</ele>
        <time>2018-09-15T12:37:56Z</time>
      </trkpt>
      <trkpt lat="40.266117" lon="-4.905200">
        <ele>1913.0</ele>
        <time>2018-09-15T12:37:57Z</time>
      </trkpt>
      <trkpt lat="40.266050" lon="-4.905250">
        <ele>1914.0</ele>
        <time>2018-09-15T12:37:58Z</time>
      </trkpt>
      <trkpt lat="40.266000" lon="-4.905333">
        <ele>1914.0</ele>
        <time>2018-09-15T12:37:59Z</time>
      </trkpt>
      <trkpt lat="40.265983" lon="-4.905433">
        <ele>1915.0</ele>
        <time>2018-09-15T12:38:00Z</time>
      </trkpt>
      <trkpt lat="40.265983" lon="-4.905517">
        <ele>1917.0</ele>
        <time>2018-09-15T12:38:01Z</time>
      </trkpt>
      <trkpt lat="40.266017" lon="-4.905567">
        <ele>1919.0</ele>
        <time>2018-09-15T12:38:02Z</time>
      </trkpt>
      <trkpt lat="40.266067" lon="-4.905617">
        <ele>1922.0</ele>
        <time>2018-09-15T12:38:03Z</time>
      </trkpt>
      <trkpt lat="40.266117" lon="-4.905683">
        <ele>1923.0</ele>
        <time>2018-09-15T12:38:04Z</time>
      </trkpt>
      <trkpt lat="40.266183" lon="-4.905733">
        <ele>1925.0</ele>
        <time>2018-09-15T12:38:05Z</time>
      </trkpt>
      <trkpt lat="40.266267" lon="-4.905750">
        <ele>1927.0</ele>
        <time>2018-09-15T12:38:06Z</time>
      </trkpt>
      <trkpt lat="40.266333" lon="-4.905717">
        <ele>1929.0</ele>
        <time>2018-09-15T12:38:07Z</time>
      </trkpt>
      <trkpt lat="40.266400" lon="-4.905667">
        <ele>1930.0</ele>
        <time>2018-09-15T12:38:08Z</time>
      </trkpt>
      <trkpt lat="40.266433" lon="-4.905583">
        <ele>1931.0</ele>
        <time>2018-09-15T12:38:09Z</time>
      </trkpt>
      <trkpt lat="40.266433" lon="-4.905500">
        <ele>1931.0</ele>
        <time>2018-09-15T12:38:10Z</time>
      </trkpt>
      <trkpt lat="40.266417" lon="-4.905433">
        <ele>1932.0</ele>
        <time>2018-09-15T12:38:11Z</time>
      </trkpt>
      <trkpt lat="40.266367" lon="-4.905383">
        <ele>1932.0</ele>
        <time>2018-09-15T12:38:12Z</time>
      </trkpt>
      <trkpt lat="40.266300" lon="-4.905383">
        <ele>1933.0</ele>
        <time>2018-09-15T12:38:13Z</time>
      </trkpt>
      <trkpt lat="40.266233" lon="-4.905400">
        <ele>1933.0</ele>
        <time>2018-09-15T12:38:14Z</time>
      </trkpt>
      <trkpt lat="40.266150" lon="-4.905450">
        <ele>1934.0</ele>
        <time>2018-09-15T12:38:15Z</time>
      </trkpt>
      <trkpt lat="40.266083" lon="-4.905550">
        <ele>1934.0</ele>
        <time>2018-09-15T12:38:16Z</time>
      </trkpt>
      <trkpt lat="40.266050" lon="-4.905650">
        <ele>1934.0</ele>
        <time>2018-09-15T12:38:17Z</time>
      </trkpt>
      <trkpt lat="40.266050" lon="-4.905750">
        <ele>1935.0</ele>
        <time>2018-09-15T12:38:18Z</time>
      </trkpt>
      <trkpt lat="40.266067" lon="-4.905833">
        <ele>1936.0</ele>
        <time>2018-09-15T12:38:19Z</time>
      </trkpt>
      <trkpt lat="40.266100" lon="-4.905900">
        <ele>1937.0</ele>
        <time>2018-09-15T12:38:20Z</time>
      </trkpt>
      <trkpt lat="40.266150" lon="-4.905983">
        <ele>1938.0</ele>
        <time>2018-09-15T12:38:21Z</time>
      </trkpt>
      <trkpt lat="40.266200" lon="-4.906067">
        <ele>1939.0</ele>
        <time>2018-09-15T12:38:22Z</time>
      </trkpt>
      <trkpt lat="40.266267" lon="-4.906150">
        <ele>1939.0</ele>
        <time>2018-09-15T12:38:23Z</time>
      </trkpt>
      <trkpt lat="40.266350" lon="-4.906200">
        <ele>1941.0</ele>
        <time>2018-09-15T12:38:24Z</time>
      </trkpt>
      <trkpt lat="40.266433" lon="-4.906167">
        <ele>1943.0</ele>
        <time>2018-09-15T12:38:25Z</time>
      </trkpt>
      <trkpt lat="40.266517" lon="-4.906100">
        <ele>1944.0</ele>
        <time>2018-09-15T12:38:26Z</time>
      </trkpt>
      <trkpt lat="40.266583" lon="-4.906017">
        <ele>1945.0</ele>
        <time>2018-09-15T12:38:27Z</time>
      </trkpt>
      <trkpt lat="40.266633" lon="-4.905933">
        <ele>1948.0</ele>
        <time>2018-09-15T12:38:28Z</time>
      </trkpt>
      <trkpt lat="40.266667" lon="-4.905883">
        <ele>1951.0</ele>
        <time>2018-09-15T12:38:29Z</time>
      </trkpt>
      <trkpt lat="40.266700" lon="-4.905817">
        <ele>1952.0</ele>
        <time>2018-09-15T12:38:30Z</time>
      </trkpt>
      <trkpt lat="40.266750" lon="-4.905767">
        <ele>1955.0</ele>
        <time>2018-09-15T12:38:31Z</time>
      </trkpt>
      <trkpt lat="40.266800" lon="-4.905717">
        <ele>1957.0</ele>
        <time>2018-09-15T12:38:32Z</time>
      </trkpt>
      <trkpt lat="40.266850" lon="-4.905650">
        <ele>1959.0</ele>
        <time>2018-09-15T12:38:33Z</time>
      </trkpt>
      <trkpt lat="40.266883" lon="-4.905583">
        <ele>1962.0</ele>
        <time>2018-09-15T12:38:34Z</time>
      </trkpt>
      <trkpt lat="40.266933" lon="-4.905517">
        <ele>1966.0</ele>
        <time>2018-09-15T12:38:35Z</time>
      </trkpt>
      <trkpt lat="40.266967" lon="-4.905467">
        <ele>1969.0</ele>
        <time>2018-09-15T12:38:36Z</time>
      </trkpt>
      <trkpt lat="40.267000" lon="-4.905400">
        <ele>1972.0</ele>
        <time>2018-09-15T12:38:37Z</time>
      </trkpt>
      <trkpt lat="40.267017" lon="-4.905333">
        <ele>1974.0</ele>
        <time>2018-09-15T12:38:38Z</time>
      </trkpt>
      <trkpt lat="40.267017" lon="-4.905250">
        <ele>1975.0</ele>
        <time>2018-09-15T12:38:39Z</time>
      </trkpt>
      <trkpt lat="40.267000" lon="-4.905167">
        <ele>1976.0</ele>
        <time>2018-09-15T12:38:40Z</time>
      </trkpt>
      <trkpt lat="40.266983" lon="-4.905083">
        <ele>1975.0</ele>
        <time>2018-09-15T12:38:41Z</time>
      </trkpt>
      <trkpt lat="40.267000" lon="-4.905017">
        <ele>1975.0</ele>
        <time>2018-09-15T12:38:42Z</time>
      </trkpt>
      <trkpt lat="40.267033" lon="-4.904933">
        <ele>1976.0</ele>
        <time>2018-09-15T12:38:43Z</time>
      </trkpt>
      <trkpt lat="40.267067" lon="-4.904850">
        <ele>1977.0</ele>
        <time>2018-09-15T12:38:44Z</time>
      </trkpt>
      <trkpt lat="40.267117" lon="-4.904767">
        <ele>1979.0</ele>
        <time>2018-09-15T12:38:45Z</time>
      </trkpt>
      <trkpt lat="40.267183" lon="-4.904717">
        <ele>1981.0</ele>
        <time>2018-09-15T12:38:46Z</time>
      </trkpt>
      <trkpt lat="40.267233" lon="-4.904667">
        <ele>1983.0</ele>
        <time>2018-09-15T12:38:47Z</time>
      </trkpt>
      <trkpt lat="40.267300" lon="-4.904633">
        <ele>1985.0</ele>
        <time>2018-09-15T12:38:48Z</time>
      </trkpt>
      <trkpt lat="40.267383" lon="-4.904617">
        <ele>1986.0</ele>
        <time>2018-09-15T12:38:49Z</time>
      </trkpt>
      <trkpt lat="40.267450" lon="-4.904617">
        <ele>1987.0</ele>
        <time>2018-09-15T12:38:50Z</time>
      </trkpt>
      <trkpt lat="40.267517" lon="-4.904600">
        <ele>1988.0</ele>
        <time>2018-09-15T12:38:51Z</time>
      </trkpt>
      <trkpt lat="40.267600" lon="-4.904583">
        <ele>1989.0</ele>
        <time>2018-09-15T12:38:52Z</time>
      </trkpt>
      <trkpt lat="40.267667" lon="-4.904567">
        <ele>1989.0</ele>
        <time>2018-09-15T12:38:53Z</time>
      </trkpt>
      <trkpt lat="40.267750" lon="-4.904550">
        <ele>1988.0</ele>
        <time>2018-09-15T12:38:54Z</time>
      </trkpt>
      <trkpt lat="40.267833" lon="-4.904533">
        <ele>1988.0</ele>
        <time>2018-09-15T12:38:55Z</time>
      </trkpt>
      <trkpt lat="40.267917" lon="-4.904533">
        <ele>1989.0</ele>
        <time>2018-09-15T12:38:56Z</time>
      </trkpt>
      <trkpt lat="40.267983" lon="-4.904517">
        <ele>1989.0</ele>
        <time>2018-09-15T12:38:57Z</time>
      </trkpt>
      <trkpt lat="40.268067" lon="-4.904517">
        <ele>1989.0</ele>
        <time>2018-09-15T12:38:58Z</time>
      </trkpt>
      <trkpt lat="40.268150" lon="-4.904517">
        <ele>1988.0</ele>
        <time>2018-09-15T12:38:59Z</time>
      </trkpt>
      <trkpt lat="40.268233" lon="-4.904500">
        <ele>1988.0</ele>
        <time>2018-09-15T12:39:00Z</time>
      </trkpt>
      <trkpt lat="40.268317" lon="-4.904500">
        <ele>1987.0</ele>
        <time>2018-09-15T12:39:01Z</time>
      </trkpt>
      <trkpt lat="40.268417" lon="-4.904500">
        <ele>1987.0</ele>
        <time>2018-09-15T12:39:02Z</time>
      </trkpt>
      <trkpt lat="40.268483" lon="-4.904517">
        <ele>1987.0</ele>
        <time>2018-09-15T12:39:03Z</time>
      </trkpt>
      <trkpt lat="40.268567" lon="-4.904517">
        <ele>1987.0</ele>
        <time>2018-09-15T12:39:04Z</time>
      </trkpt>
      <trkpt lat="40.268650" lon="-4.904500">
        <ele>1987.0</ele>
        <time>2018-09-15T12:39:05Z</time>
      </trkpt>
      <trkpt lat="40.268733" lon="-4.904483">
        <ele>1987.0</ele>
        <time>2018-09-15T12:39:06Z</time>
      </trkpt>
      <trkpt lat="40.268833" lon="-4.904483">
        <ele>1987.0</ele>
        <time>2018-09-15T12:39:07Z</time>
      </trkpt>
      <trkpt lat="40.268917" lon="-4.904467">
        <ele>1987.0</ele>
        <time>2018-09-15T12:39:08Z</time>
      </trkpt>
      <trkpt lat="40.269000" lon="-4.904467">
        <ele>1988.0</ele>
        <time>2018-09-15T12:39:09Z</time>
      </trkpt>
      <trkpt lat="40.269100" lon="-4.904467">
        <ele>1989.0</ele>
        <time>2018-09-15T12:39:10Z</time>
      </trkpt>
      <trkpt lat="40.269183" lon="-4.904467">
        <ele>1991.0</ele>
        <time>2018-09-15T12:39:11Z</time>
      </trkpt>
      <trkpt lat="40.269250" lon="-4.904467">
        <ele>1993.0</ele>
        <time>2018-09-15T12:39:12Z</time>
      </trkpt>
      <trkpt lat="40.269350" lon="-4.904450">
        <ele>1994.0</ele>
        <time>2018-09-15T12:39:13Z</time>
      </trkpt>
      <trkpt lat="40.269417" lon="-4.904417">
        <ele>1995.0</ele>
        <time>2018-09-15T12:39:14Z</time>
      </trkpt>
      <trkpt lat="40.269483" lon="-4.904350">
        <ele>1995.0</ele>
        <time>2018-09-15T12:39:15Z</time>
      </trkpt>
      <trkpt lat="40.269517" lon="-4.904267">
        <ele>1996.0</ele>
        <time>2018-09-15T12:39:16Z</time>
      </trkpt>
      <trkpt lat="40.269500" lon="-4.904183">
        <ele>1996.0</ele>
        <time>2018-09-15T12:39:17Z</time>
      </trkpt>
      <trkpt lat="40.269450" lon="-4.904133">
        <ele>1997.0</ele>
        <time>2018-09-15T12:39:18Z</time>
      </trkpt>
      <trkpt lat="40.269367" lon="-4.904117">
        <ele>1998.0</ele>
        <time>2018-09-15T12:39:19Z</time>
      </trkpt>
      <trkpt lat="40.269300" lon="-4.904150">
        <ele>1999.0</ele>
        <time>2018-09-15T12:39:20Z</time>
      </trkpt>
      <trkpt lat="40.269233" lon="-4.904233">
        <ele>2000.0</ele>
        <time>2018-09-15T12:39:21Z</time>
      </trkpt>
      <trkpt lat="40.269200" lon="-4.904350">
        <ele>2001.0</ele>
        <time>2018-09-15T12:39:22Z</time>
      </trkpt>
      <trkpt lat="40.269200" lon="-4.904483">
        <ele>2002.0</ele>
        <time>2018-09-15T12:39:23Z</time>
      </trkpt>
      <trkpt lat="40.269217" lon="-4.904633">
        <ele>2003.0</ele>
        <time>2018-09-15T12:39:24Z</time>
      </trkpt>
      <trkpt lat="40.269283" lon="-4.904750">
        <ele>2004.0</ele>
        <time>2018-09-15T12:39:25Z</time>
      </trkpt>
      <trkpt lat="40.269367" lon="-4.904850">
        <ele>2005.0</ele>
        <time>2018-09-15T12:39:26Z</time>
      </trkpt>
      <trkpt lat="40.269467" lon="-4.904900">
        <ele>2006.0</ele>
        <time>2018-09-15T12:39:27Z</time>
      </trkpt>
      <trkpt lat="40.269550" lon="-4.904883">
        <ele>2007.0</ele>
        <time>2018-09-15T12:39:28Z</time>
      </trkpt>
      <trkpt lat="40.269633" lon="-4.904850">
        <ele>2009.0</ele>
        <time>2018-09-15T12:39:29Z</time>
      </trkpt>
      <trkpt lat="40.269683" lon="-4.904783">
        <ele>2007.0</ele>
        <time>2018-09-15T12:39:30Z</time>
      </trkpt>
      <trkpt lat="40.269683" lon="-4.904683">
        <ele>2008.0</ele>
        <time>2018-09-15T12:39:31Z</time>
      </trkpt>
      <trkpt lat="40.269650" lon="-4.904633">
        <ele>2008.0</ele>
        <time>2018-09-15T12:39:32Z</time>
      </trkpt>
      <trkpt lat="40.269600" lon="-4.904600">
        <ele>2008.0</ele>
        <time>2018-09-15T12:39:33Z</time>
      </trkpt>
      <trkpt lat="40.269517" lon="-4.904617">
        <ele>2009.0</ele>
        <time>2018-09-15T12:39:34Z</time>
      </trkpt>
      <trkpt lat="40.269450" lon="-4.904683">
        <ele>2009.0</ele>
        <time>2018-09-15T12:39:35Z</time>
      </trkpt>
      <trkpt lat="40.269383" lon="-4.904800">
        <ele>2009.0</ele>
        <time>2018-09-15T12:39:36Z</time>
      </trkpt>
      <trkpt lat="40.269333" lon="-4.904917">
        <ele>2010.0</ele>
        <time>2018-09-15T12:39:37Z</time>
      </trkpt>
      <trkpt lat="40.269333" lon="-4.905067">
        <ele>2013.0</ele>
        <time>2018-09-15T12:39:38Z</time>
      </trkpt>
      <trkpt lat="40.269383" lon="-4.905200">
        <ele>2015.0</ele>
        <time>2018-09-15T12:39:39Z</time>
      </trkpt>
      <trkpt lat="40.269467" lon="-4.905317">
        <ele>2017.0</ele>
        <time>2018-09-15T12:39:40Z</time>
      </trkpt>
      <trkpt lat="40.269550" lon="-4.905400">
        <ele>2019.0</ele>
        <time>2018-09-15T12:39:41Z</time>
      </trkpt>
      <trkpt lat="40.269633" lon="-4.905433">
        <ele>2021.0</ele>
        <time>2018-09-15T12:39:42Z</time>
      </trkpt>
      <trkpt lat="40.269733" lon="-4.905417">
        <ele>2022.0</ele>
        <time>2018-09-15T12:39:43Z</time>
      </trkpt>
      <trkpt lat="40.269817" lon="-4.905367">
        <ele>2025.0</ele>
        <time>2018-09-15T12:39:44Z</time>
      </trkpt>
      <trkpt lat="40.269867" lon="-4.905317">
        <ele>2027.0</ele>
        <time>2018-09-15T12:39:45Z</time>
      </trkpt>
      <trkpt lat="40.269900" lon="-4.905267">
        <ele>2029.0</ele>
        <time>2018-09-15T12:39:46Z</time>
      </trkpt>
      <trkpt lat="40.269900" lon="-4.905200">
        <ele>2031.0</ele>
        <time>2018-09-15T12:39:47Z</time>
      </trkpt>
      <trkpt lat="40.269883" lon="-4.905150">
        <ele>2032.0</ele>
        <time>2018-09-15T12:39:48Z</time>
      </trkpt>
      <trkpt lat="40.269817" lon="-4.905133">
        <ele>2032.0</ele>
        <time>2018-09-15T12:39:49Z</time>
      </trkpt>
      <trkpt lat="40.269750" lon="-4.905133">
        <ele>2033.0</ele>
        <time>2018-09-15T12:39:50Z</time>
      </trkpt>
      <trkpt lat="40.269667" lon="-4.905167">
        <ele>2035.0</ele>
        <time>2018-09-15T12:39:51Z</time>
      </trkpt>
      <trkpt lat="40.269600" lon="-4.905250">
        <ele>2036.0</ele>
        <time>2018-09-15T12:39:52Z</time>
      </trkpt>
      <trkpt lat="40.269550" lon="-4.905367">
        <ele>2038.0</ele>
        <time>2018-09-15T12:39:53Z</time>
      </trkpt>
      <trkpt lat="40.269517" lon="-4.905500">
        <ele>2040.0</ele>
        <time>2018-09-15T12:39:54Z</time>
      </trkpt>
      <trkpt lat="40.269533" lon="-4.905633">
        <ele>2042.0</ele>
        <time>2018-09-15T12:39:55Z</time>
      </trkpt>
      <trkpt lat="40.269583" lon="-4.905767">
        <ele>2043.0</ele>
        <time>2018-09-15T12:39:56Z</time>
      </trkpt>
      <trkpt lat="40.269667" lon="-4.905867">
        <ele>2045.0</ele>
        <time>2018-09-15T12:39:57Z</time>
      </trkpt>
      <trkpt lat="40.269750" lon="-4.905917">
        <ele>2045.0</ele>
        <time>2018-09-15T12:39:58Z</time>
      </trkpt>
      <trkpt lat="40.269850" lon="-4.905933">
        <ele>2048.0</ele>
        <time>2018-09-15T12:39:59Z</time>
      </trkpt>
      <trkpt lat="40.269950" lon="-4.905900">
        <ele>2051.0</ele>
        <time>2018-09-15T12:40:00Z</time>
      </trkpt>
      <trkpt lat="40.270017" lon="-4.905900">
        <ele>2055.0</ele>
        <time>2018-09-15T12:40:01Z</time>
      </trkpt>
      <trkpt lat="40.270100" lon="-4.905917">
        <ele>2058.0</ele>
        <time>2018-09-15T12:40:02Z</time>
      </trkpt>
      <trkpt lat="40.270167" lon="-4.905917">
        <ele>2054.0</ele>
        <time>2018-09-15T12:40:03Z</time>
      </trkpt>
      <trkpt lat="40.270250" lon="-4.905900">
        <ele>2054.0</ele>
        <time>2018-09-15T12:40:04Z</time>
      </trkpt>
      <trkpt lat="40.270317" lon="-4.905850">
        <ele>2055.0</ele>
        <time>2018-09-15T12:40:05Z</time>
      </trkpt>
      <trkpt lat="40.270367" lon="-4.905767">
        <ele>2055.0</ele>
        <time>2018-09-15T12:40:06Z</time>
      </trkpt>
      <trkpt lat="40.270383" lon="-4.905683">
        <ele>2055.0</ele>
        <time>2018-09-15T12:40:07Z</time>
      </trkpt>
      <trkpt lat="40.270350" lon="-4.905600">
        <ele>2055.0</ele>
        <time>2018-09-15T12:40:08Z</time>
      </trkpt>
      <trkpt lat="40.270283" lon="-4.905550">
        <ele>2055.0</ele>
        <time>2018-09-15T12:40:09Z</time>
      </trkpt>
      <trkpt lat="40.270200" lon="-4.905550">
        <ele>2055.0</ele>
        <time>2018-09-15T12:40:10Z</time>
      </trkpt>
      <trkpt lat="40.270117" lon="-4.905583">
        <ele>2055.0</ele>
        <time>2018-09-15T12:40:11Z</time>
      </trkpt>
      <trkpt lat="40.270033" lon="-4.905650">
        <ele>2056.0</ele>
        <time>2018-09-15T12:40:12Z</time>
      </trkpt>
      <trkpt lat="40.269983" lon="-4.905750">
        <ele>2057.0</ele>
        <time>2018-09-15T12:40:13Z</time>
      </trkpt>
      <trkpt lat="40.269950" lon="-4.905883">
        <ele>2057.0</ele>
        <time>2018-09-15T12:40:14Z</time>
      </trkpt>
      <trkpt lat="40.269967" lon="-4.906033">
        <ele>2058.0</ele>
        <time>2018-09-15T12:40:15Z</time>
      </trkpt>
      <trkpt lat="40.270033" lon="-4.906150">
        <ele>2059.0</ele>
        <time>2018-09-15T12:40:16Z</time>
      </trkpt>
      <trkpt lat="40.270133" lon="-4.906233">
        <ele>2059.0</ele>
        <time>2018-09-15T12:40:17Z</time>
      </trkpt>
      <trkpt lat="40.270217" lon="-4.906300">
        <ele>2060.0</ele>
        <time>2018-09-15T12:40:18Z</time>
      </trkpt>
      <trkpt lat="40.270300" lon="-4.906367">
        <ele>2062.0</ele>
        <time>2018-09-15T12:40:19Z</time>
      </trkpt>
      <trkpt lat="40.270367" lon="-4.906433">
        <ele>2066.0</ele>
        <time>2018-09-15T12:40:20Z</time>
      </trkpt>
      <trkpt lat="40.270450" lon="-4.906483">
        <ele>2065.0</ele>
        <time>2018-09-15T12:40:21Z</time>
      </trkpt>
      <trkpt lat="40.270550" lon="-4.906533">
        <ele>2066.0</ele>
        <time>2018-09-15T12:40:22Z</time>
      </trkpt>
      <trkpt lat="40.270650" lon="-4.906583">
        <ele>2066.0</ele>
        <time>2018-09-15T12:40:23Z</time>
      </trkpt>
      <trkpt lat="40.270750" lon="-4.906617">
        <ele>2066.0</ele>
        <time>2018-09-15T12:40:24Z</time>
      </trkpt>
      <trkpt lat="40.270867" lon="-4.906667">
        <ele>2064.0</ele>
        <time>2018-09-15T12:40:25Z</time>
      </trkpt>
      <trkpt lat="40.270983" lon="-4.906683">
        <ele>2061.0</ele>
        <time>2018-09-15T12:40:26Z</time>
      </trkpt>
      <trkpt lat="40.271083" lon="-4.906700">
        <ele>2059.0</ele>
        <time>2018-09-15T12:40:27Z</time>
      </trkpt>
      <trkpt lat="40.271183" lon="-4.906717">
        <ele>2057.0</ele>
        <time>2018-09-15T12:40:28Z</time>
      </trkpt>
      <trkpt lat="40.271283" lon="-4.906717">
        <ele>2056.0</ele>
        <time>2018-09-15T12:40:29Z</time>
      </trkpt>
      <trkpt lat="40.271383" lon="-4.906700">
        <ele>2054.0</ele>
        <time>2018-09-15T12:40:30Z</time>
      </trkpt>
      <trkpt lat="40.271483" lon="-4.906683">
        <ele>2052.0</ele>
        <time>2018-09-15T12:40:31Z</time>
      </trkpt>
      <trkpt lat="40.271583" lon="-4.906683">
        <ele>2049.0</ele>
        <time>2018-09-15T12:40:32Z</time>
      </trkpt>
      <trkpt lat="40.271700" lon="-4.906683">
        <ele>2048.0</ele>
        <time>2018-09-15T12:40:33Z</time>
      </trkpt>
      <trkpt lat="40.271800" lon="-4.906683">
        <ele>2048.0</ele>
        <time>2018-09-15T12:40:34Z</time>
      </trkpt>
      <trkpt lat="40.271883" lon="-4.906667">
        <ele>2047.0</ele>
        <time>2018-09-15T12:40:35Z</time>
      </trkpt>
      <trkpt lat="40.271967" lon="-4.906667">
        <ele>2048.0</ele>
        <time>2018-09-15T12:40:36Z</time>
      </trkpt>
      <trkpt lat="40.272083" lon="-4.906650">
        <ele>2047.0</ele>
        <time>2018-09-15T12:40:37Z</time>
      </trkpt>
      <trkpt lat="40.272183" lon="-4.906617">
        <ele>2046.0</ele>
        <time>2018-09-15T12:40:38Z</time>
      </trkpt>
      <trkpt lat="40.272283" lon="-4.906600">
        <ele>2043.0</ele>
        <time>2018-09-15T12:40:39Z</time>
      </trkpt>
      <trkpt lat="40.272367" lon="-4.906583">
        <ele>2043.0</ele>
        <time>2018-09-15T12:40:40Z</time>
      </trkpt>
      <trkpt lat="40.272450" lon="-4.906567">
        <ele>2042.0</ele>
        <time>2018-09-15T12:40:41Z</time>
      </trkpt>
      <trkpt lat="40.272517" lon="-4.906567">
        <ele>2041.0</ele>
        <time>2018-09-15T12:40:42Z</time>
      </trkpt>
      <trkpt lat="40.272600" lon="-4.906550">
        <ele>2039.0</ele>
        <time>2018-09-15T12:40:43Z</time>
      </trkpt>
      <trkpt lat="40.272700" lon="-4.906500">
        <ele>2038.0</ele>
        <time>2018-09-15T12:40:44Z</time>
      </trkpt>
      <trkpt lat="40.272800" lon="-4.906450">
        <ele>2034.0</ele>
        <time>2018-09-15T12:40:45Z</time>
      </trkpt>
      <trkpt lat="40.272917" lon="-4.906417">
        <ele>2032.0</ele>
        <time>2018-09-15T12:40:46Z</time>
      </trkpt>
      <trkpt lat="40.273000" lon="-4.906383">
        <ele>2032.0</ele>
        <time>2018-09-15T12:40:47Z</time>
      </trkpt>
      <trkpt lat="40.273100" lon="-4.906367">
        <ele>2032.0</ele>
        <time>2018-09-15T12:40:48Z</time>
      </trkpt>
      <trkpt lat="40.273200" lon="-4.906333">
        <ele>2031.0</ele>
        <time>2018-09-15T12:40:49Z</time>
      </trkpt>
      <trkpt lat="40.273300" lon="-4.906317">
        <ele>2030.0</ele>
        <time>2018-09-15T12:40:50Z</time>
      </trkpt>
      <trkpt lat="40.273400" lon="-4.906283">
        <ele>2029.0</ele>
        <time>2018-09-15T12:40:51Z</time>
      </trkpt>
      <trkpt lat="40.273500" lon="-4.906267">
        <ele>2028.0</ele>
        <time>2018-09-15T12:40:52Z</time>
      </trkpt>
      <trkpt lat="40.273583" lon="-4.906250">
        <ele>2029.0</ele>
        <time>2018-09-15T12:40:53Z</time>
      </trkpt>
      <trkpt lat="40.273667" lon="-4.906250">
        <ele>2028.0</ele>
        <time>2018-09-15T12:40:54Z</time>
      </trkpt>
      <trkpt lat="40.273733" lon="-4.906233">
        <ele>2026.0</ele>
        <time>2018-09-15T12:40:55Z</time>
      </trkpt>
      <trkpt lat="40.273833" lon="-4.906217">
        <ele>2023.0</ele>
        <time>2018-09-15T12:40:56Z</time>
      </trkpt>
      <trkpt lat="40.273933" lon="-4.906167">
        <ele>2020.0</ele>
        <time>2018-09-15T12:40:57Z</time>
      </trkpt>
      <trkpt lat="40.274050" lon="-4.906150">
        <ele>2016.0</ele>
        <time>2018-09-15T12:40:58Z</time>
      </trkpt>
      <trkpt lat="40.274167" lon="-4.906133">
        <ele>2014.0</ele>
        <time>2018-09-15T12:40:59Z</time>
      </trkpt>
      <trkpt lat="40.274267" lon="-4.906117">
        <ele>2014.0</ele>
        <time>2018-09-15T12:41:00Z</time>
      </trkpt>
      <trkpt lat="40.274367" lon="-4.906100">
        <ele>2013.0</ele>
        <time>2018-09-15T12:41:01Z</time>
      </trkpt>
      <trkpt lat="40.274467" lon="-4.906083">
        <ele>2013.0</ele>
        <time>2018-09-15T12:41:02Z</time>
      </trkpt>
      <trkpt lat="40.274583" lon="-4.906050">
        <ele>2012.0</ele>
        <time>2018-09-15T12:41:03Z</time>
      </trkpt>
      <trkpt lat="40.274683" lon="-4.906033">
        <ele>2010.0</ele>
        <time>2018-09-15T12:41:04Z</time>
      </trkpt>
      <trkpt lat="40.274800" lon="-4.906000">
        <ele>2009.0</ele>
        <time>2018-09-15T12:41:05Z</time>
      </trkpt>
      <trkpt lat="40.274900" lon="-4.905983">
        <ele>2008.0</ele>
        <time>2018-09-15T12:41:06Z</time>
      </trkpt>
      <trkpt lat="40.275017" lon="-4.905967">
        <ele>2007.0</ele>
        <time>2018-09-15T12:41:07Z</time>
      </trkpt>
      <trkpt lat="40.275133" lon="-4.905967">
        <ele>2006.0</ele>
        <time>2018-09-15T12:41:08Z</time>
      </trkpt>
      <trkpt lat="40.275250" lon="-4.905967">
        <ele>2005.0</ele>
        <time>2018-09-15T12:41:09Z</time>
      </trkpt>
      <trkpt lat="40.275367" lon="-4.905950">
        <ele>2004.0</ele>
        <time>2018-09-15T12:41:10Z</time>
      </trkpt>
      <trkpt lat="40.275483" lon="-4.905933">
        <ele>2003.0</ele>
        <time>2018-09-15T12:41:11Z</time>
      </trkpt>
      <trkpt lat="40.275583" lon="-4.905917">
        <ele>2002.0</ele>
        <time>2018-09-15T12:41:12Z</time>
      </trkpt>
      <trkpt lat="40.275683" lon="-4.905883">
        <ele>2001.0</ele>
        <time>2018-09-15T12:41:13Z</time>
      </trkpt>
      <trkpt lat="40.275800" lon="-4.905867">
        <ele>1999.0</ele>
        <time>2018-09-15T12:41:14Z</time>
      </trkpt>
      <trkpt lat="40.275933" lon="-4.905850">
        <ele>1998.0</ele>
        <time>2018-09-15T12:41:15Z</time>
      </trkpt>
      <trkpt lat="40.276050" lon="-4.905833">
        <ele>1997.0</ele>
        <time>2018-09-15T12:41:16Z</time>
      </trkpt>
      <trkpt lat="40.276150" lon="-4.905800">
        <ele>1997.0</ele>
        <time>2018-09-15T12:41:17Z</time>
      </trkpt>
      <trkpt lat="40.276250" lon="-4.905767">
        <ele>1997.0</ele>
        <time>2018-09-15T12:41:18Z</time>
      </trkpt>
      <trkpt lat="40.276333" lon="-4.905733">
        <ele>1998.0</ele>
        <time>2018-09-15T12:41:19Z</time>
      </trkpt>
      <trkpt lat="40.276433" lon="-4.905700">
        <ele>1998.0</ele>
        <time>2018-09-15T12:41:20Z</time>
      </trkpt>
      <trkpt lat="40.276550" lon="-4.905683">
        <ele>1997.0</ele>
        <time>2018-09-15T12:41:21Z</time>
      </trkpt>
      <trkpt lat="40.276650" lon="-4.905650">
        <ele>1997.0</ele>
        <time>2018-09-15T12:41:22Z</time>
      </trkpt>
      <trkpt lat="40.276733" lon="-4.905650">
        <ele>1998.0</ele>
        <time>2018-09-15T12:41:23Z</time>
      </trkpt>
      <trkpt lat="40.276833" lon="-4.905633">
        <ele>1998.0</ele>
        <time>2018-09-15T12:41:24Z</time>
      </trkpt>
      <trkpt lat="40.276933" lon="-4.905633">
        <ele>1996.0</ele>
        <time>2018-09-15T12:41:25Z</time>
      </trkpt>
      <trkpt lat="40.277033" lon="-4.905633">
        <ele>1995.0</ele>
        <time>2018-09-15T12:41:26Z</time>
      </trkpt>
      <trkpt lat="40.277133" lon="-4.905617">
        <ele>1993.0</ele>
        <time>2018-09-15T12:41:27Z</time>
      </trkpt>
      <trkpt lat="40.277233" lon="-4.905617">
        <ele>1991.0</ele>
        <time>2018-09-15T12:41:28Z</time>
      </trkpt>
      <trkpt lat="40.277350" lon="-4.905600">
        <ele>1989.0</ele>
        <time>2018-09-15T12:41:29Z</time>
      </trkpt>
      <trkpt lat="40.277450" lon="-4.905583">
        <ele>1987.0</ele>
        <time>2018-09-15T12:41:30Z</time>
      </trkpt>
      <trkpt lat="40.277533" lon="-4.905550">
        <ele>1984.0</ele>
        <time>2018-09-15T12:41:31Z</time>
      </trkpt>
      <trkpt lat="40.277633" lon="-4.905533">
        <ele>1982.0</ele>
        <time>2018-09-15T12:41:32Z</time>
      </trkpt>
      <trkpt lat="40.277733" lon="-4.905500">
        <ele>1979.0</ele>
        <time>2018-09-15T12:41:33Z</time>
      </trkpt>
      <trkpt lat="40.277817" lon="-4.905467">
        <ele>1979.0</ele>
        <time>2018-09-15T12:41:34Z</time>
      </trkpt>
      <trkpt lat="40.277950" lon="-4.905450">
        <ele>1978.0</ele>
        <time>2018-09-15T12:41:35Z</time>
      </trkpt>
      <trkpt lat="40.278050" lon="-4.905450">
        <ele>1978.0</ele>
        <time>2018-09-15T12:41:36Z</time>
      </trkpt>
      <trkpt lat="40.278150" lon="-4.905433">
        <ele>1980.0</ele>
        <time>2018-09-15T12:41:37Z</time>
      </trkpt>
      <trkpt lat="40.278233" lon="-4.905417">
        <ele>1981.0</ele>
        <time>2018-09-15T12:41:38Z</time>
      </trkpt>
      <trkpt lat="40.278283" lon="-4.905400">
        <ele>1981.0</ele>
        <time>2018-09-15T12:41:39Z</time>
      </trkpt>
      <trkpt lat="40.278350" lon="-4.905383">
        <ele>1980.0</ele>
        <time>2018-09-15T12:41:40Z</time>
      </trkpt>
      <trkpt lat="40.278417" lon="-4.905367">
        <ele>1978.0</ele>
        <time>2018-09-15T12:41:41Z</time>
      </trkpt>
      <trkpt lat="40.278500" lon="-4.905350">
        <ele>1975.0</ele>
        <time>2018-09-15T12:41:42Z</time>
      </trkpt>
      <trkpt lat="40.278583" lon="-4.905333">
        <ele>1973.0</ele>
        <time>2018-09-15T12:41:43Z</time>
      </trkpt>
      <trkpt lat="40.278667" lon="-4.905317">
        <ele>1971.0</ele>
        <time>2018-09-15T12:41:44Z</time>
      </trkpt>
      <trkpt lat="40.278767" lon="-4.905300">
        <ele>1969.0</ele>
        <time>2018-09-15T12:41:45Z</time>
      </trkpt>
      <trkpt lat="40.278833" lon="-4.905283">
        <ele>1969.0</ele>
        <time>2018-09-15T12:41:46Z</time>
      </trkpt>
      <trkpt lat="40.278917" lon="-4.905283">
        <ele>1968.0</ele>
        <time>2018-09-15T12:41:47Z</time>
      </trkpt>
      <trkpt lat="40.279000" lon="-4.905283">
        <ele>1967.0</ele>
        <time>2018-09-15T12:41:48Z</time>
      </trkpt>
      <trkpt lat="40.279067" lon="-4.905283">
        <ele>1966.0</ele>
        <time>2018-09-15T12:41:49Z</time>
      </trkpt>
      <trkpt lat="40.279150" lon="-4.905300">
        <ele>1965.0</ele>
        <time>2018-09-15T12:41:50Z</time>
      </trkpt>
      <trkpt lat="40.279233" lon="-4.905300">
        <ele>1963.0</ele>
        <time>2018-09-15T12:41:51Z</time>
      </trkpt>
      <trkpt lat="40.279333" lon="-4.905283">
        <ele>1962.0</ele>
        <time>2018-09-15T12:41:52Z</time>
      </trkpt>
      <trkpt lat="40.279433" lon="-4.905267">
        <ele>1962.0</ele>
        <time>2018-09-15T12:41:53Z</time>
      </trkpt>
      <trkpt lat="40.279533" lon="-4.905250">
        <ele>1961.0</ele>
        <time>2018-09-15T12:41:54Z</time>
      </trkpt>
      <trkpt lat="40.279633" lon="-4.905217">
        <ele>1959.0</ele>
        <time>2018-09-15T12:41:55Z</time>
      </trkpt>
      <trkpt lat="40.279717" lon="-4.905200">
        <ele>1958.0</ele>
        <time>2018-09-15T12:41:56Z</time>
      </trkpt>
      <trkpt lat="40.279817" lon="-4.905167">
        <ele>1957.0</ele>
        <time>2018-09-15T12:41:57Z</time>
      </trkpt>
      <trkpt lat="40.279917" lon="-4.905150">
        <ele>1956.0</ele>
        <time>2018-09-15T12:41:58Z</time>
      </trkpt>
      <trkpt lat="40.280033" lon="-4.905117">
        <ele>1954.0</ele>
        <time>2018-09-15T12:41:59Z</time>
      </trkpt>
      <trkpt lat="40.280150" lon="-4.905067">
        <ele>1951.0</ele>
        <time>2018-09-15T12:42:00Z</time>
      </trkpt>
      <trkpt lat="40.280267" lon="-4.905033">
        <ele>1950.0</ele>
        <time>2018-09-15T12:42:01Z</time>
      </trkpt>
      <trkpt lat="40.280383" lon="-4.904983">
        <ele>1950.0</ele>
        <time>2018-09-15T12:42:02Z</time>
      </trkpt>
      <trkpt lat="40.280483" lon="-4.904950">
        <ele>1953.0</ele>
        <time>2018-09-15T12:42:03Z</time>
      </trkpt>
      <trkpt lat="40.280583" lon="-4.904933">
        <ele>1954.0</ele>
        <time>2018-09-15T12:42:04Z</time>
      </trkpt>
      <trkpt lat="40.280683" lon="-4.904917">
        <ele>1955.0</ele>
        <time>2018-09-15T12:42:05Z</time>
      </trkpt>
      <trkpt lat="40.280800" lon="-4.904900">
        <ele>1955.0</ele>
        <time>2018-09-15T12:42:06Z</time>
      </trkpt>
      <trkpt lat="40.280900" lon="-4.904867">
        <ele>1956.0</ele>
        <time>2018-09-15T12:42:07Z</time>
      </trkpt>
      <trkpt lat="40.280967" lon="-4.904767">
        <ele>1956.0</ele>
        <time>2018-09-15T12:42:08Z</time>
      </trkpt>
      <trkpt lat="40.281000" lon="-4.904667">
        <ele>1956.0</ele>
        <time>2018-09-15T12:42:09Z</time>
      </trkpt>
      <trkpt lat="40.280967" lon="-4.904583">
        <ele>1955.0</ele>
        <time>2018-09-15T12:42:10Z</time>
      </trkpt>
      <trkpt lat="40.280900" lon="-4.904550">
        <ele>1956.0</ele>
        <time>2018-09-15T12:42:11Z</time>
      </trkpt>
      <trkpt lat="40.280833" lon="-4.904600">
        <ele>1955.0</ele>
        <time>2018-09-15T12:42:12Z</time>
      </trkpt>
      <trkpt lat="40.280783" lon="-4.904717">
        <ele>1955.0</ele>
        <time>2018-09-15T12:42:13Z</time>
      </trkpt>
      <trkpt lat="40.280767" lon="-4.904883">
        <ele>1955.0</ele>
        <time>2018-09-15T12:42:14Z</time>
      </trkpt>
      <trkpt lat="40.280817" lon="-4.905033">
        <ele>1954.0</ele>
        <time>2018-09-15T12:42:15Z</time>
      </trkpt>
      <trkpt lat="40.280900" lon="-4.905183">
        <ele>1953.0</ele>
        <time>2018-09-15T12:42:16Z</time>
      </trkpt>
      <trkpt lat="40.280967" lon="-4.905300">
        <ele>1954.0</ele>
        <time>2018-09-15T12:42:17Z</time>
      </trkpt>
      <trkpt lat="40.281033" lon="-4.905400">
        <ele>1954.0</ele>
        <time>2018-09-15T12:42:18Z</time>
      </trkpt>
      <trkpt lat="40.281100" lon="-4.905517">
        <ele>1955.0</ele>
        <time>2018-09-15T12:42:19Z</time>
      </trkpt>
      <trkpt lat="40.281183" lon="-4.905617">
        <ele>1956.0</ele>
        <time>2018-09-15T12:42:20Z</time>
      </trkpt>
      <trkpt lat="40.281267" lon="-4.905733">
        <ele>1957.0</ele>
        <time>2018-09-15T12:42:21Z</time>
      </trkpt>
      <trkpt lat="40.281367" lon="-4.905817">
        <ele>1958.0</ele>
        <time>2018-09-15T12:42:22Z</time>
      </trkpt>
      <trkpt lat="40.281467" lon="-4.905883">
        <ele>1959.0</ele>
        <time>2018-09-15T12:42:23Z</time>
      </trkpt>
      <trkpt lat="40.281583" lon="-4.905917">
        <ele>1961.0</ele>
        <time>2018-09-15T12:42:24Z</time>
      </trkpt>
      <trkpt lat="40.281700" lon="-4.905933">
        <ele>1963.0</ele>
        <time>2018-09-15T12:42:25Z</time>
      </trkpt>
      <trkpt lat="40.281800" lon="-4.905900">
        <ele>1964.0</ele>
        <time>2018-09-15T12:42:26Z</time>
      </trkpt>
      <trkpt lat="40.281900" lon="-4.905850">
        <ele>1964.0</ele>
        <time>2018-09-15T12:42:27Z</time>
      </trkpt>
      <trkpt lat="40.281967" lon="-4.905767">
        <ele>1966.0</ele>
        <time>2018-09-15T12:42:28Z</time>
      </trkpt>
      <trkpt lat="40.281983" lon="-4.905700">
        <ele>1967.0</ele>
        <time>2018-09-15T12:42:29Z</time>
      </trkpt>
      <trkpt lat="40.281983" lon="-4.905633">
        <ele>1967.0</ele>
        <time>2018-09-15T12:42:30Z</time>
      </trkpt>
      <trkpt lat="40.281933" lon="-4.905583">
        <ele>1967.0</ele>
        <time>2018-09-15T12:42:31Z</time>
      </trkpt>
      <trkpt lat="40.281883" lon="-4.905567">
        <ele>1967.0</ele>
        <time>2018-09-15T12:42:32Z</time>
      </trkpt>
      <trkpt lat="40.281817" lon="-4.905633">
        <ele>1967.0</ele>
        <time>2018-09-15T12:42:33Z</time>
      </trkpt>
      <trkpt lat="40.281783" lon="-4.905767">
        <ele>1967.0</ele>
        <time>2018-09-15T12:42:34Z</time>
      </trkpt>
      <trkpt lat="40.281783" lon="-4.905933">
        <ele>1966.0</ele>
        <time>2018-09-15T12:42:35Z</time>
      </trkpt>
      <trkpt lat="40.281833" lon="-4.906100">
        <ele>1967.0</ele>
        <time>2018-09-15T12:42:36Z</time>
      </trkpt>
      <trkpt lat="40.281900" lon="-4.906250">
        <ele>1969.0</ele>
        <time>2018-09-15T12:42:37Z</time>
      </trkpt>
      <trkpt lat="40.282000" lon="-4.906367">
        <ele>1970.0</ele>
        <time>2018-09-15T12:42:38Z</time>
      </trkpt>
      <trkpt lat="40.282067" lon="-4.906483">
        <ele>1971.0</ele>
        <time>2018-09-15T12:42:39Z</time>
      </trkpt>
      <trkpt lat="40.282150" lon="-4.906600">
        <ele>1973.0</ele>
        <time>2018-09-15T12:42:40Z</time>
      </trkpt>
      <trkpt lat="40.282233" lon="-4.906717">
        <ele>1974.0</ele>
        <time>2018-09-15T12:42:41Z</time>
      </trkpt>
      <trkpt lat="40.282333" lon="-4.906817">
        <ele>1975.0</ele>
        <time>2018-09-15T12:42:42Z</time>
      </trkpt>
      <trkpt lat="40.282433" lon="-4.906883">
        <ele>1975.0</ele>
        <time>2018-09-15T12:42:43Z</time>
      </trkpt>
      <trkpt lat="40.282550" lon="-4.906933">
        <ele>1974.0</ele>
        <time>2018-09-15T12:42:44Z</time>
      </trkpt>
      <trkpt lat="40.282650" lon="-4.906917">
        <ele>1973.0</ele>
        <time>2018-09-15T12:42:45Z</time>
      </trkpt>
      <trkpt lat="40.282717" lon="-4.906867">
        <ele>1973.0</ele>
        <time>2018-09-15T12:42:46Z</time>
      </trkpt>
      <trkpt lat="40.282750" lon="-4.906783">
        <ele>1972.0</ele>
        <time>2018-09-15T12:42:47Z</time>
      </trkpt>
      <trkpt lat="40.282733" lon="-4.906717">
        <ele>1970.0</ele>
        <time>2018-09-15T12:42:48Z</time>
      </trkpt>
      <trkpt lat="40.282700" lon="-4.906683">
        <ele>1968.0</ele>
        <time>2018-09-15T12:42:49Z</time>
      </trkpt>
      <trkpt lat="40.282633" lon="-4.906667">
        <ele>1967.0</ele>
        <time>2018-09-15T12:42:50Z</time>
      </trkpt>
      <trkpt lat="40.282567" lon="-4.906733">
        <ele>1966.0</ele>
        <time>2018-09-15T12:42:51Z</time>
      </trkpt>
      <trkpt lat="40.282517" lon="-4.906850">
        <ele>1964.0</ele>
        <time>2018-09-15T12:42:52Z</time>
      </trkpt>
      <trkpt lat="40.282500" lon="-4.907017">
        <ele>1962.0</ele>
        <time>2018-09-15T12:42:53Z</time>
      </trkpt>
      <trkpt lat="40.282533" lon="-4.907183">
        <ele>1960.0</ele>
        <time>2018-09-15T12:42:54Z</time>
      </trkpt>
      <trkpt lat="40.282600" lon="-4.907333">
        <ele>1959.0</ele>
        <time>2018-09-15T12:42:55Z</time>
      </trkpt>
      <trkpt lat="40.282683" lon="-4.907450">
        <ele>1958.0</ele>
        <time>2018-09-15T12:42:56Z</time>
      </trkpt>
      <trkpt lat="40.282783" lon="-4.907533">
        <ele>1957.0</ele>
        <time>2018-09-15T12:42:57Z</time>
      </trkpt>
      <trkpt lat="40.282883" lon="-4.907600">
        <ele>1957.0</ele>
        <time>2018-09-15T12:42:58Z</time>
      </trkpt>
      <trkpt lat="40.282983" lon="-4.907633">
        <ele>1956.0</ele>
        <time>2018-09-15T12:42:59Z</time>
      </trkpt>
      <trkpt lat="40.283067" lon="-4.907667">
        <ele>1956.0</ele>
        <time>2018-09-15T12:43:00Z</time>
      </trkpt>
      <trkpt lat="40.283183" lon="-4.907750">
        <ele>1955.0</ele>
        <time>2018-09-15T12:43:01Z</time>
      </trkpt>
      <trkpt lat="40.283300" lon="-4.907817">
        <ele>1953.0</ele>
        <time>2018-09-15T12:43:02Z</time>
      </trkpt>
      <trkpt lat="40.283400" lon="-4.907867">
        <ele>1953.0</ele>
        <time>2018-09-15T12:43:03Z</time>
      </trkpt>
      <trkpt lat="40.283500" lon="-4.907900">
        <ele>1953.0</ele>
        <time>2018-09-15T12:43:04Z</time>
      </trkpt>
      <trkpt lat="40.283600" lon="-4.907917">
        <ele>1954.0</ele>
        <time>2018-09-15T12:43:05Z</time>
      </trkpt>
      <trkpt lat="40.283683" lon="-4.907933">
        <ele>1955.0</ele>
        <time>2018-09-15T12:43:06Z</time>
      </trkpt>
      <trkpt lat="40.283767" lon="-4.907967">
        <ele>1955.0</ele>
        <time>2018-09-15T12:43:07Z</time>
      </trkpt>
      <trkpt lat="40.283867" lon="-4.907983">
        <ele>1956.0</ele>
        <time>2018-09-15T12:43:08Z</time>
      </trkpt>
      <trkpt lat="40.283950" lon="-4.907983">
        <ele>1956.0</ele>
        <time>2018-09-15T12:43:09Z</time>
      </trkpt>
      <trkpt lat="40.284033" lon="-4.907950">
        <ele>1957.0</ele>
        <time>2018-09-15T12:43:10Z</time>
      </trkpt>
      <trkpt lat="40.284100" lon="-4.907917">
        <ele>1958.0</ele>
        <time>2018-09-15T12:43:11Z</time>
      </trkpt>
      <trkpt lat="40.284167" lon="-4.907883">
        <ele>1960.0</ele>
        <time>2018-09-15T12:43:12Z</time>
      </trkpt>
      <trkpt lat="40.284233" lon="-4.907883">
        <ele>1961.0</ele>
        <time>2018-09-15T12:43:13Z</time>
      </trkpt>
      <trkpt lat="40.284300" lon="-4.907883">
        <ele>1962.0</ele>
        <time>2018-09-15T12:43:14Z</time>
      </trkpt>
      <trkpt lat="40.284367" lon="-4.907883">
        <ele>1962.0</ele>
        <time>2018-09-15T12:43:15Z</time>
      </trkpt>
      <trkpt lat="40.284450" lon="-4.907883">
        <ele>1958.0</ele>
        <time>2018-09-15T12:43:16Z</time>
      </trkpt>
      <trkpt lat="40.284517" lon="-4.907850">
        <ele>1955.0</ele>
        <time>2018-09-15T12:43:17Z</time>
      </trkpt>
      <trkpt lat="40.284600" lon="-4.907833">
        <ele>1953.0</ele>
        <time>2018-09-15T12:43:18Z</time>
      </trkpt>
      <trkpt lat="40.284667" lon="-4.907833">
        <ele>1951.0</ele>
        <time>2018-09-15T12:43:19Z</time>
      </trkpt>
      <trkpt lat="40.284717" lon="-4.907833">
        <ele>1951.0</ele>
        <time>2018-09-15T12:43:20Z</time>
      </trkpt>
      <trkpt lat="40.284783" lon="-4.907833">
        <ele>1950.0</ele>
        <time>2018-09-15T12:43:21Z</time>
      </trkpt>
      <trkpt lat="40.284850" lon="-4.907833">
        <ele>1949.0</ele>
        <time>2018-09-15T12:43:22Z</time>
      </trkpt>
      <trkpt lat="40.284917" lon="-4.907800">
        <ele>1946.0</ele>
        <time>2018-09-15T12:43:23Z</time>
      </trkpt>
      <trkpt lat="40.285000" lon="-4.907767">
        <ele>1944.0</ele>
        <time>2018-09-15T12:43:24Z</time>
      </trkpt>
      <trkpt lat="40.285067" lon="-4.907733">
        <ele>1943.0</ele>
        <time>2018-09-15T12:43:25Z</time>
      </trkpt>
      <trkpt lat="40.285133" lon="-4.907700">
        <ele>1942.0</ele>
        <time>2018-09-15T12:43:26Z</time>
      </trkpt>
      <trkpt lat="40.285200" lon="-4.907667">
        <ele>1941.0</ele>
        <time>2018-09-15T12:43:27Z</time>
      </trkpt>
      <trkpt lat="40.285267" lon="-4.907650">
        <ele>1941.0</ele>
        <time>2018-09-15T12:43:28Z</time>
      </trkpt>
      <trkpt lat="40.285367" lon="-4.907633">
        <ele>1940.0</ele>
        <time>2018-09-15T12:43:29Z</time>
      </trkpt>
      <trkpt lat="40.285450" lon="-4.907633">
        <ele>1939.0</ele>
        <time>2018-09-15T12:43:30Z</time>
      </trkpt>
      <trkpt lat="40.285533" lon="-4.907617">
        <ele>1937.0</ele>
        <time>2018-09-15T12:43:31Z</time>
      </trkpt>
      <trkpt lat="40.285600" lon="-4.907617">
        <ele>1935.0</ele>
        <time>2018-09-15T12:43:32Z</time>
      </trkpt>
      <trkpt lat="40.285683" lon="-4.907617">
        <ele>1932.0</ele>
        <time>2018-09-15T12:43:33Z</time>
      </trkpt>
      <trkpt lat="40.285767" lon="-4.907617">
        <ele>1930.0</ele>
        <time>2018-09-15T12:43:34Z</time>
      </trkpt>
      <trkpt lat="40.285833" lon="-4.907633">
        <ele>1928.0</ele>
        <time>2018-09-15T12:43:35Z</time>
      </trkpt>
      <trkpt lat="40.285900" lon="-4.907633">
        <ele>1926.0</ele>
        <time>2018-09-15T12:43:36Z</time>
      </trkpt>
      <trkpt lat="40.285983" lon="-4.907650">
        <ele>1924.0</ele>
        <time>2018-09-15T12:43:37Z</time>
      </trkpt>
      <trkpt lat="40.286050" lon="-4.907633">
        <ele>1921.0</ele>
        <time>2018-09-15T12:43:38Z</time>
      </trkpt>
      <trkpt lat="40.286117" lon="-4.907633">
        <ele>1918.0</ele>
        <time>2018-09-15T12:43:39Z</time>
      </trkpt>
      <trkpt lat="40.286200" lon="-4.907633">
        <ele>1918.0</ele>
        <time>2018-09-15T12:43:40Z</time>
      </trkpt>
      <trkpt lat="40.286283" lon="-4.907633">
        <ele>1917.0</ele>
        <time>2018-09-15T12:43:41Z</time>
      </trkpt>
      <trkpt lat="40.286367" lon="-4.907633">
        <ele>1914.0</ele>
        <time>2018-09-15T12:43:42Z</time>
      </trkpt>
      <trkpt lat="40.286450" lon="-4.907633">
        <ele>1912.0</ele>
        <time>2018-09-15T12:43:43Z</time>
      </trkpt>
      <trkpt lat="40.286533" lon="-4.907633">
        <ele>1909.0</ele>
        <time>2018-09-15T12:43:44Z</time>
      </trkpt>
      <trkpt lat="40.286600" lon="-4.907633">
        <ele>1906.0</ele>
        <time>2018-09-15T12:43:45Z</time>
      </trkpt>
      <trkpt lat="40.286667" lon="-4.907617">
        <ele>1903.0</ele>
        <time>2018-09-15T12:43:46Z</time>
      </trkpt>
      <trkpt lat="40.286750" lon="-4.907617">
        <ele>1900.0</ele>
        <time>2018-09-15T12:43:47Z</time>
      </trkpt>
      <trkpt lat="40.286817" lon="-4.907600">
        <ele>1897.0</ele>
        <time>2018-09-15T12:43:48Z</time>
      </trkpt>
      <trkpt lat="40.286900" lon="-4.907583">
        <ele>1895.0</ele>
        <time>2018-09-15T12:43:49Z</time>
      </trkpt>
      <trkpt lat="40.286983" lon="-4.907550">
        <ele>1893.0</ele>
        <time>2018-09-15T12:43:50Z</time>
      </trkpt>
      <trkpt lat="40.287067" lon="-4.907533">
        <ele>1893.0</ele>
        <time>2018-09-15T12:43:51Z</time>
      </trkpt>
      <trkpt lat="40.287133" lon="-4.907517">
        <ele>1894.0</ele>
        <time>2018-09-15T12:43:52Z</time>
      </trkpt>
      <trkpt lat="40.287217" lon="-4.907500">
        <ele>1894.0</ele>
        <time>2018-09-15T12:43:53Z</time>
      </trkpt>
      <trkpt lat="40.287300" lon="-4.907483">
        <ele>1893.0</ele>
        <time>2018-09-15T12:43:54Z</time>
      </trkpt>
      <trkpt lat="40.287367" lon="-4.907467">
        <ele>1892.0</ele>
        <time>2018-09-15T12:43:55Z</time>
      </trkpt>
      <trkpt lat="40.287433" lon="-4.907450">
        <ele>1892.0</ele>
        <time>2018-09-15T12:43:56Z</time>
      </trkpt>
      <trkpt lat="40.287500" lon="-4.907417">
        <ele>1891.0</ele>
        <time>2018-09-15T12:43:57Z</time>
      </trkpt>
      <trkpt lat="40.287550" lon="-4.907367">
        <ele>1890.0</ele>
        <time>2018-09-15T12:43:58Z</time>
      </trkpt>
      <trkpt lat="40.287600" lon="-4.907317">
        <ele>1888.0</ele>
        <time>2018-09-15T12:43:59Z</time>
      </trkpt>
      <trkpt lat="40.287650" lon="-4.907250">
        <ele>1887.0</ele>
        <time>2018-09-15T12:44:00Z</time>
      </trkpt>
      <trkpt lat="40.287717" lon="-4.907200">
        <ele>1886.0</ele>
        <time>2018-09-15T12:44:01Z</time>
      </trkpt>
      <trkpt lat="40.287783" lon="-4.907167">
        <ele>1886.0</ele>
        <time>2018-09-15T12:44:02Z</time>
      </trkpt>
      <trkpt lat="40.287833" lon="-4.907133">
        <ele>1886.0</ele>
        <time>2018-09-15T12:44:03Z</time>
      </trkpt>
      <trkpt lat="40.287900" lon="-4.907100">
        <ele>1885.0</ele>
        <time>2018-09-15T12:44:04Z</time>
      </trkpt>
      <trkpt lat="40.287950" lon="-4.907050">
        <ele>1885.0</ele>
        <time>2018-09-15T12:44:05Z</time>
      </trkpt>
      <trkpt lat="40.288000" lon="-4.907017">
        <ele>1884.0</ele>
        <time>2018-09-15T12:44:06Z</time>
      </trkpt>
      <trkpt lat="40.288067" lon="-4.906983">
        <ele>1885.0</ele>
        <time>2018-09-15T12:44:07Z</time>
      </trkpt>
      <trkpt lat="40.288133" lon="-4.906967">
        <ele>1885.0</ele>
        <time>2018-09-15T12:44:08Z</time>
      </trkpt>
      <trkpt lat="40.288183" lon="-4.906950">
        <ele>1885.0</ele>
        <time>2018-09-15T12:44:09Z</time>
      </trkpt>
      <trkpt lat="40.288233" lon="-4.906917">
        <ele>1884.0</ele>
        <time>2018-09-15T12:44:10Z</time>
      </trkpt>
      <trkpt lat="40.288283" lon="-4.906883">
        <ele>1883.0</ele>
        <time>2018-09-15T12:44:11Z</time>
      </trkpt>
      <trkpt lat="40.288333" lon="-4.906833">
        <ele>1880.0</ele>
        <time>2018-09-15T12:44:12Z</time>
      </trkpt>
      <trkpt lat="40.288400" lon="-4.906783">
        <ele>1878.0</ele>
        <time>2018-09-15T12:44:13Z</time>
      </trkpt>
      <trkpt lat="40.288450" lon="-4.906733">
        <ele>1877.0</ele>
        <time>2018-09-15T12:44:14Z</time>
      </trkpt>
      <trkpt lat="40.288500" lon="-4.906700">
        <ele>1877.0</ele>
        <time>2018-09-15T12:44:15Z</time>
      </trkpt>
      <trkpt lat="40.288550" lon="-4.906667">
        <ele>1877.0</ele>
        <time>2018-09-15T12:44:16Z</time>
      </trkpt>
      <trkpt lat="40.288600" lon="-4.906633">
        <ele>1876.0</ele>
        <time>2018-09-15T12:44:17Z</time>
      </trkpt>
      <trkpt lat="40.288650" lon="-4.906600">
        <ele>1874.0</ele>
        <time>2018-09-15T12:44:18Z</time>
      </trkpt>
      <trkpt lat="40.288700" lon="-4.906550">
        <ele>1872.0</ele>
        <time>2018-09-15T12:44:19Z</time>
      </trkpt>
      <trkpt lat="40.288750" lon="-4.906517">
        <ele>1870.0</ele>
        <time>2018-09-15T12:44:20Z</time>
      </trkpt>
      <trkpt lat="40.288800" lon="-4.906450">
        <ele>1868.0</ele>
        <time>2018-09-15T12:44:21Z</time>
      </trkpt>
      <trkpt lat="40.288850" lon="-4.906400">
        <ele>1866.0</ele>
        <time>2018-09-15T12:44:22Z</time>
      </trkpt>
      <trkpt lat="40.288900" lon="-4.906350">
        <ele>1864.0</ele>
        <time>2018-09-15T12:44:23Z</time>
      </trkpt>
      <trkpt lat="40.288950" lon="-4.906300">
        <ele>1863.0</ele>
        <time>2018-09-15T12:44:24Z</time>
      </trkpt>
      <trkpt lat="40.289017" lon="-4.906250">
        <ele>1862.0</ele>
        <time>2018-09-15T12:44:25Z</time>
      </trkpt>
      <trkpt lat="40.289067" lon="-4.906183">
        <ele>1860.0</ele>
        <time>2018-09-15T12:44:26Z</time>
      </trkpt>
      <trkpt lat="40.289117" lon="-4.906133">
        <ele>1859.0</ele>
        <time>2018-09-15T12:44:27Z</time>
      </trkpt>
      <trkpt lat="40.289183" lon="-4.906083">
        <ele>1859.0</ele>
        <time>2018-09-15T12:44:28Z</time>
      </trkpt>
      <trkpt lat="40.289250" lon="-4.906033">
        <ele>1858.0</ele>
        <time>2018-09-15T12:44:29Z</time>
      </trkpt>
      <trkpt lat="40.289333" lon="-4.905967">
        <ele>1856.0</ele>
        <time>2018-09-15T12:44:30Z</time>
      </trkpt>
      <trkpt lat="40.289400" lon="-4.905917">
        <ele>1855.0</ele>
        <time>2018-09-15T12:44:31Z</time>
      </trkpt>
      <trkpt lat="40.289450" lon="-4.905867">
        <ele>1855.0</ele>
        <time>2018-09-15T12:44:32Z</time>
      </trkpt>
      <trkpt lat="40.289500" lon="-4.905817">
        <ele>1854.0</ele>
        <time>2018-09-15T12:44:33Z</time>
      </trkpt>
      <trkpt lat="40.289567" lon="-4.905750">
        <ele>1853.0</ele>
        <time>2018-09-15T12:44:34Z</time>
      </trkpt>
      <trkpt lat="40.289617" lon="-4.905683">
        <ele>1851.0</ele>
        <time>2018-09-15T12:44:35Z</time>
      </trkpt>
      <trkpt lat="40.289667" lon="-4.905617">
        <ele>1849.0</ele>
        <time>2018-09-15T12:44:36Z</time>
      </trkpt>
      <trkpt lat="40.289717" lon="-4.905550">
        <ele>1847.0</ele>
        <time>2018-09-15T12:44:37Z</time>
      </trkpt>
      <trkpt lat="40.289767" lon="-4.905500">
        <ele>1847.0</ele>
        <time>2018-09-15T12:44:38Z</time>
      </trkpt>
      <trkpt lat="40.289817" lon="-4.905467">
        <ele>1846.0</ele>
        <time>2018-09-15T12:44:39Z</time>
      </trkpt>
      <trkpt lat="40.289867" lon="-4.905433">
        <ele>1844.0</ele>
        <time>2018-09-15T12:44:40Z</time>
      </trkpt>
      <trkpt lat="40.289933" lon="-4.905383">
        <ele>1841.0</ele>
        <time>2018-09-15T12:44:41Z</time>
      </trkpt>
      <trkpt lat="40.290017" lon="-4.905317">
        <ele>1838.0</ele>
        <time>2018-09-15T12:44:42Z</time>
      </trkpt>
      <trkpt lat="40.290083" lon="-4.905233">
        <ele>1834.0</ele>
        <time>2018-09-15T12:44:43Z</time>
      </trkpt>
      <trkpt lat="40.290150" lon="-4.905167">
        <ele>1832.0</ele>
        <time>2018-09-15T12:44:44Z</time>
      </trkpt>
      <trkpt lat="40.290200" lon="-4.905100">
        <ele>1832.0</ele>
        <time>2018-09-15T12:44:45Z</time>
      </trkpt>
      <trkpt lat="40.290250" lon="-4.905050">
        <ele>1831.0</ele>
        <time>2018-09-15T12:44:46Z</time>
      </trkpt>
      <trkpt lat="40.290300" lon="-4.905000">
        <ele>1829.0</ele>
        <time>2018-09-15T12:44:47Z</time>
      </trkpt>
      <trkpt lat="40.290350" lon="-4.904950">
        <ele>1827.0</ele>
        <time>2018-09-15T12:44:48Z</time>
      </trkpt>
      <trkpt lat="40.290417" lon="-4.904883">
        <ele>1824.0</ele>
        <time>2018-09-15T12:44:49Z</time>
      </trkpt>
      <trkpt lat="40.290483" lon="-4.904800">
        <ele>1822.0</ele>
        <time>2018-09-15T12:44:50Z</time>
      </trkpt>
      <trkpt lat="40.290533" lon="-4.904733">
        <ele>1821.0</ele>
        <time>2018-09-15T12:44:51Z</time>
      </trkpt>
      <trkpt lat="40.290567" lon="-4.904667">
        <ele>1820.0</ele>
        <time>2018-09-15T12:44:52Z</time>
      </trkpt>
      <trkpt lat="40.290600" lon="-4.904617">
        <ele>1819.0</ele>
        <time>2018-09-15T12:44:53Z</time>
      </trkpt>
      <trkpt lat="40.290633" lon="-4.904550">
        <ele>1817.0</ele>
        <time>2018-09-15T12:44:54Z</time>
      </trkpt>
      <trkpt lat="40.290667" lon="-4.904483">
        <ele>1815.0</ele>
        <time>2018-09-15T12:44:55Z</time>
      </trkpt>
      <trkpt lat="40.290717" lon="-4.904400">
        <ele>1811.0</ele>
        <time>2018-09-15T12:44:56Z</time>
      </trkpt>
      <trkpt lat="40.290767" lon="-4.904317">
        <ele>1808.0</ele>
        <time>2018-09-15T12:44:57Z</time>
      </trkpt>
      <trkpt lat="40.290817" lon="-4.904250">
        <ele>1807.0</ele>
        <time>2018-09-15T12:44:58Z</time>
      </trkpt>
      <trkpt lat="40.290867" lon="-4.904200">
        <ele>1805.0</ele>
        <time>2018-09-15T12:44:59Z</time>
      </trkpt>
      <trkpt lat="40.290917" lon="-4.904150">
        <ele>1803.0</ele>
        <time>2018-09-15T12:45:00Z</time>
      </trkpt>
      <trkpt lat="40.290950" lon="-4.904100">
        <ele>1800.0</ele>
        <time>2018-09-15T12:45:01Z</time>
      </trkpt>
      <trkpt lat="40.291000" lon="-4.904000">
        <ele>1801.0</ele>
        <time>2018-09-15T12:45:02Z</time>
      </trkpt>
      <trkpt lat="40.291050" lon="-4.903917">
        <ele>1799.0</ele>
        <time>2018-09-15T12:45:03Z</time>
      </trkpt>
      <trkpt lat="40.291083" lon="-4.903833">
        <ele>1799.0</ele>
        <time>2018-09-15T12:45:04Z</time>
      </trkpt>
      <trkpt lat="40.291133" lon="-4.903767">
        <ele>1796.0</ele>
        <time>2018-09-15T12:45:05Z</time>
      </trkpt>
      <trkpt lat="40.291200" lon="-4.903700">
        <ele>1793.0</ele>
        <time>2018-09-15T12:45:06Z</time>
      </trkpt>
      <trkpt lat="40.291267" lon="-4.903633">
        <ele>1790.0</ele>
        <time>2018-09-15T12:45:07Z</time>
      </trkpt>
      <trkpt lat="40.291333" lon="-4.903567">
        <ele>1787.0</ele>
        <time>2018-09-15T12:45:08Z</time>
      </trkpt>
      <trkpt lat="40.291383" lon="-4.903500">
        <ele>1785.0</ele>
        <time>2018-09-15T12:45:09Z</time>
      </trkpt>
      <trkpt lat="40.291450" lon="-4.903433">
        <ele>1782.0</ele>
        <time>2018-09-15T12:45:10Z</time>
      </trkpt>
      <trkpt lat="40.291517" lon="-4.903367">
        <ele>1780.0</ele>
        <time>2018-09-15T12:45:11Z</time>
      </trkpt>
      <trkpt lat="40.291583" lon="-4.903283">
        <ele>1778.0</ele>
        <time>2018-09-15T12:45:12Z</time>
      </trkpt>
      <trkpt lat="40.291633" lon="-4.903217">
        <ele>1776.0</ele>
        <time>2018-09-15T12:45:13Z</time>
      </trkpt>
      <trkpt lat="40.291683" lon="-4.903133">
        <ele>1774.0</ele>
        <time>2018-09-15T12:45:14Z</time>
      </trkpt>
      <trkpt lat="40.291717" lon="-4.903067">
        <ele>1773.0</ele>
        <time>2018-09-15T12:45:15Z</time>
      </trkpt>
      <trkpt lat="40.291767" lon="-4.903000">
        <ele>1771.0</ele>
        <time>2018-09-15T12:45:16Z</time>
      </trkpt>
      <trkpt lat="40.291817" lon="-4.902933">
        <ele>1770.0</ele>
        <time>2018-09-15T12:45:17Z</time>
      </trkpt>
      <trkpt lat="40.291850" lon="-4.902867">
        <ele>1770.0</ele>
        <time>2018-09-15T12:45:18Z</time>
      </trkpt>
      <trkpt lat="40.291883" lon="-4.902817">
        <ele>1769.0</ele>
        <time>2018-09-15T12:45:19Z</time>
      </trkpt>
      <trkpt lat="40.291917" lon="-4.902767">
        <ele>1768.0</ele>
        <time>2018-09-15T12:45:20Z</time>
      </trkpt>
      <trkpt lat="40.291967" lon="-4.902700">
        <ele>1767.0</ele>
        <time>2018-09-15T12:45:21Z</time>
      </trkpt>
      <trkpt lat="40.292017" lon="-4.902633">
        <ele>1764.0</ele>
        <time>2018-09-15T12:45:22Z</time>
      </trkpt>
      <trkpt lat="40.292067" lon="-4.902550">
        <ele>1762.0</ele>
        <time>2018-09-15T12:45:23Z</time>
      </trkpt>
      <trkpt lat="40.292117" lon="-4.902450">
        <ele>1760.0</ele>
        <time>2018-09-15T12:45:24Z</time>
      </trkpt>
      <trkpt lat="40.292150" lon="-4.902367">
        <ele>1759.0</ele>
        <time>2018-09-15T12:45:25Z</time>
      </trkpt>
      <trkpt lat="40.292167" lon="-4.902300">
        <ele>1758.0</ele>
        <time>2018-09-15T12:45:26Z</time>
      </trkpt>
      <trkpt lat="40.292200" lon="-4.902217">
        <ele>1756.0</ele>
        <time>2018-09-15T12:45:27Z</time>
      </trkpt>
      <trkpt lat="40.292233" lon="-4.902133">
        <ele>1754.0</ele>
        <time>2018-09-15T12:45:28Z</time>
      </trkpt>
      <trkpt lat="40.292283" lon="-4.902033">
        <ele>1752.0</ele>
        <time>2018-09-15T12:45:29Z</time>
      </trkpt>
      <trkpt lat="40.292317" lon="-4.901933">
        <ele>1750.0</ele>
        <time>2018-09-15T12:45:30Z</time>
      </trkpt>
      <trkpt lat="40.292350" lon="-4.901850">
        <ele>1751.0</ele>
        <time>2018-09-15T12:45:31Z</time>
      </trkpt>
      <trkpt lat="40.292400" lon="-4.901783">
        <ele>1752.0</ele>
        <time>2018-09-15T12:45:32Z</time>
      </trkpt>
      <trkpt lat="40.292450" lon="-4.901717">
        <ele>1752.0</ele>
        <time>2018-09-15T12:45:33Z</time>
      </trkpt>
      <trkpt lat="40.292483" lon="-4.901633">
        <ele>1752.0</ele>
        <time>2018-09-15T12:45:34Z</time>
      </trkpt>
      <trkpt lat="40.292517" lon="-4.901550">
        <ele>1751.0</ele>
        <time>2018-09-15T12:45:35Z</time>
      </trkpt>
      <trkpt lat="40.292550" lon="-4.901450">
        <ele>1751.0</ele>
        <time>2018-09-15T12:45:36Z</time>
      </trkpt>
      <trkpt lat="40.292583" lon="-4.901367">
        <ele>1751.0</ele>
        <time>2018-09-15T12:45:37Z</time>
      </trkpt>
      <trkpt lat="40.292600" lon="-4.901283">
        <ele>1751.0</ele>
        <time>2018-09-15T12:45:38Z</time>
      </trkpt>
      <trkpt lat="40.292633" lon="-4.901200">
        <ele>1751.0</ele>
        <time>2018-09-15T12:45:39Z</time>
      </trkpt>
      <trkpt lat="40.292667" lon="-4.901133">
        <ele>1751.0</ele>
        <time>2018-09-15T12:45:40Z</time>
      </trkpt>
      <trkpt lat="40.292700" lon="-4.901050">
        <ele>1751.0</ele>
        <time>2018-09-15T12:45:41Z</time>
      </trkpt>
      <trkpt lat="40.292717" lon="-4.900967">
        <ele>1751.0</ele>
        <time>2018-09-15T12:45:42Z</time>
      </trkpt>
      <trkpt lat="40.292750" lon="-4.900900">
        <ele>1751.0</ele>
        <time>2018-09-15T12:45:43Z</time>
      </trkpt>
      <trkpt lat="40.292783" lon="-4.900817">
        <ele>1749.0</ele>
        <time>2018-09-15T12:45:44Z</time>
      </trkpt>
      <trkpt lat="40.292817" lon="-4.900717">
        <ele>1748.0</ele>
        <time>2018-09-15T12:45:45Z</time>
      </trkpt>
      <trkpt lat="40.292850" lon="-4.900617">
        <ele>1747.0</ele>
        <time>2018-09-15T12:45:46Z</time>
      </trkpt>
      <trkpt lat="40.292883" lon="-4.900533">
        <ele>1746.0</ele>
        <time>2018-09-15T12:45:47Z</time>
      </trkpt>
      <trkpt lat="40.292900" lon="-4.900467">
        <ele>1746.0</ele>
        <time>2018-09-15T12:45:48Z</time>
      </trkpt>
      <trkpt lat="40.292933" lon="-4.900400">
        <ele>1746.0</ele>
        <time>2018-09-15T12:45:49Z</time>
      </trkpt>
      <trkpt lat="40.292950" lon="-4.900333">
        <ele>1747.0</ele>
        <time>2018-09-15T12:45:50Z</time>
      </trkpt>
      <trkpt lat="40.292983" lon="-4.900267">
        <ele>1746.0</ele>
        <time>2018-09-15T12:45:51Z</time>
      </trkpt>
      <trkpt lat="40.293017" lon="-4.900200">
        <ele>1746.0</ele>
        <time>2018-09-15T12:45:52Z</time>
      </trkpt>
      <trkpt lat="40.293033" lon="-4.900133">
        <ele>1745.0</ele>
        <time>2018-09-15T12:45:53Z</time>
      </trkpt>
      <trkpt lat="40.293050" lon="-4.900083">
        <ele>1745.0</ele>
        <time>2018-09-15T12:45:54Z</time>
      </trkpt>
      <trkpt lat="40.293067" lon="-4.900017">
        <ele>1745.0</ele>
        <time>2018-09-15T12:45:55Z</time>
      </trkpt>
      <trkpt lat="40.293083" lon="-4.899950">
        <ele>1746.0</ele>
        <time>2018-09-15T12:45:56Z</time>
      </trkpt>
      <trkpt lat="40.293117" lon="-4.899900">
        <ele>1747.0</ele>
        <time>2018-09-15T12:45:57Z</time>
      </trkpt>
      <trkpt lat="40.293150" lon="-4.899850">
        <ele>1748.0</ele>
        <time>2018-09-15T12:45:58Z</time>
      </trkpt>
      <trkpt lat="40.293167" lon="-4.899783">
        <ele>1749.0</ele>
        <time>2018-09-15T12:45:59Z</time>
      </trkpt>
      <trkpt lat="40.293200" lon="-4.899733">
        <ele>1750.0</ele>
        <time>2018-09-15T12:46:00Z</time>
      </trkpt>
      <trkpt lat="40.293233" lon="-4.899683">
        <ele>1750.0</ele>
        <time>2018-09-15T12:46:01Z</time>
      </trkpt>
      <trkpt lat="40.293267" lon="-4.899617">
        <ele>1750.0</ele>
        <time>2018-09-15T12:46:02Z</time>
      </trkpt>
      <trkpt lat="40.293300" lon="-4.899533">
        <ele>1750.0</ele>
        <time>2018-09-15T12:46:03Z</time>
      </trkpt>
      <trkpt lat="40.293333" lon="-4.899450">
        <ele>1750.0</ele>
        <time>2018-09-15T12:46:04Z</time>
      </trkpt>
      <trkpt lat="40.293367" lon="-4.899383">
        <ele>1751.0</ele>
        <time>2018-09-15T12:46:05Z</time>
      </trkpt>
      <trkpt lat="40.293400" lon="-4.899317">
        <ele>1753.0</ele>
        <time>2018-09-15T12:46:06Z</time>
      </trkpt>
      <trkpt lat="40.293433" lon="-4.899250">
        <ele>1755.0</ele>
        <time>2018-09-15T12:46:07Z</time>
      </trkpt>
      <trkpt lat="40.293467" lon="-4.899217">
        <ele>1757.0</ele>
        <time>2018-09-15T12:46:08Z</time>
      </trkpt>
      <trkpt lat="40.293483" lon="-4.899150">
        <ele>1758.0</ele>
        <time>2018-09-15T12:46:09Z</time>
      </trkpt>
      <trkpt lat="40.293500" lon="-4.899083">
        <ele>1758.0</ele>
        <time>2018-09-15T12:46:10Z</time>
      </trkpt>
      <trkpt lat="40.293483" lon="-4.899000">
        <ele>1759.0</ele>
        <time>2018-09-15T12:46:11Z</time>
      </trkpt>
      <trkpt lat="40.293450" lon="-4.898933">
        <ele>1760.0</ele>
        <time>2018-09-15T12:46:12Z</time>
      </trkpt>
      <trkpt lat="40.293383" lon="-4.898917">
        <ele>1761.0</ele>
        <time>2018-09-15T12:46:13Z</time>
      </trkpt>
      <trkpt lat="40.293300" lon="-4.898983">
        <ele>1759.0</ele>
        <time>2018-09-15T12:46:14Z</time>
      </trkpt>
      <trkpt lat="40.293217" lon="-4.899100">
        <ele>1759.0</ele>
        <time>2018-09-15T12:46:15Z</time>
      </trkpt>
      <trkpt lat="40.293167" lon="-4.899250">
        <ele>1760.0</ele>
        <time>2018-09-15T12:46:16Z</time>
      </trkpt>
      <trkpt lat="40.293167" lon="-4.899433">
        <ele>1761.0</ele>
        <time>2018-09-15T12:46:17Z</time>
      </trkpt>
      <trkpt lat="40.293233" lon="-4.899550">
        <ele>1763.0</ele>
        <time>2018-09-15T12:46:18Z</time>
      </trkpt>
      <trkpt lat="40.293317" lon="-4.899633">
        <ele>1764.0</ele>
        <time>2018-09-15T12:46:19Z</time>
      </trkpt>
      <trkpt lat="40.293400" lon="-4.899650">
        <ele>1765.0</ele>
        <time>2018-09-15T12:46:20Z</time>
      </trkpt>
      <trkpt lat="40.293483" lon="-4.899633">
        <ele>1765.0</ele>
        <time>2018-09-15T12:46:21Z</time>
      </trkpt>
      <trkpt lat="40.293533" lon="-4.899583">
        <ele>1767.0</ele>
        <time>2018-09-15T12:46:22Z</time>
      </trkpt>
      <trkpt lat="40.293583" lon="-4.899533">
        <ele>1769.0</ele>
        <time>2018-09-15T12:46:23Z</time>
      </trkpt>
      <trkpt lat="40.293617" lon="-4.899500">
        <ele>1773.0</ele>
        <time>2018-09-15T12:46:24Z</time>
      </trkpt>
      <trkpt lat="40.293650" lon="-4.899467">
        <ele>1775.0</ele>
        <time>2018-09-15T12:46:25Z</time>
      </trkpt>
      <trkpt lat="40.293683" lon="-4.899417">
        <ele>1771.0</ele>
        <time>2018-09-15T12:46:26Z</time>
      </trkpt>
      <trkpt lat="40.293700" lon="-4.899383">
        <ele>1772.0</ele>
        <time>2018-09-15T12:46:27Z</time>
      </trkpt>
      <trkpt lat="40.293700" lon="-4.899333">
        <ele>1772.0</ele>
        <time>2018-09-15T12:46:28Z</time>
      </trkpt>
      <trkpt lat="40.293667" lon="-4.899283">
        <ele>1773.0</ele>
        <time>2018-09-15T12:46:29Z</time>
      </trkpt>
      <trkpt lat="40.293600" lon="-4.899267">
        <ele>1773.0</ele>
        <time>2018-09-15T12:46:30Z</time>
      </trkpt>
      <trkpt lat="40.293500" lon="-4.899300">
        <ele>1773.0</ele>
        <time>2018-09-15T12:46:31Z</time>
      </trkpt>
      <trkpt lat="40.293417" lon="-4.899383">
        <ele>1772.0</ele>
        <time>2018-09-15T12:46:32Z</time>
      </trkpt>
      <trkpt lat="40.293350" lon="-4.899533">
        <ele>1772.0</ele>
        <time>2018-09-15T12:46:33Z</time>
      </trkpt>
      <trkpt lat="40.293367" lon="-4.899717">
        <ele>1772.0</ele>
        <time>2018-09-15T12:46:34Z</time>
      </trkpt>
      <trkpt lat="40.293417" lon="-4.899867">
        <ele>1772.0</ele>
        <time>2018-09-15T12:46:35Z</time>
      </trkpt>
      <trkpt lat="40.293500" lon="-4.899983">
        <ele>1773.0</ele>
        <time>2018-09-15T12:46:36Z</time>
      </trkpt>
      <trkpt lat="40.293583" lon="-4.900067">
        <ele>1774.0</ele>
        <time>2018-09-15T12:46:37Z</time>
      </trkpt>
      <trkpt lat="40.293667" lon="-4.900133">
        <ele>1775.0</ele>
        <time>2018-09-15T12:46:38Z</time>
      </trkpt>
      <trkpt lat="40.293750" lon="-4.900200">
        <ele>1777.0</ele>
        <time>2018-09-15T12:46:39Z</time>
      </trkpt>
      <trkpt lat="40.293817" lon="-4.900267">
        <ele>1778.0</ele>
        <time>2018-09-15T12:46:40Z</time>
      </trkpt>
      <trkpt lat="40.293883" lon="-4.900317">
        <ele>1779.0</ele>
        <time>2018-09-15T12:46:41Z</time>
      </trkpt>
      <trkpt lat="40.293967" lon="-4.900317">
        <ele>1778.0</ele>
        <time>2018-09-15T12:46:42Z</time>
      </trkpt>
      <trkpt lat="40.294017" lon="-4.900300">
        <ele>1777.0</ele>
        <time>2018-09-15T12:46:43Z</time>
      </trkpt>
      <trkpt lat="40.294033" lon="-4.900250">
        <ele>1777.0</ele>
        <time>2018-09-15T12:46:44Z</time>
      </trkpt>
      <trkpt lat="40.294050" lon="-4.900200">
        <ele>1777.0</ele>
        <time>2018-09-15T12:46:45Z</time>
      </trkpt>
      <trkpt lat="40.294017" lon="-4.900150">
        <ele>1777.0</ele>
        <time>2018-09-15T12:46:46Z</time>
      </trkpt>
      <trkpt lat="40.293967" lon="-4.900100">
        <ele>1776.0</ele>
        <time>2018-09-15T12:46:47Z</time>
      </trkpt>
      <trkpt lat="40.293883" lon="-4.900083">
        <ele>1775.0</ele>
        <time>2018-09-15T12:46:48Z</time>
      </trkpt>
      <trkpt lat="40.293783" lon="-4.900100">
        <ele>1774.0</ele>
        <time>2018-09-15T12:46:49Z</time>
      </trkpt>
      <trkpt lat="40.293683" lon="-4.900183">
        <ele>1772.0</ele>
        <time>2018-09-15T12:46:50Z</time>
      </trkpt>
      <trkpt lat="40.293633" lon="-4.900317">
        <ele>1769.0</ele>
        <time>2018-09-15T12:46:51Z</time>
      </trkpt>
      <trkpt lat="40.293583" lon="-4.900483">
        <ele>1767.0</ele>
        <time>2018-09-15T12:46:52Z</time>
      </trkpt>
      <trkpt lat="40.293583" lon="-4.900650">
        <ele>1764.0</ele>
        <time>2018-09-15T12:46:53Z</time>
      </trkpt>
      <trkpt lat="40.293617" lon="-4.900817">
        <ele>1762.0</ele>
        <time>2018-09-15T12:46:54Z</time>
      </trkpt>
      <trkpt lat="40.293683" lon="-4.900950">
        <ele>1761.0</ele>
        <time>2018-09-15T12:46:55Z</time>
      </trkpt>
      <trkpt lat="40.293767" lon="-4.901067">
        <ele>1759.0</ele>
        <time>2018-09-15T12:46:56Z</time>
      </trkpt>
      <trkpt lat="40.293867" lon="-4.901117">
        <ele>1758.0</ele>
        <time>2018-09-15T12:46:57Z</time>
      </trkpt>
      <trkpt lat="40.293950" lon="-4.901133">
        <ele>1758.0</ele>
        <time>2018-09-15T12:46:58Z</time>
      </trkpt>
      <trkpt lat="40.294000" lon="-4.901117">
        <ele>1760.0</ele>
        <time>2018-09-15T12:46:59Z</time>
      </trkpt>
      <trkpt lat="40.294050" lon="-4.901083">
        <ele>1761.0</ele>
        <time>2018-09-15T12:47:00Z</time>
      </trkpt>
      <trkpt lat="40.294100" lon="-4.901067">
        <ele>1761.0</ele>
        <time>2018-09-15T12:47:01Z</time>
      </trkpt>
      <trkpt lat="40.294133" lon="-4.901033">
        <ele>1761.0</ele>
        <time>2018-09-15T12:47:02Z</time>
      </trkpt>
      <trkpt lat="40.294183" lon="-4.900983">
        <ele>1761.0</ele>
        <time>2018-09-15T12:47:03Z</time>
      </trkpt>
      <trkpt lat="40.294217" lon="-4.900917">
        <ele>1760.0</ele>
        <time>2018-09-15T12:47:04Z</time>
      </trkpt>
      <trkpt lat="40.294233" lon="-4.900817">
        <ele>1759.0</ele>
        <time>2018-09-15T12:47:05Z</time>
      </trkpt>
      <trkpt lat="40.294217" lon="-4.900717">
        <ele>1758.0</ele>
        <time>2018-09-15T12:47:06Z</time>
      </trkpt>
      <trkpt lat="40.294233" lon="-4.900617">
        <ele>1757.0</ele>
        <time>2018-09-15T12:47:07Z</time>
      </trkpt>
      <trkpt lat="40.294250" lon="-4.900583">
        <ele>1757.0</ele>
        <time>2018-09-15T12:47:08Z</time>
      </trkpt>
      <trkpt lat="40.294250" lon="-4.900567">
        <ele>1757.0</ele>
        <time>2018-09-15T12:47:09Z</time>
      </trkpt>
      <trkpt lat="40.294267" lon="-4.900550">
        <ele>1758.0</ele>
        <time>2018-09-15T12:47:10Z</time>
      </trkpt>
      <trkpt lat="40.294283" lon="-4.900517">
        <ele>1758.0</ele>
        <time>2018-09-15T12:47:11Z</time>
      </trkpt>
      <trkpt lat="40.294300" lon="-4.900433">
        <ele>1758.0</ele>
        <time>2018-09-15T12:47:12Z</time>
      </trkpt>
      <trkpt lat="40.294300" lon="-4.900333">
        <ele>1757.0</ele>
        <time>2018-09-15T12:47:13Z</time>
      </trkpt>
      <trkpt lat="40.294317" lon="-4.900250">
        <ele>1757.0</ele>
        <time>2018-09-15T12:47:14Z</time>
      </trkpt>
      <trkpt lat="40.294350" lon="-4.900200">
        <ele>1758.0</ele>
        <time>2018-09-15T12:47:15Z</time>
      </trkpt>
      <trkpt lat="40.294367" lon="-4.900167">
        <ele>1761.0</ele>
        <time>2018-09-15T12:47:16Z</time>
      </trkpt>
      <trkpt lat="40.294383" lon="-4.900117">
        <ele>1762.0</ele>
        <time>2018-09-15T12:47:17Z</time>
      </trkpt>
      <trkpt lat="40.294417" lon="-4.900050">
        <ele>1762.0</ele>
        <time>2018-09-15T12:47:18Z</time>
      </trkpt>
      <trkpt lat="40.294450" lon="-4.899967">
        <ele>1762.0</ele>
        <time>2018-09-15T12:47:19Z</time>
      </trkpt>
      <trkpt lat="40.294483" lon="-4.899883">
        <ele>1763.0</ele>
        <time>2018-09-15T12:47:20Z</time>
      </trkpt>
      <trkpt lat="40.294500" lon="-4.899817">
        <ele>1765.0</ele>
        <time>2018-09-15T12:47:21Z</time>
      </trkpt>
      <trkpt lat="40.294517" lon="-4.899767">
        <ele>1768.0</ele>
        <time>2018-09-15T12:47:22Z</time>
      </trkpt>
      <trkpt lat="40.294550" lon="-4.899700">
        <ele>1768.0</ele>
        <time>2018-09-15T12:47:23Z</time>
      </trkpt>
      <trkpt lat="40.294567" lon="-4.899633">
        <ele>1767.0</ele>
        <time>2018-09-15T12:47:24Z</time>
      </trkpt>
      <trkpt lat="40.294600" lon="-4.899550">
        <ele>1767.0</ele>
        <time>2018-09-15T12:47:25Z</time>
      </trkpt>
      <trkpt lat="40.294617" lon="-4.899483">
        <ele>1765.0</ele>
        <time>2018-09-15T12:47:26Z</time>
      </trkpt>
      <trkpt lat="40.294633" lon="-4.899400">
        <ele>1763.0</ele>
        <time>2018-09-15T12:47:27Z</time>
      </trkpt>
      <trkpt lat="40.294617" lon="-4.899333">
        <ele>1761.0</ele>
        <time>2018-09-15T12:47:28Z</time>
      </trkpt>
      <trkpt lat="40.294600" lon="-4.899283">
        <ele>1759.0</ele>
        <time>2018-09-15T12:47:29Z</time>
      </trkpt>
      <trkpt lat="40.294583" lon="-4.899233">
        <ele>1758.0</ele>
        <time>2018-09-15T12:47:30Z</time>
      </trkpt>
      <trkpt lat="40.294550" lon="-4.899217">
        <ele>1757.0</ele>
        <time>2018-09-15T12:47:31Z</time>
      </trkpt>
      <trkpt lat="40.294483" lon="-4.899217">
        <ele>1755.0</ele>
        <time>2018-09-15T12:47:32Z</time>
      </trkpt>
      <trkpt lat="40.294417" lon="-4.899250">
        <ele>1753.0</ele>
        <time>2018-09-15T12:47:33Z</time>
      </trkpt>
      <trkpt lat="40.294333" lon="-4.899317">
        <ele>1752.0</ele>
        <time>2018-09-15T12:47:34Z</time>
      </trkpt>
      <trkpt lat="40.294267" lon="-4.899417">
        <ele>1750.0</ele>
        <time>2018-09-15T12:47:35Z</time>
      </trkpt>
      <trkpt lat="40.294233" lon="-4.899550">
        <ele>1748.0</ele>
        <time>2018-09-15T12:47:36Z</time>
      </trkpt>
      <trkpt lat="40.294217" lon="-4.899700">
        <ele>1747.0</ele>
        <time>2018-09-15T12:47:37Z</time>
      </trkpt>
      <trkpt lat="40.294250" lon="-4.899850">
        <ele>1745.0</ele>
        <time>2018-09-15T12:47:38Z</time>
      </trkpt>
      <trkpt lat="40.294317" lon="-4.900000">
        <ele>1743.0</ele>
        <time>2018-09-15T12:47:39Z</time>
      </trkpt>
      <trkpt lat="40.294383" lon="-4.900100">
        <ele>1739.0</ele>
        <time>2018-09-15T12:47:40Z</time>
      </trkpt>
      <trkpt lat="40.294467" lon="-4.900150">
        <ele>1736.0</ele>
        <time>2018-09-15T12:47:41Z</time>
      </trkpt>
      <trkpt lat="40.294550" lon="-4.900133">
        <ele>1732.0</ele>
        <time>2018-09-15T12:47:42Z</time>
      </trkpt>
      <trkpt lat="40.294617" lon="-4.900083">
        <ele>1728.0</ele>
        <time>2018-09-15T12:47:43Z</time>
      </trkpt>
      <trkpt lat="40.294667" lon="-4.900000">
        <ele>1725.0</ele>
        <time>2018-09-15T12:47:44Z</time>
      </trkpt>
      <trkpt lat="40.294683" lon="-4.899917">
        <ele>1724.0</ele>
        <time>2018-09-15T12:47:45Z</time>
      </trkpt>
      <trkpt lat="40.294700" lon="-4.899850">
        <ele>1722.0</ele>
        <time>2018-09-15T12:47:46Z</time>
      </trkpt>
      <trkpt lat="40.294700" lon="-4.899767">
        <ele>1722.0</ele>
        <time>2018-09-15T12:47:47Z</time>
      </trkpt>
      <trkpt lat="40.294683" lon="-4.899683">
        <ele>1721.0</ele>
        <time>2018-09-15T12:47:48Z</time>
      </trkpt>
      <trkpt lat="40.294650" lon="-4.899617">
        <ele>1721.0</ele>
        <time>2018-09-15T12:47:49Z</time>
      </trkpt>
      <trkpt lat="40.294617" lon="-4.899567">
        <ele>1722.0</ele>
        <time>2018-09-15T12:47:50Z</time>
      </trkpt>
      <trkpt lat="40.294567" lon="-4.899517">
        <ele>1722.0</ele>
        <time>2018-09-15T12:47:51Z</time>
      </trkpt>
      <trkpt lat="40.294517" lon="-4.899450">
        <ele>1722.0</ele>
        <time>2018-09-15T12:47:52Z</time>
      </trkpt>
      <trkpt lat="40.294483" lon="-4.899383">
        <ele>1722.0</ele>
        <time>2018-09-15T12:47:53Z</time>
      </trkpt>
      <trkpt lat="40.294467" lon="-4.899317">
        <ele>1722.0</ele>
        <time>2018-09-15T12:47:54Z</time>
      </trkpt>
      <trkpt lat="40.294450" lon="-4.899267">
        <ele>1721.0</ele>
        <time>2018-09-15T12:47:55Z</time>
      </trkpt>
      <trkpt lat="40.294417" lon="-4.899200">
        <ele>1719.0</ele>
        <time>2018-09-15T12:47:56Z</time>
      </trkpt>
      <trkpt lat="40.294383" lon="-4.899150">
        <ele>1718.0</ele>
        <time>2018-09-15T12:47:57Z</time>
      </trkpt>
      <trkpt lat="40.294350" lon="-4.899067">
        <ele>1716.0</ele>
        <time>2018-09-15T12:47:58Z</time>
      </trkpt>
      <trkpt lat="40.294300" lon="-4.899000">
        <ele>1714.0</ele>
        <time>2018-09-15T12:47:59Z</time>
      </trkpt>
      <trkpt lat="40.294283" lon="-4.898933">
        <ele>1712.0</ele>
        <time>2018-09-15T12:48:00Z</time>
      </trkpt>
      <trkpt lat="40.294250" lon="-4.898867">
        <ele>1711.0</ele>
        <time>2018-09-15T12:48:01Z</time>
      </trkpt>
      <trkpt lat="40.294233" lon="-4.898817">
        <ele>1709.0</ele>
        <time>2018-09-15T12:48:02Z</time>
      </trkpt>
      <trkpt lat="40.294183" lon="-4.898733">
        <ele>1707.0</ele>
        <time>2018-09-15T12:48:03Z</time>
      </trkpt>
      <trkpt lat="40.294150" lon="-4.898667">
        <ele>1706.0</ele>
        <time>2018-09-15T12:48:04Z</time>
      </trkpt>
      <trkpt lat="40.294117" lon="-4.898600">
        <ele>1708.0</ele>
        <time>2018-09-15T12:48:05Z</time>
      </trkpt>
      <trkpt lat="40.294100" lon="-4.898567">
        <ele>1712.0</ele>
        <time>2018-09-15T12:48:06Z</time>
      </trkpt>
      <trkpt lat="40.294100" lon="-4.898533">
        <ele>1713.0</ele>
        <time>2018-09-15T12:48:07Z</time>
      </trkpt>
      <trkpt lat="40.294083" lon="-4.898483">
        <ele>1712.0</ele>
        <time>2018-09-15T12:48:08Z</time>
      </trkpt>
      <trkpt lat="40.294050" lon="-4.898417">
        <ele>1712.0</ele>
        <time>2018-09-15T12:48:09Z</time>
      </trkpt>
      <trkpt lat="40.294017" lon="-4.898333">
        <ele>1709.0</ele>
        <time>2018-09-15T12:48:10Z</time>
      </trkpt>
      <trkpt lat="40.293967" lon="-4.898267">
        <ele>1707.0</ele>
        <time>2018-09-15T12:48:11Z</time>
      </trkpt>
      <trkpt lat="40.293950" lon="-4.898200">
        <ele>1708.0</ele>
        <time>2018-09-15T12:48:12Z</time>
      </trkpt>
      <trkpt lat="40.293950" lon="-4.898150">
        <ele>1708.0</ele>
        <time>2018-09-15T12:48:13Z</time>
      </trkpt>
      <trkpt lat="40.293933" lon="-4.898100">
        <ele>1708.0</ele>
        <time>2018-09-15T12:48:14Z</time>
      </trkpt>
      <trkpt lat="40.293917" lon="-4.898050">
        <ele>1706.0</ele>
        <time>2018-09-15T12:48:15Z</time>
      </trkpt>
      <trkpt lat="40.293900" lon="-4.897983">
        <ele>1704.0</ele>
        <time>2018-09-15T12:48:16Z</time>
      </trkpt>
      <trkpt lat="40.293867" lon="-4.897917">
        <ele>1701.0</ele>
        <time>2018-09-15T12:48:17Z</time>
      </trkpt>
      <trkpt lat="40.293850" lon="-4.897833">
        <ele>1700.0</ele>
        <time>2018-09-15T12:48:18Z</time>
      </trkpt>
      <trkpt lat="40.293817" lon="-4.897783">
        <ele>1699.0</ele>
        <time>2018-09-15T12:48:19Z</time>
      </trkpt>
      <trkpt lat="40.293800" lon="-4.897717">
        <ele>1699.0</ele>
        <time>2018-09-15T12:48:20Z</time>
      </trkpt>
      <trkpt lat="40.293767" lon="-4.897650">
        <ele>1697.0</ele>
        <time>2018-09-15T12:48:21Z</time>
      </trkpt>
      <trkpt lat="40.293733" lon="-4.897583">
        <ele>1695.0</ele>
        <time>2018-09-15T12:48:22Z</time>
      </trkpt>
      <trkpt lat="40.293700" lon="-4.897517">
        <ele>1693.0</ele>
        <time>2018-09-15T12:48:23Z</time>
      </trkpt>
      <trkpt lat="40.293667" lon="-4.897450">
        <ele>1692.0</ele>
        <time>2018-09-15T12:48:24Z</time>
      </trkpt>
      <trkpt lat="40.293633" lon="-4.897383">
        <ele>1692.0</ele>
        <time>2018-09-15T12:48:25Z</time>
      </trkpt>
      <trkpt lat="40.293617" lon="-4.897317">
        <ele>1691.0</ele>
        <time>2018-09-15T12:48:26Z</time>
      </trkpt>
      <trkpt lat="40.293583" lon="-4.897267">
        <ele>1691.0</ele>
        <time>2018-09-15T12:48:27Z</time>
      </trkpt>
      <trkpt lat="40.293550" lon="-4.897233">
        <ele>1690.0</ele>
        <time>2018-09-15T12:48:28Z</time>
      </trkpt>
      <trkpt lat="40.293517" lon="-4.897183">
        <ele>1689.0</ele>
        <time>2018-09-15T12:48:29Z</time>
      </trkpt>
      <trkpt lat="40.293483" lon="-4.897117">
        <ele>1688.0</ele>
        <time>2018-09-15T12:48:30Z</time>
      </trkpt>
      <trkpt lat="40.293450" lon="-4.897050">
        <ele>1686.0</ele>
        <time>2018-09-15T12:48:31Z</time>
      </trkpt>
      <trkpt lat="40.293417" lon="-4.897000">
        <ele>1684.0</ele>
        <time>2018-09-15T12:48:32Z</time>
      </trkpt>
      <trkpt lat="40.293383" lon="-4.896950">
        <ele>1683.0</ele>
        <time>2018-09-15T12:48:33Z</time>
      </trkpt>
      <trkpt lat="40.293350" lon="-4.896883">
        <ele>1682.0</ele>
        <time>2018-09-15T12:48:34Z</time>
      </trkpt>
      <trkpt lat="40.293300" lon="-4.896833">
        <ele>1680.0</ele>
        <time>2018-09-15T12:48:35Z</time>
      </trkpt>
      <trkpt lat="40.293267" lon="-4.896783">
        <ele>1678.0</ele>
        <time>2018-09-15T12:48:36Z</time>
      </trkpt>
      <trkpt lat="40.293217" lon="-4.896717">
        <ele>1675.0</ele>
        <time>2018-09-15T12:48:37Z</time>
      </trkpt>
      <trkpt lat="40.293183" lon="-4.896617">
        <ele>1673.0</ele>
        <time>2018-09-15T12:48:38Z</time>
      </trkpt>
      <trkpt lat="40.293133" lon="-4.896533">
        <ele>1670.0</ele>
        <time>2018-09-15T12:48:39Z</time>
      </trkpt>
      <trkpt lat="40.293100" lon="-4.896467">
        <ele>1670.0</ele>
        <time>2018-09-15T12:48:40Z</time>
      </trkpt>
      <trkpt lat="40.293067" lon="-4.896433">
        <ele>1671.0</ele>
        <time>2018-09-15T12:48:41Z</time>
      </trkpt>
      <trkpt lat="40.293033" lon="-4.896400">
        <ele>1671.0</ele>
        <time>2018-09-15T12:48:42Z</time>
      </trkpt>
      <trkpt lat="40.293000" lon="-4.896367">
        <ele>1670.0</ele>
        <time>2018-09-15T12:48:43Z</time>
      </trkpt>
      <trkpt lat="40.292967" lon="-4.896317">
        <ele>1667.0</ele>
        <time>2018-09-15T12:48:44Z</time>
      </trkpt>
      <trkpt lat="40.292917" lon="-4.896233">
        <ele>1664.0</ele>
        <time>2018-09-15T12:48:45Z</time>
      </trkpt>
      <trkpt lat="40.292867" lon="-4.896167">
        <ele>1662.0</ele>
        <time>2018-09-15T12:48:46Z</time>
      </trkpt>
      <trkpt lat="40.292833" lon="-4.896100">
        <ele>1662.0</ele>
        <time>2018-09-15T12:48:47Z</time>
      </trkpt>
      <trkpt lat="40.292817" lon="-4.896033">
        <ele>1662.0</ele>
        <time>2018-09-15T12:48:48Z</time>
      </trkpt>
      <trkpt lat="40.292800" lon="-4.895967">
        <ele>1661.0</ele>
        <time>2018-09-15T12:48:49Z</time>
      </trkpt>
      <trkpt lat="40.292767" lon="-4.895900">
        <ele>1660.0</ele>
        <time>2018-09-15T12:48:50Z</time>
      </trkpt>
      <trkpt lat="40.292733" lon="-4.895833">
        <ele>1659.0</ele>
        <time>2018-09-15T12:48:51Z</time>
      </trkpt>
      <trkpt lat="40.292700" lon="-4.895767">
        <ele>1657.0</ele>
        <time>2018-09-15T12:48:52Z</time>
      </trkpt>
      <trkpt lat="40.292667" lon="-4.895700">
        <ele>1656.0</ele>
        <time>2018-09-15T12:48:53Z</time>
      </trkpt>
      <trkpt lat="40.292633" lon="-4.895633">
        <ele>1654.0</ele>
        <time>2018-09-15T12:48:54Z</time>
      </trkpt>
      <trkpt lat="40.292617" lon="-4.895550">
        <ele>1652.0</ele>
        <time>2018-09-15T12:48:55Z</time>
      </trkpt>
      <trkpt lat="40.292567" lon="-4.895467">
        <ele>1654.0</ele>
        <time>2018-09-15T12:48:56Z</time>
      </trkpt>
      <trkpt lat="40.292533" lon="-4.895400">
        <ele>1653.0</ele>
        <time>2018-09-15T12:48:57Z</time>
      </trkpt>
      <trkpt lat="40.292483" lon="-4.895317">
        <ele>1651.0</ele>
        <time>2018-09-15T12:48:58Z</time>
      </trkpt>
      <trkpt lat="40.292450" lon="-4.895250">
        <ele>1650.0</ele>
        <time>2018-09-15T12:48:59Z</time>
      </trkpt>
      <trkpt lat="40.292433" lon="-4.895200">
        <ele>1649.0</ele>
        <time>2018-09-15T12:49:00Z</time>
      </trkpt>
      <trkpt lat="40.292400" lon="-4.895133">
        <ele>1648.0</ele>
        <time>2018-09-15T12:49:01Z</time>
      </trkpt>
      <trkpt lat="40.292367" lon="-4.895083">
        <ele>1647.0</ele>
        <time>2018-09-15T12:49:02Z</time>
      </trkpt>
      <trkpt lat="40.292333" lon="-4.895017">
        <ele>1645.0</ele>
        <time>2018-09-15T12:49:03Z</time>
      </trkpt>
      <trkpt lat="40.292283" lon="-4.894967">
        <ele>1643.0</ele>
        <time>2018-09-15T12:49:04Z</time>
      </trkpt>
      <trkpt lat="40.292250" lon="-4.894917">
        <ele>1642.0</ele>
        <time>2018-09-15T12:49:05Z</time>
      </trkpt>
      <trkpt lat="40.292233" lon="-4.894867">
        <ele>1641.0</ele>
        <time>2018-09-15T12:49:06Z</time>
      </trkpt>
      <trkpt lat="40.292217" lon="-4.894817">
        <ele>1638.0</ele>
        <time>2018-09-15T12:49:07Z</time>
      </trkpt>
      <trkpt lat="40.292200" lon="-4.894767">
        <ele>1634.0</ele>
        <time>2018-09-15T12:49:08Z</time>
      </trkpt>
      <trkpt lat="40.292150" lon="-4.894683">
        <ele>1632.0</ele>
        <time>2018-09-15T12:49:09Z</time>
      </trkpt>
      <trkpt lat="40.292100" lon="-4.894617">
        <ele>1634.0</ele>
        <time>2018-09-15T12:49:10Z</time>
      </trkpt>
      <trkpt lat="40.292067" lon="-4.894567">
        <ele>1632.0</ele>
        <time>2018-09-15T12:49:11Z</time>
      </trkpt>
      <trkpt lat="40.292017" lon="-4.894517">
        <ele>1630.0</ele>
        <time>2018-09-15T12:49:12Z</time>
      </trkpt>
      <trkpt lat="40.291983" lon="-4.894467">
        <ele>1627.0</ele>
        <time>2018-09-15T12:49:13Z</time>
      </trkpt>
      <trkpt lat="40.291917" lon="-4.894417">
        <ele>1622.0</ele>
        <time>2018-09-15T12:49:14Z</time>
      </trkpt>
      <trkpt lat="40.291867" lon="-4.894350">
        <ele>1619.0</ele>
        <time>2018-09-15T12:49:15Z</time>
      </trkpt>
      <trkpt lat="40.291817" lon="-4.894283">
        <ele>1615.0</ele>
        <time>2018-09-15T12:49:16Z</time>
      </trkpt>
      <trkpt lat="40.291767" lon="-4.894217">
        <ele>1611.0</ele>
        <time>2018-09-15T12:49:17Z</time>
      </trkpt>
      <trkpt lat="40.291733" lon="-4.894183">
        <ele>1609.0</ele>
        <time>2018-09-15T12:49:18Z</time>
      </trkpt>
      <trkpt lat="40.291700" lon="-4.894133">
        <ele>1606.0</ele>
        <time>2018-09-15T12:49:19Z</time>
      </trkpt>
      <trkpt lat="40.291667" lon="-4.894100">
        <ele>1603.0</ele>
        <time>2018-09-15T12:49:20Z</time>
      </trkpt>
      <trkpt lat="40.291617" lon="-4.894050">
        <ele>1599.0</ele>
        <time>2018-09-15T12:49:21Z</time>
      </trkpt>
      <trkpt lat="40.291567" lon="-4.893983">
        <ele>1594.0</ele>
        <time>2018-09-15T12:49:22Z</time>
      </trkpt>
      <trkpt lat="40.291517" lon="-4.893900">
        <ele>1590.0</ele>
        <time>2018-09-15T12:49:23Z</time>
      </trkpt>
      <trkpt lat="40.291483" lon="-4.893833">
        <ele>1587.0</ele>
        <time>2018-09-15T12:49:24Z</time>
      </trkpt>
      <trkpt lat="40.291450" lon="-4.893767">
        <ele>1584.0</ele>
        <time>2018-09-15T12:49:25Z</time>
      </trkpt>
      <trkpt lat="40.291400" lon="-4.893700">
        <ele>1581.0</ele>
        <time>2018-09-15T12:49:26Z</time>
      </trkpt>
      <trkpt lat="40.291367" lon="-4.893633">
        <ele>1578.0</ele>
        <time>2018-09-15T12:49:27Z</time>
      </trkpt>
      <trkpt lat="40.291333" lon="-4.893550">
        <ele>1575.0</ele>
        <time>2018-09-15T12:49:28Z</time>
      </trkpt>
      <trkpt lat="40.291300" lon="-4.893467">
        <ele>1571.0</ele>
        <time>2018-09-15T12:49:29Z</time>
      </trkpt>
      <trkpt lat="40.291267" lon="-4.893350">
        <ele>1568.0</ele>
        <time>2018-09-15T12:49:30Z</time>
      </trkpt>
      <trkpt lat="40.291217" lon="-4.893250">
        <ele>1570.0</ele>
        <time>2018-09-15T12:49:31Z</time>
      </trkpt>
      <trkpt lat="40.291183" lon="-4.893167">
        <ele>1569.0</ele>
        <time>2018-09-15T12:49:32Z</time>
      </trkpt>
      <trkpt lat="40.291133" lon="-4.893100">
        <ele>1567.0</ele>
        <time>2018-09-15T12:49:33Z</time>
      </trkpt>
      <trkpt lat="40.291100" lon="-4.893017">
        <ele>1566.0</ele>
        <time>2018-09-15T12:49:34Z</time>
      </trkpt>
      <trkpt lat="40.291067" lon="-4.892933">
        <ele>1564.0</ele>
        <time>2018-09-15T12:49:35Z</time>
      </trkpt>
      <trkpt lat="40.291033" lon="-4.892850">
        <ele>1561.0</ele>
        <time>2018-09-15T12:49:36Z</time>
      </trkpt>
      <trkpt lat="40.291000" lon="-4.892767">
        <ele>1559.0</ele>
        <time>2018-09-15T12:49:37Z</time>
      </trkpt>
      <trkpt lat="40.290950" lon="-4.892683">
        <ele>1557.0</ele>
        <time>2018-09-15T12:49:38Z</time>
      </trkpt>
      <trkpt lat="40.290917" lon="-4.892600">
        <ele>1557.0</ele>
        <time>2018-09-15T12:49:39Z</time>
      </trkpt>
      <trkpt lat="40.290883" lon="-4.892550">
        <ele>1559.0</ele>
        <time>2018-09-15T12:49:40Z</time>
      </trkpt>
      <trkpt lat="40.290850" lon="-4.892500">
        <ele>1559.0</ele>
        <time>2018-09-15T12:49:41Z</time>
      </trkpt>
      <trkpt lat="40.290817" lon="-4.892450">
        <ele>1559.0</ele>
        <time>2018-09-15T12:49:42Z</time>
      </trkpt>
      <trkpt lat="40.290783" lon="-4.892383">
        <ele>1557.0</ele>
        <time>2018-09-15T12:49:43Z</time>
      </trkpt>
      <trkpt lat="40.290733" lon="-4.892317">
        <ele>1555.0</ele>
        <time>2018-09-15T12:49:44Z</time>
      </trkpt>
      <trkpt lat="40.290683" lon="-4.892250">
        <ele>1553.0</ele>
        <time>2018-09-15T12:49:45Z</time>
      </trkpt>
      <trkpt lat="40.290650" lon="-4.892200">
        <ele>1552.0</ele>
        <time>2018-09-15T12:49:46Z</time>
      </trkpt>
      <trkpt lat="40.290600" lon="-4.892133">
        <ele>1552.0</ele>
        <time>2018-09-15T12:49:47Z</time>
      </trkpt>
      <trkpt lat="40.290567" lon="-4.892067">
        <ele>1552.0</ele>
        <time>2018-09-15T12:49:48Z</time>
      </trkpt>
      <trkpt lat="40.290533" lon="-4.892000">
        <ele>1551.0</ele>
        <time>2018-09-15T12:49:49Z</time>
      </trkpt>
      <trkpt lat="40.290500" lon="-4.891933">
        <ele>1551.0</ele>
        <time>2018-09-15T12:49:50Z</time>
      </trkpt>
      <trkpt lat="40.290450" lon="-4.891867">
        <ele>1550.0</ele>
        <time>2018-09-15T12:49:51Z</time>
      </trkpt>
      <trkpt lat="40.290400" lon="-4.891800">
        <ele>1549.0</ele>
        <time>2018-09-15T12:49:52Z</time>
      </trkpt>
      <trkpt lat="40.290350" lon="-4.891750">
        <ele>1549.0</ele>
        <time>2018-09-15T12:49:53Z</time>
      </trkpt>
      <trkpt lat="40.290317" lon="-4.891683">
        <ele>1548.0</ele>
        <time>2018-09-15T12:49:54Z</time>
      </trkpt>
      <trkpt lat="40.290267" lon="-4.891600">
        <ele>1547.0</ele>
        <time>2018-09-15T12:49:55Z</time>
      </trkpt>
      <trkpt lat="40.290233" lon="-4.891533">
        <ele>1546.0</ele>
        <time>2018-09-15T12:49:56Z</time>
      </trkpt>
      <trkpt lat="40.290183" lon="-4.891467">
        <ele>1545.0</ele>
        <time>2018-09-15T12:49:57Z</time>
      </trkpt>
      <trkpt lat="40.290150" lon="-4.891417">
        <ele>1543.0</ele>
        <time>2018-09-15T12:49:58Z</time>
      </trkpt>
      <trkpt lat="40.290117" lon="-4.891367">
        <ele>1542.0</ele>
        <time>2018-09-15T12:49:59Z</time>
      </trkpt>
      <trkpt lat="40.290083" lon="-4.891283">
        <ele>1540.0</ele>
        <time>2018-09-15T12:50:00Z</time>
      </trkpt>
      <trkpt lat="40.290033" lon="-4.891217">
        <ele>1540.0</ele>
        <time>2018-09-15T12:50:01Z</time>
      </trkpt>
      <trkpt lat="40.289983" lon="-4.891150">
        <ele>1538.0</ele>
        <time>2018-09-15T12:50:02Z</time>
      </trkpt>
      <trkpt lat="40.289950" lon="-4.891067">
        <ele>1536.0</ele>
        <time>2018-09-15T12:50:03Z</time>
      </trkpt>
      <trkpt lat="40.289900" lon="-4.891000">
        <ele>1536.0</ele>
        <time>2018-09-15T12:50:04Z</time>
      </trkpt>
      <trkpt lat="40.289867" lon="-4.890933">
        <ele>1536.0</ele>
        <time>2018-09-15T12:50:05Z</time>
      </trkpt>
      <trkpt lat="40.289833" lon="-4.890850">
        <ele>1536.0</ele>
        <time>2018-09-15T12:50:06Z</time>
      </trkpt>
      <trkpt lat="40.289783" lon="-4.890783">
        <ele>1535.0</ele>
        <time>2018-09-15T12:50:07Z</time>
      </trkpt>
      <trkpt lat="40.289733" lon="-4.890700">
        <ele>1535.0</ele>
        <time>2018-09-15T12:50:08Z</time>
      </trkpt>
      <trkpt lat="40.289683" lon="-4.890617">
        <ele>1534.0</ele>
        <time>2018-09-15T12:50:09Z</time>
      </trkpt>
      <trkpt lat="40.289650" lon="-4.890533">
        <ele>1533.0</ele>
        <time>2018-09-15T12:50:10Z</time>
      </trkpt>
      <trkpt lat="40.289600" lon="-4.890450">
        <ele>1532.0</ele>
        <time>2018-09-15T12:50:11Z</time>
      </trkpt>
      <trkpt lat="40.289550" lon="-4.890367">
        <ele>1530.0</ele>
        <time>2018-09-15T12:50:12Z</time>
      </trkpt>
      <trkpt lat="40.289500" lon="-4.890300">
        <ele>1530.0</ele>
        <time>2018-09-15T12:50:13Z</time>
      </trkpt>
      <trkpt lat="40.289450" lon="-4.890233">
        <ele>1530.0</ele>
        <time>2018-09-15T12:50:14Z</time>
      </trkpt>
      <trkpt lat="40.289383" lon="-4.890150">
        <ele>1529.0</ele>
        <time>2018-09-15T12:50:15Z</time>
      </trkpt>
      <trkpt lat="40.289333" lon="-4.890100">
        <ele>1528.0</ele>
        <time>2018-09-15T12:50:16Z</time>
      </trkpt>
      <trkpt lat="40.289300" lon="-4.890033">
        <ele>1527.0</ele>
        <time>2018-09-15T12:50:17Z</time>
      </trkpt>
      <trkpt lat="40.289267" lon="-4.889983">
        <ele>1526.0</ele>
        <time>2018-09-15T12:50:18Z</time>
      </trkpt>
      <trkpt lat="40.289250" lon="-4.889917">
        <ele>1526.0</ele>
        <time>2018-09-15T12:50:19Z</time>
      </trkpt>
      <trkpt lat="40.289200" lon="-4.889850">
        <ele>1525.0</ele>
        <time>2018-09-15T12:50:20Z</time>
      </trkpt>
      <trkpt lat="40.289150" lon="-4.889783">
        <ele>1525.0</ele>
        <time>2018-09-15T12:50:21Z</time>
      </trkpt>
      <trkpt lat="40.289100" lon="-4.889750">
        <ele>1524.0</ele>
        <time>2018-09-15T12:50:22Z</time>
      </trkpt>
      <trkpt lat="40.289050" lon="-4.889717">
        <ele>1524.0</ele>
        <time>2018-09-15T12:50:23Z</time>
      </trkpt>
      <trkpt lat="40.289017" lon="-4.889683">
        <ele>1522.0</ele>
        <time>2018-09-15T12:50:24Z</time>
      </trkpt>
      <trkpt lat="40.288983" lon="-4.889633">
        <ele>1521.0</ele>
        <time>2018-09-15T12:50:25Z</time>
      </trkpt>
      <trkpt lat="40.288933" lon="-4.889567">
        <ele>1519.0</ele>
        <time>2018-09-15T12:50:26Z</time>
      </trkpt>
      <trkpt lat="40.288900" lon="-4.889500">
        <ele>1517.0</ele>
        <time>2018-09-15T12:50:27Z</time>
      </trkpt>
      <trkpt lat="40.288850" lon="-4.889450">
        <ele>1516.0</ele>
        <time>2018-09-15T12:50:28Z</time>
      </trkpt>
      <trkpt lat="40.288833" lon="-4.889417">
        <ele>1516.0</ele>
        <time>2018-09-15T12:50:29Z</time>
      </trkpt>
      <trkpt lat="40.288800" lon="-4.889367">
        <ele>1515.0</ele>
        <time>2018-09-15T12:50:30Z</time>
      </trkpt>
      <trkpt lat="40.288767" lon="-4.889317">
        <ele>1513.0</ele>
        <time>2018-09-15T12:50:31Z</time>
      </trkpt>
      <trkpt lat="40.288700" lon="-4.889283">
        <ele>1509.0</ele>
        <time>2018-09-15T12:50:32Z</time>
      </trkpt>
      <trkpt lat="40.288650" lon="-4.889233">
        <ele>1504.0</ele>
        <time>2018-09-15T12:50:33Z</time>
      </trkpt>
      <trkpt lat="40.288600" lon="-4.889183">
        <ele>1499.0</ele>
        <time>2018-09-15T12:50:34Z</time>
      </trkpt>
      <trkpt lat="40.288550" lon="-4.889117">
        <ele>1495.0</ele>
        <time>2018-09-15T12:50:35Z</time>
      </trkpt>
      <trkpt lat="40.288517" lon="-4.889050">
        <ele>1491.0</ele>
        <time>2018-09-15T12:50:36Z</time>
      </trkpt>
      <trkpt lat="40.288467" lon="-4.888950">
        <ele>1487.0</ele>
        <time>2018-09-15T12:50:37Z</time>
      </trkpt>
      <trkpt lat="40.288417" lon="-4.888867">
        <ele>1491.0</ele>
        <time>2018-09-15T12:50:38Z</time>
      </trkpt>
      <trkpt lat="40.288350" lon="-4.888783">
        <ele>1490.0</ele>
        <time>2018-09-15T12:50:39Z</time>
      </trkpt>
      <trkpt lat="40.288300" lon="-4.888717">
        <ele>1489.0</ele>
        <time>2018-09-15T12:50:40Z</time>
      </trkpt>
      <trkpt lat="40.288250" lon="-4.888650">
        <ele>1487.0</ele>
        <time>2018-09-15T12:50:41Z</time>
      </trkpt>
      <trkpt lat="40.288217" lon="-4.888600">
        <ele>1483.0</ele>
        <time>2018-09-15T12:50:42Z</time>
      </trkpt>
      <trkpt lat="40.288183" lon="-4.888533">
        <ele>1479.0</ele>
        <time>2018-09-15T12:50:43Z</time>
      </trkpt>
      <trkpt lat="40.288150" lon="-4.888467">
        <ele>1475.0</ele>
        <time>2018-09-15T12:50:44Z</time>
      </trkpt>
      <trkpt lat="40.288100" lon="-4.888417">
        <ele>1471.0</ele>
        <time>2018-09-15T12:50:45Z</time>
      </trkpt>
      <trkpt lat="40.288067" lon="-4.888333">
        <ele>1468.0</ele>
        <time>2018-09-15T12:50:46Z</time>
      </trkpt>
      <trkpt lat="40.288033" lon="-4.888267">
        <ele>1463.0</ele>
        <time>2018-09-15T12:50:47Z</time>
      </trkpt>
      <trkpt lat="40.287983" lon="-4.888200">
        <ele>1459.0</ele>
        <time>2018-09-15T12:50:48Z</time>
      </trkpt>
      <trkpt lat="40.287933" lon="-4.888133">
        <ele>1456.0</ele>
        <time>2018-09-15T12:50:49Z</time>
      </trkpt>
      <trkpt lat="40.287883" lon="-4.888067">
        <ele>1453.0</ele>
        <time>2018-09-15T12:50:50Z</time>
      </trkpt>
      <trkpt lat="40.287833" lon="-4.887983">
        <ele>1450.0</ele>
        <time>2018-09-15T12:50:51Z</time>
      </trkpt>
      <trkpt lat="40.287783" lon="-4.887917">
        <ele>1447.0</ele>
        <time>2018-09-15T12:50:52Z</time>
      </trkpt>
      <trkpt lat="40.287733" lon="-4.887817">
        <ele>1444.0</ele>
        <time>2018-09-15T12:50:53Z</time>
      </trkpt>
      <trkpt lat="40.287700" lon="-4.887733">
        <ele>1441.0</ele>
        <time>2018-09-15T12:50:54Z</time>
      </trkpt>
      <trkpt lat="40.287633" lon="-4.887650">
        <ele>1438.0</ele>
        <time>2018-09-15T12:50:55Z</time>
      </trkpt>
      <trkpt lat="40.287583" lon="-4.887567">
        <ele>1439.0</ele>
        <time>2018-09-15T12:50:56Z</time>
      </trkpt>
      <trkpt lat="40.287517" lon="-4.887483">
        <ele>1437.0</ele>
        <time>2018-09-15T12:50:57Z</time>
      </trkpt>
      <trkpt lat="40.287467" lon="-4.887400">
        <ele>1435.0</ele>
        <time>2018-09-15T12:50:58Z</time>
      </trkpt>
      <trkpt lat="40.287417" lon="-4.887333">
        <ele>1433.0</ele>
        <time>2018-09-15T12:50:59Z</time>
      </trkpt>
      <trkpt lat="40.287350" lon="-4.887267">
        <ele>1430.0</ele>
        <time>2018-09-15T12:51:00Z</time>
      </trkpt>
      <trkpt lat="40.287300" lon="-4.887200">
        <ele>1427.0</ele>
        <time>2018-09-15T12:51:01Z</time>
      </trkpt>
      <trkpt lat="40.287233" lon="-4.887133">
        <ele>1424.0</ele>
        <time>2018-09-15T12:51:02Z</time>
      </trkpt>
      <trkpt lat="40.287167" lon="-4.887067">
        <ele>1422.0</ele>
        <time>2018-09-15T12:51:03Z</time>
      </trkpt>
      <trkpt lat="40.287100" lon="-4.887000">
        <ele>1420.0</ele>
        <time>2018-09-15T12:51:04Z</time>
      </trkpt>
      <trkpt lat="40.287033" lon="-4.886917">
        <ele>1418.0</ele>
        <time>2018-09-15T12:51:05Z</time>
      </trkpt>
      <trkpt lat="40.286983" lon="-4.886867">
        <ele>1417.0</ele>
        <time>2018-09-15T12:51:06Z</time>
      </trkpt>
      <trkpt lat="40.286950" lon="-4.886800">
        <ele>1416.0</ele>
        <time>2018-09-15T12:51:07Z</time>
      </trkpt>
      <trkpt lat="40.286883" lon="-4.886750">
        <ele>1414.0</ele>
        <time>2018-09-15T12:51:08Z</time>
      </trkpt>
      <trkpt lat="40.286833" lon="-4.886683">
        <ele>1412.0</ele>
        <time>2018-09-15T12:51:09Z</time>
      </trkpt>
      <trkpt lat="40.286750" lon="-4.886600">
        <ele>1410.0</ele>
        <time>2018-09-15T12:51:10Z</time>
      </trkpt>
      <trkpt lat="40.286700" lon="-4.886517">
        <ele>1409.0</ele>
        <time>2018-09-15T12:51:11Z</time>
      </trkpt>
      <trkpt lat="40.286650" lon="-4.886450">
        <ele>1409.0</ele>
        <time>2018-09-15T12:51:12Z</time>
      </trkpt>
      <trkpt lat="40.286600" lon="-4.886400">
        <ele>1411.0</ele>
        <time>2018-09-15T12:51:13Z</time>
      </trkpt>
      <trkpt lat="40.286567" lon="-4.886367">
        <ele>1412.0</ele>
        <time>2018-09-15T12:51:14Z</time>
      </trkpt>
      <trkpt lat="40.286533" lon="-4.886333">
        <ele>1412.0</ele>
        <time>2018-09-15T12:51:15Z</time>
      </trkpt>
      <trkpt lat="40.286467" lon="-4.886283">
        <ele>1410.0</ele>
        <time>2018-09-15T12:51:16Z</time>
      </trkpt>
      <trkpt lat="40.286400" lon="-4.886250">
        <ele>1409.0</ele>
        <time>2018-09-15T12:51:17Z</time>
      </trkpt>
      <trkpt lat="40.286350" lon="-4.886217">
        <ele>1409.0</ele>
        <time>2018-09-15T12:51:18Z</time>
      </trkpt>
      <trkpt lat="40.286283" lon="-4.886183">
        <ele>1409.0</ele>
        <time>2018-09-15T12:51:19Z</time>
      </trkpt>
      <trkpt lat="40.286217" lon="-4.886150">
        <ele>1409.0</ele>
        <time>2018-09-15T12:51:20Z</time>
      </trkpt>
      <trkpt lat="40.286150" lon="-4.886117">
        <ele>1409.0</ele>
        <time>2018-09-15T12:51:21Z</time>
      </trkpt>
      <trkpt lat="40.286083" lon="-4.886083">
        <ele>1409.0</ele>
        <time>2018-09-15T12:51:22Z</time>
      </trkpt>
      <trkpt lat="40.286017" lon="-4.886067">
        <ele>1409.0</ele>
        <time>2018-09-15T12:51:23Z</time>
      </trkpt>
      <trkpt lat="40.285950" lon="-4.886033">
        <ele>1408.0</ele>
        <time>2018-09-15T12:51:24Z</time>
      </trkpt>
      <trkpt lat="40.285883" lon="-4.886000">
        <ele>1407.0</ele>
        <time>2018-09-15T12:51:25Z</time>
      </trkpt>
      <trkpt lat="40.285800" lon="-4.885950">
        <ele>1406.0</ele>
        <time>2018-09-15T12:51:26Z</time>
      </trkpt>
      <trkpt lat="40.285733" lon="-4.885917">
        <ele>1405.0</ele>
        <time>2018-09-15T12:51:27Z</time>
      </trkpt>
      <trkpt lat="40.285667" lon="-4.885867">
        <ele>1405.0</ele>
        <time>2018-09-15T12:51:28Z</time>
      </trkpt>
      <trkpt lat="40.285617" lon="-4.885817">
        <ele>1405.0</ele>
        <time>2018-09-15T12:51:29Z</time>
      </trkpt>
      <trkpt lat="40.285550" lon="-4.885767">
        <ele>1404.0</ele>
        <time>2018-09-15T12:51:30Z</time>
      </trkpt>
      <trkpt lat="40.285483" lon="-4.885700">
        <ele>1403.0</ele>
        <time>2018-09-15T12:51:31Z</time>
      </trkpt>
      <trkpt lat="40.285417" lon="-4.885667">
        <ele>1402.0</ele>
        <time>2018-09-15T12:51:32Z</time>
      </trkpt>
      <trkpt lat="40.285350" lon="-4.885617">
        <ele>1400.0</ele>
        <time>2018-09-15T12:51:33Z</time>
      </trkpt>
      <trkpt lat="40.285283" lon="-4.885567">
        <ele>1399.0</ele>
        <time>2018-09-15T12:51:34Z</time>
      </trkpt>
      <trkpt lat="40.285217" lon="-4.885533">
        <ele>1400.0</ele>
        <time>2018-09-15T12:51:35Z</time>
      </trkpt>
      <trkpt lat="40.285150" lon="-4.885483">
        <ele>1399.0</ele>
        <time>2018-09-15T12:51:36Z</time>
      </trkpt>
      <trkpt lat="40.285100" lon="-4.885433">
        <ele>1399.0</ele>
        <time>2018-09-15T12:51:37Z</time>
      </trkpt>
      <trkpt lat="40.285017" lon="-4.885400">
        <ele>1399.0</ele>
        <time>2018-09-15T12:51:38Z</time>
      </trkpt>
      <trkpt lat="40.284967" lon="-4.885367">
        <ele>1399.0</ele>
        <time>2018-09-15T12:51:39Z</time>
      </trkpt>
      <trkpt lat="40.284900" lon="-4.885333">
        <ele>1401.0</ele>
        <time>2018-09-15T12:51:40Z</time>
      </trkpt>
      <trkpt lat="40.284850" lon="-4.885283">
        <ele>1401.0</ele>
        <time>2018-09-15T12:51:41Z</time>
      </trkpt>
      <trkpt lat="40.284800" lon="-4.885250">
        <ele>1401.0</ele>
        <time>2018-09-15T12:51:42Z</time>
      </trkpt>
      <trkpt lat="40.284733" lon="-4.885200">
        <ele>1402.0</ele>
        <time>2018-09-15T12:51:43Z</time>
      </trkpt>
      <trkpt lat="40.284667" lon="-4.885183">
        <ele>1402.0</ele>
        <time>2018-09-15T12:51:44Z</time>
      </trkpt>
      <trkpt lat="40.284600" lon="-4.885167">
        <ele>1403.0</ele>
        <time>2018-09-15T12:51:45Z</time>
      </trkpt>
      <trkpt lat="40.284550" lon="-4.885150">
        <ele>1405.0</ele>
        <time>2018-09-15T12:51:46Z</time>
      </trkpt>
      <trkpt lat="40.284483" lon="-4.885150">
        <ele>1405.0</ele>
        <time>2018-09-15T12:51:47Z</time>
      </trkpt>
      <trkpt lat="40.284417" lon="-4.885150">
        <ele>1406.0</ele>
        <time>2018-09-15T12:51:48Z</time>
      </trkpt>
      <trkpt lat="40.284350" lon="-4.885133">
        <ele>1406.0</ele>
        <time>2018-09-15T12:51:49Z</time>
      </trkpt>
      <trkpt lat="40.284283" lon="-4.885133">
        <ele>1407.0</ele>
        <time>2018-09-15T12:51:50Z</time>
      </trkpt>
      <trkpt lat="40.284233" lon="-4.885117">
        <ele>1409.0</ele>
        <time>2018-09-15T12:51:51Z</time>
      </trkpt>
      <trkpt lat="40.284183" lon="-4.885117">
        <ele>1410.0</ele>
        <time>2018-09-15T12:51:52Z</time>
      </trkpt>
      <trkpt lat="40.284133" lon="-4.885117">
        <ele>1412.0</ele>
        <time>2018-09-15T12:51:53Z</time>
      </trkpt>
      <trkpt lat="40.284067" lon="-4.885100">
        <ele>1411.0</ele>
        <time>2018-09-15T12:51:54Z</time>
      </trkpt>
      <trkpt lat="40.284017" lon="-4.885083">
        <ele>1412.0</ele>
        <time>2018-09-15T12:51:55Z</time>
      </trkpt>
      <trkpt lat="40.283950" lon="-4.885050">
        <ele>1414.0</ele>
        <time>2018-09-15T12:51:56Z</time>
      </trkpt>
      <trkpt lat="40.283917" lon="-4.885000">
        <ele>1415.0</ele>
        <time>2018-09-15T12:51:57Z</time>
      </trkpt>
      <trkpt lat="40.283917" lon="-4.884933">
        <ele>1415.0</ele>
        <time>2018-09-15T12:51:58Z</time>
      </trkpt>
      <trkpt lat="40.283967" lon="-4.884867">
        <ele>1415.0</ele>
        <time>2018-09-15T12:51:59Z</time>
      </trkpt>
      <trkpt lat="40.284033" lon="-4.884817">
        <ele>1414.0</ele>
        <time>2018-09-15T12:52:00Z</time>
      </trkpt>
      <trkpt lat="40.284133" lon="-4.884817">
        <ele>1415.0</ele>
        <time>2018-09-15T12:52:01Z</time>
      </trkpt>
      <trkpt lat="40.284217" lon="-4.884867">
        <ele>1415.0</ele>
        <time>2018-09-15T12:52:02Z</time>
      </trkpt>
      <trkpt lat="40.284300" lon="-4.884950">
        <ele>1416.0</ele>
        <time>2018-09-15T12:52:03Z</time>
      </trkpt>
      <trkpt lat="40.284367" lon="-4.885067">
        <ele>1417.0</ele>
        <time>2018-09-15T12:52:04Z</time>
      </trkpt>
      <trkpt lat="40.284400" lon="-4.885217">
        <ele>1418.0</ele>
        <time>2018-09-15T12:52:05Z</time>
      </trkpt>
      <trkpt lat="40.284400" lon="-4.885367">
        <ele>1419.0</ele>
        <time>2018-09-15T12:52:06Z</time>
      </trkpt>
      <trkpt lat="40.284367" lon="-4.885483">
        <ele>1420.0</ele>
        <time>2018-09-15T12:52:07Z</time>
      </trkpt>
      <trkpt lat="40.284300" lon="-4.885583">
        <ele>1422.0</ele>
        <time>2018-09-15T12:52:08Z</time>
      </trkpt>
      <trkpt lat="40.284217" lon="-4.885667">
        <ele>1424.0</ele>
        <time>2018-09-15T12:52:09Z</time>
      </trkpt>
      <trkpt lat="40.284150" lon="-4.885717">
        <ele>1426.0</ele>
        <time>2018-09-15T12:52:10Z</time>
      </trkpt>
      <trkpt lat="40.284083" lon="-4.885783">
        <ele>1428.0</ele>
        <time>2018-09-15T12:52:11Z</time>
      </trkpt>
      <trkpt lat="40.284017" lon="-4.885833">
        <ele>1429.0</ele>
        <time>2018-09-15T12:52:12Z</time>
      </trkpt>
      <trkpt lat="40.283933" lon="-4.885850">
        <ele>1431.0</ele>
        <time>2018-09-15T12:52:13Z</time>
      </trkpt>
      <trkpt lat="40.283867" lon="-4.885867">
        <ele>1432.0</ele>
        <time>2018-09-15T12:52:14Z</time>
      </trkpt>
      <trkpt lat="40.283800" lon="-4.885867">
        <ele>1433.0</ele>
        <time>2018-09-15T12:52:15Z</time>
      </trkpt>
      <trkpt lat="40.283733" lon="-4.885867">
        <ele>1435.0</ele>
        <time>2018-09-15T12:52:16Z</time>
      </trkpt>
      <trkpt lat="40.283667" lon="-4.885867">
        <ele>1436.0</ele>
        <time>2018-09-15T12:52:17Z</time>
      </trkpt>
      <trkpt lat="40.283583" lon="-4.885850">
        <ele>1438.0</ele>
        <time>2018-09-15T12:52:18Z</time>
      </trkpt>
      <trkpt lat="40.283517" lon="-4.885850">
        <ele>1440.0</ele>
        <time>2018-09-15T12:52:19Z</time>
      </trkpt>
      <trkpt lat="40.283450" lon="-4.885850">
        <ele>1444.0</ele>
        <time>2018-09-15T12:52:20Z</time>
      </trkpt>
      <trkpt lat="40.283400" lon="-4.885850">
        <ele>1447.0</ele>
        <time>2018-09-15T12:52:21Z</time>
      </trkpt>
      <trkpt lat="40.283333" lon="-4.885833">
        <ele>1449.0</ele>
        <time>2018-09-15T12:52:22Z</time>
      </trkpt>
      <trkpt lat="40.283267" lon="-4.885833">
        <ele>1451.0</ele>
        <time>2018-09-15T12:52:23Z</time>
      </trkpt>
      <trkpt lat="40.283183" lon="-4.885817">
        <ele>1452.0</ele>
        <time>2018-09-15T12:52:24Z</time>
      </trkpt>
      <trkpt lat="40.283133" lon="-4.885767">
        <ele>1452.0</ele>
        <time>2018-09-15T12:52:25Z</time>
      </trkpt>
      <trkpt lat="40.283100" lon="-4.885700">
        <ele>1452.0</ele>
        <time>2018-09-15T12:52:26Z</time>
      </trkpt>
      <trkpt lat="40.283100" lon="-4.885617">
        <ele>1453.0</ele>
        <time>2018-09-15T12:52:27Z</time>
      </trkpt>
      <trkpt lat="40.283150" lon="-4.885533">
        <ele>1452.0</ele>
        <time>2018-09-15T12:52:28Z</time>
      </trkpt>
      <trkpt lat="40.283217" lon="-4.885483">
        <ele>1453.0</ele>
        <time>2018-09-15T12:52:29Z</time>
      </trkpt>
      <trkpt lat="40.283300" lon="-4.885483">
        <ele>1453.0</ele>
        <time>2018-09-15T12:52:30Z</time>
      </trkpt>
      <trkpt lat="40.283400" lon="-4.885517">
        <ele>1453.0</ele>
        <time>2018-09-15T12:52:31Z</time>
      </trkpt>
      <trkpt lat="40.283483" lon="-4.885617">
        <ele>1452.0</ele>
        <time>2018-09-15T12:52:32Z</time>
      </trkpt>
      <trkpt lat="40.283533" lon="-4.885750">
        <ele>1452.0</ele>
        <time>2018-09-15T12:52:33Z</time>
      </trkpt>
      <trkpt lat="40.283533" lon="-4.885900">
        <ele>1452.0</ele>
        <time>2018-09-15T12:52:34Z</time>
      </trkpt>
      <trkpt lat="40.283500" lon="-4.886050">
        <ele>1451.0</ele>
        <time>2018-09-15T12:52:35Z</time>
      </trkpt>
      <trkpt lat="40.283417" lon="-4.886150">
        <ele>1452.0</ele>
        <time>2018-09-15T12:52:36Z</time>
      </trkpt>
      <trkpt lat="40.283333" lon="-4.886200">
        <ele>1453.0</ele>
        <time>2018-09-15T12:52:37Z</time>
      </trkpt>
      <trkpt lat="40.283267" lon="-4.886233">
        <ele>1456.0</ele>
        <time>2018-09-15T12:52:38Z</time>
      </trkpt>
      <trkpt lat="40.283200" lon="-4.886250">
        <ele>1458.0</ele>
        <time>2018-09-15T12:52:39Z</time>
      </trkpt>
      <trkpt lat="40.283133" lon="-4.886283">
        <ele>1460.0</ele>
        <time>2018-09-15T12:52:40Z</time>
      </trkpt>
      <trkpt lat="40.283050" lon="-4.886317">
        <ele>1461.0</ele>
        <time>2018-09-15T12:52:41Z</time>
      </trkpt>
      <trkpt lat="40.283000" lon="-4.886350">
        <ele>1463.0</ele>
        <time>2018-09-15T12:52:42Z</time>
      </trkpt>
      <trkpt lat="40.282933" lon="-4.886367">
        <ele>1465.0</ele>
        <time>2018-09-15T12:52:43Z</time>
      </trkpt>
      <trkpt lat="40.282867" lon="-4.886367">
        <ele>1467.0</ele>
        <time>2018-09-15T12:52:44Z</time>
      </trkpt>
      <trkpt lat="40.282783" lon="-4.886383">
        <ele>1468.0</ele>
        <time>2018-09-15T12:52:45Z</time>
      </trkpt>
      <trkpt lat="40.282717" lon="-4.886417">
        <ele>1470.0</ele>
        <time>2018-09-15T12:52:46Z</time>
      </trkpt>
      <trkpt lat="40.282650" lon="-4.886433">
        <ele>1473.0</ele>
        <time>2018-09-15T12:52:47Z</time>
      </trkpt>
      <trkpt lat="40.282600" lon="-4.886433">
        <ele>1475.0</ele>
        <time>2018-09-15T12:52:48Z</time>
      </trkpt>
      <trkpt lat="40.282550" lon="-4.886433">
        <ele>1478.0</ele>
        <time>2018-09-15T12:52:49Z</time>
      </trkpt>
      <trkpt lat="40.282500" lon="-4.886417">
        <ele>1479.0</ele>
        <time>2018-09-15T12:52:50Z</time>
      </trkpt>
      <trkpt lat="40.282433" lon="-4.886417">
        <ele>1480.0</ele>
        <time>2018-09-15T12:52:51Z</time>
      </trkpt>
      <trkpt lat="40.282367" lon="-4.886433">
        <ele>1481.0</ele>
        <time>2018-09-15T12:52:52Z</time>
      </trkpt>
      <trkpt lat="40.282317" lon="-4.886450">
        <ele>1481.0</ele>
        <time>2018-09-15T12:52:53Z</time>
      </trkpt>
      <trkpt lat="40.282250" lon="-4.886467">
        <ele>1481.0</ele>
        <time>2018-09-15T12:52:54Z</time>
      </trkpt>
      <trkpt lat="40.282167" lon="-4.886467">
        <ele>1481.0</ele>
        <time>2018-09-15T12:52:55Z</time>
      </trkpt>
      <trkpt lat="40.282117" lon="-4.886433">
        <ele>1482.0</ele>
        <time>2018-09-15T12:52:56Z</time>
      </trkpt>
      <trkpt lat="40.282083" lon="-4.886383">
        <ele>1482.0</ele>
        <time>2018-09-15T12:52:57Z</time>
      </trkpt>
      <trkpt lat="40.282067" lon="-4.886333">
        <ele>1484.0</ele>
        <time>2018-09-15T12:52:58Z</time>
      </trkpt>
      <trkpt lat="40.282067" lon="-4.886283">
        <ele>1485.0</ele>
        <time>2018-09-15T12:52:59Z</time>
      </trkpt>
      <trkpt lat="40.282083" lon="-4.886250">
        <ele>1487.0</ele>
        <time>2018-09-15T12:53:00Z</time>
      </trkpt>
      <trkpt lat="40.282083" lon="-4.886183">
        <ele>1489.0</ele>
        <time>2018-09-15T12:53:01Z</time>
      </trkpt>
      <trkpt lat="40.282067" lon="-4.886100">
        <ele>1489.0</ele>
        <time>2018-09-15T12:53:02Z</time>
      </trkpt>
      <trkpt lat="40.282050" lon="-4.886017">
        <ele>1491.0</ele>
        <time>2018-09-15T12:53:03Z</time>
      </trkpt>
      <trkpt lat="40.282000" lon="-4.885983">
        <ele>1492.0</ele>
        <time>2018-09-15T12:53:04Z</time>
      </trkpt>
      <trkpt lat="40.281933" lon="-4.885983">
        <ele>1493.0</ele>
        <time>2018-09-15T12:53:05Z</time>
      </trkpt>
      <trkpt lat="40.281867" lon="-4.886050">
        <ele>1494.0</ele>
        <time>2018-09-15T12:53:06Z</time>
      </trkpt>
      <trkpt lat="40.281833" lon="-4.886167">
        <ele>1494.0</ele>
        <time>2018-09-15T12:53:07Z</time>
      </trkpt>
      <trkpt lat="40.281833" lon="-4.886300">
        <ele>1495.0</ele>
        <time>2018-09-15T12:53:08Z</time>
      </trkpt>
      <trkpt lat="40.281883" lon="-4.886417">
        <ele>1495.0</ele>
        <time>2018-09-15T12:53:09Z</time>
      </trkpt>
      <trkpt lat="40.281967" lon="-4.886517">
        <ele>1496.0</ele>
        <time>2018-09-15T12:53:10Z</time>
      </trkpt>
      <trkpt lat="40.282083" lon="-4.886583">
        <ele>1496.0</ele>
        <time>2018-09-15T12:53:11Z</time>
      </trkpt>
      <trkpt lat="40.282183" lon="-4.886600">
        <ele>1496.0</ele>
        <time>2018-09-15T12:53:12Z</time>
      </trkpt>
      <trkpt lat="40.282267" lon="-4.886583">
        <ele>1497.0</ele>
        <time>2018-09-15T12:53:13Z</time>
      </trkpt>
      <trkpt lat="40.282350" lon="-4.886533">
        <ele>1498.0</ele>
        <time>2018-09-15T12:53:14Z</time>
      </trkpt>
      <trkpt lat="40.282417" lon="-4.886467">
        <ele>1500.0</ele>
        <time>2018-09-15T12:53:15Z</time>
      </trkpt>
      <trkpt lat="40.282467" lon="-4.886417">
        <ele>1502.0</ele>
        <time>2018-09-15T12:53:16Z</time>
      </trkpt>
      <trkpt lat="40.282517" lon="-4.886367">
        <ele>1504.0</ele>
        <time>2018-09-15T12:53:17Z</time>
      </trkpt>
      <trkpt lat="40.282533" lon="-4.886317">
        <ele>1506.0</ele>
        <time>2018-09-15T12:53:18Z</time>
      </trkpt>
      <trkpt lat="40.282550" lon="-4.886250">
        <ele>1507.0</ele>
        <time>2018-09-15T12:53:19Z</time>
      </trkpt>
      <trkpt lat="40.282533" lon="-4.886183">
        <ele>1508.0</ele>
        <time>2018-09-15T12:53:20Z</time>
      </trkpt>
      <trkpt lat="40.282483" lon="-4.886133">
        <ele>1508.0</ele>
        <time>2018-09-15T12:53:21Z</time>
      </trkpt>
      <trkpt lat="40.282417" lon="-4.886167">
        <ele>1507.0</ele>
        <time>2018-09-15T12:53:22Z</time>
      </trkpt>
      <trkpt lat="40.282350" lon="-4.886233">
        <ele>1507.0</ele>
        <time>2018-09-15T12:53:23Z</time>
      </trkpt>
      <trkpt lat="40.282317" lon="-4.886367">
        <ele>1506.0</ele>
        <time>2018-09-15T12:53:24Z</time>
      </trkpt>
      <trkpt lat="40.282350" lon="-4.886517">
        <ele>1504.0</ele>
        <time>2018-09-15T12:53:25Z</time>
      </trkpt>
      <trkpt lat="40.282417" lon="-4.886667">
        <ele>1503.0</ele>
        <time>2018-09-15T12:53:26Z</time>
      </trkpt>
      <trkpt lat="40.282533" lon="-4.886750">
        <ele>1500.0</ele>
        <time>2018-09-15T12:53:27Z</time>
      </trkpt>
      <trkpt lat="40.282650" lon="-4.886800">
        <ele>1498.0</ele>
        <time>2018-09-15T12:53:28Z</time>
      </trkpt>
      <trkpt lat="40.282767" lon="-4.886783">
        <ele>1496.0</ele>
        <time>2018-09-15T12:53:29Z</time>
      </trkpt>
      <trkpt lat="40.282850" lon="-4.886733">
        <ele>1495.0</ele>
        <time>2018-09-15T12:53:30Z</time>
      </trkpt>
      <trkpt lat="40.282917" lon="-4.886667">
        <ele>1495.0</ele>
        <time>2018-09-15T12:53:31Z</time>
      </trkpt>
      <trkpt lat="40.282950" lon="-4.886583">
        <ele>1495.0</ele>
        <time>2018-09-15T12:53:32Z</time>
      </trkpt>
      <trkpt lat="40.282950" lon="-4.886517">
        <ele>1495.0</ele>
        <time>2018-09-15T12:53:33Z</time>
      </trkpt>
      <trkpt lat="40.282967" lon="-4.886467">
        <ele>1496.0</ele>
        <time>2018-09-15T12:53:34Z</time>
      </trkpt>
      <trkpt lat="40.282967" lon="-4.886433">
        <ele>1496.0</ele>
        <time>2018-09-15T12:53:35Z</time>
      </trkpt>
      <trkpt lat="40.282967" lon="-4.886400">
        <ele>1496.0</ele>
        <time>2018-09-15T12:53:36Z</time>
      </trkpt>
      <trkpt lat="40.282950" lon="-4.886367">
        <ele>1496.0</ele>
        <time>2018-09-15T12:53:37Z</time>
      </trkpt>
      <trkpt lat="40.282917" lon="-4.886333">
        <ele>1495.0</ele>
        <time>2018-09-15T12:53:38Z</time>
      </trkpt>
      <trkpt lat="40.282867" lon="-4.886283">
        <ele>1493.0</ele>
        <time>2018-09-15T12:53:39Z</time>
      </trkpt>
      <trkpt lat="40.282817" lon="-4.886250">
        <ele>1492.0</ele>
        <time>2018-09-15T12:53:40Z</time>
      </trkpt>
      <trkpt lat="40.282783" lon="-4.886233">
        <ele>1492.0</ele>
        <time>2018-09-15T12:53:41Z</time>
      </trkpt>
      <trkpt lat="40.282750" lon="-4.886217">
        <ele>1492.0</ele>
        <time>2018-09-15T12:53:42Z</time>
      </trkpt>
      <trkpt lat="40.282700" lon="-4.886217">
        <ele>1491.0</ele>
        <time>2018-09-15T12:53:43Z</time>
      </trkpt>
      <trkpt lat="40.282650" lon="-4.886217">
        <ele>1490.0</ele>
        <time>2018-09-15T12:53:44Z</time>
      </trkpt>
      <trkpt lat="40.282583" lon="-4.886200">
        <ele>1490.0</ele>
        <time>2018-09-15T12:53:45Z</time>
      </trkpt>
      <trkpt lat="40.282550" lon="-4.886200">
        <ele>1490.0</ele>
        <time>2018-09-15T12:53:46Z</time>
      </trkpt>
      <trkpt lat="40.282517" lon="-4.886183">
        <ele>1491.0</ele>
        <time>2018-09-15T12:53:47Z</time>
      </trkpt>
      <trkpt lat="40.282483" lon="-4.886167">
        <ele>1492.0</ele>
        <time>2018-09-15T12:53:48Z</time>
      </trkpt>
      <trkpt lat="40.282433" lon="-4.886167">
        <ele>1491.0</ele>
        <time>2018-09-15T12:53:49Z</time>
      </trkpt>
      <trkpt lat="40.282367" lon="-4.886183">
        <ele>1492.0</ele>
        <time>2018-09-15T12:53:50Z</time>
      </trkpt>
      <trkpt lat="40.282300" lon="-4.886217">
        <ele>1491.0</ele>
        <time>2018-09-15T12:53:51Z</time>
      </trkpt>
      <trkpt lat="40.282233" lon="-4.886250">
        <ele>1491.0</ele>
        <time>2018-09-15T12:53:52Z</time>
      </trkpt>
      <trkpt lat="40.282167" lon="-4.886267">
        <ele>1492.0</ele>
        <time>2018-09-15T12:53:53Z</time>
      </trkpt>
      <trkpt lat="40.282117" lon="-4.886283">
        <ele>1493.0</ele>
        <time>2018-09-15T12:53:54Z</time>
      </trkpt>
      <trkpt lat="40.282067" lon="-4.886300">
        <ele>1494.0</ele>
        <time>2018-09-15T12:53:55Z</time>
      </trkpt>
      <trkpt lat="40.282000" lon="-4.886333">
        <ele>1494.0</ele>
        <time>2018-09-15T12:53:56Z</time>
      </trkpt>
      <trkpt lat="40.281933" lon="-4.886367">
        <ele>1495.0</ele>
        <time>2018-09-15T12:53:57Z</time>
      </trkpt>
      <trkpt lat="40.281867" lon="-4.886383">
        <ele>1496.0</ele>
        <time>2018-09-15T12:53:58Z</time>
      </trkpt>
      <trkpt lat="40.281817" lon="-4.886400">
        <ele>1499.0</ele>
        <time>2018-09-15T12:53:59Z</time>
      </trkpt>
      <trkpt lat="40.281767" lon="-4.886417">
        <ele>1502.0</ele>
        <time>2018-09-15T12:54:00Z</time>
      </trkpt>
      <trkpt lat="40.281733" lon="-4.886433">
        <ele>1506.0</ele>
        <time>2018-09-15T12:54:01Z</time>
      </trkpt>
      <trkpt lat="40.281683" lon="-4.886433">
        <ele>1507.0</ele>
        <time>2018-09-15T12:54:02Z</time>
      </trkpt>
      <trkpt lat="40.281617" lon="-4.886450">
        <ele>1509.0</ele>
        <time>2018-09-15T12:54:03Z</time>
      </trkpt>
      <trkpt lat="40.281567" lon="-4.886450">
        <ele>1511.0</ele>
        <time>2018-09-15T12:54:04Z</time>
      </trkpt>
      <trkpt lat="40.281517" lon="-4.886450">
        <ele>1512.0</ele>
        <time>2018-09-15T12:54:05Z</time>
      </trkpt>
      <trkpt lat="40.281483" lon="-4.886417">
        <ele>1514.0</ele>
        <time>2018-09-15T12:54:06Z</time>
      </trkpt>
      <trkpt lat="40.281450" lon="-4.886367">
        <ele>1514.0</ele>
        <time>2018-09-15T12:54:07Z</time>
      </trkpt>
      <trkpt lat="40.281450" lon="-4.886300">
        <ele>1515.0</ele>
        <time>2018-09-15T12:54:08Z</time>
      </trkpt>
      <trkpt lat="40.281467" lon="-4.886233">
        <ele>1516.0</ele>
        <time>2018-09-15T12:54:09Z</time>
      </trkpt>
      <trkpt lat="40.281517" lon="-4.886167">
        <ele>1519.0</ele>
        <time>2018-09-15T12:54:10Z</time>
      </trkpt>
      <trkpt lat="40.281617" lon="-4.886133">
        <ele>1520.0</ele>
        <time>2018-09-15T12:54:11Z</time>
      </trkpt>
      <trkpt lat="40.281733" lon="-4.886167">
        <ele>1523.0</ele>
        <time>2018-09-15T12:54:12Z</time>
      </trkpt>
      <trkpt lat="40.281833" lon="-4.886250">
        <ele>1525.0</ele>
        <time>2018-09-15T12:54:13Z</time>
      </trkpt>
      <trkpt lat="40.281933" lon="-4.886383">
        <ele>1527.0</ele>
        <time>2018-09-15T12:54:14Z</time>
      </trkpt>
      <trkpt lat="40.281967" lon="-4.886533">
        <ele>1530.0</ele>
        <time>2018-09-15T12:54:15Z</time>
      </trkpt>
      <trkpt lat="40.281967" lon="-4.886667">
        <ele>1532.0</ele>
        <time>2018-09-15T12:54:16Z</time>
      </trkpt>
      <trkpt lat="40.281933" lon="-4.886767">
        <ele>1533.0</ele>
        <time>2018-09-15T12:54:17Z</time>
      </trkpt>
      <trkpt lat="40.281867" lon="-4.886833">
        <ele>1534.0</ele>
        <time>2018-09-15T12:54:18Z</time>
      </trkpt>
      <trkpt lat="40.281817" lon="-4.886867">
        <ele>1535.0</ele>
        <time>2018-09-15T12:54:19Z</time>
      </trkpt>
      <trkpt lat="40.281767" lon="-4.886867">
        <ele>1537.0</ele>
        <time>2018-09-15T12:54:20Z</time>
      </trkpt>
      <trkpt lat="40.281717" lon="-4.886850">
        <ele>1539.0</ele>
        <time>2018-09-15T12:54:21Z</time>
      </trkpt>
      <trkpt lat="40.281667" lon="-4.886833">
        <ele>1541.0</ele>
        <time>2018-09-15T12:54:22Z</time>
      </trkpt>
      <trkpt lat="40.281633" lon="-4.886800">
        <ele>1544.0</ele>
        <time>2018-09-15T12:54:23Z</time>
      </trkpt>
      <trkpt lat="40.281617" lon="-4.886733">
        <ele>1546.0</ele>
        <time>2018-09-15T12:54:24Z</time>
      </trkpt>
      <trkpt lat="40.281633" lon="-4.886667">
        <ele>1549.0</ele>
        <time>2018-09-15T12:54:25Z</time>
      </trkpt>
      <trkpt lat="40.281667" lon="-4.886583">
        <ele>1553.0</ele>
        <time>2018-09-15T12:54:26Z</time>
      </trkpt>
      <trkpt lat="40.281717" lon="-4.886533">
        <ele>1557.0</ele>
        <time>2018-09-15T12:54:27Z</time>
      </trkpt>
      <trkpt lat="40.281783" lon="-4.886483">
        <ele>1556.0</ele>
        <time>2018-09-15T12:54:28Z</time>
      </trkpt>
      <trkpt lat="40.281817" lon="-4.886417">
        <ele>1556.0</ele>
        <time>2018-09-15T12:54:29Z</time>
      </trkpt>
      <trkpt lat="40.281817" lon="-4.886367">
        <ele>1558.0</ele>
        <time>2018-09-15T12:54:30Z</time>
      </trkpt>
      <trkpt lat="40.281800" lon="-4.886317">
        <ele>1560.0</ele>
        <time>2018-09-15T12:54:31Z</time>
      </trkpt>
      <trkpt lat="40.281750" lon="-4.886283">
        <ele>1562.0</ele>
        <time>2018-09-15T12:54:32Z</time>
      </trkpt>
      <trkpt lat="40.281700" lon="-4.886283">
        <ele>1563.0</ele>
        <time>2018-09-15T12:54:33Z</time>
      </trkpt>
      <trkpt lat="40.281650" lon="-4.886300">
        <ele>1565.0</ele>
        <time>2018-09-15T12:54:34Z</time>
      </trkpt>
      <trkpt lat="40.281583" lon="-4.886367">
        <ele>1563.0</ele>
        <time>2018-09-15T12:54:35Z</time>
      </trkpt>
      <trkpt lat="40.281517" lon="-4.886483">
        <ele>1563.0</ele>
        <time>2018-09-15T12:54:36Z</time>
      </trkpt>
      <trkpt lat="40.281467" lon="-4.886633">
        <ele>1564.0</ele>
        <time>2018-09-15T12:54:37Z</time>
      </trkpt>
      <trkpt lat="40.281483" lon="-4.886800">
        <ele>1565.0</ele>
        <time>2018-09-15T12:54:38Z</time>
      </trkpt>
      <trkpt lat="40.281517" lon="-4.886950">
        <ele>1566.0</ele>
        <time>2018-09-15T12:54:39Z</time>
      </trkpt>
      <trkpt lat="40.281600" lon="-4.887067">
        <ele>1568.0</ele>
        <time>2018-09-15T12:54:40Z</time>
      </trkpt>
      <trkpt lat="40.281700" lon="-4.887167">
        <ele>1570.0</ele>
        <time>2018-09-15T12:54:41Z</time>
      </trkpt>
      <trkpt lat="40.281800" lon="-4.887217">
        <ele>1570.0</ele>
        <time>2018-09-15T12:54:42Z</time>
      </trkpt>
      <trkpt lat="40.281900" lon="-4.887233">
        <ele>1571.0</ele>
        <time>2018-09-15T12:54:43Z</time>
      </trkpt>
      <trkpt lat="40.282000" lon="-4.887200">
        <ele>1572.0</ele>
        <time>2018-09-15T12:54:44Z</time>
      </trkpt>
      <trkpt lat="40.282050" lon="-4.887117">
        <ele>1573.0</ele>
        <time>2018-09-15T12:54:45Z</time>
      </trkpt>
      <trkpt lat="40.282050" lon="-4.887067">
        <ele>1574.0</ele>
        <time>2018-09-15T12:54:46Z</time>
      </trkpt>
      <trkpt lat="40.282017" lon="-4.887050">
        <ele>1573.0</ele>
        <time>2018-09-15T12:54:47Z</time>
      </trkpt>
      <trkpt lat="40.281967" lon="-4.887050">
        <ele>1573.0</ele>
        <time>2018-09-15T12:54:48Z</time>
      </trkpt>
      <trkpt lat="40.281933" lon="-4.887050">
        <ele>1573.0</ele>
        <time>2018-09-15T12:54:49Z</time>
      </trkpt>
      <trkpt lat="40.281900" lon="-4.887033">
        <ele>1573.0</ele>
        <time>2018-09-15T12:54:50Z</time>
      </trkpt>
      <trkpt lat="40.281867" lon="-4.887000">
        <ele>1573.0</ele>
        <time>2018-09-15T12:54:51Z</time>
      </trkpt>
      <trkpt lat="40.281833" lon="-4.886967">
        <ele>1574.0</ele>
        <time>2018-09-15T12:54:52Z</time>
      </trkpt>
      <trkpt lat="40.281800" lon="-4.886950">
        <ele>1574.0</ele>
        <time>2018-09-15T12:54:53Z</time>
      </trkpt>
      <trkpt lat="40.281750" lon="-4.886933">
        <ele>1575.0</ele>
        <time>2018-09-15T12:54:54Z</time>
      </trkpt>
      <trkpt lat="40.281700" lon="-4.886933">
        <ele>1575.0</ele>
        <time>2018-09-15T12:54:55Z</time>
      </trkpt>
      <trkpt lat="40.281667" lon="-4.886933">
        <ele>1575.0</ele>
        <time>2018-09-15T12:54:56Z</time>
      </trkpt>
      <trkpt lat="40.281617" lon="-4.886933">
        <ele>1575.0</ele>
        <time>2018-09-15T12:54:57Z</time>
      </trkpt>
      <trkpt lat="40.281567" lon="-4.886900">
        <ele>1574.0</ele>
        <time>2018-09-15T12:54:58Z</time>
      </trkpt>
      <trkpt lat="40.281550" lon="-4.886850">
        <ele>1573.0</ele>
        <time>2018-09-15T12:54:59Z</time>
      </trkpt>
      <trkpt lat="40.281533" lon="-4.886783">
        <ele>1572.0</ele>
        <time>2018-09-15T12:55:00Z</time>
      </trkpt>
      <trkpt lat="40.281533" lon="-4.886700">
        <ele>1570.0</ele>
        <time>2018-09-15T12:55:01Z</time>
      </trkpt>
      <trkpt lat="40.281533" lon="-4.886617">
        <ele>1568.0</ele>
        <time>2018-09-15T12:55:02Z</time>
      </trkpt>
      <trkpt lat="40.281533" lon="-4.886533">
        <ele>1567.0</ele>
        <time>2018-09-15T12:55:03Z</time>
      </trkpt>
      <trkpt lat="40.281550" lon="-4.886450">
        <ele>1566.0</ele>
        <time>2018-09-15T12:55:04Z</time>
      </trkpt>
      <trkpt lat="40.281583" lon="-4.886367">
        <ele>1567.0</ele>
        <time>2018-09-15T12:55:05Z</time>
      </trkpt>
      <trkpt lat="40.281617" lon="-4.886267">
        <ele>1567.0</ele>
        <time>2018-09-15T12:55:06Z</time>
      </trkpt>
      <trkpt lat="40.281650" lon="-4.886183">
        <ele>1566.0</ele>
        <time>2018-09-15T12:55:07Z</time>
      </trkpt>
      <trkpt lat="40.281683" lon="-4.886083">
        <ele>1566.0</ele>
        <time>2018-09-15T12:55:08Z</time>
      </trkpt>
      <trkpt lat="40.281717" lon="-4.886017">
        <ele>1566.0</ele>
        <time>2018-09-15T12:55:09Z</time>
      </trkpt>
      <trkpt lat="40.281767" lon="-4.885967">
        <ele>1568.0</ele>
        <time>2018-09-15T12:55:10Z</time>
      </trkpt>
      <trkpt lat="40.281817" lon="-4.885933">
        <ele>1569.0</ele>
        <time>2018-09-15T12:55:11Z</time>
      </trkpt>
      <trkpt lat="40.281883" lon="-4.885883">
        <ele>1568.0</ele>
        <time>2018-09-15T12:55:12Z</time>
      </trkpt>
      <trkpt lat="40.281950" lon="-4.885833">
        <ele>1567.0</ele>
        <time>2018-09-15T12:55:13Z</time>
      </trkpt>
      <trkpt lat="40.282033" lon="-4.885767">
        <ele>1567.0</ele>
        <time>2018-09-15T12:55:14Z</time>
      </trkpt>
      <trkpt lat="40.282117" lon="-4.885717">
        <ele>1566.0</ele>
        <time>2018-09-15T12:55:15Z</time>
      </trkpt>
      <trkpt lat="40.282217" lon="-4.885683">
        <ele>1566.0</ele>
        <time>2018-09-15T12:55:16Z</time>
      </trkpt>
      <trkpt lat="40.282283" lon="-4.885667">
        <ele>1565.0</ele>
        <time>2018-09-15T12:55:17Z</time>
      </trkpt>
      <trkpt lat="40.282350" lon="-4.885667">
        <ele>1564.0</ele>
        <time>2018-09-15T12:55:18Z</time>
      </trkpt>
      <trkpt lat="40.282433" lon="-4.885650">
        <ele>1562.0</ele>
        <time>2018-09-15T12:55:19Z</time>
      </trkpt>
      <trkpt lat="40.282517" lon="-4.885600">
        <ele>1561.0</ele>
        <time>2018-09-15T12:55:20Z</time>
      </trkpt>
      <trkpt lat="40.282583" lon="-4.885533">
        <ele>1559.0</ele>
        <time>2018-09-15T12:55:21Z</time>
      </trkpt>
      <trkpt lat="40.282617" lon="-4.885467">
        <ele>1558.0</ele>
        <time>2018-09-15T12:55:22Z</time>
      </trkpt>
      <trkpt lat="40.282600" lon="-4.885400">
        <ele>1557.0</ele>
        <time>2018-09-15T12:55:23Z</time>
      </trkpt>
      <trkpt lat="40.282550" lon="-4.885350">
        <ele>1556.0</ele>
        <time>2018-09-15T12:55:24Z</time>
      </trkpt>
      <trkpt lat="40.282500" lon="-4.885333">
        <ele>1555.0</ele>
        <time>2018-09-15T12:55:25Z</time>
      </trkpt>
      <trkpt lat="40.282450" lon="-4.885317">
        <ele>1554.0</ele>
        <time>2018-09-15T12:55:26Z</time>
      </trkpt>
      <trkpt lat="40.282383" lon="-4.885317">
        <ele>1554.0</ele>
        <time>2018-09-15T12:55:27Z</time>
      </trkpt>
      <trkpt lat="40.282333" lon="-4.885300">
        <ele>1555.0</ele>
        <time>2018-09-15T12:55:28Z</time>
      </trkpt>
      <trkpt lat="40.282267" lon="-4.885283">
        <ele>1555.0</ele>
        <time>2018-09-15T12:55:29Z</time>
      </trkpt>
      <trkpt lat="40.282217" lon="-4.885267">
        <ele>1556.0</ele>
        <time>2018-09-15T12:55:30Z</time>
      </trkpt>
      <trkpt lat="40.282183" lon="-4.885250">
        <ele>1556.0</ele>
        <time>2018-09-15T12:55:31Z</time>
      </trkpt>
      <trkpt lat="40.282133" lon="-4.885233">
        <ele>1556.0</ele>
        <time>2018-09-15T12:55:32Z</time>
      </trkpt>
      <trkpt lat="40.282083" lon="-4.885217">
        <ele>1555.0</ele>
        <time>2018-09-15T12:55:33Z</time>
      </trkpt>
      <trkpt lat="40.282033" lon="-4.885217">
        <ele>1555.0</ele>
        <time>2018-09-15T12:55:34Z</time>
      </trkpt>
      <trkpt lat="40.281983" lon="-4.885217">
        <ele>1554.0</ele>
        <time>2018-09-15T12:55:35Z</time>
      </trkpt>
      <trkpt lat="40.281917" lon="-4.885217">
        <ele>1553.0</ele>
        <time>2018-09-15T12:55:36Z</time>
      </trkpt>
      <trkpt lat="40.281833" lon="-4.885250">
        <ele>1551.0</ele>
        <time>2018-09-15T12:55:37Z</time>
      </trkpt>
      <trkpt lat="40.281767" lon="-4.885317">
        <ele>1550.0</ele>
        <time>2018-09-15T12:55:38Z</time>
      </trkpt>
      <trkpt lat="40.281700" lon="-4.885400">
        <ele>1549.0</ele>
        <time>2018-09-15T12:55:39Z</time>
      </trkpt>
      <trkpt lat="40.281633" lon="-4.885517">
        <ele>1547.0</ele>
        <time>2018-09-15T12:55:40Z</time>
      </trkpt>
      <trkpt lat="40.281567" lon="-4.885633">
        <ele>1545.0</ele>
        <time>2018-09-15T12:55:41Z</time>
      </trkpt>
      <trkpt lat="40.281517" lon="-4.885767">
        <ele>1543.0</ele>
        <time>2018-09-15T12:55:42Z</time>
      </trkpt>
      <trkpt lat="40.281467" lon="-4.885883">
        <ele>1541.0</ele>
        <time>2018-09-15T12:55:43Z</time>
      </trkpt>
      <trkpt lat="40.281417" lon="-4.886017">
        <ele>1540.0</ele>
        <time>2018-09-15T12:55:44Z</time>
      </trkpt>
      <trkpt lat="40.281367" lon="-4.886150">
        <ele>1538.0</ele>
        <time>2018-09-15T12:55:45Z</time>
      </trkpt>
      <trkpt lat="40.281300" lon="-4.886267">
        <ele>1537.0</ele>
        <time>2018-09-15T12:55:46Z</time>
      </trkpt>
      <trkpt lat="40.281233" lon="-4.886383">
        <ele>1536.0</ele>
        <time>2018-09-15T12:55:47Z</time>
      </trkpt>
      <trkpt lat="40.281183" lon="-4.886500">
        <ele>1538.0</ele>
        <time>2018-09-15T12:55:48Z</time>
      </trkpt>
      <trkpt lat="40.281133" lon="-4.886583">
        <ele>1540.0</ele>
        <time>2018-09-15T12:55:49Z</time>
      </trkpt>
      <trkpt lat="40.281083" lon="-4.886667">
        <ele>1542.0</ele>
        <time>2018-09-15T12:55:50Z</time>
      </trkpt>
      <trkpt lat="40.281033" lon="-4.886733">
        <ele>1543.0</ele>
        <time>2018-09-15T12:55:51Z</time>
      </trkpt>
      <trkpt lat="40.280967" lon="-4.886833">
        <ele>1543.0</ele>
        <time>2018-09-15T12:55:52Z</time>
      </trkpt>
      <trkpt lat="40.280900" lon="-4.886933">
        <ele>1543.0</ele>
        <time>2018-09-15T12:55:53Z</time>
      </trkpt>
      <trkpt lat="40.280833" lon="-4.887017">
        <ele>1544.0</ele>
        <time>2018-09-15T12:55:54Z</time>
      </trkpt>
      <trkpt lat="40.280783" lon="-4.887083">
        <ele>1545.0</ele>
        <time>2018-09-15T12:55:55Z</time>
      </trkpt>
      <trkpt lat="40.280733" lon="-4.887150">
        <ele>1547.0</ele>
        <time>2018-09-15T12:55:56Z</time>
      </trkpt>
      <trkpt lat="40.280667" lon="-4.887217">
        <ele>1548.0</ele>
        <time>2018-09-15T12:55:57Z</time>
      </trkpt>
      <trkpt lat="40.280617" lon="-4.887283">
        <ele>1549.0</ele>
        <time>2018-09-15T12:55:58Z</time>
      </trkpt>
      <trkpt lat="40.280550" lon="-4.887383">
        <ele>1550.0</ele>
        <time>2018-09-15T12:55:59Z</time>
      </trkpt>
      <trkpt lat="40.280500" lon="-4.887483">
        <ele>1551.0</ele>
        <time>2018-09-15T12:56:00Z</time>
      </trkpt>
      <trkpt lat="40.280433" lon="-4.887567">
        <ele>1552.0</ele>
        <time>2018-09-15T12:56:01Z</time>
      </trkpt>
      <trkpt lat="40.280383" lon="-4.887633">
        <ele>1553.0</ele>
        <time>2018-09-15T12:56:02Z</time>
      </trkpt>
      <trkpt lat="40.280317" lon="-4.887700">
        <ele>1554.0</ele>
        <time>2018-09-15T12:56:03Z</time>
      </trkpt>
      <trkpt lat="40.280267" lon="-4.887783">
        <ele>1556.0</ele>
        <time>2018-09-15T12:56:04Z</time>
      </trkpt>
      <trkpt lat="40.280200" lon="-4.887867">
        <ele>1557.0</ele>
        <time>2018-09-15T12:56:05Z</time>
      </trkpt>
      <trkpt lat="40.280133" lon="-4.887950">
        <ele>1558.0</ele>
        <time>2018-09-15T12:56:06Z</time>
      </trkpt>
      <trkpt lat="40.280067" lon="-4.888033">
        <ele>1558.0</ele>
        <time>2018-09-15T12:56:07Z</time>
      </trkpt>
      <trkpt lat="40.280000" lon="-4.888117">
        <ele>1559.0</ele>
        <time>2018-09-15T12:56:08Z</time>
      </trkpt>
      <trkpt lat="40.279950" lon="-4.888217">
        <ele>1560.0</ele>
        <time>2018-09-15T12:56:09Z</time>
      </trkpt>
      <trkpt lat="40.279900" lon="-4.888317">
        <ele>1561.0</ele>
        <time>2018-09-15T12:56:10Z</time>
      </trkpt>
      <trkpt lat="40.279850" lon="-4.888433">
        <ele>1561.0</ele>
        <time>2018-09-15T12:56:11Z</time>
      </trkpt>
      <trkpt lat="40.279800" lon="-4.888550">
        <ele>1562.0</ele>
        <time>2018-09-15T12:56:12Z</time>
      </trkpt>
      <trkpt lat="40.279733" lon="-4.888667">
        <ele>1562.0</ele>
        <time>2018-09-15T12:56:13Z</time>
      </trkpt>
      <trkpt lat="40.279683" lon="-4.888800">
        <ele>1562.0</ele>
        <time>2018-09-15T12:56:14Z</time>
      </trkpt>
      <trkpt lat="40.279633" lon="-4.888917">
        <ele>1562.0</ele>
        <time>2018-09-15T12:56:15Z</time>
      </trkpt>
      <trkpt lat="40.279583" lon="-4.889050">
        <ele>1564.0</ele>
        <time>2018-09-15T12:56:16Z</time>
      </trkpt>
      <trkpt lat="40.279533" lon="-4.889183">
        <ele>1566.0</ele>
        <time>2018-09-15T12:56:17Z</time>
      </trkpt>
      <trkpt lat="40.279483" lon="-4.889317">
        <ele>1568.0</ele>
        <time>2018-09-15T12:56:18Z</time>
      </trkpt>
      <trkpt lat="40.279433" lon="-4.889467">
        <ele>1569.0</ele>
        <time>2018-09-15T12:56:19Z</time>
      </trkpt>
      <trkpt lat="40.279400" lon="-4.889600">
        <ele>1570.0</ele>
        <time>2018-09-15T12:56:20Z</time>
      </trkpt>
      <trkpt lat="40.279350" lon="-4.889733">
        <ele>1571.0</ele>
        <time>2018-09-15T12:56:21Z</time>
      </trkpt>
      <trkpt lat="40.279317" lon="-4.889867">
        <ele>1572.0</ele>
        <time>2018-09-15T12:56:22Z</time>
      </trkpt>
      <trkpt lat="40.279283" lon="-4.890000">
        <ele>1572.0</ele>
        <time>2018-09-15T12:56:23Z</time>
      </trkpt>
      <trkpt lat="40.279250" lon="-4.890150">
        <ele>1570.0</ele>
        <time>2018-09-15T12:56:24Z</time>
      </trkpt>
      <trkpt lat="40.279217" lon="-4.890283">
        <ele>1570.0</ele>
        <time>2018-09-15T12:56:25Z</time>
      </trkpt>
      <trkpt lat="40.279183" lon="-4.890417">
        <ele>1570.0</ele>
        <time>2018-09-15T12:56:26Z</time>
      </trkpt>
      <trkpt lat="40.279150" lon="-4.890550">
        <ele>1570.0</ele>
        <time>2018-09-15T12:56:27Z</time>
      </trkpt>
      <trkpt lat="40.279133" lon="-4.890700">
        <ele>1570.0</ele>
        <time>2018-09-15T12:56:28Z</time>
      </trkpt>
      <trkpt lat="40.279100" lon="-4.890833">
        <ele>1570.0</ele>
        <time>2018-09-15T12:56:29Z</time>
      </trkpt>
      <trkpt lat="40.279083" lon="-4.890967">
        <ele>1571.0</ele>
        <time>2018-09-15T12:56:30Z</time>
      </trkpt>
      <trkpt lat="40.279050" lon="-4.891117">
        <ele>1571.0</ele>
        <time>2018-09-15T12:56:31Z</time>
      </trkpt>
      <trkpt lat="40.279033" lon="-4.891267">
        <ele>1571.0</ele>
        <time>2018-09-15T12:56:32Z</time>
      </trkpt>
      <trkpt lat="40.279017" lon="-4.891417">
        <ele>1571.0</ele>
        <time>2018-09-15T12:56:33Z</time>
      </trkpt>
      <trkpt lat="40.279000" lon="-4.891583">
        <ele>1571.0</ele>
        <time>2018-09-15T12:56:34Z</time>
      </trkpt>
      <trkpt lat="40.279000" lon="-4.891750">
        <ele>1571.0</ele>
        <time>2018-09-15T12:56:35Z</time>
      </trkpt>
      <trkpt lat="40.279017" lon="-4.891933">
        <ele>1571.0</ele>
        <time>2018-09-15T12:56:36Z</time>
      </trkpt>
      <trkpt lat="40.279017" lon="-4.892100">
        <ele>1572.0</ele>
        <time>2018-09-15T12:56:37Z</time>
      </trkpt>
      <trkpt lat="40.279017" lon="-4.892267">
        <ele>1572.0</ele>
        <time>2018-09-15T12:56:38Z</time>
      </trkpt>
      <trkpt lat="40.279033" lon="-4.892433">
        <ele>1572.0</ele>
        <time>2018-09-15T12:56:39Z</time>
      </trkpt>
      <trkpt lat="40.279050" lon="-4.892583">
        <ele>1573.0</ele>
        <time>2018-09-15T12:56:40Z</time>
      </trkpt>
      <trkpt lat="40.279050" lon="-4.892750">
        <ele>1571.0</ele>
        <time>2018-09-15T12:56:41Z</time>
      </trkpt>
      <trkpt lat="40.279067" lon="-4.892917">
        <ele>1571.0</ele>
        <time>2018-09-15T12:56:42Z</time>
      </trkpt>
      <trkpt lat="40.279083" lon="-4.893067">
        <ele>1570.0</ele>
        <time>2018-09-15T12:56:43Z</time>
      </trkpt>
      <trkpt lat="40.279083" lon="-4.893233">
        <ele>1569.0</ele>
        <time>2018-09-15T12:56:44Z</time>
      </trkpt>
      <trkpt lat="40.279083" lon="-4.893383">
        <ele>1568.0</ele>
        <time>2018-09-15T12:56:45Z</time>
      </trkpt>
      <trkpt lat="40.279083" lon="-4.893550">
        <ele>1566.0</ele>
        <time>2018-09-15T12:56:46Z</time>
      </trkpt>
      <trkpt lat="40.279067" lon="-4.893700">
        <ele>1565.0</ele>
        <time>2018-09-15T12:56:47Z</time>
      </trkpt>
      <trkpt lat="40.279050" lon="-4.893850">
        <ele>1564.0</ele>
        <time>2018-09-15T12:56:48Z</time>
      </trkpt>
      <trkpt lat="40.279033" lon="-4.894000">
        <ele>1562.0</ele>
        <time>2018-09-15T12:56:49Z</time>
      </trkpt>
      <trkpt lat="40.279000" lon="-4.894133">
        <ele>1560.0</ele>
        <time>2018-09-15T12:56:50Z</time>
      </trkpt>
      <trkpt lat="40.278933" lon="-4.894267">
        <ele>1558.0</ele>
        <time>2018-09-15T12:56:51Z</time>
      </trkpt>
      <trkpt lat="40.278867" lon="-4.894350">
        <ele>1556.0</ele>
        <time>2018-09-15T12:56:52Z</time>
      </trkpt>
      <trkpt lat="40.278783" lon="-4.894367">
        <ele>1554.0</ele>
        <time>2018-09-15T12:56:53Z</time>
      </trkpt>
      <trkpt lat="40.278717" lon="-4.894333">
        <ele>1551.0</ele>
        <time>2018-09-15T12:56:54Z</time>
      </trkpt>
      <trkpt lat="40.278667" lon="-4.894267">
        <ele>1548.0</ele>
        <time>2018-09-15T12:56:55Z</time>
      </trkpt>
      <trkpt lat="40.278650" lon="-4.894217">
        <ele>1545.0</ele>
        <time>2018-09-15T12:56:56Z</time>
      </trkpt>
      <trkpt lat="40.278633" lon="-4.894133">
        <ele>1543.0</ele>
        <time>2018-09-15T12:56:57Z</time>
      </trkpt>
      <trkpt lat="40.278633" lon="-4.894050">
        <ele>1542.0</ele>
        <time>2018-09-15T12:56:58Z</time>
      </trkpt>
      <trkpt lat="40.278600" lon="-4.894000">
        <ele>1540.0</ele>
        <time>2018-09-15T12:56:59Z</time>
      </trkpt>
      <trkpt lat="40.278583" lon="-4.893950">
        <ele>1540.0</ele>
        <time>2018-09-15T12:57:00Z</time>
      </trkpt>
      <trkpt lat="40.278567" lon="-4.893917">
        <ele>1539.0</ele>
        <time>2018-09-15T12:57:01Z</time>
      </trkpt>
      <trkpt lat="40.278583" lon="-4.893867">
        <ele>1537.0</ele>
        <time>2018-09-15T12:57:02Z</time>
      </trkpt>
      <trkpt lat="40.278583" lon="-4.893783">
        <ele>1534.0</ele>
        <time>2018-09-15T12:57:03Z</time>
      </trkpt>
      <trkpt lat="40.278583" lon="-4.893700">
        <ele>1529.0</ele>
        <time>2018-09-15T12:57:04Z</time>
      </trkpt>
      <trkpt lat="40.278533" lon="-4.893633">
        <ele>1525.0</ele>
        <time>2018-09-15T12:57:05Z</time>
      </trkpt>
      <trkpt lat="40.278483" lon="-4.893583">
        <ele>1522.0</ele>
        <time>2018-09-15T12:57:06Z</time>
      </trkpt>
      <trkpt lat="40.278433" lon="-4.893567">
        <ele>1521.0</ele>
        <time>2018-09-15T12:57:07Z</time>
      </trkpt>
      <trkpt lat="40.278383" lon="-4.893533">
        <ele>1520.0</ele>
        <time>2018-09-15T12:57:08Z</time>
      </trkpt>
      <trkpt lat="40.278333" lon="-4.893517">
        <ele>1519.0</ele>
        <time>2018-09-15T12:57:09Z</time>
      </trkpt>
      <trkpt lat="40.278283" lon="-4.893467">
        <ele>1516.0</ele>
        <time>2018-09-15T12:57:10Z</time>
      </trkpt>
      <trkpt lat="40.278233" lon="-4.893417">
        <ele>1514.0</ele>
        <time>2018-09-15T12:57:11Z</time>
      </trkpt>
      <trkpt lat="40.278183" lon="-4.893383">
        <ele>1512.0</ele>
        <time>2018-09-15T12:57:12Z</time>
      </trkpt>
      <trkpt lat="40.278117" lon="-4.893350">
        <ele>1510.0</ele>
        <time>2018-09-15T12:57:13Z</time>
      </trkpt>
      <trkpt lat="40.278050" lon="-4.893317">
        <ele>1512.0</ele>
        <time>2018-09-15T12:57:14Z</time>
      </trkpt>
      <trkpt lat="40.277983" lon="-4.893267">
        <ele>1512.0</ele>
        <time>2018-09-15T12:57:15Z</time>
      </trkpt>
      <trkpt lat="40.277933" lon="-4.893200">
        <ele>1511.0</ele>
        <time>2018-09-15T12:57:16Z</time>
      </trkpt>
      <trkpt lat="40.277867" lon="-4.893167">
        <ele>1510.0</ele>
        <time>2018-09-15T12:57:17Z</time>
      </trkpt>
      <trkpt lat="40.277800" lon="-4.893133">
        <ele>1509.0</ele>
        <time>2018-09-15T12:57:18Z</time>
      </trkpt>
      <trkpt lat="40.277733" lon="-4.893117">
        <ele>1509.0</ele>
        <time>2018-09-15T12:57:19Z</time>
      </trkpt>
      <trkpt lat="40.277667" lon="-4.893100">
        <ele>1509.0</ele>
        <time>2018-09-15T12:57:20Z</time>
      </trkpt>
      <trkpt lat="40.277583" lon="-4.893067">
        <ele>1507.0</ele>
        <time>2018-09-15T12:57:21Z</time>
      </trkpt>
      <trkpt lat="40.277517" lon="-4.893000">
        <ele>1506.0</ele>
        <time>2018-09-15T12:57:22Z</time>
      </trkpt>
      <trkpt lat="40.277433" lon="-4.892950">
        <ele>1505.0</ele>
        <time>2018-09-15T12:57:23Z</time>
      </trkpt>
      <trkpt lat="40.277367" lon="-4.892917">
        <ele>1506.0</ele>
        <time>2018-09-15T12:57:24Z</time>
      </trkpt>
      <trkpt lat="40.277300" lon="-4.892900">
        <ele>1508.0</ele>
        <time>2018-09-15T12:57:25Z</time>
      </trkpt>
      <trkpt lat="40.277250" lon="-4.892917">
        <ele>1509.0</ele>
        <time>2018-09-15T12:57:26Z</time>
      </trkpt>
      <trkpt lat="40.277200" lon="-4.892917">
        <ele>1509.0</ele>
        <time>2018-09-15T12:57:27Z</time>
      </trkpt>
      <trkpt lat="40.277150" lon="-4.892917">
        <ele>1508.0</ele>
        <time>2018-09-15T12:57:28Z</time>
      </trkpt>
      <trkpt lat="40.277083" lon="-4.892883">
        <ele>1505.0</ele>
        <time>2018-09-15T12:57:29Z</time>
      </trkpt>
      <trkpt lat="40.277033" lon="-4.892850">
        <ele>1503.0</ele>
        <time>2018-09-15T12:57:30Z</time>
      </trkpt>
      <trkpt lat="40.276967" lon="-4.892833">
        <ele>1504.0</ele>
        <time>2018-09-15T12:57:31Z</time>
      </trkpt>
      <trkpt lat="40.276950" lon="-4.892833">
        <ele>1508.0</ele>
        <time>2018-09-15T12:57:32Z</time>
      </trkpt>
      <trkpt lat="40.276917" lon="-4.892833">
        <ele>1509.0</ele>
        <time>2018-09-15T12:57:33Z</time>
      </trkpt>
      <trkpt lat="40.276883" lon="-4.892817">
        <ele>1510.0</ele>
        <time>2018-09-15T12:57:34Z</time>
      </trkpt>
      <trkpt lat="40.276833" lon="-4.892783">
        <ele>1509.0</ele>
        <time>2018-09-15T12:57:35Z</time>
      </trkpt>
      <trkpt lat="40.276800" lon="-4.892717">
        <ele>1508.0</ele>
        <time>2018-09-15T12:57:36Z</time>
      </trkpt>
      <trkpt lat="40.276750" lon="-4.892650">
        <ele>1508.0</ele>
        <time>2018-09-15T12:57:37Z</time>
      </trkpt>
      <trkpt lat="40.276700" lon="-4.892600">
        <ele>1509.0</ele>
        <time>2018-09-15T12:57:38Z</time>
      </trkpt>
      <trkpt lat="40.276650" lon="-4.892567">
        <ele>1510.0</ele>
        <time>2018-09-15T12:57:39Z</time>
      </trkpt>
      <trkpt lat="40.276600" lon="-4.892567">
        <ele>1512.0</ele>
        <time>2018-09-15T12:57:40Z</time>
      </trkpt>
      <trkpt lat="40.276550" lon="-4.892550">
        <ele>1512.0</ele>
        <time>2018-09-15T12:57:41Z</time>
      </trkpt>
      <trkpt lat="40.276483" lon="-4.892533">
        <ele>1513.0</ele>
        <time>2018-09-15T12:57:42Z</time>
      </trkpt>
      <trkpt lat="40.276433" lon="-4.892483">
        <ele>1513.0</ele>
        <time>2018-09-15T12:57:43Z</time>
      </trkpt>
      <trkpt lat="40.276367" lon="-4.892450">
        <ele>1513.0</ele>
        <time>2018-09-15T12:57:44Z</time>
      </trkpt>
      <trkpt lat="40.276317" lon="-4.892433">
        <ele>1515.0</ele>
        <time>2018-09-15T12:57:45Z</time>
      </trkpt>
      <trkpt lat="40.276267" lon="-4.892433">
        <ele>1517.0</ele>
        <time>2018-09-15T12:57:46Z</time>
      </trkpt>
      <trkpt lat="40.276217" lon="-4.892450">
        <ele>1519.0</ele>
        <time>2018-09-15T12:57:47Z</time>
      </trkpt>
      <trkpt lat="40.276167" lon="-4.892467">
        <ele>1521.0</ele>
        <time>2018-09-15T12:57:48Z</time>
      </trkpt>
      <trkpt lat="40.276117" lon="-4.892467">
        <ele>1521.0</ele>
        <time>2018-09-15T12:57:49Z</time>
      </trkpt>
      <trkpt lat="40.276050" lon="-4.892450">
        <ele>1521.0</ele>
        <time>2018-09-15T12:57:50Z</time>
      </trkpt>
      <trkpt lat="40.275983" lon="-4.892433">
        <ele>1521.0</ele>
        <time>2018-09-15T12:57:51Z</time>
      </trkpt>
      <trkpt lat="40.275933" lon="-4.892417">
        <ele>1522.0</ele>
        <time>2018-09-15T12:57:52Z</time>
      </trkpt>
      <trkpt lat="40.275883" lon="-4.892400">
        <ele>1522.0</ele>
        <time>2018-09-15T12:57:53Z</time>
      </trkpt>
      <trkpt lat="40.275850" lon="-4.892383">
        <ele>1522.0</ele>
        <time>2018-09-15T12:57:54Z</time>
      </trkpt>
      <trkpt lat="40.275783" lon="-4.892383">
        <ele>1522.0</ele>
        <time>2018-09-15T12:57:55Z</time>
      </trkpt>
      <trkpt lat="40.275717" lon="-4.892383">
        <ele>1521.0</ele>
        <time>2018-09-15T12:57:56Z</time>
      </trkpt>
      <trkpt lat="40.275633" lon="-4.892383">
        <ele>1520.0</ele>
        <time>2018-09-15T12:57:57Z</time>
      </trkpt>
      <trkpt lat="40.275567" lon="-4.892383">
        <ele>1521.0</ele>
        <time>2018-09-15T12:57:58Z</time>
      </trkpt>
      <trkpt lat="40.275517" lon="-4.892383">
        <ele>1523.0</ele>
        <time>2018-09-15T12:57:59Z</time>
      </trkpt>
      <trkpt lat="40.275467" lon="-4.892367">
        <ele>1524.0</ele>
        <time>2018-09-15T12:58:00Z</time>
      </trkpt>
      <trkpt lat="40.275417" lon="-4.892350">
        <ele>1526.0</ele>
        <time>2018-09-15T12:58:01Z</time>
      </trkpt>
      <trkpt lat="40.275367" lon="-4.892333">
        <ele>1526.0</ele>
        <time>2018-09-15T12:58:02Z</time>
      </trkpt>
      <trkpt lat="40.275283" lon="-4.892333">
        <ele>1525.0</ele>
        <time>2018-09-15T12:58:03Z</time>
      </trkpt>
      <trkpt lat="40.275217" lon="-4.892317">
        <ele>1525.0</ele>
        <time>2018-09-15T12:58:04Z</time>
      </trkpt>
      <trkpt lat="40.275150" lon="-4.892317">
        <ele>1525.0</ele>
        <time>2018-09-15T12:58:05Z</time>
      </trkpt>
      <trkpt lat="40.275083" lon="-4.892300">
        <ele>1526.0</ele>
        <time>2018-09-15T12:58:06Z</time>
      </trkpt>
      <trkpt lat="40.275000" lon="-4.892300">
        <ele>1528.0</ele>
        <time>2018-09-15T12:58:07Z</time>
      </trkpt>
      <trkpt lat="40.274933" lon="-4.892283">
        <ele>1529.0</ele>
        <time>2018-09-15T12:58:08Z</time>
      </trkpt>
      <trkpt lat="40.274850" lon="-4.892267">
        <ele>1530.0</ele>
        <time>2018-09-15T12:58:09Z</time>
      </trkpt>
      <trkpt lat="40.274783" lon="-4.892250">
        <ele>1531.0</ele>
        <time>2018-09-15T12:58:10Z</time>
      </trkpt>
      <trkpt lat="40.274700" lon="-4.892233">
        <ele>1532.0</ele>
        <time>2018-09-15T12:58:11Z</time>
      </trkpt>
      <trkpt lat="40.274600" lon="-4.892233">
        <ele>1533.0</ele>
        <time>2018-09-15T12:58:12Z</time>
      </trkpt>
      <trkpt lat="40.274517" lon="-4.892233">
        <ele>1534.0</ele>
        <time>2018-09-15T12:58:13Z</time>
      </trkpt>
      <trkpt lat="40.274433" lon="-4.892233">
        <ele>1536.0</ele>
        <time>2018-09-15T12:58:14Z</time>
      </trkpt>
      <trkpt lat="40.274350" lon="-4.892250">
        <ele>1539.0</ele>
        <time>2018-09-15T12:58:15Z</time>
      </trkpt>
      <trkpt lat="40.274267" lon="-4.892250">
        <ele>1540.0</ele>
        <time>2018-09-15T12:58:16Z</time>
      </trkpt>
      <trkpt lat="40.274200" lon="-4.892250">
        <ele>1542.0</ele>
        <time>2018-09-15T12:58:17Z</time>
      </trkpt>
      <trkpt lat="40.274117" lon="-4.892267">
        <ele>1543.0</ele>
        <time>2018-09-15T12:58:18Z</time>
      </trkpt>
      <trkpt lat="40.274050" lon="-4.892283">
        <ele>1544.0</ele>
        <time>2018-09-15T12:58:19Z</time>
      </trkpt>
      <trkpt lat="40.273967" lon="-4.892267">
        <ele>1545.0</ele>
        <time>2018-09-15T12:58:20Z</time>
      </trkpt>
      <trkpt lat="40.273917" lon="-4.892233">
        <ele>1545.0</ele>
        <time>2018-09-15T12:58:21Z</time>
      </trkpt>
      <trkpt lat="40.273900" lon="-4.892167">
        <ele>1543.0</ele>
        <time>2018-09-15T12:58:22Z</time>
      </trkpt>
      <trkpt lat="40.273917" lon="-4.892117">
        <ele>1542.0</ele>
        <time>2018-09-15T12:58:23Z</time>
      </trkpt>
      <trkpt lat="40.273967" lon="-4.892067">
        <ele>1540.0</ele>
        <time>2018-09-15T12:58:24Z</time>
      </trkpt>
      <trkpt lat="40.274033" lon="-4.892067">
        <ele>1538.0</ele>
        <time>2018-09-15T12:58:25Z</time>
      </trkpt>
      <trkpt lat="40.274133" lon="-4.892117">
        <ele>1536.0</ele>
        <time>2018-09-15T12:58:26Z</time>
      </trkpt>
      <trkpt lat="40.274200" lon="-4.892200">
        <ele>1535.0</ele>
        <time>2018-09-15T12:58:27Z</time>
      </trkpt>
      <trkpt lat="40.274250" lon="-4.892350">
        <ele>1534.0</ele>
        <time>2018-09-15T12:58:28Z</time>
      </trkpt>
      <trkpt lat="40.274283" lon="-4.892517">
        <ele>1534.0</ele>
        <time>2018-09-15T12:58:29Z</time>
      </trkpt>
      <trkpt lat="40.274267" lon="-4.892700">
        <ele>1534.0</ele>
        <time>2018-09-15T12:58:30Z</time>
      </trkpt>
      <trkpt lat="40.274233" lon="-4.892867">
        <ele>1533.0</ele>
        <time>2018-09-15T12:58:31Z</time>
      </trkpt>
      <trkpt lat="40.274167" lon="-4.893033">
        <ele>1533.0</ele>
        <time>2018-09-15T12:58:32Z</time>
      </trkpt>
      <trkpt lat="40.274100" lon="-4.893167">
        <ele>1534.0</ele>
        <time>2018-09-15T12:58:33Z</time>
      </trkpt>
      <trkpt lat="40.274000" lon="-4.893267">
        <ele>1535.0</ele>
        <time>2018-09-15T12:58:34Z</time>
      </trkpt>
      <trkpt lat="40.273917" lon="-4.893333">
        <ele>1536.0</ele>
        <time>2018-09-15T12:58:35Z</time>
      </trkpt>
      <trkpt lat="40.273833" lon="-4.893400">
        <ele>1536.0</ele>
        <time>2018-09-15T12:58:36Z</time>
      </trkpt>
      <trkpt lat="40.273750" lon="-4.893433">
        <ele>1537.0</ele>
        <time>2018-09-15T12:58:37Z</time>
      </trkpt>
      <trkpt lat="40.273667" lon="-4.893450">
        <ele>1538.0</ele>
        <time>2018-09-15T12:58:38Z</time>
      </trkpt>
      <trkpt lat="40.273600" lon="-4.893483">
        <ele>1538.0</ele>
        <time>2018-09-15T12:58:39Z</time>
      </trkpt>
      <trkpt lat="40.273500" lon="-4.893500">
        <ele>1539.0</ele>
        <time>2018-09-15T12:58:40Z</time>
      </trkpt>
      <trkpt lat="40.273433" lon="-4.893533">
        <ele>1539.0</ele>
        <time>2018-09-15T12:58:41Z</time>
      </trkpt>
      <trkpt lat="40.273367" lon="-4.893567">
        <ele>1539.0</ele>
        <time>2018-09-15T12:58:42Z</time>
      </trkpt>
      <trkpt lat="40.273300" lon="-4.893583">
        <ele>1538.0</ele>
        <time>2018-09-15T12:58:43Z</time>
      </trkpt>
      <trkpt lat="40.273233" lon="-4.893600">
        <ele>1536.0</ele>
        <time>2018-09-15T12:58:44Z</time>
      </trkpt>
      <trkpt lat="40.273167" lon="-4.893617">
        <ele>1534.0</ele>
        <time>2018-09-15T12:58:45Z</time>
      </trkpt>
      <trkpt lat="40.273083" lon="-4.893633">
        <ele>1532.0</ele>
        <time>2018-09-15T12:58:46Z</time>
      </trkpt>
      <trkpt lat="40.273017" lon="-4.893617">
        <ele>1529.0</ele>
        <time>2018-09-15T12:58:47Z</time>
      </trkpt>
      <trkpt lat="40.272933" lon="-4.893600">
        <ele>1527.0</ele>
        <time>2018-09-15T12:58:48Z</time>
      </trkpt>
      <trkpt lat="40.272850" lon="-4.893567">
        <ele>1529.0</ele>
        <time>2018-09-15T12:58:49Z</time>
      </trkpt>
      <trkpt lat="40.272767" lon="-4.893567">
        <ele>1529.0</ele>
        <time>2018-09-15T12:58:50Z</time>
      </trkpt>
      <trkpt lat="40.272683" lon="-4.893583">
        <ele>1528.0</ele>
        <time>2018-09-15T12:58:51Z</time>
      </trkpt>
      <trkpt lat="40.272617" lon="-4.893583">
        <ele>1527.0</ele>
        <time>2018-09-15T12:58:52Z</time>
      </trkpt>
      <trkpt lat="40.272550" lon="-4.893583">
        <ele>1526.0</ele>
        <time>2018-09-15T12:58:53Z</time>
      </trkpt>
      <trkpt lat="40.272500" lon="-4.893550">
        <ele>1524.0</ele>
        <time>2018-09-15T12:58:54Z</time>
      </trkpt>
      <trkpt lat="40.272450" lon="-4.893533">
        <ele>1524.0</ele>
        <time>2018-09-15T12:58:55Z</time>
      </trkpt>
      <trkpt lat="40.272383" lon="-4.893533">
        <ele>1524.0</ele>
        <time>2018-09-15T12:58:56Z</time>
      </trkpt>
      <trkpt lat="40.272333" lon="-4.893550">
        <ele>1524.0</ele>
        <time>2018-09-15T12:58:57Z</time>
      </trkpt>
      <trkpt lat="40.272283" lon="-4.893550">
        <ele>1525.0</ele>
        <time>2018-09-15T12:58:58Z</time>
      </trkpt>
      <trkpt lat="40.272233" lon="-4.893567">
        <ele>1525.0</ele>
        <time>2018-09-15T12:58:59Z</time>
      </trkpt>
      <trkpt lat="40.272183" lon="-4.893550">
        <ele>1525.0</ele>
        <time>2018-09-15T12:59:00Z</time>
      </trkpt>
      <trkpt lat="40.272133" lon="-4.893550">
        <ele>1525.0</ele>
        <time>2018-09-15T12:59:01Z</time>
      </trkpt>
      <trkpt lat="40.272083" lon="-4.893533">
        <ele>1525.0</ele>
        <time>2018-09-15T12:59:02Z</time>
      </trkpt>
      <trkpt lat="40.272033" lon="-4.893517">
        <ele>1525.0</ele>
        <time>2018-09-15T12:59:03Z</time>
      </trkpt>
      <trkpt lat="40.272000" lon="-4.893500">
        <ele>1525.0</ele>
        <time>2018-09-15T12:59:04Z</time>
      </trkpt>
      <trkpt lat="40.271933" lon="-4.893500">
        <ele>1523.0</ele>
        <time>2018-09-15T12:59:05Z</time>
      </trkpt>
      <trkpt lat="40.271867" lon="-4.893483">
        <ele>1522.0</ele>
        <time>2018-09-15T12:59:06Z</time>
      </trkpt>
      <trkpt lat="40.271783" lon="-4.893467">
        <ele>1520.0</ele>
        <time>2018-09-15T12:59:07Z</time>
      </trkpt>
      <trkpt lat="40.271717" lon="-4.893450">
        <ele>1520.0</ele>
        <time>2018-09-15T12:59:08Z</time>
      </trkpt>
      <trkpt lat="40.271667" lon="-4.893417">
        <ele>1520.0</ele>
        <time>2018-09-15T12:59:09Z</time>
      </trkpt>
      <trkpt lat="40.271633" lon="-4.893400">
        <ele>1520.0</ele>
        <time>2018-09-15T12:59:10Z</time>
      </trkpt>
      <trkpt lat="40.271600" lon="-4.893400">
        <ele>1519.0</ele>
        <time>2018-09-15T12:59:11Z</time>
      </trkpt>
      <trkpt lat="40.271550" lon="-4.893383">
        <ele>1517.0</ele>
        <time>2018-09-15T12:59:12Z</time>
      </trkpt>
      <trkpt lat="40.271483" lon="-4.893350">
        <ele>1514.0</ele>
        <time>2018-09-15T12:59:13Z</time>
      </trkpt>
      <trkpt lat="40.271433" lon="-4.893317">
        <ele>1511.0</ele>
        <time>2018-09-15T12:59:14Z</time>
      </trkpt>
      <trkpt lat="40.271383" lon="-4.893300">
        <ele>1509.0</ele>
        <time>2018-09-15T12:59:15Z</time>
      </trkpt>
      <trkpt lat="40.271333" lon="-4.893283">
        <ele>1508.0</ele>
        <time>2018-09-15T12:59:16Z</time>
      </trkpt>
      <trkpt lat="40.271283" lon="-4.893283">
        <ele>1507.0</ele>
        <time>2018-09-15T12:59:17Z</time>
      </trkpt>
      <trkpt lat="40.271233" lon="-4.893283">
        <ele>1506.0</ele>
        <time>2018-09-15T12:59:18Z</time>
      </trkpt>
      <trkpt lat="40.271183" lon="-4.893267">
        <ele>1505.0</ele>
        <time>2018-09-15T12:59:19Z</time>
      </trkpt>
      <trkpt lat="40.271150" lon="-4.893250">
        <ele>1503.0</ele>
        <time>2018-09-15T12:59:20Z</time>
      </trkpt>
      <trkpt lat="40.271100" lon="-4.893217">
        <ele>1501.0</ele>
        <time>2018-09-15T12:59:21Z</time>
      </trkpt>
      <trkpt lat="40.271050" lon="-4.893183">
        <ele>1499.0</ele>
        <time>2018-09-15T12:59:22Z</time>
      </trkpt>
      <trkpt lat="40.271000" lon="-4.893133">
        <ele>1500.0</ele>
        <time>2018-09-15T12:59:23Z</time>
      </trkpt>
      <trkpt lat="40.270950" lon="-4.893100">
        <ele>1500.0</ele>
        <time>2018-09-15T12:59:24Z</time>
      </trkpt>
      <trkpt lat="40.270900" lon="-4.893067">
        <ele>1500.0</ele>
        <time>2018-09-15T12:59:25Z</time>
      </trkpt>
      <trkpt lat="40.270850" lon="-4.893033">
        <ele>1499.0</ele>
        <time>2018-09-15T12:59:26Z</time>
      </trkpt>
      <trkpt lat="40.270800" lon="-4.893017">
        <ele>1499.0</ele>
        <time>2018-09-15T12:59:27Z</time>
      </trkpt>
      <trkpt lat="40.270750" lon="-4.892983">
        <ele>1499.0</ele>
        <time>2018-09-15T12:59:28Z</time>
      </trkpt>
      <trkpt lat="40.270683" lon="-4.892983">
        <ele>1499.0</ele>
        <time>2018-09-15T12:59:29Z</time>
      </trkpt>
      <trkpt lat="40.270617" lon="-4.892967">
        <ele>1499.0</ele>
        <time>2018-09-15T12:59:30Z</time>
      </trkpt>
      <trkpt lat="40.270550" lon="-4.892950">
        <ele>1498.0</ele>
        <time>2018-09-15T12:59:31Z</time>
      </trkpt>
      <trkpt lat="40.270500" lon="-4.892933">
        <ele>1496.0</ele>
        <time>2018-09-15T12:59:32Z</time>
      </trkpt>
      <trkpt lat="40.270450" lon="-4.892933">
        <ele>1493.0</ele>
        <time>2018-09-15T12:59:33Z</time>
      </trkpt>
      <trkpt lat="40.270383" lon="-4.892933">
        <ele>1490.0</ele>
        <time>2018-09-15T12:59:34Z</time>
      </trkpt>
      <trkpt lat="40.270317" lon="-4.892933">
        <ele>1487.0</ele>
        <time>2018-09-15T12:59:35Z</time>
      </trkpt>
      <trkpt lat="40.270267" lon="-4.892917">
        <ele>1484.0</ele>
        <time>2018-09-15T12:59:36Z</time>
      </trkpt>
      <trkpt lat="40.270200" lon="-4.892900">
        <ele>1481.0</ele>
        <time>2018-09-15T12:59:37Z</time>
      </trkpt>
      <trkpt lat="40.270133" lon="-4.892900">
        <ele>1478.0</ele>
        <time>2018-09-15T12:59:38Z</time>
      </trkpt>
      <trkpt lat="40.270083" lon="-4.892883">
        <ele>1477.0</ele>
        <time>2018-09-15T12:59:39Z</time>
      </trkpt>
      <trkpt lat="40.270033" lon="-4.892883">
        <ele>1476.0</ele>
        <time>2018-09-15T12:59:40Z</time>
      </trkpt>
      <trkpt lat="40.269983" lon="-4.892867">
        <ele>1475.0</ele>
        <time>2018-09-15T12:59:41Z</time>
      </trkpt>
      <trkpt lat="40.269933" lon="-4.892850">
        <ele>1473.0</ele>
        <time>2018-09-15T12:59:42Z</time>
      </trkpt>
      <trkpt lat="40.269867" lon="-4.892833">
        <ele>1472.0</ele>
        <time>2018-09-15T12:59:43Z</time>
      </trkpt>
      <trkpt lat="40.269800" lon="-4.892817">
        <ele>1470.0</ele>
        <time>2018-09-15T12:59:44Z</time>
      </trkpt>
      <trkpt lat="40.269750" lon="-4.892800">
        <ele>1469.0</ele>
        <time>2018-09-15T12:59:45Z</time>
      </trkpt>
      <trkpt lat="40.269683" lon="-4.892783">
        <ele>1468.0</ele>
        <time>2018-09-15T12:59:46Z</time>
      </trkpt>
      <trkpt lat="40.269633" lon="-4.892767">
        <ele>1467.0</ele>
        <time>2018-09-15T12:59:47Z</time>
      </trkpt>
      <trkpt lat="40.269567" lon="-4.892733">
        <ele>1467.0</ele>
        <time>2018-09-15T12:59:48Z</time>
      </trkpt>
      <trkpt lat="40.269500" lon="-4.892717">
        <ele>1466.0</ele>
        <time>2018-09-15T12:59:49Z</time>
      </trkpt>
      <trkpt lat="40.269433" lon="-4.892700">
        <ele>1465.0</ele>
        <time>2018-09-15T12:59:50Z</time>
      </trkpt>
      <trkpt lat="40.269367" lon="-4.892667">
        <ele>1464.0</ele>
        <time>2018-09-15T12:59:51Z</time>
      </trkpt>
      <trkpt lat="40.269300" lon="-4.892650">
        <ele>1463.0</ele>
        <time>2018-09-15T12:59:52Z</time>
      </trkpt>
      <trkpt lat="40.269233" lon="-4.892633">
        <ele>1463.0</ele>
        <time>2018-09-15T12:59:53Z</time>
      </trkpt>
      <trkpt lat="40.269183" lon="-4.892617">
        <ele>1463.0</ele>
        <time>2018-09-15T12:59:54Z</time>
      </trkpt>
      <trkpt lat="40.269133" lon="-4.892617">
        <ele>1462.0</ele>
        <time>2018-09-15T12:59:55Z</time>
      </trkpt>
      <trkpt lat="40.269067" lon="-4.892617">
        <ele>1459.0</ele>
        <time>2018-09-15T12:59:56Z</time>
      </trkpt>
      <trkpt lat="40.269000" lon="-4.892617">
        <ele>1458.0</ele>
        <time>2018-09-15T12:59:57Z</time>
      </trkpt>
      <trkpt lat="40.268933" lon="-4.892600">
        <ele>1457.0</ele>
        <time>2018-09-15T12:59:58Z</time>
      </trkpt>
      <trkpt lat="40.268850" lon="-4.892583">
        <ele>1455.0</ele>
        <time>2018-09-15T12:59:59Z</time>
      </trkpt>
      <trkpt lat="40.268783" lon="-4.892533">
        <ele>1453.0</ele>
        <time>2018-09-15T13:00:00Z</time>
      </trkpt>
      <trkpt lat="40.268717" lon="-4.892500">
        <ele>1455.0</ele>
        <time>2018-09-15T13:00:01Z</time>
      </trkpt>
      <trkpt lat="40.268683" lon="-4.892467">
        <ele>1455.0</ele>
        <time>2018-09-15T13:00:02Z</time>
      </trkpt>
      <trkpt lat="40.268650" lon="-4.892467">
        <ele>1455.0</ele>
        <time>2018-09-15T13:00:03Z</time>
      </trkpt>
      <trkpt lat="40.268600" lon="-4.892467">
        <ele>1454.0</ele>
        <time>2018-09-15T13:00:04Z</time>
      </trkpt>
      <trkpt lat="40.268550" lon="-4.892450">
        <ele>1453.0</ele>
        <time>2018-09-15T13:00:05Z</time>
      </trkpt>
      <trkpt lat="40.268483" lon="-4.892400">
        <ele>1450.0</ele>
        <time>2018-09-15T13:00:06Z</time>
      </trkpt>
      <trkpt lat="40.268400" lon="-4.892367">
        <ele>1449.0</ele>
        <time>2018-09-15T13:00:07Z</time>
      </trkpt>
      <trkpt lat="40.268350" lon="-4.892333">
        <ele>1448.0</ele>
        <time>2018-09-15T13:00:08Z</time>
      </trkpt>
      <trkpt lat="40.268300" lon="-4.892333">
        <ele>1448.0</ele>
        <time>2018-09-15T13:00:09Z</time>
      </trkpt>
      <trkpt lat="40.268233" lon="-4.892317">
        <ele>1447.0</ele>
        <time>2018-09-15T13:00:10Z</time>
      </trkpt>
      <trkpt lat="40.268167" lon="-4.892283">
        <ele>1446.0</ele>
        <time>2018-09-15T13:00:11Z</time>
      </trkpt>
      <trkpt lat="40.268067" lon="-4.892250">
        <ele>1445.0</ele>
        <time>2018-09-15T13:00:12Z</time>
      </trkpt>
      <trkpt lat="40.267983" lon="-4.892250">
        <ele>1444.0</ele>
        <time>2018-09-15T13:00:13Z</time>
      </trkpt>
      <trkpt lat="40.267900" lon="-4.892267">
        <ele>1444.0</ele>
        <time>2018-09-15T13:00:14Z</time>
      </trkpt>
      <trkpt lat="40.267850" lon="-4.892283">
        <ele>1443.0</ele>
        <time>2018-09-15T13:00:15Z</time>
      </trkpt>
      <trkpt lat="40.267783" lon="-4.892300">
        <ele>1443.0</ele>
        <time>2018-09-15T13:00:16Z</time>
      </trkpt>
      <trkpt lat="40.267717" lon="-4.892300">
        <ele>1442.0</ele>
        <time>2018-09-15T13:00:17Z</time>
      </trkpt>
      <trkpt lat="40.267650" lon="-4.892300">
        <ele>1442.0</ele>
        <time>2018-09-15T13:00:18Z</time>
      </trkpt>
      <trkpt lat="40.267583" lon="-4.892317">
        <ele>1441.0</ele>
        <time>2018-09-15T13:00:19Z</time>
      </trkpt>
      <trkpt lat="40.267533" lon="-4.892350">
        <ele>1440.0</ele>
        <time>2018-09-15T13:00:20Z</time>
      </trkpt>
      <trkpt lat="40.267483" lon="-4.892350">
        <ele>1440.0</ele>
        <time>2018-09-15T13:00:21Z</time>
      </trkpt>
      <trkpt lat="40.267417" lon="-4.892367">
        <ele>1438.0</ele>
        <time>2018-09-15T13:00:22Z</time>
      </trkpt>
      <trkpt lat="40.267367" lon="-4.892350">
        <ele>1437.0</ele>
        <time>2018-09-15T13:00:23Z</time>
      </trkpt>
      <trkpt lat="40.267300" lon="-4.892333">
        <ele>1435.0</ele>
        <time>2018-09-15T13:00:24Z</time>
      </trkpt>
      <trkpt lat="40.267250" lon="-4.892333">
        <ele>1434.0</ele>
        <time>2018-09-15T13:00:25Z</time>
      </trkpt>
      <trkpt lat="40.267200" lon="-4.892317">
        <ele>1434.0</ele>
        <time>2018-09-15T13:00:26Z</time>
      </trkpt>
      <trkpt lat="40.267133" lon="-4.892300">
        <ele>1433.0</ele>
        <time>2018-09-15T13:00:27Z</time>
      </trkpt>
      <trkpt lat="40.267083" lon="-4.892283">
        <ele>1434.0</ele>
        <time>2018-09-15T13:00:28Z</time>
      </trkpt>
      <trkpt lat="40.267017" lon="-4.892283">
        <ele>1434.0</ele>
        <time>2018-09-15T13:00:29Z</time>
      </trkpt>
      <trkpt lat="40.266950" lon="-4.892283">
        <ele>1434.0</ele>
        <time>2018-09-15T13:00:30Z</time>
      </trkpt>
      <trkpt lat="40.266867" lon="-4.892283">
        <ele>1433.0</ele>
        <time>2018-09-15T13:00:31Z</time>
      </trkpt>
      <trkpt lat="40.266800" lon="-4.892267">
        <ele>1433.0</ele>
        <time>2018-09-15T13:00:32Z</time>
      </trkpt>
      <trkpt lat="40.266733" lon="-4.892267">
        <ele>1433.0</ele>
        <time>2018-09-15T13:00:33Z</time>
      </trkpt>
      <trkpt lat="40.266683" lon="-4.892250">
        <ele>1433.0</ele>
        <time>2018-09-15T13:00:34Z</time>
      </trkpt>
      <trkpt lat="40.266617" lon="-4.892250">
        <ele>1433.0</ele>
        <time>2018-09-15T13:00:35Z</time>
      </trkpt>
      <trkpt lat="40.266533" lon="-4.892233">
        <ele>1432.0</ele>
        <time>2018-09-15T13:00:36Z</time>
      </trkpt>
      <trkpt lat="40.266483" lon="-4.892233">
        <ele>1432.0</ele>
        <time>2018-09-15T13:00:37Z</time>
      </trkpt>
      <trkpt lat="40.266417" lon="-4.892217">
        <ele>1430.0</ele>
        <time>2018-09-15T13:00:38Z</time>
      </trkpt>
      <trkpt lat="40.266350" lon="-4.892200">
        <ele>1429.0</ele>
        <time>2018-09-15T13:00:39Z</time>
      </trkpt>
      <trkpt lat="40.266283" lon="-4.892183">
        <ele>1429.0</ele>
        <time>2018-09-15T13:00:40Z</time>
      </trkpt>
      <trkpt lat="40.266217" lon="-4.892183">
        <ele>1428.0</ele>
        <time>2018-09-15T13:00:41Z</time>
      </trkpt>
      <trkpt lat="40.266150" lon="-4.892167">
        <ele>1428.0</ele>
        <time>2018-09-15T13:00:42Z</time>
      </trkpt>
      <trkpt lat="40.266083" lon="-4.892167">
        <ele>1427.0</ele>
        <time>2018-09-15T13:00:43Z</time>
      </trkpt>
      <trkpt lat="40.266017" lon="-4.892150">
        <ele>1426.0</ele>
        <time>2018-09-15T13:00:44Z</time>
      </trkpt>
      <trkpt lat="40.265950" lon="-4.892150">
        <ele>1425.0</ele>
        <time>2018-09-15T13:00:45Z</time>
      </trkpt>
      <trkpt lat="40.265867" lon="-4.892133">
        <ele>1424.0</ele>
        <time>2018-09-15T13:00:46Z</time>
      </trkpt>
      <trkpt lat="40.265800" lon="-4.892133">
        <ele>1423.0</ele>
        <time>2018-09-15T13:00:47Z</time>
      </trkpt>
      <trkpt lat="40.265717" lon="-4.892117">
        <ele>1423.0</ele>
        <time>2018-09-15T13:00:48Z</time>
      </trkpt>
      <trkpt lat="40.265633" lon="-4.892100">
        <ele>1423.0</ele>
        <time>2018-09-15T13:00:49Z</time>
      </trkpt>
      <trkpt lat="40.265567" lon="-4.892083">
        <ele>1423.0</ele>
        <time>2018-09-15T13:00:50Z</time>
      </trkpt>
      <trkpt lat="40.265483" lon="-4.892067">
        <ele>1423.0</ele>
        <time>2018-09-15T13:00:51Z</time>
      </trkpt>
      <trkpt lat="40.265417" lon="-4.892050">
        <ele>1423.0</ele>
        <time>2018-09-15T13:00:52Z</time>
      </trkpt>
      <trkpt lat="40.265333" lon="-4.892033">
        <ele>1423.0</ele>
        <time>2018-09-15T13:00:53Z</time>
      </trkpt>
      <trkpt lat="40.265267" lon="-4.892033">
        <ele>1422.0</ele>
        <time>2018-09-15T13:00:54Z</time>
      </trkpt>
      <trkpt lat="40.265183" lon="-4.892050">
        <ele>1421.0</ele>
        <time>2018-09-15T13:00:55Z</time>
      </trkpt>
      <trkpt lat="40.265100" lon="-4.892050">
        <ele>1420.0</ele>
        <time>2018-09-15T13:00:56Z</time>
      </trkpt>
      <trkpt lat="40.265033" lon="-4.892067">
        <ele>1420.0</ele>
        <time>2018-09-15T13:00:57Z</time>
      </trkpt>
      <trkpt lat="40.264967" lon="-4.892067">
        <ele>1419.0</ele>
        <time>2018-09-15T13:00:58Z</time>
      </trkpt>
      <trkpt lat="40.264900" lon="-4.892067">
        <ele>1418.0</ele>
        <time>2018-09-15T13:00:59Z</time>
      </trkpt>
      <trkpt lat="40.264817" lon="-4.892067">
        <ele>1417.0</ele>
        <time>2018-09-15T13:01:00Z</time>
      </trkpt>
      <trkpt lat="40.264750" lon="-4.892083">
        <ele>1416.0</ele>
        <time>2018-09-15T13:01:01Z</time>
      </trkpt>
      <trkpt lat="40.264683" lon="-4.892083">
        <ele>1415.0</ele>
        <time>2018-09-15T13:01:02Z</time>
      </trkpt>
      <trkpt lat="40.264633" lon="-4.892083">
        <ele>1415.0</ele>
        <time>2018-09-15T13:01:03Z</time>
      </trkpt>
      <trkpt lat="40.264583" lon="-4.892083">
        <ele>1413.0</ele>
        <time>2018-09-15T13:01:04Z</time>
      </trkpt>
      <trkpt lat="40.264517" lon="-4.892083">
        <ele>1411.0</ele>
        <time>2018-09-15T13:01:05Z</time>
      </trkpt>
      <trkpt lat="40.264450" lon="-4.892067">
        <ele>1412.0</ele>
        <time>2018-09-15T13:01:06Z</time>
      </trkpt>
      <trkpt lat="40.264367" lon="-4.892033">
        <ele>1411.0</ele>
        <time>2018-09-15T13:01:07Z</time>
      </trkpt>
      <trkpt lat="40.264300" lon="-4.892033">
        <ele>1411.0</ele>
        <time>2018-09-15T13:01:08Z</time>
      </trkpt>
      <trkpt lat="40.264233" lon="-4.892017">
        <ele>1411.0</ele>
        <time>2018-09-15T13:01:09Z</time>
      </trkpt>
      <trkpt lat="40.264183" lon="-4.892017">
        <ele>1410.0</ele>
        <time>2018-09-15T13:01:10Z</time>
      </trkpt>
      <trkpt lat="40.264133" lon="-4.892000">
        <ele>1409.0</ele>
        <time>2018-09-15T13:01:11Z</time>
      </trkpt>
      <trkpt lat="40.264067" lon="-4.891983">
        <ele>1408.0</ele>
        <time>2018-09-15T13:01:12Z</time>
      </trkpt>
      <trkpt lat="40.264000" lon="-4.891983">
        <ele>1407.0</ele>
        <time>2018-09-15T13:01:13Z</time>
      </trkpt>
      <trkpt lat="40.263933" lon="-4.891967">
        <ele>1407.0</ele>
        <time>2018-09-15T13:01:14Z</time>
      </trkpt>
      <trkpt lat="40.263867" lon="-4.891950">
        <ele>1406.0</ele>
        <time>2018-09-15T13:01:15Z</time>
      </trkpt>
      <trkpt lat="40.263800" lon="-4.891933">
        <ele>1405.0</ele>
        <time>2018-09-15T13:01:16Z</time>
      </trkpt>
      <trkpt lat="40.263750" lon="-4.891900">
        <ele>1404.0</ele>
        <time>2018-09-15T13:01:17Z</time>
      </trkpt>
      <trkpt lat="40.263683" lon="-4.891883">
        <ele>1403.0</ele>
        <time>2018-09-15T13:01:18Z</time>
      </trkpt>
      <trkpt lat="40.263617" lon="-4.891867">
        <ele>1402.0</ele>
        <time>2018-09-15T13:01:19Z</time>
      </trkpt>
      <trkpt lat="40.263550" lon="-4.891850">
        <ele>1400.0</ele>
        <time>2018-09-15T13:01:20Z</time>
      </trkpt>
      <trkpt lat="40.263483" lon="-4.891833">
        <ele>1401.0</ele>
        <time>2018-09-15T13:01:21Z</time>
      </trkpt>
      <trkpt lat="40.263417" lon="-4.891817">
        <ele>1401.0</ele>
        <time>2018-09-15T13:01:22Z</time>
      </trkpt>
      <trkpt lat="40.263367" lon="-4.891800">
        <ele>1401.0</ele>
        <time>2018-09-15T13:01:23Z</time>
      </trkpt>
      <trkpt lat="40.263283" lon="-4.891767">
        <ele>1400.0</ele>
        <time>2018-09-15T13:01:24Z</time>
      </trkpt>
      <trkpt lat="40.263217" lon="-4.891750">
        <ele>1400.0</ele>
        <time>2018-09-15T13:01:25Z</time>
      </trkpt>
      <trkpt lat="40.263133" lon="-4.891733">
        <ele>1400.0</ele>
        <time>2018-09-15T13:01:26Z</time>
      </trkpt>
      <trkpt lat="40.263067" lon="-4.891717">
        <ele>1399.0</ele>
        <time>2018-09-15T13:01:27Z</time>
      </trkpt>
      <trkpt lat="40.263000" lon="-4.891717">
        <ele>1399.0</ele>
        <time>2018-09-15T13:01:28Z</time>
      </trkpt>
      <trkpt lat="40.262933" lon="-4.891683">
        <ele>1398.0</ele>
        <time>2018-09-15T13:01:29Z</time>
      </trkpt>
      <trkpt lat="40.262850" lon="-4.891667">
        <ele>1398.0</ele>
        <time>2018-09-15T13:01:30Z</time>
      </trkpt>
      <trkpt lat="40.262783" lon="-4.891650">
        <ele>1397.0</ele>
        <time>2018-09-15T13:01:31Z</time>
      </trkpt>
      <trkpt lat="40.262717" lon="-4.891650">
        <ele>1397.0</ele>
        <time>2018-09-15T13:01:32Z</time>
      </trkpt>
      <trkpt lat="40.262650" lon="-4.891650">
        <ele>1396.0</ele>
        <time>2018-09-15T13:01:33Z</time>
      </trkpt>
      <trkpt lat="40.262600" lon="-4.891633">
        <ele>1394.0</ele>
        <time>2018-09-15T13:01:34Z</time>
      </trkpt>
      <trkpt lat="40.262517" lon="-4.891617">
        <ele>1393.0</ele>
        <time>2018-09-15T13:01:35Z</time>
      </trkpt>
      <trkpt lat="40.262450" lon="-4.891600">
        <ele>1391.0</ele>
        <time>2018-09-15T13:01:36Z</time>
      </trkpt>
      <trkpt lat="40.262367" lon="-4.891600">
        <ele>1391.0</ele>
        <time>2018-09-15T13:01:37Z</time>
      </trkpt>
      <trkpt lat="40.262300" lon="-4.891583">
        <ele>1391.0</ele>
        <time>2018-09-15T13:01:38Z</time>
      </trkpt>
      <trkpt lat="40.262217" lon="-4.891583">
        <ele>1390.0</ele>
        <time>2018-09-15T13:01:39Z</time>
      </trkpt>
      <trkpt lat="40.262150" lon="-4.891583">
        <ele>1390.0</ele>
        <time>2018-09-15T13:01:40Z</time>
      </trkpt>
      <trkpt lat="40.262083" lon="-4.891567">
        <ele>1389.0</ele>
        <time>2018-09-15T13:01:41Z</time>
      </trkpt>
      <trkpt lat="40.262017" lon="-4.891550">
        <ele>1389.0</ele>
        <time>2018-09-15T13:01:42Z</time>
      </trkpt>
      <trkpt lat="40.261950" lon="-4.891550">
        <ele>1388.0</ele>
        <time>2018-09-15T13:01:43Z</time>
      </trkpt>
      <trkpt lat="40.261867" lon="-4.891550">
        <ele>1388.0</ele>
        <time>2018-09-15T13:01:44Z</time>
      </trkpt>
      <trkpt lat="40.261800" lon="-4.891533">
        <ele>1387.0</ele>
        <time>2018-09-15T13:01:45Z</time>
      </trkpt>
      <trkpt lat="40.261733" lon="-4.891517">
        <ele>1387.0</ele>
        <time>2018-09-15T13:01:46Z</time>
      </trkpt>
      <trkpt lat="40.261667" lon="-4.891500">
        <ele>1386.0</ele>
        <time>2018-09-15T13:01:47Z</time>
      </trkpt>
      <trkpt lat="40.261600" lon="-4.891483">
        <ele>1386.0</ele>
        <time>2018-09-15T13:01:48Z</time>
      </trkpt>
      <trkpt lat="40.261517" lon="-4.891467">
        <ele>1385.0</ele>
        <time>2018-09-15T13:01:49Z</time>
      </trkpt>
      <trkpt lat="40.261450" lon="-4.891433">
        <ele>1385.0</ele>
        <time>2018-09-15T13:01:50Z</time>
      </trkpt>
      <trkpt lat="40.261367" lon="-4.891417">
        <ele>1384.0</ele>
        <time>2018-09-15T13:01:51Z</time>
      </trkpt>
      <trkpt lat="40.261283" lon="-4.891400">
        <ele>1384.0</ele>
        <time>2018-09-15T13:01:52Z</time>
      </trkpt>
      <trkpt lat="40.261200" lon="-4.891400">
        <ele>1383.0</ele>
        <time>2018-09-15T13:01:53Z</time>
      </trkpt>
      <trkpt lat="40.261117" lon="-4.891417">
        <ele>1383.0</ele>
        <time>2018-09-15T13:01:54Z</time>
      </trkpt>
      <trkpt lat="40.261017" lon="-4.891417">
        <ele>1382.0</ele>
        <time>2018-09-15T13:01:55Z</time>
      </trkpt>
      <trkpt lat="40.260933" lon="-4.891417">
        <ele>1382.0</ele>
        <time>2018-09-15T13:01:56Z</time>
      </trkpt>
      <trkpt lat="40.260850" lon="-4.891417">
        <ele>1382.0</ele>
        <time>2018-09-15T13:01:57Z</time>
      </trkpt>
      <trkpt lat="40.260767" lon="-4.891417">
        <ele>1381.0</ele>
        <time>2018-09-15T13:01:58Z</time>
      </trkpt>
      <trkpt lat="40.260683" lon="-4.891400">
        <ele>1381.0</ele>
        <time>2018-09-15T13:01:59Z</time>
      </trkpt>
      <trkpt lat="40.260583" lon="-4.891383">
        <ele>1381.0</ele>
        <time>2018-09-15T13:02:00Z</time>
      </trkpt>
      <trkpt lat="40.260517" lon="-4.891367">
        <ele>1380.0</ele>
        <time>2018-09-15T13:02:01Z</time>
      </trkpt>
      <trkpt lat="40.260450" lon="-4.891333">
        <ele>1379.0</ele>
        <time>2018-09-15T13:02:02Z</time>
      </trkpt>
      <trkpt lat="40.260383" lon="-4.891317">
        <ele>1378.0</ele>
        <time>2018-09-15T13:02:03Z</time>
      </trkpt>
      <trkpt lat="40.260300" lon="-4.891283">
        <ele>1375.0</ele>
        <time>2018-09-15T13:02:04Z</time>
      </trkpt>
      <trkpt lat="40.260250" lon="-4.891267">
        <ele>1372.0</ele>
        <time>2018-09-15T13:02:05Z</time>
      </trkpt>
      <trkpt lat="40.260183" lon="-4.891233">
        <ele>1367.0</ele>
        <time>2018-09-15T13:02:06Z</time>
      </trkpt>
      <trkpt lat="40.260117" lon="-4.891200">
        <ele>1360.0</ele>
        <time>2018-09-15T13:02:07Z</time>
      </trkpt>
      <trkpt lat="40.260033" lon="-4.891150">
        <ele>1357.0</ele>
        <time>2018-09-15T13:02:08Z</time>
      </trkpt>
      <trkpt lat="40.259950" lon="-4.891100">
        <ele>1362.0</ele>
        <time>2018-09-15T13:02:09Z</time>
      </trkpt>
      <trkpt lat="40.259900" lon="-4.891067">
        <ele>1361.0</ele>
        <time>2018-09-15T13:02:10Z</time>
      </trkpt>
      <trkpt lat="40.259833" lon="-4.891033">
        <ele>1360.0</ele>
        <time>2018-09-15T13:02:11Z</time>
      </trkpt>
      <trkpt lat="40.259767" lon="-4.891000">
        <ele>1358.0</ele>
        <time>2018-09-15T13:02:12Z</time>
      </trkpt>
      <trkpt lat="40.259700" lon="-4.890967">
        <ele>1357.0</ele>
        <time>2018-09-15T13:02:13Z</time>
      </trkpt>
      <trkpt lat="40.259650" lon="-4.890917">
        <ele>1356.0</ele>
        <time>2018-09-15T13:02:14Z</time>
      </trkpt>
      <trkpt lat="40.259617" lon="-4.890867">
        <ele>1354.0</ele>
        <time>2018-09-15T13:02:15Z</time>
      </trkpt>
      <trkpt lat="40.259567" lon="-4.890800">
        <ele>1352.0</ele>
        <time>2018-09-15T13:02:16Z</time>
      </trkpt>
      <trkpt lat="40.259517" lon="-4.890750">
        <ele>1349.0</ele>
        <time>2018-09-15T13:02:17Z</time>
      </trkpt>
      <trkpt lat="40.259467" lon="-4.890717">
        <ele>1345.0</ele>
        <time>2018-09-15T13:02:18Z</time>
      </trkpt>
      <trkpt lat="40.259417" lon="-4.890667">
        <ele>1342.0</ele>
        <time>2018-09-15T13:02:19Z</time>
      </trkpt>
      <trkpt lat="40.259383" lon="-4.890617">
        <ele>1338.0</ele>
        <time>2018-09-15T13:02:20Z</time>
      </trkpt>
      <trkpt lat="40.259333" lon="-4.890567">
        <ele>1338.0</ele>
        <time>2018-09-15T13:02:21Z</time>
      </trkpt>
      <trkpt lat="40.259267" lon="-4.890500">
        <ele>1337.0</ele>
        <time>2018-09-15T13:02:22Z</time>
      </trkpt>
      <trkpt lat="40.259200" lon="-4.890450">
        <ele>1336.0</ele>
        <time>2018-09-15T13:02:23Z</time>
      </trkpt>
      <trkpt lat="40.259167" lon="-4.890400">
        <ele>1335.0</ele>
        <time>2018-09-15T13:02:24Z</time>
      </trkpt>
      <trkpt lat="40.259133" lon="-4.890367">
        <ele>1334.0</ele>
        <time>2018-09-15T13:02:25Z</time>
      </trkpt>
      <trkpt lat="40.259100" lon="-4.890317">
        <ele>1333.0</ele>
        <time>2018-09-15T13:02:26Z</time>
      </trkpt>
      <trkpt lat="40.259083" lon="-4.890267">
        <ele>1332.0</ele>
        <time>2018-09-15T13:02:27Z</time>
      </trkpt>
      <trkpt lat="40.259050" lon="-4.890233">
        <ele>1331.0</ele>
        <time>2018-09-15T13:02:28Z</time>
      </trkpt>
      <trkpt lat="40.258983" lon="-4.890167">
        <ele>1330.0</ele>
        <time>2018-09-15T13:02:29Z</time>
      </trkpt>
      <trkpt lat="40.258900" lon="-4.890083">
        <ele>1329.0</ele>
        <time>2018-09-15T13:02:30Z</time>
      </trkpt>
      <trkpt lat="40.258817" lon="-4.889983">
        <ele>1328.0</ele>
        <time>2018-09-15T13:02:31Z</time>
      </trkpt>
      <trkpt lat="40.258783" lon="-4.889933">
        <ele>1326.0</ele>
        <time>2018-09-15T13:02:32Z</time>
      </trkpt>
      <trkpt lat="40.258733" lon="-4.889867">
        <ele>1325.0</ele>
        <time>2018-09-15T13:02:33Z</time>
      </trkpt>
      <trkpt lat="40.258683" lon="-4.889800">
        <ele>1325.0</ele>
        <time>2018-09-15T13:02:34Z</time>
      </trkpt>
      <trkpt lat="40.258617" lon="-4.889733">
        <ele>1324.0</ele>
        <time>2018-09-15T13:02:35Z</time>
      </trkpt>
      <trkpt lat="40.258567" lon="-4.889683">
        <ele>1323.0</ele>
        <time>2018-09-15T13:02:36Z</time>
      </trkpt>
      <trkpt lat="40.258467" lon="-4.889583">
        <ele>1322.0</ele>
        <time>2018-09-15T13:02:37Z</time>
      </trkpt>
      <trkpt lat="40.258400" lon="-4.889533">
        <ele>1321.0</ele>
        <time>2018-09-15T13:02:38Z</time>
      </trkpt>
      <trkpt lat="40.258333" lon="-4.889483">
        <ele>1320.0</ele>
        <time>2018-09-15T13:02:39Z</time>
      </trkpt>
      <trkpt lat="40.258283" lon="-4.889417">
        <ele>1319.0</ele>
        <time>2018-09-15T13:02:40Z</time>
      </trkpt>
      <trkpt lat="40.258217" lon="-4.889383">
        <ele>1319.0</ele>
        <time>2018-09-15T13:02:41Z</time>
      </trkpt>
      <trkpt lat="40.258133" lon="-4.889333">
        <ele>1317.0</ele>
        <time>2018-09-15T13:02:42Z</time>
      </trkpt>
      <trkpt lat="40.258067" lon="-4.889283">
        <ele>1315.0</ele>
        <time>2018-09-15T13:02:43Z</time>
      </trkpt>
      <trkpt lat="40.257983" lon="-4.889233">
        <ele>1314.0</ele>
        <time>2018-09-15T13:02:44Z</time>
      </trkpt>
      <trkpt lat="40.257917" lon="-4.889183">
        <ele>1312.0</ele>
        <time>2018-09-15T13:02:45Z</time>
      </trkpt>
      <trkpt lat="40.257867" lon="-4.889133">
        <ele>1311.0</ele>
        <time>2018-09-15T13:02:46Z</time>
      </trkpt>
      <trkpt lat="40.257800" lon="-4.889083">
        <ele>1309.0</ele>
        <time>2018-09-15T13:02:47Z</time>
      </trkpt>
      <trkpt lat="40.257733" lon="-4.889050">
        <ele>1308.0</ele>
        <time>2018-09-15T13:02:48Z</time>
      </trkpt>
      <trkpt lat="40.257667" lon="-4.889017">
        <ele>1306.0</ele>
        <time>2018-09-15T13:02:49Z</time>
      </trkpt>
      <trkpt lat="40.257617" lon="-4.888983">
        <ele>1303.0</ele>
        <time>2018-09-15T13:02:50Z</time>
      </trkpt>
      <trkpt lat="40.257550" lon="-4.888933">
        <ele>1300.0</ele>
        <time>2018-09-15T13:02:51Z</time>
      </trkpt>
      <trkpt lat="40.257467" lon="-4.888883">
        <ele>1297.0</ele>
        <time>2018-09-15T13:02:52Z</time>
      </trkpt>
      <trkpt lat="40.257383" lon="-4.888833">
        <ele>1293.0</ele>
        <time>2018-09-15T13:02:53Z</time>
      </trkpt>
      <trkpt lat="40.257300" lon="-4.888783">
        <ele>1290.0</ele>
        <time>2018-09-15T13:02:54Z</time>
      </trkpt>
      <trkpt lat="40.257217" lon="-4.888750">
        <ele>1286.0</ele>
        <time>2018-09-15T13:02:55Z</time>
      </trkpt>
      <trkpt lat="40.257133" lon="-4.888700">
        <ele>1280.0</ele>
        <time>2018-09-15T13:02:56Z</time>
      </trkpt>
      <trkpt lat="40.257067" lon="-4.888633">
        <ele>1274.0</ele>
        <time>2018-09-15T13:02:57Z</time>
      </trkpt>
      <trkpt lat="40.257000" lon="-4.888567">
        <ele>1268.0</ele>
        <time>2018-09-15T13:02:58Z</time>
      </trkpt>
      <trkpt lat="40.256933" lon="-4.888517">
        <ele>1263.0</ele>
        <time>2018-09-15T13:02:59Z</time>
      </trkpt>
      <trkpt lat="40.256867" lon="-4.888450">
        <ele>1259.0</ele>
        <time>2018-09-15T13:03:00Z</time>
      </trkpt>
      <trkpt lat="40.256800" lon="-4.888400">
        <ele>1255.0</ele>
        <time>2018-09-15T13:03:01Z</time>
      </trkpt>
      <trkpt lat="40.256733" lon="-4.888333">
        <ele>1251.0</ele>
        <time>2018-09-15T13:03:02Z</time>
      </trkpt>
      <trkpt lat="40.256667" lon="-4.888283">
        <ele>1246.0</ele>
        <time>2018-09-15T13:03:03Z</time>
      </trkpt>
      <trkpt lat="40.256617" lon="-4.888217">
        <ele>1242.0</ele>
        <time>2018-09-15T13:03:04Z</time>
      </trkpt>
      <trkpt lat="40.256550" lon="-4.888167">
        <ele>1239.0</ele>
        <time>2018-09-15T13:03:05Z</time>
      </trkpt>
      <trkpt lat="40.256500" lon="-4.888100">
        <ele>1235.0</ele>
        <time>2018-09-15T13:03:06Z</time>
      </trkpt>
      <trkpt lat="40.256433" lon="-4.888050">
        <ele>1232.0</ele>
        <time>2018-09-15T13:03:07Z</time>
      </trkpt>
      <trkpt lat="40.256383" lon="-4.887983">
        <ele>1229.0</ele>
        <time>2018-09-15T13:03:08Z</time>
      </trkpt>
      <trkpt lat="40.256317" lon="-4.887917">
        <ele>1226.0</ele>
        <time>2018-09-15T13:03:09Z</time>
      </trkpt>
      <trkpt lat="40.256250" lon="-4.887867">
        <ele>1223.0</ele>
        <time>2018-09-15T13:03:10Z</time>
      </trkpt>
      <trkpt lat="40.256183" lon="-4.887783">
        <ele>1220.0</ele>
        <time>2018-09-15T13:03:11Z</time>
      </trkpt>
      <trkpt lat="40.256117" lon="-4.887717">
        <ele>1217.0</ele>
        <time>2018-09-15T13:03:12Z</time>
      </trkpt>
      <trkpt lat="40.256050" lon="-4.887650">
        <ele>1213.0</ele>
        <time>2018-09-15T13:03:13Z</time>
      </trkpt>
      <trkpt lat="40.255983" lon="-4.887600">
        <ele>1210.0</ele>
        <time>2018-09-15T13:03:14Z</time>
      </trkpt>
      <trkpt lat="40.255917" lon="-4.887550">
        <ele>1206.0</ele>
        <time>2018-09-15T13:03:15Z</time>
      </trkpt>
      <trkpt lat="40.255850" lon="-4.887500">
        <ele>1203.0</ele>
        <time>2018-09-15T13:03:16Z</time>
      </trkpt>
      <trkpt lat="40.255783" lon="-4.887450">
        <ele>1200.0</ele>
        <time>2018-09-15T13:03:17Z</time>
      </trkpt>
      <trkpt lat="40.255717" lon="-4.887400">
        <ele>1196.0</ele>
        <time>2018-09-15T13:03:18Z</time>
      </trkpt>
      <trkpt lat="40.255650" lon="-4.887350">
        <ele>1193.0</ele>
        <time>2018-09-15T13:03:19Z</time>
      </trkpt>
      <trkpt lat="40.255583" lon="-4.887300">
        <ele>1189.0</ele>
        <time>2018-09-15T13:03:20Z</time>
      </trkpt>
      <trkpt lat="40.255517" lon="-4.887250">
        <ele>1186.0</ele>
        <time>2018-09-15T13:03:21Z</time>
      </trkpt>
      <trkpt lat="40.255450" lon="-4.887183">
        <ele>1183.0</ele>
        <time>2018-09-15T13:03:22Z</time>
      </trkpt>
      <trkpt lat="40.255400" lon="-4.887133">
        <ele>1180.0</ele>
        <time>2018-09-15T13:03:23Z</time>
      </trkpt>
      <trkpt lat="40.255333" lon="-4.887067">
        <ele>1176.0</ele>
        <time>2018-09-15T13:03:24Z</time>
      </trkpt>
      <trkpt lat="40.255283" lon="-4.887017">
        <ele>1173.0</ele>
        <time>2018-09-15T13:03:25Z</time>
      </trkpt>
      <trkpt lat="40.255217" lon="-4.886967">
        <ele>1170.0</ele>
        <time>2018-09-15T13:03:26Z</time>
      </trkpt>
      <trkpt lat="40.255150" lon="-4.886900">
        <ele>1167.0</ele>
        <time>2018-09-15T13:03:27Z</time>
      </trkpt>
      <trkpt lat="40.255083" lon="-4.886833">
        <ele>1164.0</ele>
        <time>2018-09-15T13:03:28Z</time>
      </trkpt>
      <trkpt lat="40.255017" lon="-4.886783">
        <ele>1161.0</ele>
        <time>2018-09-15T13:03:29Z</time>
      </trkpt>
      <trkpt lat="40.254950" lon="-4.886717">
        <ele>1158.0</ele>
        <time>2018-09-15T13:03:30Z</time>
      </trkpt>
      <trkpt lat="40.254883" lon="-4.886683">
        <ele>1155.0</ele>
        <time>2018-09-15T13:03:31Z</time>
      </trkpt>
      <trkpt lat="40.254817" lon="-4.886633">
        <ele>1152.0</ele>
        <time>2018-09-15T13:03:32Z</time>
      </trkpt>
      <trkpt lat="40.254767" lon="-4.886567">
        <ele>1149.0</ele>
        <time>2018-09-15T13:03:33Z</time>
      </trkpt>
      <trkpt lat="40.254700" lon="-4.886517">
        <ele>1146.0</ele>
        <time>2018-09-15T13:03:34Z</time>
      </trkpt>
      <trkpt lat="40.254633" lon="-4.886450">
        <ele>1143.0</ele>
        <time>2018-09-15T13:03:35Z</time>
      </trkpt>
      <trkpt lat="40.254567" lon="-4.886400">
        <ele>1140.0</ele>
        <time>2018-09-15T13:03:36Z</time>
      </trkpt>
      <trkpt lat="40.254500" lon="-4.886333">
        <ele>1137.0</ele>
        <time>2018-09-15T13:03:37Z</time>
      </trkpt>
      <trkpt lat="40.254433" lon="-4.886267">
        <ele>1134.0</ele>
        <time>2018-09-15T13:03:38Z</time>
      </trkpt>
      <trkpt lat="40.254367" lon="-4.886200">
        <ele>1132.0</ele>
        <time>2018-09-15T13:03:39Z</time>
      </trkpt>
      <trkpt lat="40.254300" lon="-4.886150">
        <ele>1129.0</ele>
        <time>2018-09-15T13:03:40Z</time>
      </trkpt>
      <trkpt lat="40.254233" lon="-4.886083">
        <ele>1126.0</ele>
        <time>2018-09-15T13:03:41Z</time>
      </trkpt>
      <trkpt lat="40.254167" lon="-4.886033">
        <ele>1124.0</ele>
        <time>2018-09-15T13:03:42Z</time>
      </trkpt>
      <trkpt lat="40.254083" lon="-4.885983">
        <ele>1122.0</ele>
        <time>2018-09-15T13:03:43Z</time>
      </trkpt>
      <trkpt lat="40.254017" lon="-4.885933">
        <ele>1120.0</ele>
        <time>2018-09-15T13:03:44Z</time>
      </trkpt>
      <trkpt lat="40.253950" lon="-4.885867">
        <ele>1117.0</ele>
        <time>2018-09-15T13:03:45Z</time>
      </trkpt>
      <trkpt lat="40.253883" lon="-4.885817">
        <ele>1116.0</ele>
        <time>2018-09-15T13:03:46Z</time>
      </trkpt>
      <trkpt lat="40.253817" lon="-4.885750">
        <ele>1113.0</ele>
        <time>2018-09-15T13:03:47Z</time>
      </trkpt>
      <trkpt lat="40.253750" lon="-4.885683">
        <ele>1111.0</ele>
        <time>2018-09-15T13:03:48Z</time>
      </trkpt>
      <trkpt lat="40.253700" lon="-4.885633">
        <ele>1109.0</ele>
        <time>2018-09-15T13:03:49Z</time>
      </trkpt>
      <trkpt lat="40.253633" lon="-4.885583">
        <ele>1108.0</ele>
        <time>2018-09-15T13:03:50Z</time>
      </trkpt>
      <trkpt lat="40.253567" lon="-4.885533">
        <ele>1107.0</ele>
        <time>2018-09-15T13:03:51Z</time>
      </trkpt>
      <trkpt lat="40.253483" lon="-4.885483">
        <ele>1106.0</ele>
        <time>2018-09-15T13:03:52Z</time>
      </trkpt>
      <trkpt lat="40.253433" lon="-4.885433">
        <ele>1105.0</ele>
        <time>2018-09-15T13:03:53Z</time>
      </trkpt>
      <trkpt lat="40.253367" lon="-4.885367">
        <ele>1106.0</ele>
        <time>2018-09-15T13:03:54Z</time>
      </trkpt>
      <trkpt lat="40.253283" lon="-4.885317">
        <ele>1111.0</ele>
        <time>2018-09-15T13:03:55Z</time>
      </trkpt>
      <trkpt lat="40.253217" lon="-4.885267">
        <ele>1112.0</ele>
        <time>2018-09-15T13:03:56Z</time>
      </trkpt>
      <trkpt lat="40.253133" lon="-4.885217">
        <ele>1112.0</ele>
        <time>2018-09-15T13:03:57Z</time>
      </trkpt>
      <trkpt lat="40.253033" lon="-4.885167">
        <ele>1112.0</ele>
        <time>2018-09-15T13:03:58Z</time>
      </trkpt>
      <trkpt lat="40.252967" lon="-4.885133">
        <ele>1112.0</ele>
        <time>2018-09-15T13:03:59Z</time>
      </trkpt>
      <trkpt lat="40.252883" lon="-4.885100">
        <ele>1113.0</ele>
        <time>2018-09-15T13:04:00Z</time>
      </trkpt>
      <trkpt lat="40.252800" lon="-4.885050">
        <ele>1113.0</ele>
        <time>2018-09-15T13:04:01Z</time>
      </trkpt>
      <trkpt lat="40.252717" lon="-4.885000">
        <ele>1112.0</ele>
        <time>2018-09-15T13:04:02Z</time>
      </trkpt>
      <trkpt lat="40.252633" lon="-4.884950">
        <ele>1111.0</ele>
        <time>2018-09-15T13:04:03Z</time>
      </trkpt>
      <trkpt lat="40.252550" lon="-4.884900">
        <ele>1110.0</ele>
        <time>2018-09-15T13:04:04Z</time>
      </trkpt>
      <trkpt lat="40.252483" lon="-4.884867">
        <ele>1109.0</ele>
        <time>2018-09-15T13:04:05Z</time>
      </trkpt>
      <trkpt lat="40.252417" lon="-4.884833">
        <ele>1108.0</ele>
        <time>2018-09-15T13:04:06Z</time>
      </trkpt>
      <trkpt lat="40.252350" lon="-4.884783">
        <ele>1107.0</ele>
        <time>2018-09-15T13:04:07Z</time>
      </trkpt>
      <trkpt lat="40.252267" lon="-4.884717">
        <ele>1105.0</ele>
        <time>2018-09-15T13:04:08Z</time>
      </trkpt>
      <trkpt lat="40.252183" lon="-4.884667">
        <ele>1103.0</ele>
        <time>2018-09-15T13:04:09Z</time>
      </trkpt>
      <trkpt lat="40.252100" lon="-4.884600">
        <ele>1101.0</ele>
        <time>2018-09-15T13:04:10Z</time>
      </trkpt>
      <trkpt lat="40.252017" lon="-4.884550">
        <ele>1101.0</ele>
        <time>2018-09-15T13:04:11Z</time>
      </trkpt>
      <trkpt lat="40.251950" lon="-4.884500">
        <ele>1101.0</ele>
        <time>2018-09-15T13:04:12Z</time>
      </trkpt>
      <trkpt lat="40.251883" lon="-4.884450">
        <ele>1101.0</ele>
        <time>2018-09-15T13:04:13Z</time>
      </trkpt>
      <trkpt lat="40.251817" lon="-4.884400">
        <ele>1101.0</ele>
        <time>2018-09-15T13:04:14Z</time>
      </trkpt>
      <trkpt lat="40.251750" lon="-4.884350">
        <ele>1100.0</ele>
        <time>2018-09-15T13:04:15Z</time>
      </trkpt>
      <trkpt lat="40.251683" lon="-4.884317">
        <ele>1099.0</ele>
        <time>2018-09-15T13:04:16Z</time>
      </trkpt>
      <trkpt lat="40.251600" lon="-4.884267">
        <ele>1097.0</ele>
        <time>2018-09-15T13:04:17Z</time>
      </trkpt>
      <trkpt lat="40.251517" lon="-4.884233">
        <ele>1095.0</ele>
        <time>2018-09-15T13:04:18Z</time>
      </trkpt>
      <trkpt lat="40.251433" lon="-4.884183">
        <ele>1094.0</ele>
        <time>2018-09-15T13:04:19Z</time>
      </trkpt>
      <trkpt lat="40.251350" lon="-4.884133">
        <ele>1092.0</ele>
        <time>2018-09-15T13:04:20Z</time>
      </trkpt>
      <trkpt lat="40.251267" lon="-4.884083">
        <ele>1091.0</ele>
        <time>2018-09-15T13:04:21Z</time>
      </trkpt>
      <trkpt lat="40.251183" lon="-4.884050">
        <ele>1090.0</ele>
        <time>2018-09-15T13:04:22Z</time>
      </trkpt>
      <trkpt lat="40.251100" lon="-4.884017">
        <ele>1088.0</ele>
        <time>2018-09-15T13:04:23Z</time>
      </trkpt>
      <trkpt lat="40.251017" lon="-4.883983">
        <ele>1087.0</ele>
        <time>2018-09-15T13:04:24Z</time>
      </trkpt>
      <trkpt lat="40.250950" lon="-4.883933">
        <ele>1085.0</ele>
        <time>2018-09-15T13:04:25Z</time>
      </trkpt>
      <trkpt lat="40.250850" lon="-4.883883">
        <ele>1083.0</ele>
        <time>2018-09-15T13:04:26Z</time>
      </trkpt>
      <trkpt lat="40.250767" lon="-4.883850">
        <ele>1082.0</ele>
        <time>2018-09-15T13:04:27Z</time>
      </trkpt>
      <trkpt lat="40.250667" lon="-4.883800">
        <ele>1081.0</ele>
        <time>2018-09-15T13:04:28Z</time>
      </trkpt>
      <trkpt lat="40.250583" lon="-4.883767">
        <ele>1079.0</ele>
        <time>2018-09-15T13:04:29Z</time>
      </trkpt>
      <trkpt lat="40.250483" lon="-4.883750">
        <ele>1078.0</ele>
        <time>2018-09-15T13:04:30Z</time>
      </trkpt>
      <trkpt lat="40.250400" lon="-4.883717">
        <ele>1075.0</ele>
        <time>2018-09-15T13:04:31Z</time>
      </trkpt>
      <trkpt lat="40.250300" lon="-4.883700">
        <ele>1073.0</ele>
        <time>2018-09-15T13:04:32Z</time>
      </trkpt>
      <trkpt lat="40.250217" lon="-4.883667">
        <ele>1071.0</ele>
        <time>2018-09-15T13:04:33Z</time>
      </trkpt>
      <trkpt lat="40.250133" lon="-4.883650">
        <ele>1070.0</ele>
        <time>2018-09-15T13:04:34Z</time>
      </trkpt>
      <trkpt lat="40.250050" lon="-4.883600">
        <ele>1068.0</ele>
        <time>2018-09-15T13:04:35Z</time>
      </trkpt>
      <trkpt lat="40.249967" lon="-4.883567">
        <ele>1066.0</ele>
        <time>2018-09-15T13:04:36Z</time>
      </trkpt>
      <trkpt lat="40.249867" lon="-4.883517">
        <ele>1064.0</ele>
        <time>2018-09-15T13:04:37Z</time>
      </trkpt>
      <trkpt lat="40.249783" lon="-4.883483">
        <ele>1063.0</ele>
        <time>2018-09-15T13:04:38Z</time>
      </trkpt>
      <trkpt lat="40.249700" lon="-4.883433">
        <ele>1062.0</ele>
        <time>2018-09-15T13:04:39Z</time>
      </trkpt>
      <trkpt lat="40.249617" lon="-4.883400">
        <ele>1062.0</ele>
        <time>2018-09-15T13:04:40Z</time>
      </trkpt>
      <trkpt lat="40.249517" lon="-4.883350">
        <ele>1063.0</ele>
        <time>2018-09-15T13:04:41Z</time>
      </trkpt>
      <trkpt lat="40.249433" lon="-4.883283">
        <ele>1063.0</ele>
        <time>2018-09-15T13:04:42Z</time>
      </trkpt>
      <trkpt lat="40.249350" lon="-4.883233">
        <ele>1064.0</ele>
        <time>2018-09-15T13:04:43Z</time>
      </trkpt>
      <trkpt lat="40.249250" lon="-4.883200">
        <ele>1065.0</ele>
        <time>2018-09-15T13:04:44Z</time>
      </trkpt>
      <trkpt lat="40.249133" lon="-4.883150">
        <ele>1068.0</ele>
        <time>2018-09-15T13:04:45Z</time>
      </trkpt>
      <trkpt lat="40.249033" lon="-4.883100">
        <ele>1072.0</ele>
        <time>2018-09-15T13:04:46Z</time>
      </trkpt>
      <trkpt lat="40.248950" lon="-4.883033">
        <ele>1078.0</ele>
        <time>2018-09-15T13:04:47Z</time>
      </trkpt>
      <trkpt lat="40.248883" lon="-4.882967">
        <ele>1082.0</ele>
        <time>2018-09-15T13:04:48Z</time>
      </trkpt>
      <trkpt lat="40.248817" lon="-4.882883">
        <ele>1085.0</ele>
        <time>2018-09-15T13:04:49Z</time>
      </trkpt>
      <trkpt lat="40.248750" lon="-4.882817">
        <ele>1086.0</ele>
        <time>2018-09-15T13:04:50Z</time>
      </trkpt>
      <trkpt lat="40.248700" lon="-4.882733">
        <ele>1087.0</ele>
        <time>2018-09-15T13:04:51Z</time>
      </trkpt>
      <trkpt lat="40.248667" lon="-4.882633">
        <ele>1085.0</ele>
        <time>2018-09-15T13:04:52Z</time>
      </trkpt>
      <trkpt lat="40.248667" lon="-4.882533">
        <ele>1083.0</ele>
        <time>2018-09-15T13:04:53Z</time>
      </trkpt>
      <trkpt lat="40.248717" lon="-4.882450">
        <ele>1084.0</ele>
        <time>2018-09-15T13:04:54Z</time>
      </trkpt>
      <trkpt lat="40.248767" lon="-4.882433">
        <ele>1086.0</ele>
        <time>2018-09-15T13:04:55Z</time>
      </trkpt>
      <trkpt lat="40.248850" lon="-4.882467">
        <ele>1087.0</ele>
        <time>2018-09-15T13:04:56Z</time>
      </trkpt>
      <trkpt lat="40.248917" lon="-4.882533">
        <ele>1088.0</ele>
        <time>2018-09-15T13:04:57Z</time>
      </trkpt>
      <trkpt lat="40.248967" lon="-4.882617">
        <ele>1088.0</ele>
        <time>2018-09-15T13:04:58Z</time>
      </trkpt>
      <trkpt lat="40.249000" lon="-4.882717">
        <ele>1089.0</ele>
        <time>2018-09-15T13:04:59Z</time>
      </trkpt>
      <trkpt lat="40.249000" lon="-4.882817">
        <ele>1090.0</ele>
        <time>2018-09-15T13:05:00Z</time>
      </trkpt>
      <trkpt lat="40.248983" lon="-4.882900">
        <ele>1091.0</ele>
        <time>2018-09-15T13:05:01Z</time>
      </trkpt>
      <trkpt lat="40.248950" lon="-4.883017">
        <ele>1091.0</ele>
        <time>2018-09-15T13:05:02Z</time>
      </trkpt>
      <trkpt lat="40.248900" lon="-4.883133">
        <ele>1085.0</ele>
        <time>2018-09-15T13:05:03Z</time>
      </trkpt>
      <trkpt lat="40.248817" lon="-4.883267">
        <ele>1081.0</ele>
        <time>2018-09-15T13:05:04Z</time>
      </trkpt>
      <trkpt lat="40.248717" lon="-4.883383">
        <ele>1079.0</ele>
        <time>2018-09-15T13:05:05Z</time>
      </trkpt>
      <trkpt lat="40.248600" lon="-4.883450">
        <ele>1080.0</ele>
        <time>2018-09-15T13:05:06Z</time>
      </trkpt>
      <trkpt lat="40.248483" lon="-4.883467">
        <ele>1082.0</ele>
        <time>2018-09-15T13:05:07Z</time>
      </trkpt>
      <trkpt lat="40.248400" lon="-4.883450">
        <ele>1084.0</ele>
        <time>2018-09-15T13:05:08Z</time>
      </trkpt>
      <trkpt lat="40.248317" lon="-4.883417">
        <ele>1086.0</ele>
        <time>2018-09-15T13:05:09Z</time>
      </trkpt>
      <trkpt lat="40.248233" lon="-4.883400">
        <ele>1087.0</ele>
        <time>2018-09-15T13:05:10Z</time>
      </trkpt>
      <trkpt lat="40.248167" lon="-4.883400">
        <ele>1086.0</ele>
        <time>2018-09-15T13:05:11Z</time>
      </trkpt>
      <trkpt lat="40.248083" lon="-4.883417">
        <ele>1086.0</ele>
        <time>2018-09-15T13:05:12Z</time>
      </trkpt>
      <trkpt lat="40.247983" lon="-4.883467">
        <ele>1086.0</ele>
        <time>2018-09-15T13:05:13Z</time>
      </trkpt>
      <trkpt lat="40.247917" lon="-4.883550">
        <ele>1086.0</ele>
        <time>2018-09-15T13:05:14Z</time>
      </trkpt>
      <trkpt lat="40.247850" lon="-4.883667">
        <ele>1085.0</ele>
        <time>2018-09-15T13:05:15Z</time>
      </trkpt>
      <trkpt lat="40.247817" lon="-4.883800">
        <ele>1085.0</ele>
        <time>2018-09-15T13:05:16Z</time>
      </trkpt>
      <trkpt lat="40.247833" lon="-4.883917">
        <ele>1085.0</ele>
        <time>2018-09-15T13:05:17Z</time>
      </trkpt>
      <trkpt lat="40.247900" lon="-4.884000">
        <ele>1085.0</ele>
        <time>2018-09-15T13:05:18Z</time>
      </trkpt>
      <trkpt lat="40.247967" lon="-4.884050">
        <ele>1084.0</ele>
        <time>2018-09-15T13:05:19Z</time>
      </trkpt>
      <trkpt lat="40.248067" lon="-4.884083">
        <ele>1082.0</ele>
        <time>2018-09-15T13:05:20Z</time>
      </trkpt>
      <trkpt lat="40.248133" lon="-4.884100">
        <ele>1082.0</ele>
        <time>2018-09-15T13:05:21Z</time>
      </trkpt>
      <trkpt lat="40.248200" lon="-4.884067">
        <ele>1081.0</ele>
        <time>2018-09-15T13:05:22Z</time>
      </trkpt>
      <trkpt lat="40.248233" lon="-4.884000">
        <ele>1080.0</ele>
        <time>2018-09-15T13:05:23Z</time>
      </trkpt>
      <trkpt lat="40.248267" lon="-4.883950">
        <ele>1080.0</ele>
        <time>2018-09-15T13:05:24Z</time>
      </trkpt>
      <trkpt lat="40.248300" lon="-4.883900">
        <ele>1079.0</ele>
        <time>2018-09-15T13:05:25Z</time>
      </trkpt>
      <trkpt lat="40.248317" lon="-4.883833">
        <ele>1079.0</ele>
        <time>2018-09-15T13:05:26Z</time>
      </trkpt>
      <trkpt lat="40.248300" lon="-4.883750">
        <ele>1079.0</ele>
        <time>2018-09-15T13:05:27Z</time>
      </trkpt>
      <trkpt lat="40.248283" lon="-4.883650">
        <ele>1079.0</ele>
        <time>2018-09-15T13:05:28Z</time>
      </trkpt>
      <trkpt lat="40.248250" lon="-4.883567">
        <ele>1079.0</ele>
        <time>2018-09-15T13:05:29Z</time>
      </trkpt>
      <trkpt lat="40.248217" lon="-4.883517">
        <ele>1080.0</ele>
        <time>2018-09-15T13:05:30Z</time>
      </trkpt>
      <trkpt lat="40.248183" lon="-4.883467">
        <ele>1082.0</ele>
        <time>2018-09-15T13:05:31Z</time>
      </trkpt>
      <trkpt lat="40.248167" lon="-4.883417">
        <ele>1083.0</ele>
        <time>2018-09-15T13:05:32Z</time>
      </trkpt>
      <trkpt lat="40.248150" lon="-4.883350">
        <ele>1084.0</ele>
        <time>2018-09-15T13:05:33Z</time>
      </trkpt>
      <trkpt lat="40.248117" lon="-4.883300">
        <ele>1085.0</ele>
        <time>2018-09-15T13:05:34Z</time>
      </trkpt>
      <trkpt lat="40.248083" lon="-4.883250">
        <ele>1084.0</ele>
        <time>2018-09-15T13:05:35Z</time>
      </trkpt>
      <trkpt lat="40.248050" lon="-4.883200">
        <ele>1085.0</ele>
        <time>2018-09-15T13:05:36Z</time>
      </trkpt>
      <trkpt lat="40.248033" lon="-4.883150">
        <ele>1085.0</ele>
        <time>2018-09-15T13:05:37Z</time>
      </trkpt>
      <trkpt lat="40.248033" lon="-4.883100">
        <ele>1085.0</ele>
        <time>2018-09-15T13:05:38Z</time>
      </trkpt>
      <trkpt lat="40.248017" lon="-4.883050">
        <ele>1085.0</ele>
        <time>2018-09-15T13:05:39Z</time>
      </trkpt>
      <trkpt lat="40.248000" lon="-4.882983">
        <ele>1084.0</ele>
        <time>2018-09-15T13:05:40Z</time>
      </trkpt>
      <trkpt lat="40.247967" lon="-4.882917">
        <ele>1083.0</ele>
        <time>2018-09-15T13:05:41Z</time>
      </trkpt>
      <trkpt lat="40.247950" lon="-4.882833">
        <ele>1084.0</ele>
        <time>2018-09-15T13:05:42Z</time>
      </trkpt>
      <trkpt lat="40.247933" lon="-4.882783">
        <ele>1084.0</ele>
        <time>2018-09-15T13:05:43Z</time>
      </trkpt>
      <trkpt lat="40.247917" lon="-4.882717">
        <ele>1084.0</ele>
        <time>2018-09-15T13:05:44Z</time>
      </trkpt>
      <trkpt lat="40.247900" lon="-4.882667">
        <ele>1084.0</ele>
        <time>2018-09-15T13:05:45Z</time>
      </trkpt>
      <trkpt lat="40.247883" lon="-4.882600">
        <ele>1084.0</ele>
        <time>2018-09-15T13:05:46Z</time>
      </trkpt>
      <trkpt lat="40.247867" lon="-4.882533">
        <ele>1083.0</ele>
        <time>2018-09-15T13:05:47Z</time>
      </trkpt>
      <trkpt lat="40.247833" lon="-4.882467">
        <ele>1082.0</ele>
        <time>2018-09-15T13:05:48Z</time>
      </trkpt>
      <trkpt lat="40.247817" lon="-4.882400">
        <ele>1082.0</ele>
        <time>2018-09-15T13:05:49Z</time>
      </trkpt>
      <trkpt lat="40.247800" lon="-4.882317">
        <ele>1080.0</ele>
        <time>2018-09-15T13:05:50Z</time>
      </trkpt>
      <trkpt lat="40.247783" lon="-4.882250">
        <ele>1078.0</ele>
        <time>2018-09-15T13:05:51Z</time>
      </trkpt>
      <trkpt lat="40.247767" lon="-4.882167">
        <ele>1076.0</ele>
        <time>2018-09-15T13:05:52Z</time>
      </trkpt>
      <trkpt lat="40.247750" lon="-4.882100">
        <ele>1074.0</ele>
        <time>2018-09-15T13:05:53Z</time>
      </trkpt>
      <trkpt lat="40.247717" lon="-4.882050">
        <ele>1071.0</ele>
        <time>2018-09-15T13:05:54Z</time>
      </trkpt>
      <trkpt lat="40.247650" lon="-4.881983">
        <ele>1068.0</ele>
        <time>2018-09-15T13:05:55Z</time>
      </trkpt>
      <trkpt lat="40.247600" lon="-4.881917">
        <ele>1065.0</ele>
        <time>2018-09-15T13:05:56Z</time>
      </trkpt>
      <trkpt lat="40.247533" lon="-4.881867">
        <ele>1063.0</ele>
        <time>2018-09-15T13:05:57Z</time>
      </trkpt>
      <trkpt lat="40.247500" lon="-4.881833">
        <ele>1063.0</ele>
        <time>2018-09-15T13:05:58Z</time>
      </trkpt>
      <trkpt lat="40.247467" lon="-4.881783">
        <ele>1063.0</ele>
        <time>2018-09-15T13:05:59Z</time>
      </trkpt>
      <trkpt lat="40.247433" lon="-4.881750">
        <ele>1062.0</ele>
        <time>2018-09-15T13:06:00Z</time>
      </trkpt>
      <trkpt lat="40.247383" lon="-4.881700">
        <ele>1060.0</ele>
        <time>2018-09-15T13:06:01Z</time>
      </trkpt>
      <trkpt lat="40.247317" lon="-4.881667">
        <ele>1058.0</ele>
        <time>2018-09-15T13:06:02Z</time>
      </trkpt>
      <trkpt lat="40.247233" lon="-4.881650">
        <ele>1057.0</ele>
        <time>2018-09-15T13:06:03Z</time>
      </trkpt>
      <trkpt lat="40.247167" lon="-4.881650">
        <ele>1055.0</ele>
        <time>2018-09-15T13:06:04Z</time>
      </trkpt>
      <trkpt lat="40.247117" lon="-4.881633">
        <ele>1055.0</ele>
        <time>2018-09-15T13:06:05Z</time>
      </trkpt>
      <trkpt lat="40.247050" lon="-4.881617">
        <ele>1053.0</ele>
        <time>2018-09-15T13:06:06Z</time>
      </trkpt>
      <trkpt lat="40.246983" lon="-4.881617">
        <ele>1052.0</ele>
        <time>2018-09-15T13:06:07Z</time>
      </trkpt>
      <trkpt lat="40.246900" lon="-4.881600">
        <ele>1049.0</ele>
        <time>2018-09-15T13:06:08Z</time>
      </trkpt>
      <trkpt lat="40.246817" lon="-4.881583">
        <ele>1046.0</ele>
        <time>2018-09-15T13:06:09Z</time>
      </trkpt>
      <trkpt lat="40.246733" lon="-4.881600">
        <ele>1045.0</ele>
        <time>2018-09-15T13:06:10Z</time>
      </trkpt>
      <trkpt lat="40.246667" lon="-4.881633">
        <ele>1044.0</ele>
        <time>2018-09-15T13:06:11Z</time>
      </trkpt>
      <trkpt lat="40.246583" lon="-4.881683">
        <ele>1043.0</ele>
        <time>2018-09-15T13:06:12Z</time>
      </trkpt>
      <trkpt lat="40.246517" lon="-4.881717">
        <ele>1042.0</ele>
        <time>2018-09-15T13:06:13Z</time>
      </trkpt>
      <trkpt lat="40.246433" lon="-4.881750">
        <ele>1040.0</ele>
        <time>2018-09-15T13:06:14Z</time>
      </trkpt>
      <trkpt lat="40.246350" lon="-4.881800">
        <ele>1039.0</ele>
        <time>2018-09-15T13:06:15Z</time>
      </trkpt>
      <trkpt lat="40.246283" lon="-4.881850">
        <ele>1038.0</ele>
        <time>2018-09-15T13:06:16Z</time>
      </trkpt>
      <trkpt lat="40.246200" lon="-4.881900">
        <ele>1037.0</ele>
        <time>2018-09-15T13:06:17Z</time>
      </trkpt>
      <trkpt lat="40.246117" lon="-4.881950">
        <ele>1036.0</ele>
        <time>2018-09-15T13:06:18Z</time>
      </trkpt>
      <trkpt lat="40.246033" lon="-4.882000">
        <ele>1035.0</ele>
        <time>2018-09-15T13:06:19Z</time>
      </trkpt>
      <trkpt lat="40.245950" lon="-4.882050">
        <ele>1034.0</ele>
        <time>2018-09-15T13:06:20Z</time>
      </trkpt>
      <trkpt lat="40.245883" lon="-4.882100">
        <ele>1032.0</ele>
        <time>2018-09-15T13:06:21Z</time>
      </trkpt>
      <trkpt lat="40.245783" lon="-4.882167">
        <ele>1030.0</ele>
        <time>2018-09-15T13:06:22Z</time>
      </trkpt>
      <trkpt lat="40.245683" lon="-4.882217">
        <ele>1028.0</ele>
        <time>2018-09-15T13:06:23Z</time>
      </trkpt>
      <trkpt lat="40.245583" lon="-4.882267">
        <ele>1026.0</ele>
        <time>2018-09-15T13:06:24Z</time>
      </trkpt>
      <trkpt lat="40.245500" lon="-4.882317">
        <ele>1025.0</ele>
        <time>2018-09-15T13:06:25Z</time>
      </trkpt>
      <trkpt lat="40.245417" lon="-4.882367">
        <ele>1024.0</ele>
        <time>2018-09-15T13:06:26Z</time>
      </trkpt>
      <trkpt lat="40.245333" lon="-4.882433">
        <ele>1024.0</ele>
        <time>2018-09-15T13:06:27Z</time>
      </trkpt>
      <trkpt lat="40.245250" lon="-4.882517">
        <ele>1024.0</ele>
        <time>2018-09-15T13:06:28Z</time>
      </trkpt>
      <trkpt lat="40.245167" lon="-4.882600">
        <ele>1023.0</ele>
        <time>2018-09-15T13:06:29Z</time>
      </trkpt>
      <trkpt lat="40.245100" lon="-4.882667">
        <ele>1021.0</ele>
        <time>2018-09-15T13:06:30Z</time>
      </trkpt>
      <trkpt lat="40.245050" lon="-4.882750">
        <ele>1022.0</ele>
        <time>2018-09-15T13:06:31Z</time>
      </trkpt>
      <trkpt lat="40.244983" lon="-4.882817">
        <ele>1022.0</ele>
        <time>2018-09-15T13:06:32Z</time>
      </trkpt>
      <trkpt lat="40.244917" lon="-4.882883">
        <ele>1022.0</ele>
        <time>2018-09-15T13:06:33Z</time>
      </trkpt>
      <trkpt lat="40.244850" lon="-4.882950">
        <ele>1021.0</ele>
        <time>2018-09-15T13:06:34Z</time>
      </trkpt>
      <trkpt lat="40.244783" lon="-4.883017">
        <ele>1021.0</ele>
        <time>2018-09-15T13:06:35Z</time>
      </trkpt>
      <trkpt lat="40.244733" lon="-4.883100">
        <ele>1021.0</ele>
        <time>2018-09-15T13:06:36Z</time>
      </trkpt>
      <trkpt lat="40.244683" lon="-4.883217">
        <ele>1020.0</ele>
        <time>2018-09-15T13:06:37Z</time>
      </trkpt>
      <trkpt lat="40.244633" lon="-4.883333">
        <ele>1020.0</ele>
        <time>2018-09-15T13:06:38Z</time>
      </trkpt>
      <trkpt lat="40.244567" lon="-4.883483">
        <ele>1017.0</ele>
        <time>2018-09-15T13:06:39Z</time>
      </trkpt>
      <trkpt lat="40.244517" lon="-4.883633">
        <ele>1016.0</ele>
        <time>2018-09-15T13:06:40Z</time>
      </trkpt>
      <trkpt lat="40.244483" lon="-4.883800">
        <ele>1018.0</ele>
        <time>2018-09-15T13:06:41Z</time>
      </trkpt>
      <trkpt lat="40.244450" lon="-4.883933">
        <ele>1021.0</ele>
        <time>2018-09-15T13:06:42Z</time>
      </trkpt>
      <trkpt lat="40.244433" lon="-4.884050">
        <ele>1024.0</ele>
        <time>2018-09-15T13:06:43Z</time>
      </trkpt>
      <trkpt lat="40.244417" lon="-4.884167">
        <ele>1025.0</ele>
        <time>2018-09-15T13:06:44Z</time>
      </trkpt>
      <trkpt lat="40.244417" lon="-4.884300">
        <ele>1027.0</ele>
        <time>2018-09-15T13:06:45Z</time>
      </trkpt>
      <trkpt lat="40.244433" lon="-4.884433">
        <ele>1028.0</ele>
        <time>2018-09-15T13:06:46Z</time>
      </trkpt>
      <trkpt lat="40.244500" lon="-4.884567">
        <ele>1028.0</ele>
        <time>2018-09-15T13:06:47Z</time>
      </trkpt>
      <trkpt lat="40.244583" lon="-4.884667">
        <ele>1027.0</ele>
        <time>2018-09-15T13:06:48Z</time>
      </trkpt>
      <trkpt lat="40.244650" lon="-4.884717">
        <ele>1026.0</ele>
        <time>2018-09-15T13:06:49Z</time>
      </trkpt>
      <trkpt lat="40.244717" lon="-4.884717">
        <ele>1024.0</ele>
        <time>2018-09-15T13:06:50Z</time>
      </trkpt>
      <trkpt lat="40.244783" lon="-4.884700">
        <ele>1022.0</ele>
        <time>2018-09-15T13:06:51Z</time>
      </trkpt>
      <trkpt lat="40.244833" lon="-4.884650">
        <ele>1021.0</ele>
        <time>2018-09-15T13:06:52Z</time>
      </trkpt>
      <trkpt lat="40.244867" lon="-4.884583">
        <ele>1020.0</ele>
        <time>2018-09-15T13:06:53Z</time>
      </trkpt>
      <trkpt lat="40.244883" lon="-4.884533">
        <ele>1019.0</ele>
        <time>2018-09-15T13:06:54Z</time>
      </trkpt>
      <trkpt lat="40.244917" lon="-4.884500">
        <ele>1019.0</ele>
        <time>2018-09-15T13:06:55Z</time>
      </trkpt>
      <trkpt lat="40.244933" lon="-4.884467">
        <ele>1020.0</ele>
        <time>2018-09-15T13:06:56Z</time>
      </trkpt>
      <trkpt lat="40.244933" lon="-4.884450">
        <ele>1020.0</ele>
        <time>2018-09-15T13:06:57Z</time>
      </trkpt>
      <trkpt lat="40.244933" lon="-4.884433">
        <ele>1020.0</ele>
        <time>2018-09-15T13:06:58Z</time>
      </trkpt>
      <trkpt lat="40.244900" lon="-4.884400">
        <ele>1020.0</ele>
        <time>2018-09-15T13:06:59Z</time>
      </trkpt>
      <trkpt lat="40.244883" lon="-4.884350">
        <ele>1020.0</ele>
        <time>2018-09-15T13:07:00Z</time>
      </trkpt>
      <trkpt lat="40.244850" lon="-4.884317">
        <ele>1020.0</ele>
        <time>2018-09-15T13:07:01Z</time>
      </trkpt>
      <trkpt lat="40.244817" lon="-4.884283">
        <ele>1020.0</ele>
        <time>2018-09-15T13:07:02Z</time>
      </trkpt>
      <trkpt lat="40.244783" lon="-4.884250">
        <ele>1021.0</ele>
        <time>2018-09-15T13:07:03Z</time>
      </trkpt>
      <trkpt lat="40.244733" lon="-4.884233">
        <ele>1022.0</ele>
        <time>2018-09-15T13:07:04Z</time>
      </trkpt>
      <trkpt lat="40.244717" lon="-4.884200">
        <ele>1023.0</ele>
        <time>2018-09-15T13:07:05Z</time>
      </trkpt>
      <trkpt lat="40.244683" lon="-4.884150">
        <ele>1023.0</ele>
        <time>2018-09-15T13:07:06Z</time>
      </trkpt>
      <trkpt lat="40.244667" lon="-4.884100">
        <ele>1023.0</ele>
        <time>2018-09-15T13:07:07Z</time>
      </trkpt>
      <trkpt lat="40.244667" lon="-4.884033">
        <ele>1024.0</ele>
        <time>2018-09-15T13:07:08Z</time>
      </trkpt>
      <trkpt lat="40.244667" lon="-4.883983">
        <ele>1025.0</ele>
        <time>2018-09-15T13:07:09Z</time>
      </trkpt>
      <trkpt lat="40.244667" lon="-4.883933">
        <ele>1026.0</ele>
        <time>2018-09-15T13:07:10Z</time>
      </trkpt>
      <trkpt lat="40.244667" lon="-4.883883">
        <ele>1028.0</ele>
        <time>2018-09-15T13:07:11Z</time>
      </trkpt>
      <trkpt lat="40.244683" lon="-4.883817">
        <ele>1029.0</ele>
        <time>2018-09-15T13:07:12Z</time>
      </trkpt>
      <trkpt lat="40.244700" lon="-4.883767">
        <ele>1030.0</ele>
        <time>2018-09-15T13:07:13Z</time>
      </trkpt>
      <trkpt lat="40.244733" lon="-4.883700">
        <ele>1032.0</ele>
        <time>2018-09-15T13:07:14Z</time>
      </trkpt>
      <trkpt lat="40.244750" lon="-4.883650">
        <ele>1031.0</ele>
        <time>2018-09-15T13:07:15Z</time>
      </trkpt>
      <trkpt lat="40.244733" lon="-4.883600">
        <ele>1032.0</ele>
        <time>2018-09-15T13:07:16Z</time>
      </trkpt>
      <trkpt lat="40.244700" lon="-4.883550">
        <ele>1032.0</ele>
        <time>2018-09-15T13:07:17Z</time>
      </trkpt>
      <trkpt lat="40.244633" lon="-4.883500">
        <ele>1032.0</ele>
        <time>2018-09-15T13:07:18Z</time>
      </trkpt>
      <trkpt lat="40.244550" lon="-4.883500">
        <ele>1032.0</ele>
        <time>2018-09-15T13:07:19Z</time>
      </trkpt>
      <trkpt lat="40.244483" lon="-4.883550">
        <ele>1032.0</ele>
        <time>2018-09-15T13:07:20Z</time>
      </trkpt>
      <trkpt lat="40.244433" lon="-4.883650">
        <ele>1032.0</ele>
        <time>2018-09-15T13:07:21Z</time>
      </trkpt>
      <trkpt lat="40.244417" lon="-4.883800">
        <ele>1032.0</ele>
        <time>2018-09-15T13:07:22Z</time>
      </trkpt>
      <trkpt lat="40.244417" lon="-4.883950">
        <ele>1033.0</ele>
        <time>2018-09-15T13:07:23Z</time>
      </trkpt>
      <trkpt lat="40.244467" lon="-4.884067">
        <ele>1034.0</ele>
        <time>2018-09-15T13:07:24Z</time>
      </trkpt>
      <trkpt lat="40.244533" lon="-4.884167">
        <ele>1034.0</ele>
        <time>2018-09-15T13:07:25Z</time>
      </trkpt>
      <trkpt lat="40.244617" lon="-4.884233">
        <ele>1035.0</ele>
        <time>2018-09-15T13:07:26Z</time>
      </trkpt>
      <trkpt lat="40.244700" lon="-4.884283">
        <ele>1036.0</ele>
        <time>2018-09-15T13:07:27Z</time>
      </trkpt>
      <trkpt lat="40.244800" lon="-4.884300">
        <ele>1037.0</ele>
        <time>2018-09-15T13:07:28Z</time>
      </trkpt>
      <trkpt lat="40.244850" lon="-4.884300">
        <ele>1038.0</ele>
        <time>2018-09-15T13:07:29Z</time>
      </trkpt>
      <trkpt lat="40.244883" lon="-4.884250">
        <ele>1036.0</ele>
        <time>2018-09-15T13:07:30Z</time>
      </trkpt>
      <trkpt lat="40.244883" lon="-4.884167">
        <ele>1036.0</ele>
        <time>2018-09-15T13:07:31Z</time>
      </trkpt>
      <trkpt lat="40.244850" lon="-4.884100">
        <ele>1036.0</ele>
        <time>2018-09-15T13:07:32Z</time>
      </trkpt>
      <trkpt lat="40.244800" lon="-4.884033">
        <ele>1037.0</ele>
        <time>2018-09-15T13:07:33Z</time>
      </trkpt>
      <trkpt lat="40.244733" lon="-4.884017">
        <ele>1037.0</ele>
        <time>2018-09-15T13:07:34Z</time>
      </trkpt>
      <trkpt lat="40.244667" lon="-4.884033">
        <ele>1037.0</ele>
        <time>2018-09-15T13:07:35Z</time>
      </trkpt>
      <trkpt lat="40.244567" lon="-4.884083">
        <ele>1037.0</ele>
        <time>2018-09-15T13:07:36Z</time>
      </trkpt>
      <trkpt lat="40.244500" lon="-4.884183">
        <ele>1038.0</ele>
        <time>2018-09-15T13:07:37Z</time>
      </trkpt>
      <trkpt lat="40.244433" lon="-4.884300">
        <ele>1038.0</ele>
        <time>2018-09-15T13:07:38Z</time>
      </trkpt>
      <trkpt lat="40.244400" lon="-4.884433">
        <ele>1039.0</ele>
        <time>2018-09-15T13:07:39Z</time>
      </trkpt>
      <trkpt lat="40.244367" lon="-4.884583">
        <ele>1040.0</ele>
        <time>2018-09-15T13:07:40Z</time>
      </trkpt>
      <trkpt lat="40.244367" lon="-4.884717">
        <ele>1041.0</ele>
        <time>2018-09-15T13:07:41Z</time>
      </trkpt>
      <trkpt lat="40.244383" lon="-4.884867">
        <ele>1043.0</ele>
        <time>2018-09-15T13:07:42Z</time>
      </trkpt>
      <trkpt lat="40.244450" lon="-4.884983">
        <ele>1043.0</ele>
        <time>2018-09-15T13:07:43Z</time>
      </trkpt>
      <trkpt lat="40.244550" lon="-4.885083">
        <ele>1044.0</ele>
        <time>2018-09-15T13:07:44Z</time>
      </trkpt>
      <trkpt lat="40.244667" lon="-4.885150">
        <ele>1044.0</ele>
        <time>2018-09-15T13:07:45Z</time>
      </trkpt>
      <trkpt lat="40.244767" lon="-4.885133">
        <ele>1045.0</ele>
        <time>2018-09-15T13:07:46Z</time>
      </trkpt>
      <trkpt lat="40.244850" lon="-4.885083">
        <ele>1047.0</ele>
        <time>2018-09-15T13:07:47Z</time>
      </trkpt>
      <trkpt lat="40.244883" lon="-4.885000">
        <ele>1048.0</ele>
        <time>2018-09-15T13:07:48Z</time>
      </trkpt>
      <trkpt lat="40.244883" lon="-4.884917">
        <ele>1049.0</ele>
        <time>2018-09-15T13:07:49Z</time>
      </trkpt>
      <trkpt lat="40.244867" lon="-4.884850">
        <ele>1050.0</ele>
        <time>2018-09-15T13:07:50Z</time>
      </trkpt>
      <trkpt lat="40.244833" lon="-4.884783">
        <ele>1052.0</ele>
        <time>2018-09-15T13:07:51Z</time>
      </trkpt>
      <trkpt lat="40.244783" lon="-4.884733">
        <ele>1053.0</ele>
        <time>2018-09-15T13:07:52Z</time>
      </trkpt>
      <trkpt lat="40.244700" lon="-4.884700">
        <ele>1053.0</ele>
        <time>2018-09-15T13:07:53Z</time>
      </trkpt>
      <trkpt lat="40.244617" lon="-4.884733">
        <ele>1054.0</ele>
        <time>2018-09-15T13:07:54Z</time>
      </trkpt>
      <trkpt lat="40.244550" lon="-4.884817">
        <ele>1055.0</ele>
        <time>2018-09-15T13:07:55Z</time>
      </trkpt>
      <trkpt lat="40.244500" lon="-4.884950">
        <ele>1054.0</ele>
        <time>2018-09-15T13:07:56Z</time>
      </trkpt>
      <trkpt lat="40.244500" lon="-4.885100">
        <ele>1053.0</ele>
        <time>2018-09-15T13:07:57Z</time>
      </trkpt>
      <trkpt lat="40.244550" lon="-4.885250">
        <ele>1054.0</ele>
        <time>2018-09-15T13:07:58Z</time>
      </trkpt>
      <trkpt lat="40.244633" lon="-4.885367">
        <ele>1053.0</ele>
        <time>2018-09-15T13:07:59Z</time>
      </trkpt>
      <trkpt lat="40.244733" lon="-4.885417">
        <ele>1053.0</ele>
        <time>2018-09-15T13:08:00Z</time>
      </trkpt>
      <trkpt lat="40.244833" lon="-4.885433">
        <ele>1052.0</ele>
        <time>2018-09-15T13:08:01Z</time>
      </trkpt>
      <trkpt lat="40.244917" lon="-4.885400">
        <ele>1052.0</ele>
        <time>2018-09-15T13:08:02Z</time>
      </trkpt>
      <trkpt lat="40.244983" lon="-4.885333">
        <ele>1052.0</ele>
        <time>2018-09-15T13:08:03Z</time>
      </trkpt>
      <trkpt lat="40.245017" lon="-4.885250">
        <ele>1053.0</ele>
        <time>2018-09-15T13:08:04Z</time>
      </trkpt>
      <trkpt lat="40.245033" lon="-4.885167">
        <ele>1053.0</ele>
        <time>2018-09-15T13:08:05Z</time>
      </trkpt>
      <trkpt lat="40.245033" lon="-4.885083">
        <ele>1053.0</ele>
        <time>2018-09-15T13:08:06Z</time>
      </trkpt>
      <trkpt lat="40.245000" lon="-4.884983">
        <ele>1053.0</ele>
        <time>2018-09-15T13:08:07Z</time>
      </trkpt>
      <trkpt lat="40.244967" lon="-4.884900">
        <ele>1053.0</ele>
        <time>2018-09-15T13:08:08Z</time>
      </trkpt>
      <trkpt lat="40.244933" lon="-4.884817">
        <ele>1052.0</ele>
        <time>2018-09-15T13:08:09Z</time>
      </trkpt>
      <trkpt lat="40.244900" lon="-4.884733">
        <ele>1052.0</ele>
        <time>2018-09-15T13:08:10Z</time>
      </trkpt>
      <trkpt lat="40.244883" lon="-4.884650">
        <ele>1052.0</ele>
        <time>2018-09-15T13:08:11Z</time>
      </trkpt>
      <trkpt lat="40.244850" lon="-4.884583">
        <ele>1051.0</ele>
        <time>2018-09-15T13:08:12Z</time>
      </trkpt>
      <trkpt lat="40.244833" lon="-4.884500">
        <ele>1050.0</ele>
        <time>2018-09-15T13:08:13Z</time>
      </trkpt>
      <trkpt lat="40.244800" lon="-4.884417">
        <ele>1048.0</ele>
        <time>2018-09-15T13:08:14Z</time>
      </trkpt>
      <trkpt lat="40.244767" lon="-4.884333">
        <ele>1047.0</ele>
        <time>2018-09-15T13:08:15Z</time>
      </trkpt>
      <trkpt lat="40.244750" lon="-4.884233">
        <ele>1045.0</ele>
        <time>2018-09-15T13:08:16Z</time>
      </trkpt>
      <trkpt lat="40.244717" lon="-4.884150">
        <ele>1044.0</ele>
        <time>2018-09-15T13:08:17Z</time>
      </trkpt>
      <trkpt lat="40.244667" lon="-4.884067">
        <ele>1043.0</ele>
        <time>2018-09-15T13:08:18Z</time>
      </trkpt>
      <trkpt lat="40.244633" lon="-4.884000">
        <ele>1043.0</ele>
        <time>2018-09-15T13:08:19Z</time>
      </trkpt>
      <trkpt lat="40.244600" lon="-4.883933">
        <ele>1043.0</ele>
        <time>2018-09-15T13:08:20Z</time>
      </trkpt>
      <trkpt lat="40.244583" lon="-4.883883">
        <ele>1043.0</ele>
        <time>2018-09-15T13:08:21Z</time>
      </trkpt>
      <trkpt lat="40.244550" lon="-4.883800">
        <ele>1042.0</ele>
        <time>2018-09-15T13:08:22Z</time>
      </trkpt>
      <trkpt lat="40.244533" lon="-4.883717">
        <ele>1040.0</ele>
        <time>2018-09-15T13:08:23Z</time>
      </trkpt>
      <trkpt lat="40.244517" lon="-4.883617">
        <ele>1038.0</ele>
        <time>2018-09-15T13:08:24Z</time>
      </trkpt>
      <trkpt lat="40.244517" lon="-4.883517">
        <ele>1037.0</ele>
        <time>2018-09-15T13:08:25Z</time>
      </trkpt>
      <trkpt lat="40.244517" lon="-4.883433">
        <ele>1036.0</ele>
        <time>2018-09-15T13:08:26Z</time>
      </trkpt>
      <trkpt lat="40.244500" lon="-4.883367">
        <ele>1036.0</ele>
        <time>2018-09-15T13:08:27Z</time>
      </trkpt>
      <trkpt lat="40.244483" lon="-4.883300">
        <ele>1034.0</ele>
        <time>2018-09-15T13:08:28Z</time>
      </trkpt>
      <trkpt lat="40.244450" lon="-4.883217">
        <ele>1032.0</ele>
        <time>2018-09-15T13:08:29Z</time>
      </trkpt>
      <trkpt lat="40.244400" lon="-4.883150">
        <ele>1030.0</ele>
        <time>2018-09-15T13:08:30Z</time>
      </trkpt>
      <trkpt lat="40.244350" lon="-4.883100">
        <ele>1031.0</ele>
        <time>2018-09-15T13:08:31Z</time>
      </trkpt>
      <trkpt lat="40.244283" lon="-4.883067">
        <ele>1031.0</ele>
        <time>2018-09-15T13:08:32Z</time>
      </trkpt>
      <trkpt lat="40.244200" lon="-4.883100">
        <ele>1031.0</ele>
        <time>2018-09-15T13:08:33Z</time>
      </trkpt>
      <trkpt lat="40.244133" lon="-4.883167">
        <ele>1031.0</ele>
        <time>2018-09-15T13:08:34Z</time>
      </trkpt>
      <trkpt lat="40.244067" lon="-4.883233">
        <ele>1030.0</ele>
        <time>2018-09-15T13:08:35Z</time>
      </trkpt>
      <trkpt lat="40.244017" lon="-4.883300">
        <ele>1030.0</ele>
        <time>2018-09-15T13:08:36Z</time>
      </trkpt>
      <trkpt lat="40.243950" lon="-4.883333">
        <ele>1030.0</ele>
        <time>2018-09-15T13:08:37Z</time>
      </trkpt>
      <trkpt lat="40.243883" lon="-4.883400">
        <ele>1029.0</ele>
        <time>2018-09-15T13:08:38Z</time>
      </trkpt>
      <trkpt lat="40.243817" lon="-4.883500">
        <ele>1027.0</ele>
        <time>2018-09-15T13:08:39Z</time>
      </trkpt>
      <trkpt lat="40.243717" lon="-4.883567">
        <ele>1025.0</ele>
        <time>2018-09-15T13:08:40Z</time>
      </trkpt>
      <trkpt lat="40.243650" lon="-4.883650">
        <ele>1022.0</ele>
        <time>2018-09-15T13:08:41Z</time>
      </trkpt>
      <trkpt lat="40.243600" lon="-4.883717">
        <ele>1020.0</ele>
        <time>2018-09-15T13:08:42Z</time>
      </trkpt>
      <trkpt lat="40.243550" lon="-4.883767">
        <ele>1018.0</ele>
        <time>2018-09-15T13:08:43Z</time>
      </trkpt>
      <trkpt lat="40.243500" lon="-4.883817">
        <ele>1016.0</ele>
        <time>2018-09-15T13:08:44Z</time>
      </trkpt>
      <trkpt lat="40.243450" lon="-4.883883">
        <ele>1012.0</ele>
        <time>2018-09-15T13:08:45Z</time>
      </trkpt>
      <trkpt lat="40.243383" lon="-4.883950">
        <ele>1007.0</ele>
        <time>2018-09-15T13:08:46Z</time>
      </trkpt>
      <trkpt lat="40.243317" lon="-4.884033">
        <ele>1003.0</ele>
        <time>2018-09-15T13:08:47Z</time>
      </trkpt>
      <trkpt lat="40.243267" lon="-4.884100">
        <ele>1000.0</ele>
        <time>2018-09-15T13:08:48Z</time>
      </trkpt>
      <trkpt lat="40.243200" lon="-4.884183">
        <ele>996.0</ele>
        <time>2018-09-15T13:08:49Z</time>
      </trkpt>
      <trkpt lat="40.243150" lon="-4.884250">
        <ele>992.0</ele>
        <time>2018-09-15T13:08:50Z</time>
      </trkpt>
      <trkpt lat="40.243083" lon="-4.884317">
        <ele>988.0</ele>
        <time>2018-09-15T13:08:51Z</time>
      </trkpt>
      <trkpt lat="40.243033" lon="-4.884400">
        <ele>983.0</ele>
        <time>2018-09-15T13:08:52Z</time>
      </trkpt>
      <trkpt lat="40.242950" lon="-4.884467">
        <ele>979.0</ele>
        <time>2018-09-15T13:08:53Z</time>
      </trkpt>
      <trkpt lat="40.242867" lon="-4.884550">
        <ele>974.0</ele>
        <time>2018-09-15T13:08:54Z</time>
      </trkpt>
      <trkpt lat="40.242800" lon="-4.884617">
        <ele>972.0</ele>
        <time>2018-09-15T13:08:55Z</time>
      </trkpt>
      <trkpt lat="40.242733" lon="-4.884700">
        <ele>968.0</ele>
        <time>2018-09-15T13:08:56Z</time>
      </trkpt>
      <trkpt lat="40.242667" lon="-4.884767">
        <ele>966.0</ele>
        <time>2018-09-15T13:08:57Z</time>
      </trkpt>
      <trkpt lat="40.242583" lon="-4.884850">
        <ele>963.0</ele>
        <time>2018-09-15T13:08:58Z</time>
      </trkpt>
      <trkpt lat="40.242517" lon="-4.884917">
        <ele>961.0</ele>
        <time>2018-09-15T13:08:59Z</time>
      </trkpt>
      <trkpt lat="40.242450" lon="-4.884983">
        <ele>959.0</ele>
        <time>2018-09-15T13:09:00Z</time>
      </trkpt>
      <trkpt lat="40.242400" lon="-4.885050">
        <ele>957.0</ele>
        <time>2018-09-15T13:09:01Z</time>
      </trkpt>
      <trkpt lat="40.242333" lon="-4.885117">
        <ele>956.0</ele>
        <time>2018-09-15T13:09:02Z</time>
      </trkpt>
      <trkpt lat="40.242283" lon="-4.885183">
        <ele>955.0</ele>
        <time>2018-09-15T13:09:03Z</time>
      </trkpt>
      <trkpt lat="40.242217" lon="-4.885250">
        <ele>953.0</ele>
        <time>2018-09-15T13:09:04Z</time>
      </trkpt>
      <trkpt lat="40.242150" lon="-4.885317">
        <ele>951.0</ele>
        <time>2018-09-15T13:09:05Z</time>
      </trkpt>
      <trkpt lat="40.242100" lon="-4.885367">
        <ele>949.0</ele>
        <time>2018-09-15T13:09:06Z</time>
      </trkpt>
      <trkpt lat="40.242033" lon="-4.885417">
        <ele>947.0</ele>
        <time>2018-09-15T13:09:07Z</time>
      </trkpt>
      <trkpt lat="40.241967" lon="-4.885467">
        <ele>944.0</ele>
        <time>2018-09-15T13:09:08Z</time>
      </trkpt>
      <trkpt lat="40.241883" lon="-4.885517">
        <ele>942.0</ele>
        <time>2018-09-15T13:09:09Z</time>
      </trkpt>
      <trkpt lat="40.241800" lon="-4.885567">
        <ele>940.0</ele>
        <time>2018-09-15T13:09:10Z</time>
      </trkpt>
      <trkpt lat="40.241717" lon="-4.885617">
        <ele>938.0</ele>
        <time>2018-09-15T13:09:11Z</time>
      </trkpt>
      <trkpt lat="40.241633" lon="-4.885683">
        <ele>936.0</ele>
        <time>2018-09-15T13:09:12Z</time>
      </trkpt>
      <trkpt lat="40.241567" lon="-4.885733">
        <ele>934.0</ele>
        <time>2018-09-15T13:09:13Z</time>
      </trkpt>
      <trkpt lat="40.241483" lon="-4.885783">
        <ele>932.0</ele>
        <time>2018-09-15T13:09:14Z</time>
      </trkpt>
      <trkpt lat="40.241417" lon="-4.885833">
        <ele>930.0</ele>
        <time>2018-09-15T13:09:15Z</time>
      </trkpt>
      <trkpt lat="40.241333" lon="-4.885867">
        <ele>928.0</ele>
        <time>2018-09-15T13:09:16Z</time>
      </trkpt>
      <trkpt lat="40.241250" lon="-4.885917">
        <ele>925.0</ele>
        <time>2018-09-15T13:09:17Z</time>
      </trkpt>
      <trkpt lat="40.241167" lon="-4.885967">
        <ele>923.0</ele>
        <time>2018-09-15T13:09:18Z</time>
      </trkpt>
      <trkpt lat="40.241067" lon="-4.886017">
        <ele>920.0</ele>
        <time>2018-09-15T13:09:19Z</time>
      </trkpt>
      <trkpt lat="40.240967" lon="-4.886083">
        <ele>919.0</ele>
        <time>2018-09-15T13:09:20Z</time>
      </trkpt>
      <trkpt lat="40.240883" lon="-4.886133">
        <ele>921.0</ele>
        <time>2018-09-15T13:09:21Z</time>
      </trkpt>
      <trkpt lat="40.240817" lon="-4.886200">
        <ele>923.0</ele>
        <time>2018-09-15T13:09:22Z</time>
      </trkpt>
      <trkpt lat="40.240750" lon="-4.886233">
        <ele>923.0</ele>
        <time>2018-09-15T13:09:23Z</time>
      </trkpt>
      <trkpt lat="40.240667" lon="-4.886283">
        <ele>922.0</ele>
        <time>2018-09-15T13:09:24Z</time>
      </trkpt>
      <trkpt lat="40.240583" lon="-4.886300">
        <ele>920.0</ele>
        <time>2018-09-15T13:09:25Z</time>
      </trkpt>
      <trkpt lat="40.240517" lon="-4.886300">
        <ele>919.0</ele>
        <time>2018-09-15T13:09:26Z</time>
      </trkpt>
      <trkpt lat="40.240450" lon="-4.886250">
        <ele>918.0</ele>
        <time>2018-09-15T13:09:27Z</time>
      </trkpt>
      <trkpt lat="40.240433" lon="-4.886167">
        <ele>915.0</ele>
        <time>2018-09-15T13:09:28Z</time>
      </trkpt>
      <trkpt lat="40.240433" lon="-4.886083">
        <ele>914.0</ele>
        <time>2018-09-15T13:09:29Z</time>
      </trkpt>
      <trkpt lat="40.240467" lon="-4.886017">
        <ele>913.0</ele>
        <time>2018-09-15T13:09:30Z</time>
      </trkpt>
      <trkpt lat="40.240517" lon="-4.885983">
        <ele>912.0</ele>
        <time>2018-09-15T13:09:31Z</time>
      </trkpt>
      <trkpt lat="40.240567" lon="-4.885933">
        <ele>911.0</ele>
        <time>2018-09-15T13:09:32Z</time>
      </trkpt>
      <trkpt lat="40.240633" lon="-4.885883">
        <ele>910.0</ele>
        <time>2018-09-15T13:09:33Z</time>
      </trkpt>
      <trkpt lat="40.240717" lon="-4.885850">
        <ele>909.0</ele>
        <time>2018-09-15T13:09:34Z</time>
      </trkpt>
      <trkpt lat="40.240800" lon="-4.885817">
        <ele>908.0</ele>
        <time>2018-09-15T13:09:35Z</time>
      </trkpt>
      <trkpt lat="40.240900" lon="-4.885833">
        <ele>908.0</ele>
        <time>2018-09-15T13:09:36Z</time>
      </trkpt>
      <trkpt lat="40.240967" lon="-4.885883">
        <ele>909.0</ele>
        <time>2018-09-15T13:09:37Z</time>
      </trkpt>
      <trkpt lat="40.241033" lon="-4.885933">
        <ele>909.0</ele>
        <time>2018-09-15T13:09:38Z</time>
      </trkpt>
      <trkpt lat="40.241117" lon="-4.885967">
        <ele>911.0</ele>
        <time>2018-09-15T13:09:39Z</time>
      </trkpt>
      <trkpt lat="40.241200" lon="-4.885983">
        <ele>911.0</ele>
        <time>2018-09-15T13:09:40Z</time>
      </trkpt>
      <trkpt lat="40.241300" lon="-4.886000">
        <ele>911.0</ele>
        <time>2018-09-15T13:09:41Z</time>
      </trkpt>
      <trkpt lat="40.241383" lon="-4.886000">
        <ele>912.0</ele>
        <time>2018-09-15T13:09:42Z</time>
      </trkpt>
      <trkpt lat="40.241483" lon="-4.886000">
        <ele>913.0</ele>
        <time>2018-09-15T13:09:43Z</time>
      </trkpt>
      <trkpt lat="40.241550" lon="-4.886000">
        <ele>917.0</ele>
        <time>2018-09-15T13:09:44Z</time>
      </trkpt>
      <trkpt lat="40.241633" lon="-4.886000">
        <ele>920.0</ele>
        <time>2018-09-15T13:09:45Z</time>
      </trkpt>
      <trkpt lat="40.241717" lon="-4.886017">
        <ele>922.0</ele>
        <time>2018-09-15T13:09:46Z</time>
      </trkpt>
      <trkpt lat="40.241817" lon="-4.886033">
        <ele>924.0</ele>
        <time>2018-09-15T13:09:47Z</time>
      </trkpt>
      <trkpt lat="40.241900" lon="-4.886067">
        <ele>925.0</ele>
        <time>2018-09-15T13:09:48Z</time>
      </trkpt>
      <trkpt lat="40.242000" lon="-4.886067">
        <ele>927.0</ele>
        <time>2018-09-15T13:09:49Z</time>
      </trkpt>
      <trkpt lat="40.242100" lon="-4.886017">
        <ele>928.0</ele>
        <time>2018-09-15T13:09:50Z</time>
      </trkpt>
      <trkpt lat="40.242150" lon="-4.885950">
        <ele>929.0</ele>
        <time>2018-09-15T13:09:51Z</time>
      </trkpt>
      <trkpt lat="40.242183" lon="-4.885850">
        <ele>929.0</ele>
        <time>2018-09-15T13:09:52Z</time>
      </trkpt>
      <trkpt lat="40.242167" lon="-4.885750">
        <ele>930.0</ele>
        <time>2018-09-15T13:09:53Z</time>
      </trkpt>
      <trkpt lat="40.242117" lon="-4.885683">
        <ele>931.0</ele>
        <time>2018-09-15T13:09:54Z</time>
      </trkpt>
      <trkpt lat="40.242050" lon="-4.885683">
        <ele>932.0</ele>
        <time>2018-09-15T13:09:55Z</time>
      </trkpt>
      <trkpt lat="40.241983" lon="-4.885750">
        <ele>934.0</ele>
        <time>2018-09-15T13:09:56Z</time>
      </trkpt>
      <trkpt lat="40.241950" lon="-4.885883">
        <ele>932.0</ele>
        <time>2018-09-15T13:09:57Z</time>
      </trkpt>
      <trkpt lat="40.241983" lon="-4.886050">
        <ele>932.0</ele>
        <time>2018-09-15T13:09:58Z</time>
      </trkpt>
      <trkpt lat="40.242050" lon="-4.886183">
        <ele>933.0</ele>
        <time>2018-09-15T13:09:59Z</time>
      </trkpt>
      <trkpt lat="40.242150" lon="-4.886267">
        <ele>935.0</ele>
        <time>2018-09-15T13:10:00Z</time>
      </trkpt>
      <trkpt lat="40.242250" lon="-4.886317">
        <ele>937.0</ele>
        <time>2018-09-15T13:10:01Z</time>
      </trkpt>
      <trkpt lat="40.242333" lon="-4.886333">
        <ele>939.0</ele>
        <time>2018-09-15T13:10:02Z</time>
      </trkpt>
      <trkpt lat="40.242400" lon="-4.886350">
        <ele>941.0</ele>
        <time>2018-09-15T13:10:03Z</time>
      </trkpt>
      <trkpt lat="40.242500" lon="-4.886383">
        <ele>943.0</ele>
        <time>2018-09-15T13:10:04Z</time>
      </trkpt>
      <trkpt lat="40.242583" lon="-4.886383">
        <ele>944.0</ele>
        <time>2018-09-15T13:10:05Z</time>
      </trkpt>
      <trkpt lat="40.242667" lon="-4.886367">
        <ele>945.0</ele>
        <time>2018-09-15T13:10:06Z</time>
      </trkpt>
      <trkpt lat="40.242717" lon="-4.886300">
        <ele>943.0</ele>
        <time>2018-09-15T13:10:07Z</time>
      </trkpt>
      <trkpt lat="40.242750" lon="-4.886183">
        <ele>941.0</ele>
        <time>2018-09-15T13:10:08Z</time>
      </trkpt>
      <trkpt lat="40.242733" lon="-4.886100">
        <ele>942.0</ele>
        <time>2018-09-15T13:10:09Z</time>
      </trkpt>
      <trkpt lat="40.242700" lon="-4.886050">
        <ele>942.0</ele>
        <time>2018-09-15T13:10:10Z</time>
      </trkpt>
      <trkpt lat="40.242633" lon="-4.886050">
        <ele>943.0</ele>
        <time>2018-09-15T13:10:11Z</time>
      </trkpt>
      <trkpt lat="40.242567" lon="-4.886133">
        <ele>944.0</ele>
        <time>2018-09-15T13:10:12Z</time>
      </trkpt>
      <trkpt lat="40.242533" lon="-4.886267">
        <ele>944.0</ele>
        <time>2018-09-15T13:10:13Z</time>
      </trkpt>
      <trkpt lat="40.242533" lon="-4.886417">
        <ele>944.0</ele>
        <time>2018-09-15T13:10:14Z</time>
      </trkpt>
      <trkpt lat="40.242567" lon="-4.886550">
        <ele>944.0</ele>
        <time>2018-09-15T13:10:15Z</time>
      </trkpt>
      <trkpt lat="40.242650" lon="-4.886650">
        <ele>946.0</ele>
        <time>2018-09-15T13:10:16Z</time>
      </trkpt>
      <trkpt lat="40.242733" lon="-4.886733">
        <ele>948.0</ele>
        <time>2018-09-15T13:10:17Z</time>
      </trkpt>
      <trkpt lat="40.242833" lon="-4.886800">
        <ele>950.0</ele>
        <time>2018-09-15T13:10:18Z</time>
      </trkpt>
      <trkpt lat="40.242933" lon="-4.886817">
        <ele>954.0</ele>
        <time>2018-09-15T13:10:19Z</time>
      </trkpt>
      <trkpt lat="40.243050" lon="-4.886833">
        <ele>956.0</ele>
        <time>2018-09-15T13:10:20Z</time>
      </trkpt>
      <trkpt lat="40.243133" lon="-4.886800">
        <ele>958.0</ele>
        <time>2018-09-15T13:10:21Z</time>
      </trkpt>
      <trkpt lat="40.243217" lon="-4.886750">
        <ele>960.0</ele>
        <time>2018-09-15T13:10:22Z</time>
      </trkpt>
      <trkpt lat="40.243250" lon="-4.886650">
        <ele>961.0</ele>
        <time>2018-09-15T13:10:23Z</time>
      </trkpt>
      <trkpt lat="40.243233" lon="-4.886567">
        <ele>961.0</ele>
        <time>2018-09-15T13:10:24Z</time>
      </trkpt>
      <trkpt lat="40.243183" lon="-4.886517">
        <ele>962.0</ele>
        <time>2018-09-15T13:10:25Z</time>
      </trkpt>
      <trkpt lat="40.243100" lon="-4.886533">
        <ele>963.0</ele>
        <time>2018-09-15T13:10:26Z</time>
      </trkpt>
      <trkpt lat="40.243050" lon="-4.886583">
        <ele>964.0</ele>
        <time>2018-09-15T13:10:27Z</time>
      </trkpt>
      <trkpt lat="40.243000" lon="-4.886667">
        <ele>965.0</ele>
        <time>2018-09-15T13:10:28Z</time>
      </trkpt>
      <trkpt lat="40.242983" lon="-4.886767">
        <ele>966.0</ele>
        <time>2018-09-15T13:10:29Z</time>
      </trkpt>
      <trkpt lat="40.242967" lon="-4.886900">
        <ele>966.0</ele>
        <time>2018-09-15T13:10:30Z</time>
      </trkpt>
      <trkpt lat="40.242983" lon="-4.887050">
        <ele>967.0</ele>
        <time>2018-09-15T13:10:31Z</time>
      </trkpt>
      <trkpt lat="40.243017" lon="-4.887183">
        <ele>970.0</ele>
        <time>2018-09-15T13:10:32Z</time>
      </trkpt>
      <trkpt lat="40.243083" lon="-4.887300">
        <ele>972.0</ele>
        <time>2018-09-15T13:10:33Z</time>
      </trkpt>
      <trkpt lat="40.243183" lon="-4.887383">
        <ele>974.0</ele>
        <time>2018-09-15T13:10:34Z</time>
      </trkpt>
      <trkpt lat="40.243300" lon="-4.887417">
        <ele>976.0</ele>
        <time>2018-09-15T13:10:35Z</time>
      </trkpt>
      <trkpt lat="40.243400" lon="-4.887433">
        <ele>978.0</ele>
        <time>2018-09-15T13:10:36Z</time>
      </trkpt>
      <trkpt lat="40.243500" lon="-4.887433">
        <ele>981.0</ele>
        <time>2018-09-15T13:10:37Z</time>
      </trkpt>
      <trkpt lat="40.243583" lon="-4.887433">
        <ele>983.0</ele>
        <time>2018-09-15T13:10:38Z</time>
      </trkpt>
      <trkpt lat="40.243650" lon="-4.887433">
        <ele>983.0</ele>
        <time>2018-09-15T13:10:39Z</time>
      </trkpt>
      <trkpt lat="40.243717" lon="-4.887417">
        <ele>983.0</ele>
        <time>2018-09-15T13:10:40Z</time>
      </trkpt>
      <trkpt lat="40.243783" lon="-4.887350">
        <ele>981.0</ele>
        <time>2018-09-15T13:10:41Z</time>
      </trkpt>
      <trkpt lat="40.243833" lon="-4.887250">
        <ele>979.0</ele>
        <time>2018-09-15T13:10:42Z</time>
      </trkpt>
      <trkpt lat="40.243833" lon="-4.887167">
        <ele>978.0</ele>
        <time>2018-09-15T13:10:43Z</time>
      </trkpt>
      <trkpt lat="40.243800" lon="-4.887100">
        <ele>977.0</ele>
        <time>2018-09-15T13:10:44Z</time>
      </trkpt>
      <trkpt lat="40.243717" lon="-4.887083">
        <ele>977.0</ele>
        <time>2018-09-15T13:10:45Z</time>
      </trkpt>
      <trkpt lat="40.243650" lon="-4.887150">
        <ele>977.0</ele>
        <time>2018-09-15T13:10:46Z</time>
      </trkpt>
      <trkpt lat="40.243617" lon="-4.887267">
        <ele>977.0</ele>
        <time>2018-09-15T13:10:47Z</time>
      </trkpt>
      <trkpt lat="40.243600" lon="-4.887400">
        <ele>977.0</ele>
        <time>2018-09-15T13:10:48Z</time>
      </trkpt>
      <trkpt lat="40.243633" lon="-4.887533">
        <ele>977.0</ele>
        <time>2018-09-15T13:10:49Z</time>
      </trkpt>
      <trkpt lat="40.243700" lon="-4.887650">
        <ele>976.0</ele>
        <time>2018-09-15T13:10:50Z</time>
      </trkpt>
      <trkpt lat="40.243767" lon="-4.887733">
        <ele>976.0</ele>
        <time>2018-09-15T13:10:51Z</time>
      </trkpt>
      <trkpt lat="40.243833" lon="-4.887800">
        <ele>976.0</ele>
        <time>2018-09-15T13:10:52Z</time>
      </trkpt>
      <trkpt lat="40.243883" lon="-4.887867">
        <ele>976.0</ele>
        <time>2018-09-15T13:10:53Z</time>
      </trkpt>
      <trkpt lat="40.243950" lon="-4.887950">
        <ele>974.0</ele>
        <time>2018-09-15T13:10:54Z</time>
      </trkpt>
      <trkpt lat="40.244017" lon="-4.888033">
        <ele>972.0</ele>
        <time>2018-09-15T13:10:55Z</time>
      </trkpt>
      <trkpt lat="40.244100" lon="-4.888133">
        <ele>968.0</ele>
        <time>2018-09-15T13:10:56Z</time>
      </trkpt>
      <trkpt lat="40.244200" lon="-4.888217">
        <ele>965.0</ele>
        <time>2018-09-15T13:10:57Z</time>
      </trkpt>
      <trkpt lat="40.244283" lon="-4.888300">
        <ele>965.0</ele>
        <time>2018-09-15T13:10:58Z</time>
      </trkpt>
      <trkpt lat="40.244350" lon="-4.888367">
        <ele>965.0</ele>
        <time>2018-09-15T13:10:59Z</time>
      </trkpt>
      <trkpt lat="40.244450" lon="-4.888450">
        <ele>965.0</ele>
        <time>2018-09-15T13:11:00Z</time>
      </trkpt>
      <trkpt lat="40.244533" lon="-4.888517">
        <ele>964.0</ele>
        <time>2018-09-15T13:11:01Z</time>
      </trkpt>
      <trkpt lat="40.244633" lon="-4.888583">
        <ele>963.0</ele>
        <time>2018-09-15T13:11:02Z</time>
      </trkpt>
      <trkpt lat="40.244733" lon="-4.888600">
        <ele>963.0</ele>
        <time>2018-09-15T13:11:03Z</time>
      </trkpt>
      <trkpt lat="40.244817" lon="-4.888567">
        <ele>961.0</ele>
        <time>2018-09-15T13:11:04Z</time>
      </trkpt>
      <trkpt lat="40.244883" lon="-4.888500">
        <ele>959.0</ele>
        <time>2018-09-15T13:11:05Z</time>
      </trkpt>
      <trkpt lat="40.244933" lon="-4.888417">
        <ele>957.0</ele>
        <time>2018-09-15T13:11:06Z</time>
      </trkpt>
      <trkpt lat="40.244983" lon="-4.888317">
        <ele>956.0</ele>
        <time>2018-09-15T13:11:07Z</time>
      </trkpt>
      <trkpt lat="40.245017" lon="-4.888233">
        <ele>956.0</ele>
        <time>2018-09-15T13:11:08Z</time>
      </trkpt>
      <trkpt lat="40.245033" lon="-4.888167">
        <ele>957.0</ele>
        <time>2018-09-15T13:11:09Z</time>
      </trkpt>
      <trkpt lat="40.245033" lon="-4.888083">
        <ele>957.0</ele>
        <time>2018-09-15T13:11:10Z</time>
      </trkpt>
      <trkpt lat="40.245000" lon="-4.888000">
        <ele>956.0</ele>
        <time>2018-09-15T13:11:11Z</time>
      </trkpt>
      <trkpt lat="40.244967" lon="-4.887917">
        <ele>955.0</ele>
        <time>2018-09-15T13:11:12Z</time>
      </trkpt>
      <trkpt lat="40.244900" lon="-4.887867">
        <ele>954.0</ele>
        <time>2018-09-15T13:11:13Z</time>
      </trkpt>
      <trkpt lat="40.244833" lon="-4.887850">
        <ele>953.0</ele>
        <time>2018-09-15T13:11:14Z</time>
      </trkpt>
      <trkpt lat="40.244783" lon="-4.887833">
        <ele>953.0</ele>
        <time>2018-09-15T13:11:15Z</time>
      </trkpt>
      <trkpt lat="40.244717" lon="-4.887800">
        <ele>952.0</ele>
        <time>2018-09-15T13:11:16Z</time>
      </trkpt>
      <trkpt lat="40.244667" lon="-4.887750">
        <ele>951.0</ele>
        <time>2018-09-15T13:11:17Z</time>
      </trkpt>
      <trkpt lat="40.244633" lon="-4.887700">
        <ele>950.0</ele>
        <time>2018-09-15T13:11:18Z</time>
      </trkpt>
      <trkpt lat="40.244583" lon="-4.887667">
        <ele>950.0</ele>
        <time>2018-09-15T13:11:19Z</time>
      </trkpt>
      <trkpt lat="40.244517" lon="-4.887633">
        <ele>950.0</ele>
        <time>2018-09-15T13:11:20Z</time>
      </trkpt>
      <trkpt lat="40.244467" lon="-4.887617">
        <ele>950.0</ele>
        <time>2018-09-15T13:11:21Z</time>
      </trkpt>
      <trkpt lat="40.244417" lon="-4.887600">
        <ele>950.0</ele>
        <time>2018-09-15T13:11:22Z</time>
      </trkpt>
      <trkpt lat="40.244367" lon="-4.887567">
        <ele>949.0</ele>
        <time>2018-09-15T13:11:23Z</time>
      </trkpt>
      <trkpt lat="40.244317" lon="-4.887550">
        <ele>949.0</ele>
        <time>2018-09-15T13:11:24Z</time>
      </trkpt>
      <trkpt lat="40.244267" lon="-4.887533">
        <ele>949.0</ele>
        <time>2018-09-15T13:11:25Z</time>
      </trkpt>
      <trkpt lat="40.244233" lon="-4.887517">
        <ele>948.0</ele>
        <time>2018-09-15T13:11:26Z</time>
      </trkpt>
      <trkpt lat="40.244167" lon="-4.887500">
        <ele>947.0</ele>
        <time>2018-09-15T13:11:27Z</time>
      </trkpt>
      <trkpt lat="40.244117" lon="-4.887483">
        <ele>946.0</ele>
        <time>2018-09-15T13:11:28Z</time>
      </trkpt>
      <trkpt lat="40.244067" lon="-4.887467">
        <ele>945.0</ele>
        <time>2018-09-15T13:11:29Z</time>
      </trkpt>
      <trkpt lat="40.244000" lon="-4.887450">
        <ele>944.0</ele>
        <time>2018-09-15T13:11:30Z</time>
      </trkpt>
      <trkpt lat="40.243967" lon="-4.887417">
        <ele>945.0</ele>
        <time>2018-09-15T13:11:31Z</time>
      </trkpt>
      <trkpt lat="40.243917" lon="-4.887400">
        <ele>944.0</ele>
        <time>2018-09-15T13:11:32Z</time>
      </trkpt>
      <trkpt lat="40.243850" lon="-4.887383">
        <ele>944.0</ele>
        <time>2018-09-15T13:11:33Z</time>
      </trkpt>
      <trkpt lat="40.243783" lon="-4.887350">
        <ele>943.0</ele>
        <time>2018-09-15T13:11:34Z</time>
      </trkpt>
      <trkpt lat="40.243700" lon="-4.887333">
        <ele>943.0</ele>
        <time>2018-09-15T13:11:35Z</time>
      </trkpt>
      <trkpt lat="40.243633" lon="-4.887300">
        <ele>945.0</ele>
        <time>2018-09-15T13:11:36Z</time>
      </trkpt>
      <trkpt lat="40.243583" lon="-4.887283">
        <ele>948.0</ele>
        <time>2018-09-15T13:11:37Z</time>
      </trkpt>
      <trkpt lat="40.243550" lon="-4.887250">
        <ele>952.0</ele>
        <time>2018-09-15T13:11:38Z</time>
      </trkpt>
      <trkpt lat="40.243517" lon="-4.887217">
        <ele>954.0</ele>
        <time>2018-09-15T13:11:39Z</time>
      </trkpt>
      <trkpt lat="40.243483" lon="-4.887183">
        <ele>956.0</ele>
        <time>2018-09-15T13:11:40Z</time>
      </trkpt>
      <trkpt lat="40.243450" lon="-4.887133">
        <ele>958.0</ele>
        <time>2018-09-15T13:11:41Z</time>
      </trkpt>
      <trkpt lat="40.243433" lon="-4.887067">
        <ele>959.0</ele>
        <time>2018-09-15T13:11:42Z</time>
      </trkpt>
      <trkpt lat="40.243467" lon="-4.887000">
        <ele>959.0</ele>
        <time>2018-09-15T13:11:43Z</time>
      </trkpt>
      <trkpt lat="40.243533" lon="-4.886933">
        <ele>957.0</ele>
        <time>2018-09-15T13:11:44Z</time>
      </trkpt>
      <trkpt lat="40.243600" lon="-4.886883">
        <ele>957.0</ele>
        <time>2018-09-15T13:11:45Z</time>
      </trkpt>
      <trkpt lat="40.243700" lon="-4.886833">
        <ele>957.0</ele>
        <time>2018-09-15T13:11:46Z</time>
      </trkpt>
      <trkpt lat="40.243783" lon="-4.886833">
        <ele>957.0</ele>
        <time>2018-09-15T13:11:47Z</time>
      </trkpt>
      <trkpt lat="40.243883" lon="-4.886850">
        <ele>958.0</ele>
        <time>2018-09-15T13:11:48Z</time>
      </trkpt>
      <trkpt lat="40.243983" lon="-4.886917">
        <ele>959.0</ele>
        <time>2018-09-15T13:11:49Z</time>
      </trkpt>
      <trkpt lat="40.244083" lon="-4.887017">
        <ele>960.0</ele>
        <time>2018-09-15T13:11:50Z</time>
      </trkpt>
      <trkpt lat="40.244133" lon="-4.887133">
        <ele>962.0</ele>
        <time>2018-09-15T13:11:51Z</time>
      </trkpt>
      <trkpt lat="40.244150" lon="-4.887283">
        <ele>964.0</ele>
        <time>2018-09-15T13:11:52Z</time>
      </trkpt>
      <trkpt lat="40.244133" lon="-4.887400">
        <ele>965.0</ele>
        <time>2018-09-15T13:11:53Z</time>
      </trkpt>
      <trkpt lat="40.244067" lon="-4.887483">
        <ele>967.0</ele>
        <time>2018-09-15T13:11:54Z</time>
      </trkpt>
      <trkpt lat="40.244017" lon="-4.887533">
        <ele>970.0</ele>
        <time>2018-09-15T13:11:55Z</time>
      </trkpt>
      <trkpt lat="40.243983" lon="-4.887567">
        <ele>973.0</ele>
        <time>2018-09-15T13:11:56Z</time>
      </trkpt>
      <trkpt lat="40.243933" lon="-4.887617">
        <ele>975.0</ele>
        <time>2018-09-15T13:11:57Z</time>
      </trkpt>
      <trkpt lat="40.243883" lon="-4.887667">
        <ele>978.0</ele>
        <time>2018-09-15T13:11:58Z</time>
      </trkpt>
      <trkpt lat="40.243817" lon="-4.887717">
        <ele>979.0</ele>
        <time>2018-09-15T13:11:59Z</time>
      </trkpt>
      <trkpt lat="40.243767" lon="-4.887717">
        <ele>978.0</ele>
        <time>2018-09-15T13:12:00Z</time>
      </trkpt>
      <trkpt lat="40.243733" lon="-4.887683">
        <ele>979.0</ele>
        <time>2018-09-15T13:12:01Z</time>
      </trkpt>
      <trkpt lat="40.243733" lon="-4.887633">
        <ele>979.0</ele>
        <time>2018-09-15T13:12:02Z</time>
      </trkpt>
      <trkpt lat="40.243783" lon="-4.887567">
        <ele>979.0</ele>
        <time>2018-09-15T13:12:03Z</time>
      </trkpt>
      <trkpt lat="40.243883" lon="-4.887533">
        <ele>978.0</ele>
        <time>2018-09-15T13:12:04Z</time>
      </trkpt>
      <trkpt lat="40.243983" lon="-4.887533">
        <ele>977.0</ele>
        <time>2018-09-15T13:12:05Z</time>
      </trkpt>
      <trkpt lat="40.244100" lon="-4.887583">
        <ele>977.0</ele>
        <time>2018-09-15T13:12:06Z</time>
      </trkpt>
      <trkpt lat="40.244183" lon="-4.887650">
        <ele>978.0</ele>
        <time>2018-09-15T13:12:07Z</time>
      </trkpt>
      <trkpt lat="40.244250" lon="-4.887767">
        <ele>979.0</ele>
        <time>2018-09-15T13:12:08Z</time>
      </trkpt>
      <trkpt lat="40.244300" lon="-4.887900">
        <ele>981.0</ele>
        <time>2018-09-15T13:12:09Z</time>
      </trkpt>
      <trkpt lat="40.244333" lon="-4.888050">
        <ele>982.0</ele>
        <time>2018-09-15T13:12:10Z</time>
      </trkpt>
      <trkpt lat="40.244333" lon="-4.888183">
        <ele>986.0</ele>
        <time>2018-09-15T13:12:11Z</time>
      </trkpt>
      <trkpt lat="40.244333" lon="-4.888283">
        <ele>991.0</ele>
        <time>2018-09-15T13:12:12Z</time>
      </trkpt>
      <trkpt lat="40.244317" lon="-4.888383">
        <ele>994.0</ele>
        <time>2018-09-15T13:12:13Z</time>
      </trkpt>
      <trkpt lat="40.244300" lon="-4.888467">
        <ele>997.0</ele>
        <time>2018-09-15T13:12:14Z</time>
      </trkpt>
      <trkpt lat="40.244267" lon="-4.888550">
        <ele>999.0</ele>
        <time>2018-09-15T13:12:15Z</time>
      </trkpt>
      <trkpt lat="40.244217" lon="-4.888617">
        <ele>1000.0</ele>
        <time>2018-09-15T13:12:16Z</time>
      </trkpt>
      <trkpt lat="40.244150" lon="-4.888650">
        <ele>1001.0</ele>
        <time>2018-09-15T13:12:17Z</time>
      </trkpt>
      <trkpt lat="40.244100" lon="-4.888617">
        <ele>1002.0</ele>
        <time>2018-09-15T13:12:18Z</time>
      </trkpt>
      <trkpt lat="40.244083" lon="-4.888533">
        <ele>1003.0</ele>
        <time>2018-09-15T13:12:19Z</time>
      </trkpt>
      <trkpt lat="40.244133" lon="-4.888467">
        <ele>1004.0</ele>
        <time>2018-09-15T13:12:20Z</time>
      </trkpt>
      <trkpt lat="40.244217" lon="-4.888417">
        <ele>1004.0</ele>
        <time>2018-09-15T13:12:21Z</time>
      </trkpt>
      <trkpt lat="40.244317" lon="-4.888417">
        <ele>1004.0</ele>
        <time>2018-09-15T13:12:22Z</time>
      </trkpt>
      <trkpt lat="40.244433" lon="-4.888450">
        <ele>1004.0</ele>
        <time>2018-09-15T13:12:23Z</time>
      </trkpt>
      <trkpt lat="40.244533" lon="-4.888517">
        <ele>1004.0</ele>
        <time>2018-09-15T13:12:24Z</time>
      </trkpt>
      <trkpt lat="40.244617" lon="-4.888617">
        <ele>1005.0</ele>
        <time>2018-09-15T13:12:25Z</time>
      </trkpt>
      <trkpt lat="40.244683" lon="-4.888733">
        <ele>1006.0</ele>
        <time>2018-09-15T13:12:26Z</time>
      </trkpt>
      <trkpt lat="40.244733" lon="-4.888867">
        <ele>1007.0</ele>
        <time>2018-09-15T13:12:27Z</time>
      </trkpt>
      <trkpt lat="40.244767" lon="-4.889000">
        <ele>1008.0</ele>
        <time>2018-09-15T13:12:28Z</time>
      </trkpt>
      <trkpt lat="40.244750" lon="-4.889133">
        <ele>1011.0</ele>
        <time>2018-09-15T13:12:29Z</time>
      </trkpt>
      <trkpt lat="40.244733" lon="-4.889250">
        <ele>1014.0</ele>
        <time>2018-09-15T13:12:30Z</time>
      </trkpt>
      <trkpt lat="40.244700" lon="-4.889317">
        <ele>1017.0</ele>
        <time>2018-09-15T13:12:31Z</time>
      </trkpt>
      <trkpt lat="40.244650" lon="-4.889367">
        <ele>1020.0</ele>
        <time>2018-09-15T13:12:32Z</time>
      </trkpt>
      <trkpt lat="40.244600" lon="-4.889417">
        <ele>1023.0</ele>
        <time>2018-09-15T13:12:33Z</time>
      </trkpt>
      <trkpt lat="40.244567" lon="-4.889500">
        <ele>1021.0</ele>
        <time>2018-09-15T13:12:34Z</time>
      </trkpt>
      <trkpt lat="40.244550" lon="-4.889633">
        <ele>1022.0</ele>
        <time>2018-09-15T13:12:35Z</time>
      </trkpt>
      <trkpt lat="40.244583" lon="-4.889750">
        <ele>1023.0</ele>
        <time>2018-09-15T13:12:36Z</time>
      </trkpt>
      <trkpt lat="40.244667" lon="-4.889833">
        <ele>1025.0</ele>
        <time>2018-09-15T13:12:37Z</time>
      </trkpt>
      <trkpt lat="40.244767" lon="-4.889867">
        <ele>1026.0</ele>
        <time>2018-09-15T13:12:38Z</time>
      </trkpt>
      <trkpt lat="40.244867" lon="-4.889817">
        <ele>1027.0</ele>
        <time>2018-09-15T13:12:39Z</time>
      </trkpt>
      <trkpt lat="40.244933" lon="-4.889733">
        <ele>1028.0</ele>
        <time>2018-09-15T13:12:40Z</time>
      </trkpt>
      <trkpt lat="40.244950" lon="-4.889633">
        <ele>1029.0</ele>
        <time>2018-09-15T13:12:41Z</time>
      </trkpt>
      <trkpt lat="40.244933" lon="-4.889567">
        <ele>1030.0</ele>
        <time>2018-09-15T13:12:42Z</time>
      </trkpt>
      <trkpt lat="40.244867" lon="-4.889500">
        <ele>1031.0</ele>
        <time>2018-09-15T13:12:43Z</time>
      </trkpt>
      <trkpt lat="40.244800" lon="-4.889483">
        <ele>1033.0</ele>
        <time>2018-09-15T13:12:44Z</time>
      </trkpt>
      <trkpt lat="40.244733" lon="-4.889533">
        <ele>1035.0</ele>
        <time>2018-09-15T13:12:45Z</time>
      </trkpt>
      <trkpt lat="40.244683" lon="-4.889633">
        <ele>1036.0</ele>
        <time>2018-09-15T13:12:46Z</time>
      </trkpt>
      <trkpt lat="40.244667" lon="-4.889750">
        <ele>1038.0</ele>
        <time>2018-09-15T13:12:47Z</time>
      </trkpt>
      <trkpt lat="40.244667" lon="-4.889900">
        <ele>1040.0</ele>
        <time>2018-09-15T13:12:48Z</time>
      </trkpt>
      <trkpt lat="40.244733" lon="-4.890050">
        <ele>1042.0</ele>
        <time>2018-09-15T13:12:49Z</time>
      </trkpt>
      <trkpt lat="40.244833" lon="-4.890150">
        <ele>1043.0</ele>
        <time>2018-09-15T13:12:50Z</time>
      </trkpt>
      <trkpt lat="40.244933" lon="-4.890183">
        <ele>1045.0</ele>
        <time>2018-09-15T13:12:51Z</time>
      </trkpt>
      <trkpt lat="40.245017" lon="-4.890150">
        <ele>1047.0</ele>
        <time>2018-09-15T13:12:52Z</time>
      </trkpt>
      <trkpt lat="40.245067" lon="-4.890067">
        <ele>1049.0</ele>
        <time>2018-09-15T13:12:53Z</time>
      </trkpt>
      <trkpt lat="40.245083" lon="-4.889967">
        <ele>1050.0</ele>
        <time>2018-09-15T13:12:54Z</time>
      </trkpt>
      <trkpt lat="40.245067" lon="-4.889883">
        <ele>1053.0</ele>
        <time>2018-09-15T13:12:55Z</time>
      </trkpt>
      <trkpt lat="40.245017" lon="-4.889833">
        <ele>1055.0</ele>
        <time>2018-09-15T13:12:56Z</time>
      </trkpt>
      <trkpt lat="40.244950" lon="-4.889800">
        <ele>1057.0</ele>
        <time>2018-09-15T13:12:57Z</time>
      </trkpt>
      <trkpt lat="40.244883" lon="-4.889833">
        <ele>1059.0</ele>
        <time>2018-09-15T13:12:58Z</time>
      </trkpt>
      <trkpt lat="40.244833" lon="-4.889917">
        <ele>1054.0</ele>
        <time>2018-09-15T13:12:59Z</time>
      </trkpt>
      <trkpt lat="40.244800" lon="-4.890033">
        <ele>1055.0</ele>
        <time>2018-09-15T13:13:00Z</time>
      </trkpt>
      <trkpt lat="40.244800" lon="-4.890200">
        <ele>1056.0</ele>
        <time>2018-09-15T13:13:01Z</time>
      </trkpt>
      <trkpt lat="40.244817" lon="-4.890383">
        <ele>1056.0</ele>
        <time>2018-09-15T13:13:02Z</time>
      </trkpt>
      <trkpt lat="40.244883" lon="-4.890550">
        <ele>1057.0</ele>
        <time>2018-09-15T13:13:03Z</time>
      </trkpt>
      <trkpt lat="40.245000" lon="-4.890633">
        <ele>1057.0</ele>
        <time>2018-09-15T13:13:04Z</time>
      </trkpt>
      <trkpt lat="40.245100" lon="-4.890650">
        <ele>1059.0</ele>
        <time>2018-09-15T13:13:05Z</time>
      </trkpt>
      <trkpt lat="40.245183" lon="-4.890633">
        <ele>1061.0</ele>
        <time>2018-09-15T13:13:06Z</time>
      </trkpt>
      <trkpt lat="40.245250" lon="-4.890583">
        <ele>1063.0</ele>
        <time>2018-09-15T13:13:07Z</time>
      </trkpt>
      <trkpt lat="40.245317" lon="-4.890550">
        <ele>1067.0</ele>
        <time>2018-09-15T13:13:08Z</time>
      </trkpt>
      <trkpt lat="40.245367" lon="-4.890500">
        <ele>1070.0</ele>
        <time>2018-09-15T13:13:09Z</time>
      </trkpt>
      <trkpt lat="40.245400" lon="-4.890450">
        <ele>1070.0</ele>
        <time>2018-09-15T13:13:10Z</time>
      </trkpt>
      <trkpt lat="40.245417" lon="-4.890383">
        <ele>1070.0</ele>
        <time>2018-09-15T13:13:11Z</time>
      </trkpt>
      <trkpt lat="40.245400" lon="-4.890317">
        <ele>1070.0</ele>
        <time>2018-09-15T13:13:12Z</time>
      </trkpt>
      <trkpt lat="40.245333" lon="-4.890283">
        <ele>1070.0</ele>
        <time>2018-09-15T13:13:13Z</time>
      </trkpt>
      <trkpt lat="40.245250" lon="-4.890317">
        <ele>1070.0</ele>
        <time>2018-09-15T13:13:14Z</time>
      </trkpt>
      <trkpt lat="40.245183" lon="-4.890400">
        <ele>1071.0</ele>
        <time>2018-09-15T13:13:15Z</time>
      </trkpt>
      <trkpt lat="40.245150" lon="-4.890517">
        <ele>1072.0</ele>
        <time>2018-09-15T13:13:16Z</time>
      </trkpt>
      <trkpt lat="40.245150" lon="-4.890667">
        <ele>1072.0</ele>
        <time>2018-09-15T13:13:17Z</time>
      </trkpt>
      <trkpt lat="40.245200" lon="-4.890800">
        <ele>1073.0</ele>
        <time>2018-09-15T13:13:18Z</time>
      </trkpt>
      <trkpt lat="40.245283" lon="-4.890933">
        <ele>1073.0</ele>
        <time>2018-09-15T13:13:19Z</time>
      </trkpt>
      <trkpt lat="40.245383" lon="-4.891033">
        <ele>1074.0</ele>
        <time>2018-09-15T13:13:20Z</time>
      </trkpt>
      <trkpt lat="40.245467" lon="-4.891100">
        <ele>1077.0</ele>
        <time>2018-09-15T13:13:21Z</time>
      </trkpt>
      <trkpt lat="40.245550" lon="-4.891167">
        <ele>1082.0</ele>
        <time>2018-09-15T13:13:22Z</time>
      </trkpt>
      <trkpt lat="40.245633" lon="-4.891217">
        <ele>1086.0</ele>
        <time>2018-09-15T13:13:23Z</time>
      </trkpt>
      <trkpt lat="40.245733" lon="-4.891267">
        <ele>1088.0</ele>
        <time>2018-09-15T13:13:24Z</time>
      </trkpt>
      <trkpt lat="40.245850" lon="-4.891283">
        <ele>1091.0</ele>
        <time>2018-09-15T13:13:25Z</time>
      </trkpt>
      <trkpt lat="40.245967" lon="-4.891267">
        <ele>1093.0</ele>
        <time>2018-09-15T13:13:26Z</time>
      </trkpt>
      <trkpt lat="40.246033" lon="-4.891200">
        <ele>1095.0</ele>
        <time>2018-09-15T13:13:27Z</time>
      </trkpt>
      <trkpt lat="40.246083" lon="-4.891100">
        <ele>1097.0</ele>
        <time>2018-09-15T13:13:28Z</time>
      </trkpt>
      <trkpt lat="40.246100" lon="-4.891017">
        <ele>1099.0</ele>
        <time>2018-09-15T13:13:29Z</time>
      </trkpt>
      <trkpt lat="40.246050" lon="-4.890950">
        <ele>1102.0</ele>
        <time>2018-09-15T13:13:30Z</time>
      </trkpt>
      <trkpt lat="40.246000" lon="-4.890917">
        <ele>1104.0</ele>
        <time>2018-09-15T13:13:31Z</time>
      </trkpt>
      <trkpt lat="40.245933" lon="-4.890967">
        <ele>1106.0</ele>
        <time>2018-09-15T13:13:32Z</time>
      </trkpt>
      <trkpt lat="40.245883" lon="-4.891083">
        <ele>1107.0</ele>
        <time>2018-09-15T13:13:33Z</time>
      </trkpt>
      <trkpt lat="40.245883" lon="-4.891250">
        <ele>1108.0</ele>
        <time>2018-09-15T13:13:34Z</time>
      </trkpt>
      <trkpt lat="40.245917" lon="-4.891400">
        <ele>1110.0</ele>
        <time>2018-09-15T13:13:35Z</time>
      </trkpt>
      <trkpt lat="40.246017" lon="-4.891500">
        <ele>1111.0</ele>
        <time>2018-09-15T13:13:36Z</time>
      </trkpt>
      <trkpt lat="40.246117" lon="-4.891533">
        <ele>1112.0</ele>
        <time>2018-09-15T13:13:37Z</time>
      </trkpt>
      <trkpt lat="40.246217" lon="-4.891483">
        <ele>1113.0</ele>
        <time>2018-09-15T13:13:38Z</time>
      </trkpt>
      <trkpt lat="40.246267" lon="-4.891383">
        <ele>1114.0</ele>
        <time>2018-09-15T13:13:39Z</time>
      </trkpt>
      <trkpt lat="40.246250" lon="-4.891283">
        <ele>1115.0</ele>
        <time>2018-09-15T13:13:40Z</time>
      </trkpt>
      <trkpt lat="40.246183" lon="-4.891250">
        <ele>1116.0</ele>
        <time>2018-09-15T13:13:41Z</time>
      </trkpt>
      <trkpt lat="40.246083" lon="-4.891317">
        <ele>1117.0</ele>
        <time>2018-09-15T13:13:42Z</time>
      </trkpt>
      <trkpt lat="40.246033" lon="-4.891467">
        <ele>1118.0</ele>
        <time>2018-09-15T13:13:43Z</time>
      </trkpt>
      <trkpt lat="40.246033" lon="-4.891650">
        <ele>1118.0</ele>
        <time>2018-09-15T13:13:44Z</time>
      </trkpt>
      <trkpt lat="40.246100" lon="-4.891800">
        <ele>1118.0</ele>
        <time>2018-09-15T13:13:45Z</time>
      </trkpt>
      <trkpt lat="40.246217" lon="-4.891867">
        <ele>1119.0</ele>
        <time>2018-09-15T13:13:46Z</time>
      </trkpt>
      <trkpt lat="40.246333" lon="-4.891867">
        <ele>1121.0</ele>
        <time>2018-09-15T13:13:47Z</time>
      </trkpt>
      <trkpt lat="40.246400" lon="-4.891833">
        <ele>1124.0</ele>
        <time>2018-09-15T13:13:48Z</time>
      </trkpt>
      <trkpt lat="40.246467" lon="-4.891783">
        <ele>1127.0</ele>
        <time>2018-09-15T13:13:49Z</time>
      </trkpt>
      <trkpt lat="40.246517" lon="-4.891733">
        <ele>1129.0</ele>
        <time>2018-09-15T13:13:50Z</time>
      </trkpt>
      <trkpt lat="40.246533" lon="-4.891667">
        <ele>1132.0</ele>
        <time>2018-09-15T13:13:51Z</time>
      </trkpt>
      <trkpt lat="40.246500" lon="-4.891617">
        <ele>1134.0</ele>
        <time>2018-09-15T13:13:52Z</time>
      </trkpt>
      <trkpt lat="40.246450" lon="-4.891600">
        <ele>1136.0</ele>
        <time>2018-09-15T13:13:53Z</time>
      </trkpt>
      <trkpt lat="40.246367" lon="-4.891650">
        <ele>1137.0</ele>
        <time>2018-09-15T13:13:54Z</time>
      </trkpt>
      <trkpt lat="40.246300" lon="-4.891783">
        <ele>1138.0</ele>
        <time>2018-09-15T13:13:55Z</time>
      </trkpt>
      <trkpt lat="40.246267" lon="-4.891950">
        <ele>1140.0</ele>
        <time>2018-09-15T13:13:56Z</time>
      </trkpt>
      <trkpt lat="40.246317" lon="-4.892117">
        <ele>1141.0</ele>
        <time>2018-09-15T13:13:57Z</time>
      </trkpt>
      <trkpt lat="40.246383" lon="-4.892267">
        <ele>1143.0</ele>
        <time>2018-09-15T13:13:58Z</time>
      </trkpt>
      <trkpt lat="40.246500" lon="-4.892350">
        <ele>1144.0</ele>
        <time>2018-09-15T13:13:59Z</time>
      </trkpt>
      <trkpt lat="40.246617" lon="-4.892383">
        <ele>1145.0</ele>
        <time>2018-09-15T13:14:00Z</time>
      </trkpt>
      <trkpt lat="40.246733" lon="-4.892383">
        <ele>1147.0</ele>
        <time>2018-09-15T13:14:01Z</time>
      </trkpt>
      <trkpt lat="40.246817" lon="-4.892350">
        <ele>1148.0</ele>
        <time>2018-09-15T13:14:02Z</time>
      </trkpt>
      <trkpt lat="40.246900" lon="-4.892300">
        <ele>1150.0</ele>
        <time>2018-09-15T13:14:03Z</time>
      </trkpt>
      <trkpt lat="40.246967" lon="-4.892233">
        <ele>1152.0</ele>
        <time>2018-09-15T13:14:04Z</time>
      </trkpt>
      <trkpt lat="40.247000" lon="-4.892167">
        <ele>1155.0</ele>
        <time>2018-09-15T13:14:05Z</time>
      </trkpt>
      <trkpt lat="40.247017" lon="-4.892083">
        <ele>1157.0</ele>
        <time>2018-09-15T13:14:06Z</time>
      </trkpt>
      <trkpt lat="40.246983" lon="-4.892033">
        <ele>1159.0</ele>
        <time>2018-09-15T13:14:07Z</time>
      </trkpt>
      <trkpt lat="40.246917" lon="-4.892033">
        <ele>1161.0</ele>
        <time>2018-09-15T13:14:08Z</time>
      </trkpt>
      <trkpt lat="40.246850" lon="-4.892100">
        <ele>1162.0</ele>
        <time>2018-09-15T13:14:09Z</time>
      </trkpt>
      <trkpt lat="40.246783" lon="-4.892233">
        <ele>1162.0</ele>
        <time>2018-09-15T13:14:10Z</time>
      </trkpt>
      <trkpt lat="40.246750" lon="-4.892383">
        <ele>1164.0</ele>
        <time>2018-09-15T13:14:11Z</time>
      </trkpt>
      <trkpt lat="40.246750" lon="-4.892533">
        <ele>1166.0</ele>
        <time>2018-09-15T13:14:12Z</time>
      </trkpt>
      <trkpt lat="40.246783" lon="-4.892667">
        <ele>1168.0</ele>
        <time>2018-09-15T13:14:13Z</time>
      </trkpt>
      <trkpt lat="40.246850" lon="-4.892800">
        <ele>1169.0</ele>
        <time>2018-09-15T13:14:14Z</time>
      </trkpt>
      <trkpt lat="40.246950" lon="-4.892867">
        <ele>1170.0</ele>
        <time>2018-09-15T13:14:15Z</time>
      </trkpt>
      <trkpt lat="40.247067" lon="-4.892917">
        <ele>1171.0</ele>
        <time>2018-09-15T13:14:16Z</time>
      </trkpt>
      <trkpt lat="40.247183" lon="-4.892900">
        <ele>1171.0</ele>
        <time>2018-09-15T13:14:17Z</time>
      </trkpt>
      <trkpt lat="40.247267" lon="-4.892850">
        <ele>1172.0</ele>
        <time>2018-09-15T13:14:18Z</time>
      </trkpt>
      <trkpt lat="40.247333" lon="-4.892783">
        <ele>1173.0</ele>
        <time>2018-09-15T13:14:19Z</time>
      </trkpt>
      <trkpt lat="40.247350" lon="-4.892700">
        <ele>1174.0</ele>
        <time>2018-09-15T13:14:20Z</time>
      </trkpt>
      <trkpt lat="40.247317" lon="-4.892650">
        <ele>1175.0</ele>
        <time>2018-09-15T13:14:21Z</time>
      </trkpt>
      <trkpt lat="40.247267" lon="-4.892650">
        <ele>1174.0</ele>
        <time>2018-09-15T13:14:22Z</time>
      </trkpt>
      <trkpt lat="40.247200" lon="-4.892700">
        <ele>1174.0</ele>
        <time>2018-09-15T13:14:23Z</time>
      </trkpt>
      <trkpt lat="40.247133" lon="-4.892800">
        <ele>1174.0</ele>
        <time>2018-09-15T13:14:24Z</time>
      </trkpt>
      <trkpt lat="40.247117" lon="-4.892933">
        <ele>1175.0</ele>
        <time>2018-09-15T13:14:25Z</time>
      </trkpt>
      <trkpt lat="40.247100" lon="-4.893083">
        <ele>1175.0</ele>
        <time>2018-09-15T13:14:26Z</time>
      </trkpt>
      <trkpt lat="40.247117" lon="-4.893250">
        <ele>1176.0</ele>
        <time>2018-09-15T13:14:27Z</time>
      </trkpt>
      <trkpt lat="40.247150" lon="-4.893417">
        <ele>1177.0</ele>
        <time>2018-09-15T13:14:28Z</time>
      </trkpt>
      <trkpt lat="40.247233" lon="-4.893533">
        <ele>1178.0</ele>
        <time>2018-09-15T13:14:29Z</time>
      </trkpt>
      <trkpt lat="40.247350" lon="-4.893633">
        <ele>1178.0</ele>
        <time>2018-09-15T13:14:30Z</time>
      </trkpt>
      <trkpt lat="40.247467" lon="-4.893667">
        <ele>1179.0</ele>
        <time>2018-09-15T13:14:31Z</time>
      </trkpt>
      <trkpt lat="40.247567" lon="-4.893650">
        <ele>1180.0</ele>
        <time>2018-09-15T13:14:32Z</time>
      </trkpt>
      <trkpt lat="40.247650" lon="-4.893600">
        <ele>1181.0</ele>
        <time>2018-09-15T13:14:33Z</time>
      </trkpt>
      <trkpt lat="40.247717" lon="-4.893550">
        <ele>1182.0</ele>
        <time>2018-09-15T13:14:34Z</time>
      </trkpt>
      <trkpt lat="40.247767" lon="-4.893500">
        <ele>1181.0</ele>
        <time>2018-09-15T13:14:35Z</time>
      </trkpt>
      <trkpt lat="40.247800" lon="-4.893450">
        <ele>1182.0</ele>
        <time>2018-09-15T13:14:36Z</time>
      </trkpt>
      <trkpt lat="40.247817" lon="-4.893400">
        <ele>1183.0</ele>
        <time>2018-09-15T13:14:37Z</time>
      </trkpt>
      <trkpt lat="40.247800" lon="-4.893383">
        <ele>1184.0</ele>
        <time>2018-09-15T13:14:38Z</time>
      </trkpt>
      <trkpt lat="40.247750" lon="-4.893367">
        <ele>1184.0</ele>
        <time>2018-09-15T13:14:39Z</time>
      </trkpt>
      <trkpt lat="40.247683" lon="-4.893400">
        <ele>1184.0</ele>
        <time>2018-09-15T13:14:40Z</time>
      </trkpt>
      <trkpt lat="40.247633" lon="-4.893483">
        <ele>1185.0</ele>
        <time>2018-09-15T13:14:41Z</time>
      </trkpt>
      <trkpt lat="40.247617" lon="-4.893617">
        <ele>1186.0</ele>
        <time>2018-09-15T13:14:42Z</time>
      </trkpt>
      <trkpt lat="40.247617" lon="-4.893783">
        <ele>1187.0</ele>
        <time>2018-09-15T13:14:43Z</time>
      </trkpt>
      <trkpt lat="40.247667" lon="-4.893933">
        <ele>1188.0</ele>
        <time>2018-09-15T13:14:44Z</time>
      </trkpt>
      <trkpt lat="40.247750" lon="-4.894067">
        <ele>1190.0</ele>
        <time>2018-09-15T13:14:45Z</time>
      </trkpt>
      <trkpt lat="40.247833" lon="-4.894133">
        <ele>1191.0</ele>
        <time>2018-09-15T13:14:46Z</time>
      </trkpt>
      <trkpt lat="40.247950" lon="-4.894150">
        <ele>1190.0</ele>
        <time>2018-09-15T13:14:47Z</time>
      </trkpt>
      <trkpt lat="40.248033" lon="-4.894117">
        <ele>1190.0</ele>
        <time>2018-09-15T13:14:48Z</time>
      </trkpt>
      <trkpt lat="40.248100" lon="-4.894050">
        <ele>1190.0</ele>
        <time>2018-09-15T13:14:49Z</time>
      </trkpt>
      <trkpt lat="40.248100" lon="-4.894000">
        <ele>1192.0</ele>
        <time>2018-09-15T13:14:50Z</time>
      </trkpt>
      <trkpt lat="40.248083" lon="-4.893983">
        <ele>1193.0</ele>
        <time>2018-09-15T13:14:51Z</time>
      </trkpt>
      <trkpt lat="40.248050" lon="-4.894017">
        <ele>1194.0</ele>
        <time>2018-09-15T13:14:52Z</time>
      </trkpt>
      <trkpt lat="40.248017" lon="-4.894100">
        <ele>1195.0</ele>
        <time>2018-09-15T13:14:53Z</time>
      </trkpt>
      <trkpt lat="40.247983" lon="-4.894183">
        <ele>1197.0</ele>
        <time>2018-09-15T13:14:54Z</time>
      </trkpt>
      <trkpt lat="40.247967" lon="-4.894267">
        <ele>1198.0</ele>
        <time>2018-09-15T13:14:55Z</time>
      </trkpt>
      <trkpt lat="40.247950" lon="-4.894383">
        <ele>1199.0</ele>
        <time>2018-09-15T13:14:56Z</time>
      </trkpt>
      <trkpt lat="40.247933" lon="-4.894500">
        <ele>1200.0</ele>
        <time>2018-09-15T13:14:57Z</time>
      </trkpt>
      <trkpt lat="40.247950" lon="-4.894667">
        <ele>1200.0</ele>
        <time>2018-09-15T13:14:58Z</time>
      </trkpt>
      <trkpt lat="40.248017" lon="-4.894817">
        <ele>1200.0</ele>
        <time>2018-09-15T13:14:59Z</time>
      </trkpt>
      <trkpt lat="40.248133" lon="-4.894900">
        <ele>1201.0</ele>
        <time>2018-09-15T13:15:00Z</time>
      </trkpt>
      <trkpt lat="40.248250" lon="-4.894917">
        <ele>1201.0</ele>
        <time>2018-09-15T13:15:01Z</time>
      </trkpt>
      <trkpt lat="40.248350" lon="-4.894867">
        <ele>1202.0</ele>
        <time>2018-09-15T13:15:02Z</time>
      </trkpt>
      <trkpt lat="40.248417" lon="-4.894800">
        <ele>1202.0</ele>
        <time>2018-09-15T13:15:03Z</time>
      </trkpt>
      <trkpt lat="40.248433" lon="-4.894717">
        <ele>1203.0</ele>
        <time>2018-09-15T13:15:04Z</time>
      </trkpt>
      <trkpt lat="40.248433" lon="-4.894667">
        <ele>1204.0</ele>
        <time>2018-09-15T13:15:05Z</time>
      </trkpt>
      <trkpt lat="40.248417" lon="-4.894633">
        <ele>1205.0</ele>
        <time>2018-09-15T13:15:06Z</time>
      </trkpt>
      <trkpt lat="40.248383" lon="-4.894600">
        <ele>1205.0</ele>
        <time>2018-09-15T13:15:07Z</time>
      </trkpt>
      <trkpt lat="40.248350" lon="-4.894617">
        <ele>1207.0</ele>
        <time>2018-09-15T13:15:08Z</time>
      </trkpt>
      <trkpt lat="40.248317" lon="-4.894650">
        <ele>1208.0</ele>
        <time>2018-09-15T13:15:09Z</time>
      </trkpt>
      <trkpt lat="40.248283" lon="-4.894683">
        <ele>1209.0</ele>
        <time>2018-09-15T13:15:10Z</time>
      </trkpt>
      <trkpt lat="40.248233" lon="-4.894717">
        <ele>1210.0</ele>
        <time>2018-09-15T13:15:11Z</time>
      </trkpt>
      <trkpt lat="40.248200" lon="-4.894733">
        <ele>1212.0</ele>
        <time>2018-09-15T13:15:12Z</time>
      </trkpt>
      <trkpt lat="40.248167" lon="-4.894733">
        <ele>1213.0</ele>
        <time>2018-09-15T13:15:13Z</time>
      </trkpt>
      <trkpt lat="40.248117" lon="-4.894700">
        <ele>1214.0</ele>
        <time>2018-09-15T13:15:14Z</time>
      </trkpt>
      <trkpt lat="40.248100" lon="-4.894667">
        <ele>1215.0</ele>
        <time>2018-09-15T13:15:15Z</time>
      </trkpt>
      <trkpt lat="40.248083" lon="-4.894633">
        <ele>1217.0</ele>
        <time>2018-09-15T13:15:16Z</time>
      </trkpt>
      <trkpt lat="40.248067" lon="-4.894567">
        <ele>1220.0</ele>
        <time>2018-09-15T13:15:17Z</time>
      </trkpt>
      <trkpt lat="40.248067" lon="-4.894500">
        <ele>1224.0</ele>
        <time>2018-09-15T13:15:18Z</time>
      </trkpt>
      <trkpt lat="40.248083" lon="-4.894450">
        <ele>1227.0</ele>
        <time>2018-09-15T13:15:19Z</time>
      </trkpt>
      <trkpt lat="40.248083" lon="-4.894417">
        <ele>1229.0</ele>
        <time>2018-09-15T13:15:20Z</time>
      </trkpt>
      <trkpt lat="40.248100" lon="-4.894400">
        <ele>1231.0</ele>
        <time>2018-09-15T13:15:21Z</time>
      </trkpt>
      <trkpt lat="40.248100" lon="-4.894367">
        <ele>1232.0</ele>
        <time>2018-09-15T13:15:22Z</time>
      </trkpt>
      <trkpt lat="40.248117" lon="-4.894317">
        <ele>1231.0</ele>
        <time>2018-09-15T13:15:23Z</time>
      </trkpt>
      <trkpt lat="40.248133" lon="-4.894267">
        <ele>1231.0</ele>
        <time>2018-09-15T13:15:24Z</time>
      </trkpt>
      <trkpt lat="40.248167" lon="-4.894217">
        <ele>1231.0</ele>
        <time>2018-09-15T13:15:25Z</time>
      </trkpt>
      <trkpt lat="40.248183" lon="-4.894183">
        <ele>1230.0</ele>
        <time>2018-09-15T13:15:26Z</time>
      </trkpt>
      <trkpt lat="40.248183" lon="-4.894133">
        <ele>1230.0</ele>
        <time>2018-09-15T13:15:27Z</time>
      </trkpt>
      <trkpt lat="40.248183" lon="-4.894100">
        <ele>1229.0</ele>
        <time>2018-09-15T13:15:28Z</time>
      </trkpt>
      <trkpt lat="40.248200" lon="-4.894050">
        <ele>1229.0</ele>
        <time>2018-09-15T13:15:29Z</time>
      </trkpt>
      <trkpt lat="40.248200" lon="-4.893983">
        <ele>1229.0</ele>
        <time>2018-09-15T13:15:30Z</time>
      </trkpt>
      <trkpt lat="40.248200" lon="-4.893917">
        <ele>1231.0</ele>
        <time>2018-09-15T13:15:31Z</time>
      </trkpt>
      <trkpt lat="40.248200" lon="-4.893850">
        <ele>1233.0</ele>
        <time>2018-09-15T13:15:32Z</time>
      </trkpt>
      <trkpt lat="40.248200" lon="-4.893783">
        <ele>1237.0</ele>
        <time>2018-09-15T13:15:33Z</time>
      </trkpt>
      <trkpt lat="40.248217" lon="-4.893717">
        <ele>1240.0</ele>
        <time>2018-09-15T13:15:34Z</time>
      </trkpt>
      <trkpt lat="40.248250" lon="-4.893650">
        <ele>1243.0</ele>
        <time>2018-09-15T13:15:35Z</time>
      </trkpt>
      <trkpt lat="40.248267" lon="-4.893600">
        <ele>1245.0</ele>
        <time>2018-09-15T13:15:36Z</time>
      </trkpt>
      <trkpt lat="40.248267" lon="-4.893567">
        <ele>1248.0</ele>
        <time>2018-09-15T13:15:37Z</time>
      </trkpt>
      <trkpt lat="40.248250" lon="-4.893533">
        <ele>1250.0</ele>
        <time>2018-09-15T13:15:38Z</time>
      </trkpt>
      <trkpt lat="40.248217" lon="-4.893517">
        <ele>1251.0</ele>
        <time>2018-09-15T13:15:39Z</time>
      </trkpt>
      <trkpt lat="40.248167" lon="-4.893517">
        <ele>1251.0</ele>
        <time>2018-09-15T13:15:40Z</time>
      </trkpt>
      <trkpt lat="40.248100" lon="-4.893550">
        <ele>1252.0</ele>
        <time>2018-09-15T13:15:41Z</time>
      </trkpt>
      <trkpt lat="40.248033" lon="-4.893617">
        <ele>1252.0</ele>
        <time>2018-09-15T13:15:42Z</time>
      </trkpt>
      <trkpt lat="40.248000" lon="-4.893750">
        <ele>1250.0</ele>
        <time>2018-09-15T13:15:43Z</time>
      </trkpt>
      <trkpt lat="40.247983" lon="-4.893917">
        <ele>1248.0</ele>
        <time>2018-09-15T13:15:44Z</time>
      </trkpt>
      <trkpt lat="40.248033" lon="-4.894083">
        <ele>1246.0</ele>
        <time>2018-09-15T13:15:45Z</time>
      </trkpt>
      <trkpt lat="40.248100" lon="-4.894233">
        <ele>1246.0</ele>
        <time>2018-09-15T13:15:46Z</time>
      </trkpt>
      <trkpt lat="40.248200" lon="-4.894350">
        <ele>1245.0</ele>
        <time>2018-09-15T13:15:47Z</time>
      </trkpt>
      <trkpt lat="40.248317" lon="-4.894417">
        <ele>1245.0</ele>
        <time>2018-09-15T13:15:48Z</time>
      </trkpt>
      <trkpt lat="40.248417" lon="-4.894450">
        <ele>1246.0</ele>
        <time>2018-09-15T13:15:49Z</time>
      </trkpt>
      <trkpt lat="40.248500" lon="-4.894483">
        <ele>1247.0</ele>
        <time>2018-09-15T13:15:50Z</time>
      </trkpt>
      <trkpt lat="40.248600" lon="-4.894533">
        <ele>1249.0</ele>
        <time>2018-09-15T13:15:51Z</time>
      </trkpt>
      <trkpt lat="40.248700" lon="-4.894550">
        <ele>1250.0</ele>
        <time>2018-09-15T13:15:52Z</time>
      </trkpt>
      <trkpt lat="40.248767" lon="-4.894567">
        <ele>1251.0</ele>
        <time>2018-09-15T13:15:53Z</time>
      </trkpt>
      <trkpt lat="40.248833" lon="-4.894517">
        <ele>1249.0</ele>
        <time>2018-09-15T13:15:54Z</time>
      </trkpt>
      <trkpt lat="40.248883" lon="-4.894467">
        <ele>1250.0</ele>
        <time>2018-09-15T13:15:55Z</time>
      </trkpt>
      <trkpt lat="40.248883" lon="-4.894417">
        <ele>1251.0</ele>
        <time>2018-09-15T13:15:56Z</time>
      </trkpt>
      <trkpt lat="40.248850" lon="-4.894400">
        <ele>1252.0</ele>
        <time>2018-09-15T13:15:57Z</time>
      </trkpt>
      <trkpt lat="40.248783" lon="-4.894433">
        <ele>1252.0</ele>
        <time>2018-09-15T13:15:58Z</time>
      </trkpt>
      <trkpt lat="40.248717" lon="-4.894500">
        <ele>1252.0</ele>
        <time>2018-09-15T13:15:59Z</time>
      </trkpt>
      <trkpt lat="40.248683" lon="-4.894617">
        <ele>1253.0</ele>
        <time>2018-09-15T13:16:00Z</time>
      </trkpt>
      <trkpt lat="40.248667" lon="-4.894750">
        <ele>1253.0</ele>
        <time>2018-09-15T13:16:01Z</time>
      </trkpt>
      <trkpt lat="40.248667" lon="-4.894917">
        <ele>1253.0</ele>
        <time>2018-09-15T13:16:02Z</time>
      </trkpt>
      <trkpt lat="40.248717" lon="-4.895083">
        <ele>1254.0</ele>
        <time>2018-09-15T13:16:03Z</time>
      </trkpt>
      <trkpt lat="40.248783" lon="-4.895233">
        <ele>1255.0</ele>
        <time>2018-09-15T13:16:04Z</time>
      </trkpt>
      <trkpt lat="40.248900" lon="-4.895333">
        <ele>1256.0</ele>
        <time>2018-09-15T13:16:05Z</time>
      </trkpt>
      <trkpt lat="40.249000" lon="-4.895367">
        <ele>1257.0</ele>
        <time>2018-09-15T13:16:06Z</time>
      </trkpt>
      <trkpt lat="40.249083" lon="-4.895350">
        <ele>1258.0</ele>
        <time>2018-09-15T13:16:07Z</time>
      </trkpt>
      <trkpt lat="40.249150" lon="-4.895300">
        <ele>1259.0</ele>
        <time>2018-09-15T13:16:08Z</time>
      </trkpt>
      <trkpt lat="40.249183" lon="-4.895233">
        <ele>1260.0</ele>
        <time>2018-09-15T13:16:09Z</time>
      </trkpt>
      <trkpt lat="40.249200" lon="-4.895167">
        <ele>1262.0</ele>
        <time>2018-09-15T13:16:10Z</time>
      </trkpt>
      <trkpt lat="40.249167" lon="-4.895133">
        <ele>1263.0</ele>
        <time>2018-09-15T13:16:11Z</time>
      </trkpt>
      <trkpt lat="40.249100" lon="-4.895150">
        <ele>1265.0</ele>
        <time>2018-09-15T13:16:12Z</time>
      </trkpt>
      <trkpt lat="40.249050" lon="-4.895217">
        <ele>1266.0</ele>
        <time>2018-09-15T13:16:13Z</time>
      </trkpt>
      <trkpt lat="40.249033" lon="-4.895367">
        <ele>1267.0</ele>
        <time>2018-09-15T13:16:14Z</time>
      </trkpt>
      <trkpt lat="40.249050" lon="-4.895550">
        <ele>1267.0</ele>
        <time>2018-09-15T13:16:15Z</time>
      </trkpt>
      <trkpt lat="40.249117" lon="-4.895733">
        <ele>1268.0</ele>
        <time>2018-09-15T13:16:16Z</time>
      </trkpt>
      <trkpt lat="40.249217" lon="-4.895850">
        <ele>1269.0</ele>
        <time>2018-09-15T13:16:17Z</time>
      </trkpt>
      <trkpt lat="40.249333" lon="-4.895883">
        <ele>1270.0</ele>
        <time>2018-09-15T13:16:18Z</time>
      </trkpt>
      <trkpt lat="40.249433" lon="-4.895850">
        <ele>1271.0</ele>
        <time>2018-09-15T13:16:19Z</time>
      </trkpt>
      <trkpt lat="40.249483" lon="-4.895783">
        <ele>1272.0</ele>
        <time>2018-09-15T13:16:20Z</time>
      </trkpt>
      <trkpt lat="40.249533" lon="-4.895750">
        <ele>1276.0</ele>
        <time>2018-09-15T13:16:21Z</time>
      </trkpt>
      <trkpt lat="40.249567" lon="-4.895717">
        <ele>1278.0</ele>
        <time>2018-09-15T13:16:22Z</time>
      </trkpt>
      <trkpt lat="40.249583" lon="-4.895700">
        <ele>1280.0</ele>
        <time>2018-09-15T13:16:23Z</time>
      </trkpt>
      <trkpt lat="40.249583" lon="-4.895683">
        <ele>1282.0</ele>
        <time>2018-09-15T13:16:24Z</time>
      </trkpt>
      <trkpt lat="40.249567" lon="-4.895667">
        <ele>1283.0</ele>
        <time>2018-09-15T13:16:25Z</time>
      </trkpt>
      <trkpt lat="40.249500" lon="-4.895667">
        <ele>1279.0</ele>
        <time>2018-09-15T13:16:26Z</time>
      </trkpt>
      <trkpt lat="40.249417" lon="-4.895733">
        <ele>1279.0</ele>
        <time>2018-09-15T13:16:27Z</time>
      </trkpt>
      <trkpt lat="40.249383" lon="-4.895883">
        <ele>1280.0</ele>
        <time>2018-09-15T13:16:28Z</time>
      </trkpt>
      <trkpt lat="40.249367" lon="-4.896050">
        <ele>1280.0</ele>
        <time>2018-09-15T13:16:29Z</time>
      </trkpt>
      <trkpt lat="40.249400" lon="-4.896217">
        <ele>1280.0</ele>
        <time>2018-09-15T13:16:30Z</time>
      </trkpt>
      <trkpt lat="40.249467" lon="-4.896350">
        <ele>1282.0</ele>
        <time>2018-09-15T13:16:31Z</time>
      </trkpt>
      <trkpt lat="40.249550" lon="-4.896417">
        <ele>1284.0</ele>
        <time>2018-09-15T13:16:32Z</time>
      </trkpt>
      <trkpt lat="40.249650" lon="-4.896417">
        <ele>1286.0</ele>
        <time>2018-09-15T13:16:33Z</time>
      </trkpt>
      <trkpt lat="40.249717" lon="-4.896350">
        <ele>1288.0</ele>
        <time>2018-09-15T13:16:34Z</time>
      </trkpt>
      <trkpt lat="40.249750" lon="-4.896283">
        <ele>1290.0</ele>
        <time>2018-09-15T13:16:35Z</time>
      </trkpt>
      <trkpt lat="40.249733" lon="-4.896217">
        <ele>1292.0</ele>
        <time>2018-09-15T13:16:36Z</time>
      </trkpt>
      <trkpt lat="40.249700" lon="-4.896200">
        <ele>1295.0</ele>
        <time>2018-09-15T13:16:37Z</time>
      </trkpt>
      <trkpt lat="40.249633" lon="-4.896250">
        <ele>1293.0</ele>
        <time>2018-09-15T13:16:38Z</time>
      </trkpt>
      <trkpt lat="40.249567" lon="-4.896383">
        <ele>1293.0</ele>
        <time>2018-09-15T13:16:39Z</time>
      </trkpt>
      <trkpt lat="40.249550" lon="-4.896550">
        <ele>1293.0</ele>
        <time>2018-09-15T13:16:40Z</time>
      </trkpt>
      <trkpt lat="40.249567" lon="-4.896717">
        <ele>1294.0</ele>
        <time>2018-09-15T13:16:41Z</time>
      </trkpt>
      <trkpt lat="40.249633" lon="-4.896883">
        <ele>1295.0</ele>
        <time>2018-09-15T13:16:42Z</time>
      </trkpt>
      <trkpt lat="40.249750" lon="-4.896983">
        <ele>1296.0</ele>
        <time>2018-09-15T13:16:43Z</time>
      </trkpt>
      <trkpt lat="40.249833" lon="-4.897033">
        <ele>1297.0</ele>
        <time>2018-09-15T13:16:44Z</time>
      </trkpt>
      <trkpt lat="40.249917" lon="-4.897067">
        <ele>1300.0</ele>
        <time>2018-09-15T13:16:45Z</time>
      </trkpt>
      <trkpt lat="40.250000" lon="-4.897067">
        <ele>1302.0</ele>
        <time>2018-09-15T13:16:46Z</time>
      </trkpt>
      <trkpt lat="40.250067" lon="-4.897033">
        <ele>1301.0</ele>
        <time>2018-09-15T13:16:47Z</time>
      </trkpt>
      <trkpt lat="40.250117" lon="-4.897000">
        <ele>1301.0</ele>
        <time>2018-09-15T13:16:48Z</time>
      </trkpt>
      <trkpt lat="40.250133" lon="-4.896950">
        <ele>1302.0</ele>
        <time>2018-09-15T13:16:49Z</time>
      </trkpt>
      <trkpt lat="40.250117" lon="-4.896900">
        <ele>1304.0</ele>
        <time>2018-09-15T13:16:50Z</time>
      </trkpt>
      <trkpt lat="40.250050" lon="-4.896883">
        <ele>1305.0</ele>
        <time>2018-09-15T13:16:51Z</time>
      </trkpt>
      <trkpt lat="40.249967" lon="-4.896967">
        <ele>1306.0</ele>
        <time>2018-09-15T13:16:52Z</time>
      </trkpt>
      <trkpt lat="40.249917" lon="-4.897100">
        <ele>1306.0</ele>
        <time>2018-09-15T13:16:53Z</time>
      </trkpt>
      <trkpt lat="40.249900" lon="-4.897283">
        <ele>1306.0</ele>
        <time>2018-09-15T13:16:54Z</time>
      </trkpt>
      <trkpt lat="40.249933" lon="-4.897467">
        <ele>1307.0</ele>
        <time>2018-09-15T13:16:55Z</time>
      </trkpt>
      <trkpt lat="40.250000" lon="-4.897600">
        <ele>1309.0</ele>
        <time>2018-09-15T13:16:56Z</time>
      </trkpt>
      <trkpt lat="40.250083" lon="-4.897700">
        <ele>1311.0</ele>
        <time>2018-09-15T13:16:57Z</time>
      </trkpt>
      <trkpt lat="40.250183" lon="-4.897767">
        <ele>1314.0</ele>
        <time>2018-09-15T13:16:58Z</time>
      </trkpt>
      <trkpt lat="40.250267" lon="-4.897767">
        <ele>1315.0</ele>
        <time>2018-09-15T13:16:59Z</time>
      </trkpt>
      <trkpt lat="40.250350" lon="-4.897733">
        <ele>1318.0</ele>
        <time>2018-09-15T13:17:00Z</time>
      </trkpt>
      <trkpt lat="40.250383" lon="-4.897700">
        <ele>1317.0</ele>
        <time>2018-09-15T13:17:01Z</time>
      </trkpt>
      <trkpt lat="40.250433" lon="-4.897633">
        <ele>1319.0</ele>
        <time>2018-09-15T13:17:02Z</time>
      </trkpt>
      <trkpt lat="40.250400" lon="-4.897617">
        <ele>1322.0</ele>
        <time>2018-09-15T13:17:03Z</time>
      </trkpt>
      <trkpt lat="40.250367" lon="-4.897650">
        <ele>1324.0</ele>
        <time>2018-09-15T13:17:04Z</time>
      </trkpt>
      <trkpt lat="40.250317" lon="-4.897733">
        <ele>1325.0</ele>
        <time>2018-09-15T13:17:05Z</time>
      </trkpt>
      <trkpt lat="40.250267" lon="-4.897850">
        <ele>1326.0</ele>
        <time>2018-09-15T13:17:06Z</time>
      </trkpt>
      <trkpt lat="40.250217" lon="-4.898017">
        <ele>1326.0</ele>
        <time>2018-09-15T13:17:07Z</time>
      </trkpt>
      <trkpt lat="40.250217" lon="-4.898233">
        <ele>1327.0</ele>
        <time>2018-09-15T13:17:08Z</time>
      </trkpt>
      <trkpt lat="40.250267" lon="-4.898433">
        <ele>1328.0</ele>
        <time>2018-09-15T13:17:09Z</time>
      </trkpt>
      <trkpt lat="40.250350" lon="-4.898550">
        <ele>1329.0</ele>
        <time>2018-09-15T13:17:10Z</time>
      </trkpt>
      <trkpt lat="40.250433" lon="-4.898683">
        <ele>1330.0</ele>
        <time>2018-09-15T13:17:11Z</time>
      </trkpt>
      <trkpt lat="40.250517" lon="-4.898733">
        <ele>1331.0</ele>
        <time>2018-09-15T13:17:12Z</time>
      </trkpt>
      <trkpt lat="40.250617" lon="-4.898767">
        <ele>1334.0</ele>
        <time>2018-09-15T13:17:13Z</time>
      </trkpt>
      <trkpt lat="40.250683" lon="-4.898717">
        <ele>1336.0</ele>
        <time>2018-09-15T13:17:14Z</time>
      </trkpt>
      <trkpt lat="40.250750" lon="-4.898650">
        <ele>1339.0</ele>
        <time>2018-09-15T13:17:15Z</time>
      </trkpt>
      <trkpt lat="40.250800" lon="-4.898567">
        <ele>1340.0</ele>
        <time>2018-09-15T13:17:16Z</time>
      </trkpt>
      <trkpt lat="40.250767" lon="-4.898483">
        <ele>1342.0</ele>
        <time>2018-09-15T13:17:17Z</time>
      </trkpt>
      <trkpt lat="40.250700" lon="-4.898433">
        <ele>1343.0</ele>
        <time>2018-09-15T13:17:18Z</time>
      </trkpt>
      <trkpt lat="40.250650" lon="-4.898450">
        <ele>1345.0</ele>
        <time>2018-09-15T13:17:19Z</time>
      </trkpt>
      <trkpt lat="40.250583" lon="-4.898500">
        <ele>1346.0</ele>
        <time>2018-09-15T13:17:20Z</time>
      </trkpt>
      <trkpt lat="40.250550" lon="-4.898583">
        <ele>1347.0</ele>
        <time>2018-09-15T13:17:21Z</time>
      </trkpt>
      <trkpt lat="40.250500" lon="-4.898667">
        <ele>1347.0</ele>
        <time>2018-09-15T13:17:22Z</time>
      </trkpt>
      <trkpt lat="40.250467" lon="-4.898767">
        <ele>1348.0</ele>
        <time>2018-09-15T13:17:23Z</time>
      </trkpt>
      <trkpt lat="40.250450" lon="-4.898900">
        <ele>1348.0</ele>
        <time>2018-09-15T13:17:24Z</time>
      </trkpt>
      <trkpt lat="40.250483" lon="-4.899050">
        <ele>1348.0</ele>
        <time>2018-09-15T13:17:25Z</time>
      </trkpt>
      <trkpt lat="40.250550" lon="-4.899183">
        <ele>1349.0</ele>
        <time>2018-09-15T13:17:26Z</time>
      </trkpt>
      <trkpt lat="40.250667" lon="-4.899183">
        <ele>1349.0</ele>
        <time>2018-09-15T13:17:27Z</time>
      </trkpt>
      <trkpt lat="40.250750" lon="-4.899217">
        <ele>1350.0</ele>
        <time>2018-09-15T13:17:28Z</time>
      </trkpt>
      <trkpt lat="40.250833" lon="-4.899183">
        <ele>1351.0</ele>
        <time>2018-09-15T13:17:29Z</time>
      </trkpt>
      <trkpt lat="40.250883" lon="-4.899167">
        <ele>1351.0</ele>
        <time>2018-09-15T13:17:30Z</time>
      </trkpt>
      <trkpt lat="40.250900" lon="-4.899100">
        <ele>1351.0</ele>
        <time>2018-09-15T13:17:31Z</time>
      </trkpt>
      <trkpt lat="40.250917" lon="-4.899050">
        <ele>1350.0</ele>
        <time>2018-09-15T13:17:32Z</time>
      </trkpt>
      <trkpt lat="40.250933" lon="-4.899017">
        <ele>1350.0</ele>
        <time>2018-09-15T13:17:33Z</time>
      </trkpt>
      <trkpt lat="40.250933" lon="-4.899000">
        <ele>1350.0</ele>
        <time>2018-09-15T13:17:34Z</time>
      </trkpt>
      <trkpt lat="40.250933" lon="-4.898967">
        <ele>1351.0</ele>
        <time>2018-09-15T13:17:35Z</time>
      </trkpt>
      <trkpt lat="40.250933" lon="-4.898967">
        <ele>1352.0</ele>
        <time>2018-09-15T13:17:36Z</time>
      </trkpt>
      <trkpt lat="40.250917" lon="-4.898983">
        <ele>1353.0</ele>
        <time>2018-09-15T13:17:37Z</time>
      </trkpt>
      <trkpt lat="40.250867" lon="-4.899033">
        <ele>1354.0</ele>
        <time>2018-09-15T13:17:38Z</time>
      </trkpt>
      <trkpt lat="40.250833" lon="-4.899100">
        <ele>1354.0</ele>
        <time>2018-09-15T13:17:39Z</time>
      </trkpt>
      <trkpt lat="40.250833" lon="-4.899283">
        <ele>1354.0</ele>
        <time>2018-09-15T13:17:40Z</time>
      </trkpt>
      <trkpt lat="40.250850" lon="-4.899433">
        <ele>1354.0</ele>
        <time>2018-09-15T13:17:41Z</time>
      </trkpt>
      <trkpt lat="40.250833" lon="-4.899500">
        <ele>1354.0</ele>
        <time>2018-09-15T13:17:42Z</time>
      </trkpt>
      <trkpt lat="40.250850" lon="-4.899533">
        <ele>1354.0</ele>
        <time>2018-09-15T13:17:43Z</time>
      </trkpt>
      <trkpt lat="40.250883" lon="-4.899533">
        <ele>1355.0</ele>
        <time>2018-09-15T13:17:44Z</time>
      </trkpt>
      <trkpt lat="40.250950" lon="-4.899517">
        <ele>1356.0</ele>
        <time>2018-09-15T13:17:45Z</time>
      </trkpt>
      <trkpt lat="40.250983" lon="-4.899467">
        <ele>1357.0</ele>
        <time>2018-09-15T13:17:46Z</time>
      </trkpt>
      <trkpt lat="40.250983" lon="-4.899433">
        <ele>1359.0</ele>
        <time>2018-09-15T13:17:47Z</time>
      </trkpt>
      <trkpt lat="40.250967" lon="-4.899383">
        <ele>1362.0</ele>
        <time>2018-09-15T13:17:48Z</time>
      </trkpt>
      <trkpt lat="40.250933" lon="-4.899317">
        <ele>1363.0</ele>
        <time>2018-09-15T13:17:49Z</time>
      </trkpt>
      <trkpt lat="40.250900" lon="-4.899283">
        <ele>1365.0</ele>
        <time>2018-09-15T13:17:50Z</time>
      </trkpt>
      <trkpt lat="40.250883" lon="-4.899283">
        <ele>1369.0</ele>
        <time>2018-09-15T13:17:51Z</time>
      </trkpt>
      <trkpt lat="40.250883" lon="-4.899283">
        <ele>1370.0</ele>
        <time>2018-09-15T13:17:52Z</time>
      </trkpt>
      <trkpt lat="40.250850" lon="-4.899317">
        <ele>1372.0</ele>
        <time>2018-09-15T13:17:53Z</time>
      </trkpt>
      <trkpt lat="40.250800" lon="-4.899300">
        <ele>1376.0</ele>
        <time>2018-09-15T13:17:54Z</time>
      </trkpt>
      <trkpt lat="40.250783" lon="-4.899267">
        <ele>1379.0</ele>
        <time>2018-09-15T13:17:55Z</time>
      </trkpt>
      <trkpt lat="40.250783" lon="-4.899217">
        <ele>1383.0</ele>
        <time>2018-09-15T13:17:56Z</time>
      </trkpt>
      <trkpt lat="40.250817" lon="-4.899150">
        <ele>1391.0</ele>
        <time>2018-09-15T13:17:57Z</time>
      </trkpt>
      <trkpt lat="40.250867" lon="-4.899117">
        <ele>1398.0</ele>
        <time>2018-09-15T13:17:58Z</time>
      </trkpt>
      <trkpt lat="40.250917" lon="-4.899067">
        <ele>1405.0</ele>
        <time>2018-09-15T13:17:59Z</time>
      </trkpt>
      <trkpt lat="40.250967" lon="-4.899033">
        <ele>1412.0</ele>
        <time>2018-09-15T13:18:00Z</time>
      </trkpt>
      <trkpt lat="40.251050" lon="-4.899033">
        <ele>1419.0</ele>
        <time>2018-09-15T13:18:01Z</time>
      </trkpt>
      <trkpt lat="40.251117" lon="-4.899067">
        <ele>1423.0</ele>
        <time>2018-09-15T13:18:02Z</time>
      </trkpt>
      <trkpt lat="40.251200" lon="-4.899133">
        <ele>1427.0</ele>
        <time>2018-09-15T13:18:03Z</time>
      </trkpt>
      <trkpt lat="40.251267" lon="-4.899250">
        <ele>1430.0</ele>
        <time>2018-09-15T13:18:04Z</time>
      </trkpt>
      <trkpt lat="40.251300" lon="-4.899367">
        <ele>1434.0</ele>
        <time>2018-09-15T13:18:05Z</time>
      </trkpt>
      <trkpt lat="40.251317" lon="-4.899517">
        <ele>1436.0</ele>
        <time>2018-09-15T13:18:06Z</time>
      </trkpt>
      <trkpt lat="40.251300" lon="-4.899667">
        <ele>1438.0</ele>
        <time>2018-09-15T13:18:07Z</time>
      </trkpt>
      <trkpt lat="40.251250" lon="-4.899783">
        <ele>1442.0</ele>
        <time>2018-09-15T13:18:08Z</time>
      </trkpt>
      <trkpt lat="40.251200" lon="-4.899850">
        <ele>1445.0</ele>
        <time>2018-09-15T13:18:09Z</time>
      </trkpt>
      <trkpt lat="40.251150" lon="-4.899917">
        <ele>1450.0</ele>
        <time>2018-09-15T13:18:10Z</time>
      </trkpt>
      <trkpt lat="40.251100" lon="-4.899967">
        <ele>1454.0</ele>
        <time>2018-09-15T13:18:11Z</time>
      </trkpt>
      <trkpt lat="40.251050" lon="-4.900000">
        <ele>1458.0</ele>
        <time>2018-09-15T13:18:12Z</time>
      </trkpt>
      <trkpt lat="40.251000" lon="-4.899983">
        <ele>1461.0</ele>
        <time>2018-09-15T13:18:13Z</time>
      </trkpt>
      <trkpt lat="40.250967" lon="-4.899967">
        <ele>1464.0</ele>
        <time>2018-09-15T13:18:14Z</time>
      </trkpt>
      <trkpt lat="40.250983" lon="-4.899950">
        <ele>1468.0</ele>
        <time>2018-09-15T13:18:15Z</time>
      </trkpt>
      <trkpt lat="40.251017" lon="-4.899950">
        <ele>1473.0</ele>
        <time>2018-09-15T13:18:16Z</time>
      </trkpt>
      <trkpt lat="40.251033" lon="-4.899933">
        <ele>1477.0</ele>
        <time>2018-09-15T13:18:17Z</time>
      </trkpt>
      <trkpt lat="40.251050" lon="-4.899900">
        <ele>1481.0</ele>
        <time>2018-09-15T13:18:18Z</time>
      </trkpt>
      <trkpt lat="40.251100" lon="-4.899867">
        <ele>1484.0</ele>
        <time>2018-09-15T13:18:19Z</time>
      </trkpt>
      <trkpt lat="40.251150" lon="-4.899833">
        <ele>1487.0</ele>
        <time>2018-09-15T13:18:20Z</time>
      </trkpt>
      <trkpt lat="40.251233" lon="-4.899850">
        <ele>1489.0</ele>
        <time>2018-09-15T13:18:21Z</time>
      </trkpt>
      <trkpt lat="40.251317" lon="-4.899900">
        <ele>1492.0</ele>
        <time>2018-09-15T13:18:22Z</time>
      </trkpt>
      <trkpt lat="40.251417" lon="-4.899983">
        <ele>1493.0</ele>
        <time>2018-09-15T13:18:23Z</time>
      </trkpt>
      <trkpt lat="40.251500" lon="-4.900117">
        <ele>1495.0</ele>
        <time>2018-09-15T13:18:24Z</time>
      </trkpt>
      <trkpt lat="40.251550" lon="-4.900250">
        <ele>1499.0</ele>
        <time>2018-09-15T13:18:25Z</time>
      </trkpt>
      <trkpt lat="40.251583" lon="-4.900400">
        <ele>1503.0</ele>
        <time>2018-09-15T13:18:26Z</time>
      </trkpt>
      <trkpt lat="40.251600" lon="-4.900550">
        <ele>1506.0</ele>
        <time>2018-09-15T13:18:27Z</time>
      </trkpt>
      <trkpt lat="40.251567" lon="-4.900683">
        <ele>1508.0</ele>
        <time>2018-09-15T13:18:28Z</time>
      </trkpt>
      <trkpt lat="40.251550" lon="-4.900817">
        <ele>1511.0</ele>
        <time>2018-09-15T13:18:29Z</time>
      </trkpt>
      <trkpt lat="40.251517" lon="-4.900950">
        <ele>1514.0</ele>
        <time>2018-09-15T13:18:30Z</time>
      </trkpt>
      <trkpt lat="40.251467" lon="-4.901067">
        <ele>1517.0</ele>
        <time>2018-09-15T13:18:31Z</time>
      </trkpt>
      <trkpt lat="40.251417" lon="-4.901150">
        <ele>1519.0</ele>
        <time>2018-09-15T13:18:32Z</time>
      </trkpt>
      <trkpt lat="40.251350" lon="-4.901250">
        <ele>1521.0</ele>
        <time>2018-09-15T13:18:33Z</time>
      </trkpt>
      <trkpt lat="40.251267" lon="-4.901317">
        <ele>1524.0</ele>
        <time>2018-09-15T13:18:34Z</time>
      </trkpt>
      <trkpt lat="40.251217" lon="-4.901333">
        <ele>1526.0</ele>
        <time>2018-09-15T13:18:35Z</time>
      </trkpt>
      <trkpt lat="40.251167" lon="-4.901317">
        <ele>1529.0</ele>
        <time>2018-09-15T13:18:36Z</time>
      </trkpt>
      <trkpt lat="40.251150" lon="-4.901267">
        <ele>1531.0</ele>
        <time>2018-09-15T13:18:37Z</time>
      </trkpt>
      <trkpt lat="40.251200" lon="-4.901217">
        <ele>1532.0</ele>
        <time>2018-09-15T13:18:38Z</time>
      </trkpt>
      <trkpt lat="40.251267" lon="-4.901183">
        <ele>1535.0</ele>
        <time>2018-09-15T13:18:39Z</time>
      </trkpt>
      <trkpt lat="40.251350" lon="-4.901183">
        <ele>1538.0</ele>
        <time>2018-09-15T13:18:40Z</time>
      </trkpt>
      <trkpt lat="40.251433" lon="-4.901233">
        <ele>1540.0</ele>
        <time>2018-09-15T13:18:41Z</time>
      </trkpt>
      <trkpt lat="40.251517" lon="-4.901317">
        <ele>1543.0</ele>
        <time>2018-09-15T13:18:42Z</time>
      </trkpt>
      <trkpt lat="40.251600" lon="-4.901417">
        <ele>1545.0</ele>
        <time>2018-09-15T13:18:43Z</time>
      </trkpt>
      <trkpt lat="40.251650" lon="-4.901567">
        <ele>1547.0</ele>
        <time>2018-09-15T13:18:44Z</time>
      </trkpt>
      <trkpt lat="40.251700" lon="-4.901750">
        <ele>1550.0</ele>
        <time>2018-09-15T13:18:45Z</time>
      </trkpt>
      <trkpt lat="40.251717" lon="-4.901933">
        <ele>1552.0</ele>
        <time>2018-09-15T13:18:46Z</time>
      </trkpt>
      <trkpt lat="40.251683" lon="-4.902083">
        <ele>1554.0</ele>
        <time>2018-09-15T13:18:47Z</time>
      </trkpt>
      <trkpt lat="40.251617" lon="-4.902217">
        <ele>1557.0</ele>
        <time>2018-09-15T13:18:48Z</time>
      </trkpt>
      <trkpt lat="40.251567" lon="-4.902317">
        <ele>1559.0</ele>
        <time>2018-09-15T13:18:49Z</time>
      </trkpt>
      <trkpt lat="40.251517" lon="-4.902383">
        <ele>1562.0</ele>
        <time>2018-09-15T13:18:50Z</time>
      </trkpt>
      <trkpt lat="40.251467" lon="-4.902433">
        <ele>1564.0</ele>
        <time>2018-09-15T13:18:51Z</time>
      </trkpt>
      <trkpt lat="40.251417" lon="-4.902433">
        <ele>1567.0</ele>
        <time>2018-09-15T13:18:52Z</time>
      </trkpt>
      <trkpt lat="40.251400" lon="-4.902400">
        <ele>1569.0</ele>
        <time>2018-09-15T13:18:53Z</time>
      </trkpt>
      <trkpt lat="40.251400" lon="-4.902350">
        <ele>1571.0</ele>
        <time>2018-09-15T13:18:54Z</time>
      </trkpt>
      <trkpt lat="40.251433" lon="-4.902300">
        <ele>1573.0</ele>
        <time>2018-09-15T13:18:55Z</time>
      </trkpt>
      <trkpt lat="40.251483" lon="-4.902267">
        <ele>1575.0</ele>
        <time>2018-09-15T13:18:56Z</time>
      </trkpt>
      <trkpt lat="40.251583" lon="-4.902283">
        <ele>1576.0</ele>
        <time>2018-09-15T13:18:57Z</time>
      </trkpt>
      <trkpt lat="40.251667" lon="-4.902317">
        <ele>1579.0</ele>
        <time>2018-09-15T13:18:58Z</time>
      </trkpt>
      <trkpt lat="40.251750" lon="-4.902383">
        <ele>1581.0</ele>
        <time>2018-09-15T13:18:59Z</time>
      </trkpt>
      <trkpt lat="40.251817" lon="-4.902467">
        <ele>1584.0</ele>
        <time>2018-09-15T13:19:00Z</time>
      </trkpt>
      <trkpt lat="40.251883" lon="-4.902567">
        <ele>1586.0</ele>
        <time>2018-09-15T13:19:01Z</time>
      </trkpt>
      <trkpt lat="40.251950" lon="-4.902683">
        <ele>1589.0</ele>
        <time>2018-09-15T13:19:02Z</time>
      </trkpt>
      <trkpt lat="40.252000" lon="-4.902817">
        <ele>1592.0</ele>
        <time>2018-09-15T13:19:03Z</time>
      </trkpt>
      <trkpt lat="40.252033" lon="-4.903000">
        <ele>1595.0</ele>
        <time>2018-09-15T13:19:04Z</time>
      </trkpt>
      <trkpt lat="40.252033" lon="-4.903183">
        <ele>1597.0</ele>
        <time>2018-09-15T13:19:05Z</time>
      </trkpt>
      <trkpt lat="40.252000" lon="-4.903317">
        <ele>1600.0</ele>
        <time>2018-09-15T13:19:06Z</time>
      </trkpt>
      <trkpt lat="40.251950" lon="-4.903467">
        <ele>1603.0</ele>
        <time>2018-09-15T13:19:07Z</time>
      </trkpt>
      <trkpt lat="40.251900" lon="-4.903567">
        <ele>1607.0</ele>
        <time>2018-09-15T13:19:08Z</time>
      </trkpt>
      <trkpt lat="40.251833" lon="-4.903650">
        <ele>1610.0</ele>
        <time>2018-09-15T13:19:09Z</time>
      </trkpt>
      <trkpt lat="40.251783" lon="-4.903683">
        <ele>1613.0</ele>
        <time>2018-09-15T13:19:10Z</time>
      </trkpt>
      <trkpt lat="40.251750" lon="-4.903667">
        <ele>1616.0</ele>
        <time>2018-09-15T13:19:11Z</time>
      </trkpt>
      <trkpt lat="40.251750" lon="-4.903617">
        <ele>1618.0</ele>
        <time>2018-09-15T13:19:12Z</time>
      </trkpt>
      <trkpt lat="40.251783" lon="-4.903567">
        <ele>1619.0</ele>
        <time>2018-09-15T13:19:13Z</time>
      </trkpt>
      <trkpt lat="40.251867" lon="-4.903517">
        <ele>1621.0</ele>
        <time>2018-09-15T13:19:14Z</time>
      </trkpt>
      <trkpt lat="40.251950" lon="-4.903500">
        <ele>1623.0</ele>
        <time>2018-09-15T13:19:15Z</time>
      </trkpt>
      <trkpt lat="40.252050" lon="-4.903500">
        <ele>1627.0</ele>
        <time>2018-09-15T13:19:16Z</time>
      </trkpt>
      <trkpt lat="40.252133" lon="-4.903550">
        <ele>1631.0</ele>
        <time>2018-09-15T13:19:17Z</time>
      </trkpt>
      <trkpt lat="40.252217" lon="-4.903600">
        <ele>1634.0</ele>
        <time>2018-09-15T13:19:18Z</time>
      </trkpt>
      <trkpt lat="40.252300" lon="-4.903650">
        <ele>1637.0</ele>
        <time>2018-09-15T13:19:19Z</time>
      </trkpt>
      <trkpt lat="40.252383" lon="-4.903733">
        <ele>1640.0</ele>
        <time>2018-09-15T13:19:20Z</time>
      </trkpt>
      <trkpt lat="40.252483" lon="-4.903800">
        <ele>1644.0</ele>
        <time>2018-09-15T13:19:21Z</time>
      </trkpt>
      <trkpt lat="40.252567" lon="-4.903867">
        <ele>1647.0</ele>
        <time>2018-09-15T13:19:22Z</time>
      </trkpt>
      <trkpt lat="40.252617" lon="-4.903900">
        <ele>1650.0</ele>
        <time>2018-09-15T13:19:23Z</time>
      </trkpt>
      <trkpt lat="40.252683" lon="-4.903917">
        <ele>1646.0</ele>
        <time>2018-09-15T13:19:24Z</time>
      </trkpt>
      <trkpt lat="40.252733" lon="-4.903883">
        <ele>1648.0</ele>
        <time>2018-09-15T13:19:25Z</time>
      </trkpt>
      <trkpt lat="40.252750" lon="-4.903867">
        <ele>1647.0</ele>
        <time>2018-09-15T13:19:26Z</time>
      </trkpt>
      <trkpt lat="40.252733" lon="-4.903867">
        <ele>1648.0</ele>
        <time>2018-09-15T13:19:27Z</time>
      </trkpt>
      <trkpt lat="40.252667" lon="-4.903900">
        <ele>1649.0</ele>
        <time>2018-09-15T13:19:28Z</time>
      </trkpt>
      <trkpt lat="40.252600" lon="-4.904000">
        <ele>1650.0</ele>
        <time>2018-09-15T13:19:29Z</time>
      </trkpt>
      <trkpt lat="40.252567" lon="-4.904150">
        <ele>1651.0</ele>
        <time>2018-09-15T13:19:30Z</time>
      </trkpt>
      <trkpt lat="40.252550" lon="-4.904333">
        <ele>1652.0</ele>
        <time>2018-09-15T13:19:31Z</time>
      </trkpt>
      <trkpt lat="40.252567" lon="-4.904533">
        <ele>1654.0</ele>
        <time>2018-09-15T13:19:32Z</time>
      </trkpt>
      <trkpt lat="40.252617" lon="-4.904700">
        <ele>1657.0</ele>
        <time>2018-09-15T13:19:33Z</time>
      </trkpt>
      <trkpt lat="40.252683" lon="-4.904817">
        <ele>1661.0</ele>
        <time>2018-09-15T13:19:34Z</time>
      </trkpt>
      <trkpt lat="40.252750" lon="-4.904917">
        <ele>1665.0</ele>
        <time>2018-09-15T13:19:35Z</time>
      </trkpt>
      <trkpt lat="40.252833" lon="-4.904983">
        <ele>1669.0</ele>
        <time>2018-09-15T13:19:36Z</time>
      </trkpt>
      <trkpt lat="40.252917" lon="-4.905033">
        <ele>1673.0</ele>
        <time>2018-09-15T13:19:37Z</time>
      </trkpt>
      <trkpt lat="40.253017" lon="-4.905033">
        <ele>1677.0</ele>
        <time>2018-09-15T13:19:38Z</time>
      </trkpt>
      <trkpt lat="40.253067" lon="-4.905017">
        <ele>1680.0</ele>
        <time>2018-09-15T13:19:39Z</time>
      </trkpt>
      <trkpt lat="40.253083" lon="-4.904950">
        <ele>1676.0</ele>
        <time>2018-09-15T13:19:40Z</time>
      </trkpt>
      <trkpt lat="40.253033" lon="-4.904900">
        <ele>1676.0</ele>
        <time>2018-09-15T13:19:41Z</time>
      </trkpt>
      <trkpt lat="40.252950" lon="-4.904900">
        <ele>1676.0</ele>
        <time>2018-09-15T13:19:42Z</time>
      </trkpt>
      <trkpt lat="40.252900" lon="-4.904967">
        <ele>1678.0</ele>
        <time>2018-09-15T13:19:43Z</time>
      </trkpt>
      <trkpt lat="40.252850" lon="-4.905133">
        <ele>1680.0</ele>
        <time>2018-09-15T13:19:44Z</time>
      </trkpt>
      <trkpt lat="40.252867" lon="-4.905350">
        <ele>1682.0</ele>
        <time>2018-09-15T13:19:45Z</time>
      </trkpt>
      <trkpt lat="40.252883" lon="-4.905533">
        <ele>1684.0</ele>
        <time>2018-09-15T13:19:46Z</time>
      </trkpt>
      <trkpt lat="40.252933" lon="-4.905667">
        <ele>1688.0</ele>
        <time>2018-09-15T13:19:47Z</time>
      </trkpt>
      <trkpt lat="40.253017" lon="-4.905750">
        <ele>1692.0</ele>
        <time>2018-09-15T13:19:48Z</time>
      </trkpt>
      <trkpt lat="40.253117" lon="-4.905817">
        <ele>1695.0</ele>
        <time>2018-09-15T13:19:49Z</time>
      </trkpt>
      <trkpt lat="40.253200" lon="-4.905867">
        <ele>1698.0</ele>
        <time>2018-09-15T13:19:50Z</time>
      </trkpt>
      <trkpt lat="40.253300" lon="-4.905917">
        <ele>1701.0</ele>
        <time>2018-09-15T13:19:51Z</time>
      </trkpt>
      <trkpt lat="40.253383" lon="-4.905900">
        <ele>1700.0</ele>
        <time>2018-09-15T13:19:52Z</time>
      </trkpt>
      <trkpt lat="40.253450" lon="-4.905833">
        <ele>1700.0</ele>
        <time>2018-09-15T13:19:53Z</time>
      </trkpt>
      <trkpt lat="40.253450" lon="-4.905767">
        <ele>1701.0</ele>
        <time>2018-09-15T13:19:54Z</time>
      </trkpt>
      <trkpt lat="40.253417" lon="-4.905733">
        <ele>1702.0</ele>
        <time>2018-09-15T13:19:55Z</time>
      </trkpt>
      <trkpt lat="40.253350" lon="-4.905750">
        <ele>1703.0</ele>
        <time>2018-09-15T13:19:56Z</time>
      </trkpt>
      <trkpt lat="40.253283" lon="-4.905833">
        <ele>1704.0</ele>
        <time>2018-09-15T13:19:57Z</time>
      </trkpt>
      <trkpt lat="40.253167" lon="-4.905967">
        <ele>1705.0</ele>
        <time>2018-09-15T13:19:58Z</time>
      </trkpt>
      <trkpt lat="40.253133" lon="-4.906150">
        <ele>1707.0</ele>
        <time>2018-09-15T13:19:59Z</time>
      </trkpt>
      <trkpt lat="40.253183" lon="-4.906300">
        <ele>1709.0</ele>
        <time>2018-09-15T13:20:00Z</time>
      </trkpt>
      <trkpt lat="40.253267" lon="-4.906383">
        <ele>1711.0</ele>
        <time>2018-09-15T13:20:01Z</time>
      </trkpt>
      <trkpt lat="40.253383" lon="-4.906450">
        <ele>1713.0</ele>
        <time>2018-09-15T13:20:02Z</time>
      </trkpt>
      <trkpt lat="40.253483" lon="-4.906450">
        <ele>1715.0</ele>
        <time>2018-09-15T13:20:03Z</time>
      </trkpt>
      <trkpt lat="40.253533" lon="-4.906417">
        <ele>1718.0</ele>
        <time>2018-09-15T13:20:04Z</time>
      </trkpt>
      <trkpt lat="40.253567" lon="-4.906400">
        <ele>1717.0</ele>
        <time>2018-09-15T13:20:05Z</time>
      </trkpt>
      <trkpt lat="40.253533" lon="-4.906383">
        <ele>1718.0</ele>
        <time>2018-09-15T13:20:06Z</time>
      </trkpt>
      <trkpt lat="40.253467" lon="-4.906400">
        <ele>1719.0</ele>
        <time>2018-09-15T13:20:07Z</time>
      </trkpt>
      <trkpt lat="40.253417" lon="-4.906450">
        <ele>1719.0</ele>
        <time>2018-09-15T13:20:08Z</time>
      </trkpt>
      <trkpt lat="40.253267" lon="-4.906517">
        <ele>1720.0</ele>
        <time>2018-09-15T13:20:09Z</time>
      </trkpt>
      <trkpt lat="40.253150" lon="-4.906633">
        <ele>1722.0</ele>
        <time>2018-09-15T13:20:10Z</time>
      </trkpt>
      <trkpt lat="40.253100" lon="-4.906817">
        <ele>1723.0</ele>
        <time>2018-09-15T13:20:11Z</time>
      </trkpt>
      <trkpt lat="40.253100" lon="-4.906983">
        <ele>1724.0</ele>
        <time>2018-09-15T13:20:12Z</time>
      </trkpt>
      <trkpt lat="40.253167" lon="-4.907117">
        <ele>1726.0</ele>
        <time>2018-09-15T13:20:13Z</time>
      </trkpt>
      <trkpt lat="40.253233" lon="-4.907200">
        <ele>1729.0</ele>
        <time>2018-09-15T13:20:14Z</time>
      </trkpt>
      <trkpt lat="40.253317" lon="-4.907250">
        <ele>1731.0</ele>
        <time>2018-09-15T13:20:15Z</time>
      </trkpt>
      <trkpt lat="40.253417" lon="-4.907283">
        <ele>1733.0</ele>
        <time>2018-09-15T13:20:16Z</time>
      </trkpt>
      <trkpt lat="40.253433" lon="-4.907267">
        <ele>1735.0</ele>
        <time>2018-09-15T13:20:17Z</time>
      </trkpt>
      <trkpt lat="40.253483" lon="-4.907250">
        <ele>1736.0</ele>
        <time>2018-09-15T13:20:18Z</time>
      </trkpt>
      <trkpt lat="40.253500" lon="-4.907217">
        <ele>1739.0</ele>
        <time>2018-09-15T13:20:19Z</time>
      </trkpt>
      <trkpt lat="40.253500" lon="-4.907183">
        <ele>1742.0</ele>
        <time>2018-09-15T13:20:20Z</time>
      </trkpt>
      <trkpt lat="40.253533" lon="-4.907183">
        <ele>1744.0</ele>
        <time>2018-09-15T13:20:21Z</time>
      </trkpt>
      <trkpt lat="40.253567" lon="-4.907167">
        <ele>1747.0</ele>
        <time>2018-09-15T13:20:22Z</time>
      </trkpt>
      <trkpt lat="40.253550" lon="-4.907250">
        <ele>1749.0</ele>
        <time>2018-09-15T13:20:23Z</time>
      </trkpt>
      <trkpt lat="40.253617" lon="-4.907350">
        <ele>1752.0</ele>
        <time>2018-09-15T13:20:24Z</time>
      </trkpt>
      <trkpt lat="40.253667" lon="-4.907500">
        <ele>1755.0</ele>
        <time>2018-09-15T13:20:25Z</time>
      </trkpt>
      <trkpt lat="40.253717" lon="-4.907600">
        <ele>1757.0</ele>
        <time>2018-09-15T13:20:26Z</time>
      </trkpt>
      <trkpt lat="40.253783" lon="-4.907700">
        <ele>1760.0</ele>
        <time>2018-09-15T13:20:27Z</time>
      </trkpt>
      <trkpt lat="40.253850" lon="-4.907783">
        <ele>1763.0</ele>
        <time>2018-09-15T13:20:28Z</time>
      </trkpt>
      <trkpt lat="40.253900" lon="-4.907850">
        <ele>1765.0</ele>
        <time>2018-09-15T13:20:29Z</time>
      </trkpt>
      <trkpt lat="40.253950" lon="-4.907917">
        <ele>1768.0</ele>
        <time>2018-09-15T13:20:30Z</time>
      </trkpt>
      <trkpt lat="40.253917" lon="-4.907883">
        <ele>1772.0</ele>
        <time>2018-09-15T13:20:31Z</time>
      </trkpt>
      <trkpt lat="40.253933" lon="-4.907900">
        <ele>1773.0</ele>
        <time>2018-09-15T13:20:32Z</time>
      </trkpt>
      <trkpt lat="40.253933" lon="-4.907950">
        <ele>1776.0</ele>
        <time>2018-09-15T13:20:33Z</time>
      </trkpt>
      <trkpt lat="40.253950" lon="-4.908000">
        <ele>1781.0</ele>
        <time>2018-09-15T13:20:34Z</time>
      </trkpt>
      <trkpt lat="40.253983" lon="-4.908000">
        <ele>1788.0</ele>
        <time>2018-09-15T13:20:35Z</time>
      </trkpt>
      <trkpt lat="40.254000" lon="-4.908000">
        <ele>1796.0</ele>
        <time>2018-09-15T13:20:36Z</time>
      </trkpt>
      <trkpt lat="40.254000" lon="-4.907983">
        <ele>1802.0</ele>
        <time>2018-09-15T13:20:37Z</time>
      </trkpt>
      <trkpt lat="40.253950" lon="-4.908033">
        <ele>1807.0</ele>
        <time>2018-09-15T13:20:38Z</time>
      </trkpt>
      <trkpt lat="40.253967" lon="-4.908117">
        <ele>1812.0</ele>
        <time>2018-09-15T13:20:39Z</time>
      </trkpt>
      <trkpt lat="40.254050" lon="-4.908283">
        <ele>1815.0</ele>
        <time>2018-09-15T13:20:40Z</time>
      </trkpt>
      <trkpt lat="40.254050" lon="-4.908367">
        <ele>1816.0</ele>
        <time>2018-09-15T13:20:41Z</time>
      </trkpt>
      <trkpt lat="40.254100" lon="-4.908383">
        <ele>1820.0</ele>
        <time>2018-09-15T13:20:42Z</time>
      </trkpt>
      <trkpt lat="40.254167" lon="-4.908383">
        <ele>1823.0</ele>
        <time>2018-09-15T13:20:43Z</time>
      </trkpt>
      <trkpt lat="40.254200" lon="-4.908367">
        <ele>1826.0</ele>
        <time>2018-09-15T13:20:44Z</time>
      </trkpt>
      <trkpt lat="40.254267" lon="-4.908350">
        <ele>1831.0</ele>
        <time>2018-09-15T13:20:45Z</time>
      </trkpt>
      <trkpt lat="40.254300" lon="-4.908350">
        <ele>1837.0</ele>
        <time>2018-09-15T13:20:46Z</time>
      </trkpt>
      <trkpt lat="40.254333" lon="-4.908350">
        <ele>1844.0</ele>
        <time>2018-09-15T13:20:47Z</time>
      </trkpt>
      <trkpt lat="40.254383" lon="-4.908333">
        <ele>1848.0</ele>
        <time>2018-09-15T13:20:48Z</time>
      </trkpt>
      <trkpt lat="40.254417" lon="-4.908317">
        <ele>1853.0</ele>
        <time>2018-09-15T13:20:49Z</time>
      </trkpt>
      <trkpt lat="40.254400" lon="-4.908333">
        <ele>1861.0</ele>
        <time>2018-09-15T13:20:50Z</time>
      </trkpt>
      <trkpt lat="40.254350" lon="-4.908350">
        <ele>1869.0</ele>
        <time>2018-09-15T13:20:51Z</time>
      </trkpt>
      <trkpt lat="40.254317" lon="-4.908417">
        <ele>1875.0</ele>
        <time>2018-09-15T13:20:52Z</time>
      </trkpt>
      <trkpt lat="40.254300" lon="-4.908517">
        <ele>1880.0</ele>
        <time>2018-09-15T13:20:53Z</time>
      </trkpt>
      <trkpt lat="40.254300" lon="-4.908617">
        <ele>1886.0</ele>
        <time>2018-09-15T13:20:54Z</time>
      </trkpt>
      <trkpt lat="40.254267" lon="-4.908700">
        <ele>1891.0</ele>
        <time>2018-09-15T13:20:55Z</time>
      </trkpt>
      <trkpt lat="40.254250" lon="-4.908833">
        <ele>1898.0</ele>
        <time>2018-09-15T13:20:56Z</time>
      </trkpt>
      <trkpt lat="40.254233" lon="-4.908933">
        <ele>1905.0</ele>
        <time>2018-09-15T13:20:57Z</time>
      </trkpt>
      <trkpt lat="40.254250" lon="-4.909017">
        <ele>1910.0</ele>
        <time>2018-09-15T13:20:58Z</time>
      </trkpt>
      <trkpt lat="40.254300" lon="-4.909100">
        <ele>1915.0</ele>
        <time>2018-09-15T13:20:59Z</time>
      </trkpt>
      <trkpt lat="40.254350" lon="-4.909167">
        <ele>1923.0</ele>
        <time>2018-09-15T13:21:00Z</time>
      </trkpt>
      <trkpt lat="40.254383" lon="-4.909183">
        <ele>1928.0</ele>
        <time>2018-09-15T13:21:01Z</time>
      </trkpt>
      <trkpt lat="40.254433" lon="-4.909167">
        <ele>1934.0</ele>
        <time>2018-09-15T13:21:02Z</time>
      </trkpt>
      <trkpt lat="40.254467" lon="-4.909133">
        <ele>1940.0</ele>
        <time>2018-09-15T13:21:03Z</time>
      </trkpt>
      <trkpt lat="40.254483" lon="-4.909100">
        <ele>1945.0</ele>
        <time>2018-09-15T13:21:04Z</time>
      </trkpt>
      <trkpt lat="40.254467" lon="-4.909067">
        <ele>1949.0</ele>
        <time>2018-09-15T13:21:05Z</time>
      </trkpt>
      <trkpt lat="40.254483" lon="-4.909017">
        <ele>1953.0</ele>
        <time>2018-09-15T13:21:06Z</time>
      </trkpt>
      <trkpt lat="40.254500" lon="-4.908983">
        <ele>1959.0</ele>
        <time>2018-09-15T13:21:07Z</time>
      </trkpt>
      <trkpt lat="40.254483" lon="-4.909000">
        <ele>1964.0</ele>
        <time>2018-09-15T13:21:08Z</time>
      </trkpt>
      <trkpt lat="40.254450" lon="-4.909100">
        <ele>1968.0</ele>
        <time>2018-09-15T13:21:09Z</time>
      </trkpt>
      <trkpt lat="40.254433" lon="-4.909167">
        <ele>1974.0</ele>
        <time>2018-09-15T13:21:10Z</time>
      </trkpt>
      <trkpt lat="40.254433" lon="-4.909250">
        <ele>1982.0</ele>
        <time>2018-09-15T13:21:11Z</time>
      </trkpt>
      <trkpt lat="40.254450" lon="-4.909417">
        <ele>1990.0</ele>
        <time>2018-09-15T13:21:12Z</time>
      </trkpt>
      <trkpt lat="40.254467" lon="-4.909583">
        <ele>1996.0</ele>
        <time>2018-09-15T13:21:13Z</time>
      </trkpt>
      <trkpt lat="40.254517" lon="-4.909717">
        <ele>2002.0</ele>
        <time>2018-09-15T13:21:14Z</time>
      </trkpt>
      <trkpt lat="40.254583" lon="-4.909833">
        <ele>2008.0</ele>
        <time>2018-09-15T13:21:15Z</time>
      </trkpt>
      <trkpt lat="40.254667" lon="-4.909917">
        <ele>2013.0</ele>
        <time>2018-09-15T13:21:16Z</time>
      </trkpt>
      <trkpt lat="40.254783" lon="-4.909967">
        <ele>2018.0</ele>
        <time>2018-09-15T13:21:17Z</time>
      </trkpt>
      <trkpt lat="40.254900" lon="-4.909983">
        <ele>2022.0</ele>
        <time>2018-09-15T13:21:18Z</time>
      </trkpt>
      <trkpt lat="40.254983" lon="-4.909967">
        <ele>2027.0</ele>
        <time>2018-09-15T13:21:19Z</time>
      </trkpt>
      <trkpt lat="40.255050" lon="-4.909933">
        <ele>2031.0</ele>
        <time>2018-09-15T13:21:20Z</time>
      </trkpt>
      <trkpt lat="40.255083" lon="-4.909900">
        <ele>2034.0</ele>
        <time>2018-09-15T13:21:21Z</time>
      </trkpt>
      <trkpt lat="40.255117" lon="-4.909833">
        <ele>2038.0</ele>
        <time>2018-09-15T13:21:22Z</time>
      </trkpt>
      <trkpt lat="40.255133" lon="-4.909800">
        <ele>2042.0</ele>
        <time>2018-09-15T13:21:23Z</time>
      </trkpt>
      <trkpt lat="40.255083" lon="-4.909783">
        <ele>2046.0</ele>
        <time>2018-09-15T13:21:24Z</time>
      </trkpt>
      <trkpt lat="40.255033" lon="-4.909783">
        <ele>2051.0</ele>
        <time>2018-09-15T13:21:25Z</time>
      </trkpt>
      <trkpt lat="40.254967" lon="-4.909833">
        <ele>2055.0</ele>
        <time>2018-09-15T13:21:26Z</time>
      </trkpt>
      <trkpt lat="40.254917" lon="-4.909917">
        <ele>2060.0</ele>
        <time>2018-09-15T13:21:27Z</time>
      </trkpt>
      <trkpt lat="40.254917" lon="-4.910067">
        <ele>2064.0</ele>
        <time>2018-09-15T13:21:28Z</time>
      </trkpt>
      <trkpt lat="40.254917" lon="-4.910200">
        <ele>2067.0</ele>
        <time>2018-09-15T13:21:29Z</time>
      </trkpt>
      <trkpt lat="40.254950" lon="-4.910333">
        <ele>2070.0</ele>
        <time>2018-09-15T13:21:30Z</time>
      </trkpt>
      <trkpt lat="40.255017" lon="-4.910467">
        <ele>2074.0</ele>
        <time>2018-09-15T13:21:31Z</time>
      </trkpt>
      <trkpt lat="40.255067" lon="-4.910550">
        <ele>2077.0</ele>
        <time>2018-09-15T13:21:32Z</time>
      </trkpt>
      <trkpt lat="40.255117" lon="-4.910617">
        <ele>2080.0</ele>
        <time>2018-09-15T13:21:33Z</time>
      </trkpt>
      <trkpt lat="40.255167" lon="-4.910650">
        <ele>2082.0</ele>
        <time>2018-09-15T13:21:34Z</time>
      </trkpt>
      <trkpt lat="40.255217" lon="-4.910650">
        <ele>2085.0</ele>
        <time>2018-09-15T13:21:35Z</time>
      </trkpt>
      <trkpt lat="40.255233" lon="-4.910633">
        <ele>2088.0</ele>
        <time>2018-09-15T13:21:36Z</time>
      </trkpt>
      <trkpt lat="40.255217" lon="-4.910633">
        <ele>2090.0</ele>
        <time>2018-09-15T13:21:37Z</time>
      </trkpt>
      <trkpt lat="40.255217" lon="-4.910633">
        <ele>2094.0</ele>
        <time>2018-09-15T13:21:38Z</time>
      </trkpt>
      <trkpt lat="40.255217" lon="-4.910633">
        <ele>2097.0</ele>
        <time>2018-09-15T13:21:39Z</time>
      </trkpt>
      <trkpt lat="40.255200" lon="-4.910633">
        <ele>2101.0</ele>
        <time>2018-09-15T13:21:40Z</time>
      </trkpt>
      <trkpt lat="40.255117" lon="-4.910717">
        <ele>2105.0</ele>
        <time>2018-09-15T13:21:41Z</time>
      </trkpt>
      <trkpt lat="40.255067" lon="-4.910800">
        <ele>2109.0</ele>
        <time>2018-09-15T13:21:42Z</time>
      </trkpt>
      <trkpt lat="40.255017" lon="-4.910883">
        <ele>2113.0</ele>
        <time>2018-09-15T13:21:43Z</time>
      </trkpt>
      <trkpt lat="40.254950" lon="-4.910917">
        <ele>2117.0</ele>
        <time>2018-09-15T13:21:44Z</time>
      </trkpt>
      <trkpt lat="40.254900" lon="-4.910950">
        <ele>2121.0</ele>
        <time>2018-09-15T13:21:45Z</time>
      </trkpt>
      <trkpt lat="40.254833" lon="-4.911000">
        <ele>2125.0</ele>
        <time>2018-09-15T13:21:46Z</time>
      </trkpt>
      <trkpt lat="40.254767" lon="-4.911067">
        <ele>2128.0</ele>
        <time>2018-09-15T13:21:47Z</time>
      </trkpt>
      <trkpt lat="40.254700" lon="-4.911150">
        <ele>2132.0</ele>
        <time>2018-09-15T13:21:48Z</time>
      </trkpt>
      <trkpt lat="40.254633" lon="-4.911217">
        <ele>2135.0</ele>
        <time>2018-09-15T13:21:49Z</time>
      </trkpt>
      <trkpt lat="40.254550" lon="-4.911283">
        <ele>2139.0</ele>
        <time>2018-09-15T13:21:50Z</time>
      </trkpt>
      <trkpt lat="40.254500" lon="-4.911350">
        <ele>2142.0</ele>
        <time>2018-09-15T13:21:51Z</time>
      </trkpt>
      <trkpt lat="40.254433" lon="-4.911433">
        <ele>2144.0</ele>
        <time>2018-09-15T13:21:52Z</time>
      </trkpt>
      <trkpt lat="40.254367" lon="-4.911517">
        <ele>2147.0</ele>
        <time>2018-09-15T13:21:53Z</time>
      </trkpt>
      <trkpt lat="40.254300" lon="-4.911617">
        <ele>2149.0</ele>
        <time>2018-09-15T13:21:54Z</time>
      </trkpt>
      <trkpt lat="40.254217" lon="-4.911700">
        <ele>2151.0</ele>
        <time>2018-09-15T13:21:55Z</time>
      </trkpt>
      <trkpt lat="40.254150" lon="-4.911767">
        <ele>2153.0</ele>
        <time>2018-09-15T13:21:56Z</time>
      </trkpt>
      <trkpt lat="40.254083" lon="-4.911833">
        <ele>2156.0</ele>
        <time>2018-09-15T13:21:57Z</time>
      </trkpt>
      <trkpt lat="40.254033" lon="-4.911883">
        <ele>2159.0</ele>
        <time>2018-09-15T13:21:58Z</time>
      </trkpt>
      <trkpt lat="40.253967" lon="-4.911950">
        <ele>2161.0</ele>
        <time>2018-09-15T13:21:59Z</time>
      </trkpt>
      <trkpt lat="40.253900" lon="-4.912017">
        <ele>2163.0</ele>
        <time>2018-09-15T13:22:00Z</time>
      </trkpt>
      <trkpt lat="40.253833" lon="-4.912100">
        <ele>2165.0</ele>
        <time>2018-09-15T13:22:01Z</time>
      </trkpt>
      <trkpt lat="40.253767" lon="-4.912183">
        <ele>2167.0</ele>
        <time>2018-09-15T13:22:02Z</time>
      </trkpt>
      <trkpt lat="40.253700" lon="-4.912267">
        <ele>2169.0</ele>
        <time>2018-09-15T13:22:03Z</time>
      </trkpt>
      <trkpt lat="40.253633" lon="-4.912367">
        <ele>2171.0</ele>
        <time>2018-09-15T13:22:04Z</time>
      </trkpt>
      <trkpt lat="40.253567" lon="-4.912433">
        <ele>2174.0</ele>
        <time>2018-09-15T13:22:05Z</time>
      </trkpt>
      <trkpt lat="40.253500" lon="-4.912500">
        <ele>2176.0</ele>
        <time>2018-09-15T13:22:06Z</time>
      </trkpt>
      <trkpt lat="40.253417" lon="-4.912533">
        <ele>2178.0</ele>
        <time>2018-09-15T13:22:07Z</time>
      </trkpt>
      <trkpt lat="40.253333" lon="-4.912600">
        <ele>2180.0</ele>
        <time>2018-09-15T13:22:08Z</time>
      </trkpt>
      <trkpt lat="40.253250" lon="-4.912650">
        <ele>2182.0</ele>
        <time>2018-09-15T13:22:09Z</time>
      </trkpt>
      <trkpt lat="40.253150" lon="-4.912717">
        <ele>2183.0</ele>
        <time>2018-09-15T13:22:10Z</time>
      </trkpt>
      <trkpt lat="40.253067" lon="-4.912783">
        <ele>2186.0</ele>
        <time>2018-09-15T13:22:11Z</time>
      </trkpt>
      <trkpt lat="40.252983" lon="-4.912850">
        <ele>2188.0</ele>
        <time>2018-09-15T13:22:12Z</time>
      </trkpt>
      <trkpt lat="40.252900" lon="-4.912933">
        <ele>2190.0</ele>
        <time>2018-09-15T13:22:13Z</time>
      </trkpt>
      <trkpt lat="40.252817" lon="-4.913000">
        <ele>2192.0</ele>
        <time>2018-09-15T13:22:14Z</time>
      </trkpt>
      <trkpt lat="40.252750" lon="-4.913100">
        <ele>2194.0</ele>
        <time>2018-09-15T13:22:15Z</time>
      </trkpt>
      <trkpt lat="40.252667" lon="-4.913183">
        <ele>2196.0</ele>
        <time>2018-09-15T13:22:16Z</time>
      </trkpt>
      <trkpt lat="40.252583" lon="-4.913267">
        <ele>2197.0</ele>
        <time>2018-09-15T13:22:17Z</time>
      </trkpt>
      <trkpt lat="40.252483" lon="-4.913350">
        <ele>2198.0</ele>
        <time>2018-09-15T13:22:18Z</time>
      </trkpt>
      <trkpt lat="40.252400" lon="-4.913433">
        <ele>2200.0</ele>
        <time>2018-09-15T13:22:19Z</time>
      </trkpt>
      <trkpt lat="40.252317" lon="-4.913500">
        <ele>2201.0</ele>
        <time>2018-09-15T13:22:20Z</time>
      </trkpt>
      <trkpt lat="40.252217" lon="-4.913583">
        <ele>2203.0</ele>
        <time>2018-09-15T13:22:21Z</time>
      </trkpt>
      <trkpt lat="40.252133" lon="-4.913667">
        <ele>2203.0</ele>
        <time>2018-09-15T13:22:22Z</time>
      </trkpt>
      <trkpt lat="40.252033" lon="-4.913733">
        <ele>2204.0</ele>
        <time>2018-09-15T13:22:23Z</time>
      </trkpt>
      <trkpt lat="40.251933" lon="-4.913817">
        <ele>2204.0</ele>
        <time>2018-09-15T13:22:24Z</time>
      </trkpt>
      <trkpt lat="40.251817" lon="-4.913883">
        <ele>2205.0</ele>
        <time>2018-09-15T13:22:25Z</time>
      </trkpt>
      <trkpt lat="40.251717" lon="-4.913933">
        <ele>2205.0</ele>
        <time>2018-09-15T13:22:26Z</time>
      </trkpt>
      <trkpt lat="40.251633" lon="-4.914017">
        <ele>2206.0</ele>
        <time>2018-09-15T13:22:27Z</time>
      </trkpt>
      <trkpt lat="40.251550" lon="-4.914083">
        <ele>2205.0</ele>
        <time>2018-09-15T13:22:28Z</time>
      </trkpt>
      <trkpt lat="40.251483" lon="-4.914150">
        <ele>2205.0</ele>
        <time>2018-09-15T13:22:29Z</time>
      </trkpt>
      <trkpt lat="40.251400" lon="-4.914217">
        <ele>2206.0</ele>
        <time>2018-09-15T13:22:30Z</time>
      </trkpt>
      <trkpt lat="40.251317" lon="-4.914283">
        <ele>2205.0</ele>
        <time>2018-09-15T13:22:31Z</time>
      </trkpt>
      <trkpt lat="40.251233" lon="-4.914367">
        <ele>2205.0</ele>
        <time>2018-09-15T13:22:32Z</time>
      </trkpt>
      <trkpt lat="40.251150" lon="-4.914450">
        <ele>2203.0</ele>
        <time>2018-09-15T13:22:33Z</time>
      </trkpt>
      <trkpt lat="40.251050" lon="-4.914517">
        <ele>2202.0</ele>
        <time>2018-09-15T13:22:34Z</time>
      </trkpt>
      <trkpt lat="40.250967" lon="-4.914600">
        <ele>2199.0</ele>
        <time>2018-09-15T13:22:35Z</time>
      </trkpt>
      <trkpt lat="40.250883" lon="-4.914650">
        <ele>2197.0</ele>
        <time>2018-09-15T13:22:36Z</time>
      </trkpt>
      <trkpt lat="40.250800" lon="-4.914717">
        <ele>2192.0</ele>
        <time>2018-09-15T13:22:37Z</time>
      </trkpt>
      <trkpt lat="40.250750" lon="-4.914783">
        <ele>2187.0</ele>
        <time>2018-09-15T13:22:38Z</time>
      </trkpt>
      <trkpt lat="40.250667" lon="-4.914817">
        <ele>2182.0</ele>
        <time>2018-09-15T13:22:39Z</time>
      </trkpt>
      <trkpt lat="40.250583" lon="-4.914883">
        <ele>2177.0</ele>
        <time>2018-09-15T13:22:40Z</time>
      </trkpt>
      <trkpt lat="40.250500" lon="-4.914967">
        <ele>2173.0</ele>
        <time>2018-09-15T13:22:41Z</time>
      </trkpt>
      <trkpt lat="40.250400" lon="-4.915050">
        <ele>2167.0</ele>
        <time>2018-09-15T13:22:42Z</time>
      </trkpt>
      <trkpt lat="40.250317" lon="-4.915133">
        <ele>2162.0</ele>
        <time>2018-09-15T13:22:43Z</time>
      </trkpt>
      <trkpt lat="40.250217" lon="-4.915200">
        <ele>2157.0</ele>
        <time>2018-09-15T13:22:44Z</time>
      </trkpt>
      <trkpt lat="40.250133" lon="-4.915267">
        <ele>2153.0</ele>
        <time>2018-09-15T13:22:45Z</time>
      </trkpt>
      <trkpt lat="40.250050" lon="-4.915367">
        <ele>2149.0</ele>
        <time>2018-09-15T13:22:46Z</time>
      </trkpt>
      <trkpt lat="40.249967" lon="-4.915450">
        <ele>2145.0</ele>
        <time>2018-09-15T13:22:47Z</time>
      </trkpt>
      <trkpt lat="40.249883" lon="-4.915550">
        <ele>2141.0</ele>
        <time>2018-09-15T13:22:48Z</time>
      </trkpt>
      <trkpt lat="40.249800" lon="-4.915633">
        <ele>2135.0</ele>
        <time>2018-09-15T13:22:49Z</time>
      </trkpt>
      <trkpt lat="40.249717" lon="-4.915700">
        <ele>2129.0</ele>
        <time>2018-09-15T13:22:50Z</time>
      </trkpt>
      <trkpt lat="40.249633" lon="-4.915783">
        <ele>2123.0</ele>
        <time>2018-09-15T13:22:51Z</time>
      </trkpt>
      <trkpt lat="40.249550" lon="-4.915883">
        <ele>2118.0</ele>
        <time>2018-09-15T13:22:52Z</time>
      </trkpt>
      <trkpt lat="40.249467" lon="-4.915983">
        <ele>2114.0</ele>
        <time>2018-09-15T13:22:53Z</time>
      </trkpt>
      <trkpt lat="40.249383" lon="-4.916083">
        <ele>2110.0</ele>
        <time>2018-09-15T13:22:54Z</time>
      </trkpt>
      <trkpt lat="40.249300" lon="-4.916200">
        <ele>2106.0</ele>
        <time>2018-09-15T13:22:55Z</time>
      </trkpt>
      <trkpt lat="40.249217" lon="-4.916300">
        <ele>2102.0</ele>
        <time>2018-09-15T13:22:56Z</time>
      </trkpt>
      <trkpt lat="40.249133" lon="-4.916400">
        <ele>2098.0</ele>
        <time>2018-09-15T13:22:57Z</time>
      </trkpt>
      <trkpt lat="40.249033" lon="-4.916500">
        <ele>2094.0</ele>
        <time>2018-09-15T13:22:58Z</time>
      </trkpt>
      <trkpt lat="40.248950" lon="-4.916583">
        <ele>2091.0</ele>
        <time>2018-09-15T13:22:59Z</time>
      </trkpt>
      <trkpt lat="40.248867" lon="-4.916683">
        <ele>2087.0</ele>
        <time>2018-09-15T13:23:00Z</time>
      </trkpt>
      <trkpt lat="40.248767" lon="-4.916767">
        <ele>2084.0</ele>
        <time>2018-09-15T13:23:01Z</time>
      </trkpt>
      <trkpt lat="40.248667" lon="-4.916867">
        <ele>2081.0</ele>
        <time>2018-09-15T13:23:02Z</time>
      </trkpt>
      <trkpt lat="40.248567" lon="-4.916933">
        <ele>2079.0</ele>
        <time>2018-09-15T13:23:03Z</time>
      </trkpt>
      <trkpt lat="40.248467" lon="-4.917000">
        <ele>2078.0</ele>
        <time>2018-09-15T13:23:04Z</time>
      </trkpt>
      <trkpt lat="40.248367" lon="-4.917067">
        <ele>2075.0</ele>
        <time>2018-09-15T13:23:05Z</time>
      </trkpt>
      <trkpt lat="40.248267" lon="-4.917117">
        <ele>2072.0</ele>
        <time>2018-09-15T13:23:06Z</time>
      </trkpt>
      <trkpt lat="40.248183" lon="-4.917183">
        <ele>2070.0</ele>
        <time>2018-09-15T13:23:07Z</time>
      </trkpt>
      <trkpt lat="40.248083" lon="-4.917250">
        <ele>2067.0</ele>
        <time>2018-09-15T13:23:08Z</time>
      </trkpt>
      <trkpt lat="40.247967" lon="-4.917317">
        <ele>2065.0</ele>
        <time>2018-09-15T13:23:09Z</time>
      </trkpt>
      <trkpt lat="40.247867" lon="-4.917350">
        <ele>2062.0</ele>
        <time>2018-09-15T13:23:10Z</time>
      </trkpt>
      <trkpt lat="40.247767" lon="-4.917383">
        <ele>2060.0</ele>
        <time>2018-09-15T13:23:11Z</time>
      </trkpt>
      <trkpt lat="40.247667" lon="-4.917417">
        <ele>2059.0</ele>
        <time>2018-09-15T13:23:12Z</time>
      </trkpt>
      <trkpt lat="40.247583" lon="-4.917450">
        <ele>2056.0</ele>
        <time>2018-09-15T13:23:13Z</time>
      </trkpt>
      <trkpt lat="40.247483" lon="-4.917450">
        <ele>2054.0</ele>
        <time>2018-09-15T13:23:14Z</time>
      </trkpt>
      <trkpt lat="40.247400" lon="-4.917433">
        <ele>2051.0</ele>
        <time>2018-09-15T13:23:15Z</time>
      </trkpt>
      <trkpt lat="40.247333" lon="-4.917417">
        <ele>2049.0</ele>
        <time>2018-09-15T13:23:16Z</time>
      </trkpt>
      <trkpt lat="40.247267" lon="-4.917417">
        <ele>2047.0</ele>
        <time>2018-09-15T13:23:17Z</time>
      </trkpt>
      <trkpt lat="40.247200" lon="-4.917417">
        <ele>2045.0</ele>
        <time>2018-09-15T13:23:18Z</time>
      </trkpt>
      <trkpt lat="40.247117" lon="-4.917417">
        <ele>2043.0</ele>
        <time>2018-09-15T13:23:19Z</time>
      </trkpt>
      <trkpt lat="40.247033" lon="-4.917400">
        <ele>2046.0</ele>
        <time>2018-09-15T13:23:20Z</time>
      </trkpt>
      <trkpt lat="40.246950" lon="-4.917383">
        <ele>2045.0</ele>
        <time>2018-09-15T13:23:21Z</time>
      </trkpt>
      <trkpt lat="40.246883" lon="-4.917333">
        <ele>2045.0</ele>
        <time>2018-09-15T13:23:22Z</time>
      </trkpt>
      <trkpt lat="40.246817" lon="-4.917300">
        <ele>2045.0</ele>
        <time>2018-09-15T13:23:23Z</time>
      </trkpt>
      <trkpt lat="40.246767" lon="-4.917250">
        <ele>2043.0</ele>
        <time>2018-09-15T13:23:24Z</time>
      </trkpt>
      <trkpt lat="40.246733" lon="-4.917233">
        <ele>2041.0</ele>
        <time>2018-09-15T13:23:25Z</time>
      </trkpt>
      <trkpt lat="40.246683" lon="-4.917217">
        <ele>2039.0</ele>
        <time>2018-09-15T13:23:26Z</time>
      </trkpt>
      <trkpt lat="40.246633" lon="-4.917200">
        <ele>2035.0</ele>
        <time>2018-09-15T13:23:27Z</time>
      </trkpt>
      <trkpt lat="40.246583" lon="-4.917167">
        <ele>2031.0</ele>
        <time>2018-09-15T13:23:28Z</time>
      </trkpt>
      <trkpt lat="40.246550" lon="-4.917117">
        <ele>2027.0</ele>
        <time>2018-09-15T13:23:29Z</time>
      </trkpt>
      <trkpt lat="40.246500" lon="-4.917067">
        <ele>2024.0</ele>
        <time>2018-09-15T13:23:30Z</time>
      </trkpt>
      <trkpt lat="40.246450" lon="-4.917017">
        <ele>2021.0</ele>
        <time>2018-09-15T13:23:31Z</time>
      </trkpt>
      <trkpt lat="40.246400" lon="-4.916983">
        <ele>2022.0</ele>
        <time>2018-09-15T13:23:32Z</time>
      </trkpt>
      <trkpt lat="40.246350" lon="-4.916933">
        <ele>2021.0</ele>
        <time>2018-09-15T13:23:33Z</time>
      </trkpt>
      <trkpt lat="40.246300" lon="-4.916883">
        <ele>2020.0</ele>
        <time>2018-09-15T13:23:34Z</time>
      </trkpt>
      <trkpt lat="40.246233" lon="-4.916800">
        <ele>2020.0</ele>
        <time>2018-09-15T13:23:35Z</time>
      </trkpt>
      <trkpt lat="40.246183" lon="-4.916733">
        <ele>2019.0</ele>
        <time>2018-09-15T13:23:36Z</time>
      </trkpt>
      <trkpt lat="40.246133" lon="-4.916683">
        <ele>2017.0</ele>
        <time>2018-09-15T13:23:37Z</time>
      </trkpt>
      <trkpt lat="40.246100" lon="-4.916617">
        <ele>2016.0</ele>
        <time>2018-09-15T13:23:38Z</time>
      </trkpt>
      <trkpt lat="40.246067" lon="-4.916567">
        <ele>2014.0</ele>
        <time>2018-09-15T13:23:39Z</time>
      </trkpt>
      <trkpt lat="40.246017" lon="-4.916517">
        <ele>2012.0</ele>
        <time>2018-09-15T13:23:40Z</time>
      </trkpt>
      <trkpt lat="40.246000" lon="-4.916467">
        <ele>2012.0</ele>
        <time>2018-09-15T13:23:41Z</time>
      </trkpt>
      <trkpt lat="40.245967" lon="-4.916433">
        <ele>2010.0</ele>
        <time>2018-09-15T13:23:42Z</time>
      </trkpt>
      <trkpt lat="40.245967" lon="-4.916400">
        <ele>2009.0</ele>
        <time>2018-09-15T13:23:43Z</time>
      </trkpt>
      <trkpt lat="40.245950" lon="-4.916333">
        <ele>2006.0</ele>
        <time>2018-09-15T13:23:44Z</time>
      </trkpt>
      <trkpt lat="40.245933" lon="-4.916283">
        <ele>2002.0</ele>
        <time>2018-09-15T13:23:45Z</time>
      </trkpt>
      <trkpt lat="40.245900" lon="-4.916200">
        <ele>2000.0</ele>
        <time>2018-09-15T13:23:46Z</time>
      </trkpt>
      <trkpt lat="40.245883" lon="-4.916133">
        <ele>1998.0</ele>
        <time>2018-09-15T13:23:47Z</time>
      </trkpt>
      <trkpt lat="40.245850" lon="-4.916083">
        <ele>1998.0</ele>
        <time>2018-09-15T13:23:48Z</time>
      </trkpt>
      <trkpt lat="40.245850" lon="-4.916050">
        <ele>1998.0</ele>
        <time>2018-09-15T13:23:49Z</time>
      </trkpt>
      <trkpt lat="40.245833" lon="-4.916000">
        <ele>1997.0</ele>
        <time>2018-09-15T13:23:50Z</time>
      </trkpt>
      <trkpt lat="40.245833" lon="-4.915950">
        <ele>1995.0</ele>
        <time>2018-09-15T13:23:51Z</time>
      </trkpt>
      <trkpt lat="40.245800" lon="-4.915883">
        <ele>1994.0</ele>
        <time>2018-09-15T13:23:52Z</time>
      </trkpt>
      <trkpt lat="40.245783" lon="-4.915800">
        <ele>1993.0</ele>
        <time>2018-09-15T13:23:53Z</time>
      </trkpt>
      <trkpt lat="40.245750" lon="-4.915733">
        <ele>1994.0</ele>
        <time>2018-09-15T13:23:54Z</time>
      </trkpt>
      <trkpt lat="40.245733" lon="-4.915683">
        <ele>1993.0</ele>
        <time>2018-09-15T13:23:55Z</time>
      </trkpt>
      <trkpt lat="40.245700" lon="-4.915650">
        <ele>1993.0</ele>
        <time>2018-09-15T13:23:56Z</time>
      </trkpt>
      <trkpt lat="40.245683" lon="-4.915600">
        <ele>1991.0</ele>
        <time>2018-09-15T13:23:57Z</time>
      </trkpt>
      <trkpt lat="40.245650" lon="-4.915567">
        <ele>1989.0</ele>
        <time>2018-09-15T13:23:58Z</time>
      </trkpt>
      <trkpt lat="40.245633" lon="-4.915500">
        <ele>1986.0</ele>
        <time>2018-09-15T13:23:59Z</time>
      </trkpt>
      <trkpt lat="40.245600" lon="-4.915433">
        <ele>1984.0</ele>
        <time>2018-09-15T13:24:00Z</time>
      </trkpt>
      <trkpt lat="40.245567" lon="-4.915350">
        <ele>1982.0</ele>
        <time>2018-09-15T13:24:01Z</time>
      </trkpt>
      <trkpt lat="40.245550" lon="-4.915283">
        <ele>1979.0</ele>
        <time>2018-09-15T13:24:02Z</time>
      </trkpt>
      <trkpt lat="40.245533" lon="-4.915233">
        <ele>1975.0</ele>
        <time>2018-09-15T13:24:03Z</time>
      </trkpt>
      <trkpt lat="40.245500" lon="-4.915200">
        <ele>1972.0</ele>
        <time>2018-09-15T13:24:04Z</time>
      </trkpt>
      <trkpt lat="40.245467" lon="-4.915167">
        <ele>1970.0</ele>
        <time>2018-09-15T13:24:05Z</time>
      </trkpt>
      <trkpt lat="40.245433" lon="-4.915117">
        <ele>1973.0</ele>
        <time>2018-09-15T13:24:06Z</time>
      </trkpt>
      <trkpt lat="40.245400" lon="-4.915050">
        <ele>1973.0</ele>
        <time>2018-09-15T13:24:07Z</time>
      </trkpt>
      <trkpt lat="40.245350" lon="-4.914983">
        <ele>1972.0</ele>
        <time>2018-09-15T13:24:08Z</time>
      </trkpt>
      <trkpt lat="40.245283" lon="-4.914917">
        <ele>1971.0</ele>
        <time>2018-09-15T13:24:09Z</time>
      </trkpt>
      <trkpt lat="40.245250" lon="-4.914850">
        <ele>1970.0</ele>
        <time>2018-09-15T13:24:10Z</time>
      </trkpt>
      <trkpt lat="40.245217" lon="-4.914817">
        <ele>1968.0</ele>
        <time>2018-09-15T13:24:11Z</time>
      </trkpt>
      <trkpt lat="40.245183" lon="-4.914767">
        <ele>1963.0</ele>
        <time>2018-09-15T13:24:12Z</time>
      </trkpt>
      <trkpt lat="40.245133" lon="-4.914717">
        <ele>1958.0</ele>
        <time>2018-09-15T13:24:13Z</time>
      </trkpt>
      <trkpt lat="40.245100" lon="-4.914650">
        <ele>1955.0</ele>
        <time>2018-09-15T13:24:14Z</time>
      </trkpt>
      <trkpt lat="40.245067" lon="-4.914600">
        <ele>1952.0</ele>
        <time>2018-09-15T13:24:15Z</time>
      </trkpt>
      <trkpt lat="40.245033" lon="-4.914533">
        <ele>1950.0</ele>
        <time>2018-09-15T13:24:16Z</time>
      </trkpt>
      <trkpt lat="40.244983" lon="-4.914500">
        <ele>1947.0</ele>
        <time>2018-09-15T13:24:17Z</time>
      </trkpt>
      <trkpt lat="40.244950" lon="-4.914467">
        <ele>1947.0</ele>
        <time>2018-09-15T13:24:18Z</time>
      </trkpt>
      <trkpt lat="40.244933" lon="-4.914450">
        <ele>1947.0</ele>
        <time>2018-09-15T13:24:19Z</time>
      </trkpt>
      <trkpt lat="40.244917" lon="-4.914433">
        <ele>1947.0</ele>
        <time>2018-09-15T13:24:20Z</time>
      </trkpt>
      <trkpt lat="40.244900" lon="-4.914417">
        <ele>1944.0</ele>
        <time>2018-09-15T13:24:21Z</time>
      </trkpt>
      <trkpt lat="40.244883" lon="-4.914383">
        <ele>1941.0</ele>
        <time>2018-09-15T13:24:22Z</time>
      </trkpt>
      <trkpt lat="40.244850" lon="-4.914333">
        <ele>1938.0</ele>
        <time>2018-09-15T13:24:23Z</time>
      </trkpt>
      <trkpt lat="40.244833" lon="-4.914250">
        <ele>1936.0</ele>
        <time>2018-09-15T13:24:24Z</time>
      </trkpt>
      <trkpt lat="40.244817" lon="-4.914183">
        <ele>1935.0</ele>
        <time>2018-09-15T13:24:25Z</time>
      </trkpt>
      <trkpt lat="40.244800" lon="-4.914133">
        <ele>1936.0</ele>
        <time>2018-09-15T13:24:26Z</time>
      </trkpt>
      <trkpt lat="40.244783" lon="-4.914083">
        <ele>1938.0</ele>
        <time>2018-09-15T13:24:27Z</time>
      </trkpt>
      <trkpt lat="40.244767" lon="-4.914050">
        <ele>1939.0</ele>
        <time>2018-09-15T13:24:28Z</time>
      </trkpt>
      <trkpt lat="40.244750" lon="-4.914017">
        <ele>1940.0</ele>
        <time>2018-09-15T13:24:29Z</time>
      </trkpt>
      <trkpt lat="40.244733" lon="-4.913950">
        <ele>1939.0</ele>
        <time>2018-09-15T13:24:30Z</time>
      </trkpt>
      <trkpt lat="40.244700" lon="-4.913867">
        <ele>1939.0</ele>
        <time>2018-09-15T13:24:31Z</time>
      </trkpt>
      <trkpt lat="40.244667" lon="-4.913817">
        <ele>1940.0</ele>
        <time>2018-09-15T13:24:32Z</time>
      </trkpt>
      <trkpt lat="40.244617" lon="-4.913783">
        <ele>1942.0</ele>
        <time>2018-09-15T13:24:33Z</time>
      </trkpt>
      <trkpt lat="40.244600" lon="-4.913750">
        <ele>1947.0</ele>
        <time>2018-09-15T13:24:34Z</time>
      </trkpt>
      <trkpt lat="40.244567" lon="-4.913717">
        <ele>1951.0</ele>
        <time>2018-09-15T13:24:35Z</time>
      </trkpt>
      <trkpt lat="40.244533" lon="-4.913683">
        <ele>1954.0</ele>
        <time>2018-09-15T13:24:36Z</time>
      </trkpt>
      <trkpt lat="40.244483" lon="-4.913617">
        <ele>1951.0</ele>
        <time>2018-09-15T13:24:37Z</time>
      </trkpt>
      <trkpt lat="40.244433" lon="-4.913550">
        <ele>1953.0</ele>
        <time>2018-09-15T13:24:38Z</time>
      </trkpt>
      <trkpt lat="40.244417" lon="-4.913483">
        <ele>1957.0</ele>
        <time>2018-09-15T13:24:39Z</time>
      </trkpt>
      <trkpt lat="40.244417" lon="-4.913417">
        <ele>1961.0</ele>
        <time>2018-09-15T13:24:40Z</time>
      </trkpt>
      <trkpt lat="40.244417" lon="-4.913383">
        <ele>1963.0</ele>
        <time>2018-09-15T13:24:41Z</time>
      </trkpt>
      <trkpt lat="40.244400" lon="-4.913333">
        <ele>1964.0</ele>
        <time>2018-09-15T13:24:42Z</time>
      </trkpt>
      <trkpt lat="40.244383" lon="-4.913283">
        <ele>1964.0</ele>
        <time>2018-09-15T13:24:43Z</time>
      </trkpt>
      <trkpt lat="40.244350" lon="-4.913217">
        <ele>1963.0</ele>
        <time>2018-09-15T13:24:44Z</time>
      </trkpt>
      <trkpt lat="40.244333" lon="-4.913150">
        <ele>1962.0</ele>
        <time>2018-09-15T13:24:45Z</time>
      </trkpt>
      <trkpt lat="40.244300" lon="-4.913083">
        <ele>1964.0</ele>
        <time>2018-09-15T13:24:46Z</time>
      </trkpt>
      <trkpt lat="40.244283" lon="-4.913033">
        <ele>1965.0</ele>
        <time>2018-09-15T13:24:47Z</time>
      </trkpt>
      <trkpt lat="40.244267" lon="-4.913000">
        <ele>1966.0</ele>
        <time>2018-09-15T13:24:48Z</time>
      </trkpt>
      <trkpt lat="40.244250" lon="-4.912933">
        <ele>1966.0</ele>
        <time>2018-09-15T13:24:49Z</time>
      </trkpt>
      <trkpt lat="40.244217" lon="-4.912883">
        <ele>1966.0</ele>
        <time>2018-09-15T13:24:50Z</time>
      </trkpt>
      <trkpt lat="40.244200" lon="-4.912833">
        <ele>1966.0</ele>
        <time>2018-09-15T13:24:51Z</time>
      </trkpt>
      <trkpt lat="40.244167" lon="-4.912783">
        <ele>1966.0</ele>
        <time>2018-09-15T13:24:52Z</time>
      </trkpt>
      <trkpt lat="40.244133" lon="-4.912750">
        <ele>1966.0</ele>
        <time>2018-09-15T13:24:53Z</time>
      </trkpt>
      <trkpt lat="40.244083" lon="-4.912717">
        <ele>1966.0</ele>
        <time>2018-09-15T13:24:54Z</time>
      </trkpt>
      <trkpt lat="40.244050" lon="-4.912683">
        <ele>1966.0</ele>
        <time>2018-09-15T13:24:55Z</time>
      </trkpt>
      <trkpt lat="40.244000" lon="-4.912633">
        <ele>1966.0</ele>
        <time>2018-09-15T13:24:56Z</time>
      </trkpt>
      <trkpt lat="40.243950" lon="-4.912567">
        <ele>1966.0</ele>
        <time>2018-09-15T13:24:57Z</time>
      </trkpt>
      <trkpt lat="40.243917" lon="-4.912517">
        <ele>1966.0</ele>
        <time>2018-09-15T13:24:58Z</time>
      </trkpt>
      <trkpt lat="40.243883" lon="-4.912467">
        <ele>1966.0</ele>
        <time>2018-09-15T13:24:59Z</time>
      </trkpt>
      <trkpt lat="40.243833" lon="-4.912417">
        <ele>1966.0</ele>
        <time>2018-09-15T13:25:00Z</time>
      </trkpt>
      <trkpt lat="40.243800" lon="-4.912367">
        <ele>1966.0</ele>
        <time>2018-09-15T13:25:01Z</time>
      </trkpt>
      <trkpt lat="40.243750" lon="-4.912317">
        <ele>1966.0</ele>
        <time>2018-09-15T13:25:02Z</time>
      </trkpt>
      <trkpt lat="40.243717" lon="-4.912283">
        <ele>1966.0</ele>
        <time>2018-09-15T13:25:03Z</time>
      </trkpt>
      <trkpt lat="40.243683" lon="-4.912233">
        <ele>1966.0</ele>
        <time>2018-09-15T13:25:04Z</time>
      </trkpt>
      <trkpt lat="40.243633" lon="-4.912183">
        <ele>1966.0</ele>
        <time>2018-09-15T13:25:05Z</time>
      </trkpt>
      <trkpt lat="40.243600" lon="-4.912133">
        <ele>1967.0</ele>
        <time>2018-09-15T13:25:06Z</time>
      </trkpt>
      <trkpt lat="40.243567" lon="-4.912100">
        <ele>1967.0</ele>
        <time>2018-09-15T13:25:07Z</time>
      </trkpt>
      <trkpt lat="40.243550" lon="-4.912067">
        <ele>1967.0</ele>
        <time>2018-09-15T13:25:08Z</time>
      </trkpt>
      <trkpt lat="40.243517" lon="-4.912033">
        <ele>1967.0</ele>
        <time>2018-09-15T13:25:09Z</time>
      </trkpt>
      <trkpt lat="40.243483" lon="-4.912000">
        <ele>1967.0</ele>
        <time>2018-09-15T13:25:10Z</time>
      </trkpt>
      <trkpt lat="40.243450" lon="-4.911950">
        <ele>1967.0</ele>
        <time>2018-09-15T13:25:11Z</time>
      </trkpt>
      <trkpt lat="40.243417" lon="-4.911900">
        <ele>1967.0</ele>
        <time>2018-09-15T13:25:12Z</time>
      </trkpt>
      <trkpt lat="40.243400" lon="-4.911833">
        <ele>1968.0</ele>
        <time>2018-09-15T13:25:13Z</time>
      </trkpt>
      <trkpt lat="40.243383" lon="-4.911783">
        <ele>1968.0</ele>
        <time>2018-09-15T13:25:14Z</time>
      </trkpt>
      <trkpt lat="40.243367" lon="-4.911733">
        <ele>1969.0</ele>
        <time>2018-09-15T13:25:15Z</time>
      </trkpt>
      <trkpt lat="40.243350" lon="-4.911700">
        <ele>1972.0</ele>
        <time>2018-09-15T13:25:16Z</time>
      </trkpt>
      <trkpt lat="40.243317" lon="-4.911667">
        <ele>1974.0</ele>
        <time>2018-09-15T13:25:17Z</time>
      </trkpt>
      <trkpt lat="40.243267" lon="-4.911617">
        <ele>1975.0</ele>
        <time>2018-09-15T13:25:18Z</time>
      </trkpt>
      <trkpt lat="40.243233" lon="-4.911567">
        <ele>1975.0</ele>
        <time>2018-09-15T13:25:19Z</time>
      </trkpt>
      <trkpt lat="40.243217" lon="-4.911500">
        <ele>1975.0</ele>
        <time>2018-09-15T13:25:20Z</time>
      </trkpt>
      <trkpt lat="40.243200" lon="-4.911433">
        <ele>1975.0</ele>
        <time>2018-09-15T13:25:21Z</time>
      </trkpt>
      <trkpt lat="40.243167" lon="-4.911350">
        <ele>1975.0</ele>
        <time>2018-09-15T13:25:22Z</time>
      </trkpt>
      <trkpt lat="40.243150" lon="-4.911283">
        <ele>1976.0</ele>
        <time>2018-09-15T13:25:23Z</time>
      </trkpt>
      <trkpt lat="40.243117" lon="-4.911200">
        <ele>1978.0</ele>
        <time>2018-09-15T13:25:24Z</time>
      </trkpt>
      <trkpt lat="40.243100" lon="-4.911133">
        <ele>1979.0</ele>
        <time>2018-09-15T13:25:25Z</time>
      </trkpt>
      <trkpt lat="40.243067" lon="-4.911067">
        <ele>1980.0</ele>
        <time>2018-09-15T13:25:26Z</time>
      </trkpt>
      <trkpt lat="40.243050" lon="-4.911000">
        <ele>1981.0</ele>
        <time>2018-09-15T13:25:27Z</time>
      </trkpt>
      <trkpt lat="40.243033" lon="-4.910917">
        <ele>1980.0</ele>
        <time>2018-09-15T13:25:28Z</time>
      </trkpt>
      <trkpt lat="40.243000" lon="-4.910850">
        <ele>1980.0</ele>
        <time>2018-09-15T13:25:29Z</time>
      </trkpt>
      <trkpt lat="40.242983" lon="-4.910800">
        <ele>1980.0</ele>
        <time>2018-09-15T13:25:30Z</time>
      </trkpt>
      <trkpt lat="40.242967" lon="-4.910750">
        <ele>1981.0</ele>
        <time>2018-09-15T13:25:31Z</time>
      </trkpt>
      <trkpt lat="40.242933" lon="-4.910683">
        <ele>1981.0</ele>
        <time>2018-09-15T13:25:32Z</time>
      </trkpt>
      <trkpt lat="40.242900" lon="-4.910600">
        <ele>1982.0</ele>
        <time>2018-09-15T13:25:33Z</time>
      </trkpt>
      <trkpt lat="40.242883" lon="-4.910517">
        <ele>1983.0</ele>
        <time>2018-09-15T13:25:34Z</time>
      </trkpt>
      <trkpt lat="40.242850" lon="-4.910467">
        <ele>1983.0</ele>
        <time>2018-09-15T13:25:35Z</time>
      </trkpt>
      <trkpt lat="40.242833" lon="-4.910433">
        <ele>1984.0</ele>
        <time>2018-09-15T13:25:36Z</time>
      </trkpt>
      <trkpt lat="40.242817" lon="-4.910383">
        <ele>1985.0</ele>
        <time>2018-09-15T13:25:37Z</time>
      </trkpt>
      <trkpt lat="40.242800" lon="-4.910333">
        <ele>1985.0</ele>
        <time>2018-09-15T13:25:38Z</time>
      </trkpt>
      <trkpt lat="40.242783" lon="-4.910250">
        <ele>1986.0</ele>
        <time>2018-09-15T13:25:39Z</time>
      </trkpt>
      <trkpt lat="40.242750" lon="-4.910183">
        <ele>1986.0</ele>
        <time>2018-09-15T13:25:40Z</time>
      </trkpt>
      <trkpt lat="40.242733" lon="-4.910117">
        <ele>1987.0</ele>
        <time>2018-09-15T13:25:41Z</time>
      </trkpt>
      <trkpt lat="40.242750" lon="-4.910050">
        <ele>1987.0</ele>
        <time>2018-09-15T13:25:42Z</time>
      </trkpt>
      <trkpt lat="40.242750" lon="-4.909983">
        <ele>1988.0</ele>
        <time>2018-09-15T13:25:43Z</time>
      </trkpt>
      <trkpt lat="40.242750" lon="-4.909950">
        <ele>1989.0</ele>
        <time>2018-09-15T13:25:44Z</time>
      </trkpt>
      <trkpt lat="40.242750" lon="-4.909900">
        <ele>1990.0</ele>
        <time>2018-09-15T13:25:45Z</time>
      </trkpt>
      <trkpt lat="40.242750" lon="-4.909817">
        <ele>1990.0</ele>
        <time>2018-09-15T13:25:46Z</time>
      </trkpt>
      <trkpt lat="40.242717" lon="-4.909733">
        <ele>1991.0</ele>
        <time>2018-09-15T13:25:47Z</time>
      </trkpt>
      <trkpt lat="40.242683" lon="-4.909633">
        <ele>1992.0</ele>
        <time>2018-09-15T13:25:48Z</time>
      </trkpt>
      <trkpt lat="40.242667" lon="-4.909567">
        <ele>1993.0</ele>
        <time>2018-09-15T13:25:49Z</time>
      </trkpt>
      <trkpt lat="40.242633" lon="-4.909483">
        <ele>1993.0</ele>
        <time>2018-09-15T13:25:50Z</time>
      </trkpt>
      <trkpt lat="40.242600" lon="-4.909417">
        <ele>1994.0</ele>
        <time>2018-09-15T13:25:51Z</time>
      </trkpt>
      <trkpt lat="40.242583" lon="-4.909367">
        <ele>1995.0</ele>
        <time>2018-09-15T13:25:52Z</time>
      </trkpt>
      <trkpt lat="40.242567" lon="-4.909300">
        <ele>1996.0</ele>
        <time>2018-09-15T13:25:53Z</time>
      </trkpt>
      <trkpt lat="40.242533" lon="-4.909250">
        <ele>1997.0</ele>
        <time>2018-09-15T13:25:54Z</time>
      </trkpt>
      <trkpt lat="40.242517" lon="-4.909200">
        <ele>1999.0</ele>
        <time>2018-09-15T13:25:55Z</time>
      </trkpt>
      <trkpt lat="40.242483" lon="-4.909117">
        <ele>1999.0</ele>
        <time>2018-09-15T13:25:56Z</time>
      </trkpt>
      <trkpt lat="40.242433" lon="-4.909017">
        <ele>2000.0</ele>
        <time>2018-09-15T13:25:57Z</time>
      </trkpt>
      <trkpt lat="40.242383" lon="-4.908950">
        <ele>2002.0</ele>
        <time>2018-09-15T13:25:58Z</time>
      </trkpt>
      <trkpt lat="40.242367" lon="-4.908900">
        <ele>2004.0</ele>
        <time>2018-09-15T13:25:59Z</time>
      </trkpt>
      <trkpt lat="40.242350" lon="-4.908850">
        <ele>2005.0</ele>
        <time>2018-09-15T13:26:00Z</time>
      </trkpt>
      <trkpt lat="40.242317" lon="-4.908783">
        <ele>2005.0</ele>
        <time>2018-09-15T13:26:01Z</time>
      </trkpt>
      <trkpt lat="40.242300" lon="-4.908717">
        <ele>2006.0</ele>
        <time>2018-09-15T13:26:02Z</time>
      </trkpt>
      <trkpt lat="40.242267" lon="-4.908633">
        <ele>2007.0</ele>
        <time>2018-09-15T13:26:03Z</time>
      </trkpt>
      <trkpt lat="40.242233" lon="-4.908567">
        <ele>2008.0</ele>
        <time>2018-09-15T13:26:04Z</time>
      </trkpt>
      <trkpt lat="40.242200" lon="-4.908483">
        <ele>2009.0</ele>
        <time>2018-09-15T13:26:05Z</time>
      </trkpt>
      <trkpt lat="40.242167" lon="-4.908417">
        <ele>2009.0</ele>
        <time>2018-09-15T13:26:06Z</time>
      </trkpt>
      <trkpt lat="40.242117" lon="-4.908350">
        <ele>2010.0</ele>
        <time>2018-09-15T13:26:07Z</time>
      </trkpt>
      <trkpt lat="40.242067" lon="-4.908283">
        <ele>2011.0</ele>
        <time>2018-09-15T13:26:08Z</time>
      </trkpt>
      <trkpt lat="40.242000" lon="-4.908217">
        <ele>2012.0</ele>
        <time>2018-09-15T13:26:09Z</time>
      </trkpt>
      <trkpt lat="40.241933" lon="-4.908150">
        <ele>2012.0</ele>
        <time>2018-09-15T13:26:10Z</time>
      </trkpt>
      <trkpt lat="40.241883" lon="-4.908083">
        <ele>2013.0</ele>
        <time>2018-09-15T13:26:11Z</time>
      </trkpt>
      <trkpt lat="40.241817" lon="-4.908000">
        <ele>2014.0</ele>
        <time>2018-09-15T13:26:12Z</time>
      </trkpt>
      <trkpt lat="40.241750" lon="-4.907900">
        <ele>2014.0</ele>
        <time>2018-09-15T13:26:13Z</time>
      </trkpt>
      <trkpt lat="40.241683" lon="-4.907817">
        <ele>2015.0</ele>
        <time>2018-09-15T13:26:14Z</time>
      </trkpt>
      <trkpt lat="40.241617" lon="-4.907733">
        <ele>2015.0</ele>
        <time>2018-09-15T13:26:15Z</time>
      </trkpt>
      <trkpt lat="40.241567" lon="-4.907650">
        <ele>2016.0</ele>
        <time>2018-09-15T13:26:16Z</time>
      </trkpt>
      <trkpt lat="40.241500" lon="-4.907567">
        <ele>2016.0</ele>
        <time>2018-09-15T13:26:17Z</time>
      </trkpt>
      <trkpt lat="40.241450" lon="-4.907483">
        <ele>2017.0</ele>
        <time>2018-09-15T13:26:18Z</time>
      </trkpt>
      <trkpt lat="40.241400" lon="-4.907400">
        <ele>2017.0</ele>
        <time>2018-09-15T13:26:19Z</time>
      </trkpt>
      <trkpt lat="40.241333" lon="-4.907350">
        <ele>2017.0</ele>
        <time>2018-09-15T13:26:20Z</time>
      </trkpt>
      <trkpt lat="40.241267" lon="-4.907300">
        <ele>2017.0</ele>
        <time>2018-09-15T13:26:21Z</time>
      </trkpt>
      <trkpt lat="40.241200" lon="-4.907250">
        <ele>2017.0</ele>
        <time>2018-09-15T13:26:22Z</time>
      </trkpt>
      <trkpt lat="40.241117" lon="-4.907200">
        <ele>2017.0</ele>
        <time>2018-09-15T13:26:23Z</time>
      </trkpt>
      <trkpt lat="40.241067" lon="-4.907117">
        <ele>2015.0</ele>
        <time>2018-09-15T13:26:24Z</time>
      </trkpt>
      <trkpt lat="40.241000" lon="-4.907033">
        <ele>2012.0</ele>
        <time>2018-09-15T13:26:25Z</time>
      </trkpt>
      <trkpt lat="40.240950" lon="-4.906950">
        <ele>2011.0</ele>
        <time>2018-09-15T13:26:26Z</time>
      </trkpt>
      <trkpt lat="40.240917" lon="-4.906883">
        <ele>2011.0</ele>
        <time>2018-09-15T13:26:27Z</time>
      </trkpt>
      <trkpt lat="40.240900" lon="-4.906817">
        <ele>2010.0</ele>
        <time>2018-09-15T13:26:28Z</time>
      </trkpt>
      <trkpt lat="40.240883" lon="-4.906750">
        <ele>2009.0</ele>
        <time>2018-09-15T13:26:29Z</time>
      </trkpt>
      <trkpt lat="40.240867" lon="-4.906683">
        <ele>2008.0</ele>
        <time>2018-09-15T13:26:30Z</time>
      </trkpt>
      <trkpt lat="40.240833" lon="-4.906600">
        <ele>2006.0</ele>
        <time>2018-09-15T13:26:31Z</time>
      </trkpt>
      <trkpt lat="40.240800" lon="-4.906517">
        <ele>2009.0</ele>
        <time>2018-09-15T13:26:32Z</time>
      </trkpt>
      <trkpt lat="40.240767" lon="-4.906417">
        <ele>2009.0</ele>
        <time>2018-09-15T13:26:33Z</time>
      </trkpt>
      <trkpt lat="40.240750" lon="-4.906333">
        <ele>2008.0</ele>
        <time>2018-09-15T13:26:34Z</time>
      </trkpt>
      <trkpt lat="40.240733" lon="-4.906233">
        <ele>2008.0</ele>
        <time>2018-09-15T13:26:35Z</time>
      </trkpt>
      <trkpt lat="40.240700" lon="-4.906150">
        <ele>2008.0</ele>
        <time>2018-09-15T13:26:36Z</time>
      </trkpt>
      <trkpt lat="40.240683" lon="-4.906067">
        <ele>2008.0</ele>
        <time>2018-09-15T13:26:37Z</time>
      </trkpt>
      <trkpt lat="40.240650" lon="-4.905983">
        <ele>2007.0</ele>
        <time>2018-09-15T13:26:38Z</time>
      </trkpt>
      <trkpt lat="40.240633" lon="-4.905917">
        <ele>2007.0</ele>
        <time>2018-09-15T13:26:39Z</time>
      </trkpt>
      <trkpt lat="40.240600" lon="-4.905850">
        <ele>2006.0</ele>
        <time>2018-09-15T13:26:40Z</time>
      </trkpt>
      <trkpt lat="40.240567" lon="-4.905783">
        <ele>2006.0</ele>
        <time>2018-09-15T13:26:41Z</time>
      </trkpt>
      <trkpt lat="40.240533" lon="-4.905717">
        <ele>2006.0</ele>
        <time>2018-09-15T13:26:42Z</time>
      </trkpt>
      <trkpt lat="40.240517" lon="-4.905633">
        <ele>2005.0</ele>
        <time>2018-09-15T13:26:43Z</time>
      </trkpt>
      <trkpt lat="40.240467" lon="-4.905533">
        <ele>2004.0</ele>
        <time>2018-09-15T13:26:44Z</time>
      </trkpt>
      <trkpt lat="40.240433" lon="-4.905450">
        <ele>2004.0</ele>
        <time>2018-09-15T13:26:45Z</time>
      </trkpt>
      <trkpt lat="40.240383" lon="-4.905350">
        <ele>2002.0</ele>
        <time>2018-09-15T13:26:46Z</time>
      </trkpt>
      <trkpt lat="40.240333" lon="-4.905283">
        <ele>2000.0</ele>
        <time>2018-09-15T13:26:47Z</time>
      </trkpt>
      <trkpt lat="40.240317" lon="-4.905250">
        <ele>1998.0</ele>
        <time>2018-09-15T13:26:48Z</time>
      </trkpt>
      <trkpt lat="40.240300" lon="-4.905200">
        <ele>1995.0</ele>
        <time>2018-09-15T13:26:49Z</time>
      </trkpt>
      <trkpt lat="40.240267" lon="-4.905133">
        <ele>1992.0</ele>
        <time>2018-09-15T13:26:50Z</time>
      </trkpt>
      <trkpt lat="40.240250" lon="-4.905067">
        <ele>1985.0</ele>
        <time>2018-09-15T13:26:51Z</time>
      </trkpt>
      <trkpt lat="40.240233" lon="-4.905000">
        <ele>1981.0</ele>
        <time>2018-09-15T13:26:52Z</time>
      </trkpt>
      <trkpt lat="40.240233" lon="-4.904950">
        <ele>1977.0</ele>
        <time>2018-09-15T13:26:53Z</time>
      </trkpt>
      <trkpt lat="40.240217" lon="-4.904900">
        <ele>1973.0</ele>
        <time>2018-09-15T13:26:54Z</time>
      </trkpt>
      <trkpt lat="40.240200" lon="-4.904867">
        <ele>1969.0</ele>
        <time>2018-09-15T13:26:55Z</time>
      </trkpt>
      <trkpt lat="40.240167" lon="-4.904800">
        <ele>1966.0</ele>
        <time>2018-09-15T13:26:56Z</time>
      </trkpt>
      <trkpt lat="40.240133" lon="-4.904717">
        <ele>1968.0</ele>
        <time>2018-09-15T13:26:57Z</time>
      </trkpt>
      <trkpt lat="40.240100" lon="-4.904633">
        <ele>1967.0</ele>
        <time>2018-09-15T13:26:58Z</time>
      </trkpt>
      <trkpt lat="40.240067" lon="-4.904550">
        <ele>1967.0</ele>
        <time>2018-09-15T13:26:59Z</time>
      </trkpt>
      <trkpt lat="40.240017" lon="-4.904483">
        <ele>1966.0</ele>
        <time>2018-09-15T13:27:00Z</time>
      </trkpt>
      <trkpt lat="40.239983" lon="-4.904383">
        <ele>1965.0</ele>
        <time>2018-09-15T13:27:01Z</time>
      </trkpt>
      <trkpt lat="40.239950" lon="-4.904283">
        <ele>1964.0</ele>
        <time>2018-09-15T13:27:02Z</time>
      </trkpt>
      <trkpt lat="40.239917" lon="-4.904183">
        <ele>1963.0</ele>
        <time>2018-09-15T13:27:03Z</time>
      </trkpt>
      <trkpt lat="40.239867" lon="-4.904083">
        <ele>1963.0</ele>
        <time>2018-09-15T13:27:04Z</time>
      </trkpt>
      <trkpt lat="40.239833" lon="-4.903967">
        <ele>1962.0</ele>
        <time>2018-09-15T13:27:05Z</time>
      </trkpt>
      <trkpt lat="40.239817" lon="-4.903867">
        <ele>1961.0</ele>
        <time>2018-09-15T13:27:06Z</time>
      </trkpt>
      <trkpt lat="40.239800" lon="-4.903767">
        <ele>1960.0</ele>
        <time>2018-09-15T13:27:07Z</time>
      </trkpt>
      <trkpt lat="40.239767" lon="-4.903667">
        <ele>1960.0</ele>
        <time>2018-09-15T13:27:08Z</time>
      </trkpt>
      <trkpt lat="40.239750" lon="-4.903567">
        <ele>1959.0</ele>
        <time>2018-09-15T13:27:09Z</time>
      </trkpt>
      <trkpt lat="40.239717" lon="-4.903450">
        <ele>1958.0</ele>
        <time>2018-09-15T13:27:10Z</time>
      </trkpt>
      <trkpt lat="40.239683" lon="-4.903317">
        <ele>1957.0</ele>
        <time>2018-09-15T13:27:11Z</time>
      </trkpt>
      <trkpt lat="40.239650" lon="-4.903217">
        <ele>1956.0</ele>
        <time>2018-09-15T13:27:12Z</time>
      </trkpt>
      <trkpt lat="40.239617" lon="-4.903167">
        <ele>1955.0</ele>
        <time>2018-09-15T13:27:13Z</time>
      </trkpt>
      <trkpt lat="40.239567" lon="-4.903100">
        <ele>1954.0</ele>
        <time>2018-09-15T13:27:14Z</time>
      </trkpt>
      <trkpt lat="40.239533" lon="-4.903000">
        <ele>1953.0</ele>
        <time>2018-09-15T13:27:15Z</time>
      </trkpt>
      <trkpt lat="40.239500" lon="-4.902933">
        <ele>1952.0</ele>
        <time>2018-09-15T13:27:16Z</time>
      </trkpt>
      <trkpt lat="40.239450" lon="-4.902867">
        <ele>1951.0</ele>
        <time>2018-09-15T13:27:17Z</time>
      </trkpt>
      <trkpt lat="40.239417" lon="-4.902783">
        <ele>1950.0</ele>
        <time>2018-09-15T13:27:18Z</time>
      </trkpt>
      <trkpt lat="40.239350" lon="-4.902717">
        <ele>1949.0</ele>
        <time>2018-09-15T13:27:19Z</time>
      </trkpt>
      <trkpt lat="40.239317" lon="-4.902683">
        <ele>1947.0</ele>
        <time>2018-09-15T13:27:20Z</time>
      </trkpt>
      <trkpt lat="40.239300" lon="-4.902667">
        <ele>1945.0</ele>
        <time>2018-09-15T13:27:21Z</time>
      </trkpt>
      <trkpt lat="40.239283" lon="-4.902600">
        <ele>1942.0</ele>
        <time>2018-09-15T13:27:22Z</time>
      </trkpt>
      <trkpt lat="40.239267" lon="-4.902550">
        <ele>1941.0</ele>
        <time>2018-09-15T13:27:23Z</time>
      </trkpt>
      <trkpt lat="40.239233" lon="-4.902450">
        <ele>1939.0</ele>
        <time>2018-09-15T13:27:24Z</time>
      </trkpt>
      <trkpt lat="40.239183" lon="-4.902367">
        <ele>1938.0</ele>
        <time>2018-09-15T13:27:25Z</time>
      </trkpt>
      <trkpt lat="40.239150" lon="-4.902317">
        <ele>1937.0</ele>
        <time>2018-09-15T13:27:26Z</time>
      </trkpt>
      <trkpt lat="40.239133" lon="-4.902267">
        <ele>1935.0</ele>
        <time>2018-09-15T13:27:27Z</time>
      </trkpt>
      <trkpt lat="40.239133" lon="-4.902183">
        <ele>1933.0</ele>
        <time>2018-09-15T13:27:28Z</time>
      </trkpt>
      <trkpt lat="40.239117" lon="-4.902117">
        <ele>1931.0</ele>
        <time>2018-09-15T13:27:29Z</time>
      </trkpt>
      <trkpt lat="40.239083" lon="-4.902017">
        <ele>1929.0</ele>
        <time>2018-09-15T13:27:30Z</time>
      </trkpt>
      <trkpt lat="40.239050" lon="-4.901917">
        <ele>1927.0</ele>
        <time>2018-09-15T13:27:31Z</time>
      </trkpt>
      <trkpt lat="40.239017" lon="-4.901817">
        <ele>1926.0</ele>
        <time>2018-09-15T13:27:32Z</time>
      </trkpt>
      <trkpt lat="40.239000" lon="-4.901733">
        <ele>1925.0</ele>
        <time>2018-09-15T13:27:33Z</time>
      </trkpt>
      <trkpt lat="40.238967" lon="-4.901667">
        <ele>1923.0</ele>
        <time>2018-09-15T13:27:34Z</time>
      </trkpt>
      <trkpt lat="40.238950" lon="-4.901600">
        <ele>1920.0</ele>
        <time>2018-09-15T13:27:35Z</time>
      </trkpt>
      <trkpt lat="40.238917" lon="-4.901533">
        <ele>1917.0</ele>
        <time>2018-09-15T13:27:36Z</time>
      </trkpt>
      <trkpt lat="40.238900" lon="-4.901450">
        <ele>1916.0</ele>
        <time>2018-09-15T13:27:37Z</time>
      </trkpt>
      <trkpt lat="40.238867" lon="-4.901333">
        <ele>1914.0</ele>
        <time>2018-09-15T13:27:38Z</time>
      </trkpt>
      <trkpt lat="40.238833" lon="-4.901200">
        <ele>1912.0</ele>
        <time>2018-09-15T13:27:39Z</time>
      </trkpt>
      <trkpt lat="40.238800" lon="-4.901083">
        <ele>1911.0</ele>
        <time>2018-09-15T13:27:40Z</time>
      </trkpt>
      <trkpt lat="40.238767" lon="-4.901000">
        <ele>1909.0</ele>
        <time>2018-09-15T13:27:41Z</time>
      </trkpt>
      <trkpt lat="40.238733" lon="-4.900917">
        <ele>1908.0</ele>
        <time>2018-09-15T13:27:42Z</time>
      </trkpt>
      <trkpt lat="40.238717" lon="-4.900850">
        <ele>1907.0</ele>
        <time>2018-09-15T13:27:43Z</time>
      </trkpt>
      <trkpt lat="40.238683" lon="-4.900750">
        <ele>1906.0</ele>
        <time>2018-09-15T13:27:44Z</time>
      </trkpt>
      <trkpt lat="40.238633" lon="-4.900650">
        <ele>1904.0</ele>
        <time>2018-09-15T13:27:45Z</time>
      </trkpt>
      <trkpt lat="40.238583" lon="-4.900567">
        <ele>1902.0</ele>
        <time>2018-09-15T13:27:46Z</time>
      </trkpt>
      <trkpt lat="40.238533" lon="-4.900517">
        <ele>1900.0</ele>
        <time>2018-09-15T13:27:47Z</time>
      </trkpt>
      <trkpt lat="40.238500" lon="-4.900450">
        <ele>1898.0</ele>
        <time>2018-09-15T13:27:48Z</time>
      </trkpt>
      <trkpt lat="40.238467" lon="-4.900417">
        <ele>1897.0</ele>
        <time>2018-09-15T13:27:49Z</time>
      </trkpt>
      <trkpt lat="40.238433" lon="-4.900367">
        <ele>1896.0</ele>
        <time>2018-09-15T13:27:50Z</time>
      </trkpt>
      <trkpt lat="40.238400" lon="-4.900300">
        <ele>1893.0</ele>
        <time>2018-09-15T13:27:51Z</time>
      </trkpt>
      <trkpt lat="40.238350" lon="-4.900233">
        <ele>1891.0</ele>
        <time>2018-09-15T13:27:52Z</time>
      </trkpt>
      <trkpt lat="40.238317" lon="-4.900150">
        <ele>1889.0</ele>
        <time>2018-09-15T13:27:53Z</time>
      </trkpt>
      <trkpt lat="40.238283" lon="-4.900067">
        <ele>1884.0</ele>
        <time>2018-09-15T13:27:54Z</time>
      </trkpt>
      <trkpt lat="40.238250" lon="-4.899983">
        <ele>1882.0</ele>
        <time>2018-09-15T13:27:55Z</time>
      </trkpt>
      <trkpt lat="40.238217" lon="-4.899900">
        <ele>1880.0</ele>
        <time>2018-09-15T13:27:56Z</time>
      </trkpt>
      <trkpt lat="40.238167" lon="-4.899817">
        <ele>1879.0</ele>
        <time>2018-09-15T13:27:57Z</time>
      </trkpt>
      <trkpt lat="40.238133" lon="-4.899733">
        <ele>1877.0</ele>
        <time>2018-09-15T13:27:58Z</time>
      </trkpt>
      <trkpt lat="40.238083" lon="-4.899667">
        <ele>1875.0</ele>
        <time>2018-09-15T13:27:59Z</time>
      </trkpt>
      <trkpt lat="40.238050" lon="-4.899583">
        <ele>1873.0</ele>
        <time>2018-09-15T13:28:00Z</time>
      </trkpt>
      <trkpt lat="40.238000" lon="-4.899517">
        <ele>1871.0</ele>
        <time>2018-09-15T13:28:01Z</time>
      </trkpt>
      <trkpt lat="40.237967" lon="-4.899433">
        <ele>1869.0</ele>
        <time>2018-09-15T13:28:02Z</time>
      </trkpt>
      <trkpt lat="40.237933" lon="-4.899333">
        <ele>1868.0</ele>
        <time>2018-09-15T13:28:03Z</time>
      </trkpt>
      <trkpt lat="40.237883" lon="-4.899217">
        <ele>1865.0</ele>
        <time>2018-09-15T13:28:04Z</time>
      </trkpt>
      <trkpt lat="40.237850" lon="-4.899100">
        <ele>1863.0</ele>
        <time>2018-09-15T13:28:05Z</time>
      </trkpt>
      <trkpt lat="40.237800" lon="-4.898983">
        <ele>1861.0</ele>
        <time>2018-09-15T13:28:06Z</time>
      </trkpt>
      <trkpt lat="40.237767" lon="-4.898917">
        <ele>1858.0</ele>
        <time>2018-09-15T13:28:07Z</time>
      </trkpt>
      <trkpt lat="40.237733" lon="-4.898867">
        <ele>1855.0</ele>
        <time>2018-09-15T13:28:08Z</time>
      </trkpt>
      <trkpt lat="40.237700" lon="-4.898833">
        <ele>1853.0</ele>
        <time>2018-09-15T13:28:09Z</time>
      </trkpt>
      <trkpt lat="40.237667" lon="-4.898750">
        <ele>1851.0</ele>
        <time>2018-09-15T13:28:10Z</time>
      </trkpt>
      <trkpt lat="40.237617" lon="-4.898650">
        <ele>1849.0</ele>
        <time>2018-09-15T13:28:11Z</time>
      </trkpt>
      <trkpt lat="40.237567" lon="-4.898550">
        <ele>1847.0</ele>
        <time>2018-09-15T13:28:12Z</time>
      </trkpt>
      <trkpt lat="40.237517" lon="-4.898433">
        <ele>1845.0</ele>
        <time>2018-09-15T13:28:13Z</time>
      </trkpt>
      <trkpt lat="40.237467" lon="-4.898317">
        <ele>1842.0</ele>
        <time>2018-09-15T13:28:14Z</time>
      </trkpt>
      <trkpt lat="40.237417" lon="-4.898217">
        <ele>1839.0</ele>
        <time>2018-09-15T13:28:15Z</time>
      </trkpt>
      <trkpt lat="40.237383" lon="-4.898183">
        <ele>1836.0</ele>
        <time>2018-09-15T13:28:16Z</time>
      </trkpt>
      <trkpt lat="40.237333" lon="-4.898083">
        <ele>1831.0</ele>
        <time>2018-09-15T13:28:17Z</time>
      </trkpt>
      <trkpt lat="40.237283" lon="-4.897983">
        <ele>1830.0</ele>
        <time>2018-09-15T13:28:18Z</time>
      </trkpt>
      <trkpt lat="40.237233" lon="-4.897900">
        <ele>1827.0</ele>
        <time>2018-09-15T13:28:19Z</time>
      </trkpt>
      <trkpt lat="40.237200" lon="-4.897883">
        <ele>1824.0</ele>
        <time>2018-09-15T13:28:20Z</time>
      </trkpt>
      <trkpt lat="40.237167" lon="-4.897867">
        <ele>1824.0</ele>
        <time>2018-09-15T13:28:21Z</time>
      </trkpt>
      <trkpt lat="40.237117" lon="-4.897767">
        <ele>1822.0</ele>
        <time>2018-09-15T13:28:22Z</time>
      </trkpt>
      <trkpt lat="40.237067" lon="-4.897700">
        <ele>1820.0</ele>
        <time>2018-09-15T13:28:23Z</time>
      </trkpt>
      <trkpt lat="40.237033" lon="-4.897617">
        <ele>1818.0</ele>
        <time>2018-09-15T13:28:24Z</time>
      </trkpt>
      <trkpt lat="40.237000" lon="-4.897550">
        <ele>1816.0</ele>
        <time>2018-09-15T13:28:25Z</time>
      </trkpt>
      <trkpt lat="40.236967" lon="-4.897483">
        <ele>1815.0</ele>
        <time>2018-09-15T13:28:26Z</time>
      </trkpt>
      <trkpt lat="40.236933" lon="-4.897417">
        <ele>1813.0</ele>
        <time>2018-09-15T13:28:27Z</time>
      </trkpt>
      <trkpt lat="40.236900" lon="-4.897333">
        <ele>1811.0</ele>
        <time>2018-09-15T13:28:28Z</time>
      </trkpt>
      <trkpt lat="40.236867" lon="-4.897250">
        <ele>1809.0</ele>
        <time>2018-09-15T13:28:29Z</time>
      </trkpt>
      <trkpt lat="40.236833" lon="-4.897167">
        <ele>1806.0</ele>
        <time>2018-09-15T13:28:30Z</time>
      </trkpt>
      <trkpt lat="40.236800" lon="-4.897083">
        <ele>1804.0</ele>
        <time>2018-09-15T13:28:31Z</time>
      </trkpt>
      <trkpt lat="40.236767" lon="-4.897017">
        <ele>1801.0</ele>
        <time>2018-09-15T13:28:32Z</time>
      </trkpt>
      <trkpt lat="40.236717" lon="-4.896950">
        <ele>1797.0</ele>
        <time>2018-09-15T13:28:33Z</time>
      </trkpt>
      <trkpt lat="40.236683" lon="-4.896900">
        <ele>1793.0</ele>
        <time>2018-09-15T13:28:34Z</time>
      </trkpt>
      <trkpt lat="40.236650" lon="-4.896833">
        <ele>1790.0</ele>
        <time>2018-09-15T13:28:35Z</time>
      </trkpt>
      <trkpt lat="40.236617" lon="-4.896750">
        <ele>1786.0</ele>
        <time>2018-09-15T13:28:36Z</time>
      </trkpt>
      <trkpt lat="40.236567" lon="-4.896683">
        <ele>1782.0</ele>
        <time>2018-09-15T13:28:37Z</time>
      </trkpt>
      <trkpt lat="40.236533" lon="-4.896600">
        <ele>1777.0</ele>
        <time>2018-09-15T13:28:38Z</time>
      </trkpt>
      <trkpt lat="40.236483" lon="-4.896533">
        <ele>1773.0</ele>
        <time>2018-09-15T13:28:39Z</time>
      </trkpt>
      <trkpt lat="40.236450" lon="-4.896450">
        <ele>1768.0</ele>
        <time>2018-09-15T13:28:40Z</time>
      </trkpt>
      <trkpt lat="40.236417" lon="-4.896383">
        <ele>1764.0</ele>
        <time>2018-09-15T13:28:41Z</time>
      </trkpt>
      <trkpt lat="40.236367" lon="-4.896317">
        <ele>1760.0</ele>
        <time>2018-09-15T13:28:42Z</time>
      </trkpt>
      <trkpt lat="40.236350" lon="-4.896250">
        <ele>1756.0</ele>
        <time>2018-09-15T13:28:43Z</time>
      </trkpt>
      <trkpt lat="40.236300" lon="-4.896183">
        <ele>1751.0</ele>
        <time>2018-09-15T13:28:44Z</time>
      </trkpt>
      <trkpt lat="40.236267" lon="-4.896117">
        <ele>1746.0</ele>
        <time>2018-09-15T13:28:45Z</time>
      </trkpt>
      <trkpt lat="40.236233" lon="-4.896033">
        <ele>1740.0</ele>
        <time>2018-09-15T13:28:46Z</time>
      </trkpt>
      <trkpt lat="40.236217" lon="-4.895967">
        <ele>1735.0</ele>
        <time>2018-09-15T13:28:47Z</time>
      </trkpt>
      <trkpt lat="40.236183" lon="-4.895900">
        <ele>1730.0</ele>
        <time>2018-09-15T13:28:48Z</time>
      </trkpt>
      <trkpt lat="40.236167" lon="-4.895833">
        <ele>1726.0</ele>
        <time>2018-09-15T13:28:49Z</time>
      </trkpt>
      <trkpt lat="40.236150" lon="-4.895767">
        <ele>1720.0</ele>
        <time>2018-09-15T13:28:50Z</time>
      </trkpt>
      <trkpt lat="40.236133" lon="-4.895700">
        <ele>1715.0</ele>
        <time>2018-09-15T13:28:51Z</time>
      </trkpt>
      <trkpt lat="40.236100" lon="-4.895633">
        <ele>1711.0</ele>
        <time>2018-09-15T13:28:52Z</time>
      </trkpt>
      <trkpt lat="40.236083" lon="-4.895567">
        <ele>1706.0</ele>
        <time>2018-09-15T13:28:53Z</time>
      </trkpt>
      <trkpt lat="40.236067" lon="-4.895500">
        <ele>1702.0</ele>
        <time>2018-09-15T13:28:54Z</time>
      </trkpt>
      <trkpt lat="40.236050" lon="-4.895433">
        <ele>1697.0</ele>
        <time>2018-09-15T13:28:55Z</time>
      </trkpt>
      <trkpt lat="40.236033" lon="-4.895383">
        <ele>1693.0</ele>
        <time>2018-09-15T13:28:56Z</time>
      </trkpt>
      <trkpt lat="40.236017" lon="-4.895317">
        <ele>1689.0</ele>
        <time>2018-09-15T13:28:57Z</time>
      </trkpt>
      <trkpt lat="40.236000" lon="-4.895250">
        <ele>1684.0</ele>
        <time>2018-09-15T13:28:58Z</time>
      </trkpt>
      <trkpt lat="40.235967" lon="-4.895183">
        <ele>1680.0</ele>
        <time>2018-09-15T13:28:59Z</time>
      </trkpt>
      <trkpt lat="40.235950" lon="-4.895117">
        <ele>1676.0</ele>
        <time>2018-09-15T13:29:00Z</time>
      </trkpt>
      <trkpt lat="40.235917" lon="-4.895033">
        <ele>1672.0</ele>
        <time>2018-09-15T13:29:01Z</time>
      </trkpt>
      <trkpt lat="40.235883" lon="-4.894967">
        <ele>1669.0</ele>
        <time>2018-09-15T13:29:02Z</time>
      </trkpt>
      <trkpt lat="40.235850" lon="-4.894900">
        <ele>1665.0</ele>
        <time>2018-09-15T13:29:03Z</time>
      </trkpt>
      <trkpt lat="40.235833" lon="-4.894833">
        <ele>1661.0</ele>
        <time>2018-09-15T13:29:04Z</time>
      </trkpt>
      <trkpt lat="40.235800" lon="-4.894767">
        <ele>1658.0</ele>
        <time>2018-09-15T13:29:05Z</time>
      </trkpt>
      <trkpt lat="40.235767" lon="-4.894700">
        <ele>1655.0</ele>
        <time>2018-09-15T13:29:06Z</time>
      </trkpt>
      <trkpt lat="40.235733" lon="-4.894633">
        <ele>1651.0</ele>
        <time>2018-09-15T13:29:07Z</time>
      </trkpt>
      <trkpt lat="40.235700" lon="-4.894550">
        <ele>1648.0</ele>
        <time>2018-09-15T13:29:08Z</time>
      </trkpt>
      <trkpt lat="40.235667" lon="-4.894483">
        <ele>1645.0</ele>
        <time>2018-09-15T13:29:09Z</time>
      </trkpt>
      <trkpt lat="40.235633" lon="-4.894400">
        <ele>1642.0</ele>
        <time>2018-09-15T13:29:10Z</time>
      </trkpt>
      <trkpt lat="40.235600" lon="-4.894333">
        <ele>1639.0</ele>
        <time>2018-09-15T13:29:11Z</time>
      </trkpt>
      <trkpt lat="40.235567" lon="-4.894267">
        <ele>1636.0</ele>
        <time>2018-09-15T13:29:12Z</time>
      </trkpt>
      <trkpt lat="40.235533" lon="-4.894200">
        <ele>1633.0</ele>
        <time>2018-09-15T13:29:13Z</time>
      </trkpt>
      <trkpt lat="40.235517" lon="-4.894117">
        <ele>1631.0</ele>
        <time>2018-09-15T13:29:14Z</time>
      </trkpt>
      <trkpt lat="40.235467" lon="-4.894033">
        <ele>1628.0</ele>
        <time>2018-09-15T13:29:15Z</time>
      </trkpt>
      <trkpt lat="40.235433" lon="-4.893950">
        <ele>1625.0</ele>
        <time>2018-09-15T13:29:16Z</time>
      </trkpt>
      <trkpt lat="40.235400" lon="-4.893883">
        <ele>1622.0</ele>
        <time>2018-09-15T13:29:17Z</time>
      </trkpt>
      <trkpt lat="40.235367" lon="-4.893800">
        <ele>1620.0</ele>
        <time>2018-09-15T13:29:18Z</time>
      </trkpt>
      <trkpt lat="40.235333" lon="-4.893717">
        <ele>1617.0</ele>
        <time>2018-09-15T13:29:19Z</time>
      </trkpt>
      <trkpt lat="40.235300" lon="-4.893650">
        <ele>1615.0</ele>
        <time>2018-09-15T13:29:20Z</time>
      </trkpt>
      <trkpt lat="40.235267" lon="-4.893567">
        <ele>1612.0</ele>
        <time>2018-09-15T13:29:21Z</time>
      </trkpt>
      <trkpt lat="40.235233" lon="-4.893483">
        <ele>1610.0</ele>
        <time>2018-09-15T13:29:22Z</time>
      </trkpt>
      <trkpt lat="40.235183" lon="-4.893400">
        <ele>1608.0</ele>
        <time>2018-09-15T13:29:23Z</time>
      </trkpt>
      <trkpt lat="40.235150" lon="-4.893333">
        <ele>1605.0</ele>
        <time>2018-09-15T13:29:24Z</time>
      </trkpt>
      <trkpt lat="40.235117" lon="-4.893250">
        <ele>1603.0</ele>
        <time>2018-09-15T13:29:25Z</time>
      </trkpt>
      <trkpt lat="40.235067" lon="-4.893167">
        <ele>1600.0</ele>
        <time>2018-09-15T13:29:26Z</time>
      </trkpt>
      <trkpt lat="40.235033" lon="-4.893083">
        <ele>1598.0</ele>
        <time>2018-09-15T13:29:27Z</time>
      </trkpt>
      <trkpt lat="40.234983" lon="-4.893000">
        <ele>1596.0</ele>
        <time>2018-09-15T13:29:28Z</time>
      </trkpt>
      <trkpt lat="40.234950" lon="-4.892933">
        <ele>1594.0</ele>
        <time>2018-09-15T13:29:29Z</time>
      </trkpt>
      <trkpt lat="40.234900" lon="-4.892850">
        <ele>1592.0</ele>
        <time>2018-09-15T13:29:30Z</time>
      </trkpt>
      <trkpt lat="40.234867" lon="-4.892783">
        <ele>1590.0</ele>
        <time>2018-09-15T13:29:31Z</time>
      </trkpt>
      <trkpt lat="40.234833" lon="-4.892717">
        <ele>1588.0</ele>
        <time>2018-09-15T13:29:32Z</time>
      </trkpt>
      <trkpt lat="40.234783" lon="-4.892633">
        <ele>1586.0</ele>
        <time>2018-09-15T13:29:33Z</time>
      </trkpt>
      <trkpt lat="40.234717" lon="-4.892533">
        <ele>1585.0</ele>
        <time>2018-09-15T13:29:34Z</time>
      </trkpt>
      <trkpt lat="40.234667" lon="-4.892450">
        <ele>1591.0</ele>
        <time>2018-09-15T13:29:35Z</time>
      </trkpt>
      <trkpt lat="40.234617" lon="-4.892367">
        <ele>1590.0</ele>
        <time>2018-09-15T13:29:36Z</time>
      </trkpt>
      <trkpt lat="40.234567" lon="-4.892267">
        <ele>1590.0</ele>
        <time>2018-09-15T13:29:37Z</time>
      </trkpt>
      <trkpt lat="40.234517" lon="-4.892183">
        <ele>1591.0</ele>
        <time>2018-09-15T13:29:38Z</time>
      </trkpt>
      <trkpt lat="40.234450" lon="-4.892100">
        <ele>1591.0</ele>
        <time>2018-09-15T13:29:39Z</time>
      </trkpt>
      <trkpt lat="40.234400" lon="-4.892000">
        <ele>1591.0</ele>
        <time>2018-09-15T13:29:40Z</time>
      </trkpt>
      <trkpt lat="40.234350" lon="-4.891917">
        <ele>1591.0</ele>
        <time>2018-09-15T13:29:41Z</time>
      </trkpt>
      <trkpt lat="40.234300" lon="-4.891850">
        <ele>1590.0</ele>
        <time>2018-09-15T13:29:42Z</time>
      </trkpt>
      <trkpt lat="40.234250" lon="-4.891800">
        <ele>1590.0</ele>
        <time>2018-09-15T13:29:43Z</time>
      </trkpt>
      <trkpt lat="40.234200" lon="-4.891733">
        <ele>1590.0</ele>
        <time>2018-09-15T13:29:44Z</time>
      </trkpt>
      <trkpt lat="40.234133" lon="-4.891683">
        <ele>1589.0</ele>
        <time>2018-09-15T13:29:45Z</time>
      </trkpt>
      <trkpt lat="40.234083" lon="-4.891617">
        <ele>1589.0</ele>
        <time>2018-09-15T13:29:46Z</time>
      </trkpt>
      <trkpt lat="40.234033" lon="-4.891550">
        <ele>1588.0</ele>
        <time>2018-09-15T13:29:47Z</time>
      </trkpt>
      <trkpt lat="40.233967" lon="-4.891467">
        <ele>1588.0</ele>
        <time>2018-09-15T13:29:48Z</time>
      </trkpt>
      <trkpt lat="40.233917" lon="-4.891400">
        <ele>1588.0</ele>
        <time>2018-09-15T13:29:49Z</time>
      </trkpt>
      <trkpt lat="40.233867" lon="-4.891333">
        <ele>1587.0</ele>
        <time>2018-09-15T13:29:50Z</time>
      </trkpt>
      <trkpt lat="40.233817" lon="-4.891267">
        <ele>1587.0</ele>
        <time>2018-09-15T13:29:51Z</time>
      </trkpt>
      <trkpt lat="40.233767" lon="-4.891200">
        <ele>1586.0</ele>
        <time>2018-09-15T13:29:52Z</time>
      </trkpt>
      <trkpt lat="40.233717" lon="-4.891133">
        <ele>1586.0</ele>
        <time>2018-09-15T13:29:53Z</time>
      </trkpt>
      <trkpt lat="40.233667" lon="-4.891067">
        <ele>1585.0</ele>
        <time>2018-09-15T13:29:54Z</time>
      </trkpt>
      <trkpt lat="40.233617" lon="-4.890983">
        <ele>1584.0</ele>
        <time>2018-09-15T13:29:55Z</time>
      </trkpt>
      <trkpt lat="40.233567" lon="-4.890917">
        <ele>1583.0</ele>
        <time>2018-09-15T13:29:56Z</time>
      </trkpt>
      <trkpt lat="40.233517" lon="-4.890850">
        <ele>1583.0</ele>
        <time>2018-09-15T13:29:57Z</time>
      </trkpt>
      <trkpt lat="40.233467" lon="-4.890783">
        <ele>1582.0</ele>
        <time>2018-09-15T13:29:58Z</time>
      </trkpt>
      <trkpt lat="40.233417" lon="-4.890717">
        <ele>1582.0</ele>
        <time>2018-09-15T13:29:59Z</time>
      </trkpt>
      <trkpt lat="40.233367" lon="-4.890633">
        <ele>1581.0</ele>
        <time>2018-09-15T13:30:00Z</time>
      </trkpt>
      <trkpt lat="40.233300" lon="-4.890550">
        <ele>1581.0</ele>
        <time>2018-09-15T13:30:01Z</time>
      </trkpt>
      <trkpt lat="40.233250" lon="-4.890467">
        <ele>1580.0</ele>
        <time>2018-09-15T13:30:02Z</time>
      </trkpt>
      <trkpt lat="40.233200" lon="-4.890383">
        <ele>1579.0</ele>
        <time>2018-09-15T13:30:03Z</time>
      </trkpt>
      <trkpt lat="40.233150" lon="-4.890317">
        <ele>1578.0</ele>
        <time>2018-09-15T13:30:04Z</time>
      </trkpt>
      <trkpt lat="40.233100" lon="-4.890217">
        <ele>1577.0</ele>
        <time>2018-09-15T13:30:05Z</time>
      </trkpt>
      <trkpt lat="40.233050" lon="-4.890133">
        <ele>1576.0</ele>
        <time>2018-09-15T13:30:06Z</time>
      </trkpt>
      <trkpt lat="40.233000" lon="-4.890050">
        <ele>1575.0</ele>
        <time>2018-09-15T13:30:07Z</time>
      </trkpt>
      <trkpt lat="40.232950" lon="-4.889950">
        <ele>1574.0</ele>
        <time>2018-09-15T13:30:08Z</time>
      </trkpt>
      <trkpt lat="40.232900" lon="-4.889867">
        <ele>1573.0</ele>
        <time>2018-09-15T13:30:09Z</time>
      </trkpt>
      <trkpt lat="40.232850" lon="-4.889767">
        <ele>1572.0</ele>
        <time>2018-09-15T13:30:10Z</time>
      </trkpt>
      <trkpt lat="40.232800" lon="-4.889683">
        <ele>1572.0</ele>
        <time>2018-09-15T13:30:11Z</time>
      </trkpt>
      <trkpt lat="40.232750" lon="-4.889600">
        <ele>1571.0</ele>
        <time>2018-09-15T13:30:12Z</time>
      </trkpt>
      <trkpt lat="40.232717" lon="-4.889517">
        <ele>1570.0</ele>
        <time>2018-09-15T13:30:13Z</time>
      </trkpt>
      <trkpt lat="40.232667" lon="-4.889450">
        <ele>1570.0</ele>
        <time>2018-09-15T13:30:14Z</time>
      </trkpt>
      <trkpt lat="40.232617" lon="-4.889367">
        <ele>1569.0</ele>
        <time>2018-09-15T13:30:15Z</time>
      </trkpt>
      <trkpt lat="40.232583" lon="-4.889267">
        <ele>1568.0</ele>
        <time>2018-09-15T13:30:16Z</time>
      </trkpt>
      <trkpt lat="40.232533" lon="-4.889183">
        <ele>1567.0</ele>
        <time>2018-09-15T13:30:17Z</time>
      </trkpt>
      <trkpt lat="40.232483" lon="-4.889100">
        <ele>1566.0</ele>
        <time>2018-09-15T13:30:18Z</time>
      </trkpt>
      <trkpt lat="40.232450" lon="-4.889033">
        <ele>1566.0</ele>
        <time>2018-09-15T13:30:19Z</time>
      </trkpt>
      <trkpt lat="40.232400" lon="-4.888950">
        <ele>1565.0</ele>
        <time>2018-09-15T13:30:20Z</time>
      </trkpt>
      <trkpt lat="40.232367" lon="-4.888867">
        <ele>1564.0</ele>
        <time>2018-09-15T13:30:21Z</time>
      </trkpt>
      <trkpt lat="40.232317" lon="-4.888800">
        <ele>1563.0</ele>
        <time>2018-09-15T13:30:22Z</time>
      </trkpt>
      <trkpt lat="40.232283" lon="-4.888733">
        <ele>1562.0</ele>
        <time>2018-09-15T13:30:23Z</time>
      </trkpt>
      <trkpt lat="40.232250" lon="-4.888650">
        <ele>1560.0</ele>
        <time>2018-09-15T13:30:24Z</time>
      </trkpt>
      <trkpt lat="40.232200" lon="-4.888583">
        <ele>1560.0</ele>
        <time>2018-09-15T13:30:25Z</time>
      </trkpt>
      <trkpt lat="40.232167" lon="-4.888500">
        <ele>1559.0</ele>
        <time>2018-09-15T13:30:26Z</time>
      </trkpt>
      <trkpt lat="40.232133" lon="-4.888417">
        <ele>1558.0</ele>
        <time>2018-09-15T13:30:27Z</time>
      </trkpt>
      <trkpt lat="40.232100" lon="-4.888333">
        <ele>1557.0</ele>
        <time>2018-09-15T13:30:28Z</time>
      </trkpt>
      <trkpt lat="40.232067" lon="-4.888250">
        <ele>1556.0</ele>
        <time>2018-09-15T13:30:29Z</time>
      </trkpt>
      <trkpt lat="40.232033" lon="-4.888167">
        <ele>1555.0</ele>
        <time>2018-09-15T13:30:30Z</time>
      </trkpt>
      <trkpt lat="40.232000" lon="-4.888100">
        <ele>1554.0</ele>
        <time>2018-09-15T13:30:31Z</time>
      </trkpt>
      <trkpt lat="40.231967" lon="-4.888033">
        <ele>1552.0</ele>
        <time>2018-09-15T13:30:32Z</time>
      </trkpt>
      <trkpt lat="40.231933" lon="-4.887950">
        <ele>1550.0</ele>
        <time>2018-09-15T13:30:33Z</time>
      </trkpt>
      <trkpt lat="40.231900" lon="-4.887833">
        <ele>1547.0</ele>
        <time>2018-09-15T13:30:34Z</time>
      </trkpt>
      <trkpt lat="40.231850" lon="-4.887750">
        <ele>1547.0</ele>
        <time>2018-09-15T13:30:35Z</time>
      </trkpt>
      <trkpt lat="40.231817" lon="-4.887667">
        <ele>1546.0</ele>
        <time>2018-09-15T13:30:36Z</time>
      </trkpt>
      <trkpt lat="40.231783" lon="-4.887583">
        <ele>1545.0</ele>
        <time>2018-09-15T13:30:37Z</time>
      </trkpt>
      <trkpt lat="40.231733" lon="-4.887500">
        <ele>1544.0</ele>
        <time>2018-09-15T13:30:38Z</time>
      </trkpt>
      <trkpt lat="40.231700" lon="-4.887417">
        <ele>1543.0</ele>
        <time>2018-09-15T13:30:39Z</time>
      </trkpt>
      <trkpt lat="40.231667" lon="-4.887333">
        <ele>1542.0</ele>
        <time>2018-09-15T13:30:40Z</time>
      </trkpt>
      <trkpt lat="40.231633" lon="-4.887250">
        <ele>1541.0</ele>
        <time>2018-09-15T13:30:41Z</time>
      </trkpt>
      <trkpt lat="40.231600" lon="-4.887167">
        <ele>1540.0</ele>
        <time>2018-09-15T13:30:42Z</time>
      </trkpt>
      <trkpt lat="40.231583" lon="-4.887100">
        <ele>1539.0</ele>
        <time>2018-09-15T13:30:43Z</time>
      </trkpt>
      <trkpt lat="40.231550" lon="-4.887000">
        <ele>1538.0</ele>
        <time>2018-09-15T13:30:44Z</time>
      </trkpt>
      <trkpt lat="40.231517" lon="-4.886933">
        <ele>1537.0</ele>
        <time>2018-09-15T13:30:45Z</time>
      </trkpt>
      <trkpt lat="40.231483" lon="-4.886850">
        <ele>1536.0</ele>
        <time>2018-09-15T13:30:46Z</time>
      </trkpt>
      <trkpt lat="40.231433" lon="-4.886783">
        <ele>1535.0</ele>
        <time>2018-09-15T13:30:47Z</time>
      </trkpt>
      <trkpt lat="40.231417" lon="-4.886700">
        <ele>1534.0</ele>
        <time>2018-09-15T13:30:48Z</time>
      </trkpt>
      <trkpt lat="40.231383" lon="-4.886617">
        <ele>1533.0</ele>
        <time>2018-09-15T13:30:49Z</time>
      </trkpt>
      <trkpt lat="40.231367" lon="-4.886533">
        <ele>1532.0</ele>
        <time>2018-09-15T13:30:50Z</time>
      </trkpt>
      <trkpt lat="40.231333" lon="-4.886417">
        <ele>1531.0</ele>
        <time>2018-09-15T13:30:51Z</time>
      </trkpt>
      <trkpt lat="40.231300" lon="-4.886300">
        <ele>1530.0</ele>
        <time>2018-09-15T13:30:52Z</time>
      </trkpt>
      <trkpt lat="40.231267" lon="-4.886200">
        <ele>1529.0</ele>
        <time>2018-09-15T13:30:53Z</time>
      </trkpt>
      <trkpt lat="40.231233" lon="-4.886100">
        <ele>1528.0</ele>
        <time>2018-09-15T13:30:54Z</time>
      </trkpt>
      <trkpt lat="40.231183" lon="-4.886017">
        <ele>1527.0</ele>
        <time>2018-09-15T13:30:55Z</time>
      </trkpt>
      <trkpt lat="40.231150" lon="-4.885933">
        <ele>1526.0</ele>
        <time>2018-09-15T13:30:56Z</time>
      </trkpt>
      <trkpt lat="40.231100" lon="-4.885850">
        <ele>1525.0</ele>
        <time>2018-09-15T13:30:57Z</time>
      </trkpt>
      <trkpt lat="40.231067" lon="-4.885750">
        <ele>1524.0</ele>
        <time>2018-09-15T13:30:58Z</time>
      </trkpt>
      <trkpt lat="40.231033" lon="-4.885650">
        <ele>1523.0</ele>
        <time>2018-09-15T13:30:59Z</time>
      </trkpt>
      <trkpt lat="40.230983" lon="-4.885567">
        <ele>1521.0</ele>
        <time>2018-09-15T13:31:00Z</time>
      </trkpt>
      <trkpt lat="40.230950" lon="-4.885483">
        <ele>1520.0</ele>
        <time>2018-09-15T13:31:01Z</time>
      </trkpt>
      <trkpt lat="40.230900" lon="-4.885400">
        <ele>1519.0</ele>
        <time>2018-09-15T13:31:02Z</time>
      </trkpt>
      <trkpt lat="40.230867" lon="-4.885317">
        <ele>1518.0</ele>
        <time>2018-09-15T13:31:03Z</time>
      </trkpt>
      <trkpt lat="40.230833" lon="-4.885217">
        <ele>1517.0</ele>
        <time>2018-09-15T13:31:04Z</time>
      </trkpt>
      <trkpt lat="40.230783" lon="-4.885100">
        <ele>1516.0</ele>
        <time>2018-09-15T13:31:05Z</time>
      </trkpt>
      <trkpt lat="40.230750" lon="-4.885000">
        <ele>1515.0</ele>
        <time>2018-09-15T13:31:06Z</time>
      </trkpt>
      <trkpt lat="40.230700" lon="-4.884900">
        <ele>1513.0</ele>
        <time>2018-09-15T13:31:07Z</time>
      </trkpt>
      <trkpt lat="40.230650" lon="-4.884800">
        <ele>1512.0</ele>
        <time>2018-09-15T13:31:08Z</time>
      </trkpt>
      <trkpt lat="40.230617" lon="-4.884700">
        <ele>1510.0</ele>
        <time>2018-09-15T13:31:09Z</time>
      </trkpt>
      <trkpt lat="40.230567" lon="-4.884583">
        <ele>1508.0</ele>
        <time>2018-09-15T13:31:10Z</time>
      </trkpt>
      <trkpt lat="40.230533" lon="-4.884500">
        <ele>1505.0</ele>
        <time>2018-09-15T13:31:11Z</time>
      </trkpt>
      <trkpt lat="40.230483" lon="-4.884400">
        <ele>1502.0</ele>
        <time>2018-09-15T13:31:12Z</time>
      </trkpt>
      <trkpt lat="40.230433" lon="-4.884300">
        <ele>1502.0</ele>
        <time>2018-09-15T13:31:13Z</time>
      </trkpt>
      <trkpt lat="40.230383" lon="-4.884200">
        <ele>1500.0</ele>
        <time>2018-09-15T13:31:14Z</time>
      </trkpt>
      <trkpt lat="40.230350" lon="-4.884133">
        <ele>1496.0</ele>
        <time>2018-09-15T13:31:15Z</time>
      </trkpt>
      <trkpt lat="40.230300" lon="-4.884050">
        <ele>1492.0</ele>
        <time>2018-09-15T13:31:16Z</time>
      </trkpt>
      <trkpt lat="40.230267" lon="-4.883983">
        <ele>1491.0</ele>
        <time>2018-09-15T13:31:17Z</time>
      </trkpt>
      <trkpt lat="40.230217" lon="-4.883900">
        <ele>1488.0</ele>
        <time>2018-09-15T13:31:18Z</time>
      </trkpt>
      <trkpt lat="40.230183" lon="-4.883800">
        <ele>1484.0</ele>
        <time>2018-09-15T13:31:19Z</time>
      </trkpt>
      <trkpt lat="40.230133" lon="-4.883700">
        <ele>1480.0</ele>
        <time>2018-09-15T13:31:20Z</time>
      </trkpt>
      <trkpt lat="40.230100" lon="-4.883617">
        <ele>1476.0</ele>
        <time>2018-09-15T13:31:21Z</time>
      </trkpt>
      <trkpt lat="40.230067" lon="-4.883533">
        <ele>1472.0</ele>
        <time>2018-09-15T13:31:22Z</time>
      </trkpt>
      <trkpt lat="40.230017" lon="-4.883417">
        <ele>1468.0</ele>
        <time>2018-09-15T13:31:23Z</time>
      </trkpt>
      <trkpt lat="40.229967" lon="-4.883333">
        <ele>1469.0</ele>
        <time>2018-09-15T13:31:24Z</time>
      </trkpt>
      <trkpt lat="40.229917" lon="-4.883233">
        <ele>1467.0</ele>
        <time>2018-09-15T13:31:25Z</time>
      </trkpt>
      <trkpt lat="40.229883" lon="-4.883150">
        <ele>1464.0</ele>
        <time>2018-09-15T13:31:26Z</time>
      </trkpt>
      <trkpt lat="40.229850" lon="-4.883083">
        <ele>1461.0</ele>
        <time>2018-09-15T13:31:27Z</time>
      </trkpt>
      <trkpt lat="40.229817" lon="-4.882983">
        <ele>1458.0</ele>
        <time>2018-09-15T13:31:28Z</time>
      </trkpt>
      <trkpt lat="40.229767" lon="-4.882900">
        <ele>1457.0</ele>
        <time>2018-09-15T13:31:29Z</time>
      </trkpt>
      <trkpt lat="40.229717" lon="-4.882800">
        <ele>1454.0</ele>
        <time>2018-09-15T13:31:30Z</time>
      </trkpt>
      <trkpt lat="40.229667" lon="-4.882700">
        <ele>1450.0</ele>
        <time>2018-09-15T13:31:31Z</time>
      </trkpt>
      <trkpt lat="40.229633" lon="-4.882700">
        <ele>1447.0</ele>
        <time>2018-09-15T13:31:32Z</time>
      </trkpt>
      <trkpt lat="40.229600" lon="-4.882650">
        <ele>1441.0</ele>
        <time>2018-09-15T13:31:33Z</time>
      </trkpt>
      <trkpt lat="40.229567" lon="-4.882567">
        <ele>1435.0</ele>
        <time>2018-09-15T13:31:34Z</time>
      </trkpt>
      <trkpt lat="40.229533" lon="-4.882483">
        <ele>1430.0</ele>
        <time>2018-09-15T13:31:35Z</time>
      </trkpt>
      <trkpt lat="40.229517" lon="-4.882383">
        <ele>1425.0</ele>
        <time>2018-09-15T13:31:36Z</time>
      </trkpt>
      <trkpt lat="40.229483" lon="-4.882267">
        <ele>1422.0</ele>
        <time>2018-09-15T13:31:37Z</time>
      </trkpt>
      <trkpt lat="40.229450" lon="-4.882150">
        <ele>1420.0</ele>
        <time>2018-09-15T13:31:38Z</time>
      </trkpt>
      <trkpt lat="40.229417" lon="-4.882033">
        <ele>1417.0</ele>
        <time>2018-09-15T13:31:39Z</time>
      </trkpt>
      <trkpt lat="40.229383" lon="-4.881933">
        <ele>1415.0</ele>
        <time>2018-09-15T13:31:40Z</time>
      </trkpt>
      <trkpt lat="40.229383" lon="-4.881800">
        <ele>1413.0</ele>
        <time>2018-09-15T13:31:41Z</time>
      </trkpt>
      <trkpt lat="40.229417" lon="-4.881700">
        <ele>1415.0</ele>
        <time>2018-09-15T13:31:42Z</time>
      </trkpt>
      <trkpt lat="40.229500" lon="-4.881633">
        <ele>1416.0</ele>
        <time>2018-09-15T13:31:43Z</time>
      </trkpt>
      <trkpt lat="40.229583" lon="-4.881617">
        <ele>1416.0</ele>
        <time>2018-09-15T13:31:44Z</time>
      </trkpt>
      <trkpt lat="40.229683" lon="-4.881650">
        <ele>1415.0</ele>
        <time>2018-09-15T13:31:45Z</time>
      </trkpt>
      <trkpt lat="40.229733" lon="-4.881750">
        <ele>1415.0</ele>
        <time>2018-09-15T13:31:46Z</time>
      </trkpt>
      <trkpt lat="40.229767" lon="-4.881867">
        <ele>1415.0</ele>
        <time>2018-09-15T13:31:47Z</time>
      </trkpt>
      <trkpt lat="40.229767" lon="-4.881917">
        <ele>1415.0</ele>
        <time>2018-09-15T13:31:48Z</time>
      </trkpt>
      <trkpt lat="40.229767" lon="-4.881950">
        <ele>1415.0</ele>
        <time>2018-09-15T13:31:49Z</time>
      </trkpt>
      <trkpt lat="40.229767" lon="-4.881983">
        <ele>1415.0</ele>
        <time>2018-09-15T13:31:50Z</time>
      </trkpt>
      <trkpt lat="40.229767" lon="-4.882033">
        <ele>1415.0</ele>
        <time>2018-09-15T13:31:51Z</time>
      </trkpt>
      <trkpt lat="40.229767" lon="-4.882017">
        <ele>1415.0</ele>
        <time>2018-09-15T13:31:52Z</time>
      </trkpt>
      <trkpt lat="40.229817" lon="-4.881983">
        <ele>1415.0</ele>
        <time>2018-09-15T13:31:53Z</time>
      </trkpt>
      <trkpt lat="40.229817" lon="-4.882017">
        <ele>1415.0</ele>
        <time>2018-09-15T13:31:54Z</time>
      </trkpt>
      <trkpt lat="40.229633" lon="-4.882000">
        <ele>1415.0</ele>
        <time>2018-09-15T13:31:55Z</time>
      </trkpt>
      <trkpt lat="40.229633" lon="-4.881983">
        <ele>1414.0</ele>
        <time>2018-09-15T13:31:56Z</time>
      </trkpt>
      <trkpt lat="40.229600" lon="-4.882117">
        <ele>1414.0</ele>
        <time>2018-09-15T13:31:57Z</time>
      </trkpt>
      <trkpt lat="40.229450" lon="-4.882033">
        <ele>1413.0</ele>
        <time>2018-09-15T13:31:58Z</time>
      </trkpt>
      <trkpt lat="40.229367" lon="-4.881983">
        <ele>1412.0</ele>
        <time>2018-09-15T13:31:59Z</time>
      </trkpt>
      <trkpt lat="40.229383" lon="-4.881983">
        <ele>1412.0</ele>
        <time>2018-09-15T13:32:00Z</time>
      </trkpt>
      <trkpt lat="40.229383" lon="-4.882000">
        <ele>1411.0</ele>
        <time>2018-09-15T13:32:01Z</time>
      </trkpt>
      <trkpt lat="40.229333" lon="-4.882033">
        <ele>1410.0</ele>
        <time>2018-09-15T13:32:02Z</time>
      </trkpt>
      <trkpt lat="40.229250" lon="-4.882133">
        <ele>1410.0</ele>
        <time>2018-09-15T13:32:03Z</time>
      </trkpt>
      <trkpt lat="40.229167" lon="-4.882167">
        <ele>1410.0</ele>
        <time>2018-09-15T13:32:04Z</time>
      </trkpt>
      <trkpt lat="40.229100" lon="-4.882167">
        <ele>1409.0</ele>
        <time>2018-09-15T13:32:05Z</time>
      </trkpt>
      <trkpt lat="40.229017" lon="-4.882183">
        <ele>1408.0</ele>
        <time>2018-09-15T13:32:06Z</time>
      </trkpt>
      <trkpt lat="40.228917" lon="-4.882267">
        <ele>1407.0</ele>
        <time>2018-09-15T13:32:07Z</time>
      </trkpt>
      <trkpt lat="40.228800" lon="-4.882350">
        <ele>1406.0</ele>
        <time>2018-09-15T13:32:08Z</time>
      </trkpt>
      <trkpt lat="40.228683" lon="-4.882367">
        <ele>1405.0</ele>
        <time>2018-09-15T13:32:09Z</time>
      </trkpt>
      <trkpt lat="40.228633" lon="-4.882333">
        <ele>1404.0</ele>
        <time>2018-09-15T13:32:10Z</time>
      </trkpt>
      <trkpt lat="40.228600" lon="-4.882267">
        <ele>1403.0</ele>
        <time>2018-09-15T13:32:11Z</time>
      </trkpt>
      <trkpt lat="40.228567" lon="-4.882200">
        <ele>1402.0</ele>
        <time>2018-09-15T13:32:12Z</time>
      </trkpt>
      <trkpt lat="40.228500" lon="-4.882133">
        <ele>1400.0</ele>
        <time>2018-09-15T13:32:13Z</time>
      </trkpt>
      <trkpt lat="40.228450" lon="-4.882050">
        <ele>1399.0</ele>
        <time>2018-09-15T13:32:14Z</time>
      </trkpt>
      <trkpt lat="40.228383" lon="-4.881950">
        <ele>1398.0</ele>
        <time>2018-09-15T13:32:15Z</time>
      </trkpt>
      <trkpt lat="40.228333" lon="-4.881867">
        <ele>1397.0</ele>
        <time>2018-09-15T13:32:16Z</time>
      </trkpt>
      <trkpt lat="40.228333" lon="-4.881767">
        <ele>1396.0</ele>
        <time>2018-09-15T13:32:17Z</time>
      </trkpt>
      <trkpt lat="40.228350" lon="-4.881650">
        <ele>1394.0</ele>
        <time>2018-09-15T13:32:18Z</time>
      </trkpt>
      <trkpt lat="40.228367" lon="-4.881550">
        <ele>1392.0</ele>
        <time>2018-09-15T13:32:19Z</time>
      </trkpt>
      <trkpt lat="40.228350" lon="-4.881433">
        <ele>1390.0</ele>
        <time>2018-09-15T13:32:20Z</time>
      </trkpt>
      <trkpt lat="40.228350" lon="-4.881317">
        <ele>1388.0</ele>
        <time>2018-09-15T13:32:21Z</time>
      </trkpt>
      <trkpt lat="40.228350" lon="-4.881200">
        <ele>1387.0</ele>
        <time>2018-09-15T13:32:22Z</time>
      </trkpt>
      <trkpt lat="40.228350" lon="-4.881100">
        <ele>1386.0</ele>
        <time>2018-09-15T13:32:23Z</time>
      </trkpt>
      <trkpt lat="40.228350" lon="-4.880983">
        <ele>1385.0</ele>
        <time>2018-09-15T13:32:24Z</time>
      </trkpt>
      <trkpt lat="40.228350" lon="-4.880917">
        <ele>1384.0</ele>
        <time>2018-09-15T13:32:25Z</time>
      </trkpt>
      <trkpt lat="40.228283" lon="-4.880983">
        <ele>1383.0</ele>
        <time>2018-09-15T13:32:26Z</time>
      </trkpt>
      <trkpt lat="40.228200" lon="-4.881067">
        <ele>1381.0</ele>
        <time>2018-09-15T13:32:27Z</time>
      </trkpt>
      <trkpt lat="40.228150" lon="-4.881100">
        <ele>1381.0</ele>
        <time>2018-09-15T13:32:28Z</time>
      </trkpt>
      <trkpt lat="40.228150" lon="-4.881100">
        <ele>1380.0</ele>
        <time>2018-09-15T13:32:29Z</time>
      </trkpt>
      <trkpt lat="40.228167" lon="-4.881067">
        <ele>1379.0</ele>
        <time>2018-09-15T13:32:30Z</time>
      </trkpt>
      <trkpt lat="40.228150" lon="-4.881050">
        <ele>1379.0</ele>
        <time>2018-09-15T13:32:31Z</time>
      </trkpt>
      <trkpt lat="40.228133" lon="-4.881017">
        <ele>1378.0</ele>
        <time>2018-09-15T13:32:32Z</time>
      </trkpt>
      <trkpt lat="40.228067" lon="-4.880983">
        <ele>1377.0</ele>
        <time>2018-09-15T13:32:33Z</time>
      </trkpt>
      <trkpt lat="40.228000" lon="-4.880950">
        <ele>1382.0</ele>
        <time>2018-09-15T13:32:34Z</time>
      </trkpt>
      <trkpt lat="40.227950" lon="-4.880917">
        <ele>1384.0</ele>
        <time>2018-09-15T13:32:35Z</time>
      </trkpt>
      <trkpt lat="40.227883" lon="-4.880917">
        <ele>1384.0</ele>
        <time>2018-09-15T13:32:36Z</time>
      </trkpt>
      <trkpt lat="40.227717" lon="-4.881083">
        <ele>1384.0</ele>
        <time>2018-09-15T13:32:37Z</time>
      </trkpt>
      <trkpt lat="40.227667" lon="-4.881333">
        <ele>1384.0</ele>
        <time>2018-09-15T13:32:38Z</time>
      </trkpt>
      <trkpt lat="40.227583" lon="-4.881383">
        <ele>1383.0</ele>
        <time>2018-09-15T13:32:39Z</time>
      </trkpt>
      <trkpt lat="40.227483" lon="-4.881350">
        <ele>1383.0</ele>
        <time>2018-09-15T13:32:40Z</time>
      </trkpt>
      <trkpt lat="40.227383" lon="-4.881267">
        <ele>1382.0</ele>
        <time>2018-09-15T13:32:41Z</time>
      </trkpt>
      <trkpt lat="40.227300" lon="-4.881200">
        <ele>1382.0</ele>
        <time>2018-09-15T13:32:42Z</time>
      </trkpt>
      <trkpt lat="40.227367" lon="-4.881083">
        <ele>1382.0</ele>
        <time>2018-09-15T13:32:43Z</time>
      </trkpt>
      <trkpt lat="40.227500" lon="-4.880933">
        <ele>1381.0</ele>
        <time>2018-09-15T13:32:44Z</time>
      </trkpt>
      <trkpt lat="40.227467" lon="-4.880817">
        <ele>1381.0</ele>
        <time>2018-09-15T13:32:45Z</time>
      </trkpt>
      <trkpt lat="40.227400" lon="-4.880867">
        <ele>1380.0</ele>
        <time>2018-09-15T13:32:46Z</time>
      </trkpt>
      <trkpt lat="40.227350" lon="-4.880933">
        <ele>1379.0</ele>
        <time>2018-09-15T13:32:47Z</time>
      </trkpt>
      <trkpt lat="40.227367" lon="-4.880833">
        <ele>1379.0</ele>
        <time>2018-09-15T13:32:48Z</time>
      </trkpt>
      <trkpt lat="40.227350" lon="-4.880733">
        <ele>1377.0</ele>
        <time>2018-09-15T13:32:49Z</time>
      </trkpt>
      <trkpt lat="40.227300" lon="-4.880717">
        <ele>1376.0</ele>
        <time>2018-09-15T13:32:50Z</time>
      </trkpt>
      <trkpt lat="40.227250" lon="-4.880700">
        <ele>1376.0</ele>
        <time>2018-09-15T13:32:51Z</time>
      </trkpt>
      <trkpt lat="40.227183" lon="-4.880700">
        <ele>1376.0</ele>
        <time>2018-09-15T13:32:52Z</time>
      </trkpt>
      <trkpt lat="40.227050" lon="-4.880700">
        <ele>1376.0</ele>
        <time>2018-09-15T13:32:53Z</time>
      </trkpt>
      <trkpt lat="40.226967" lon="-4.880650">
        <ele>1376.0</ele>
        <time>2018-09-15T13:32:54Z</time>
      </trkpt>
      <trkpt lat="40.226883" lon="-4.880617">
        <ele>1375.0</ele>
        <time>2018-09-15T13:32:55Z</time>
      </trkpt>
      <trkpt lat="40.226800" lon="-4.880600">
        <ele>1375.0</ele>
        <time>2018-09-15T13:32:56Z</time>
      </trkpt>
      <trkpt lat="40.226717" lon="-4.880583">
        <ele>1375.0</ele>
        <time>2018-09-15T13:32:57Z</time>
      </trkpt>
      <trkpt lat="40.226617" lon="-4.880567">
        <ele>1375.0</ele>
        <time>2018-09-15T13:32:58Z</time>
      </trkpt>
      <trkpt lat="40.226517" lon="-4.880500">
        <ele>1375.0</ele>
        <time>2018-09-15T13:32:59Z</time>
      </trkpt>
      <trkpt lat="40.226417" lon="-4.880450">
        <ele>1375.0</ele>
        <time>2018-09-15T13:33:00Z</time>
      </trkpt>
      <trkpt lat="40.226317" lon="-4.880450">
        <ele>1375.0</ele>
        <time>2018-09-15T13:33:01Z</time>
      </trkpt>
      <trkpt lat="40.226217" lon="-4.880433">
        <ele>1375.0</ele>
        <time>2018-09-15T13:33:02Z</time>
      </trkpt>
      <trkpt lat="40.226117" lon="-4.880417">
        <ele>1375.0</ele>
        <time>2018-09-15T13:33:03Z</time>
      </trkpt>
      <trkpt lat="40.226017" lon="-4.880400">
        <ele>1375.0</ele>
        <time>2018-09-15T13:33:04Z</time>
      </trkpt>
      <trkpt lat="40.225933" lon="-4.880433">
        <ele>1375.0</ele>
        <time>2018-09-15T13:33:05Z</time>
      </trkpt>
      <trkpt lat="40.225850" lon="-4.880350">
        <ele>1375.0</ele>
        <time>2018-09-15T13:33:06Z</time>
      </trkpt>
      <trkpt lat="40.225800" lon="-4.880233">
        <ele>1375.0</ele>
        <time>2018-09-15T13:33:07Z</time>
      </trkpt>
      <trkpt lat="40.225733" lon="-4.880150">
        <ele>1375.0</ele>
        <time>2018-09-15T13:33:08Z</time>
      </trkpt>
      <trkpt lat="40.225650" lon="-4.880133">
        <ele>1374.0</ele>
        <time>2018-09-15T13:33:09Z</time>
      </trkpt>
      <trkpt lat="40.225583" lon="-4.880050">
        <ele>1374.0</ele>
        <time>2018-09-15T13:33:10Z</time>
      </trkpt>
      <trkpt lat="40.225567" lon="-4.879967">
        <ele>1374.0</ele>
        <time>2018-09-15T13:33:11Z</time>
      </trkpt>
      <trkpt lat="40.225533" lon="-4.879883">
        <ele>1374.0</ele>
        <time>2018-09-15T13:33:12Z</time>
      </trkpt>
      <trkpt lat="40.225533" lon="-4.879800">
        <ele>1374.0</ele>
        <time>2018-09-15T13:33:13Z</time>
      </trkpt>
      <trkpt lat="40.225517" lon="-4.879750">
        <ele>1374.0</ele>
        <time>2018-09-15T13:33:14Z</time>
      </trkpt>
      <trkpt lat="40.225483" lon="-4.879650">
        <ele>1374.0</ele>
        <time>2018-09-15T13:33:15Z</time>
      </trkpt>
      <trkpt lat="40.225433" lon="-4.879533">
        <ele>1374.0</ele>
        <time>2018-09-15T13:33:16Z</time>
      </trkpt>
      <trkpt lat="40.225433" lon="-4.879433">
        <ele>1374.0</ele>
        <time>2018-09-15T13:33:17Z</time>
      </trkpt>
      <trkpt lat="40.225450" lon="-4.879367">
        <ele>1374.0</ele>
        <time>2018-09-15T13:33:18Z</time>
      </trkpt>
      <trkpt lat="40.225467" lon="-4.879283">
        <ele>1374.0</ele>
        <time>2018-09-15T13:33:19Z</time>
      </trkpt>
      <trkpt lat="40.225483" lon="-4.879167">
        <ele>1374.0</ele>
        <time>2018-09-15T13:33:20Z</time>
      </trkpt>
      <trkpt lat="40.225500" lon="-4.879033">
        <ele>1374.0</ele>
        <time>2018-09-15T13:33:21Z</time>
      </trkpt>
      <trkpt lat="40.225533" lon="-4.878900">
        <ele>1374.0</ele>
        <time>2018-09-15T13:33:22Z</time>
      </trkpt>
      <trkpt lat="40.225600" lon="-4.878783">
        <ele>1374.0</ele>
        <time>2018-09-15T13:33:23Z</time>
      </trkpt>
      <trkpt lat="40.225700" lon="-4.878733">
        <ele>1374.0</ele>
        <time>2018-09-15T13:33:24Z</time>
      </trkpt>
      <trkpt lat="40.225800" lon="-4.878683">
        <ele>1374.0</ele>
        <time>2018-09-15T13:33:25Z</time>
      </trkpt>
      <trkpt lat="40.225900" lon="-4.878633">
        <ele>1374.0</ele>
        <time>2018-09-15T13:33:26Z</time>
      </trkpt>
      <trkpt lat="40.226000" lon="-4.878600">
        <ele>1373.0</ele>
        <time>2018-09-15T13:33:27Z</time>
      </trkpt>
      <trkpt lat="40.226083" lon="-4.878583">
        <ele>1373.0</ele>
        <time>2018-09-15T13:33:28Z</time>
      </trkpt>
      <trkpt lat="40.226150" lon="-4.878583">
        <ele>1373.0</ele>
        <time>2018-09-15T13:33:29Z</time>
      </trkpt>
      <trkpt lat="40.226233" lon="-4.878583">
        <ele>1373.0</ele>
        <time>2018-09-15T13:33:30Z</time>
      </trkpt>
      <trkpt lat="40.226333" lon="-4.878600">
        <ele>1373.0</ele>
        <time>2018-09-15T13:33:31Z</time>
      </trkpt>
      <trkpt lat="40.226417" lon="-4.878617">
        <ele>1373.0</ele>
        <time>2018-09-15T13:33:32Z</time>
      </trkpt>
      <trkpt lat="40.226517" lon="-4.878650">
        <ele>1373.0</ele>
        <time>2018-09-15T13:33:33Z</time>
      </trkpt>
      <trkpt lat="40.226617" lon="-4.878717">
        <ele>1373.0</ele>
        <time>2018-09-15T13:33:34Z</time>
      </trkpt>
      <trkpt lat="40.226683" lon="-4.878817">
        <ele>1373.0</ele>
        <time>2018-09-15T13:33:35Z</time>
      </trkpt>
      <trkpt lat="40.226750" lon="-4.878933">
        <ele>1373.0</ele>
        <time>2018-09-15T13:33:36Z</time>
      </trkpt>
      <trkpt lat="40.226833" lon="-4.879033">
        <ele>1373.0</ele>
        <time>2018-09-15T13:33:37Z</time>
      </trkpt>
      <trkpt lat="40.226900" lon="-4.879150">
        <ele>1373.0</ele>
        <time>2018-09-15T13:33:38Z</time>
      </trkpt>
      <trkpt lat="40.226983" lon="-4.879250">
        <ele>1373.0</ele>
        <time>2018-09-15T13:33:39Z</time>
      </trkpt>
      <trkpt lat="40.227067" lon="-4.879350">
        <ele>1373.0</ele>
        <time>2018-09-15T13:33:40Z</time>
      </trkpt>
      <trkpt lat="40.227133" lon="-4.879467">
        <ele>1373.0</ele>
        <time>2018-09-15T13:33:41Z</time>
      </trkpt>
      <trkpt lat="40.227150" lon="-4.879583">
        <ele>1372.0</ele>
        <time>2018-09-15T13:33:42Z</time>
      </trkpt>
      <trkpt lat="40.227150" lon="-4.879733">
        <ele>1372.0</ele>
        <time>2018-09-15T13:33:43Z</time>
      </trkpt>
      <trkpt lat="40.227033" lon="-4.879800">
        <ele>1372.0</ele>
        <time>2018-09-15T13:33:44Z</time>
      </trkpt>
      <trkpt lat="40.226917" lon="-4.879850">
        <ele>1372.0</ele>
        <time>2018-09-15T13:33:45Z</time>
      </trkpt>
      <trkpt lat="40.226833" lon="-4.879950">
        <ele>1372.0</ele>
        <time>2018-09-15T13:33:46Z</time>
      </trkpt>
      <trkpt lat="40.226767" lon="-4.880033">
        <ele>1372.0</ele>
        <time>2018-09-15T13:33:47Z</time>
      </trkpt>
      <trkpt lat="40.226717" lon="-4.880117">
        <ele>1372.0</ele>
        <time>2018-09-15T13:33:48Z</time>
      </trkpt>
      <trkpt lat="40.226567" lon="-4.880217">
        <ele>0.0</ele>
        <time>2018-09-15T13:33:50Z</time>
      </trkpt>
      <trkpt lat="40.226417" lon="-4.880233">
        <ele>0.0</ele>
        <time>2018-09-15T13:33:52Z</time>
      </trkpt>
      <trkpt lat="40.226333" lon="-4.880217">
        <ele>1371.0</ele>
        <time>2018-09-15T13:33:53Z</time>
      </trkpt>
      <trkpt lat="40.226267" lon="-4.880150">
        <ele>1371.0</ele>
        <time>2018-09-15T13:33:54Z</time>
      </trkpt>
      <trkpt lat="40.226217" lon="-4.880100">
        <ele>1371.0</ele>
        <time>2018-09-15T13:33:55Z</time>
      </trkpt>
      <trkpt lat="40.226183" lon="-4.880017">
        <ele>1371.0</ele>
        <time>2018-09-15T13:33:56Z</time>
      </trkpt>
      <trkpt lat="40.226167" lon="-4.879900">
        <ele>1371.0</ele>
        <time>2018-09-15T13:33:57Z</time>
      </trkpt>
      <trkpt lat="40.226167" lon="-4.879800">
        <ele>1371.0</ele>
        <time>2018-09-15T13:33:58Z</time>
      </trkpt>
      <trkpt lat="40.226183" lon="-4.879700">
        <ele>1371.0</ele>
        <time>2018-09-15T13:33:59Z</time>
      </trkpt>
      <trkpt lat="40.226233" lon="-4.879633">
        <ele>1371.0</ele>
        <time>2018-09-15T13:34:00Z</time>
      </trkpt>
      <trkpt lat="40.226283" lon="-4.879550">
        <ele>1370.0</ele>
        <time>2018-09-15T13:34:01Z</time>
      </trkpt>
      <trkpt lat="40.226317" lon="-4.879500">
        <ele>1370.0</ele>
        <time>2018-09-15T13:34:02Z</time>
      </trkpt>
      <trkpt lat="40.226350" lon="-4.879433">
        <ele>1370.0</ele>
        <time>2018-09-15T13:34:03Z</time>
      </trkpt>
      <trkpt lat="40.226433" lon="-4.879400">
        <ele>1370.0</ele>
        <time>2018-09-15T13:34:04Z</time>
      </trkpt>
      <trkpt lat="40.226500" lon="-4.879383">
        <ele>1370.0</ele>
        <time>2018-09-15T13:34:05Z</time>
      </trkpt>
      <trkpt lat="40.226633" lon="-4.879367">
        <ele>0.0</ele>
        <time>2018-09-15T13:34:07Z</time>
      </trkpt>
      <trkpt lat="40.226717" lon="-4.879400">
        <ele>1370.0</ele>
        <time>2018-09-15T13:34:08Z</time>
      </trkpt>
      <trkpt lat="40.226783" lon="-4.879450">
        <ele>1370.0</ele>
        <time>2018-09-15T13:34:09Z</time>
      </trkpt>
      <trkpt lat="40.226867" lon="-4.879517">
        <ele>1369.0</ele>
        <time>2018-09-15T13:34:10Z</time>
      </trkpt>
      <trkpt lat="40.226917" lon="-4.879850">
        <ele>0.0</ele>
        <time>2018-09-15T13:34:13Z</time>
      </trkpt>
      <trkpt lat="40.226900" lon="-4.879967">
        <ele>1369.0</ele>
        <time>2018-09-15T13:34:14Z</time>
      </trkpt>
      <trkpt lat="40.226900" lon="-4.880100">
        <ele>1369.0</ele>
        <time>2018-09-15T13:34:15Z</time>
      </trkpt>
      <trkpt lat="40.226883" lon="-4.880200">
        <ele>1369.0</ele>
        <time>2018-09-15T13:34:16Z</time>
      </trkpt>
      <trkpt lat="40.226850" lon="-4.880267">
        <ele>1369.0</ele>
        <time>2018-09-15T13:34:17Z</time>
      </trkpt>
      <trkpt lat="40.226817" lon="-4.880300">
        <ele>1369.0</ele>
        <time>2018-09-15T13:34:18Z</time>
      </trkpt>
      <trkpt lat="40.226800" lon="-4.880333">
        <ele>1369.0</ele>
        <time>2018-09-15T13:34:19Z</time>
      </trkpt>
      <trkpt lat="40.226717" lon="-4.880317">
        <ele>1369.0</ele>
        <time>2018-09-15T13:34:20Z</time>
      </trkpt>
      <trkpt lat="40.226617" lon="-4.880267">
        <ele>1369.0</ele>
        <time>2018-09-15T13:34:21Z</time>
      </trkpt>
      <trkpt lat="40.226533" lon="-4.880183">
        <ele>1369.0</ele>
        <time>2018-09-15T13:34:22Z</time>
      </trkpt>
      <trkpt lat="40.226500" lon="-4.880083">
        <ele>1369.0</ele>
        <time>2018-09-15T13:34:23Z</time>
      </trkpt>
      <trkpt lat="40.226533" lon="-4.880000">
        <ele>1369.0</ele>
        <time>2018-09-15T13:34:24Z</time>
      </trkpt>
      <trkpt lat="40.226583" lon="-4.879867">
        <ele>1369.0</ele>
        <time>2018-09-15T13:34:25Z</time>
      </trkpt>
      <trkpt lat="40.226650" lon="-4.879800">
        <ele>1369.0</ele>
        <time>2018-09-15T13:34:26Z</time>
      </trkpt>
      <trkpt lat="40.226733" lon="-4.879767">
        <ele>1369.0</ele>
        <time>2018-09-15T13:34:27Z</time>
      </trkpt>
      <trkpt lat="40.226817" lon="-4.879733">
        <ele>1369.0</ele>
        <time>2018-09-15T13:34:28Z</time>
      </trkpt>
      <trkpt lat="40.226900" lon="-4.879733">
        <ele>1369.0</ele>
        <time>2018-09-15T13:34:29Z</time>
      </trkpt>
      <trkpt lat="40.227000" lon="-4.879767">
        <ele>1369.0</ele>
        <time>2018-09-15T13:34:30Z</time>
      </trkpt>
      <trkpt lat="40.227117" lon="-4.879833">
        <ele>1369.0</ele>
        <time>2018-09-15T13:34:31Z</time>
      </trkpt>
      <trkpt lat="40.227183" lon="-4.879933">
        <ele>1369.0</ele>
        <time>2018-09-15T13:34:32Z</time>
      </trkpt>
      <trkpt lat="40.227267" lon="-4.880017">
        <ele>1369.0</ele>
        <time>2018-09-15T13:34:33Z</time>
      </trkpt>
      <trkpt lat="40.227317" lon="-4.880133">
        <ele>1369.0</ele>
        <time>2018-09-15T13:34:34Z</time>
      </trkpt>
      <trkpt lat="40.227400" lon="-4.880267">
        <ele>1369.0</ele>
        <time>2018-09-15T13:34:35Z</time>
      </trkpt>
      <trkpt lat="40.227467" lon="-4.880367">
        <ele>1369.0</ele>
        <time>2018-09-15T13:34:36Z</time>
      </trkpt>
      <trkpt lat="40.227533" lon="-4.880500">
        <ele>1369.0</ele>
        <time>2018-09-15T13:34:37Z</time>
      </trkpt>
      <trkpt lat="40.227533" lon="-4.880617">
        <ele>1369.0</ele>
        <time>2018-09-15T13:34:38Z</time>
      </trkpt>
      <trkpt lat="40.227533" lon="-4.880750">
        <ele>1368.0</ele>
        <time>2018-09-15T13:34:39Z</time>
      </trkpt>
      <trkpt lat="40.227450" lon="-4.880883">
        <ele>1368.0</ele>
        <time>2018-09-15T13:34:40Z</time>
      </trkpt>
      <trkpt lat="40.227383" lon="-4.881017">
        <ele>1368.0</ele>
        <time>2018-09-15T13:34:41Z</time>
      </trkpt>
      <trkpt lat="40.227350" lon="-4.881133">
        <ele>1368.0</ele>
        <time>2018-09-15T13:34:42Z</time>
      </trkpt>
      <trkpt lat="40.227317" lon="-4.881250">
        <ele>1368.0</ele>
        <time>2018-09-15T13:34:43Z</time>
      </trkpt>
      <trkpt lat="40.227283" lon="-4.881333">
        <ele>1368.0</ele>
        <time>2018-09-15T13:34:44Z</time>
      </trkpt>
      <trkpt lat="40.227217" lon="-4.881400">
        <ele>1368.0</ele>
        <time>2018-09-15T13:34:45Z</time>
      </trkpt>
      <trkpt lat="40.227167" lon="-4.881450">
        <ele>1368.0</ele>
        <time>2018-09-15T13:34:46Z</time>
      </trkpt>
      <trkpt lat="40.227100" lon="-4.881517">
        <ele>1368.0</ele>
        <time>2018-09-15T13:34:47Z</time>
      </trkpt>
      <trkpt lat="40.227033" lon="-4.881567">
        <ele>1368.0</ele>
        <time>2018-09-15T13:34:48Z</time>
      </trkpt>
      <trkpt lat="40.226950" lon="-4.881583">
        <ele>1368.0</ele>
        <time>2018-09-15T13:34:49Z</time>
      </trkpt>
      <trkpt lat="40.226867" lon="-4.881583">
        <ele>1368.0</ele>
        <time>2018-09-15T13:34:50Z</time>
      </trkpt>
      <trkpt lat="40.226783" lon="-4.881600">
        <ele>1368.0</ele>
        <time>2018-09-15T13:34:51Z</time>
      </trkpt>
      <trkpt lat="40.226700" lon="-4.881617">
        <ele>1368.0</ele>
        <time>2018-09-15T13:34:52Z</time>
      </trkpt>
      <trkpt lat="40.226617" lon="-4.881633">
        <ele>1368.0</ele>
        <time>2018-09-15T13:34:53Z</time>
      </trkpt>
      <trkpt lat="40.226550" lon="-4.881650">
        <ele>1368.0</ele>
        <time>2018-09-15T13:34:54Z</time>
      </trkpt>
      <trkpt lat="40.226483" lon="-4.881650">
        <ele>1367.0</ele>
        <time>2018-09-15T13:34:55Z</time>
      </trkpt>
      <trkpt lat="40.226417" lon="-4.881667">
        <ele>1367.0</ele>
        <time>2018-09-15T13:34:56Z</time>
      </trkpt>
      <trkpt lat="40.226350" lon="-4.881683">
        <ele>1367.0</ele>
        <time>2018-09-15T13:34:57Z</time>
      </trkpt>
      <trkpt lat="40.226267" lon="-4.881683">
        <ele>1367.0</ele>
        <time>2018-09-15T13:34:58Z</time>
      </trkpt>
      <trkpt lat="40.226200" lon="-4.881683">
        <ele>1367.0</ele>
        <time>2018-09-15T13:34:59Z</time>
      </trkpt>
      <trkpt lat="40.226117" lon="-4.881683">
        <ele>1367.0</ele>
        <time>2018-09-15T13:35:00Z</time>
      </trkpt>
      <trkpt lat="40.226067" lon="-4.881667">
        <ele>1367.0</ele>
        <time>2018-09-15T13:35:01Z</time>
      </trkpt>
      <trkpt lat="40.226017" lon="-4.881633">
        <ele>1367.0</ele>
        <time>2018-09-15T13:35:02Z</time>
      </trkpt>
      <trkpt lat="40.226150" lon="-4.881483">
        <ele>1367.0</ele>
        <time>2018-09-15T13:35:03Z</time>
      </trkpt>
      <trkpt lat="40.226133" lon="-4.881383">
        <ele>1367.0</ele>
        <time>2018-09-15T13:35:04Z</time>
      </trkpt>
      <trkpt lat="40.226117" lon="-4.881233">
        <ele>0.0</ele>
        <time>2018-09-15T13:35:06Z</time>
      </trkpt>
      <trkpt lat="40.226117" lon="-4.881133">
        <ele>1367.0</ele>
        <time>2018-09-15T13:35:07Z</time>
      </trkpt>
      <trkpt lat="40.226117" lon="-4.881000">
        <ele>1367.0</ele>
        <time>2018-09-15T13:35:08Z</time>
      </trkpt>
      <trkpt lat="40.226117" lon="-4.880917">
        <ele>1367.0</ele>
        <time>2018-09-15T13:35:09Z</time>
      </trkpt>
      <trkpt lat="40.226133" lon="-4.880817">
        <ele>1367.0</ele>
        <time>2018-09-15T13:35:10Z</time>
      </trkpt>
      <trkpt lat="40.226150" lon="-4.880717">
        <ele>1366.0</ele>
        <time>2018-09-15T13:35:11Z</time>
      </trkpt>
      <trkpt lat="40.226167" lon="-4.880617">
        <ele>1366.0</ele>
        <time>2018-09-15T13:35:12Z</time>
      </trkpt>
      <trkpt lat="40.226183" lon="-4.880517">
        <ele>1366.0</ele>
        <time>2018-09-15T13:35:13Z</time>
      </trkpt>
      <trkpt lat="40.226217" lon="-4.880417">
        <ele>1366.0</ele>
        <time>2018-09-15T13:35:14Z</time>
      </trkpt>
      <trkpt lat="40.226250" lon="-4.880333">
        <ele>1366.0</ele>
        <time>2018-09-15T13:35:15Z</time>
      </trkpt>
      <trkpt lat="40.226267" lon="-4.880250">
        <ele>1366.0</ele>
        <time>2018-09-15T13:35:16Z</time>
      </trkpt>
      <trkpt lat="40.226283" lon="-4.880167">
        <ele>1366.0</ele>
        <time>2018-09-15T13:35:17Z</time>
      </trkpt>
      <trkpt lat="40.226300" lon="-4.880100">
        <ele>1366.0</ele>
        <time>2018-09-15T13:35:18Z</time>
      </trkpt>
      <trkpt lat="40.226300" lon="-4.880017">
        <ele>1366.0</ele>
        <time>2018-09-15T13:35:19Z</time>
      </trkpt>
      <trkpt lat="40.226317" lon="-4.879917">
        <ele>1366.0</ele>
        <time>2018-09-15T13:35:20Z</time>
      </trkpt>
      <trkpt lat="40.226350" lon="-4.879800">
        <ele>1366.0</ele>
        <time>2018-09-15T13:35:21Z</time>
      </trkpt>
      <trkpt lat="40.226400" lon="-4.879700">
        <ele>1365.0</ele>
        <time>2018-09-15T13:35:22Z</time>
      </trkpt>
      <trkpt lat="40.226450" lon="-4.879617">
        <ele>1365.0</ele>
        <time>2018-09-15T13:35:23Z</time>
      </trkpt>
      <trkpt lat="40.226483" lon="-4.879567">
        <ele>1365.0</ele>
        <time>2018-09-15T13:35:24Z</time>
      </trkpt>
      <trkpt lat="40.226500" lon="-4.879517">
        <ele>1365.0</ele>
        <time>2018-09-15T13:35:25Z</time>
      </trkpt>
      <trkpt lat="40.226533" lon="-4.879450">
        <ele>1365.0</ele>
        <time>2018-09-15T13:35:26Z</time>
      </trkpt>
      <trkpt lat="40.226567" lon="-4.879383">
        <ele>1365.0</ele>
        <time>2018-09-15T13:35:27Z</time>
      </trkpt>
      <trkpt lat="40.226600" lon="-4.879283">
        <ele>1364.0</ele>
        <time>2018-09-15T13:35:28Z</time>
      </trkpt>
      <trkpt lat="40.226633" lon="-4.879183">
        <ele>1364.0</ele>
        <time>2018-09-15T13:35:29Z</time>
      </trkpt>
      <trkpt lat="40.226633" lon="-4.879050">
        <ele>1364.0</ele>
        <time>2018-09-15T13:35:30Z</time>
      </trkpt>
      <trkpt lat="40.226617" lon="-4.878950">
        <ele>1363.0</ele>
        <time>2018-09-15T13:35:31Z</time>
      </trkpt>
      <trkpt lat="40.226567" lon="-4.878983">
        <ele>1363.0</ele>
        <time>2018-09-15T13:35:32Z</time>
      </trkpt>
      <trkpt lat="40.226533" lon="-4.878917">
        <ele>1360.0</ele>
        <time>2018-09-15T13:35:33Z</time>
      </trkpt>
      <trkpt lat="40.226517" lon="-4.878867">
        <ele>1360.0</ele>
        <time>2018-09-15T13:35:34Z</time>
      </trkpt>
      <trkpt lat="40.226483" lon="-4.878817">
        <ele>1360.0</ele>
        <time>2018-09-15T13:35:35Z</time>
      </trkpt>
      <trkpt lat="40.226450" lon="-4.878767">
        <ele>1359.0</ele>
        <time>2018-09-15T13:35:36Z</time>
      </trkpt>
      <trkpt lat="40.226400" lon="-4.878717">
        <ele>1359.0</ele>
        <time>2018-09-15T13:35:37Z</time>
      </trkpt>
      <trkpt lat="40.226350" lon="-4.878683">
        <ele>1359.0</ele>
        <time>2018-09-15T13:35:38Z</time>
      </trkpt>
      <trkpt lat="40.226283" lon="-4.878683">
        <ele>1358.0</ele>
        <time>2018-09-15T13:35:39Z</time>
      </trkpt>
      <trkpt lat="40.226200" lon="-4.878700">
        <ele>1358.0</ele>
        <time>2018-09-15T13:35:40Z</time>
      </trkpt>
      <trkpt lat="40.226133" lon="-4.878733">
        <ele>1358.0</ele>
        <time>2018-09-15T13:35:41Z</time>
      </trkpt>
      <trkpt lat="40.226067" lon="-4.878750">
        <ele>1359.0</ele>
        <time>2018-09-15T13:35:42Z</time>
      </trkpt>
      <trkpt lat="40.226000" lon="-4.878800">
        <ele>1361.0</ele>
        <time>2018-09-15T13:35:43Z</time>
      </trkpt>
      <trkpt lat="40.225967" lon="-4.878850">
        <ele>1361.0</ele>
        <time>2018-09-15T13:35:44Z</time>
      </trkpt>
      <trkpt lat="40.225933" lon="-4.878933">
        <ele>1362.0</ele>
        <time>2018-09-15T13:35:45Z</time>
      </trkpt>
      <trkpt lat="40.225933" lon="-4.879000">
        <ele>1362.0</ele>
        <time>2018-09-15T13:35:46Z</time>
      </trkpt>
      <trkpt lat="40.225950" lon="-4.879050">
        <ele>1362.0</ele>
        <time>2018-09-15T13:35:47Z</time>
      </trkpt>
      <trkpt lat="40.225983" lon="-4.879100">
        <ele>1362.0</ele>
        <time>2018-09-15T13:35:48Z</time>
      </trkpt>
      <trkpt lat="40.226017" lon="-4.879183">
        <ele>1362.0</ele>
        <time>2018-09-15T13:35:49Z</time>
      </trkpt>
      <trkpt lat="40.226133" lon="-4.879250">
        <ele>1362.0</ele>
        <time>2018-09-15T13:35:50Z</time>
      </trkpt>
      <trkpt lat="40.226217" lon="-4.879250">
        <ele>1362.0</ele>
        <time>2018-09-15T13:35:51Z</time>
      </trkpt>
      <trkpt lat="40.226250" lon="-4.879267">
        <ele>1362.0</ele>
        <time>2018-09-15T13:35:52Z</time>
      </trkpt>
      <trkpt lat="40.226283" lon="-4.879317">
        <ele>1362.0</ele>
        <time>2018-09-15T13:35:53Z</time>
      </trkpt>
      <trkpt lat="40.226300" lon="-4.879350">
        <ele>1362.0</ele>
        <time>2018-09-15T13:35:54Z</time>
      </trkpt>
      <trkpt lat="40.226300" lon="-4.879400">
        <ele>1362.0</ele>
        <time>2018-09-15T13:35:55Z</time>
      </trkpt>
      <trkpt lat="40.226300" lon="-4.879483">
        <ele>1362.0</ele>
        <time>2018-09-15T13:35:56Z</time>
      </trkpt>
      <trkpt lat="40.226317" lon="-4.879600">
        <ele>1362.0</ele>
        <time>2018-09-15T13:35:57Z</time>
      </trkpt>
      <trkpt lat="40.226350" lon="-4.879733">
        <ele>1362.0</ele>
        <time>2018-09-15T13:35:58Z</time>
      </trkpt>
      <trkpt lat="40.226383" lon="-4.879867">
        <ele>1362.0</ele>
        <time>2018-09-15T13:35:59Z</time>
      </trkpt>
      <trkpt lat="40.226450" lon="-4.879983">
        <ele>1362.0</ele>
        <time>2018-09-15T13:36:00Z</time>
      </trkpt>
      <trkpt lat="40.226550" lon="-4.880017">
        <ele>1362.0</ele>
        <time>2018-09-15T13:36:01Z</time>
      </trkpt>
      <trkpt lat="40.226633" lon="-4.880017">
        <ele>1362.0</ele>
        <time>2018-09-15T13:36:02Z</time>
      </trkpt>
      <trkpt lat="40.226700" lon="-4.879950">
        <ele>1362.0</ele>
        <time>2018-09-15T13:36:03Z</time>
      </trkpt>
      <trkpt lat="40.226683" lon="-4.879850">
        <ele>1362.0</ele>
        <time>2018-09-15T13:36:04Z</time>
      </trkpt>
      <trkpt lat="40.226617" lon="-4.879783">
        <ele>1362.0</ele>
        <time>2018-09-15T13:36:05Z</time>
      </trkpt>
      <trkpt lat="40.226533" lon="-4.879733">
        <ele>1362.0</ele>
        <time>2018-09-15T13:36:06Z</time>
      </trkpt>
      <trkpt lat="40.226467" lon="-4.879717">
        <ele>1362.0</ele>
        <time>2018-09-15T13:36:07Z</time>
      </trkpt>
      <trkpt lat="40.226400" lon="-4.879683">
        <ele>1362.0</ele>
        <time>2018-09-15T13:36:08Z</time>
      </trkpt>
      <trkpt lat="40.226300" lon="-4.879683">
        <ele>1362.0</ele>
        <time>2018-09-15T13:36:09Z</time>
      </trkpt>
      <trkpt lat="40.226250" lon="-4.879733">
        <ele>1362.0</ele>
        <time>2018-09-15T13:36:10Z</time>
      </trkpt>
      <trkpt lat="40.226183" lon="-4.879767">
        <ele>1362.0</ele>
        <time>2018-09-15T13:36:11Z</time>
      </trkpt>
      <trkpt lat="40.226083" lon="-4.879800">
        <ele>1362.0</ele>
        <time>2018-09-15T13:36:12Z</time>
      </trkpt>
      <trkpt lat="40.225983" lon="-4.879817">
        <ele>1362.0</ele>
        <time>2018-09-15T13:36:13Z</time>
      </trkpt>
      <trkpt lat="40.225883" lon="-4.879850">
        <ele>1362.0</ele>
        <time>2018-09-15T13:36:14Z</time>
      </trkpt>
      <trkpt lat="40.225800" lon="-4.879850">
        <ele>1362.0</ele>
        <time>2018-09-15T13:36:15Z</time>
      </trkpt>
      <trkpt lat="40.225717" lon="-4.879850">
        <ele>1362.0</ele>
        <time>2018-09-15T13:36:16Z</time>
      </trkpt>
      <trkpt lat="40.225617" lon="-4.879867">
        <ele>1362.0</ele>
        <time>2018-09-15T13:36:17Z</time>
      </trkpt>
      <trkpt lat="40.225500" lon="-4.879950">
        <ele>1362.0</ele>
        <time>2018-09-15T13:36:18Z</time>
      </trkpt>
      <trkpt lat="40.225417" lon="-4.880067">
        <ele>1362.0</ele>
        <time>2018-09-15T13:36:19Z</time>
      </trkpt>
      <trkpt lat="40.225333" lon="-4.880100">
        <ele>1362.0</ele>
        <time>2018-09-15T13:36:20Z</time>
      </trkpt>
      <trkpt lat="40.225250" lon="-4.880150">
        <ele>1362.0</ele>
        <time>2018-09-15T13:36:21Z</time>
      </trkpt>
      <trkpt lat="40.225167" lon="-4.880217">
        <ele>1362.0</ele>
        <time>2018-09-15T13:36:22Z</time>
      </trkpt>
      <trkpt lat="40.225100" lon="-4.880267">
        <ele>1362.0</ele>
        <time>2018-09-15T13:36:23Z</time>
      </trkpt>
      <trkpt lat="40.225017" lon="-4.880317">
        <ele>1362.0</ele>
        <time>2018-09-15T13:36:24Z</time>
      </trkpt>
      <trkpt lat="40.224950" lon="-4.880383">
        <ele>1362.0</ele>
        <time>2018-09-15T13:36:25Z</time>
      </trkpt>
      <trkpt lat="40.224883" lon="-4.880467">
        <ele>1362.0</ele>
        <time>2018-09-15T13:36:26Z</time>
      </trkpt>
      <trkpt lat="40.224833" lon="-4.880583">
        <ele>1362.0</ele>
        <time>2018-09-15T13:36:27Z</time>
      </trkpt>
      <trkpt lat="40.224767" lon="-4.880667">
        <ele>1362.0</ele>
        <time>2018-09-15T13:36:28Z</time>
      </trkpt>
      <trkpt lat="40.224683" lon="-4.880683">
        <ele>1361.0</ele>
        <time>2018-09-15T13:36:29Z</time>
      </trkpt>
      <trkpt lat="40.224600" lon="-4.880700">
        <ele>1361.0</ele>
        <time>2018-09-15T13:36:30Z</time>
      </trkpt>
      <trkpt lat="40.224517" lon="-4.880717">
        <ele>1361.0</ele>
        <time>2018-09-15T13:36:31Z</time>
      </trkpt>
      <trkpt lat="40.224433" lon="-4.880717">
        <ele>1361.0</ele>
        <time>2018-09-15T13:36:32Z</time>
      </trkpt>
      <trkpt lat="40.224350" lon="-4.880733">
        <ele>1361.0</ele>
        <time>2018-09-15T13:36:33Z</time>
      </trkpt>
      <trkpt lat="40.224283" lon="-4.880733">
        <ele>1361.0</ele>
        <time>2018-09-15T13:36:34Z</time>
      </trkpt>
      <trkpt lat="40.224183" lon="-4.880750">
        <ele>1361.0</ele>
        <time>2018-09-15T13:36:35Z</time>
      </trkpt>
      <trkpt lat="40.224100" lon="-4.880750">
        <ele>1361.0</ele>
        <time>2018-09-15T13:36:36Z</time>
      </trkpt>
      <trkpt lat="40.224017" lon="-4.880750">
        <ele>1361.0</ele>
        <time>2018-09-15T13:36:37Z</time>
      </trkpt>
      <trkpt lat="40.223917" lon="-4.880733">
        <ele>1361.0</ele>
        <time>2018-09-15T13:36:38Z</time>
      </trkpt>
      <trkpt lat="40.223850" lon="-4.880700">
        <ele>1360.0</ele>
        <time>2018-09-15T13:36:39Z</time>
      </trkpt>
      <trkpt lat="40.223800" lon="-4.880667">
        <ele>1360.0</ele>
        <time>2018-09-15T13:36:40Z</time>
      </trkpt>
      <trkpt lat="40.223733" lon="-4.880633">
        <ele>1360.0</ele>
        <time>2018-09-15T13:36:41Z</time>
      </trkpt>
      <trkpt lat="40.223667" lon="-4.880617">
        <ele>1360.0</ele>
        <time>2018-09-15T13:36:42Z</time>
      </trkpt>
      <trkpt lat="40.223617" lon="-4.880567">
        <ele>1360.0</ele>
        <time>2018-09-15T13:36:43Z</time>
      </trkpt>
      <trkpt lat="40.223600" lon="-4.880517">
        <ele>1360.0</ele>
        <time>2018-09-15T13:36:44Z</time>
      </trkpt>
      <trkpt lat="40.223567" lon="-4.880467">
        <ele>1360.0</ele>
        <time>2018-09-15T13:36:45Z</time>
      </trkpt>
      <trkpt lat="40.223567" lon="-4.880417">
        <ele>1360.0</ele>
        <time>2018-09-15T13:36:46Z</time>
      </trkpt>
      <trkpt lat="40.223533" lon="-4.880400">
        <ele>1360.0</ele>
        <time>2018-09-15T13:36:47Z</time>
      </trkpt>
      <trkpt lat="40.223500" lon="-4.880383">
        <ele>1360.0</ele>
        <time>2018-09-15T13:36:48Z</time>
      </trkpt>
      <trkpt lat="40.223517" lon="-4.880367">
        <ele>1360.0</ele>
        <time>2018-09-15T13:36:49Z</time>
      </trkpt>
      <trkpt lat="40.223750" lon="-4.880550">
        <ele>1360.0</ele>
        <time>2018-09-15T13:36:50Z</time>
      </trkpt>
      <trkpt lat="40.223950" lon="-4.880583">
        <ele>1360.0</ele>
        <time>2018-09-15T13:36:51Z</time>
      </trkpt>
      <trkpt lat="40.224083" lon="-4.880583">
        <ele>1360.0</ele>
        <time>2018-09-15T13:36:52Z</time>
      </trkpt>
      <trkpt lat="40.224183" lon="-4.880567">
        <ele>1360.0</ele>
        <time>2018-09-15T13:36:53Z</time>
      </trkpt>
      <trkpt lat="40.224267" lon="-4.880567">
        <ele>1360.0</ele>
        <time>2018-09-15T13:36:54Z</time>
      </trkpt>
      <trkpt lat="40.224333" lon="-4.880550">
        <ele>1360.0</ele>
        <time>2018-09-15T13:36:55Z</time>
      </trkpt>
      <trkpt lat="40.224383" lon="-4.880483">
        <ele>1360.0</ele>
        <time>2018-09-15T13:36:56Z</time>
      </trkpt>
      <trkpt lat="40.224433" lon="-4.880367">
        <ele>1360.0</ele>
        <time>2018-09-15T13:36:57Z</time>
      </trkpt>
      <trkpt lat="40.224483" lon="-4.880250">
        <ele>1360.0</ele>
        <time>2018-09-15T13:36:58Z</time>
      </trkpt>
      <trkpt lat="40.224517" lon="-4.880217">
        <ele>1360.0</ele>
        <time>2018-09-15T13:36:59Z</time>
      </trkpt>
      <trkpt lat="40.224533" lon="-4.880150">
        <ele>1360.0</ele>
        <time>2018-09-15T13:37:00Z</time>
      </trkpt>
      <trkpt lat="40.224500" lon="-4.880117">
        <ele>1360.0</ele>
        <time>2018-09-15T13:37:01Z</time>
      </trkpt>
      <trkpt lat="40.224500" lon="-4.880100">
        <ele>1360.0</ele>
        <time>2018-09-15T13:37:02Z</time>
      </trkpt>
      <trkpt lat="40.224467" lon="-4.880083">
        <ele>1360.0</ele>
        <time>2018-09-15T13:37:03Z</time>
      </trkpt>
      <trkpt lat="40.224417" lon="-4.880033">
        <ele>1360.0</ele>
        <time>2018-09-15T13:37:04Z</time>
      </trkpt>
      <trkpt lat="40.224367" lon="-4.879967">
        <ele>1360.0</ele>
        <time>2018-09-15T13:37:05Z</time>
      </trkpt>
      <trkpt lat="40.224383" lon="-4.879900">
        <ele>1360.0</ele>
        <time>2018-09-15T13:37:06Z</time>
      </trkpt>
      <trkpt lat="40.224433" lon="-4.879850">
        <ele>1360.0</ele>
        <time>2018-09-15T13:37:07Z</time>
      </trkpt>
      <trkpt lat="40.224500" lon="-4.879800">
        <ele>1360.0</ele>
        <time>2018-09-15T13:37:08Z</time>
      </trkpt>
      <trkpt lat="40.224533" lon="-4.879767">
        <ele>1360.0</ele>
        <time>2018-09-15T13:37:09Z</time>
      </trkpt>
      <trkpt lat="40.224550" lon="-4.879717">
        <ele>1360.0</ele>
        <time>2018-09-15T13:37:10Z</time>
      </trkpt>
      <trkpt lat="40.224583" lon="-4.879633">
        <ele>1360.0</ele>
        <time>2018-09-15T13:37:11Z</time>
      </trkpt>
      <trkpt lat="40.224650" lon="-4.879550">
        <ele>1360.0</ele>
        <time>2018-09-15T13:37:12Z</time>
      </trkpt>
      <trkpt lat="40.224717" lon="-4.879450">
        <ele>1360.0</ele>
        <time>2018-09-15T13:37:13Z</time>
      </trkpt>
      <trkpt lat="40.224783" lon="-4.879350">
        <ele>1359.0</ele>
        <time>2018-09-15T13:37:14Z</time>
      </trkpt>
      <trkpt lat="40.224800" lon="-4.879250">
        <ele>1359.0</ele>
        <time>2018-09-15T13:37:15Z</time>
      </trkpt>
      <trkpt lat="40.224817" lon="-4.879183">
        <ele>1359.0</ele>
        <time>2018-09-15T13:37:16Z</time>
      </trkpt>
      <trkpt lat="40.224833" lon="-4.879100">
        <ele>1359.0</ele>
        <time>2018-09-15T13:37:17Z</time>
      </trkpt>
      <trkpt lat="40.224817" lon="-4.879033">
        <ele>1359.0</ele>
        <time>2018-09-15T13:37:18Z</time>
      </trkpt>
      <trkpt lat="40.224817" lon="-4.878950">
        <ele>1359.0</ele>
        <time>2018-09-15T13:37:19Z</time>
      </trkpt>
      <trkpt lat="40.224833" lon="-4.878850">
        <ele>1358.0</ele>
        <time>2018-09-15T13:37:20Z</time>
      </trkpt>
      <trkpt lat="40.224867" lon="-4.878767">
        <ele>1358.0</ele>
        <time>2018-09-15T13:37:21Z</time>
      </trkpt>
      <trkpt lat="40.224917" lon="-4.878667">
        <ele>1358.0</ele>
        <time>2018-09-15T13:37:22Z</time>
      </trkpt>
      <trkpt lat="40.224933" lon="-4.878617">
        <ele>1358.0</ele>
        <time>2018-09-15T13:37:23Z</time>
      </trkpt>
      <trkpt lat="40.224950" lon="-4.878567">
        <ele>1357.0</ele>
        <time>2018-09-15T13:37:24Z</time>
      </trkpt>
      <trkpt lat="40.224967" lon="-4.878467">
        <ele>1357.0</ele>
        <time>2018-09-15T13:37:25Z</time>
      </trkpt>
      <trkpt lat="40.225000" lon="-4.878400">
        <ele>1356.0</ele>
        <time>2018-09-15T13:37:26Z</time>
      </trkpt>
      <trkpt lat="40.225017" lon="-4.878350">
        <ele>1355.0</ele>
        <time>2018-09-15T13:37:27Z</time>
      </trkpt>
      <trkpt lat="40.225033" lon="-4.878317">
        <ele>1355.0</ele>
        <time>2018-09-15T13:37:28Z</time>
      </trkpt>
      <trkpt lat="40.225017" lon="-4.878317">
        <ele>1354.0</ele>
        <time>2018-09-15T13:37:29Z</time>
      </trkpt>
      <trkpt lat="40.225033" lon="-4.878283">
        <ele>1353.0</ele>
        <time>2018-09-15T13:37:30Z</time>
      </trkpt>
      <trkpt lat="40.225050" lon="-4.878233">
        <ele>1352.0</ele>
        <time>2018-09-15T13:37:31Z</time>
      </trkpt>
      <trkpt lat="40.225050" lon="-4.878183">
        <ele>1351.0</ele>
        <time>2018-09-15T13:37:32Z</time>
      </trkpt>
      <trkpt lat="40.225050" lon="-4.878133">
        <ele>1350.0</ele>
        <time>2018-09-15T13:37:33Z</time>
      </trkpt>
      <trkpt lat="40.225083" lon="-4.878133">
        <ele>1349.0</ele>
        <time>2018-09-15T13:37:34Z</time>
      </trkpt>
      <trkpt lat="40.225100" lon="-4.878150">
        <ele>1348.0</ele>
        <time>2018-09-15T13:37:35Z</time>
      </trkpt>
      <trkpt lat="40.225100" lon="-4.878150">
        <ele>1347.0</ele>
        <time>2018-09-15T13:37:36Z</time>
      </trkpt>
      <trkpt lat="40.225117" lon="-4.878117">
        <ele>1346.0</ele>
        <time>2018-09-15T13:37:37Z</time>
      </trkpt>
      <trkpt lat="40.225133" lon="-4.878100">
        <ele>1345.0</ele>
        <time>2018-09-15T13:37:38Z</time>
      </trkpt>
      <trkpt lat="40.225150" lon="-4.878100">
        <ele>1343.0</ele>
        <time>2018-09-15T13:37:39Z</time>
      </trkpt>
      <trkpt lat="40.225200" lon="-4.878067">
        <ele>1341.0</ele>
        <time>2018-09-15T13:37:40Z</time>
      </trkpt>
      <trkpt lat="40.225217" lon="-4.878067">
        <ele>1340.0</ele>
        <time>2018-09-15T13:37:41Z</time>
      </trkpt>
      <trkpt lat="40.225233" lon="-4.878067">
        <ele>1339.0</ele>
        <time>2018-09-15T13:37:42Z</time>
      </trkpt>
      <trkpt lat="40.225267" lon="-4.878050">
        <ele>1337.0</ele>
        <time>2018-09-15T13:37:43Z</time>
      </trkpt>
      <trkpt lat="40.225317" lon="-4.878067">
        <ele>1336.0</ele>
        <time>2018-09-15T13:37:44Z</time>
      </trkpt>
      <trkpt lat="40.225317" lon="-4.878033">
        <ele>1335.0</ele>
        <time>2018-09-15T13:37:45Z</time>
      </trkpt>
      <trkpt lat="40.225300" lon="-4.877983">
        <ele>1339.0</ele>
        <time>2018-09-15T13:37:46Z</time>
      </trkpt>
      <trkpt lat="40.225283" lon="-4.877967">
        <ele>1337.0</ele>
        <time>2018-09-15T13:37:47Z</time>
      </trkpt>
      <trkpt lat="40.225317" lon="-4.877967">
        <ele>1336.0</ele>
        <time>2018-09-15T13:37:48Z</time>
      </trkpt>
      <trkpt lat="40.225333" lon="-4.877950">
        <ele>1335.0</ele>
        <time>2018-09-15T13:37:49Z</time>
      </trkpt>
      <trkpt lat="40.225367" lon="-4.877933">
        <ele>1333.0</ele>
        <time>2018-09-15T13:37:50Z</time>
      </trkpt>
      <trkpt lat="40.225367" lon="-4.877883">
        <ele>1331.0</ele>
        <time>2018-09-15T13:37:51Z</time>
      </trkpt>
      <trkpt lat="40.225400" lon="-4.877817">
        <ele>1329.0</ele>
        <time>2018-09-15T13:37:52Z</time>
      </trkpt>
      <trkpt lat="40.225417" lon="-4.877867">
        <ele>1328.0</ele>
        <time>2018-09-15T13:37:53Z</time>
      </trkpt>
      <trkpt lat="40.225433" lon="-4.878000">
        <ele>1326.0</ele>
        <time>2018-09-15T13:37:54Z</time>
      </trkpt>
      <trkpt lat="40.225450" lon="-4.878100">
        <ele>1324.0</ele>
        <time>2018-09-15T13:37:55Z</time>
      </trkpt>
      <trkpt lat="40.225467" lon="-4.878183">
        <ele>1323.0</ele>
        <time>2018-09-15T13:37:56Z</time>
      </trkpt>
      <trkpt lat="40.225483" lon="-4.878250">
        <ele>1321.0</ele>
        <time>2018-09-15T13:37:57Z</time>
      </trkpt>
      <trkpt lat="40.225483" lon="-4.878250">
        <ele>1318.0</ele>
        <time>2018-09-15T13:37:58Z</time>
      </trkpt>
      <trkpt lat="40.225483" lon="-4.878283">
        <ele>1316.0</ele>
        <time>2018-09-15T13:37:59Z</time>
      </trkpt>
      <trkpt lat="40.225483" lon="-4.878300">
        <ele>1315.0</ele>
        <time>2018-09-15T13:38:00Z</time>
      </trkpt>
      <trkpt lat="40.225467" lon="-4.878317">
        <ele>1314.0</ele>
        <time>2018-09-15T13:38:01Z</time>
      </trkpt>
      <trkpt lat="40.225450" lon="-4.878233">
        <ele>1319.0</ele>
        <time>2018-09-15T13:38:02Z</time>
      </trkpt>
      <trkpt lat="40.225450" lon="-4.878233">
        <ele>1323.0</ele>
        <time>2018-09-15T13:38:03Z</time>
      </trkpt>
      <trkpt lat="40.225433" lon="-4.878250">
        <ele>1324.0</ele>
        <time>2018-09-15T13:38:04Z</time>
      </trkpt>
      <trkpt lat="40.225433" lon="-4.878250">
        <ele>1324.0</ele>
        <time>2018-09-15T13:38:05Z</time>
      </trkpt>
      <trkpt lat="40.225433" lon="-4.878250">
        <ele>1324.0</ele>
        <time>2018-09-15T13:38:06Z</time>
      </trkpt>
      <trkpt lat="40.225433" lon="-4.878267">
        <ele>1324.0</ele>
        <time>2018-09-15T13:38:07Z</time>
      </trkpt>
      <trkpt lat="40.225433" lon="-4.878283">
        <ele>1324.0</ele>
        <time>2018-09-15T13:38:08Z</time>
      </trkpt>
      <trkpt lat="40.225450" lon="-4.878283">
        <ele>1324.0</ele>
        <time>2018-09-15T13:38:09Z</time>
      </trkpt>
      <trkpt lat="40.225483" lon="-4.878267">
        <ele>1324.0</ele>
        <time>2018-09-15T13:38:10Z</time>
      </trkpt>
      <trkpt lat="40.225517" lon="-4.878250">
        <ele>1324.0</ele>
        <time>2018-09-15T13:38:11Z</time>
      </trkpt>
      <trkpt lat="40.225550" lon="-4.878233">
        <ele>1324.0</ele>
        <time>2018-09-15T13:38:12Z</time>
      </trkpt>
      <trkpt lat="40.225583" lon="-4.878233">
        <ele>1324.0</ele>
        <time>2018-09-15T13:38:13Z</time>
      </trkpt>
      <trkpt lat="40.225583" lon="-4.878233">
        <ele>1324.0</ele>
        <time>2018-09-15T13:38:14Z</time>
      </trkpt>
      <trkpt lat="40.225600" lon="-4.878217">
        <ele>1324.0</ele>
        <time>2018-09-15T13:38:15Z</time>
      </trkpt>
      <trkpt lat="40.225617" lon="-4.878217">
        <ele>1324.0</ele>
        <time>2018-09-15T13:38:16Z</time>
      </trkpt>
      <trkpt lat="40.225650" lon="-4.878200">
        <ele>1324.0</ele>
        <time>2018-09-15T13:38:17Z</time>
      </trkpt>
      <trkpt lat="40.225717" lon="-4.878167">
        <ele>1324.0</ele>
        <time>2018-09-15T13:38:18Z</time>
      </trkpt>
      <trkpt lat="40.225717" lon="-4.878167">
        <ele>1324.0</ele>
        <time>2018-09-15T13:38:19Z</time>
      </trkpt>
      <trkpt lat="40.225683" lon="-4.878183">
        <ele>1324.0</ele>
        <time>2018-09-15T13:38:20Z</time>
      </trkpt>
      <trkpt lat="40.225650" lon="-4.878183">
        <ele>1324.0</ele>
        <time>2018-09-15T13:38:21Z</time>
      </trkpt>
      <trkpt lat="40.225633" lon="-4.878200">
        <ele>1324.0</ele>
        <time>2018-09-15T13:38:22Z</time>
      </trkpt>
    </trkseg>
  </trk>
</gpx>
